<?xml version='1.0' encoding='UTF-8'?><gpx version="1.1" creator="JPX - https://github.com/jenetics/jpx" xmlns="http://www.topografix.com/GPX/1/1"><trk><trkseg><trkpt lat="41.6381390467001" lon="19.59055171940504"><ele>0.0</ele><time>2026-05-03T07:36:37.917Z</time></trkpt><trkpt lat="41.63818916143362" lon="19.590691509211414"><ele>0.0</ele><time>2026-05-03T07:36:38.918Z</time></trkpt><trkpt lat="41.638239977441806" lon="19.59084362357503"><ele>0.0</ele><time>2026-05-03T07:36:40Z</time></trkpt><trkpt lat="41.63828935369429" lon="19.590990944971505"><ele>0.0</ele><time>2026-05-03T07:36:41Z</time></trkpt><trkpt lat="41.638337423845" lon="19.591143637389564"><ele>0.0</ele><time>2026-05-03T07:36:42Z</time></trkpt><trkpt lat="41.638388461296834" lon="19.591296237308562"><ele>0.0</ele><time>2026-05-03T07:36:43Z</time></trkpt><trkpt lat="41.6384451208089" lon="19.591452184714303"><ele>0.0</ele><time>2026-05-03T07:36:44Z</time></trkpt><trkpt lat="41.638502982891836" lon="19.59160802505136"><ele>0.0</ele><time>2026-05-03T07:36:45Z</time></trkpt><trkpt lat="41.638558070302544" lon="19.591766453372593"><ele>0.0</ele><time>2026-05-03T07:36:46Z</time></trkpt><trkpt lat="41.638610327511046" lon="19.591926235508357"><ele>0.0</ele><time>2026-05-03T07:36:47Z</time></trkpt><trkpt lat="41.63865975012096" lon="19.59208771182869"><ele>0.0</ele><time>2026-05-03T07:36:48Z</time></trkpt><trkpt lat="41.63870621458229" lon="19.592252796172115"><ele>0.0</ele><time>2026-05-03T07:36:49Z</time></trkpt><trkpt lat="41.63875887170123" lon="19.592421533579742"><ele>0.0</ele><time>2026-05-03T07:36:50Z</time></trkpt><trkpt lat="41.63882602428803" lon="19.59262883422917"><ele>0.0</ele><time>2026-05-03T07:36:51Z</time></trkpt><trkpt lat="41.63889167715132" lon="19.592826090321452"><ele>0.0</ele><time>2026-05-03T07:36:52Z</time></trkpt><trkpt lat="41.63895796698509" lon="19.593025533796055"><ele>0.0</ele><time>2026-05-03T07:36:53Z</time></trkpt><trkpt lat="41.639035795028015" lon="19.59325713406667"><ele>0.0</ele><time>2026-05-03T07:36:54Z</time></trkpt><trkpt lat="41.63913235228726" lon="19.593536448391202"><ele>0.0</ele><time>2026-05-03T07:36:55Z</time></trkpt><trkpt lat="41.63923832567777" lon="19.593843501176227"><ele>0.0</ele><time>2026-05-03T07:36:56Z</time></trkpt><trkpt lat="41.63934260918481" lon="19.594135811305286"><ele>0.0</ele><time>2026-05-03T07:36:57Z</time></trkpt><trkpt lat="41.6394424817888" lon="19.594426225546076"><ele>0.0</ele><time>2026-05-03T07:36:58Z</time></trkpt><trkpt lat="41.63953525828454" lon="19.594696760911912"><ele>0.0</ele><time>2026-05-03T07:36:59Z</time></trkpt><trkpt lat="41.63961468408577" lon="19.594928772361158"><ele>0.0</ele><time>2026-05-03T07:37:00Z</time></trkpt><trkpt lat="41.639683151710344" lon="19.595126375341927"><ele>0.0</ele><time>2026-05-03T07:37:01Z</time></trkpt><trkpt lat="41.63975862171983" lon="19.5953315875754"><ele>0.0</ele><time>2026-05-03T07:37:02Z</time></trkpt><trkpt lat="41.63982231881963" lon="19.59549926415553"><ele>0.0</ele><time>2026-05-03T07:37:03Z</time></trkpt><trkpt lat="41.63988142405657" lon="19.595641375730207"><ele>0.0</ele><time>2026-05-03T07:37:04Z</time></trkpt><trkpt lat="41.639934619756346" lon="19.595771365680093"><ele>0.0</ele><time>2026-05-03T07:37:05Z</time></trkpt><trkpt lat="41.64000285257706" lon="19.595915474851015"><ele>0.0</ele><time>2026-05-03T07:37:06Z</time></trkpt><trkpt lat="41.640074500753755" lon="19.596071556605885"><ele>0.0</ele><time>2026-05-03T07:37:06.999Z</time></trkpt><trkpt lat="41.64014447638883" lon="19.59623304552216"><ele>0.0</ele><time>2026-05-03T07:37:07.999Z</time></trkpt><trkpt lat="41.640220701574" lon="19.59639188516778"><ele>0.0</ele><time>2026-05-03T07:37:08.999Z</time></trkpt><trkpt lat="41.6402957789705" lon="19.59655955985789"><ele>0.0</ele><time>2026-05-03T07:37:09.999Z</time></trkpt><trkpt lat="41.64036781016816" lon="19.596734007379688"><ele>0.0</ele><time>2026-05-03T07:37:10.999Z</time></trkpt><trkpt lat="41.64044333429534" lon="19.596914096044948"><ele>0.0</ele><time>2026-05-03T07:37:11.999Z</time></trkpt><trkpt lat="41.640525408559434" lon="19.597091283941204"><ele>0.0</ele><time>2026-05-03T07:37:12.999Z</time></trkpt><trkpt lat="41.64060914366134" lon="19.597266553695547"><ele>0.0</ele><time>2026-05-03T07:37:13.999Z</time></trkpt><trkpt lat="41.64069104114809" lon="19.597443968497572"><ele>0.0</ele><time>2026-05-03T07:37:14.999Z</time></trkpt><trkpt lat="41.640768651251314" lon="19.59760841050683"><ele>0.0</ele><time>2026-05-03T07:37:15.999Z</time></trkpt><trkpt lat="41.64085109150177" lon="19.597764119443738"><ele>0.0</ele><time>2026-05-03T07:37:16.999Z</time></trkpt><trkpt lat="41.64093920619061" lon="19.59791348334272"><ele>0.0</ele><time>2026-05-03T07:37:17.999Z</time></trkpt><trkpt lat="41.64102411961502" lon="19.598056306414204"><ele>0.0</ele><time>2026-05-03T07:37:18.999Z</time></trkpt><trkpt lat="41.641097210539165" lon="19.598190392694022"><ele>-0.2</ele><time>2026-05-03T07:37:19.999Z</time></trkpt><trkpt lat="41.64115735461718" lon="19.5983064504038"><ele>-0.4</ele><time>2026-05-03T07:37:20.999Z</time></trkpt><trkpt lat="41.641212087608416" lon="19.598410296734784"><ele>-0.6000000000000001</ele><time>2026-05-03T07:37:21.999Z</time></trkpt><trkpt lat="41.64126157427121" lon="19.5984985284562"><ele>-0.8</ele><time>2026-05-03T07:37:22.999Z</time></trkpt><trkpt lat="41.641314858145606" lon="19.59858538292243"><ele>-1.0</ele><time>2026-05-03T07:37:23.999Z</time></trkpt><trkpt lat="41.641369695375694" lon="19.598679345011156"><ele>-1.25</ele><time>2026-05-03T07:37:24.999Z</time></trkpt><trkpt lat="41.64143270264016" lon="19.59879373921397"><ele>-1.5</ele><time>2026-05-03T07:37:25.999Z</time></trkpt><trkpt lat="41.641499076514364" lon="19.598915741155245"><ele>-1.75</ele><time>2026-05-03T07:37:26.999Z</time></trkpt><trkpt lat="41.641573642944934" lon="19.599041987832916"><ele>-2.0</ele><time>2026-05-03T07:37:27.999Z</time></trkpt><trkpt lat="41.64166127955463" lon="19.599181122108124"><ele>-2.0</ele><time>2026-05-03T07:37:28.999Z</time></trkpt><trkpt lat="41.64175066657242" lon="19.599343570787397"><ele>-2.0</ele><time>2026-05-03T07:37:29.999Z</time></trkpt><trkpt lat="41.641837685143024" lon="19.599529620335133"><ele>-2.0</ele><time>2026-05-03T07:37:30.999Z</time></trkpt><trkpt lat="41.64193149291131" lon="19.599717766616163"><ele>-2.0</ele><time>2026-05-03T07:37:31.999Z</time></trkpt><trkpt lat="41.64203033514788" lon="19.599908122439214"><ele>-2.0</ele><time>2026-05-03T07:37:32.999Z</time></trkpt><trkpt lat="41.64213444924723" lon="19.6001022756982"><ele>-2.0</ele><time>2026-05-03T07:37:33.999Z</time></trkpt><trkpt lat="41.64224371447593" lon="19.600302729844955"><ele>-2.333333333333333</ele><time>2026-05-03T07:37:34.999Z</time></trkpt><trkpt lat="41.6423574715835" lon="19.600509212967633"><ele>-2.6666666666666665</ele><time>2026-05-03T07:37:35.999Z</time></trkpt><trkpt lat="41.64247255746129" lon="19.60072355503185"><ele>-3.0</ele><time>2026-05-03T07:37:36.999Z</time></trkpt><trkpt lat="41.64258969205343" lon="19.600940216607974"><ele>-3.0</ele><time>2026-05-03T07:37:37.999Z</time></trkpt><trkpt lat="41.64270901925678" lon="19.601160275806205"><ele>-3.0</ele><time>2026-05-03T07:37:38.999Z</time></trkpt><trkpt lat="41.64283241750469" lon="19.60139060044262"><ele>-3.0</ele><time>2026-05-03T07:37:39.999Z</time></trkpt><trkpt lat="41.64295411537711" lon="19.601622830653646"><ele>-2.3333333333333335</ele><time>2026-05-03T07:37:40.999Z</time></trkpt><trkpt lat="41.643079314492496" lon="19.601858140152636"><ele>-1.6666666666666665</ele><time>2026-05-03T07:37:41.999Z</time></trkpt><trkpt lat="41.643205573948" lon="19.60209607434766"><ele>-1.0</ele><time>2026-05-03T07:37:42.999Z</time></trkpt><trkpt lat="41.64333260974194" lon="19.602339115650917"><ele>-1.0</ele><time>2026-05-03T07:37:43.999Z</time></trkpt><trkpt lat="41.64346126551446" lon="19.602574102478062"><ele>-1.0</ele><time>2026-05-03T07:37:44.999Z</time></trkpt><trkpt lat="41.643591247959314" lon="19.602815810252096"><ele>-1.0</ele><time>2026-05-03T07:37:45.999Z</time></trkpt><trkpt lat="41.64372161358836" lon="19.603059284622766"><ele>-1.3333333333333333</ele><time>2026-05-03T07:37:46.999Z</time></trkpt><trkpt lat="41.64385490953431" lon="19.603302463622494"><ele>-1.6666666666666665</ele><time>2026-05-03T07:37:47.999Z</time></trkpt><trkpt lat="41.64398718234421" lon="19.603544478856676"><ele>-2.0</ele><time>2026-05-03T07:37:48.999Z</time></trkpt><trkpt lat="41.64412141825554" lon="19.60378587614147"><ele>-2.5</ele><time>2026-05-03T07:37:49.999Z</time></trkpt><trkpt lat="41.64425619304085" lon="19.604031768572398"><ele>-3.0</ele><time>2026-05-03T07:37:50.999Z</time></trkpt><trkpt lat="41.644385787673436" lon="19.604282283915342"><ele>-2.0</ele><time>2026-05-03T07:37:51.999Z</time></trkpt><trkpt lat="41.64451208434099" lon="19.60452899170716"><ele>-1.0</ele><time>2026-05-03T07:37:52.999Z</time></trkpt><trkpt lat="41.64464155273302" lon="19.604789264158573"><ele>-1.0</ele><time>2026-05-03T07:37:53.999Z</time></trkpt><trkpt lat="41.644771286573025" lon="19.605043479755828"><ele>-1.0</ele><time>2026-05-03T07:37:54.999Z</time></trkpt><trkpt lat="41.644900145327874" lon="19.605300645194664"><ele>-1.0</ele><time>2026-05-03T07:37:55.999Z</time></trkpt><trkpt lat="41.64502998833886" lon="19.605558744752745"><ele>-1.0</ele><time>2026-05-03T07:37:56.999Z</time></trkpt><trkpt lat="41.645160701411754" lon="19.60581751081985"><ele>-1.0</ele><time>2026-05-03T07:37:57.999Z</time></trkpt><trkpt lat="41.64528670608155" lon="19.606071802210156"><ele>-1.0</ele><time>2026-05-03T07:37:58.999Z</time></trkpt><trkpt lat="41.64540020336015" lon="19.606317399367818"><ele>-1.0</ele><time>2026-05-03T07:37:59.999Z</time></trkpt><trkpt lat="41.645504104567884" lon="19.606548095294606"><ele>-1.3333333333333333</ele><time>2026-05-03T07:38:00.999Z</time></trkpt><trkpt lat="41.645592399213605" lon="19.606768223923076"><ele>-1.6666666666666665</ele><time>2026-05-03T07:38:01.999Z</time></trkpt><trkpt lat="41.64564175783279" lon="19.60697201553265"><ele>-2.0</ele><time>2026-05-03T07:38:02.999Z</time></trkpt><trkpt lat="41.64565782013745" lon="19.607184676497557"><ele>-2.0</ele><time>2026-05-03T07:38:03.999Z</time></trkpt><trkpt lat="41.645649658833854" lon="19.607423923802813"><ele>-2.0</ele><time>2026-05-03T07:38:04.999Z</time></trkpt><trkpt lat="41.64562676883615" lon="19.607698089804714"><ele>-2.0</ele><time>2026-05-03T07:38:05.999Z</time></trkpt><trkpt lat="41.645605339222584" lon="19.607978298330146"><ele>-2.0</ele><time>2026-05-03T07:38:06.999Z</time></trkpt><trkpt lat="41.64558190560376" lon="19.608273086697853"><ele>-2.0</ele><time>2026-05-03T07:38:07.999Z</time></trkpt><trkpt lat="41.645560337325094" lon="19.608577184920588"><ele>-3.5</ele><time>2026-05-03T07:38:08.999Z</time></trkpt><trkpt lat="41.64553917968525" lon="19.608898910970336"><ele>-5.0</ele><time>2026-05-03T07:38:09.999Z</time></trkpt><trkpt lat="41.64551596754263" lon="19.609234746172763"><ele>-4.5</ele><time>2026-05-03T07:38:10.999Z</time></trkpt><trkpt lat="41.6454939279618" lon="19.609571450815363"><ele>-4.0</ele><time>2026-05-03T07:38:11.999Z</time></trkpt><trkpt lat="41.64547298122375" lon="19.609918683650466"><ele>-4.0</ele><time>2026-05-03T07:38:12.999Z</time></trkpt><trkpt lat="41.645453106552985" lon="19.61027458994518"><ele>-4.0</ele><time>2026-05-03T07:38:13.999Z</time></trkpt><trkpt lat="41.64543041596852" lon="19.61063227205296"><ele>-4.0</ele><time>2026-05-03T07:38:14.999Z</time></trkpt><trkpt lat="41.64540302135745" lon="19.610989914325064"><ele>-4.0</ele><time>2026-05-03T07:38:15.999Z</time></trkpt><trkpt lat="41.64537447363201" lon="19.611347009740655"><ele>-3.0</ele><time>2026-05-03T07:38:16.999Z</time></trkpt><trkpt lat="41.64534866591424" lon="19.61170820799341"><ele>-2.0</ele><time>2026-05-03T07:38:17.999Z</time></trkpt><trkpt lat="41.64532222444925" lon="19.612062167983794"><ele>-2.0</ele><time>2026-05-03T07:38:18.999Z</time></trkpt><trkpt lat="41.64529701143321" lon="19.612415363411"><ele>-2.0</ele><time>2026-05-03T07:38:19.999Z</time></trkpt><trkpt lat="41.64527464188765" lon="19.612772662180248"><ele>-2.5</ele><time>2026-05-03T07:38:20.999Z</time></trkpt><trkpt lat="41.64524578289468" lon="19.613127481130576"><ele>-3.0</ele><time>2026-05-03T07:38:21.999Z</time></trkpt><trkpt lat="41.645217882016375" lon="19.613483435627685"><ele>-3.0</ele><time>2026-05-03T07:38:22.999Z</time></trkpt><trkpt lat="41.64519247625451" lon="19.61383609159421"><ele>-3.0</ele><time>2026-05-03T07:38:23.999Z</time></trkpt><trkpt lat="41.64516546757077" lon="19.614182849995505"><ele>-2.5</ele><time>2026-05-03T07:38:24.999Z</time></trkpt><trkpt lat="41.645142383158266" lon="19.614526188932178"><ele>-2.0</ele><time>2026-05-03T07:38:25.999Z</time></trkpt><trkpt lat="41.64511993633048" lon="19.614873040789842"><ele>-2.0</ele><time>2026-05-03T07:38:26.999Z</time></trkpt><trkpt lat="41.645095164689444" lon="19.615214115641745"><ele>-2.0</ele><time>2026-05-03T07:38:27.999Z</time></trkpt><trkpt lat="41.64507168598422" lon="19.61555190206487"><ele>-2.0</ele><time>2026-05-03T07:38:28.999Z</time></trkpt><trkpt lat="41.645049416767556" lon="19.615888228881623"><ele>-2.0</ele><time>2026-05-03T07:38:29.999Z</time></trkpt><trkpt lat="41.64502755315637" lon="19.616221047038813"><ele>-2.5</ele><time>2026-05-03T07:38:30.999Z</time></trkpt><trkpt lat="41.64500352348526" lon="19.61655236369105"><ele>-3.0</ele><time>2026-05-03T07:38:31.999Z</time></trkpt><trkpt lat="41.64497904663682" lon="19.61688100160731"><ele>-3.5</ele><time>2026-05-03T07:38:32.999Z</time></trkpt><trkpt lat="41.644957408344176" lon="19.61721153866386"><ele>-4.0</ele><time>2026-05-03T07:38:33.999Z</time></trkpt><trkpt lat="41.64493638054638" lon="19.617540646204684"><ele>-3.0</ele><time>2026-05-03T07:38:34.999Z</time></trkpt><trkpt lat="41.64491322400379" lon="19.617865953002685"><ele>-2.0</ele><time>2026-05-03T07:38:35.999Z</time></trkpt><trkpt lat="41.644888870905206" lon="19.618194256193554"><ele>-2.0</ele><time>2026-05-03T07:38:36.999Z</time></trkpt><trkpt lat="41.64487053105263" lon="19.618521022568142"><ele>-2.0</ele><time>2026-05-03T07:38:37.999Z</time></trkpt><trkpt lat="41.64485479982948" lon="19.6188447208223"><ele>-2.0</ele><time>2026-05-03T07:38:38.999Z</time></trkpt><trkpt lat="41.644836651687974" lon="19.619167610545013"><ele>-2.0</ele><time>2026-05-03T07:38:39.999Z</time></trkpt><trkpt lat="41.64481372454268" lon="19.619481350497228"><ele>-1.6666666666666665</ele><time>2026-05-03T07:38:40.999Z</time></trkpt><trkpt lat="41.64478874178872" lon="19.619770435307373"><ele>-1.3333333333333333</ele><time>2026-05-03T07:38:41.999Z</time></trkpt><trkpt lat="41.64476845774407" lon="19.620042775604077"><ele>-1.0</ele><time>2026-05-03T07:38:42.999Z</time></trkpt><trkpt lat="41.64475364548341" lon="19.62029140026039"><ele>-1.0</ele><time>2026-05-03T07:38:44Z</time></trkpt><trkpt lat="41.64473954115006" lon="19.620519761379985"><ele>-1.0</ele><time>2026-05-03T07:38:45Z</time></trkpt><trkpt lat="41.64472596459036" lon="19.62073507882147"><ele>-1.0</ele><time>2026-05-03T07:38:46Z</time></trkpt><trkpt lat="41.644715879116234" lon="19.620947518351638"><ele>-1.0</ele><time>2026-05-03T07:38:47Z</time></trkpt><trkpt lat="41.644707242061564" lon="19.621167845119974"><ele>-1.0</ele><time>2026-05-03T07:38:48Z</time></trkpt><trkpt lat="41.64469873380945" lon="19.62139147322176"><ele>-1.0</ele><time>2026-05-03T07:38:49Z</time></trkpt><trkpt lat="41.64468717071959" lon="19.621610043672135"><ele>-1.0</ele><time>2026-05-03T07:38:50Z</time></trkpt><trkpt lat="41.64467284559745" lon="19.621808531692434"><ele>-1.0</ele><time>2026-05-03T07:38:51Z</time></trkpt><trkpt lat="41.644664743863736" lon="19.621959251966086"><ele>-1.0</ele><time>2026-05-03T07:38:52Z</time></trkpt><trkpt lat="41.644650692988385" lon="19.62207511874579"><ele>-1.0</ele><time>2026-05-03T07:38:53Z</time></trkpt><trkpt lat="41.64463391121996" lon="19.622190280378746"><ele>-1.0</ele><time>2026-05-03T07:38:54Z</time></trkpt><trkpt lat="41.64461678494969" lon="19.622271731862828"><ele>-0.8</ele><time>2026-05-03T07:38:55Z</time></trkpt><trkpt lat="41.64460174230565" lon="19.622395266301186"><ele>-0.6000000000000001</ele><time>2026-05-03T07:38:57Z</time></trkpt><trkpt lat="41.64459370119495" lon="19.62249645486456"><ele>-0.4</ele><time>2026-05-03T07:38:58Z</time></trkpt><trkpt lat="41.64458076946153" lon="19.62263501906879"><ele>-0.2</ele><time>2026-05-03T07:38:59Z</time></trkpt><trkpt lat="41.64456672072797" lon="19.62280514259908"><ele>0.0</ele><time>2026-05-03T07:39:00Z</time></trkpt><trkpt lat="41.644552760404835" lon="19.622996278358375"><ele>0.3333333333333333</ele><time>2026-05-03T07:39:01Z</time></trkpt><trkpt lat="41.64453799570186" lon="19.62320256274627"><ele>0.6666666666666666</ele><time>2026-05-03T07:39:02Z</time></trkpt><trkpt lat="41.644523558853834" lon="19.623438915772674"><ele>1.0</ele><time>2026-05-03T07:39:03Z</time></trkpt><trkpt lat="41.64451001054966" lon="19.623683626544757"><ele>0.3333333333333333</ele><time>2026-05-03T07:39:04Z</time></trkpt><trkpt lat="41.64449665642578" lon="19.62395583699994"><ele>-0.3333333333333333</ele><time>2026-05-03T07:39:05Z</time></trkpt><trkpt lat="41.644479461131816" lon="19.624248976441944"><ele>-1.0</ele><time>2026-05-03T07:39:06Z</time></trkpt><trkpt lat="41.644460244866195" lon="19.624543987394947"><ele>-1.0</ele><time>2026-05-03T07:39:07Z</time></trkpt><trkpt lat="41.64443794165289" lon="19.62484552281804"><ele>-1.0</ele><time>2026-05-03T07:39:08Z</time></trkpt><trkpt lat="41.64441479974476" lon="19.625155876277688"><ele>-1.0</ele><time>2026-05-03T07:39:09Z</time></trkpt><trkpt lat="41.64439754237008" lon="19.625477095555297"><ele>-1.0</ele><time>2026-05-03T07:39:10Z</time></trkpt><trkpt lat="41.64437951114627" lon="19.62579321076682"><ele>-1.0</ele><time>2026-05-03T07:39:11Z</time></trkpt><trkpt lat="41.64435914257941" lon="19.626111951169747"><ele>-1.0</ele><time>2026-05-03T07:39:12Z</time></trkpt><trkpt lat="41.64433898701313" lon="19.626427283845167"><ele>-1.0</ele><time>2026-05-03T07:39:13Z</time></trkpt><trkpt lat="41.644319098852456" lon="19.626738986251315"><ele>-1.0</ele><time>2026-05-03T07:39:14Z</time></trkpt><trkpt lat="41.64430094195847" lon="19.62704883898711"><ele>-1.3333333333333333</ele><time>2026-05-03T07:39:15Z</time></trkpt><trkpt lat="41.644282308255676" lon="19.627349200153574"><ele>-1.6666666666666665</ele><time>2026-05-03T07:39:16Z</time></trkpt><trkpt lat="41.644264186893295" lon="19.627623779971795"><ele>-2.0</ele><time>2026-05-03T07:39:17Z</time></trkpt><trkpt lat="41.6442471940726" lon="19.62790084254149"><ele>-2.0</ele><time>2026-05-03T07:39:18Z</time></trkpt><trkpt lat="41.64422895120059" lon="19.628184552915126"><ele>-2.0</ele><time>2026-05-03T07:39:19Z</time></trkpt><trkpt lat="41.644209581860544" lon="19.62847668111082"><ele>-2.0</ele><time>2026-05-03T07:39:20Z</time></trkpt><trkpt lat="41.64419169111353" lon="19.62877192581169"><ele>-1.5</ele><time>2026-05-03T07:39:21Z</time></trkpt><trkpt lat="41.64417480331669" lon="19.629073642059897"><ele>-1.0</ele><time>2026-05-03T07:39:22Z</time></trkpt><trkpt lat="41.64415569539689" lon="19.62937975204344"><ele>-1.5</ele><time>2026-05-03T07:39:23Z</time></trkpt><trkpt lat="41.64413537868918" lon="19.629685325267875"><ele>-2.0</ele><time>2026-05-03T07:39:24Z</time></trkpt><trkpt lat="41.64411627284875" lon="19.629995104032897"><ele>-2.0</ele><time>2026-05-03T07:39:25Z</time></trkpt><trkpt lat="41.64409761764366" lon="19.630305879643256"><ele>-2.0</ele><time>2026-05-03T07:39:26Z</time></trkpt><trkpt lat="41.6440772795774" lon="19.630617370730885"><ele>-2.0</ele><time>2026-05-03T07:39:27Z</time></trkpt><trkpt lat="41.64405569046173" lon="19.63093223261672"><ele>-2.0</ele><time>2026-05-03T07:39:28Z</time></trkpt><trkpt lat="41.644034168808155" lon="19.631251031315216"><ele>-1.5</ele><time>2026-05-03T07:39:29Z</time></trkpt><trkpt lat="41.64401603077829" lon="19.63157118339554"><ele>-1.0</ele><time>2026-05-03T07:39:30Z</time></trkpt><trkpt lat="41.6439971207831" lon="19.631893207218145"><ele>-1.0</ele><time>2026-05-03T07:39:31Z</time></trkpt><trkpt lat="41.64397710382187" lon="19.63221360244321"><ele>-1.0</ele><time>2026-05-03T07:39:32Z</time></trkpt><trkpt lat="41.64395699844654" lon="19.632532199057167"><ele>-1.5</ele><time>2026-05-03T07:39:33Z</time></trkpt><trkpt lat="41.64393975152614" lon="19.63285405931478"><ele>-2.0</ele><time>2026-05-03T07:39:34Z</time></trkpt><trkpt lat="41.64392637674748" lon="19.6331726372196"><ele>-2.0</ele><time>2026-05-03T07:39:35Z</time></trkpt><trkpt lat="41.64390993731496" lon="19.633499612563295"><ele>-2.0</ele><time>2026-05-03T07:39:36Z</time></trkpt><trkpt lat="41.64388857338744" lon="19.63382654899656"><ele>-2.5</ele><time>2026-05-03T07:39:37Z</time></trkpt><trkpt lat="41.64386889916822" lon="19.634152597564157"><ele>-3.0</ele><time>2026-05-03T07:39:38Z</time></trkpt><trkpt lat="41.64385159577704" lon="19.634481206685535"><ele>-1.5</ele><time>2026-05-03T07:39:39Z</time></trkpt><trkpt lat="41.64383218970233" lon="19.634811945431036"><ele>0.0</ele><time>2026-05-03T07:39:40Z</time></trkpt><trkpt lat="41.64381143978559" lon="19.635141465364615"><ele>-0.5</ele><time>2026-05-03T07:39:41Z</time></trkpt><trkpt lat="41.64379405905422" lon="19.63547407613557"><ele>-1.0</ele><time>2026-05-03T07:39:42Z</time></trkpt><trkpt lat="41.64377540182729" lon="19.63580639015493"><ele>-1.5</ele><time>2026-05-03T07:39:43Z</time></trkpt><trkpt lat="41.64375467026483" lon="19.63613876077003"><ele>-2.0</ele><time>2026-05-03T07:39:44Z</time></trkpt><trkpt lat="41.6437315827727" lon="19.63646889472317"><ele>-2.0</ele><time>2026-05-03T07:39:45Z</time></trkpt><trkpt lat="41.64371343230719" lon="19.63679489572455"><ele>-2.0</ele><time>2026-05-03T07:39:46Z</time></trkpt><trkpt lat="41.64369644306972" lon="19.637120587024636"><ele>-1.5</ele><time>2026-05-03T07:39:47Z</time></trkpt><trkpt lat="41.643676713255154" lon="19.63744597443059"><ele>-1.0</ele><time>2026-05-03T07:39:48Z</time></trkpt><trkpt lat="41.64365936200083" lon="19.637772114372865"><ele>-1.5</ele><time>2026-05-03T07:39:49Z</time></trkpt><trkpt lat="41.643641344637636" lon="19.638098048142407"><ele>-2.0</ele><time>2026-05-03T07:39:50Z</time></trkpt><trkpt lat="41.643619976549786" lon="19.638421587464183"><ele>-2.0</ele><time>2026-05-03T07:39:51Z</time></trkpt><trkpt lat="41.643603155976756" lon="19.63874505814124"><ele>-2.0</ele><time>2026-05-03T07:39:52Z</time></trkpt><trkpt lat="41.6435885862589" lon="19.639066723115402"><ele>-2.0</ele><time>2026-05-03T07:39:53Z</time></trkpt><trkpt lat="41.6435695246291" lon="19.639391902406928"><ele>-2.0</ele><time>2026-05-03T07:39:54Z</time></trkpt><trkpt lat="41.64354646447439" lon="19.639720392739008"><ele>-2.5</ele><time>2026-05-03T07:39:55Z</time></trkpt><trkpt lat="41.643526190180914" lon="19.640054611788145"><ele>-3.0</ele><time>2026-05-03T07:39:56Z</time></trkpt><trkpt lat="41.643504312139385" lon="19.640384574350463"><ele>-1.5</ele><time>2026-05-03T07:39:56.999Z</time></trkpt><trkpt lat="41.64348283615116" lon="19.640715513547082"><ele>0.0</ele><time>2026-05-03T07:39:57.999Z</time></trkpt><trkpt lat="41.643463605102596" lon="19.641050765049815"><ele>0.0</ele><time>2026-05-03T07:39:58.999Z</time></trkpt><trkpt lat="41.643442566593464" lon="19.641388802519703"><ele>0.0</ele><time>2026-05-03T07:39:59.999Z</time></trkpt><trkpt lat="41.64341743542942" lon="19.641728260156633"><ele>0.5</ele><time>2026-05-03T07:40:00.999Z</time></trkpt><trkpt lat="41.643395682843384" lon="19.6420714962659"><ele>1.0</ele><time>2026-05-03T07:40:01.999Z</time></trkpt><trkpt lat="41.64337471858128" lon="19.642415871845525"><ele>1.0</ele><time>2026-05-03T07:40:02.999Z</time></trkpt><trkpt lat="41.64335364090632" lon="19.64273191592319"><ele>1.0</ele><time>2026-05-03T07:40:03.999Z</time></trkpt><trkpt lat="41.64333095447976" lon="19.643009862406206"><ele>1.0</ele><time>2026-05-03T07:40:04.999Z</time></trkpt><trkpt lat="41.64330307548416" lon="19.643247184745675"><ele>0.75</ele><time>2026-05-03T07:40:05.999Z</time></trkpt><trkpt lat="41.64325502024363" lon="19.643445514829125"><ele>0.5</ele><time>2026-05-03T07:40:06.999Z</time></trkpt><trkpt lat="41.643180653586555" lon="19.643577831735026"><ele>0.25</ele><time>2026-05-03T07:40:07.999Z</time></trkpt><trkpt lat="41.64307920965822" lon="19.64367636971627"><ele>0.0</ele><time>2026-05-03T07:40:08.999Z</time></trkpt><trkpt lat="41.64294899430085" lon="19.64373333227811"><ele>0.25</ele><time>2026-05-03T07:40:09.999Z</time></trkpt><trkpt lat="41.6427956623444" lon="19.643780778099163"><ele>0.5</ele><time>2026-05-03T07:40:10.999Z</time></trkpt><trkpt lat="41.64266803067232" lon="19.643861660828208"><ele>0.75</ele><time>2026-05-03T07:40:11.999Z</time></trkpt><trkpt lat="41.642572435717774" lon="19.643979721094805"><ele>1.0</ele><time>2026-05-03T07:40:12.999Z</time></trkpt><trkpt lat="41.64251369413746" lon="19.64412482307672"><ele>1.0</ele><time>2026-05-03T07:40:13.999Z</time></trkpt><trkpt lat="41.64249348600512" lon="19.644288534237734"><ele>1.0</ele><time>2026-05-03T07:40:14.999Z</time></trkpt><trkpt lat="41.64251230174652" lon="19.644462214443628"><ele>1.0</ele><time>2026-05-03T07:40:15.999Z</time></trkpt><trkpt lat="41.64255304247497" lon="19.644669791205693"><ele>1.0</ele><time>2026-05-03T07:40:16.999Z</time></trkpt><trkpt lat="41.642593702017976" lon="19.644916091059397"><ele>1.0</ele><time>2026-05-03T07:40:17.999Z</time></trkpt><trkpt lat="41.642636698955165" lon="19.645173914244275"><ele>1.0</ele><time>2026-05-03T07:40:18.999Z</time></trkpt><trkpt lat="41.64268464648776" lon="19.64544111411756"><ele>1.0</ele><time>2026-05-03T07:40:19.999Z</time></trkpt><trkpt lat="41.64273619982578" lon="19.645731546281496"><ele>0.5</ele><time>2026-05-03T07:40:20.999Z</time></trkpt><trkpt lat="41.64280672954484" lon="19.64602641653675"><ele>0.0</ele><time>2026-05-03T07:40:21.999Z</time></trkpt><trkpt lat="41.642874344097976" lon="19.646319454678956"><ele>-0.5</ele><time>2026-05-03T07:40:22.999Z</time></trkpt><trkpt lat="41.64293305727004" lon="19.646613074359443"><ele>-1.0</ele><time>2026-05-03T07:40:23.999Z</time></trkpt><trkpt lat="41.642994534768846" lon="19.646908071999242"><ele>-0.6666666666666666</ele><time>2026-05-03T07:40:24.999Z</time></trkpt><trkpt lat="41.64303853921863" lon="19.647203067255774"><ele>-0.3333333333333333</ele><time>2026-05-03T07:40:25.999Z</time></trkpt><trkpt lat="41.643049516816966" lon="19.647499814819906"><ele>0.0</ele><time>2026-05-03T07:40:26.999Z</time></trkpt><trkpt lat="41.64303467332203" lon="19.647799253324905"><ele>0.0</ele><time>2026-05-03T07:40:27.999Z</time></trkpt><trkpt lat="41.64301211988058" lon="19.648106704517925"><ele>0.0</ele><time>2026-05-03T07:40:28.999Z</time></trkpt><trkpt lat="41.64299259790356" lon="19.648414513603818"><ele>0.5</ele><time>2026-05-03T07:40:29.999Z</time></trkpt><trkpt lat="41.64297292743763" lon="19.64872434156556"><ele>1.0</ele><time>2026-05-03T07:40:30.999Z</time></trkpt><trkpt lat="41.642949583418556" lon="19.649042057179162"><ele>1.0</ele><time>2026-05-03T07:40:31.999Z</time></trkpt><trkpt lat="41.64293064166895" lon="19.649365702478903"><ele>1.0</ele><time>2026-05-03T07:40:32.999Z</time></trkpt><trkpt lat="41.64290981060445" lon="19.64969056480099"><ele>0.5</ele><time>2026-05-03T07:40:33.999Z</time></trkpt><trkpt lat="41.64288892320102" lon="19.650021130717533"><ele>0.0</ele><time>2026-05-03T07:40:34.999Z</time></trkpt><trkpt lat="41.64286915226125" lon="19.650354474062958"><ele>-0.5</ele><time>2026-05-03T07:40:35.999Z</time></trkpt><trkpt lat="41.64284988624692" lon="19.650689230353443"><ele>-1.0</ele><time>2026-05-03T07:40:36.999Z</time></trkpt><trkpt lat="41.64283136347868" lon="19.651027415771477"><ele>0.0</ele><time>2026-05-03T07:40:37.999Z</time></trkpt><trkpt lat="41.6428104241913" lon="19.65136756136839"><ele>1.0</ele><time>2026-05-03T07:40:38.999Z</time></trkpt><trkpt lat="41.64278716166492" lon="19.6517066213265"><ele>1.0</ele><time>2026-05-03T07:40:39.999Z</time></trkpt><trkpt lat="41.64276555778858" lon="19.652050671841504"><ele>1.0</ele><time>2026-05-03T07:40:40.999Z</time></trkpt><trkpt lat="41.64274286177937" lon="19.65238830534047"><ele>1.0</ele><time>2026-05-03T07:40:41.999Z</time></trkpt><trkpt lat="41.6427197846298" lon="19.652730506155997"><ele>1.0</ele><time>2026-05-03T07:40:42.999Z</time></trkpt><trkpt lat="41.6426946998129" lon="19.653076061596256"><ele>0.0</ele><time>2026-05-03T07:40:43.999Z</time></trkpt><trkpt lat="41.64267191200079" lon="19.653420816949883"><ele>-1.0</ele><time>2026-05-03T07:40:44.999Z</time></trkpt><trkpt lat="41.64265290128554" lon="19.653770214036072"><ele>-1.0</ele><time>2026-05-03T07:40:45.999Z</time></trkpt><trkpt lat="41.6426331446858" lon="19.65411592772854"><ele>-1.0</ele><time>2026-05-03T07:40:46.999Z</time></trkpt><trkpt lat="41.642610956666125" lon="19.654462512557195"><ele>0.5</ele><time>2026-05-03T07:40:47.999Z</time></trkpt><trkpt lat="41.64258950776929" lon="19.654807615948688"><ele>2.0</ele><time>2026-05-03T07:40:48.999Z</time></trkpt><trkpt lat="41.64256981992999" lon="19.655154767577155"><ele>1.5</ele><time>2026-05-03T07:40:50Z</time></trkpt><trkpt lat="41.64254429242314" lon="19.6555003642684"><ele>1.0</ele><time>2026-05-03T07:40:51Z</time></trkpt><trkpt lat="41.64251852418354" lon="19.655841418794843"><ele>0.0</ele><time>2026-05-03T07:40:52Z</time></trkpt><trkpt lat="41.64249551584599" lon="19.656179830962262"><ele>-1.0</ele><time>2026-05-03T07:40:53Z</time></trkpt><trkpt lat="41.642475228440695" lon="19.656516226112014"><ele>-1.0</ele><time>2026-05-03T07:40:54Z</time></trkpt><trkpt lat="41.64245392522802" lon="19.65685128543382"><ele>-1.0</ele><time>2026-05-03T07:40:55Z</time></trkpt><trkpt lat="41.642430695684425" lon="19.6571877927778"><ele>-0.5</ele><time>2026-05-03T07:40:56Z</time></trkpt><trkpt lat="41.642414024465914" lon="19.65752320931919"><ele>0.0</ele><time>2026-05-03T07:40:57Z</time></trkpt><trkpt lat="41.64239743987327" lon="19.6578654554439"><ele>0.0</ele><time>2026-05-03T07:40:58Z</time></trkpt><trkpt lat="41.642376111007295" lon="19.658205644147472"><ele>0.0</ele><time>2026-05-03T07:40:59Z</time></trkpt><trkpt lat="41.64235509823419" lon="19.65854511832149"><ele>-0.5</ele><time>2026-05-03T07:41:00Z</time></trkpt><trkpt lat="41.64233516712695" lon="19.658889361031143"><ele>-1.0</ele><time>2026-05-03T07:41:01Z</time></trkpt><trkpt lat="41.642314531033215" lon="19.65923271188197"><ele>-1.0</ele><time>2026-05-03T07:41:02Z</time></trkpt><trkpt lat="41.64229358524018" lon="19.65957293937667"><ele>-1.0</ele><time>2026-05-03T07:41:03Z</time></trkpt><trkpt lat="41.642272391922766" lon="19.659913591526273"><ele>-1.0</ele><time>2026-05-03T07:41:04Z</time></trkpt><trkpt lat="41.64225181873877" lon="19.66024912856741"><ele>-1.0</ele><time>2026-05-03T07:41:05Z</time></trkpt><trkpt lat="41.64223246706784" lon="19.660583907541433"><ele>-1.0</ele><time>2026-05-03T07:41:06Z</time></trkpt><trkpt lat="41.642210997404014" lon="19.660916355770524"><ele>-1.0</ele><time>2026-05-03T07:41:07Z</time></trkpt><trkpt lat="41.64218785167612" lon="19.66124268019427"><ele>-2.0</ele><time>2026-05-03T07:41:08Z</time></trkpt><trkpt lat="41.642167822089895" lon="19.66155769677813"><ele>-3.0</ele><time>2026-05-03T07:41:09Z</time></trkpt><trkpt lat="41.64215240390209" lon="19.661869074340146"><ele>-2.3333333333333335</ele><time>2026-05-03T07:41:10Z</time></trkpt><trkpt lat="41.6421362448467" lon="19.662173441518693"><ele>-1.6666666666666665</ele><time>2026-05-03T07:41:11Z</time></trkpt><trkpt lat="41.64212700271214" lon="19.66244576613177"><ele>-1.0</ele><time>2026-05-03T07:41:12Z</time></trkpt><trkpt lat="41.642105459994376" lon="19.6626971533801"><ele>-1.3333333333333333</ele><time>2026-05-03T07:41:13Z</time></trkpt><trkpt lat="41.642093630553724" lon="19.66293701143002"><ele>-1.6666666666666665</ele><time>2026-05-03T07:41:14Z</time></trkpt><trkpt lat="41.64208160637228" lon="19.663165760270715"><ele>-2.0</ele><time>2026-05-03T07:41:15Z</time></trkpt><trkpt lat="41.6420688627397" lon="19.66338741806397"><ele>-2.0</ele><time>2026-05-03T07:41:16Z</time></trkpt><trkpt lat="41.64205642239943" lon="19.663580966997085"><ele>-2.0</ele><time>2026-05-03T07:41:17Z</time></trkpt><trkpt lat="41.64204296210187" lon="19.663754693710025"><ele>-2.0</ele><time>2026-05-03T07:41:18Z</time></trkpt><trkpt lat="41.64203061757446" lon="19.663927772339637"><ele>-2.0</ele><time>2026-05-03T07:41:19Z</time></trkpt><trkpt lat="41.642022406500196" lon="19.664099840256398"><ele>-2.0</ele><time>2026-05-03T07:41:20Z</time></trkpt><trkpt lat="41.642016206834235" lon="19.664266426959333"><ele>-2.0</ele><time>2026-05-03T07:41:21Z</time></trkpt><trkpt lat="41.64200668436095" lon="19.66441893352226"><ele>-2.0</ele><time>2026-05-03T07:41:22Z</time></trkpt><trkpt lat="41.64199888110642" lon="19.664555156067813"><ele>-2.0</ele><time>2026-05-03T07:41:23Z</time></trkpt><trkpt lat="41.64199186470335" lon="19.66467980227006"><ele>-2.0</ele><time>2026-05-03T07:41:24Z</time></trkpt><trkpt lat="41.641982374187926" lon="19.664813078880595"><ele>-2.2</ele><time>2026-05-03T07:41:25Z</time></trkpt><trkpt lat="41.641972330061236" lon="19.664945368512935"><ele>-2.4000000000000004</ele><time>2026-05-03T07:41:26Z</time></trkpt><trkpt lat="41.641962098300375" lon="19.66503863420126"><ele>-2.5999999999999996</ele><time>2026-05-03T07:41:27Z</time></trkpt><trkpt lat="41.64194108573804" lon="19.66516841307282"><ele>-2.8</ele><time>2026-05-03T07:41:29Z</time></trkpt><trkpt lat="41.64192377761526" lon="19.66530507477719"><ele>-3.0</ele><time>2026-05-03T07:41:53Z</time></trkpt><trkpt lat="41.64193542479795" lon="19.665415663793272"><ele>-3.0</ele><time>2026-05-03T07:41:54Z</time></trkpt><trkpt lat="41.64193800079069" lon="19.665557505560272"><ele>-3.0</ele><time>2026-05-03T07:41:55Z</time></trkpt><trkpt lat="41.64192610284634" lon="19.665734622197032"><ele>-3.0</ele><time>2026-05-03T07:41:56Z</time></trkpt><trkpt lat="41.64190971461273" lon="19.665933412277884"><ele>-3.0</ele><time>2026-05-03T07:41:57Z</time></trkpt><trkpt lat="41.64189665507079" lon="19.666152065719317"><ele>-2.6666666666666665</ele><time>2026-05-03T07:41:58Z</time></trkpt><trkpt lat="41.64188258630198" lon="19.666379058003773"><ele>-2.333333333333333</ele><time>2026-05-03T07:41:59Z</time></trkpt><trkpt lat="41.64186642656307" lon="19.666625012501648"><ele>-2.0</ele><time>2026-05-03T07:42:00Z</time></trkpt><trkpt lat="41.64184856606906" lon="19.666886689316865"><ele>-1.6666666666666665</ele><time>2026-05-03T07:42:01Z</time></trkpt><trkpt lat="41.64183363166485" lon="19.667153662038498"><ele>-1.3333333333333333</ele><time>2026-05-03T07:42:02Z</time></trkpt><trkpt lat="41.6418129915813" lon="19.66741694242966"><ele>-1.0</ele><time>2026-05-03T07:42:03Z</time></trkpt><trkpt lat="41.64179272927825" lon="19.667688931857256"><ele>-0.3333333333333333</ele><time>2026-05-03T07:42:04Z</time></trkpt><trkpt lat="41.641776562267836" lon="19.667950715399904"><ele>0.3333333333333333</ele><time>2026-05-03T07:42:05Z</time></trkpt><trkpt lat="41.64175856632516" lon="19.66821784444916"><ele>1.0</ele><time>2026-05-03T07:42:06Z</time></trkpt><trkpt lat="41.64174500282991" lon="19.668478677679524"><ele>0.0</ele><time>2026-05-03T07:42:07Z</time></trkpt><trkpt lat="41.641736699065746" lon="19.66873827086454"><ele>-1.0</ele><time>2026-05-03T07:42:08Z</time></trkpt><trkpt lat="41.641727794798804" lon="19.66897614917121"><ele>-2.0</ele><time>2026-05-03T07:42:09Z</time></trkpt><trkpt lat="41.6417168833789" lon="19.669191504249916"><ele>-2.0</ele><time>2026-05-03T07:42:10Z</time></trkpt><trkpt lat="41.641698785130245" lon="19.669392696364078"><ele>-2.0</ele><time>2026-05-03T07:42:11Z</time></trkpt><trkpt lat="41.64167225905768" lon="19.66959328798087"><ele>-2.0</ele><time>2026-05-03T07:42:12Z</time></trkpt><trkpt lat="41.64164113105526" lon="19.66981960521819"><ele>-2.0</ele><time>2026-05-03T07:42:13Z</time></trkpt><trkpt lat="41.64161317161769" lon="19.670053471245872"><ele>-2.0</ele><time>2026-05-03T07:42:14Z</time></trkpt><trkpt lat="41.641585736374815" lon="19.670295259557633"><ele>-2.0</ele><time>2026-05-03T07:42:15Z</time></trkpt><trkpt lat="41.64155478657035" lon="19.670547232805507"><ele>-1.3333333333333333</ele><time>2026-05-03T07:42:16Z</time></trkpt><trkpt lat="41.64152337467919" lon="19.670800889766408"><ele>-0.6666666666666666</ele><time>2026-05-03T07:42:17Z</time></trkpt><trkpt lat="41.64149552725591" lon="19.671045174414303"><ele>0.0</ele><time>2026-05-03T07:42:18Z</time></trkpt><trkpt lat="41.64147926667605" lon="19.671290978942455"><ele>0.0</ele><time>2026-05-03T07:42:19Z</time></trkpt><trkpt lat="41.641468806446916" lon="19.67154974859449"><ele>0.0</ele><time>2026-05-03T07:42:20Z</time></trkpt><trkpt lat="41.64146120046213" lon="19.671784591970276"><ele>0.0</ele><time>2026-05-03T07:42:21Z</time></trkpt><trkpt lat="41.64145218453058" lon="19.672011580829388"><ele>-0.4</ele><time>2026-05-03T07:42:22Z</time></trkpt><trkpt lat="41.64144291753492" lon="19.672214116214057"><ele>-0.8</ele><time>2026-05-03T07:42:23Z</time></trkpt><trkpt lat="41.64144197280079" lon="19.672320724168053"><ele>-1.2000000000000002</ele><time>2026-05-03T07:42:24Z</time></trkpt><trkpt lat="41.64149861636858" lon="19.672396547455488"><ele>-1.6</ele><time>2026-05-03T07:42:26Z</time></trkpt><trkpt lat="41.64161364357878" lon="19.672387984976023"><ele>-2.0</ele><time>2026-05-03T07:42:28Z</time></trkpt><trkpt lat="41.64171818181163" lon="19.67237814598183"><ele>-2.0</ele><time>2026-05-03T07:42:29Z</time></trkpt><trkpt lat="41.641843974833826" lon="19.672377772116718"><ele>-2.0</ele><time>2026-05-03T07:42:30Z</time></trkpt><trkpt lat="41.64196592767155" lon="19.67238448405671"><ele>-2.0</ele><time>2026-05-03T07:42:31Z</time></trkpt><trkpt lat="41.64207960401664" lon="19.672376443998377"><ele>-2.0</ele><time>2026-05-03T07:42:32Z</time></trkpt><trkpt lat="41.642178510038704" lon="19.67232189091786"><ele>-1.8</ele><time>2026-05-03T07:42:33Z</time></trkpt><trkpt lat="41.64226121785254" lon="19.672221706996528"><ele>-1.6</ele><time>2026-05-03T07:42:34Z</time></trkpt><trkpt lat="41.642332054345246" lon="19.672101293055327"><ele>-1.4000000000000001</ele><time>2026-05-03T07:42:35Z</time></trkpt><trkpt lat="41.64240193317025" lon="19.67199071826161"><ele>-1.2000000000000002</ele><time>2026-05-03T07:42:36Z</time></trkpt><trkpt lat="41.64247558148066" lon="19.6718984560251"><ele>-1.0</ele><time>2026-05-03T07:42:37Z</time></trkpt><trkpt lat="41.64254890127361" lon="19.671821566080787"><ele>-1.0</ele><time>2026-05-03T07:42:38Z</time></trkpt><trkpt lat="41.64262211362748" lon="19.67173701764987"><ele>-1.0</ele><time>2026-05-03T07:42:39Z</time></trkpt><trkpt lat="41.64269367296363" lon="19.67166075747404"><ele>-1.0</ele><time>2026-05-03T07:42:40Z</time></trkpt><trkpt lat="41.64276001891076" lon="19.671595578879458"><ele>-1.0</ele><time>2026-05-03T07:42:41Z</time></trkpt><trkpt lat="41.6428819684957" lon="19.671536384341046"><ele>-1.0</ele><time>2026-05-03T07:42:43Z</time></trkpt><trkpt lat="41.64295893866512" lon="19.671531289636203"><ele>-0.75</ele><time>2026-05-03T07:42:44Z</time></trkpt><trkpt lat="41.64307508985377" lon="19.671532044536963"><ele>-0.5</ele><time>2026-05-03T07:42:45Z</time></trkpt><trkpt lat="41.64321275948084" lon="19.671530748147926"><ele>-0.25</ele><time>2026-05-03T07:42:46Z</time></trkpt><trkpt lat="41.64336646351775" lon="19.671530489368944"><ele>0.0</ele><time>2026-05-03T07:42:47Z</time></trkpt><trkpt lat="41.643550679236824" lon="19.671529017099186"><ele>0.3333333333333333</ele><time>2026-05-03T07:42:48Z</time></trkpt><trkpt lat="41.64374002432669" lon="19.67153507092873"><ele>0.6666666666666666</ele><time>2026-05-03T07:42:49Z</time></trkpt><trkpt lat="41.64395809125532" lon="19.671553557363655"><ele>1.0</ele><time>2026-05-03T07:42:50Z</time></trkpt><trkpt lat="41.6441700912081" lon="19.671572514743946"><ele>1.0</ele><time>2026-05-03T07:42:51Z</time></trkpt><trkpt lat="41.64439248605873" lon="19.671592990478633"><ele>1.0</ele><time>2026-05-03T07:42:52Z</time></trkpt><trkpt lat="41.6446269322054" lon="19.6716125540016"><ele>0.5</ele><time>2026-05-03T07:42:53Z</time></trkpt><trkpt lat="41.64487250677606" lon="19.671634221707077"><ele>0.0</ele><time>2026-05-03T07:42:54Z</time></trkpt><trkpt lat="41.64510981481557" lon="19.67166017868001"><ele>-0.5</ele><time>2026-05-03T07:42:55Z</time></trkpt><trkpt lat="41.64534935379365" lon="19.671682786579513"><ele>-1.0</ele><time>2026-05-03T07:42:56.001Z</time></trkpt><trkpt lat="41.645589988146675" lon="19.671699917269798"><ele>-1.0</ele><time>2026-05-03T07:42:57.001Z</time></trkpt><trkpt lat="41.645829400171905" lon="19.671713208675182"><ele>-1.0</ele><time>2026-05-03T07:42:58.001Z</time></trkpt><trkpt lat="41.64606953393123" lon="19.671727484048777"><ele>0.0</ele><time>2026-05-03T07:42:59.001Z</time></trkpt><trkpt lat="41.646311011786615" lon="19.671742664259174"><ele>1.0</ele><time>2026-05-03T07:43:00.001Z</time></trkpt><trkpt lat="41.64655271220852" lon="19.67176293847315"><ele>1.0</ele><time>2026-05-03T07:43:01.001Z</time></trkpt><trkpt lat="41.646794710585965" lon="19.671784803588405"><ele>1.0</ele><time>2026-05-03T07:43:02.001Z</time></trkpt><trkpt lat="41.64703594540189" lon="19.671806010652464"><ele>1.5</ele><time>2026-05-03T07:43:03.001Z</time></trkpt><trkpt lat="41.647275151812934" lon="19.67182313169343"><ele>2.0</ele><time>2026-05-03T07:43:04.001Z</time></trkpt><trkpt lat="41.647511955562884" lon="19.671839537894435"><ele>2.0</ele><time>2026-05-03T07:43:05.001Z</time></trkpt><trkpt lat="41.647745774600295" lon="19.671856117024703"><ele>2.0</ele><time>2026-05-03T07:43:06.001Z</time></trkpt><trkpt lat="41.647981367317264" lon="19.671878408697147"><ele>1.5</ele><time>2026-05-03T07:43:07.001Z</time></trkpt><trkpt lat="41.64821875890901" lon="19.671897302931722"><ele>1.0</ele><time>2026-05-03T07:43:08.001Z</time></trkpt><trkpt lat="41.6484593355706" lon="19.671909415362318"><ele>1.0</ele><time>2026-05-03T07:43:09.001Z</time></trkpt><trkpt lat="41.64870657230408" lon="19.67192259555755"><ele>1.0</ele><time>2026-05-03T07:43:10.001Z</time></trkpt><trkpt lat="41.64895843576238" lon="19.67194226892746"><ele>0.5</ele><time>2026-05-03T07:43:11.001Z</time></trkpt><trkpt lat="41.64921246204116" lon="19.671959858301857"><ele>0.0</ele><time>2026-05-03T07:43:12.001Z</time></trkpt><trkpt lat="41.649469781840395" lon="19.67197701908378"><ele>1.0</ele><time>2026-05-03T07:43:13.001Z</time></trkpt><trkpt lat="41.64972959439771" lon="19.67198361009488"><ele>2.0</ele><time>2026-05-03T07:43:14.001Z</time></trkpt><trkpt lat="41.64998852620216" lon="19.67198992819156"><ele>2.0</ele><time>2026-05-03T07:43:15Z</time></trkpt><trkpt lat="41.65023925043437" lon="19.672032083905016"><ele>2.0</ele><time>2026-05-03T07:43:16Z</time></trkpt><trkpt lat="41.65049428135149" lon="19.672054550209772"><ele>2.0</ele><time>2026-05-03T07:43:17Z</time></trkpt><trkpt lat="41.65074946085459" lon="19.672076248530598"><ele>2.0</ele><time>2026-05-03T07:43:18Z</time></trkpt><trkpt lat="41.651005404281605" lon="19.672094101924223"><ele>1.5</ele><time>2026-05-03T07:43:19Z</time></trkpt><trkpt lat="41.651258378307745" lon="19.67210943910638"><ele>1.0</ele><time>2026-05-03T07:43:20Z</time></trkpt><trkpt lat="41.651518787723745" lon="19.672125594002647"><ele>1.0</ele><time>2026-05-03T07:43:21Z</time></trkpt><trkpt lat="41.65178004344699" lon="19.672144257427107"><ele>1.0</ele><time>2026-05-03T07:43:22Z</time></trkpt><trkpt lat="41.652039035067155" lon="19.672164565280216"><ele>2.0</ele><time>2026-05-03T07:43:23Z</time></trkpt><trkpt lat="41.652298006612725" lon="19.67218290801439"><ele>3.0</ele><time>2026-05-03T07:43:24Z</time></trkpt><trkpt lat="41.65255294602816" lon="19.672203851282156"><ele>2.5</ele><time>2026-05-03T07:43:25Z</time></trkpt><trkpt lat="41.652808956880854" lon="19.672230044100292"><ele>2.0</ele><time>2026-05-03T07:43:26Z</time></trkpt><trkpt lat="41.65306545054538" lon="19.672251181641784"><ele>2.0</ele><time>2026-05-03T07:43:27Z</time></trkpt><trkpt lat="41.653322555519026" lon="19.67226993320182"><ele>2.0</ele><time>2026-05-03T07:43:28Z</time></trkpt><trkpt lat="41.653578833867755" lon="19.67229076950296"><ele>2.0</ele><time>2026-05-03T07:43:29Z</time></trkpt><trkpt lat="41.65383730307141" lon="19.672313644126085"><ele>2.0</ele><time>2026-05-03T07:43:30Z</time></trkpt><trkpt lat="41.65409544929666" lon="19.672337822346012"><ele>2.0</ele><time>2026-05-03T07:43:31Z</time></trkpt><trkpt lat="41.65435349082468" lon="19.672363025177827"><ele>2.0</ele><time>2026-05-03T07:43:32Z</time></trkpt><trkpt lat="41.65461300585529" lon="19.672389198442506"><ele>2.0</ele><time>2026-05-03T07:43:33Z</time></trkpt><trkpt lat="41.65487302873316" lon="19.67241414873621"><ele>2.0</ele><time>2026-05-03T07:43:34Z</time></trkpt><trkpt lat="41.65513451794875" lon="19.672439188538814"><ele>2.0</ele><time>2026-05-03T07:43:35Z</time></trkpt><trkpt lat="41.65539395206539" lon="19.672468237412286"><ele>2.0</ele><time>2026-05-03T07:43:36Z</time></trkpt><trkpt lat="41.65565472127793" lon="19.672495995505543"><ele>2.0</ele><time>2026-05-03T07:43:37Z</time></trkpt><trkpt lat="41.655916729297985" lon="19.672525952439244"><ele>2.0</ele><time>2026-05-03T07:43:38Z</time></trkpt><trkpt lat="41.656173490340024" lon="19.672553660810518"><ele>2.0</ele><time>2026-05-03T07:43:39Z</time></trkpt><trkpt lat="41.65643357328107" lon="19.672577212905566"><ele>2.0</ele><time>2026-05-03T07:43:40Z</time></trkpt><trkpt lat="41.65668661994682" lon="19.67259615991647"><ele>2.0</ele><time>2026-05-03T07:43:41Z</time></trkpt><trkpt lat="41.65693774298546" lon="19.67261446999825"><ele>2.0</ele><time>2026-05-03T07:43:42Z</time></trkpt><trkpt lat="41.65718761048345" lon="19.67263744868118"><ele>2.0</ele><time>2026-05-03T07:43:43Z</time></trkpt><trkpt lat="41.6574382887808" lon="19.67266298153174"><ele>2.0</ele><time>2026-05-03T07:43:44Z</time></trkpt><trkpt lat="41.657691385345366" lon="19.67269200642039"><ele>3.5</ele><time>2026-05-03T07:43:45Z</time></trkpt><trkpt lat="41.65794207237983" lon="19.672723156625192"><ele>5.0</ele><time>2026-05-03T07:43:46Z</time></trkpt><trkpt lat="41.6582007743608" lon="19.672747277765673"><ele>4.5</ele><time>2026-05-03T07:43:47Z</time></trkpt><trkpt lat="41.65845525503302" lon="19.67277508994772"><ele>4.0</ele><time>2026-05-03T07:43:48Z</time></trkpt><trkpt lat="41.658712497523396" lon="19.67280071600523"><ele>4.0</ele><time>2026-05-03T07:43:49Z</time></trkpt><trkpt lat="41.65897047892363" lon="19.67282878928805"><ele>4.0</ele><time>2026-05-03T07:43:50Z</time></trkpt><trkpt lat="41.65922700972036" lon="19.67285626075465"><ele>4.0</ele><time>2026-05-03T07:43:51Z</time></trkpt><trkpt lat="41.659485730164754" lon="19.672879263030403"><ele>4.0</ele><time>2026-05-03T07:43:52Z</time></trkpt><trkpt lat="41.659745265161625" lon="19.672903606081753"><ele>4.0</ele><time>2026-05-03T07:43:53Z</time></trkpt><trkpt lat="41.66000460934208" lon="19.67292798857798"><ele>4.0</ele><time>2026-05-03T07:43:54Z</time></trkpt><trkpt lat="41.660267819881255" lon="19.672952523816164"><ele>3.0</ele><time>2026-05-03T07:43:55Z</time></trkpt><trkpt lat="41.660531376568024" lon="19.67298178578736"><ele>2.0</ele><time>2026-05-03T07:43:56Z</time></trkpt><trkpt lat="41.66079704174984" lon="19.673006550735007"><ele>2.0</ele><time>2026-05-03T07:43:57Z</time></trkpt><trkpt lat="41.66106152953889" lon="19.67303054682541"><ele>2.0</ele><time>2026-05-03T07:43:58Z</time></trkpt><trkpt lat="41.66131590199688" lon="19.673050706747702"><ele>2.5</ele><time>2026-05-03T07:43:59Z</time></trkpt><trkpt lat="41.66158988986381" lon="19.67308108306199"><ele>3.0</ele><time>2026-05-03T07:44:00Z</time></trkpt><trkpt lat="41.66185180391834" lon="19.673101351594916"><ele>1.5</ele><time>2026-05-03T07:44:00.999Z</time></trkpt><trkpt lat="41.662116938648964" lon="19.67314048546795"><ele>0.0</ele><time>2026-05-03T07:44:01.999Z</time></trkpt><trkpt lat="41.662388673882546" lon="19.6731513976538"><ele>0.0</ele><time>2026-05-03T07:44:02.999Z</time></trkpt><trkpt lat="41.662654334132945" lon="19.673178611715027"><ele>0.0</ele><time>2026-05-03T07:44:03.999Z</time></trkpt><trkpt lat="41.66292152853226" lon="19.67320777063996"><ele>1.5</ele><time>2026-05-03T07:44:04.999Z</time></trkpt><trkpt lat="41.66318925341906" lon="19.673230060962297"><ele>3.0</ele><time>2026-05-03T07:44:05.999Z</time></trkpt><trkpt lat="41.6634597863893" lon="19.673255556503186"><ele>3.0</ele><time>2026-05-03T07:44:06.999Z</time></trkpt><trkpt lat="41.66372265695685" lon="19.6732692239442"><ele>3.0</ele><time>2026-05-03T07:44:07.999Z</time></trkpt><trkpt lat="41.663992619265024" lon="19.67328003238853"><ele>3.0</ele><time>2026-05-03T07:44:08.999Z</time></trkpt><trkpt lat="41.66425951036093" lon="19.673296790072772"><ele>3.0</ele><time>2026-05-03T07:44:09.999Z</time></trkpt><trkpt lat="41.66452000889743" lon="19.673318271412473"><ele>3.5</ele><time>2026-05-03T07:44:10.999Z</time></trkpt><trkpt lat="41.66477064698409" lon="19.673346120184664"><ele>4.0</ele><time>2026-05-03T07:44:11.999Z</time></trkpt><trkpt lat="41.66499913194857" lon="19.673374501397006"><ele>4.0</ele><time>2026-05-03T07:44:12.999Z</time></trkpt><trkpt lat="41.66521599174563" lon="19.673396177687767"><ele>4.0</ele><time>2026-05-03T07:44:13.999Z</time></trkpt><trkpt lat="41.66543007506872" lon="19.673416671849683"><ele>4.0</ele><time>2026-05-03T07:44:14.999Z</time></trkpt><trkpt lat="41.66564780541495" lon="19.673436026540774"><ele>4.0</ele><time>2026-05-03T07:44:15.999Z</time></trkpt><trkpt lat="41.665846472672946" lon="19.67344794665788"><ele>4.0</ele><time>2026-05-03T07:44:16.999Z</time></trkpt><trkpt lat="41.66600930171301" lon="19.673457617786497"><ele>4.0</ele><time>2026-05-03T07:44:17.999Z</time></trkpt><trkpt lat="41.66616194143689" lon="19.673466282632656"><ele>4.0</ele><time>2026-05-03T07:44:18.999Z</time></trkpt><trkpt lat="41.66630555206223" lon="19.67347798588616"><ele>4.0</ele><time>2026-05-03T07:44:19.999Z</time></trkpt><trkpt lat="41.66644227359231" lon="19.673478749532844"><ele>4.0</ele><time>2026-05-03T07:44:20.999Z</time></trkpt><trkpt lat="41.666576979717405" lon="19.67347207611595"><ele>4.0</ele><time>2026-05-03T07:44:21.999Z</time></trkpt><trkpt lat="41.66671443145367" lon="19.673471132633246"><ele>4.0</ele><time>2026-05-03T07:44:22.999Z</time></trkpt><trkpt lat="41.66688180263193" lon="19.6734645501313"><ele>4.0</ele><time>2026-05-03T07:44:23.999Z</time></trkpt><trkpt lat="41.66703657705502" lon="19.67347037900225"><ele>4.0</ele><time>2026-05-03T07:44:24.999Z</time></trkpt><trkpt lat="41.66719404410369" lon="19.673479938892793"><ele>4.0</ele><time>2026-05-03T07:44:25.999Z</time></trkpt><trkpt lat="41.66735600239637" lon="19.67349187332802"><ele>4.0</ele><time>2026-05-03T07:44:26.999Z</time></trkpt><trkpt lat="41.66751491991626" lon="19.67350876673812"><ele>4.0</ele><time>2026-05-03T07:44:27.999Z</time></trkpt><trkpt lat="41.66767037033358" lon="19.67352564353676"><ele>4.0</ele><time>2026-05-03T07:44:28.999Z</time></trkpt><trkpt lat="41.66782748323826" lon="19.673545638046285"><ele>4.0</ele><time>2026-05-03T07:44:29.999Z</time></trkpt><trkpt lat="41.667989645964425" lon="19.673567200165664"><ele>4.0</ele><time>2026-05-03T07:44:30.999Z</time></trkpt><trkpt lat="41.66815318918006" lon="19.673585959926445"><ele>4.0</ele><time>2026-05-03T07:44:31.999Z</time></trkpt><trkpt lat="41.66834443458744" lon="19.67360462603765"><ele>4.0</ele><time>2026-05-03T07:44:32.999Z</time></trkpt><trkpt lat="41.66854776418532" lon="19.673618385233013"><ele>4.0</ele><time>2026-05-03T07:44:33.999Z</time></trkpt><trkpt lat="41.668709250289766" lon="19.673635803418673"><ele>4.0</ele><time>2026-05-03T07:44:34.999Z</time></trkpt><trkpt lat="41.668842480929165" lon="19.673651603215284"><ele>4.0</ele><time>2026-05-03T07:44:35.999Z</time></trkpt><trkpt lat="41.6689755013338" lon="19.673662199423177"><ele>4.0</ele><time>2026-05-03T07:44:36.999Z</time></trkpt><trkpt lat="41.66911449005472" lon="19.673675126967467"><ele>4.0</ele><time>2026-05-03T07:44:37.999Z</time></trkpt><trkpt lat="41.66925802447893" lon="19.673686397451718"><ele>4.0</ele><time>2026-05-03T07:44:38.999Z</time></trkpt><trkpt lat="41.669399675436345" lon="19.673692925759486"><ele>4.0</ele><time>2026-05-03T07:44:39.999Z</time></trkpt><trkpt lat="41.66954952563377" lon="19.673703726775333"><ele>4.0</ele><time>2026-05-03T07:44:40.999Z</time></trkpt><trkpt lat="41.66970037303056" lon="19.67371928553366"><ele>4.0</ele><time>2026-05-03T07:44:41.999Z</time></trkpt><trkpt lat="41.66985746300079" lon="19.673736519957952"><ele>4.666666666666666</ele><time>2026-05-03T07:44:42.999Z</time></trkpt><trkpt lat="41.670019251684295" lon="19.673757395130995"><ele>5.333333333333333</ele><time>2026-05-03T07:44:43.999Z</time></trkpt><trkpt lat="41.6701832275457" lon="19.673779050074078"><ele>6.0</ele><time>2026-05-03T07:44:44.999Z</time></trkpt><trkpt lat="41.67035234336146" lon="19.673795874071775"><ele>6.333333333333334</ele><time>2026-05-03T07:44:45.999Z</time></trkpt><trkpt lat="41.67052079509036" lon="19.673810370157838"><ele>6.666666666666667</ele><time>2026-05-03T07:44:46.999Z</time></trkpt><trkpt lat="41.670687303778195" lon="19.67382783390726"><ele>7.0</ele><time>2026-05-03T07:44:47.999Z</time></trkpt><trkpt lat="41.670857960628666" lon="19.673843419630703"><ele>7.0</ele><time>2026-05-03T07:44:48.999Z</time></trkpt><trkpt lat="41.67102070582494" lon="19.673857395062843"><ele>7.0</ele><time>2026-05-03T07:44:49.999Z</time></trkpt><trkpt lat="41.67119134309868" lon="19.673875090792343"><ele>7.0</ele><time>2026-05-03T07:44:50.999Z</time></trkpt><trkpt lat="41.67136698668073" lon="19.673893754143194"><ele>6.666666666666667</ele><time>2026-05-03T07:44:51.999Z</time></trkpt><trkpt lat="41.67154838601" lon="19.67391107150136"><ele>6.333333333333334</ele><time>2026-05-03T07:44:52.999Z</time></trkpt><trkpt lat="41.67173759326345" lon="19.673927049663323"><ele>6.0</ele><time>2026-05-03T07:44:53.999Z</time></trkpt><trkpt lat="41.67193487937159" lon="19.673941650695177"><ele>6.0</ele><time>2026-05-03T07:44:54.999Z</time></trkpt><trkpt lat="41.672133076999664" lon="19.67396028952289"><ele>6.0</ele><time>2026-05-03T07:44:55.999Z</time></trkpt><trkpt lat="41.67232771828879" lon="19.6739771964529"><ele>6.0</ele><time>2026-05-03T07:44:56.999Z</time></trkpt><trkpt lat="41.67250431811545" lon="19.67399026584246"><ele>6.0</ele><time>2026-05-03T07:44:57.999Z</time></trkpt><trkpt lat="41.672675419508" lon="19.673995577419333"><ele>6.0</ele><time>2026-05-03T07:44:58.999Z</time></trkpt><trkpt lat="41.67284929447198" lon="19.6739980606089"><ele>6.0</ele><time>2026-05-03T07:44:59.999Z</time></trkpt><trkpt lat="41.6730279441319" lon="19.67400306979236"><ele>6.333333333333334</ele><time>2026-05-03T07:45:00.999Z</time></trkpt><trkpt lat="41.673217087821456" lon="19.67400631435515"><ele>6.666666666666667</ele><time>2026-05-03T07:45:02Z</time></trkpt><trkpt lat="41.67340956016102" lon="19.674004139366104"><ele>7.0</ele><time>2026-05-03T07:45:03Z</time></trkpt><trkpt lat="41.673604340401674" lon="19.674002046717515"><ele>7.0</ele><time>2026-05-03T07:45:04Z</time></trkpt><trkpt lat="41.67380600040871" lon="19.674001715763957"><ele>7.0</ele><time>2026-05-03T07:45:05Z</time></trkpt><trkpt lat="41.67399384041956" lon="19.67399775560841"><ele>7.0</ele><time>2026-05-03T07:45:06Z</time></trkpt><trkpt lat="41.67416212840569" lon="19.67399337448508"><ele>7.0</ele><time>2026-05-03T07:45:07Z</time></trkpt><trkpt lat="41.67435823038078" lon="19.67398451210026"><ele>7.0</ele><time>2026-05-03T07:45:08Z</time></trkpt><trkpt lat="41.67458897722984" lon="19.673978282110305"><ele>7.0</ele><time>2026-05-03T07:45:09Z</time></trkpt><trkpt lat="41.67481883429263" lon="19.6739767344398"><ele>7.5</ele><time>2026-05-03T07:45:10Z</time></trkpt><trkpt lat="41.67507299141567" lon="19.673964676267452"><ele>8.0</ele><time>2026-05-03T07:45:11Z</time></trkpt><trkpt lat="41.6753403352141" lon="19.673942427547637"><ele>9.0</ele><time>2026-05-03T07:45:12Z</time></trkpt><trkpt lat="41.675586220946926" lon="19.673920292989326"><ele>10.0</ele><time>2026-05-03T07:45:13Z</time></trkpt><trkpt lat="41.67584438061694" lon="19.67389230997517"><ele>10.0</ele><time>2026-05-03T07:45:14Z</time></trkpt><trkpt lat="41.676105901886004" lon="19.673863161807013"><ele>10.0</ele><time>2026-05-03T07:45:15Z</time></trkpt><trkpt lat="41.676369105226065" lon="19.673833365421164"><ele>10.0</ele><time>2026-05-03T07:45:16Z</time></trkpt><trkpt lat="41.67663479108011" lon="19.673799384970174"><ele>10.0</ele><time>2026-05-03T07:45:17Z</time></trkpt><trkpt lat="41.676901799395196" lon="19.673755644078692"><ele>8.5</ele><time>2026-05-03T07:45:18Z</time></trkpt><trkpt lat="41.67716795940654" lon="19.673707581484745"><ele>7.0</ele><time>2026-05-03T07:45:19Z</time></trkpt><trkpt lat="41.67743394091602" lon="19.673659998732628"><ele>7.5</ele><time>2026-05-03T07:45:20Z</time></trkpt><trkpt lat="41.67769926805647" lon="19.67360455711303"><ele>8.0</ele><time>2026-05-03T07:45:21Z</time></trkpt><trkpt lat="41.677964460234094" lon="19.673545485270377"><ele>8.0</ele><time>2026-05-03T07:45:22Z</time></trkpt><trkpt lat="41.67822773924679" lon="19.673485637070286"><ele>8.0</ele><time>2026-05-03T07:45:23Z</time></trkpt><trkpt lat="41.67849045294084" lon="19.673429941382533"><ele>7.0</ele><time>2026-05-03T07:45:24Z</time></trkpt><trkpt lat="41.678750212885475" lon="19.67337398584671"><ele>6.0</ele><time>2026-05-03T07:45:25Z</time></trkpt><trkpt lat="41.679010165238076" lon="19.673313399208013"><ele>6.0</ele><time>2026-05-03T07:45:26Z</time></trkpt><trkpt lat="41.679266595954" lon="19.673248307011264"><ele>6.0</ele><time>2026-05-03T07:45:27Z</time></trkpt><trkpt lat="41.67952387638442" lon="19.67318628062331"><ele>7.0</ele><time>2026-05-03T07:45:28Z</time></trkpt><trkpt lat="41.67977960911444" lon="19.673124551059093"><ele>8.0</ele><time>2026-05-03T07:45:29Z</time></trkpt><trkpt lat="41.68003751028065" lon="19.67306272042214"><ele>8.0</ele><time>2026-05-03T07:45:30Z</time></trkpt><trkpt lat="41.68029759014844" lon="19.672999011850223"><ele>8.0</ele><time>2026-05-03T07:45:31Z</time></trkpt><trkpt lat="41.680559665901455" lon="19.672932327366563"><ele>8.0</ele><time>2026-05-03T07:45:32Z</time></trkpt><trkpt lat="41.680832322627104" lon="19.672861235317207"><ele>8.0</ele><time>2026-05-03T07:45:33Z</time></trkpt><trkpt lat="41.68110783115268" lon="19.672791862352476"><ele>6.5</ele><time>2026-05-03T07:45:34Z</time></trkpt><trkpt lat="41.681385331647164" lon="19.67272485741403"><ele>5.0</ele><time>2026-05-03T07:45:35Z</time></trkpt><trkpt lat="41.68166576043711" lon="19.67266210773994"><ele>4.5</ele><time>2026-05-03T07:45:36Z</time></trkpt><trkpt lat="41.6819464001452" lon="19.672598517305637"><ele>4.0</ele><time>2026-05-03T07:45:37Z</time></trkpt><trkpt lat="41.682228018609905" lon="19.672533175691914"><ele>4.0</ele><time>2026-05-03T07:45:38Z</time></trkpt><trkpt lat="41.68250775416547" lon="19.672464501751165"><ele>4.0</ele><time>2026-05-03T07:45:39Z</time></trkpt><trkpt lat="41.68278553810293" lon="19.67239011401733"><ele>3.0</ele><time>2026-05-03T07:45:40Z</time></trkpt><trkpt lat="41.683062520999634" lon="19.67232232158446"><ele>2.0</ele><time>2026-05-03T07:45:41Z</time></trkpt><trkpt lat="41.68333612656808" lon="19.672260944159984"><ele>4.5</ele><time>2026-05-03T07:45:42Z</time></trkpt><trkpt lat="41.683610636160694" lon="19.672199378038087"><ele>7.0</ele><time>2026-05-03T07:45:43Z</time></trkpt><trkpt lat="41.68388142299303" lon="19.67213269179166"><ele>7.0</ele><time>2026-05-03T07:45:44Z</time></trkpt><trkpt lat="41.68414886446426" lon="19.67207112961655"><ele>7.0</ele><time>2026-05-03T07:45:45Z</time></trkpt><trkpt lat="41.68441364930396" lon="19.672003529918015"><ele>7.0</ele><time>2026-05-03T07:45:46Z</time></trkpt><trkpt lat="41.68467712871992" lon="19.6719366254188"><ele>7.0</ele><time>2026-05-03T07:45:47Z</time></trkpt><trkpt lat="41.68493708546377" lon="19.67187401310363"><ele>7.0</ele><time>2026-05-03T07:45:48Z</time></trkpt><trkpt lat="41.6851945946581" lon="19.671812298019795"><ele>7.0</ele><time>2026-05-03T07:45:49Z</time></trkpt><trkpt lat="41.68545057559897" lon="19.671755298854915"><ele>8.5</ele><time>2026-05-03T07:45:50Z</time></trkpt><trkpt lat="41.68570755430058" lon="19.671697369266187"><ele>10.0</ele><time>2026-05-03T07:45:51Z</time></trkpt><trkpt lat="41.685960568179276" lon="19.671633955068515"><ele>8.5</ele><time>2026-05-03T07:45:52Z</time></trkpt><trkpt lat="41.68621094734745" lon="19.67157068472017"><ele>7.0</ele><time>2026-05-03T07:45:52.999Z</time></trkpt><trkpt lat="41.68645704540902" lon="19.67150289730022"><ele>7.0</ele><time>2026-05-03T07:45:53.999Z</time></trkpt><trkpt lat="41.68670350474025" lon="19.67143693890306"><ele>7.0</ele><time>2026-05-03T07:45:54.999Z</time></trkpt><trkpt lat="41.68694770619496" lon="19.67138183529557"><ele>6.5</ele><time>2026-05-03T07:45:55.999Z</time></trkpt><trkpt lat="41.68718589537615" lon="19.671327104241936"><ele>6.0</ele><time>2026-05-03T07:45:56.999Z</time></trkpt><trkpt lat="41.68742570591505" lon="19.671275523033394"><ele>6.0</ele><time>2026-05-03T07:45:57.999Z</time></trkpt><trkpt lat="41.687668002710154" lon="19.671221707472878"><ele>6.0</ele><time>2026-05-03T07:45:58.999Z</time></trkpt><trkpt lat="41.68791470273764" lon="19.67115794612888"><ele>6.5</ele><time>2026-05-03T07:45:59.999Z</time></trkpt><trkpt lat="41.688166251187965" lon="19.67109333294205"><ele>7.0</ele><time>2026-05-03T07:46:00.999Z</time></trkpt><trkpt lat="41.68841837015714" lon="19.671033223950815"><ele>7.0</ele><time>2026-05-03T07:46:01.999Z</time></trkpt><trkpt lat="41.68867118715596" lon="19.670975027458997"><ele>7.0</ele><time>2026-05-03T07:46:02.999Z</time></trkpt><trkpt lat="41.688928898766896" lon="19.670918660420323"><ele>7.0</ele><time>2026-05-03T07:46:03.999Z</time></trkpt><trkpt lat="41.689182960830216" lon="19.670852135554245"><ele>7.0</ele><time>2026-05-03T07:46:04.999Z</time></trkpt><trkpt lat="41.68943968963763" lon="19.670783914911976"><ele>7.0</ele><time>2026-05-03T07:46:05.999Z</time></trkpt><trkpt lat="41.68969590627562" lon="19.6707225031084"><ele>7.0</ele><time>2026-05-03T07:46:06.999Z</time></trkpt><trkpt lat="41.68995353284622" lon="19.67066574725107"><ele>7.0</ele><time>2026-05-03T07:46:07.999Z</time></trkpt><trkpt lat="41.690212397573994" lon="19.670598748325162"><ele>7.0</ele><time>2026-05-03T07:46:08.999Z</time></trkpt><trkpt lat="41.69046813601512" lon="19.670535428460838"><ele>6.5</ele><time>2026-05-03T07:46:09.999Z</time></trkpt><trkpt lat="41.69072388580239" lon="19.67047674753622"><ele>6.0</ele><time>2026-05-03T07:46:10.999Z</time></trkpt><trkpt lat="41.69097832043972" lon="19.6704239490289"><ele>7.0</ele><time>2026-05-03T07:46:11.999Z</time></trkpt><trkpt lat="41.691237683114885" lon="19.670363790625387"><ele>8.0</ele><time>2026-05-03T07:46:12.999Z</time></trkpt><trkpt lat="41.691495146217136" lon="19.670297235630926"><ele>8.0</ele><time>2026-05-03T07:46:13.999Z</time></trkpt><trkpt lat="41.69175441279856" lon="19.670236016135615"><ele>8.0</ele><time>2026-05-03T07:46:14.999Z</time></trkpt><trkpt lat="41.692011673859994" lon="19.670172879665465"><ele>7.5</ele><time>2026-05-03T07:46:15.999Z</time></trkpt><trkpt lat="41.69226321243059" lon="19.670103015538924"><ele>7.0</ele><time>2026-05-03T07:46:16.999Z</time></trkpt><trkpt lat="41.69251173796144" lon="19.670048068343863"><ele>7.0</ele><time>2026-05-03T07:46:17.999Z</time></trkpt><trkpt lat="41.69276226388018" lon="19.66998659711414"><ele>7.0</ele><time>2026-05-03T07:46:18.999Z</time></trkpt><trkpt lat="41.69301022439523" lon="19.669927086970734"><ele>7.0</ele><time>2026-05-03T07:46:19.999Z</time></trkpt><trkpt lat="41.693255531539506" lon="19.669864507727894"><ele>7.0</ele><time>2026-05-03T07:46:20.999Z</time></trkpt><trkpt lat="41.69349764066511" lon="19.669800752857686"><ele>5.5</ele><time>2026-05-03T07:46:21.999Z</time></trkpt><trkpt lat="41.69374251900788" lon="19.669741076537342"><ele>4.0</ele><time>2026-05-03T07:46:22.999Z</time></trkpt><trkpt lat="41.69398761188713" lon="19.669685114851674"><ele>4.0</ele><time>2026-05-03T07:46:23.999Z</time></trkpt><trkpt lat="41.69423340624382" lon="19.669626221211242"><ele>4.0</ele><time>2026-05-03T07:46:24.999Z</time></trkpt><trkpt lat="41.69447712187225" lon="19.66956566377092"><ele>4.5</ele><time>2026-05-03T07:46:25.999Z</time></trkpt><trkpt lat="41.694712838597894" lon="19.669505131682687"><ele>5.0</ele><time>2026-05-03T07:46:26.999Z</time></trkpt><trkpt lat="41.6949429323926" lon="19.66945148517084"><ele>5.0</ele><time>2026-05-03T07:46:27.999Z</time></trkpt><trkpt lat="41.69517247227054" lon="19.669397103589944"><ele>5.0</ele><time>2026-05-03T07:46:28.999Z</time></trkpt><trkpt lat="41.69539615030271" lon="19.669342760633658"><ele>5.0</ele><time>2026-05-03T07:46:29.999Z</time></trkpt><trkpt lat="41.69561589687918" lon="19.669290229250425"><ele>5.0</ele><time>2026-05-03T07:46:30.999Z</time></trkpt><trkpt lat="41.69583594593107" lon="19.669237590736056"><ele>5.0</ele><time>2026-05-03T07:46:31.999Z</time></trkpt><trkpt lat="41.69605236141312" lon="19.66918471743794"><ele>5.0</ele><time>2026-05-03T07:46:32.999Z</time></trkpt><trkpt lat="41.69626797509765" lon="19.66913261668938"><ele>5.0</ele><time>2026-05-03T07:46:33.999Z</time></trkpt><trkpt lat="41.69648261134986" lon="19.669083494831472"><ele>5.0</ele><time>2026-05-03T07:46:34.999Z</time></trkpt><trkpt lat="41.696701195554375" lon="19.66903385993725"><ele>5.0</ele><time>2026-05-03T07:46:35.999Z</time></trkpt><trkpt lat="41.696922929448746" lon="19.668973900418177"><ele>5.0</ele><time>2026-05-03T07:46:36.999Z</time></trkpt><trkpt lat="41.69713605094936" lon="19.668916381943767"><ele>5.0</ele><time>2026-05-03T07:46:37.999Z</time></trkpt><trkpt lat="41.69735459622794" lon="19.668865001629896"><ele>5.0</ele><time>2026-05-03T07:46:38.999Z</time></trkpt><trkpt lat="41.69757236598321" lon="19.66881842895545"><ele>5.0</ele><time>2026-05-03T07:46:39.999Z</time></trkpt><trkpt lat="41.697794320684125" lon="19.668765741702927"><ele>5.0</ele><time>2026-05-03T07:46:40.999Z</time></trkpt><trkpt lat="41.69800857399029" lon="19.668712812845797"><ele>5.0</ele><time>2026-05-03T07:46:41.999Z</time></trkpt><trkpt lat="41.69822508884653" lon="19.668658183268022"><ele>5.0</ele><time>2026-05-03T07:46:42.999Z</time></trkpt><trkpt lat="41.698439048504305" lon="19.668605565543174"><ele>5.0</ele><time>2026-05-03T07:46:43.999Z</time></trkpt><trkpt lat="41.69865023541153" lon="19.668556501966243"><ele>4.0</ele><time>2026-05-03T07:46:44.999Z</time></trkpt><trkpt lat="41.69886028298989" lon="19.668507431451957"><ele>3.0</ele><time>2026-05-03T07:46:45.999Z</time></trkpt><trkpt lat="41.69906151451138" lon="19.66846222496502"><ele>2.0</ele><time>2026-05-03T07:46:46.999Z</time></trkpt><trkpt lat="41.699262711539866" lon="19.668411190136055"><ele>2.6666666666666665</ele><time>2026-05-03T07:46:47.999Z</time></trkpt><trkpt lat="41.69945634521874" lon="19.668362576871157"><ele>3.333333333333333</ele><time>2026-05-03T07:46:48.999Z</time></trkpt><trkpt lat="41.69963888078545" lon="19.668315713186903"><ele>4.0</ele><time>2026-05-03T07:46:49.999Z</time></trkpt><trkpt lat="41.699824103446005" lon="19.66827097499825"><ele>4.0</ele><time>2026-05-03T07:46:50.999Z</time></trkpt><trkpt lat="41.7000100596301" lon="19.668223463811312"><ele>4.0</ele><time>2026-05-03T07:46:51.999Z</time></trkpt><trkpt lat="41.700195357225" lon="19.668180283152708"><ele>4.0</ele><time>2026-05-03T07:46:52.999Z</time></trkpt><trkpt lat="41.70037418347613" lon="19.668131924621008"><ele>3.6666666666666665</ele><time>2026-05-03T07:46:53.999Z</time></trkpt><trkpt lat="41.700540427782656" lon="19.668095937564438"><ele>3.333333333333333</ele><time>2026-05-03T07:46:54.999Z</time></trkpt><trkpt lat="41.70070451026576" lon="19.66806062493349"><ele>3.0</ele><time>2026-05-03T07:46:55.999Z</time></trkpt><trkpt lat="41.70086827270388" lon="19.668025518990333"><ele>3.0</ele><time>2026-05-03T07:46:56.999Z</time></trkpt><trkpt lat="41.70102224883289" lon="19.667991502907302"><ele>3.0</ele><time>2026-05-03T07:46:57.999Z</time></trkpt><trkpt lat="41.70117323706072" lon="19.667951011339788"><ele>3.0</ele><time>2026-05-03T07:46:58.999Z</time></trkpt><trkpt lat="41.701317927026764" lon="19.667909182409147"><ele>3.5</ele><time>2026-05-03T07:46:59.999Z</time></trkpt><trkpt lat="41.70145327695621" lon="19.66787503109674"><ele>4.0</ele><time>2026-05-03T07:47:00.999Z</time></trkpt><trkpt lat="41.70158501769015" lon="19.667838768330682"><ele>4.5</ele><time>2026-05-03T07:47:01.999Z</time></trkpt><trkpt lat="41.70170476575917" lon="19.66780565453713"><ele>5.0</ele><time>2026-05-03T07:47:02.999Z</time></trkpt><trkpt lat="41.70181399853246" lon="19.66777684908964"><ele>5.0</ele><time>2026-05-03T07:47:03.999Z</time></trkpt><trkpt lat="41.701908728935635" lon="19.667753174754093"><ele>5.0</ele><time>2026-05-03T07:47:04.999Z</time></trkpt><trkpt lat="41.701990278577036" lon="19.667735466975753"><ele>5.0</ele><time>2026-05-03T07:47:05.999Z</time></trkpt><trkpt lat="41.70207640910419" lon="19.66772378899538"><ele>5.0</ele><time>2026-05-03T07:47:06.999Z</time></trkpt><trkpt lat="41.70216457317075" lon="19.6677112537922"><ele>5.0</ele><time>2026-05-03T07:47:08Z</time></trkpt><trkpt lat="41.70225419705924" lon="19.667697535993256"><ele>5.0</ele><time>2026-05-03T07:47:09Z</time></trkpt><trkpt lat="41.70235096554719" lon="19.667673289789313"><ele>4.75</ele><time>2026-05-03T07:47:10Z</time></trkpt><trkpt lat="41.70245963111926" lon="19.667632991327565"><ele>4.5</ele><time>2026-05-03T07:47:11Z</time></trkpt><trkpt lat="41.70259178973612" lon="19.667583733151968"><ele>4.25</ele><time>2026-05-03T07:47:12Z</time></trkpt><trkpt lat="41.70274781014877" lon="19.667541121152553"><ele>4.0</ele><time>2026-05-03T07:47:13Z</time></trkpt><trkpt lat="41.70292960221434" lon="19.66750643014688"><ele>4.0</ele><time>2026-05-03T07:47:14Z</time></trkpt><trkpt lat="41.70313534003307" lon="19.66745888030859"><ele>4.0</ele><time>2026-05-03T07:47:15Z</time></trkpt><trkpt lat="41.703350703195994" lon="19.66740405039424"><ele>4.0</ele><time>2026-05-03T07:47:16Z</time></trkpt><trkpt lat="41.703572709329784" lon="19.667350995147515"><ele>3.0</ele><time>2026-05-03T07:47:17Z</time></trkpt><trkpt lat="41.70380216079126" lon="19.667292427831708"><ele>2.0</ele><time>2026-05-03T07:47:18Z</time></trkpt><trkpt lat="41.704027520838395" lon="19.667238737999586"><ele>2.0</ele><time>2026-05-03T07:47:19Z</time></trkpt><trkpt lat="41.704254767419094" lon="19.66719019048116"><ele>2.0</ele><time>2026-05-03T07:47:20Z</time></trkpt><trkpt lat="41.70447475258217" lon="19.66713945215072"><ele>2.0</ele><time>2026-05-03T07:47:21Z</time></trkpt><trkpt lat="41.704671926623924" lon="19.667088259423075"><ele>2.0</ele><time>2026-05-03T07:47:22Z</time></trkpt><trkpt lat="41.704852041182846" lon="19.667044760076173"><ele>2.0</ele><time>2026-05-03T07:47:23Z</time></trkpt><trkpt lat="41.7050074965574" lon="19.667008671207114"><ele>2.0</ele><time>2026-05-03T07:47:24Z</time></trkpt><trkpt lat="41.70515797555631" lon="19.666973572343014"><ele>2.0</ele><time>2026-05-03T07:47:25Z</time></trkpt><trkpt lat="41.70530861266295" lon="19.66694195594957"><ele>2.0</ele><time>2026-05-03T07:47:26Z</time></trkpt><trkpt lat="41.70545619402683" lon="19.666908010362416"><ele>2.25</ele><time>2026-05-03T07:47:27Z</time></trkpt><trkpt lat="41.70560398733176" lon="19.666869888296667"><ele>2.5</ele><time>2026-05-03T07:47:28Z</time></trkpt><trkpt lat="41.70574402390304" lon="19.666831691111167"><ele>2.75</ele><time>2026-05-03T07:47:29Z</time></trkpt><trkpt lat="41.70586564911493" lon="19.6667955776078"><ele>3.0</ele><time>2026-05-03T07:47:30Z</time></trkpt><trkpt lat="41.70596878575725" lon="19.666762103918998"><ele>3.0</ele><time>2026-05-03T07:47:31Z</time></trkpt><trkpt lat="41.70606492509585" lon="19.666737584623544"><ele>3.0</ele><time>2026-05-03T07:47:32Z</time></trkpt><trkpt lat="41.706158505168275" lon="19.666717665678743"><ele>3.0</ele><time>2026-05-03T07:47:33Z</time></trkpt><trkpt lat="41.70625202804369" lon="19.666696022898005"><ele>3.0</ele><time>2026-05-03T07:47:34Z</time></trkpt><trkpt lat="41.70634270061732" lon="19.666675047548434"><ele>3.0</ele><time>2026-05-03T07:47:35Z</time></trkpt><trkpt lat="41.70642230441608" lon="19.6666551561297"><ele>2.8333333333333335</ele><time>2026-05-03T07:47:36Z</time></trkpt><trkpt lat="41.70649776831824" lon="19.666637833542044"><ele>2.6666666666666665</ele><time>2026-05-03T07:47:37Z</time></trkpt><trkpt lat="41.70656417212611" lon="19.666621350093838"><ele>2.5</ele><time>2026-05-03T07:47:38Z</time></trkpt><trkpt lat="41.706679050124094" lon="19.66659174128743"><ele>2.333333333333333</ele><time>2026-05-03T07:47:40Z</time></trkpt><trkpt lat="41.706762899021825" lon="19.666571347475045"><ele>2.1666666666666665</ele><time>2026-05-03T07:47:41Z</time></trkpt><trkpt lat="41.70685416225063" lon="19.666552643860097"><ele>2.0</ele><time>2026-05-03T07:47:42Z</time></trkpt><trkpt lat="41.70695532154299" lon="19.666531817106186"><ele>2.0</ele><time>2026-05-03T07:47:43Z</time></trkpt><trkpt lat="41.70706315935126" lon="19.666505954760172"><ele>2.0</ele><time>2026-05-03T07:47:44Z</time></trkpt><trkpt lat="41.70717573699314" lon="19.66647585263816"><ele>2.0</ele><time>2026-05-03T07:47:45Z</time></trkpt><trkpt lat="41.70728561829677" lon="19.666448951227057"><ele>2.0</ele><time>2026-05-03T07:47:46Z</time></trkpt><trkpt lat="41.70739684435882" lon="19.66641857225833"><ele>2.0</ele><time>2026-05-03T07:47:47Z</time></trkpt><trkpt lat="41.70752352362997" lon="19.666380536854422"><ele>2.0</ele><time>2026-05-03T07:47:48Z</time></trkpt><trkpt lat="41.707676784925084" lon="19.666340106593914"><ele>2.0</ele><time>2026-05-03T07:47:49Z</time></trkpt><trkpt lat="41.70784500517825" lon="19.666302171238538"><ele>2.0</ele><time>2026-05-03T07:47:50Z</time></trkpt><trkpt lat="41.70804031950557" lon="19.666260357871337"><ele>2.0</ele><time>2026-05-03T07:47:51Z</time></trkpt><trkpt lat="41.70823807914571" lon="19.66621370743103"><ele>2.0</ele><time>2026-05-03T07:47:52Z</time></trkpt><trkpt lat="41.708442885736375" lon="19.66616441104686"><ele>2.0</ele><time>2026-05-03T07:47:53Z</time></trkpt><trkpt lat="41.70865010298911" lon="19.666114980752756"><ele>2.0</ele><time>2026-05-03T07:47:54Z</time></trkpt><trkpt lat="41.70885935978571" lon="19.66606497824488"><ele>2.0</ele><time>2026-05-03T07:47:55Z</time></trkpt><trkpt lat="41.70906898362005" lon="19.6660136394924"><ele>2.0</ele><time>2026-05-03T07:47:56Z</time></trkpt><trkpt lat="41.7092857300906" lon="19.665961826236565"><ele>2.0</ele><time>2026-05-03T07:47:57Z</time></trkpt><trkpt lat="41.709504400085414" lon="19.665903496916275"><ele>2.0</ele><time>2026-05-03T07:47:58Z</time></trkpt><trkpt lat="41.709728287789126" lon="19.665847959606328"><ele>1.5</ele><time>2026-05-03T07:47:59Z</time></trkpt><trkpt lat="41.70995113494661" lon="19.66579067821025"><ele>1.0</ele><time>2026-05-03T07:48:00Z</time></trkpt><trkpt lat="41.71017324519044" lon="19.665724193342104"><ele>0.0</ele><time>2026-05-03T07:48:01Z</time></trkpt><trkpt lat="41.71039639951077" lon="19.665673754968367"><ele>-1.0</ele><time>2026-05-03T07:48:02Z</time></trkpt><trkpt lat="41.71060934845089" lon="19.665638723613938"><ele>-2.0</ele><time>2026-05-03T07:48:03Z</time></trkpt><trkpt lat="41.71080492218321" lon="19.665595627497932"><ele>-2.0</ele><time>2026-05-03T07:48:04Z</time></trkpt><trkpt lat="41.71098920706882" lon="19.665547791201135"><ele>-2.0</ele><time>2026-05-03T07:48:05Z</time></trkpt><trkpt lat="41.71116971614537" lon="19.665502170259376"><ele>-2.0</ele><time>2026-05-03T07:48:06Z</time></trkpt><trkpt lat="41.7113523074167" lon="19.665457074218363"><ele>-1.3333333333333333</ele><time>2026-05-03T07:48:07Z</time></trkpt><trkpt lat="41.71153658936702" lon="19.665413410149327"><ele>-0.6666666666666666</ele><time>2026-05-03T07:48:08Z</time></trkpt><trkpt lat="41.71172307261378" lon="19.665369839033843"><ele>0.0</ele><time>2026-05-03T07:48:09Z</time></trkpt><trkpt lat="41.71191329668408" lon="19.665325577503946"><ele>0.0</ele><time>2026-05-03T07:48:10Z</time></trkpt><trkpt lat="41.71210207996605" lon="19.66527871370649"><ele>0.0</ele><time>2026-05-03T07:48:11Z</time></trkpt><trkpt lat="41.71228930074004" lon="19.665231634894358"><ele>0.0</ele><time>2026-05-03T07:48:12Z</time></trkpt><trkpt lat="41.712477116311476" lon="19.665183970674445"><ele>0.0</ele><time>2026-05-03T07:48:13Z</time></trkpt><trkpt lat="41.71266036881488" lon="19.665139983051564"><ele>0.0</ele><time>2026-05-03T07:48:14Z</time></trkpt><trkpt lat="41.712841603642744" lon="19.665096532733905"><ele>0.0</ele><time>2026-05-03T07:48:15Z</time></trkpt><trkpt lat="41.71301438784831" lon="19.665053340368054"><ele>0.0</ele><time>2026-05-03T07:48:16Z</time></trkpt><trkpt lat="41.71318627159908" lon="19.665013381916857"><ele>0.0</ele><time>2026-05-03T07:48:17Z</time></trkpt><trkpt lat="41.71335527117724" lon="19.664973601601684"><ele>0.0</ele><time>2026-05-03T07:48:18Z</time></trkpt><trkpt lat="41.71352132981931" lon="19.664935172024183"><ele>0.0</ele><time>2026-05-03T07:48:19Z</time></trkpt><trkpt lat="41.713687185913784" lon="19.6648961814912"><ele>0.0</ele><time>2026-05-03T07:48:20Z</time></trkpt><trkpt lat="41.71385388272286" lon="19.664852147029467"><ele>0.0</ele><time>2026-05-03T07:48:21Z</time></trkpt><trkpt lat="41.71402220198471" lon="19.664807600184787"><ele>0.0</ele><time>2026-05-03T07:48:22Z</time></trkpt><trkpt lat="41.71418703198041" lon="19.664766839930465"><ele>0.0</ele><time>2026-05-03T07:48:23Z</time></trkpt><trkpt lat="41.71434840490358" lon="19.66473019847362"><ele>0.0</ele><time>2026-05-03T07:48:23.999Z</time></trkpt><trkpt lat="41.714505678176614" lon="19.664692256977197"><ele>-0.6666666666666666</ele><time>2026-05-03T07:48:24.999Z</time></trkpt><trkpt lat="41.7146580151084" lon="19.66465153394713"><ele>-1.3333333333333333</ele><time>2026-05-03T07:48:25.999Z</time></trkpt><trkpt lat="41.714822513650795" lon="19.664608684889302"><ele>-2.0</ele><time>2026-05-03T07:48:26.999Z</time></trkpt><trkpt lat="41.714997015131935" lon="19.66456783398095"><ele>-2.0</ele><time>2026-05-03T07:48:27.999Z</time></trkpt><trkpt lat="41.71517322484043" lon="19.66452806837409"><ele>-2.0</ele><time>2026-05-03T07:48:28.999Z</time></trkpt><trkpt lat="41.71534220282371" lon="19.66449058671578"><ele>-2.0</ele><time>2026-05-03T07:48:29.999Z</time></trkpt><trkpt lat="41.71550778382698" lon="19.664452047665254"><ele>-1.3333333333333333</ele><time>2026-05-03T07:48:30.999Z</time></trkpt><trkpt lat="41.715682621007936" lon="19.664405950711064"><ele>-0.6666666666666666</ele><time>2026-05-03T07:48:31.999Z</time></trkpt><trkpt lat="41.71589181046934" lon="19.664352773570727"><ele>0.0</ele><time>2026-05-03T07:48:32.999Z</time></trkpt><trkpt lat="41.71611817662632" lon="19.664295831712312"><ele>0.0</ele><time>2026-05-03T07:48:33.999Z</time></trkpt><trkpt lat="41.71636940819967" lon="19.66423654208807"><ele>0.0</ele><time>2026-05-03T07:48:34.999Z</time></trkpt><trkpt lat="41.71660178277087" lon="19.66418643611333"><ele>0.0</ele><time>2026-05-03T07:48:35.999Z</time></trkpt><trkpt lat="41.716827950004294" lon="19.664138545969646"><ele>0.0</ele><time>2026-05-03T07:48:36.999Z</time></trkpt><trkpt lat="41.71703962617435" lon="19.664089553642317"><ele>0.0</ele><time>2026-05-03T07:48:37.999Z</time></trkpt><trkpt lat="41.71724027792064" lon="19.664044596368697"><ele>-0.3333333333333333</ele><time>2026-05-03T07:48:38.999Z</time></trkpt><trkpt lat="41.71743022076122" lon="19.663994717939083"><ele>-0.6666666666666666</ele><time>2026-05-03T07:48:39.999Z</time></trkpt><trkpt lat="41.71761901594961" lon="19.66394580958897"><ele>-1.0</ele><time>2026-05-03T07:48:40.999Z</time></trkpt><trkpt lat="41.71780791747677" lon="19.663897647975237"><ele>-1.0</ele><time>2026-05-03T07:48:41.999Z</time></trkpt><trkpt lat="41.71799805099559" lon="19.66384920877649"><ele>-1.0</ele><time>2026-05-03T07:48:42.999Z</time></trkpt><trkpt lat="41.71818432039025" lon="19.663806261817776"><ele>-1.0</ele><time>2026-05-03T07:48:43.999Z</time></trkpt><trkpt lat="41.71837337417812" lon="19.66376316557852"><ele>-1.0</ele><time>2026-05-03T07:48:44.999Z</time></trkpt><trkpt lat="41.7185621985232" lon="19.66372269448096"><ele>-1.0</ele><time>2026-05-03T07:48:45.999Z</time></trkpt><trkpt lat="41.71874660444775" lon="19.663677094226085"><ele>-1.0</ele><time>2026-05-03T07:48:46.999Z</time></trkpt><trkpt lat="41.718928345045285" lon="19.663626457683392"><ele>-0.3333333333333333</ele><time>2026-05-03T07:48:47.999Z</time></trkpt><trkpt lat="41.71910884143041" lon="19.663577247425415"><ele>0.3333333333333333</ele><time>2026-05-03T07:48:48.999Z</time></trkpt><trkpt lat="41.71929136123357" lon="19.663525990776897"><ele>1.0</ele><time>2026-05-03T07:48:49.999Z</time></trkpt><trkpt lat="41.71947887078159" lon="19.66346787901068"><ele>-0.33333333333333337</ele><time>2026-05-03T07:48:50.999Z</time></trkpt><trkpt lat="41.71966693244929" lon="19.663403413921582"><ele>-1.6666666666666667</ele><time>2026-05-03T07:48:51.999Z</time></trkpt><trkpt lat="41.719858431719786" lon="19.66333297228285"><ele>-3.0</ele><time>2026-05-03T07:48:52.999Z</time></trkpt><trkpt lat="41.72004948235791" lon="19.663251033723558"><ele>-1.3333333333333335</ele><time>2026-05-03T07:48:53.999Z</time></trkpt><trkpt lat="41.7202397245461" lon="19.663163444686205"><ele>0.33333333333333326</ele><time>2026-05-03T07:48:54.999Z</time></trkpt><trkpt lat="41.720430153492664" lon="19.663072053571398"><ele>2.0</ele><time>2026-05-03T07:48:55.999Z</time></trkpt><trkpt lat="41.72061936064059" lon="19.662972325881487"><ele>2.0</ele><time>2026-05-03T07:48:56.999Z</time></trkpt><trkpt lat="41.72080739982795" lon="19.662869787072555"><ele>2.0</ele><time>2026-05-03T07:48:57.999Z</time></trkpt><trkpt lat="41.7209959589014" lon="19.662762102344473"><ele>2.0</ele><time>2026-05-03T07:48:58.999Z</time></trkpt><trkpt lat="41.72118719604112" lon="19.66265377968917"><ele>0.6666666666666666</ele><time>2026-05-03T07:48:59.999Z</time></trkpt><trkpt lat="41.72137761116462" lon="19.66254257613812"><ele>-0.6666666666666666</ele><time>2026-05-03T07:49:00.999Z</time></trkpt><trkpt lat="41.72156517315835" lon="19.662428955309455"><ele>-2.0</ele><time>2026-05-03T07:49:01.999Z</time></trkpt><trkpt lat="41.721745456967774" lon="19.66231239564031"><ele>-0.33333333333333326</ele><time>2026-05-03T07:49:02.999Z</time></trkpt><trkpt lat="41.721926048076554" lon="19.662191775530083"><ele>1.3333333333333335</ele><time>2026-05-03T07:49:03.999Z</time></trkpt><trkpt lat="41.72210748485115" lon="19.66207440119209"><ele>3.0</ele><time>2026-05-03T07:49:04.999Z</time></trkpt><trkpt lat="41.72229228206109" lon="19.661963860061856"><ele>2.3333333333333335</ele><time>2026-05-03T07:49:05.999Z</time></trkpt><trkpt lat="41.72247123456168" lon="19.66185440004248"><ele>1.6666666666666665</ele><time>2026-05-03T07:49:06.999Z</time></trkpt><trkpt lat="41.72264561060674" lon="19.661741289840517"><ele>1.0</ele><time>2026-05-03T07:49:07.999Z</time></trkpt><trkpt lat="41.722822173853324" lon="19.661631921538827"><ele>1.0</ele><time>2026-05-03T07:49:08.999Z</time></trkpt><trkpt lat="41.722999509629624" lon="19.661524718374913"><ele>1.0</ele><time>2026-05-03T07:49:09.999Z</time></trkpt><trkpt lat="41.7231734225553" lon="19.661413476356167"><ele>1.0</ele><time>2026-05-03T07:49:10.999Z</time></trkpt><trkpt lat="41.723349948530576" lon="19.661296552980644"><ele>1.0</ele><time>2026-05-03T07:49:11.999Z</time></trkpt><trkpt lat="41.72352892215619" lon="19.661182629656725"><ele>1.0</ele><time>2026-05-03T07:49:12.999Z</time></trkpt><trkpt lat="41.72371316674578" lon="19.661069256329863"><ele>1.0</ele><time>2026-05-03T07:49:14Z</time></trkpt><trkpt lat="41.72390053054065" lon="19.66095197286121"><ele>1.3333333333333333</ele><time>2026-05-03T07:49:15Z</time></trkpt><trkpt lat="41.724090745733704" lon="19.660833903197894"><ele>1.6666666666666665</ele><time>2026-05-03T07:49:16Z</time></trkpt><trkpt lat="41.724283732208356" lon="19.66070761838365"><ele>2.0</ele><time>2026-05-03T07:49:17Z</time></trkpt><trkpt lat="41.72448212953349" lon="19.660576415513482"><ele>0.5</ele><time>2026-05-03T07:49:18Z</time></trkpt><trkpt lat="41.72468497597631" lon="19.66044257352601"><ele>-1.0</ele><time>2026-05-03T07:49:19Z</time></trkpt><trkpt lat="41.72490194484492" lon="19.66030077520408"><ele>-0.5</ele><time>2026-05-03T07:49:20Z</time></trkpt><trkpt lat="41.725130703752605" lon="19.660152449959707"><ele>0.0</ele><time>2026-05-03T07:49:21Z</time></trkpt><trkpt lat="41.7253701547097" lon="19.659997594667168"><ele>-1.0</ele><time>2026-05-03T07:49:22Z</time></trkpt><trkpt lat="41.72561957229559" lon="19.659843394733464"><ele>-2.0</ele><time>2026-05-03T07:49:23Z</time></trkpt><trkpt lat="41.72588657995924" lon="19.659680109481677"><ele>-2.0</ele><time>2026-05-03T07:49:24Z</time></trkpt><trkpt lat="41.72616604246109" lon="19.659499740310704"><ele>-2.0</ele><time>2026-05-03T07:49:25Z</time></trkpt><trkpt lat="41.7264543871893" lon="19.65931889194546"><ele>-2.5</ele><time>2026-05-03T07:49:26Z</time></trkpt><trkpt lat="41.72672759597979" lon="19.659162193291653"><ele>-3.0</ele><time>2026-05-03T07:49:27Z</time></trkpt><trkpt lat="41.726974871158504" lon="19.659020444436376"><ele>-1.0</ele><time>2026-05-03T07:49:28Z</time></trkpt><trkpt lat="41.727207171656595" lon="19.658887088472596"><ele>1.0</ele><time>2026-05-03T07:49:29Z</time></trkpt><trkpt lat="41.72741791563038" lon="19.65875361279433"><ele>1.0</ele><time>2026-05-03T07:49:30Z</time></trkpt><trkpt lat="41.72761717190883" lon="19.658623844570595"><ele>1.0</ele><time>2026-05-03T07:49:31Z</time></trkpt><trkpt lat="41.727808248902726" lon="19.65850320274432"><ele>1.0</ele><time>2026-05-03T07:49:32Z</time></trkpt><trkpt lat="41.72798824378718" lon="19.658388204509844"><ele>1.0</ele><time>2026-05-03T07:49:33Z</time></trkpt><trkpt lat="41.7281593815896" lon="19.65828294725807"><ele>1.0</ele><time>2026-05-03T07:49:34Z</time></trkpt><trkpt lat="41.728324433448634" lon="19.658182948840462"><ele>1.0</ele><time>2026-05-03T07:49:35Z</time></trkpt><trkpt lat="41.72848625467837" lon="19.658082023716247"><ele>0.3333333333333333</ele><time>2026-05-03T07:49:36Z</time></trkpt><trkpt lat="41.72864823091746" lon="19.657981866485734"><ele>-0.3333333333333333</ele><time>2026-05-03T07:49:37Z</time></trkpt><trkpt lat="41.728804587402145" lon="19.657888736161397"><ele>-1.0</ele><time>2026-05-03T07:49:38Z</time></trkpt><trkpt lat="41.72895096003463" lon="19.657798419376498"><ele>-0.6666666666666666</ele><time>2026-05-03T07:49:39Z</time></trkpt><trkpt lat="41.72909034276388" lon="19.657709485641995"><ele>-0.3333333333333333</ele><time>2026-05-03T07:49:40Z</time></trkpt><trkpt lat="41.72922536923921" lon="19.657627423576937"><ele>0.0</ele><time>2026-05-03T07:49:41Z</time></trkpt><trkpt lat="41.72936110459908" lon="19.65754493511457"><ele>-1.0</ele><time>2026-05-03T07:49:42Z</time></trkpt><trkpt lat="41.72949647377577" lon="19.657460402273177"><ele>-2.0</ele><time>2026-05-03T07:49:43Z</time></trkpt><trkpt lat="41.7296320766065" lon="19.65737277735164"><ele>-3.0</ele><time>2026-05-03T07:49:44Z</time></trkpt><trkpt lat="41.72976718609537" lon="19.65728434369381"><ele>-3.0</ele><time>2026-05-03T07:49:45Z</time></trkpt><trkpt lat="41.72989606294654" lon="19.657202240530737"><ele>-3.0</ele><time>2026-05-03T07:49:46Z</time></trkpt><trkpt lat="41.730020982102694" lon="19.657125164355246"><ele>-3.0</ele><time>2026-05-03T07:49:47Z</time></trkpt><trkpt lat="41.73015005468702" lon="19.65704757436471"><ele>-3.0</ele><time>2026-05-03T07:49:48Z</time></trkpt><trkpt lat="41.73028396098843" lon="19.65696353122237"><ele>-3.5</ele><time>2026-05-03T07:49:49Z</time></trkpt><trkpt lat="41.73041815054069" lon="19.65687864750749"><ele>-4.0</ele><time>2026-05-03T07:49:50Z</time></trkpt><trkpt lat="41.73055045192283" lon="19.656793558443585"><ele>-4.5</ele><time>2026-05-03T07:49:51Z</time></trkpt><trkpt lat="41.73068389165973" lon="19.656705150060564"><ele>-5.0</ele><time>2026-05-03T07:49:52Z</time></trkpt><trkpt lat="41.73082221942972" lon="19.656623139183047"><ele>-5.0</ele><time>2026-05-03T07:49:53Z</time></trkpt><trkpt lat="41.730962161476974" lon="19.656541160774033"><ele>-5.0</ele><time>2026-05-03T07:49:54Z</time></trkpt><trkpt lat="41.73110418990801" lon="19.65644663439212"><ele>-5.0</ele><time>2026-05-03T07:49:55Z</time></trkpt><trkpt lat="41.73125385075452" lon="19.65634909763726"><ele>-3.666666666666667</ele><time>2026-05-03T07:49:56Z</time></trkpt><trkpt lat="41.7314081377473" lon="19.656251647347265"><ele>-2.3333333333333335</ele><time>2026-05-03T07:49:57Z</time></trkpt><trkpt lat="41.73156463011305" lon="19.656151833572306"><ele>-1.0</ele><time>2026-05-03T07:49:58Z</time></trkpt><trkpt lat="41.73172148568717" lon="19.656050911832242"><ele>-0.6666666666666666</ele><time>2026-05-03T07:49:59Z</time></trkpt><trkpt lat="41.73187710571091" lon="19.655955196494723"><ele>-0.3333333333333333</ele><time>2026-05-03T07:50:00Z</time></trkpt><trkpt lat="41.732030228959715" lon="19.65586970621183"><ele>0.0</ele><time>2026-05-03T07:50:01Z</time></trkpt><trkpt lat="41.7321761679286" lon="19.65577968211396"><ele>0.3333333333333333</ele><time>2026-05-03T07:50:02Z</time></trkpt><trkpt lat="41.732320487225046" lon="19.655689630689483"><ele>0.6666666666666666</ele><time>2026-05-03T07:50:03Z</time></trkpt><trkpt lat="41.732469229920795" lon="19.655598616989973"><ele>1.0</ele><time>2026-05-03T07:50:04Z</time></trkpt><trkpt lat="41.73261955106875" lon="19.65550629352282"><ele>0.3333333333333333</ele><time>2026-05-03T07:50:05Z</time></trkpt><trkpt lat="41.732770644309035" lon="19.65541253858186"><ele>-0.3333333333333333</ele><time>2026-05-03T07:50:06Z</time></trkpt><trkpt lat="41.73292563824545" lon="19.65531260689168"><ele>-1.0</ele><time>2026-05-03T07:50:07Z</time></trkpt><trkpt lat="41.73308167109515" lon="19.655208888098926"><ele>-1.0</ele><time>2026-05-03T07:50:08Z</time></trkpt><trkpt lat="41.73324092374626" lon="19.655107896295704"><ele>-1.0</ele><time>2026-05-03T07:50:09Z</time></trkpt><trkpt lat="41.733412209418724" lon="19.65499659687362"><ele>-1.0</ele><time>2026-05-03T07:50:10Z</time></trkpt><trkpt lat="41.733590874859246" lon="19.654882088108145"><ele>-1.6666666666666665</ele><time>2026-05-03T07:50:11Z</time></trkpt><trkpt lat="41.73377398187181" lon="19.654771863343615"><ele>-2.3333333333333335</ele><time>2026-05-03T07:50:12Z</time></trkpt><trkpt lat="41.73395558830202" lon="19.65467110276234"><ele>-3.0</ele><time>2026-05-03T07:50:13Z</time></trkpt><trkpt lat="41.73413327067018" lon="19.654565201183487"><ele>-3.0</ele><time>2026-05-03T07:50:14Z</time></trkpt><trkpt lat="41.7343044856523" lon="19.65445476132649"><ele>-3.0</ele><time>2026-05-03T07:50:15Z</time></trkpt><trkpt lat="41.73447428911801" lon="19.654346307231908"><ele>-3.0</ele><time>2026-05-03T07:50:16Z</time></trkpt><trkpt lat="41.73464211687237" lon="19.65423668307619"><ele>-3.0</ele><time>2026-05-03T07:50:17Z</time></trkpt><trkpt lat="41.73481215963478" lon="19.654132774474533"><ele>-3.0</ele><time>2026-05-03T07:50:18Z</time></trkpt><trkpt lat="41.734981232351394" lon="19.654030063282764"><ele>-3.0</ele><time>2026-05-03T07:50:19Z</time></trkpt><trkpt lat="41.73514911045209" lon="19.65392356077167"><ele>-2.6666666666666665</ele><time>2026-05-03T07:50:20Z</time></trkpt><trkpt lat="41.73531228924522" lon="19.653818722700297"><ele>-2.333333333333333</ele><time>2026-05-03T07:50:21Z</time></trkpt><trkpt lat="41.735471871818454" lon="19.653720502929822"><ele>-2.0</ele><time>2026-05-03T07:50:22Z</time></trkpt><trkpt lat="41.73563111861561" lon="19.65362649782173"><ele>-1.6666666666666665</ele><time>2026-05-03T07:50:23Z</time></trkpt><trkpt lat="41.73579225219078" lon="19.653526103116988"><ele>-1.3333333333333333</ele><time>2026-05-03T07:50:24Z</time></trkpt><trkpt lat="41.735954060802996" lon="19.65342221926355"><ele>-1.0</ele><time>2026-05-03T07:50:25Z</time></trkpt><trkpt lat="41.736115647625226" lon="19.65331776197984"><ele>0.6666666666666666</ele><time>2026-05-03T07:50:26Z</time></trkpt><trkpt lat="41.736273542168774" lon="19.653217464165852"><ele>2.333333333333333</ele><time>2026-05-03T07:50:27Z</time></trkpt><trkpt lat="41.73642581485073" lon="19.6531207642286"><ele>4.0</ele><time>2026-05-03T07:50:28Z</time></trkpt><trkpt lat="41.73658389634388" lon="19.65301643635082"><ele>4.0</ele><time>2026-05-03T07:50:29Z</time></trkpt><trkpt lat="41.73675984671017" lon="19.652902719557733"><ele>4.0</ele><time>2026-05-03T07:50:30Z</time></trkpt><trkpt lat="41.73694284910234" lon="19.652792776317522"><ele>4.0</ele><time>2026-05-03T07:50:31Z</time></trkpt><trkpt lat="41.73712781631234" lon="19.652685127675095"><ele>3.6666666666666665</ele><time>2026-05-03T07:50:32Z</time></trkpt><trkpt lat="41.737305432117395" lon="19.652573824387275"><ele>3.333333333333333</ele><time>2026-05-03T07:50:33Z</time></trkpt><trkpt lat="41.737479797715686" lon="19.652457766432867"><ele>3.0</ele><time>2026-05-03T07:50:34Z</time></trkpt><trkpt lat="41.73766944299523" lon="19.652330494290805"><ele>2.0</ele><time>2026-05-03T07:50:35Z</time></trkpt><trkpt lat="41.73787001721489" lon="19.65220607801817"><ele>1.0</ele><time>2026-05-03T07:50:36Z</time></trkpt><trkpt lat="41.73807371147242" lon="19.65209059564694"><ele>0.0</ele><time>2026-05-03T07:50:37Z</time></trkpt><trkpt lat="41.738277540958045" lon="19.651973105128306"><ele>0.0</ele><time>2026-05-03T07:50:38Z</time></trkpt><trkpt lat="41.738478805804284" lon="19.651847639804945"><ele>0.0</ele><time>2026-05-03T07:50:39Z</time></trkpt><trkpt lat="41.73867349865006" lon="19.651720541780332"><ele>0.0</ele><time>2026-05-03T07:50:40Z</time></trkpt><trkpt lat="41.738864214446245" lon="19.651601635607218"><ele>0.3333333333333333</ele><time>2026-05-03T07:50:41Z</time></trkpt><trkpt lat="41.73905342043255" lon="19.65148699721758"><ele>0.6666666666666666</ele><time>2026-05-03T07:50:42Z</time></trkpt><trkpt lat="41.739236521040645" lon="19.651376061811963"><ele>1.0</ele><time>2026-05-03T07:50:43Z</time></trkpt><trkpt lat="41.7394118996667" lon="19.651264948000254"><ele>1.0</ele><time>2026-05-03T07:50:44Z</time></trkpt><trkpt lat="41.73958028117121" lon="19.651153342412208"><ele>1.0</ele><time>2026-05-03T07:50:45Z</time></trkpt><trkpt lat="41.73974272929515" lon="19.651043835305135"><ele>1.0</ele><time>2026-05-03T07:50:46Z</time></trkpt><trkpt lat="41.739893396791494" lon="19.6509451761866"><ele>0.6666666666666666</ele><time>2026-05-03T07:50:47Z</time></trkpt><trkpt lat="41.74004297855224" lon="19.650855370918684"><ele>0.3333333333333333</ele><time>2026-05-03T07:50:48Z</time></trkpt><trkpt lat="41.74019084489599" lon="19.650770433957828"><ele>0.0</ele><time>2026-05-03T07:50:49Z</time></trkpt><trkpt lat="41.74033156804371" lon="19.65068974546419"><ele>-1.3333333333333333</ele><time>2026-05-03T07:50:50Z</time></trkpt><trkpt lat="41.74046924380504" lon="19.650606696381402"><ele>-2.6666666666666665</ele><time>2026-05-03T07:50:51Z</time></trkpt><trkpt lat="41.7406070642763" lon="19.650517858922807"><ele>-4.0</ele><time>2026-05-03T07:50:52Z</time></trkpt><trkpt lat="41.740749899398594" lon="19.650424560778355"><ele>-4.0</ele><time>2026-05-03T07:50:53Z</time></trkpt><trkpt lat="41.74090024127722" lon="19.650331474865315"><ele>-4.0</ele><time>2026-05-03T07:50:54Z</time></trkpt><trkpt lat="41.741054530717" lon="19.65023729818739"><ele>-4.0</ele><time>2026-05-03T07:50:55Z</time></trkpt><trkpt lat="41.74121325952452" lon="19.650135470340636"><ele>-3.0</ele><time>2026-05-03T07:50:56Z</time></trkpt><trkpt lat="41.74136324800376" lon="19.650040329831533"><ele>-2.0</ele><time>2026-05-03T07:50:57Z</time></trkpt><trkpt lat="41.741506382098954" lon="19.649950390272657"><ele>-1.0</ele><time>2026-05-03T07:50:58Z</time></trkpt><trkpt lat="41.74165146438798" lon="19.649860508332416"><ele>-1.0</ele><time>2026-05-03T07:50:59Z</time></trkpt><trkpt lat="41.74180326682372" lon="19.64976906381306"><ele>-1.0</ele><time>2026-05-03T07:51:00Z</time></trkpt><trkpt lat="41.74196610131962" lon="19.64966367474015"><ele>-1.0</ele><time>2026-05-03T07:51:01Z</time></trkpt><trkpt lat="41.742153181098416" lon="19.649534147449906"><ele>-2.0</ele><time>2026-05-03T07:51:02Z</time></trkpt><trkpt lat="41.742358563828624" lon="19.649401911780725"><ele>-3.0</ele><time>2026-05-03T07:51:03Z</time></trkpt><trkpt lat="41.74258063967949" lon="19.649275991939767"><ele>-2.0</ele><time>2026-05-03T07:51:04Z</time></trkpt><trkpt lat="41.74280256618952" lon="19.649156498553495"><ele>-1.0</ele><time>2026-05-03T07:51:04.999Z</time></trkpt><trkpt lat="41.74302899636475" lon="19.649019263675402"><ele>-1.0</ele><time>2026-05-03T07:51:05.999Z</time></trkpt><trkpt lat="41.743256635986945" lon="19.64887833539804"><ele>-1.0</ele><time>2026-05-03T07:51:06.999Z</time></trkpt><trkpt lat="41.74348459339819" lon="19.648732983330127"><ele>0.5</ele><time>2026-05-03T07:51:07.999Z</time></trkpt><trkpt lat="41.7437136414223" lon="19.648585540580218"><ele>2.0</ele><time>2026-05-03T07:51:08.999Z</time></trkpt><trkpt lat="41.74393933541374" lon="19.648443358743325"><ele>2.0</ele><time>2026-05-03T07:51:09.999Z</time></trkpt><trkpt lat="41.7441643246547" lon="19.64830129133549"><ele>2.0</ele><time>2026-05-03T07:51:10.999Z</time></trkpt><trkpt lat="41.74438635607721" lon="19.648159730021398"><ele>1.0</ele><time>2026-05-03T07:51:11.999Z</time></trkpt><trkpt lat="41.74460465150898" lon="19.648025340909744"><ele>0.0</ele><time>2026-05-03T07:51:12.999Z</time></trkpt><trkpt lat="41.74482116551694" lon="19.64789336539474"><ele>0.0</ele><time>2026-05-03T07:51:13.999Z</time></trkpt><trkpt lat="41.74503309141303" lon="19.647762927896583"><ele>0.0</ele><time>2026-05-03T07:51:14.999Z</time></trkpt><trkpt lat="41.74523615576616" lon="19.647630919231354"><ele>0.0</ele><time>2026-05-03T07:51:15.999Z</time></trkpt><trkpt lat="41.74543422491584" lon="19.647502240683327"><ele>0.0</ele><time>2026-05-03T07:51:16.999Z</time></trkpt><trkpt lat="41.74562608658003" lon="19.64737833020012"><ele>0.0</ele><time>2026-05-03T07:51:17.999Z</time></trkpt><trkpt lat="41.74581878700064" lon="19.64725752840034"><ele>0.0</ele><time>2026-05-03T07:51:18.999Z</time></trkpt><trkpt lat="41.74600558635801" lon="19.64714646344298"><ele>0.0</ele><time>2026-05-03T07:51:20Z</time></trkpt><trkpt lat="41.746196803005056" lon="19.647030975537"><ele>0.0</ele><time>2026-05-03T07:51:21Z</time></trkpt><trkpt lat="41.74639189737466" lon="19.64690691564419"><ele>0.0</ele><time>2026-05-03T07:51:22Z</time></trkpt><trkpt lat="41.746595184654886" lon="19.646784174445397"><ele>0.0</ele><time>2026-05-03T07:51:23Z</time></trkpt><trkpt lat="41.74680098632031" lon="19.646662441353545"><ele>0.0</ele><time>2026-05-03T07:51:24Z</time></trkpt><trkpt lat="41.74700704858895" lon="19.64653520917582"><ele>-0.3333333333333333</ele><time>2026-05-03T07:51:25Z</time></trkpt><trkpt lat="41.74721154705014" lon="19.646404580691588"><ele>-0.6666666666666666</ele><time>2026-05-03T07:51:26Z</time></trkpt><trkpt lat="41.7474045846857" lon="19.646279318450265"><ele>-1.0</ele><time>2026-05-03T07:51:27Z</time></trkpt><trkpt lat="41.74759291712573" lon="19.646156866508296"><ele>-2.0</ele><time>2026-05-03T07:51:28Z</time></trkpt><trkpt lat="41.7477920579422" lon="19.646035671834785"><ele>-3.0</ele><time>2026-05-03T07:51:29Z</time></trkpt><trkpt lat="41.74799525700106" lon="19.645907109552898"><ele>-4.0</ele><time>2026-05-03T07:51:30Z</time></trkpt><trkpt lat="41.74820070681064" lon="19.645777502723977"><ele>-4.0</ele><time>2026-05-03T07:51:31Z</time></trkpt><trkpt lat="41.748409878181114" lon="19.64565317445815"><ele>-4.0</ele><time>2026-05-03T07:51:32Z</time></trkpt><trkpt lat="41.748620473816445" lon="19.645523524444627"><ele>-5.5</ele><time>2026-05-03T07:51:33Z</time></trkpt><trkpt lat="41.74882989276529" lon="19.645387337685055"><ele>-7.0</ele><time>2026-05-03T07:51:34Z</time></trkpt><trkpt lat="41.74904320900621" lon="19.645253615644524"><ele>-4.5</ele><time>2026-05-03T07:51:35Z</time></trkpt><trkpt lat="41.74925954206129" lon="19.645124881391528"><ele>-2.0</ele><time>2026-05-03T07:51:36Z</time></trkpt><trkpt lat="41.749477164757906" lon="19.644991933221547"><ele>-2.0</ele><time>2026-05-03T07:51:37Z</time></trkpt><trkpt lat="41.74969618118216" lon="19.64485778487479"><ele>-2.0</ele><time>2026-05-03T07:51:38Z</time></trkpt><trkpt lat="41.749917792070676" lon="19.644722748419227"><ele>-2.0</ele><time>2026-05-03T07:51:39Z</time></trkpt><trkpt lat="41.7501370938345" lon="19.644583733446073"><ele>-2.0</ele><time>2026-05-03T07:51:40Z</time></trkpt><trkpt lat="41.75035684378309" lon="19.64444470402916"><ele>-1.0</ele><time>2026-05-03T07:51:41Z</time></trkpt><trkpt lat="41.75057743698157" lon="19.64430685926837"><ele>0.0</ele><time>2026-05-03T07:51:42Z</time></trkpt><trkpt lat="41.75079541672144" lon="19.644168594890814"><ele>0.0</ele><time>2026-05-03T07:51:43Z</time></trkpt><trkpt lat="41.751013122419195" lon="19.64402846736221"><ele>0.0</ele><time>2026-05-03T07:51:44Z</time></trkpt><trkpt lat="41.7512302268361" lon="19.643890052210867"><ele>0.5</ele><time>2026-05-03T07:51:45Z</time></trkpt><trkpt lat="41.75144682089888" lon="19.643750730640832"><ele>1.0</ele><time>2026-05-03T07:51:46Z</time></trkpt><trkpt lat="41.751658887356804" lon="19.64362332251551"><ele>1.0</ele><time>2026-05-03T07:51:47Z</time></trkpt><trkpt lat="41.75186675985133" lon="19.643501136715965"><ele>1.0</ele><time>2026-05-03T07:51:48Z</time></trkpt><trkpt lat="41.75208098066067" lon="19.643372353637076"><ele>-0.5</ele><time>2026-05-03T07:51:49Z</time></trkpt><trkpt lat="41.75229858915301" lon="19.6432432203427"><ele>-2.0</ele><time>2026-05-03T07:51:50Z</time></trkpt><trkpt lat="41.7525174794113" lon="19.64311470921509"><ele>-1.0</ele><time>2026-05-03T07:51:51Z</time></trkpt><trkpt lat="41.75273041214797" lon="19.642985855205378"><ele>0.0</ele><time>2026-05-03T07:51:52Z</time></trkpt><trkpt lat="41.75294433573151" lon="19.64285866016109"><ele>-1.0</ele><time>2026-05-03T07:51:53Z</time></trkpt><trkpt lat="41.75305615594695" lon="19.642750436993822"><ele>-2.0</ele><time>2026-05-03T07:51:54Z</time></trkpt><trkpt lat="41.75324089214506" lon="19.64263756294226"><ele>-3.0</ele><time>2026-05-03T07:51:55Z</time></trkpt><trkpt lat="41.75342559312301" lon="19.64252301950359"><ele>-2.3333333333333335</ele><time>2026-05-03T07:51:56Z</time></trkpt><trkpt lat="41.75360600781856" lon="19.642403608364095"><ele>-1.6666666666666665</ele><time>2026-05-03T07:51:57Z</time></trkpt><trkpt lat="41.75378594661511" lon="19.64227673412176"><ele>-1.0</ele><time>2026-05-03T07:51:58Z</time></trkpt><trkpt lat="41.753962056787636" lon="19.64215225105114"><ele>-1.0</ele><time>2026-05-03T07:51:59Z</time></trkpt><trkpt lat="41.75414000612804" lon="19.642027777619532"><ele>-1.0</ele><time>2026-05-03T07:52:00Z</time></trkpt><trkpt lat="41.75431678659344" lon="19.641901098508438"><ele>-1.0</ele><time>2026-05-03T07:52:01Z</time></trkpt><trkpt lat="41.75449080039253" lon="19.64177004357046"><ele>-1.6666666666666665</ele><time>2026-05-03T07:52:02Z</time></trkpt><trkpt lat="41.75466543819845" lon="19.641644158475323"><ele>-2.3333333333333335</ele><time>2026-05-03T07:52:03Z</time></trkpt><trkpt lat="41.75484234521146" lon="19.641517581209133"><ele>-3.0</ele><time>2026-05-03T07:52:04Z</time></trkpt><trkpt lat="41.755014662647895" lon="19.641390153213568"><ele>-3.0</ele><time>2026-05-03T07:52:04.999Z</time></trkpt><trkpt lat="41.7551911577249" lon="19.641263519979614"><ele>-3.0</ele><time>2026-05-03T07:52:05.999Z</time></trkpt><trkpt lat="41.75536884878923" lon="19.64113471646584"><ele>-3.0</ele><time>2026-05-03T07:52:06.999Z</time></trkpt><trkpt lat="41.7555470006276" lon="19.641009913183417"><ele>-2.3333333333333335</ele><time>2026-05-03T07:52:07.999Z</time></trkpt><trkpt lat="41.755727800439175" lon="19.6408841281545"><ele>-1.6666666666666665</ele><time>2026-05-03T07:52:08.999Z</time></trkpt><trkpt lat="41.75591131596088" lon="19.640751709400092"><ele>-1.0</ele><time>2026-05-03T07:52:09.999Z</time></trkpt><trkpt lat="41.7560956253369" lon="19.640614800055953"><ele>-1.0</ele><time>2026-05-03T07:52:10.999Z</time></trkpt><trkpt lat="41.75628112583759" lon="19.64048146503717"><ele>-1.0</ele><time>2026-05-03T07:52:11.999Z</time></trkpt><trkpt lat="41.75646865668017" lon="19.640349328448025"><ele>-1.0</ele><time>2026-05-03T07:52:12.999Z</time></trkpt><trkpt lat="41.75665671601186" lon="19.640221501521225"><ele>-1.0</ele><time>2026-05-03T07:52:13.999Z</time></trkpt><trkpt lat="41.75684499360633" lon="19.640091540092968"><ele>-1.0</ele><time>2026-05-03T07:52:14.999Z</time></trkpt><trkpt lat="41.75703381306321" lon="19.63995364311613"><ele>-1.0</ele><time>2026-05-03T07:52:15.999Z</time></trkpt><trkpt lat="41.7572209043568" lon="19.639808135353725"><ele>-1.0</ele><time>2026-05-03T07:52:16.999Z</time></trkpt><trkpt lat="41.75740435196509" lon="19.639671739753272"><ele>-1.0</ele><time>2026-05-03T07:52:17.999Z</time></trkpt><trkpt lat="41.75758152097048" lon="19.63953866050022"><ele>-1.0</ele><time>2026-05-03T07:52:18.999Z</time></trkpt><trkpt lat="41.757751301660264" lon="19.639405849142616"><ele>-1.0</ele><time>2026-05-03T07:52:19.999Z</time></trkpt><trkpt lat="41.75792517206567" lon="19.639280542434722"><ele>-1.0</ele><time>2026-05-03T07:52:20.999Z</time></trkpt><trkpt lat="41.75810112594845" lon="19.63915216878078"><ele>-1.0</ele><time>2026-05-03T07:52:21.999Z</time></trkpt><trkpt lat="41.758281621083995" lon="19.639015052748213"><ele>-1.0</ele><time>2026-05-03T07:52:22.999Z</time></trkpt><trkpt lat="41.758470453253146" lon="19.638877489077604"><ele>-1.0</ele><time>2026-05-03T07:52:23.999Z</time></trkpt><trkpt lat="41.758662501754124" lon="19.638737771881967"><ele>-1.0</ele><time>2026-05-03T07:52:24.999Z</time></trkpt><trkpt lat="41.758857611246654" lon="19.638602038949053"><ele>-0.6666666666666666</ele><time>2026-05-03T07:52:25.999Z</time></trkpt><trkpt lat="41.759056954882176" lon="19.63846740528039"><ele>-0.3333333333333333</ele><time>2026-05-03T07:52:26.999Z</time></trkpt><trkpt lat="41.75925429072544" lon="19.638336404779967"><ele>0.0</ele><time>2026-05-03T07:52:27.999Z</time></trkpt><trkpt lat="41.75944702657385" lon="19.638201908743632"><ele>0.0</ele><time>2026-05-03T07:52:28.999Z</time></trkpt><trkpt lat="41.759634142105625" lon="19.638066695018164"><ele>0.0</ele><time>2026-05-03T07:52:29.999Z</time></trkpt><trkpt lat="41.75981199318559" lon="19.637941375558864"><ele>0.0</ele><time>2026-05-03T07:52:30.999Z</time></trkpt><trkpt lat="41.75997955239508" lon="19.637822046591936"><ele>-0.3333333333333333</ele><time>2026-05-03T07:52:31.999Z</time></trkpt><trkpt lat="41.76014997335846" lon="19.637698498106783"><ele>-0.6666666666666666</ele><time>2026-05-03T07:52:32.999Z</time></trkpt><trkpt lat="41.76032424092241" lon="19.637579459355415"><ele>-1.0</ele><time>2026-05-03T07:52:33.999Z</time></trkpt><trkpt lat="41.76050145286457" lon="19.637468027176606"><ele>-1.0</ele><time>2026-05-03T07:52:34.999Z</time></trkpt><trkpt lat="41.76067679237397" lon="19.637359115386637"><ele>-1.0</ele><time>2026-05-03T07:52:35.999Z</time></trkpt><trkpt lat="41.76084442605262" lon="19.637254268912855"><ele>-1.0</ele><time>2026-05-03T07:52:36.999Z</time></trkpt><trkpt lat="41.76100730656951" lon="19.63714762180808"><ele>-1.3333333333333333</ele><time>2026-05-03T07:52:37.999Z</time></trkpt><trkpt lat="41.76116870067136" lon="19.637043052679473"><ele>-1.6666666666666665</ele><time>2026-05-03T07:52:38.999Z</time></trkpt><trkpt lat="41.76132845302621" lon="19.636937182409746"><ele>-2.0</ele><time>2026-05-03T07:52:39.999Z</time></trkpt><trkpt lat="41.76148702845479" lon="19.636828939176212"><ele>-2.0</ele><time>2026-05-03T07:52:40.999Z</time></trkpt><trkpt lat="41.76164495474074" lon="19.63672121914563"><ele>-2.0</ele><time>2026-05-03T07:52:41.999Z</time></trkpt><trkpt lat="41.761800273597586" lon="19.6366175418091"><ele>-2.0</ele><time>2026-05-03T07:52:42.999Z</time></trkpt><trkpt lat="41.76194720235209" lon="19.63651983949519"><ele>-1.6666666666666665</ele><time>2026-05-03T07:52:43.999Z</time></trkpt><trkpt lat="41.76209337099844" lon="19.636424991349642"><ele>-1.3333333333333333</ele><time>2026-05-03T07:52:44.999Z</time></trkpt><trkpt lat="41.76223307908783" lon="19.636340829875763"><ele>-1.0</ele><time>2026-05-03T07:52:45.999Z</time></trkpt><trkpt lat="41.76235999084937" lon="19.636265967303512"><ele>-1.0</ele><time>2026-05-03T07:52:46.999Z</time></trkpt><trkpt lat="41.76246693888366" lon="19.636199163662646"><ele>-1.0</ele><time>2026-05-03T07:52:47.999Z</time></trkpt><trkpt lat="41.762569396392614" lon="19.636130327304834"><ele>-1.0</ele><time>2026-05-03T07:52:48.999Z</time></trkpt><trkpt lat="41.76267570611024" lon="19.636054620199296"><ele>-1.0</ele><time>2026-05-03T07:52:49.999Z</time></trkpt><trkpt lat="41.76279289160826" lon="19.63597093350104"><ele>-1.0</ele><time>2026-05-03T07:52:50.999Z</time></trkpt><trkpt lat="41.762932881816404" lon="19.635870565063307"><ele>-1.0</ele><time>2026-05-03T07:52:51.999Z</time></trkpt><trkpt lat="41.76306836079468" lon="19.635782004884973"><ele>-1.0</ele><time>2026-05-03T07:52:52.999Z</time></trkpt><trkpt lat="41.76317629967824" lon="19.635722590887422"><ele>-1.0</ele><time>2026-05-03T07:52:53.999Z</time></trkpt><trkpt lat="41.76326461904469" lon="19.63566936816942"><ele>-1.0</ele><time>2026-05-03T07:52:54.999Z</time></trkpt><trkpt lat="41.76334600273836" lon="19.63562326093604"><ele>-1.0</ele><time>2026-05-03T07:52:55.999Z</time></trkpt><trkpt lat="41.76342833156482" lon="19.63557617336694"><ele>-1.0</ele><time>2026-05-03T07:52:56.999Z</time></trkpt><trkpt lat="41.76352239210484" lon="19.63551057537965"><ele>-1.0</ele><time>2026-05-03T07:52:57.999Z</time></trkpt><trkpt lat="41.7636199943545" lon="19.63543448070242"><ele>-1.0</ele><time>2026-05-03T07:52:58.999Z</time></trkpt><trkpt lat="41.763724176345235" lon="19.635358096168083"><ele>-1.6</ele><time>2026-05-03T07:52:59.999Z</time></trkpt><trkpt lat="41.76382429129101" lon="19.635293874565704"><ele>-2.2</ele><time>2026-05-03T07:53:00.999Z</time></trkpt><trkpt lat="41.76392113026612" lon="19.635233839078687"><ele>-2.8000000000000003</ele><time>2026-05-03T07:53:01.999Z</time></trkpt><trkpt lat="41.76401749503815" lon="19.63517135186148"><ele>-3.4000000000000004</ele><time>2026-05-03T07:53:02.999Z</time></trkpt><trkpt lat="41.76411829967212" lon="19.635103664124134"><ele>-4.0</ele><time>2026-05-03T07:53:03.999Z</time></trkpt><trkpt lat="41.7642321100455" lon="19.635025684084905"><ele>-4.0</ele><time>2026-05-03T07:53:04.999Z</time></trkpt><trkpt lat="41.764362755355094" lon="19.634939792789424"><ele>-4.0</ele><time>2026-05-03T07:53:05.999Z</time></trkpt><trkpt lat="41.764505412720744" lon="19.63485073415974"><ele>-4.0</ele><time>2026-05-03T07:53:06.999Z</time></trkpt><trkpt lat="41.76465456435909" lon="19.634755616290146"><ele>-3.0</ele><time>2026-05-03T07:53:07.999Z</time></trkpt><trkpt lat="41.7648122096176" lon="19.634651761189726"><ele>-2.0</ele><time>2026-05-03T07:53:08.999Z</time></trkpt><trkpt lat="41.76498561072749" lon="19.634538600671462"><ele>-1.0</ele><time>2026-05-03T07:53:09.999Z</time></trkpt><trkpt lat="41.76515513023937" lon="19.63443093058281"><ele>-0.6666666666666666</ele><time>2026-05-03T07:53:10.999Z</time></trkpt><trkpt lat="41.76533775415812" lon="19.634314378873153"><ele>-0.3333333333333333</ele><time>2026-05-03T07:53:11.999Z</time></trkpt><trkpt lat="41.765522445087804" lon="19.634196501815243"><ele>0.0</ele><time>2026-05-03T07:53:12.999Z</time></trkpt><trkpt lat="41.76570947152049" lon="19.6340770749069"><ele>0.0</ele><time>2026-05-03T07:53:13.999Z</time></trkpt><trkpt lat="41.7659005222301" lon="19.633949862442144"><ele>0.0</ele><time>2026-05-03T07:53:14.999Z</time></trkpt><trkpt lat="41.766090327324434" lon="19.633823898004362"><ele>0.0</ele><time>2026-05-03T07:53:15.999Z</time></trkpt><trkpt lat="41.76628118528093" lon="19.633701985730738"><ele>-0.3333333333333333</ele><time>2026-05-03T07:53:16.999Z</time></trkpt><trkpt lat="41.76647099273151" lon="19.633586358651193"><ele>-0.6666666666666666</ele><time>2026-05-03T07:53:17.999Z</time></trkpt><trkpt lat="41.766652518915976" lon="19.633471084917844"><ele>-1.0</ele><time>2026-05-03T07:53:18.999Z</time></trkpt><trkpt lat="41.766830252300124" lon="19.63335501324388"><ele>-0.6666666666666666</ele><time>2026-05-03T07:53:19.999Z</time></trkpt><trkpt lat="41.767005961099265" lon="19.633239287026928"><ele>-0.3333333333333333</ele><time>2026-05-03T07:53:20.999Z</time></trkpt><trkpt lat="41.7671803488244" lon="19.633123194090043"><ele>0.0</ele><time>2026-05-03T07:53:21.999Z</time></trkpt><trkpt lat="41.767357686275744" lon="19.633007110825442"><ele>0.0</ele><time>2026-05-03T07:53:22.999Z</time></trkpt><trkpt lat="41.76753754573458" lon="19.63289526530971"><ele>0.0</ele><time>2026-05-03T07:53:23.999Z</time></trkpt><trkpt lat="41.76771970826319" lon="19.632785971651774"><ele>0.0</ele><time>2026-05-03T07:53:24.999Z</time></trkpt><trkpt lat="41.76790248079942" lon="19.632677097015396"><ele>0.0</ele><time>2026-05-03T07:53:26Z</time></trkpt><trkpt lat="41.768088799937836" lon="19.632566264572553"><ele>0.0</ele><time>2026-05-03T07:53:27Z</time></trkpt><trkpt lat="41.76827589951063" lon="19.63246012436951"><ele>0.0</ele><time>2026-05-03T07:53:28Z</time></trkpt><trkpt lat="41.76846430828475" lon="19.632354157329903"><ele>0.0</ele><time>2026-05-03T07:53:29Z</time></trkpt><trkpt lat="41.76864580271217" lon="19.632240620763447"><ele>0.0</ele><time>2026-05-03T07:53:30Z</time></trkpt><trkpt lat="41.768819690194064" lon="19.632126569003233"><ele>0.0</ele><time>2026-05-03T07:53:31Z</time></trkpt><trkpt lat="41.76898966197473" lon="19.632020502087588"><ele>0.0</ele><time>2026-05-03T07:53:32Z</time></trkpt><trkpt lat="41.76915929979194" lon="19.631921067505342"><ele>0.0</ele><time>2026-05-03T07:53:33Z</time></trkpt><trkpt lat="41.76932883767755" lon="19.63181998528878"><ele>0.0</ele><time>2026-05-03T07:53:34Z</time></trkpt><trkpt lat="41.769497768219686" lon="19.631718247709895"><ele>0.0</ele><time>2026-05-03T07:53:35Z</time></trkpt><trkpt lat="41.76966421698015" lon="19.631612086676423"><ele>0.0</ele><time>2026-05-03T07:53:36Z</time></trkpt><trkpt lat="41.76982911278478" lon="19.63150043820942"><ele>0.0</ele><time>2026-05-03T07:53:37Z</time></trkpt><trkpt lat="41.76998568603239" lon="19.63138715248319"><ele>0.0</ele><time>2026-05-03T07:53:38Z</time></trkpt><trkpt lat="41.770142321558964" lon="19.631275310510663"><ele>0.0</ele><time>2026-05-03T07:53:39Z</time></trkpt><trkpt lat="41.77029580076304" lon="19.631157076769917"><ele>0.0</ele><time>2026-05-03T07:53:40Z</time></trkpt><trkpt lat="41.7704443524538" lon="19.63103601886252"><ele>0.6666666666666666</ele><time>2026-05-03T07:53:41Z</time></trkpt><trkpt lat="41.770590867131894" lon="19.630919934706924"><ele>1.3333333333333333</ele><time>2026-05-03T07:53:42Z</time></trkpt><trkpt lat="41.770728949908005" lon="19.63081596513201"><ele>2.0</ele><time>2026-05-03T07:53:43Z</time></trkpt><trkpt lat="41.77086326453841" lon="19.630718098433636"><ele>2.0</ele><time>2026-05-03T07:53:44Z</time></trkpt><trkpt lat="41.77099879156016" lon="19.630618480717843"><ele>2.0</ele><time>2026-05-03T07:53:45Z</time></trkpt><trkpt lat="41.7711426619041" lon="19.630511491029875"><ele>2.0</ele><time>2026-05-03T07:53:46Z</time></trkpt><trkpt lat="41.77128686996984" lon="19.630410621911977"><ele>1.0</ele><time>2026-05-03T07:53:47Z</time></trkpt><trkpt lat="41.77143601840301" lon="19.630306387889302"><ele>0.0</ele><time>2026-05-03T07:53:48Z</time></trkpt><trkpt lat="41.77159789205797" lon="19.630185197843147"><ele>-1.0</ele><time>2026-05-03T07:53:49Z</time></trkpt><trkpt lat="41.77176951125006" lon="19.63006025439537"><ele>-1.0</ele><time>2026-05-03T07:53:50Z</time></trkpt><trkpt lat="41.771944639137615" lon="19.629947797887247"><ele>-1.0</ele><time>2026-05-03T07:53:51Z</time></trkpt><trkpt lat="41.77211910510998" lon="19.629839286737244"><ele>-1.0</ele><time>2026-05-03T07:53:52Z</time></trkpt><trkpt lat="41.7722822914877" lon="19.629734577571014"><ele>-1.0</ele><time>2026-05-03T07:53:53Z</time></trkpt><trkpt lat="41.772429067980006" lon="19.629634051276433"><ele>-1.0</ele><time>2026-05-03T07:53:54Z</time></trkpt><trkpt lat="41.77255948173957" lon="19.629543898771264"><ele>-1.0</ele><time>2026-05-03T07:53:55Z</time></trkpt><trkpt lat="41.772679587780075" lon="19.62946051045634"><ele>-1.0</ele><time>2026-05-03T07:53:56Z</time></trkpt><trkpt lat="41.772790299081215" lon="19.62938154659777"><ele>-0.25</ele><time>2026-05-03T07:53:57Z</time></trkpt><trkpt lat="41.772898622376644" lon="19.62930545893853"><ele>0.5</ele><time>2026-05-03T07:53:58Z</time></trkpt><trkpt lat="41.77300367657588" lon="19.62923277194"><ele>1.25</ele><time>2026-05-03T07:53:59Z</time></trkpt><trkpt lat="41.77310593675675" lon="19.629165584448025"><ele>2.0</ele><time>2026-05-03T07:54:00Z</time></trkpt><trkpt lat="41.77320555312933" lon="19.62910052950717"><ele>2.0</ele><time>2026-05-03T07:54:01Z</time></trkpt><trkpt lat="41.77330001678941" lon="19.629033721566465"><ele>2.0</ele><time>2026-05-03T07:54:02Z</time></trkpt><trkpt lat="41.77339888269799" lon="19.628965405276656"><ele>2.0</ele><time>2026-05-03T07:54:03Z</time></trkpt><trkpt lat="41.77350885789876" lon="19.628892467943995"><ele>2.0</ele><time>2026-05-03T07:54:04Z</time></trkpt><trkpt lat="41.77362334610375" lon="19.62882266082099"><ele>2.0</ele><time>2026-05-03T07:54:05Z</time></trkpt><trkpt lat="41.773739254268136" lon="19.62875309534739"><ele>2.0</ele><time>2026-05-03T07:54:06Z</time></trkpt><trkpt lat="41.77385501863087" lon="19.62867972932071"><ele>2.0</ele><time>2026-05-03T07:54:07Z</time></trkpt><trkpt lat="41.77397717417385" lon="19.628612545944186"><ele>2.0</ele><time>2026-05-03T07:54:08Z</time></trkpt><trkpt lat="41.774092503222185" lon="19.62856214699603"><ele>1.9999999999999998</ele><time>2026-05-03T07:54:08.999Z</time></trkpt><trkpt lat="41.77419673401763" lon="19.6285410616318"><ele>2.0</ele><time>2026-05-03T07:54:09.999Z</time></trkpt><trkpt lat="41.77429648404487" lon="19.62854055718233"><ele>2.0</ele><time>2026-05-03T07:54:10.999Z</time></trkpt><trkpt lat="41.774387132555496" lon="19.628572294758907"><ele>2.0</ele><time>2026-05-03T07:54:11.999Z</time></trkpt><trkpt lat="41.77445872921427" lon="19.628608696481475"><ele>1.9999999999999998</ele><time>2026-05-03T07:54:12.999Z</time></trkpt><trkpt lat="41.77451631767896" lon="19.628653166151327"><ele>2.0</ele><time>2026-05-03T07:54:13.999Z</time></trkpt><trkpt lat="41.774566281751824" lon="19.62871849787738"><ele>1.0</ele><time>2026-05-03T07:54:14.999Z</time></trkpt><trkpt lat="41.77461287632287" lon="19.628801824320416"><ele>2.220446049250313E-16</ele><time>2026-05-03T07:54:15.999Z</time></trkpt><trkpt lat="41.77465579229993" lon="19.628886498031452"><ele>-0.9999999999999998</ele><time>2026-05-03T07:54:16.999Z</time></trkpt><trkpt lat="41.7746999462751" lon="19.628971214644285"><ele>-2.0</ele><time>2026-05-03T07:54:17.999Z</time></trkpt><trkpt lat="41.77476074122067" lon="19.629084605098864"><ele>-3.0</ele><time>2026-05-03T07:54:18.999Z</time></trkpt><trkpt lat="41.774831934859165" lon="19.629249604758698"><ele>-3.0</ele><time>2026-05-03T07:54:19.999Z</time></trkpt><trkpt lat="41.774900646590595" lon="19.629415978216567"><ele>-3.0</ele><time>2026-05-03T07:54:20.999Z</time></trkpt><trkpt lat="41.77497173692338" lon="19.629579489905282"><ele>-3.0</ele><time>2026-05-03T07:54:21.999Z</time></trkpt><trkpt lat="41.77504967088668" lon="19.62975364603645"><ele>-3.0</ele><time>2026-05-03T07:54:22.999Z</time></trkpt><trkpt lat="41.775134582905416" lon="19.62993852199664"><ele>-2.6666666666666665</ele><time>2026-05-03T07:54:23.999Z</time></trkpt><trkpt lat="41.775220840010526" lon="19.630127213304938"><ele>-2.333333333333333</ele><time>2026-05-03T07:54:24.999Z</time></trkpt><trkpt lat="41.77529907953604" lon="19.63029882407421"><ele>-2.0</ele><time>2026-05-03T07:54:25.999Z</time></trkpt><trkpt lat="41.77537593961448" lon="19.63046882131973"><ele>-1.0</ele><time>2026-05-03T07:54:26.999Z</time></trkpt><trkpt lat="41.77546576417209" lon="19.630654287848415"><ele>0.0</ele><time>2026-05-03T07:54:27.999Z</time></trkpt><trkpt lat="41.77556273677456" lon="19.63085380769869"><ele>1.0</ele><time>2026-05-03T07:54:28.999Z</time></trkpt><trkpt lat="41.775655576277046" lon="19.63106143693777"><ele>0.75</ele><time>2026-05-03T07:54:29.999Z</time></trkpt><trkpt lat="41.775732917682184" lon="19.631244562317868"><ele>0.5</ele><time>2026-05-03T07:54:30.999Z</time></trkpt><trkpt lat="41.775804509113364" lon="19.631403066435414"><ele>0.25</ele><time>2026-05-03T07:54:31.999Z</time></trkpt><trkpt lat="41.77587188513931" lon="19.63154503193818"><ele>0.0</ele><time>2026-05-03T07:54:32.999Z</time></trkpt><trkpt lat="41.77593570632216" lon="19.631682229757853"><ele>0.0</ele><time>2026-05-03T07:54:33.999Z</time></trkpt><trkpt lat="41.77599792192266" lon="19.63181706697562"><ele>0.0</ele><time>2026-05-03T07:54:34.999Z</time></trkpt><trkpt lat="41.77606367713566" lon="19.631958495408924"><ele>0.0</ele><time>2026-05-03T07:54:35.999Z</time></trkpt><trkpt lat="41.776131037405996" lon="19.632103086264483"><ele>0.0</ele><time>2026-05-03T07:54:36.999Z</time></trkpt><trkpt lat="41.77619852895009" lon="19.63224966745676"><ele>-0.25</ele><time>2026-05-03T07:54:37.999Z</time></trkpt><trkpt lat="41.77626407018521" lon="19.632394526589763"><ele>-0.5</ele><time>2026-05-03T07:54:38.999Z</time></trkpt><trkpt lat="41.776336736131206" lon="19.632546537481232"><ele>-0.75</ele><time>2026-05-03T07:54:39.999Z</time></trkpt><trkpt lat="41.77640686360383" lon="19.632700954134393"><ele>-1.0</ele><time>2026-05-03T07:54:40.999Z</time></trkpt><trkpt lat="41.776476938722155" lon="19.63285239003562"><ele>-0.5</ele><time>2026-05-03T07:54:41.999Z</time></trkpt><trkpt lat="41.776547531281864" lon="19.63299649960317"><ele>0.0</ele><time>2026-05-03T07:54:42.999Z</time></trkpt><trkpt lat="41.776610049190424" lon="19.63313197926521"><ele>0.5</ele><time>2026-05-03T07:54:43.999Z</time></trkpt><trkpt lat="41.77666920253688" lon="19.633254408875395"><ele>1.0</ele><time>2026-05-03T07:54:44.999Z</time></trkpt><trkpt lat="41.77674124662229" lon="19.633397924959432"><ele>1.0</ele><time>2026-05-03T07:54:45.999Z</time></trkpt><trkpt lat="41.776824937631204" lon="19.633577478184456"><ele>1.0</ele><time>2026-05-03T07:54:46.999Z</time></trkpt><trkpt lat="41.77691877482785" lon="19.63378459279729"><ele>1.0</ele><time>2026-05-03T07:54:47.999Z</time></trkpt><trkpt lat="41.77699487711713" lon="19.633965063753916"><ele>1.0</ele><time>2026-05-03T07:54:48.999Z</time></trkpt><trkpt lat="41.77705360885405" lon="19.634121582217514"><ele>1.0</ele><time>2026-05-03T07:54:49.999Z</time></trkpt><trkpt lat="41.77710889980393" lon="19.634252327320556"><ele>1.0</ele><time>2026-05-03T07:54:50.999Z</time></trkpt><trkpt lat="41.77715452729156" lon="19.634357842088946"><ele>1.0</ele><time>2026-05-03T07:54:51.999Z</time></trkpt><trkpt lat="41.77719631962677" lon="19.63445525202687"><ele>1.0</ele><time>2026-05-03T07:54:53.999Z</time></trkpt><trkpt lat="41.77723740474209" lon="19.63452051080163"><ele>1.0</ele><time>2026-05-03T07:54:57.999Z</time></trkpt><trkpt lat="41.77729894510767" lon="19.634543243656335"><ele>1.0</ele><time>2026-05-03T07:54:59.999Z</time></trkpt><trkpt lat="41.77737831646634" lon="19.634482380399024"><ele>1.0</ele><time>2026-05-03T07:55:02.999Z</time></trkpt><trkpt lat="41.77742993318311" lon="19.63435095277083"><ele>1.0</ele><time>2026-05-03T07:55:04.999Z</time></trkpt><trkpt lat="41.777495764120054" lon="19.634229256659008"><ele>1.0</ele><time>2026-05-03T07:55:06.999Z</time></trkpt><trkpt lat="41.77754486234639" lon="19.634148716796318"><ele>0.9999999999999999</ele><time>2026-05-03T07:55:07.999Z</time></trkpt><trkpt lat="41.77759533647848" lon="19.634067672777284"><ele>1.0</ele><time>2026-05-03T07:55:08.999Z</time></trkpt><trkpt lat="41.77764745100495" lon="19.63398270539304"><ele>1.0</ele><time>2026-05-03T07:55:09.999Z</time></trkpt><trkpt lat="41.77770818150862" lon="19.63388600444147"><ele>1.0</ele><time>2026-05-03T07:55:10.999Z</time></trkpt><trkpt lat="41.77776953524927" lon="19.63378724366969"><ele>0.9999999999999999</ele><time>2026-05-03T07:55:11.999Z</time></trkpt><trkpt lat="41.77783045277919" lon="19.633696351449256"><ele>1.0</ele><time>2026-05-03T07:55:12.999Z</time></trkpt><trkpt lat="41.777896777279125" lon="19.633619152583876"><ele>1.4</ele><time>2026-05-03T07:55:13.999Z</time></trkpt><trkpt lat="41.77797700862715" lon="19.63354621316484"><ele>1.8</ele><time>2026-05-03T07:55:14.999Z</time></trkpt><trkpt lat="41.77807216076613" lon="19.633481729480383"><ele>2.1999999999999997</ele><time>2026-05-03T07:55:15.999Z</time></trkpt><trkpt lat="41.77817357139211" lon="19.633411955901575"><ele>2.6</ele><time>2026-05-03T07:55:16.999Z</time></trkpt><trkpt lat="41.77828334720937" lon="19.633330930963133"><ele>3.0</ele><time>2026-05-03T07:55:17.999Z</time></trkpt><trkpt lat="41.778398311320636" lon="19.633250876371726"><ele>3.0</ele><time>2026-05-03T07:55:18.999Z</time></trkpt><trkpt lat="41.77851723517045" lon="19.633173300459976"><ele>3.0</ele><time>2026-05-03T07:55:19.999Z</time></trkpt><trkpt lat="41.77863699642543" lon="19.633093160284144"><ele>3.0</ele><time>2026-05-03T07:55:20.999Z</time></trkpt><trkpt lat="41.77875863048863" lon="19.633010661145857"><ele>3.0</ele><time>2026-05-03T07:55:21.999Z</time></trkpt><trkpt lat="41.77888097290608" lon="19.63292910864488"><ele>2.25</ele><time>2026-05-03T07:55:22.999Z</time></trkpt><trkpt lat="41.77900202628263" lon="19.63284842459095"><ele>1.5</ele><time>2026-05-03T07:55:23.999Z</time></trkpt><trkpt lat="41.77913176062712" lon="19.63275447462452"><ele>0.75</ele><time>2026-05-03T07:55:24.999Z</time></trkpt><trkpt lat="41.77927698335121" lon="19.632644345393594"><ele>0.0</ele><time>2026-05-03T07:55:25.999Z</time></trkpt><trkpt lat="41.77943731371596" lon="19.632539062878102"><ele>2.0</ele><time>2026-05-03T07:55:26.999Z</time></trkpt><trkpt lat="41.779616427218436" lon="19.632430995450616"><ele>4.0</ele><time>2026-05-03T07:55:27.999Z</time></trkpt><trkpt lat="41.77977861021532" lon="19.632335698361683"><ele>6.0</ele><time>2026-05-03T07:55:28.999Z</time></trkpt><trkpt lat="41.77993701297387" lon="19.632237530099978"><ele>6.0</ele><time>2026-05-03T07:55:29.999Z</time></trkpt><trkpt lat="41.78008601015438" lon="19.632143574747616"><ele>6.0</ele><time>2026-05-03T07:55:30.999Z</time></trkpt><trkpt lat="41.7802248565243" lon="19.632050135893593"><ele>6.0</ele><time>2026-05-03T07:55:32Z</time></trkpt><trkpt lat="41.78036405989611" lon="19.63195284093312"><ele>4.0</ele><time>2026-05-03T07:55:33Z</time></trkpt><trkpt lat="41.780502641127754" lon="19.631853156401483"><ele>2.0</ele><time>2026-05-03T07:55:34Z</time></trkpt><trkpt lat="41.78064089689593" lon="19.631749411096845"><ele>0.0</ele><time>2026-05-03T07:55:35Z</time></trkpt><trkpt lat="41.78078246136389" lon="19.631644938047774"><ele>0.0</ele><time>2026-05-03T07:55:36Z</time></trkpt><trkpt lat="41.780922687316014" lon="19.63154082544961"><ele>0.0</ele><time>2026-05-03T07:55:37Z</time></trkpt><trkpt lat="41.78105641647011" lon="19.631437924494975"><ele>0.0</ele><time>2026-05-03T07:55:38Z</time></trkpt><trkpt lat="41.78118640634344" lon="19.631338063441117"><ele>0.25</ele><time>2026-05-03T07:55:39Z</time></trkpt><trkpt lat="41.781310034723326" lon="19.631244780981515"><ele>0.5</ele><time>2026-05-03T07:55:40Z</time></trkpt><trkpt lat="41.78143352426671" lon="19.631153046156392"><ele>0.75</ele><time>2026-05-03T07:55:41Z</time></trkpt><trkpt lat="41.78156184037096" lon="19.63105781246505"><ele>1.0</ele><time>2026-05-03T07:55:42Z</time></trkpt><trkpt lat="41.78169495341521" lon="19.63095898013719"><ele>0.6666666666666666</ele><time>2026-05-03T07:55:43Z</time></trkpt><trkpt lat="41.78182926410216" lon="19.63085700145619"><ele>0.3333333333333333</ele><time>2026-05-03T07:55:44Z</time></trkpt><trkpt lat="41.781967811764346" lon="19.630751948593108"><ele>0.0</ele><time>2026-05-03T07:55:45Z</time></trkpt><trkpt lat="41.7821049210193" lon="19.630648920706275"><ele>0.0</ele><time>2026-05-03T07:55:46Z</time></trkpt><trkpt lat="41.78224316148476" lon="19.630545112097057"><ele>0.0</ele><time>2026-05-03T07:55:47Z</time></trkpt><trkpt lat="41.782378331720814" lon="19.630443602368512"><ele>0.0</ele><time>2026-05-03T07:55:48Z</time></trkpt><trkpt lat="41.782513260430505" lon="19.63034315248981"><ele>-0.3333333333333333</ele><time>2026-05-03T07:55:49Z</time></trkpt><trkpt lat="41.7826496800719" lon="19.6302424392077"><ele>-0.6666666666666666</ele><time>2026-05-03T07:55:50Z</time></trkpt><trkpt lat="41.782786113921375" lon="19.63014229539464"><ele>-1.0</ele><time>2026-05-03T07:55:51Z</time></trkpt><trkpt lat="41.782920467558085" lon="19.630045510106207"><ele>0.33333333333333337</ele><time>2026-05-03T07:55:52Z</time></trkpt><trkpt lat="41.7830550379258" lon="19.629943119516337"><ele>1.6666666666666667</ele><time>2026-05-03T07:55:53Z</time></trkpt><trkpt lat="41.78318812909531" lon="19.629840641305865"><ele>3.0</ele><time>2026-05-03T07:55:54Z</time></trkpt><trkpt lat="41.783322746567805" lon="19.629737721691114"><ele>3.0</ele><time>2026-05-03T07:55:55Z</time></trkpt><trkpt lat="41.78345930068141" lon="19.629635213208683"><ele>3.0</ele><time>2026-05-03T07:55:56Z</time></trkpt><trkpt lat="41.78359255165879" lon="19.629535021097066"><ele>3.0</ele><time>2026-05-03T07:55:57Z</time></trkpt><trkpt lat="41.78372321354838" lon="19.629437366062756"><ele>2.25</ele><time>2026-05-03T07:55:58Z</time></trkpt><trkpt lat="41.783852602997065" lon="19.629341142923355"><ele>1.5</ele><time>2026-05-03T07:55:59Z</time></trkpt><trkpt lat="41.78398188327952" lon="19.62924463123992"><ele>0.75</ele><time>2026-05-03T07:56:00Z</time></trkpt><trkpt lat="41.7841121641166" lon="19.62914417959594"><ele>0.0</ele><time>2026-05-03T07:56:01Z</time></trkpt><trkpt lat="41.784240418214765" lon="19.629046361694815"><ele>0.0</ele><time>2026-05-03T07:56:02Z</time></trkpt><trkpt lat="41.78436959656825" lon="19.62894805434114"><ele>0.0</ele><time>2026-05-03T07:56:03Z</time></trkpt><trkpt lat="41.78449975566383" lon="19.628851228769957"><ele>0.0</ele><time>2026-05-03T07:56:04Z</time></trkpt><trkpt lat="41.78462694155076" lon="19.62875534109263"><ele>0.0</ele><time>2026-05-03T07:56:05Z</time></trkpt><trkpt lat="41.78475175776675" lon="19.628663488640317"><ele>-0.25</ele><time>2026-05-03T07:56:06Z</time></trkpt><trkpt lat="41.78487777190873" lon="19.628567817697906"><ele>-0.5</ele><time>2026-05-03T07:56:07Z</time></trkpt><trkpt lat="41.78500352079977" lon="19.62846842835134"><ele>-0.75</ele><time>2026-05-03T07:56:08Z</time></trkpt><trkpt lat="41.78512234574569" lon="19.62837605061197"><ele>-1.0</ele><time>2026-05-03T07:56:09Z</time></trkpt><trkpt lat="41.78524509778526" lon="19.62828744127763"><ele>-0.5</ele><time>2026-05-03T07:56:10Z</time></trkpt><trkpt lat="41.78536797381713" lon="19.628199701228084"><ele>0.0</ele><time>2026-05-03T07:56:11Z</time></trkpt><trkpt lat="41.78549002822191" lon="19.62811017539741"><ele>0.5</ele><time>2026-05-03T07:56:12Z</time></trkpt><trkpt lat="41.785611287809935" lon="19.628018991949414"><ele>1.0</ele><time>2026-05-03T07:56:13Z</time></trkpt><trkpt lat="41.785736917167775" lon="19.627928541443698"><ele>1.0</ele><time>2026-05-03T07:56:14Z</time></trkpt><trkpt lat="41.7858672454889" lon="19.627849077115734"><ele>1.0</ele><time>2026-05-03T07:56:15Z</time></trkpt><trkpt lat="41.785993119872984" lon="19.627815092119384"><ele>1.0</ele><time>2026-05-03T07:56:16Z</time></trkpt><trkpt lat="41.78612895894302" lon="19.62783159352199"><ele>1.0</ele><time>2026-05-03T07:56:17Z</time></trkpt><trkpt lat="41.78627641689933" lon="19.62788153980391"><ele>1.0</ele><time>2026-05-03T07:56:18Z</time></trkpt><trkpt lat="41.78643290699472" lon="19.627941783174755"><ele>1.0</ele><time>2026-05-03T07:56:19Z</time></trkpt><trkpt lat="41.7865958628906" lon="19.628006421986257"><ele>1.0</ele><time>2026-05-03T07:56:20Z</time></trkpt><trkpt lat="41.786752185079585" lon="19.628064723953457"><ele>1.0</ele><time>2026-05-03T07:56:21Z</time></trkpt><trkpt lat="41.786892929875386" lon="19.628120217082547"><ele>1.0</ele><time>2026-05-03T07:56:22Z</time></trkpt><trkpt lat="41.7870233571628" lon="19.62817346132801"><ele>1.0</ele><time>2026-05-03T07:56:23Z</time></trkpt><trkpt lat="41.787138634553536" lon="19.628201922640276"><ele>1.0</ele><time>2026-05-03T07:56:24Z</time></trkpt><trkpt lat="41.787243556455785" lon="19.62819312290428"><ele>0.9999999999999999</ele><time>2026-05-03T07:56:25Z</time></trkpt><trkpt lat="41.78733352147484" lon="19.628161494169824"><ele>1.0</ele><time>2026-05-03T07:56:26Z</time></trkpt><trkpt lat="41.787405972927566" lon="19.628085622045873"><ele>1.0</ele><time>2026-05-03T07:56:27Z</time></trkpt><trkpt lat="41.787483501332645" lon="19.6280109024747"><ele>1.0</ele><time>2026-05-03T07:56:28Z</time></trkpt><trkpt lat="41.7875443039856" lon="19.627939010333513"><ele>0.9999999999999999</ele><time>2026-05-03T07:56:29Z</time></trkpt><trkpt lat="41.78760709265397" lon="19.62786583479215"><ele>1.0</ele><time>2026-05-03T07:56:30Z</time></trkpt><trkpt lat="41.78767508106353" lon="19.62777947955139"><ele>2.4000000000000004</ele><time>2026-05-03T07:56:31Z</time></trkpt><trkpt lat="41.7877442557854" lon="19.627692140447348"><ele>3.8000000000000003</ele><time>2026-05-03T07:56:32Z</time></trkpt><trkpt lat="41.78781502335829" lon="19.627595997070294"><ele>5.200000000000001</ele><time>2026-05-03T07:56:33Z</time></trkpt><trkpt lat="41.78788861594446" lon="19.62748375545557"><ele>6.6000000000000005</ele><time>2026-05-03T07:56:34Z</time></trkpt><trkpt lat="41.78797077273046" lon="19.627367730403932"><ele>8.0</ele><time>2026-05-03T07:56:35Z</time></trkpt><trkpt lat="41.78805721857518" lon="19.627258203992064"><ele>8.0</ele><time>2026-05-03T07:56:36Z</time></trkpt><trkpt lat="41.788134777133365" lon="19.627155903888937"><ele>8.0</ele><time>2026-05-03T07:56:37Z</time></trkpt><trkpt lat="41.78820347129649" lon="19.627059074258295"><ele>8.0</ele><time>2026-05-03T07:56:38Z</time></trkpt><trkpt lat="41.78826261862653" lon="19.626976254467856"><ele>8.0</ele><time>2026-05-03T07:56:39Z</time></trkpt><trkpt lat="41.78834437909399" lon="19.626881879900004"><ele>8.0</ele><time>2026-05-03T07:56:41Z</time></trkpt><trkpt lat="41.78841488500505" lon="19.62683502704413"><ele>7.4</ele><time>2026-05-03T07:56:42Z</time></trkpt><trkpt lat="41.788498903902195" lon="19.626795796449354"><ele>6.800000000000001</ele><time>2026-05-03T07:56:43Z</time></trkpt><trkpt lat="41.78859239438052" lon="19.626763797071405"><ele>6.2</ele><time>2026-05-03T07:56:44Z</time></trkpt><trkpt lat="41.788696427398534" lon="19.626728897887705"><ele>5.6</ele><time>2026-05-03T07:56:45Z</time></trkpt><trkpt lat="41.78880265804218" lon="19.62668910500224"><ele>5.0</ele><time>2026-05-03T07:56:45.999Z</time></trkpt><trkpt lat="41.78891402392367" lon="19.626649550452825"><ele>4.5</ele><time>2026-05-03T07:56:46.999Z</time></trkpt><trkpt lat="41.789028987590235" lon="19.62660979928143"><ele>4.0</ele><time>2026-05-03T07:56:47.999Z</time></trkpt><trkpt lat="41.789147527270984" lon="19.62657088293267"><ele>3.5</ele><time>2026-05-03T07:56:48.999Z</time></trkpt><trkpt lat="41.78926841626969" lon="19.626526413273275"><ele>3.0</ele><time>2026-05-03T07:56:49.999Z</time></trkpt><trkpt lat="41.78939023465322" lon="19.62646119911932"><ele>5.666666666666666</ele><time>2026-05-03T07:56:50.999Z</time></trkpt><trkpt lat="41.78950745976125" lon="19.626371952119836"><ele>8.333333333333332</ele><time>2026-05-03T07:56:51.999Z</time></trkpt><trkpt lat="41.789611141760645" lon="19.626227231049807"><ele>11.0</ele><time>2026-05-03T07:56:52.999Z</time></trkpt><trkpt lat="41.7897063729095" lon="19.626033775979955"><ele>11.0</ele><time>2026-05-03T07:56:53.999Z</time></trkpt><trkpt lat="41.789815149805555" lon="19.625814125825315"><ele>11.0</ele><time>2026-05-03T07:56:54.999Z</time></trkpt><trkpt lat="41.78991710194461" lon="19.62560213523393"><ele>11.0</ele><time>2026-05-03T07:56:55.999Z</time></trkpt><trkpt lat="41.79001303236588" lon="19.625378555608027"><ele>7.666666666666666</ele><time>2026-05-03T07:56:56.999Z</time></trkpt><trkpt lat="41.790095689930084" lon="19.62514289590627"><ele>4.333333333333333</ele><time>2026-05-03T07:56:57.999Z</time></trkpt><trkpt lat="41.79016514852216" lon="19.62490442370047"><ele>1.0</ele><time>2026-05-03T07:56:58.999Z</time></trkpt><trkpt lat="41.790233886425526" lon="19.62468649124471"><ele>0.6666666666666666</ele><time>2026-05-03T07:56:59.999Z</time></trkpt><trkpt lat="41.79032380778284" lon="19.624495121334668"><ele>0.3333333333333333</ele><time>2026-05-03T07:57:00.999Z</time></trkpt><trkpt lat="41.790441356460235" lon="19.62433528187084"><ele>0.0</ele><time>2026-05-03T07:57:01.999Z</time></trkpt><trkpt lat="41.790587072776404" lon="19.624194065417555"><ele>0.0</ele><time>2026-05-03T07:57:02.999Z</time></trkpt><trkpt lat="41.790754691329546" lon="19.62406270466297"><ele>0.0</ele><time>2026-05-03T07:57:03.999Z</time></trkpt><trkpt lat="41.79092652781696" lon="19.623934540808637"><ele>0.0</ele><time>2026-05-03T07:57:04.999Z</time></trkpt><trkpt lat="41.79109622351661" lon="19.623809322371024"><ele>-1.6666666666666667</ele><time>2026-05-03T07:57:05.999Z</time></trkpt><trkpt lat="41.7912520141026" lon="19.62369629726274"><ele>-3.3333333333333335</ele><time>2026-05-03T07:57:06.999Z</time></trkpt><trkpt lat="41.79140232419399" lon="19.62359038775313"><ele>-5.0</ele><time>2026-05-03T07:57:07.999Z</time></trkpt><trkpt lat="41.79154708115055" lon="19.623492502321394"><ele>-5.0</ele><time>2026-05-03T07:57:08.999Z</time></trkpt><trkpt lat="41.791683003077786" lon="19.623402867146204"><ele>-5.0</ele><time>2026-05-03T07:57:09.999Z</time></trkpt><trkpt lat="41.791809951315436" lon="19.623315847436327"><ele>-5.0</ele><time>2026-05-03T07:57:10.999Z</time></trkpt><trkpt lat="41.79192714879777" lon="19.623233285281515"><ele>-5.0</ele><time>2026-05-03T07:57:11.999Z</time></trkpt><trkpt lat="41.792040197059606" lon="19.623151911363323"><ele>-3.5</ele><time>2026-05-03T07:57:12.999Z</time></trkpt><trkpt lat="41.792163051500445" lon="19.623065772610477"><ele>-2.0</ele><time>2026-05-03T07:57:13.999Z</time></trkpt><trkpt lat="41.79229259979488" lon="19.622977489787676"><ele>-0.5</ele><time>2026-05-03T07:57:14.999Z</time></trkpt><trkpt lat="41.792420409185986" lon="19.622887372124357"><ele>1.0</ele><time>2026-05-03T07:57:15.999Z</time></trkpt><trkpt lat="41.79253703355772" lon="19.622801769074393"><ele>1.0</ele><time>2026-05-03T07:57:16.999Z</time></trkpt><trkpt lat="41.7926509268558" lon="19.62271959122469"><ele>1.0</ele><time>2026-05-03T07:57:17.999Z</time></trkpt><trkpt lat="41.79276571687985" lon="19.622633926336494"><ele>1.0</ele><time>2026-05-03T07:57:18.999Z</time></trkpt><trkpt lat="41.79288053103918" lon="19.622535173035168"><ele>1.0</ele><time>2026-05-03T07:57:19.999Z</time></trkpt><trkpt lat="41.792984133373494" lon="19.62242466264046"><ele>0.75</ele><time>2026-05-03T07:57:20.999Z</time></trkpt><trkpt lat="41.79308683715101" lon="19.622299127421105"><ele>0.5</ele><time>2026-05-03T07:57:21.999Z</time></trkpt><trkpt lat="41.793192906673134" lon="19.622168846460532"><ele>0.25</ele><time>2026-05-03T07:57:22.999Z</time></trkpt><trkpt lat="41.79330186354671" lon="19.622042468138986"><ele>0.0</ele><time>2026-05-03T07:57:23.999Z</time></trkpt><trkpt lat="41.793414735223" lon="19.62192753995278"><ele>3.0</ele><time>2026-05-03T07:57:24.999Z</time></trkpt><trkpt lat="41.79353275476436" lon="19.62182189274854"><ele>6.0</ele><time>2026-05-03T07:57:25.999Z</time></trkpt><trkpt lat="41.79366149226047" lon="19.621719423969935"><ele>9.0</ele><time>2026-05-03T07:57:26.999Z</time></trkpt><trkpt lat="41.79380431689376" lon="19.62161290738616"><ele>9.0</ele><time>2026-05-03T07:57:27.999Z</time></trkpt><trkpt lat="41.79396319098981" lon="19.62150842297906"><ele>9.0</ele><time>2026-05-03T07:57:28.999Z</time></trkpt><trkpt lat="41.7941343617395" lon="19.621404751615767"><ele>9.0</ele><time>2026-05-03T07:57:29.999Z</time></trkpt><trkpt lat="41.79432466747397" lon="19.62128716170145"><ele>13.0</ele><time>2026-05-03T07:57:30.999Z</time></trkpt><trkpt lat="41.79453007193607" lon="19.621158172897644"><ele>17.0</ele><time>2026-05-03T07:57:31.999Z</time></trkpt><trkpt lat="41.79474738047424" lon="19.621021774508225"><ele>7.0</ele><time>2026-05-03T07:57:32.999Z</time></trkpt><trkpt lat="41.79495694865905" lon="19.620893816023976"><ele>-3.0</ele><time>2026-05-03T07:57:33.999Z</time></trkpt><trkpt lat="41.79516621836089" lon="19.620756905390284"><ele>-0.33333333333333326</ele><time>2026-05-03T07:57:34.999Z</time></trkpt><trkpt lat="41.79536678179516" lon="19.620612358352457"><ele>2.3333333333333335</ele><time>2026-05-03T07:57:35.999Z</time></trkpt><trkpt lat="41.79556021776192" lon="19.62046882294326"><ele>5.0</ele><time>2026-05-03T07:57:37Z</time></trkpt><trkpt lat="41.79575088766832" lon="19.62032341361201"><ele>3.0</ele><time>2026-05-03T07:57:38Z</time></trkpt><trkpt lat="41.79593623461786" lon="19.62017904539604"><ele>1.0</ele><time>2026-05-03T07:57:39Z</time></trkpt><trkpt lat="41.79611112417269" lon="19.620047519905768"><ele>-1.0</ele><time>2026-05-03T07:57:40Z</time></trkpt><trkpt lat="41.7962762999175" lon="19.61992294222581"><ele>-1.0</ele><time>2026-05-03T07:57:41Z</time></trkpt><trkpt lat="41.79643069861584" lon="19.619806793364482"><ele>-1.0</ele><time>2026-05-03T07:57:42Z</time></trkpt><trkpt lat="41.79657938468513" lon="19.61969269740011"><ele>-1.0</ele><time>2026-05-03T07:57:43Z</time></trkpt><trkpt lat="41.796719345908635" lon="19.61958357514663"><ele>0.6666666666666666</ele><time>2026-05-03T07:57:44Z</time></trkpt><trkpt lat="41.796855671688256" lon="19.61947841933003"><ele>2.333333333333333</ele><time>2026-05-03T07:57:45Z</time></trkpt><trkpt lat="41.79698929387089" lon="19.619377392533323"><ele>4.0</ele><time>2026-05-03T07:57:46Z</time></trkpt><trkpt lat="41.79712143209863" lon="19.61927639012611"><ele>4.0</ele><time>2026-05-03T07:57:47Z</time></trkpt><trkpt lat="41.797255775333376" lon="19.619172008449635"><ele>4.0</ele><time>2026-05-03T07:57:48Z</time></trkpt><trkpt lat="41.797400744677525" lon="19.61905225424449"><ele>4.0</ele><time>2026-05-03T07:57:49Z</time></trkpt><trkpt lat="41.79755840390268" lon="19.61891767051213"><ele>3.0</ele><time>2026-05-03T07:57:50Z</time></trkpt><trkpt lat="41.79772033459748" lon="19.618782543766613"><ele>2.0</ele><time>2026-05-03T07:57:51Z</time></trkpt><trkpt lat="41.79788640805925" lon="19.618649415356835"><ele>1.0</ele><time>2026-05-03T07:57:52Z</time></trkpt><trkpt lat="41.798058246323954" lon="19.61851661446252"><ele>1.0</ele><time>2026-05-03T07:57:53Z</time></trkpt><trkpt lat="41.798232801338244" lon="19.618383368273623"><ele>1.0</ele><time>2026-05-03T07:57:54Z</time></trkpt><trkpt lat="41.79840879036125" lon="19.618256738750127"><ele>1.0</ele><time>2026-05-03T07:57:55Z</time></trkpt><trkpt lat="41.79858446886594" lon="19.618140238232055"><ele>1.3333333333333333</ele><time>2026-05-03T07:57:56Z</time></trkpt><trkpt lat="41.79874726073794" lon="19.618031666857952"><ele>1.6666666666666665</ele><time>2026-05-03T07:57:57Z</time></trkpt><trkpt lat="41.798903855597075" lon="19.617919547596735"><ele>2.0</ele><time>2026-05-03T07:57:58Z</time></trkpt><trkpt lat="41.79905969972524" lon="19.617801437200505"><ele>2.0</ele><time>2026-05-03T07:57:59Z</time></trkpt><trkpt lat="41.799213438274705" lon="19.617681939201987"><ele>2.0</ele><time>2026-05-03T07:58:00Z</time></trkpt><trkpt lat="41.799364838620924" lon="19.617562496232257"><ele>2.0</ele><time>2026-05-03T07:58:01Z</time></trkpt><trkpt lat="41.79951608876295" lon="19.617443496820876"><ele>7.333333333333333</ele><time>2026-05-03T07:58:02Z</time></trkpt><trkpt lat="41.7996669175843" lon="19.61732389015329"><ele>12.666666666666666</ele><time>2026-05-03T07:58:03Z</time></trkpt><trkpt lat="41.79980973506048" lon="19.617196177732712"><ele>18.0</ele><time>2026-05-03T07:58:04Z</time></trkpt><trkpt lat="41.799936846690635" lon="19.617069531686095"><ele>16.666666666666668</ele><time>2026-05-03T07:58:05Z</time></trkpt><trkpt lat="41.80006547961252" lon="19.616946030825087"><ele>15.333333333333334</ele><time>2026-05-03T07:58:06Z</time></trkpt><trkpt lat="41.800194837437154" lon="19.61682050553016"><ele>14.0</ele><time>2026-05-03T07:58:07Z</time></trkpt><trkpt lat="41.80032427244581" lon="19.61669612328025"><ele>14.0</ele><time>2026-05-03T07:58:08Z</time></trkpt><trkpt lat="41.80044722440652" lon="19.616587166432556"><ele>14.0</ele><time>2026-05-03T07:58:09Z</time></trkpt><trkpt lat="41.80055841044172" lon="19.616499103972483"><ele>14.0</ele><time>2026-05-03T07:58:10Z</time></trkpt><trkpt lat="41.800659059500866" lon="19.616435418995742"><ele>14.0</ele><time>2026-05-03T07:58:11Z</time></trkpt><trkpt lat="41.80074965147159" lon="19.61638882492157"><ele>14.000000000000002</ele><time>2026-05-03T07:58:12Z</time></trkpt><trkpt lat="41.8008351881581" lon="19.616341176314453"><ele>14.0</ele><time>2026-05-03T07:58:13Z</time></trkpt><trkpt lat="41.80091433260584" lon="19.61629689860987"><ele>14.0</ele><time>2026-05-03T07:58:14Z</time></trkpt><trkpt lat="41.80098712978829" lon="19.616256457507077"><ele>14.0</ele><time>2026-05-03T07:58:15Z</time></trkpt><trkpt lat="41.80107089593859" lon="19.616205966845598"><ele>14.000000000000002</ele><time>2026-05-03T07:58:16Z</time></trkpt><trkpt lat="41.80115645430546" lon="19.61614913862732"><ele>14.0</ele><time>2026-05-03T07:58:17Z</time></trkpt><trkpt lat="41.80124848339704" lon="19.616082157774397"><ele>13.2</ele><time>2026-05-03T07:58:18Z</time></trkpt><trkpt lat="41.801349835836355" lon="19.616018675655372"><ele>12.399999999999999</ele><time>2026-05-03T07:58:19Z</time></trkpt><trkpt lat="41.80145874853534" lon="19.615960423730616"><ele>11.6</ele><time>2026-05-03T07:58:20Z</time></trkpt><trkpt lat="41.801560409143114" lon="19.615909564627632"><ele>10.8</ele><time>2026-05-03T07:58:21Z</time></trkpt><trkpt lat="41.80166305877447" lon="19.615855360876772"><ele>10.0</ele><time>2026-05-03T07:58:22Z</time></trkpt><trkpt lat="41.801763269236034" lon="19.615800508172846"><ele>16.5</ele><time>2026-05-03T07:58:23Z</time></trkpt><trkpt lat="41.80186239852959" lon="19.61573067628908"><ele>23.0</ele><time>2026-05-03T07:58:24Z</time></trkpt><trkpt lat="41.80196071509779" lon="19.615649283350248"><ele>29.5</ele><time>2026-05-03T07:58:25Z</time></trkpt><trkpt lat="41.80205731652319" lon="19.615560698692768"><ele>36.0</ele><time>2026-05-03T07:58:26Z</time></trkpt><trkpt lat="41.8021545622162" lon="19.61547184983034"><ele>36.0</ele><time>2026-05-03T07:58:27Z</time></trkpt><trkpt lat="41.80225219991073" lon="19.615385251148442"><ele>36.0</ele><time>2026-05-03T07:58:28Z</time></trkpt><trkpt lat="41.80234918081964" lon="19.61529920731736"><ele>36.0</ele><time>2026-05-03T07:58:29Z</time></trkpt><trkpt lat="41.80244378527632" lon="19.615208965676903"><ele>36.0</ele><time>2026-05-03T07:58:30Z</time></trkpt><trkpt lat="41.802538506297566" lon="19.61511334731551"><ele>34.75</ele><time>2026-05-03T07:58:31Z</time></trkpt><trkpt lat="41.80263553837381" lon="19.615016514009252"><ele>33.5</ele><time>2026-05-03T07:58:32Z</time></trkpt><trkpt lat="41.8027335980747" lon="19.61491506747177"><ele>32.25</ele><time>2026-05-03T07:58:33Z</time></trkpt><trkpt lat="41.802831035713915" lon="19.614810032775857"><ele>31.0</ele><time>2026-05-03T07:58:34Z</time></trkpt><trkpt lat="41.80292608903937" lon="19.61470860555274"><ele>31.0</ele><time>2026-05-03T07:58:35Z</time></trkpt><trkpt lat="41.8030168324572" lon="19.61462467151965"><ele>31.0</ele><time>2026-05-03T07:58:36Z</time></trkpt><trkpt lat="41.80311709269942" lon="19.614559735720256"><ele>31.0</ele><time>2026-05-03T07:58:37Z</time></trkpt><trkpt lat="41.80322245837594" lon="19.614504739129014"><ele>31.0</ele><time>2026-05-03T07:58:38Z</time></trkpt><trkpt lat="41.80333071156724" lon="19.614435151433167"><ele>31.666666666666668</ele><time>2026-05-03T07:58:39Z</time></trkpt><trkpt lat="41.80344679245956" lon="19.614314862705765"><ele>32.333333333333336</ele><time>2026-05-03T07:58:40Z</time></trkpt><trkpt lat="41.80358709843458" lon="19.614155621260757"><ele>33.0</ele><time>2026-05-03T07:58:41Z</time></trkpt><trkpt lat="41.80374363998674" lon="19.613978190859022"><ele>33.0</ele><time>2026-05-03T07:58:42Z</time></trkpt><trkpt lat="41.803903166557895" lon="19.61380409560479"><ele>33.0</ele><time>2026-05-03T07:58:43Z</time></trkpt><trkpt lat="41.804077094105544" lon="19.6136240780861"><ele>33.0</ele><time>2026-05-03T07:58:44Z</time></trkpt><trkpt lat="41.80424595039546" lon="19.613448247391467"><ele>35.0</ele><time>2026-05-03T07:58:45Z</time></trkpt><trkpt lat="41.804414250766925" lon="19.61326178669079"><ele>37.0</ele><time>2026-05-03T07:58:46Z</time></trkpt><trkpt lat="41.80457546919473" lon="19.613068487202856"><ele>39.0</ele><time>2026-05-03T07:58:47Z</time></trkpt><trkpt lat="41.80473571600836" lon="19.612871797697842"><ele>30.666666666666668</ele><time>2026-05-03T07:58:48Z</time></trkpt><trkpt lat="41.80489106566507" lon="19.61268006786339"><ele>22.333333333333336</ele><time>2026-05-03T07:58:49Z</time></trkpt><trkpt lat="41.80503741942664" lon="19.6125016910607"><ele>14.0</ele><time>2026-05-03T07:58:50Z</time></trkpt><trkpt lat="41.80516025347616" lon="19.6123397477492"><ele>20.666666666666668</ele><time>2026-05-03T07:58:51Z</time></trkpt><trkpt lat="41.80525384255542" lon="19.612179974789417"><ele>27.333333333333336</ele><time>2026-05-03T07:58:52Z</time></trkpt><trkpt lat="41.80531831067744" lon="19.611998558490203"><ele>34.0</ele><time>2026-05-03T07:58:53Z</time></trkpt><trkpt lat="41.805360455815375" lon="19.61178071244731"><ele>34.0</ele><time>2026-05-03T07:58:54Z</time></trkpt><trkpt lat="41.80539171435164" lon="19.611529709171112"><ele>34.0</ele><time>2026-05-03T07:58:55Z</time></trkpt><trkpt lat="41.80543213181323" lon="19.61128136717766"><ele>34.0</ele><time>2026-05-03T07:58:56Z</time></trkpt><trkpt lat="41.80550046699083" lon="19.61106231830988"><ele>29.666666666666668</ele><time>2026-05-03T07:58:57Z</time></trkpt><trkpt lat="41.805601712381645" lon="19.610837302063555"><ele>25.333333333333336</ele><time>2026-05-03T07:58:58Z</time></trkpt><trkpt lat="41.80570999686082" lon="19.61060543206186"><ele>21.0</ele><time>2026-05-03T07:58:59Z</time></trkpt><trkpt lat="41.80582274916112" lon="19.61036988587275"><ele>27.0</ele><time>2026-05-03T07:59:00Z</time></trkpt><trkpt lat="41.8059356236813" lon="19.610140248085376"><ele>33.0</ele><time>2026-05-03T07:59:01Z</time></trkpt><trkpt lat="41.80604073786055" lon="19.60992925314667"><ele>39.0</ele><time>2026-05-03T07:59:02Z</time></trkpt><trkpt lat="41.80613815583867" lon="19.609730016520295"><ele>39.0</ele><time>2026-05-03T07:59:03Z</time></trkpt><trkpt lat="41.80622932066617" lon="19.609540876018247"><ele>39.0</ele><time>2026-05-03T07:59:04Z</time></trkpt><trkpt lat="41.80631543520282" lon="19.609352360452196"><ele>39.0</ele><time>2026-05-03T07:59:05Z</time></trkpt><trkpt lat="41.8064053392996" lon="19.60916294036852"><ele>30.666666666666668</ele><time>2026-05-03T07:59:06Z</time></trkpt><trkpt lat="41.80649399099365" lon="19.608970588042684"><ele>22.333333333333336</ele><time>2026-05-03T07:59:07Z</time></trkpt><trkpt lat="41.80657180247062" lon="19.608779264399228"><ele>14.0</ele><time>2026-05-03T07:59:08Z</time></trkpt><trkpt lat="41.80664411384994" lon="19.608584018718336"><ele>10.0</ele><time>2026-05-03T07:59:09Z</time></trkpt><trkpt lat="41.80671911762647" lon="19.60838694773563"><ele>6.0</ele><time>2026-05-03T07:59:10Z</time></trkpt><trkpt lat="41.806795086335455" lon="19.60819349862182"><ele>2.0</ele><time>2026-05-03T07:59:11Z</time></trkpt><trkpt lat="41.806872861742576" lon="19.608000109983983"><ele>7.666666666666666</ele><time>2026-05-03T07:59:12Z</time></trkpt><trkpt lat="41.80695279044876" lon="19.607808263525282"><ele>13.333333333333332</ele><time>2026-05-03T07:59:13Z</time></trkpt><trkpt lat="41.80703914509408" lon="19.60762508180674"><ele>19.0</ele><time>2026-05-03T07:59:14Z</time></trkpt><trkpt lat="41.80712673990573" lon="19.607446178773753"><ele>19.0</ele><time>2026-05-03T07:59:15Z</time></trkpt><trkpt lat="41.807213569231806" lon="19.607268863574113"><ele>19.0</ele><time>2026-05-03T07:59:16Z</time></trkpt><trkpt lat="41.80730144779751" lon="19.60709068464244"><ele>19.0</ele><time>2026-05-03T07:59:17Z</time></trkpt><trkpt lat="41.807388034423084" lon="19.60691191468516"><ele>14.0</ele><time>2026-05-03T07:59:18Z</time></trkpt><trkpt lat="41.80747395421121" lon="19.606736957457404"><ele>9.0</ele><time>2026-05-03T07:59:19Z</time></trkpt><trkpt lat="41.807561431097" lon="19.60656129571519"><ele>4.0</ele><time>2026-05-03T07:59:20Z</time></trkpt><trkpt lat="41.80764686115012" lon="19.60638935257515"><ele>8.333333333333334</ele><time>2026-05-03T07:59:21Z</time></trkpt><trkpt lat="41.807729729058856" lon="19.606216785272714"><ele>12.666666666666668</ele><time>2026-05-03T07:59:22Z</time></trkpt><trkpt lat="41.807809759481074" lon="19.606040519593545"><ele>17.0</ele><time>2026-05-03T07:59:23Z</time></trkpt><trkpt lat="41.80789255096181" lon="19.605856001501593"><ele>17.0</ele><time>2026-05-03T07:59:24Z</time></trkpt><trkpt lat="41.80797158165109" lon="19.605666428615752"><ele>17.0</ele><time>2026-05-03T07:59:25Z</time></trkpt><trkpt lat="41.80804016819043" lon="19.60546616749185"><ele>17.0</ele><time>2026-05-03T07:59:26Z</time></trkpt><trkpt lat="41.8080962534507" lon="19.605261321654602"><ele>13.333333333333334</ele><time>2026-05-03T07:59:27Z</time></trkpt><trkpt lat="41.808149691461715" lon="19.605052187445622"><ele>9.666666666666668</ele><time>2026-05-03T07:59:28Z</time></trkpt><trkpt lat="41.8082035978107" lon="19.604848187307258"><ele>6.0</ele><time>2026-05-03T07:59:29Z</time></trkpt><trkpt lat="41.808261775431056" lon="19.604645920040674"><ele>5.0</ele><time>2026-05-03T07:59:30Z</time></trkpt><trkpt lat="41.80831897918969" lon="19.604447938457255"><ele>4.0</ele><time>2026-05-03T07:59:31Z</time></trkpt><trkpt lat="41.80837258293938" lon="19.604250088933856"><ele>3.0</ele><time>2026-05-03T07:59:32Z</time></trkpt><trkpt lat="41.80842411357197" lon="19.604057474737257"><ele>3.0</ele><time>2026-05-03T07:59:33Z</time></trkpt><trkpt lat="41.80847538120702" lon="19.60386622728882"><ele>3.0</ele><time>2026-05-03T07:59:33.999Z</time></trkpt><trkpt lat="41.80852540525732" lon="19.603677476262682"><ele>3.0</ele><time>2026-05-03T07:59:34.999Z</time></trkpt><trkpt lat="41.80857730616192" lon="19.603491504546437"><ele>3.0</ele><time>2026-05-03T07:59:35.999Z</time></trkpt><trkpt lat="41.808627918299784" lon="19.603303663438805"><ele>4.5</ele><time>2026-05-03T07:59:36.999Z</time></trkpt><trkpt lat="41.80867795729646" lon="19.60311690380285"><ele>6.0</ele><time>2026-05-03T07:59:37.999Z</time></trkpt><trkpt lat="41.80872905465633" lon="19.602929217591964"><ele>7.5</ele><time>2026-05-03T07:59:38.999Z</time></trkpt><trkpt lat="41.80878233820564" lon="19.602738287464696"><ele>9.0</ele><time>2026-05-03T07:59:39.999Z</time></trkpt><trkpt lat="41.80883305486071" lon="19.602542209907927"><ele>9.0</ele><time>2026-05-03T07:59:40.999Z</time></trkpt><trkpt lat="41.8088779676404" lon="19.602348964690297"><ele>9.0</ele><time>2026-05-03T07:59:41.999Z</time></trkpt><trkpt lat="41.80891907867072" lon="19.602157929494876"><ele>9.0</ele><time>2026-05-03T07:59:43.001Z</time></trkpt><trkpt lat="41.80895390686133" lon="19.601970834581284"><ele>9.0</ele><time>2026-05-03T07:59:44.001Z</time></trkpt><trkpt lat="41.808989386749694" lon="19.601782025002972"><ele>7.25</ele><time>2026-05-03T07:59:45Z</time></trkpt><trkpt lat="41.80902563611289" lon="19.601592486085405"><ele>5.5</ele><time>2026-05-03T07:59:46.001Z</time></trkpt><trkpt lat="41.809058120443055" lon="19.60141347499724"><ele>3.75</ele><time>2026-05-03T07:59:47.001Z</time></trkpt><trkpt lat="41.809089020082276" lon="19.601248998210057"><ele>2.0</ele><time>2026-05-03T07:59:48Z</time></trkpt><trkpt lat="41.8091196613057" lon="19.60109652978781"><ele>1.5</ele><time>2026-05-03T07:59:49.001Z</time></trkpt><trkpt lat="41.80914947882617" lon="19.6009472428015"><ele>1.0</ele><time>2026-05-03T07:59:50.001Z</time></trkpt><trkpt lat="41.809177380440936" lon="19.600785693000784"><ele>0.5</ele><time>2026-05-03T07:59:51.001Z</time></trkpt><trkpt lat="41.809201839602736" lon="19.600645292132125"><ele>0.0</ele><time>2026-05-03T07:59:52.001Z</time></trkpt><trkpt lat="41.809237273920154" lon="19.600499847558936"><ele>0.0</ele><time>2026-05-03T07:59:53.001Z</time></trkpt><trkpt lat="41.80926890393861" lon="19.600369560444417"><ele>0.0</ele><time>2026-05-03T07:59:54.001Z</time></trkpt><trkpt lat="41.809294083369615" lon="19.60026075145252"><ele>0.0</ele><time>2026-05-03T07:59:55.001Z</time></trkpt><trkpt lat="41.80930666822135" lon="19.600177074298127"><ele>0.0</ele><time>2026-05-03T07:59:56.001Z</time></trkpt><trkpt lat="41.80932306987549" lon="19.600054087199528"><ele>0.0</ele><time>2026-05-03T07:59:58.001Z</time></trkpt><trkpt lat="41.809339369078415" lon="19.599971062840606"><ele>0.0</ele><time>2026-05-03T07:59:59Z</time></trkpt><trkpt lat="41.8093779142692" lon="19.59981478641518"><ele>0.2</ele><time>2026-05-03T08:00:00Z</time></trkpt><trkpt lat="41.80942382776547" lon="19.59964894312141"><ele>0.4</ele><time>2026-05-03T08:00:01Z</time></trkpt><trkpt lat="41.80946575130177" lon="19.59950403363037"><ele>0.6000000000000001</ele><time>2026-05-03T08:00:02Z</time></trkpt><trkpt lat="41.80949927713703" lon="19.599385120097928"><ele>0.8</ele><time>2026-05-03T08:00:03Z</time></trkpt><trkpt lat="41.80952569583077" lon="19.599296884344042"><ele>1.0</ele><time>2026-05-03T08:00:04Z</time></trkpt><trkpt lat="41.80954751045798" lon="19.599194608241547"><ele>0.9999999999999999</ele><time>2026-05-03T08:00:06Z</time></trkpt><trkpt lat="41.809569581956346" lon="19.59909951019449"><ele>1.0</ele><time>2026-05-03T08:00:08Z</time></trkpt><trkpt lat="41.80960845002307" lon="19.599004485306633"><ele>1.0</ele><time>2026-05-03T08:00:09Z</time></trkpt><trkpt lat="41.80966222674609" lon="19.59890122590415"><ele>1.0</ele><time>2026-05-03T08:00:10Z</time></trkpt><trkpt lat="41.80971633271294" lon="19.598805640153746"><ele>0.9999999999999999</ele><time>2026-05-03T08:00:11Z</time></trkpt><trkpt lat="41.8097872509264" lon="19.59871507658905"><ele>1.0</ele><time>2026-05-03T08:00:11.999Z</time></trkpt><trkpt lat="41.80985902298816" lon="19.598625538377817"><ele>1.2000000000000002</ele><time>2026-05-03T08:00:12.999Z</time></trkpt><trkpt lat="41.809936642959514" lon="19.598537807744762"><ele>1.4000000000000001</ele><time>2026-05-03T08:00:13.999Z</time></trkpt><trkpt lat="41.81001267065904" lon="19.59844997081441"><ele>1.6</ele><time>2026-05-03T08:00:14.999Z</time></trkpt><trkpt lat="41.810089497804654" lon="19.598358056542935"><ele>1.8</ele><time>2026-05-03T08:00:15.999Z</time></trkpt><trkpt lat="41.810162076732105" lon="19.598269942096746"><ele>2.0</ele><time>2026-05-03T08:00:16.999Z</time></trkpt><trkpt lat="41.8102106695119" lon="19.598209428490513"><ele>2.5</ele><time>2026-05-03T08:00:17.999Z</time></trkpt><trkpt lat="41.81025406671128" lon="19.59813968120534"><ele>3.0</ele><time>2026-05-03T08:00:19.999Z</time></trkpt><trkpt lat="41.810299412341045" lon="19.59805535566781"><ele>3.5</ele><time>2026-05-03T08:00:25.999Z</time></trkpt><trkpt lat="41.8103571522281" lon="19.597993636618614"><ele>4.0</ele><time>2026-05-03T08:00:26.999Z</time></trkpt><trkpt lat="41.81042969515672" lon="19.59792078169185"><ele>4.5</ele><time>2026-05-03T08:00:27.999Z</time></trkpt><trkpt lat="41.81050626181431" lon="19.5978289923104"><ele>5.0</ele><time>2026-05-03T08:00:28.999Z</time></trkpt><trkpt lat="41.81059227991564" lon="19.597718287260257"><ele>5.0</ele><time>2026-05-03T08:00:29.999Z</time></trkpt><trkpt lat="41.810674724385315" lon="19.597612028816453"><ele>5.0</ele><time>2026-05-03T08:00:30.999Z</time></trkpt><trkpt lat="41.81075986829643" lon="19.597518313873678"><ele>5.0</ele><time>2026-05-03T08:00:31.999Z</time></trkpt><trkpt lat="41.810842388904405" lon="19.597425132520645"><ele>5.0</ele><time>2026-05-03T08:00:32.999Z</time></trkpt><trkpt lat="41.81092562424795" lon="19.597342319011805"><ele>5.0</ele><time>2026-05-03T08:00:33.999Z</time></trkpt><trkpt lat="41.811001390622145" lon="19.59726204582915"><ele>5.0</ele><time>2026-05-03T08:00:34.999Z</time></trkpt><trkpt lat="41.8110693566871" lon="19.59718785406739"><ele>5.0</ele><time>2026-05-03T08:00:35.999Z</time></trkpt><trkpt lat="41.81112924890757" lon="19.597117135352093"><ele>5.0</ele><time>2026-05-03T08:00:36.999Z</time></trkpt><trkpt lat="41.81118428567569" lon="19.5970494275349"><ele>5.0</ele><time>2026-05-03T08:00:37.999Z</time></trkpt><trkpt lat="41.81123765815538" lon="19.596982797016544"><ele>5.0</ele><time>2026-05-03T08:00:38.999Z</time></trkpt><trkpt lat="41.81129679754583" lon="19.596907824228943"><ele>5.0</ele><time>2026-05-03T08:00:39.999Z</time></trkpt><trkpt lat="41.81136210530716" lon="19.59682531552578"><ele>5.0</ele><time>2026-05-03T08:00:40.999Z</time></trkpt><trkpt lat="41.81142979062599" lon="19.596745277618115"><ele>5.0</ele><time>2026-05-03T08:00:41.999Z</time></trkpt><trkpt lat="41.811496797907054" lon="19.596665779972042"><ele>5.0</ele><time>2026-05-03T08:00:42.999Z</time></trkpt><trkpt lat="41.81156427712069" lon="19.59658228220047"><ele>5.0</ele><time>2026-05-03T08:00:43.999Z</time></trkpt><trkpt lat="41.81162447427074" lon="19.59650334927593"><ele>5.0</ele><time>2026-05-03T08:00:44.999Z</time></trkpt><trkpt lat="41.81168045595306" lon="19.596432869069062"><ele>5.0</ele><time>2026-05-03T08:00:45.999Z</time></trkpt><trkpt lat="41.811733490395234" lon="19.596373334944843"><ele>5.0</ele><time>2026-05-03T08:00:46.999Z</time></trkpt><trkpt lat="41.81178455000028" lon="19.59631693437185"><ele>5.0</ele><time>2026-05-03T08:00:47.999Z</time></trkpt><trkpt lat="41.811867266094374" lon="19.596220842887607"><ele>5.0</ele><time>2026-05-03T08:00:49.999Z</time></trkpt><trkpt lat="41.81194193701064" lon="19.59614132207712"><ele>5.0</ele><time>2026-05-03T08:00:51.999Z</time></trkpt><trkpt lat="41.81198425506522" lon="19.5960721149904"><ele>5.0</ele><time>2026-05-03T08:00:54.999Z</time></trkpt><trkpt lat="41.812026277655036" lon="19.595997049086144"><ele>5.0</ele><time>2026-05-03T08:00:56.999Z</time></trkpt><trkpt lat="41.81210464832564" lon="19.595872707901066"><ele>4.5</ele><time>2026-05-03T08:00:58.999Z</time></trkpt><trkpt lat="41.81215325530087" lon="19.595791634726105"><ele>4.0</ele><time>2026-05-03T08:00:59.999Z</time></trkpt><trkpt lat="41.81220640955789" lon="19.59569823967587"><ele>3.5</ele><time>2026-05-03T08:01:00.999Z</time></trkpt><trkpt lat="41.812257353215436" lon="19.59560979675067"><ele>3.0</ele><time>2026-05-03T08:01:01.999Z</time></trkpt><trkpt lat="41.81231357022129" lon="19.59551469581455"><ele>2.5</ele><time>2026-05-03T08:01:02.999Z</time></trkpt><trkpt lat="41.812370733711425" lon="19.595410785466154"><ele>2.0</ele><time>2026-05-03T08:01:03.999Z</time></trkpt><trkpt lat="41.81241691456668" lon="19.59530210173394"><ele>2.0</ele><time>2026-05-03T08:01:04.999Z</time></trkpt><trkpt lat="41.812459623129456" lon="19.59519261485688"><ele>2.0</ele><time>2026-05-03T08:01:05.999Z</time></trkpt><trkpt lat="41.812509398676745" lon="19.595080476733997"><ele>2.0</ele><time>2026-05-03T08:01:06.999Z</time></trkpt><trkpt lat="41.812566957033475" lon="19.59496844873716"><ele>2.0</ele><time>2026-05-03T08:01:07.999Z</time></trkpt><trkpt lat="41.81262298445669" lon="19.594852754403174"><ele>2.0</ele><time>2026-05-03T08:01:08.999Z</time></trkpt><trkpt lat="41.81268128174114" lon="19.59473800429161"><ele>1.8</ele><time>2026-05-03T08:01:09.999Z</time></trkpt><trkpt lat="41.81273998782314" lon="19.59462545221765"><ele>1.6</ele><time>2026-05-03T08:01:10.999Z</time></trkpt><trkpt lat="41.81280235785634" lon="19.594508746803864"><ele>1.4000000000000001</ele><time>2026-05-03T08:01:11.999Z</time></trkpt><trkpt lat="41.812862246425986" lon="19.594396942882092"><ele>1.2000000000000002</ele><time>2026-05-03T08:01:12.999Z</time></trkpt><trkpt lat="41.81292632275866" lon="19.59427988717264"><ele>1.0</ele><time>2026-05-03T08:01:13.999Z</time></trkpt><trkpt lat="41.81298836505108" lon="19.59416441644856"><ele>1.0</ele><time>2026-05-03T08:01:14.999Z</time></trkpt><trkpt lat="41.81304826743433" lon="19.594052617668"><ele>1.0</ele><time>2026-05-03T08:01:15.999Z</time></trkpt><trkpt lat="41.813106328131845" lon="19.593944524892688"><ele>1.0</ele><time>2026-05-03T08:01:16.999Z</time></trkpt><trkpt lat="41.81316247373826" lon="19.59384230892123"><ele>1.0</ele><time>2026-05-03T08:01:17.999Z</time></trkpt><trkpt lat="41.81321555671911" lon="19.593743945101725"><ele>1.0</ele><time>2026-05-03T08:01:18.999Z</time></trkpt><trkpt lat="41.81326432181744" lon="19.593645163997966"><ele>0.9999999999999999</ele><time>2026-05-03T08:01:19.999Z</time></trkpt><trkpt lat="41.813313145748275" lon="19.59354940610304"><ele>1.0</ele><time>2026-05-03T08:01:20.999Z</time></trkpt><trkpt lat="41.81336426619714" lon="19.593459693202334"><ele>1.0</ele><time>2026-05-03T08:01:21.999Z</time></trkpt><trkpt lat="41.813411363393875" lon="19.593369067054468"><ele>1.0</ele><time>2026-05-03T08:01:22.999Z</time></trkpt><trkpt lat="41.81345465329037" lon="19.59328234720651"><ele>0.9999999999999999</ele><time>2026-05-03T08:01:23.999Z</time></trkpt><trkpt lat="41.813495582831976" lon="19.59320268415734"><ele>1.0</ele><time>2026-05-03T08:01:24.999Z</time></trkpt><trkpt lat="41.81353516190994" lon="19.59312866308423"><ele>0.9999999999999999</ele><time>2026-05-03T08:01:25.999Z</time></trkpt><trkpt lat="41.813576311267354" lon="19.59304722480457"><ele>1.0</ele><time>2026-05-03T08:01:26.999Z</time></trkpt><trkpt lat="41.81362028085391" lon="19.59294375059311"><ele>1.0</ele><time>2026-05-03T08:01:27.999Z</time></trkpt><trkpt lat="41.813669921849744" lon="19.592829676131533"><ele>1.0</ele><time>2026-05-03T08:01:28.999Z</time></trkpt><trkpt lat="41.813724975078145" lon="19.59272402785589"><ele>0.9999999999999999</ele><time>2026-05-03T08:01:29.999Z</time></trkpt><trkpt lat="41.81377774185533" lon="19.592634007382173"><ele>1.0</ele><time>2026-05-03T08:01:30.999Z</time></trkpt><trkpt lat="41.81382349051891" lon="19.592559020099227"><ele>0.9999999999999999</ele><time>2026-05-03T08:01:31.999Z</time></trkpt><trkpt lat="41.81389234179412" lon="19.59243409942674"><ele>1.0</ele><time>2026-05-03T08:01:33.999Z</time></trkpt><trkpt lat="41.81394827996895" lon="19.592302412487197"><ele>1.0</ele><time>2026-05-03T08:01:35.999Z</time></trkpt><trkpt lat="41.81399734535336" lon="19.592236518981704"><ele>1.0</ele><time>2026-05-03T08:01:36.999Z</time></trkpt><trkpt lat="41.81404775317346" lon="19.592169171599625"><ele>0.9999999999999999</ele><time>2026-05-03T08:01:37.999Z</time></trkpt><trkpt lat="41.814092318067274" lon="19.592093850536646"><ele>1.0</ele><time>2026-05-03T08:01:38.999Z</time></trkpt><trkpt lat="41.81413548736019" lon="19.59200830707482"><ele>0.8</ele><time>2026-05-03T08:01:39.999Z</time></trkpt><trkpt lat="41.81417674770175" lon="19.59192038643761"><ele>0.6000000000000001</ele><time>2026-05-03T08:01:40.999Z</time></trkpt><trkpt lat="41.81422337189303" lon="19.591828951967557"><ele>0.4</ele><time>2026-05-03T08:01:41.999Z</time></trkpt><trkpt lat="41.814277497815546" lon="19.59172525866664"><ele>0.2</ele><time>2026-05-03T08:01:42.999Z</time></trkpt><trkpt lat="41.814340064281645" lon="19.591610846416735"><ele>0.0</ele><time>2026-05-03T08:01:43.999Z</time></trkpt><trkpt lat="41.814401783227446" lon="19.591491899702174"><ele>0.4</ele><time>2026-05-03T08:01:44.999Z</time></trkpt><trkpt lat="41.81446694078109" lon="19.59136539739952"><ele>0.8</ele><time>2026-05-03T08:01:45.999Z</time></trkpt><trkpt lat="41.814532171344005" lon="19.59124278024672"><ele>1.2000000000000002</ele><time>2026-05-03T08:01:46.999Z</time></trkpt><trkpt lat="41.81459416305624" lon="19.591126038393192"><ele>1.6</ele><time>2026-05-03T08:01:47.999Z</time></trkpt><trkpt lat="41.814652039849655" lon="19.591024503876785"><ele>2.0</ele><time>2026-05-03T08:01:49Z</time></trkpt><trkpt lat="41.81470748935462" lon="19.59093007580794"><ele>2.0</ele><time>2026-05-03T08:01:50Z</time></trkpt><trkpt lat="41.814761583307" lon="19.59082494735956"><ele>2.0</ele><time>2026-05-03T08:01:51Z</time></trkpt><trkpt lat="41.81481472861009" lon="19.59071279616658"><ele>2.0</ele><time>2026-05-03T08:01:52Z</time></trkpt><trkpt lat="41.81486950935803" lon="19.59060017997111"><ele>2.0</ele><time>2026-05-03T08:01:53Z</time></trkpt><trkpt lat="41.81492709746633" lon="19.590480262528217"><ele>2.0</ele><time>2026-05-03T08:01:54Z</time></trkpt><trkpt lat="41.81498023029181" lon="19.590356385340893"><ele>1.9999999999999998</ele><time>2026-05-03T08:01:55Z</time></trkpt><trkpt lat="41.815021702216185" lon="19.59023677977189"><ele>2.0</ele><time>2026-05-03T08:01:56Z</time></trkpt><trkpt lat="41.81504687574516" lon="19.590148304727933"><ele>2.0</ele><time>2026-05-03T08:01:57Z</time></trkpt><trkpt lat="41.81507499031136" lon="19.59004096235337"><ele>2.0</ele><time>2026-05-03T08:01:59Z</time></trkpt><trkpt lat="41.815094867012974" lon="19.589949193400013"><ele>1.9999999999999998</ele><time>2026-05-03T08:02:02Z</time></trkpt><trkpt lat="41.815121643692194" lon="19.5898521287017"><ele>2.0</ele><time>2026-05-03T08:02:06Z</time></trkpt><trkpt lat="41.8151863241337" lon="19.58976668678129"><ele>3.333333333333333</ele><time>2026-05-03T08:02:09Z</time></trkpt><trkpt lat="41.8152559213764" lon="19.589768194696376"><ele>4.666666666666667</ele><time>2026-05-03T08:02:12Z</time></trkpt><trkpt lat="41.81535914257262" lon="19.58975012725095"><ele>6.0</ele><time>2026-05-03T08:02:15Z</time></trkpt><trkpt lat="41.8154401373971" lon="19.58972634019213"><ele>7.333333333333334</ele><time>2026-05-03T08:02:18Z</time></trkpt><trkpt lat="41.81551744211639" lon="19.589706234582604"><ele>8.666666666666668</ele><time>2026-05-03T08:02:19Z</time></trkpt><trkpt lat="41.81559076468021" lon="19.589647992698303"><ele>10.0</ele><time>2026-05-03T08:02:20Z</time></trkpt><trkpt lat="41.81566459390801" lon="19.589604674567028"><ele>10.0</ele><time>2026-05-03T08:02:21Z</time></trkpt><trkpt lat="41.815746336498584" lon="19.589560136450686"><ele>10.0</ele><time>2026-05-03T08:02:22Z</time></trkpt><trkpt lat="41.815844332685145" lon="19.589515023735682"><ele>10.0</ele><time>2026-05-03T08:02:23Z</time></trkpt><trkpt lat="41.81594299823566" lon="19.589476533781568"><ele>10.0</ele><time>2026-05-03T08:02:24Z</time></trkpt><trkpt lat="41.816050912428636" lon="19.589432483861764"><ele>10.0</ele><time>2026-05-03T08:02:25Z</time></trkpt><trkpt lat="41.81616540488169" lon="19.589384524804423"><ele>8.5</ele><time>2026-05-03T08:02:26Z</time></trkpt><trkpt lat="41.816287358642136" lon="19.5893359495238"><ele>7.0</ele><time>2026-05-03T08:02:27Z</time></trkpt><trkpt lat="41.816404565657365" lon="19.5892738267989"><ele>5.5</ele><time>2026-05-03T08:02:28Z</time></trkpt><trkpt lat="41.81650849019257" lon="19.58918743500487"><ele>4.0</ele><time>2026-05-03T08:02:29Z</time></trkpt><trkpt lat="41.81660469703725" lon="19.589084590560557"><ele>4.0</ele><time>2026-05-03T08:02:30Z</time></trkpt><trkpt lat="41.816703557554696" lon="19.588996174669404"><ele>4.0</ele><time>2026-05-03T08:02:31Z</time></trkpt><trkpt lat="41.816803775693046" lon="19.5889583872386"><ele>4.0</ele><time>2026-05-03T08:02:32Z</time></trkpt><trkpt lat="41.8169106178081" lon="19.58896296367185"><ele>4.0</ele><time>2026-05-03T08:02:33Z</time></trkpt><trkpt lat="41.817014631449744" lon="19.58896798731925"><ele>4.0</ele><time>2026-05-03T08:02:34Z</time></trkpt><trkpt lat="41.817093208476294" lon="19.58892922975273"><ele>9.2</ele><time>2026-05-03T08:02:34.999Z</time></trkpt><trkpt lat="41.817151452018756" lon="19.58885690954591"><ele>14.4</ele><time>2026-05-03T08:02:35.999Z</time></trkpt><trkpt lat="41.817180073410235" lon="19.588740929623082"><ele>19.6</ele><time>2026-05-03T08:02:36.999Z</time></trkpt><trkpt lat="41.81717213555709" lon="19.58860880111381"><ele>24.8</ele><time>2026-05-03T08:02:37.999Z</time></trkpt><trkpt lat="41.81712489772202" lon="19.58846462487015"><ele>30.0</ele><time>2026-05-03T08:02:38.999Z</time></trkpt><trkpt lat="41.81704744000038" lon="19.588310909085834"><ele>30.333333333333336</ele><time>2026-05-03T08:02:39.999Z</time></trkpt><trkpt lat="41.816959131829876" lon="19.58814149741522"><ele>30.666666666666668</ele><time>2026-05-03T08:02:40.999Z</time></trkpt><trkpt lat="41.81687102704485" lon="19.587968573561234"><ele>31.0</ele><time>2026-05-03T08:02:41.999Z</time></trkpt><trkpt lat="41.816787292089955" lon="19.587793732156584"><ele>27.5</ele><time>2026-05-03T08:02:42.999Z</time></trkpt><trkpt lat="41.81670896177299" lon="19.587615483718047"><ele>24.0</ele><time>2026-05-03T08:02:43.999Z</time></trkpt><trkpt lat="41.816645389234665" lon="19.587449077193178"><ele>20.5</ele><time>2026-05-03T08:02:44.999Z</time></trkpt><trkpt lat="41.81661322448658" lon="19.587283697489056"><ele>17.0</ele><time>2026-05-03T08:02:45.999Z</time></trkpt><trkpt lat="41.816594230879765" lon="19.587092882097785"><ele>21.333333333333336</ele><time>2026-05-03T08:02:46.999Z</time></trkpt><trkpt lat="41.81658979657369" lon="19.586881840527873"><ele>25.666666666666668</ele><time>2026-05-03T08:02:47.999Z</time></trkpt><trkpt lat="41.81659114029793" lon="19.58666430132608"><ele>30.0</ele><time>2026-05-03T08:02:48.999Z</time></trkpt><trkpt lat="41.81659506970122" lon="19.586434117436966"><ele>30.0</ele><time>2026-05-03T08:02:49.999Z</time></trkpt><trkpt lat="41.816601543258656" lon="19.586200293916363"><ele>30.0</ele><time>2026-05-03T08:02:50.999Z</time></trkpt><trkpt lat="41.81660567624457" lon="19.585965519586537"><ele>30.0</ele><time>2026-05-03T08:02:51.999Z</time></trkpt><trkpt lat="41.81660216622719" lon="19.585728227356345"><ele>31.666666666666664</ele><time>2026-05-03T08:02:52.999Z</time></trkpt><trkpt lat="41.81659699011594" lon="19.58549347818145"><ele>33.33333333333333</ele><time>2026-05-03T08:02:53.999Z</time></trkpt><trkpt lat="41.81659276303932" lon="19.585261924526947"><ele>35.0</ele><time>2026-05-03T08:02:54.999Z</time></trkpt><trkpt lat="41.81658798002892" lon="19.585029427635085"><ele>35.75</ele><time>2026-05-03T08:02:55.999Z</time></trkpt><trkpt lat="41.816586896229246" lon="19.58482064075438"><ele>36.5</ele><time>2026-05-03T08:02:56.999Z</time></trkpt><trkpt lat="41.81658767752187" lon="19.584632883414198"><ele>37.25</ele><time>2026-05-03T08:02:57.999Z</time></trkpt><trkpt lat="41.81657880007897" lon="19.584456306566885"><ele>38.0</ele><time>2026-05-03T08:02:58.999Z</time></trkpt><trkpt lat="41.81657215643935" lon="19.58428332172717"><ele>39.2</ele><time>2026-05-03T08:02:59.999Z</time></trkpt><trkpt lat="41.816591088251855" lon="19.58411387547667"><ele>40.4</ele><time>2026-05-03T08:03:00.999Z</time></trkpt><trkpt lat="41.81662846142285" lon="19.583967686844066"><ele>41.6</ele><time>2026-05-03T08:03:01.999Z</time></trkpt><trkpt lat="41.81665344358148" lon="19.58384037755465"><ele>42.800000000000004</ele><time>2026-05-03T08:03:02.999Z</time></trkpt><trkpt lat="41.81664420856408" lon="19.583735001348835"><ele>44.0</ele><time>2026-05-03T08:03:03.999Z</time></trkpt><trkpt lat="41.81659779235168" lon="19.58366966925977"><ele>44.0</ele><time>2026-05-03T08:03:04.999Z</time></trkpt><trkpt lat="41.816524032907225" lon="19.583631302913574"><ele>44.0</ele><time>2026-05-03T08:03:05.999Z</time></trkpt><trkpt lat="41.8164300388445" lon="19.583644627014547"><ele>44.0</ele><time>2026-05-03T08:03:06.999Z</time></trkpt><trkpt lat="41.81631343090748" lon="19.583675930055833"><ele>44.0</ele><time>2026-05-03T08:03:07.999Z</time></trkpt><trkpt lat="41.816167110226" lon="19.583699026694003"><ele>44.0</ele><time>2026-05-03T08:03:08.999Z</time></trkpt><trkpt lat="41.81600301363659" lon="19.5837169100704"><ele>42.33333333333333</ele><time>2026-05-03T08:03:09.999Z</time></trkpt><trkpt lat="41.81584389823559" lon="19.583741647659213"><ele>40.666666666666664</ele><time>2026-05-03T08:03:10.999Z</time></trkpt><trkpt lat="41.81567359306615" lon="19.583766316726138"><ele>39.0</ele><time>2026-05-03T08:03:11.999Z</time></trkpt><trkpt lat="41.81549950723602" lon="19.583770904199742"><ele>39.0</ele><time>2026-05-03T08:03:12.999Z</time></trkpt><trkpt lat="41.81532371931404" lon="19.583762320972223"><ele>39.0</ele><time>2026-05-03T08:03:13.999Z</time></trkpt><trkpt lat="41.815152840866794" lon="19.583745410400493"><ele>39.0</ele><time>2026-05-03T08:03:14.999Z</time></trkpt><trkpt lat="41.81499307190109" lon="19.583709253772646"><ele>44.75</ele><time>2026-05-03T08:03:15.999Z</time></trkpt><trkpt lat="41.81484356146885" lon="19.583664392968462"><ele>50.5</ele><time>2026-05-03T08:03:16.999Z</time></trkpt><trkpt lat="41.81470668492795" lon="19.583608955438567"><ele>56.25</ele><time>2026-05-03T08:03:17.999Z</time></trkpt><trkpt lat="41.814583291819105" lon="19.58354011357103"><ele>62.0</ele><time>2026-05-03T08:03:18.999Z</time></trkpt><trkpt lat="41.81447171223345" lon="19.58345351492892"><ele>62.0</ele><time>2026-05-03T08:03:19.999Z</time></trkpt><trkpt lat="41.814366193248716" lon="19.58337279741217"><ele>62.0</ele><time>2026-05-03T08:03:20.999Z</time></trkpt><trkpt lat="41.81427991391789" lon="19.583303291385697"><ele>62.0</ele><time>2026-05-03T08:03:21.999Z</time></trkpt><trkpt lat="41.81421010012811" lon="19.583241714231576"><ele>62.0</ele><time>2026-05-03T08:03:22.999Z</time></trkpt><trkpt lat="41.81415434135257" lon="19.583195273052695"><ele>62.0</ele><time>2026-05-03T08:03:23.999Z</time></trkpt><trkpt lat="41.81408595846421" lon="19.58310337375562"><ele>61.400000000000006</ele><time>2026-05-03T08:03:25.999Z</time></trkpt><trkpt lat="41.814087166574204" lon="19.58299345228485"><ele>60.800000000000004</ele><time>2026-05-03T08:03:27.999Z</time></trkpt><trkpt lat="41.81417002347263" lon="19.582847648288087"><ele>60.2</ele><time>2026-05-03T08:03:29.999Z</time></trkpt><trkpt lat="41.81422996077044" lon="19.58275761486997"><ele>59.6</ele><time>2026-05-03T08:03:30.999Z</time></trkpt><trkpt lat="41.8142978955199" lon="19.58264038614052"><ele>59.0</ele><time>2026-05-03T08:03:31.999Z</time></trkpt><trkpt lat="41.81436438911476" lon="19.58250871530403"><ele>61.400000000000006</ele><time>2026-05-03T08:03:32.999Z</time></trkpt><trkpt lat="41.81442784470128" lon="19.582377409052683"><ele>63.800000000000004</ele><time>2026-05-03T08:03:33.999Z</time></trkpt><trkpt lat="41.81448387348597" lon="19.58225616758402"><ele>66.19999999999999</ele><time>2026-05-03T08:03:34.999Z</time></trkpt><trkpt lat="41.81453748820371" lon="19.582149356293655"><ele>68.6</ele><time>2026-05-03T08:03:35.999Z</time></trkpt><trkpt lat="41.814589494724984" lon="19.582048288156855"><ele>71.0</ele><time>2026-05-03T08:03:36.999Z</time></trkpt><trkpt lat="41.814636677393935" lon="19.581950165250273"><ele>72.39999999999999</ele><time>2026-05-03T08:03:37.999Z</time></trkpt><trkpt lat="41.814706014426335" lon="19.581809885881718"><ele>73.8</ele><time>2026-05-03T08:03:38.999Z</time></trkpt><trkpt lat="41.81478697707905" lon="19.581686140643765"><ele>75.19999999999999</ele><time>2026-05-03T08:03:39.999Z</time></trkpt><trkpt lat="41.81484704886472" lon="19.581603242718923"><ele>76.6</ele><time>2026-05-03T08:03:40.999Z</time></trkpt><trkpt lat="41.81485967785772" lon="19.58151741313006"><ele>78.0</ele><time>2026-05-03T08:03:41.999Z</time></trkpt><trkpt lat="41.81483780483158" lon="19.581396707767187"><ele>78.0</ele><time>2026-05-03T08:03:42.999Z</time></trkpt><trkpt lat="41.81480150089238" lon="19.58123721308983"><ele>78.0</ele><time>2026-05-03T08:03:43.999Z</time></trkpt><trkpt lat="41.8147720872661" lon="19.581068816062505"><ele>78.0</ele><time>2026-05-03T08:03:44.999Z</time></trkpt><trkpt lat="41.814740231528184" lon="19.58089190666219"><ele>78.0</ele><time>2026-05-03T08:03:45.999Z</time></trkpt><trkpt lat="41.814707394428055" lon="19.58070836699767"><ele>79.0</ele><time>2026-05-03T08:03:46.999Z</time></trkpt><trkpt lat="41.81468022971267" lon="19.58051937791959"><ele>80.0</ele><time>2026-05-03T08:03:47.999Z</time></trkpt><trkpt lat="41.814661096078424" lon="19.580321694011577"><ele>81.0</ele><time>2026-05-03T08:03:48.999Z</time></trkpt><trkpt lat="41.81466121768945" lon="19.580139506919906"><ele>82.0</ele><time>2026-05-03T08:03:49.999Z</time></trkpt><trkpt lat="41.81468548621151" lon="19.579991806957928"><ele>82.0</ele><time>2026-05-03T08:03:50.999Z</time></trkpt><trkpt lat="41.81474087059619" lon="19.579867227207586"><ele>82.0</ele><time>2026-05-03T08:03:51.999Z</time></trkpt><trkpt lat="41.81482032748502" lon="19.57973511353066"><ele>82.0</ele><time>2026-05-03T08:03:52.999Z</time></trkpt><trkpt lat="41.81489951885983" lon="19.579595784404948"><ele>82.0</ele><time>2026-05-03T08:03:53.999Z</time></trkpt><trkpt lat="41.81498921523411" lon="19.57943412093773"><ele>82.0</ele><time>2026-05-03T08:03:55Z</time></trkpt><trkpt lat="41.81508542150206" lon="19.579267706504424"><ele>82.0</ele><time>2026-05-03T08:03:56Z</time></trkpt><trkpt lat="41.815190534991544" lon="19.57909775485994"><ele>82.0</ele><time>2026-05-03T08:03:57Z</time></trkpt><trkpt lat="41.81530538478223" lon="19.578914232940193"><ele>86.33333333333333</ele><time>2026-05-03T08:03:58Z</time></trkpt><trkpt lat="41.81542664976108" lon="19.578711137668297"><ele>90.66666666666667</ele><time>2026-05-03T08:03:59Z</time></trkpt><trkpt lat="41.81556193999734" lon="19.578489205682043"><ele>95.0</ele><time>2026-05-03T08:04:00Z</time></trkpt><trkpt lat="41.81570715070109" lon="19.578261318018345"><ele>95.0</ele><time>2026-05-03T08:04:01Z</time></trkpt><trkpt lat="41.81584937628258" lon="19.57804263359352"><ele>95.0</ele><time>2026-05-03T08:04:02Z</time></trkpt><trkpt lat="41.816010384280084" lon="19.57783081092655"><ele>95.0</ele><time>2026-05-03T08:04:03Z</time></trkpt><trkpt lat="41.816185697772035" lon="19.57763364431085"><ele>101.0</ele><time>2026-05-03T08:04:04Z</time></trkpt><trkpt lat="41.81637057955478" lon="19.577451959018266"><ele>107.0</ele><time>2026-05-03T08:04:05Z</time></trkpt><trkpt lat="41.816545312664225" lon="19.577264608451397"><ele>107.0</ele><time>2026-05-03T08:04:06Z</time></trkpt><trkpt lat="41.8166942456003" lon="19.577039691401094"><ele>107.0</ele><time>2026-05-03T08:04:07Z</time></trkpt><trkpt lat="41.81682108871863" lon="19.57676899552949"><ele>111.5</ele><time>2026-05-03T08:04:08Z</time></trkpt><trkpt lat="41.81693741050932" lon="19.576469062277873"><ele>116.0</ele><time>2026-05-03T08:04:09Z</time></trkpt><trkpt lat="41.81706494446847" lon="19.57617055850768"><ele>116.0</ele><time>2026-05-03T08:04:10Z</time></trkpt><trkpt lat="41.817195287481475" lon="19.57592897701851"><ele>116.0</ele><time>2026-05-03T08:04:11Z</time></trkpt><trkpt lat="41.81732702377594" lon="19.575733754497364"><ele>116.0</ele><time>2026-05-03T08:04:12Z</time></trkpt><trkpt lat="41.81746558518097" lon="19.57559291531743"><ele>116.0</ele><time>2026-05-03T08:04:13Z</time></trkpt><trkpt lat="41.81762903870719" lon="19.575479826142853"><ele>116.0</ele><time>2026-05-03T08:04:14Z</time></trkpt><trkpt lat="41.81781452687712" lon="19.575395989645514"><ele>116.0</ele><time>2026-05-03T08:04:15Z</time></trkpt><trkpt lat="41.81801258177499" lon="19.57532226245483"><ele>115.66666666666666</ele><time>2026-05-03T08:04:16Z</time></trkpt><trkpt lat="41.81821732215752" lon="19.575251481398254"><ele>115.33333333333334</ele><time>2026-05-03T08:04:17Z</time></trkpt><trkpt lat="41.818422581308" lon="19.57515732458318"><ele>115.0</ele><time>2026-05-03T08:04:18Z</time></trkpt><trkpt lat="41.818613063544284" lon="19.57501313976234"><ele>115.0</ele><time>2026-05-03T08:04:19Z</time></trkpt><trkpt lat="41.81878712569484" lon="19.574836326296705"><ele>115.0</ele><time>2026-05-03T08:04:20Z</time></trkpt><trkpt lat="41.81895412235561" lon="19.574651642953622"><ele>115.0</ele><time>2026-05-03T08:04:21Z</time></trkpt><trkpt lat="41.81911340225045" lon="19.574458764825803"><ele>114.33333333333334</ele><time>2026-05-03T08:04:22Z</time></trkpt><trkpt lat="41.81926139860717" lon="19.574262280520006"><ele>113.66666666666666</ele><time>2026-05-03T08:04:23Z</time></trkpt><trkpt lat="41.81938618099026" lon="19.574083133323104"><ele>113.0</ele><time>2026-05-03T08:04:24Z</time></trkpt><trkpt lat="41.81948947929727" lon="19.573900492236444"><ele>115.0</ele><time>2026-05-03T08:04:25Z</time></trkpt><trkpt lat="41.8195635871722" lon="19.573692253717848"><ele>117.0</ele><time>2026-05-03T08:04:26Z</time></trkpt><trkpt lat="41.81961080030362" lon="19.573452618105264"><ele>119.0</ele><time>2026-05-03T08:04:27Z</time></trkpt><trkpt lat="41.81964429172874" lon="19.57318938886516"><ele>119.66666666666666</ele><time>2026-05-03T08:04:28Z</time></trkpt><trkpt lat="41.819702847855986" lon="19.57292807755988"><ele>120.33333333333334</ele><time>2026-05-03T08:04:29Z</time></trkpt><trkpt lat="41.81979964843881" lon="19.57266126289296"><ele>121.0</ele><time>2026-05-03T08:04:30Z</time></trkpt><trkpt lat="41.81992482617783" lon="19.572384999401024"><ele>121.0</ele><time>2026-05-03T08:04:31Z</time></trkpt><trkpt lat="41.82005457265626" lon="19.572116587506898"><ele>121.0</ele><time>2026-05-03T08:04:32Z</time></trkpt><trkpt lat="41.82018547999494" lon="19.571833130973403"><ele>123.5</ele><time>2026-05-03T08:04:33Z</time></trkpt><trkpt lat="41.82029424606516" lon="19.571527513475257"><ele>126.0</ele><time>2026-05-03T08:04:34Z</time></trkpt><trkpt lat="41.82036979385615" lon="19.571200061419102"><ele>125.5</ele><time>2026-05-03T08:04:35Z</time></trkpt><trkpt lat="41.82041381937565" lon="19.5708574612687"><ele>125.0</ele><time>2026-05-03T08:04:36Z</time></trkpt><trkpt lat="41.82043559911416" lon="19.57050618924211"><ele>125.0</ele><time>2026-05-03T08:04:37Z</time></trkpt><trkpt lat="41.82046114290702" lon="19.57017877372378"><ele>125.0</ele><time>2026-05-03T08:04:38Z</time></trkpt><trkpt lat="41.820508170565944" lon="19.569889054754995"><ele>125.0</ele><time>2026-05-03T08:04:39Z</time></trkpt><trkpt lat="41.82057255262817" lon="19.569617528176337"><ele>125.0</ele><time>2026-05-03T08:04:40Z</time></trkpt><trkpt lat="41.820653628431685" lon="19.569342064420475"><ele>125.0</ele><time>2026-05-03T08:04:41Z</time></trkpt><trkpt lat="41.82075161337496" lon="19.569065035298376"><ele>125.0</ele><time>2026-05-03T08:04:42Z</time></trkpt><trkpt lat="41.820851714161726" lon="19.568777726303196"><ele>125.0</ele><time>2026-05-03T08:04:43Z</time></trkpt><trkpt lat="41.82095000069149" lon="19.568476278147664"><ele>128.0</ele><time>2026-05-03T08:04:44Z</time></trkpt><trkpt lat="41.82104789299128" lon="19.568162899644335"><ele>131.0</ele><time>2026-05-03T08:04:45Z</time></trkpt><trkpt lat="41.82114645163381" lon="19.567858003019804"><ele>131.0</ele><time>2026-05-03T08:04:46Z</time></trkpt><trkpt lat="41.82124270286786" lon="19.567591244108552"><ele>131.0</ele><time>2026-05-03T08:04:47Z</time></trkpt><trkpt lat="41.82135210047894" lon="19.56734241756062"><ele>131.0</ele><time>2026-05-03T08:04:48Z</time></trkpt><trkpt lat="41.82149240939909" lon="19.56710719337701"><ele>131.5</ele><time>2026-05-03T08:04:49Z</time></trkpt><trkpt lat="41.82166724284343" lon="19.566891696602465"><ele>132.0</ele><time>2026-05-03T08:04:50Z</time></trkpt><trkpt lat="41.82186601988079" lon="19.56668778374909"><ele>132.0</ele><time>2026-05-03T08:04:51Z</time></trkpt><trkpt lat="41.82208344865687" lon="19.566490510391088"><ele>132.0</ele><time>2026-05-03T08:04:52Z</time></trkpt><trkpt lat="41.822307929982806" lon="19.566287674355344"><ele>130.5</ele><time>2026-05-03T08:04:53Z</time></trkpt><trkpt lat="41.822536589015726" lon="19.566074582998336"><ele>129.0</ele><time>2026-05-03T08:04:54Z</time></trkpt><trkpt lat="41.82275777264089" lon="19.56586456529452"><ele>134.0</ele><time>2026-05-03T08:04:55Z</time></trkpt><trkpt lat="41.822971968051085" lon="19.56568341276547"><ele>139.0</ele><time>2026-05-03T08:04:56Z</time></trkpt><trkpt lat="41.82317782914623" lon="19.565530649691777"><ele>139.0</ele><time>2026-05-03T08:04:57Z</time></trkpt><trkpt lat="41.823387964960844" lon="19.565392017407202"><ele>139.0</ele><time>2026-05-03T08:04:58Z</time></trkpt><trkpt lat="41.823601699154565" lon="19.565264135147636"><ele>142.0</ele><time>2026-05-03T08:04:59Z</time></trkpt><trkpt lat="41.823812879618096" lon="19.565140236161273"><ele>145.0</ele><time>2026-05-03T08:05:00Z</time></trkpt><trkpt lat="41.82401957327482" lon="19.565009884020352"><ele>145.0</ele><time>2026-05-03T08:05:01Z</time></trkpt><trkpt lat="41.824226875150984" lon="19.564880691830375"><ele>145.0</ele><time>2026-05-03T08:05:02Z</time></trkpt><trkpt lat="41.82443126032927" lon="19.564756031516033"><ele>146.0</ele><time>2026-05-03T08:05:03Z</time></trkpt><trkpt lat="41.82462043918322" lon="19.564607001257894"><ele>147.0</ele><time>2026-05-03T08:05:04Z</time></trkpt><trkpt lat="41.824789640991064" lon="19.56440965973116"><ele>148.0</ele><time>2026-05-03T08:05:05Z</time></trkpt><trkpt lat="41.824953491876904" lon="19.5641844853668"><ele>156.0</ele><time>2026-05-03T08:05:06Z</time></trkpt><trkpt lat="41.82514847285068" lon="19.563974962153893"><ele>164.0</ele><time>2026-05-03T08:05:07Z</time></trkpt><trkpt lat="41.82537853293841" lon="19.563788295091584"><ele>159.5</ele><time>2026-05-03T08:05:08Z</time></trkpt><trkpt lat="41.82562131967419" lon="19.563612066099015"><ele>155.0</ele><time>2026-05-03T08:05:09Z</time></trkpt><trkpt lat="41.825855188838474" lon="19.563427841424243"><ele>163.0</ele><time>2026-05-03T08:05:10Z</time></trkpt><trkpt lat="41.82606689311042" lon="19.56321864741216"><ele>171.0</ele><time>2026-05-03T08:05:11Z</time></trkpt><trkpt lat="41.82624239766881" lon="19.562970281165317"><ele>170.5</ele><time>2026-05-03T08:05:12Z</time></trkpt><trkpt lat="41.82638718723892" lon="19.562696090528437"><ele>170.0</ele><time>2026-05-03T08:05:13Z</time></trkpt><trkpt lat="41.82652551598608" lon="19.562414561062276"><ele>170.0</ele><time>2026-05-03T08:05:14Z</time></trkpt><trkpt lat="41.82666472794363" lon="19.5621388735724"><ele>170.0</ele><time>2026-05-03T08:05:15Z</time></trkpt><trkpt lat="41.82680404081034" lon="19.561878981295845"><ele>175.5</ele><time>2026-05-03T08:05:16Z</time></trkpt><trkpt lat="41.82694833921669" lon="19.561636901058684"><ele>181.0</ele><time>2026-05-03T08:05:17Z</time></trkpt><trkpt lat="41.82709910132496" lon="19.56141201903543"><ele>180.0</ele><time>2026-05-03T08:05:18Z</time></trkpt><trkpt lat="41.827245138719185" lon="19.561192660383725"><ele>179.0</ele><time>2026-05-03T08:05:19Z</time></trkpt><trkpt lat="41.82739144650285" lon="19.56096617892253"><ele>178.0</ele><time>2026-05-03T08:05:20Z</time></trkpt><trkpt lat="41.82752658734239" lon="19.560741203368128"><ele>184.0</ele><time>2026-05-03T08:05:21Z</time></trkpt><trkpt lat="41.82765854815828" lon="19.560506908459537"><ele>190.0</ele><time>2026-05-03T08:05:21.999Z</time></trkpt><trkpt lat="41.82780869536697" lon="19.560265902994484"><ele>190.0</ele><time>2026-05-03T08:05:22.999Z</time></trkpt><trkpt lat="41.827978808082634" lon="19.560038659772793"><ele>190.0</ele><time>2026-05-03T08:05:23.999Z</time></trkpt><trkpt lat="41.82815991588731" lon="19.559818482594576"><ele>190.0</ele><time>2026-05-03T08:05:24.999Z</time></trkpt><trkpt lat="41.82834635079741" lon="19.55960180613869"><ele>190.0</ele><time>2026-05-03T08:05:25.999Z</time></trkpt><trkpt lat="41.82852995966627" lon="19.55938403865039"><ele>196.0</ele><time>2026-05-03T08:05:26.999Z</time></trkpt><trkpt lat="41.82872485008557" lon="19.559157418281"><ele>202.0</ele><time>2026-05-03T08:05:27.999Z</time></trkpt><trkpt lat="41.82893216564851" lon="19.558920143904697"><ele>198.5</ele><time>2026-05-03T08:05:28.999Z</time></trkpt><trkpt lat="41.82914023808946" lon="19.55867577947274"><ele>195.0</ele><time>2026-05-03T08:05:29.999Z</time></trkpt><trkpt lat="41.829316995027874" lon="19.55842557891044"><ele>203.0</ele><time>2026-05-03T08:05:30.999Z</time></trkpt><trkpt lat="41.82945546279783" lon="19.558131127344218"><ele>211.0</ele><time>2026-05-03T08:05:31.999Z</time></trkpt><trkpt lat="41.82957031197705" lon="19.557805019121123"><ele>211.5</ele><time>2026-05-03T08:05:32.999Z</time></trkpt><trkpt lat="41.82967668945867" lon="19.557464575851444"><ele>212.0</ele><time>2026-05-03T08:05:33.999Z</time></trkpt><trkpt lat="41.829793077179865" lon="19.557132335487104"><ele>212.5</ele><time>2026-05-03T08:05:34.999Z</time></trkpt><trkpt lat="41.82990308550354" lon="19.556839597767112"><ele>213.0</ele><time>2026-05-03T08:05:35.999Z</time></trkpt><trkpt lat="41.8300297208058" lon="19.55658169847958"><ele>218.0</ele><time>2026-05-03T08:05:36.999Z</time></trkpt><trkpt lat="41.83019185847479" lon="19.55635449603835"><ele>223.0</ele><time>2026-05-03T08:05:37.999Z</time></trkpt><trkpt lat="41.83038944082822" lon="19.55614327767096"><ele>223.0</ele><time>2026-05-03T08:05:38.999Z</time></trkpt><trkpt lat="41.830601502137014" lon="19.555929983767935"><ele>223.0</ele><time>2026-05-03T08:05:39.999Z</time></trkpt><trkpt lat="41.83081522353736" lon="19.555706995891477"><ele>229.0</ele><time>2026-05-03T08:05:40.999Z</time></trkpt><trkpt lat="41.831026309201356" lon="19.555468498432518"><ele>235.0</ele><time>2026-05-03T08:05:41.999Z</time></trkpt><trkpt lat="41.831250196190275" lon="19.55521515235849"><ele>235.0</ele><time>2026-05-03T08:05:42.999Z</time></trkpt><trkpt lat="41.831461512152266" lon="19.55496007674568"><ele>235.0</ele><time>2026-05-03T08:05:43.999Z</time></trkpt><trkpt lat="41.831667916244875" lon="19.554703477373028"><ele>240.5</ele><time>2026-05-03T08:05:44.999Z</time></trkpt><trkpt lat="41.83187167864231" lon="19.554448166395307"><ele>246.0</ele><time>2026-05-03T08:05:45.999Z</time></trkpt><trkpt lat="41.83206148206687" lon="19.554207627000018"><ele>246.0</ele><time>2026-05-03T08:05:46.999Z</time></trkpt><trkpt lat="41.83222946030808" lon="19.553984450419016"><ele>246.0</ele><time>2026-05-03T08:05:47.999Z</time></trkpt><trkpt lat="41.83236991305468" lon="19.55375139454923"><ele>245.0</ele><time>2026-05-03T08:05:48.999Z</time></trkpt><trkpt lat="41.832486529295295" lon="19.55346803637627"><ele>244.0</ele><time>2026-05-03T08:05:49.999Z</time></trkpt><trkpt lat="41.83257963010681" lon="19.55314276483838"><ele>250.5</ele><time>2026-05-03T08:05:50.999Z</time></trkpt><trkpt lat="41.83267749162185" lon="19.55280977144226"><ele>257.0</ele><time>2026-05-03T08:05:51.999Z</time></trkpt><trkpt lat="41.83278998460925" lon="19.552494220262815"><ele>257.0</ele><time>2026-05-03T08:05:52.999Z</time></trkpt><trkpt lat="41.83293171690182" lon="19.552199989675817"><ele>257.0</ele><time>2026-05-03T08:05:53.999Z</time></trkpt><trkpt lat="41.833095369221546" lon="19.551925351838502"><ele>256.0</ele><time>2026-05-03T08:05:54.999Z</time></trkpt><trkpt lat="41.833279892585416" lon="19.551678054530935"><ele>255.0</ele><time>2026-05-03T08:05:55.999Z</time></trkpt><trkpt lat="41.83348075079491" lon="19.551435575257102"><ele>258.0</ele><time>2026-05-03T08:05:56.999Z</time></trkpt><trkpt lat="41.833678967665804" lon="19.551189493194883"><ele>261.0</ele><time>2026-05-03T08:05:57.999Z</time></trkpt><trkpt lat="41.833855910453984" lon="19.550965820468196"><ele>261.0</ele><time>2026-05-03T08:05:58.999Z</time></trkpt><trkpt lat="41.83400453660385" lon="19.550775282471324"><ele>261.0</ele><time>2026-05-03T08:05:59.999Z</time></trkpt><trkpt lat="41.83412607568849" lon="19.550611769451848"><ele>261.0</ele><time>2026-05-03T08:06:01Z</time></trkpt><trkpt lat="41.83421691996152" lon="19.550469718394616"><ele>262.40000000000003</ele><time>2026-05-03T08:06:02Z</time></trkpt><trkpt lat="41.83428125719923" lon="19.55035971883415"><ele>263.8</ele><time>2026-05-03T08:06:03Z</time></trkpt><trkpt lat="41.83431664212978" lon="19.550286809383095"><ele>265.20000000000005</ele><time>2026-05-03T08:06:04Z</time></trkpt><trkpt lat="41.834360967822256" lon="19.550138356174802"><ele>266.6</ele><time>2026-05-03T08:06:13Z</time></trkpt><trkpt lat="41.83440210345377" lon="19.550023036873426"><ele>268.0</ele><time>2026-05-03T08:06:15Z</time></trkpt><trkpt lat="41.834436997317006" lon="19.54992837158606"><ele>268.0</ele><time>2026-05-03T08:06:18Z</time></trkpt><trkpt lat="41.83445769747028" lon="19.549844798354837"><ele>268.0</ele><time>2026-05-03T08:06:20Z</time></trkpt><trkpt lat="41.83448116326096" lon="19.549763442174097"><ele>268.0</ele><time>2026-05-03T08:06:23Z</time></trkpt><trkpt lat="41.834506877573226" lon="19.549685642682938"><ele>268.0</ele><time>2026-05-03T08:06:30Z</time></trkpt><trkpt lat="41.83454905925133" lon="19.549568386115542"><ele>268.0</ele><time>2026-05-03T08:06:32Z</time></trkpt><trkpt lat="41.83458275326029" lon="19.549449907091606"><ele>268.0</ele><time>2026-05-03T08:06:34Z</time></trkpt><trkpt lat="41.83462202341116" lon="19.549309688715365"><ele>268.0</ele><time>2026-05-03T08:06:36Z</time></trkpt><trkpt lat="41.83467019678046" lon="19.549158499243237"><ele>268.0</ele><time>2026-05-03T08:06:38Z</time></trkpt><trkpt lat="41.834693913029" lon="19.549077580903703"><ele>268.0</ele><time>2026-05-03T08:06:39Z</time></trkpt><trkpt lat="41.83472477447496" lon="19.548979120215837"><ele>268.0</ele><time>2026-05-03T08:06:40Z</time></trkpt><trkpt lat="41.83476633404494" lon="19.54885900579429"><ele>268.0</ele><time>2026-05-03T08:06:41Z</time></trkpt><trkpt lat="41.83480631391854" lon="19.54874274526857"><ele>267.5</ele><time>2026-05-03T08:06:42Z</time></trkpt><trkpt lat="41.83484418495042" lon="19.548616138959495"><ele>267.0</ele><time>2026-05-03T08:06:43Z</time></trkpt><trkpt lat="41.83488613426451" lon="19.548474724288113"><ele>266.5</ele><time>2026-05-03T08:06:44Z</time></trkpt><trkpt lat="41.83493577442767" lon="19.54831976598202"><ele>266.0</ele><time>2026-05-03T08:06:45Z</time></trkpt><trkpt lat="41.83498629547641" lon="19.548158679532136"><ele>266.0</ele><time>2026-05-03T08:06:46Z</time></trkpt><trkpt lat="41.83503672115358" lon="19.547976509219456"><ele>266.0</ele><time>2026-05-03T08:06:47Z</time></trkpt><trkpt lat="41.83509138226929" lon="19.54779696659846"><ele>266.0</ele><time>2026-05-03T08:06:48Z</time></trkpt><trkpt lat="41.83515458657992" lon="19.54763665629236"><ele>266.0</ele><time>2026-05-03T08:06:49Z</time></trkpt><trkpt lat="41.83520830065748" lon="19.54747444471155"><ele>267.75</ele><time>2026-05-03T08:06:50Z</time></trkpt><trkpt lat="41.835249152269846" lon="19.547302945361515"><ele>269.5</ele><time>2026-05-03T08:06:51Z</time></trkpt><trkpt lat="41.83528655628193" lon="19.547123030422068"><ele>271.25</ele><time>2026-05-03T08:06:52Z</time></trkpt><trkpt lat="41.8353137593086" lon="19.546940138846587"><ele>273.0</ele><time>2026-05-03T08:06:53Z</time></trkpt><trkpt lat="41.83532585487551" lon="19.54675397225495"><ele>274.0</ele><time>2026-05-03T08:06:54Z</time></trkpt><trkpt lat="41.83532353120639" lon="19.546562640565448"><ele>275.0</ele><time>2026-05-03T08:06:55Z</time></trkpt><trkpt lat="41.83531521450229" lon="19.54638117562118"><ele>276.0</ele><time>2026-05-03T08:06:56Z</time></trkpt><trkpt lat="41.83529925945208" lon="19.546212475656176"><ele>277.0</ele><time>2026-05-03T08:06:57Z</time></trkpt><trkpt lat="41.83527476544004" lon="19.546050252529312"><ele>277.0</ele><time>2026-05-03T08:06:58Z</time></trkpt><trkpt lat="41.83524763190681" lon="19.545900864807983"><ele>277.0</ele><time>2026-05-03T08:06:59Z</time></trkpt><trkpt lat="41.835219560773695" lon="19.545765184186042"><ele>277.0</ele><time>2026-05-03T08:07:00Z</time></trkpt><trkpt lat="41.83518349196332" lon="19.545663458389818"><ele>277.0</ele><time>2026-05-03T08:07:01Z</time></trkpt><trkpt lat="41.83507904141015" lon="19.54559784096165"><ele>277.0</ele><time>2026-05-03T08:07:03Z</time></trkpt><trkpt lat="41.835011512456994" lon="19.545604276261084"><ele>275.8</ele><time>2026-05-03T08:07:04Z</time></trkpt><trkpt lat="41.83494506114566" lon="19.54559363113697"><ele>274.6</ele><time>2026-05-03T08:07:05Z</time></trkpt><trkpt lat="41.834891637368344" lon="19.545419343224637"><ele>273.40000000000003</ele><time>2026-05-03T08:07:07Z</time></trkpt><trkpt lat="41.834882143503386" lon="19.54528719246781"><ele>272.2</ele><time>2026-05-03T08:07:08Z</time></trkpt><trkpt lat="41.83486700044807" lon="19.545149323970673"><ele>271.0</ele><time>2026-05-03T08:07:09Z</time></trkpt><trkpt lat="41.83484941874681" lon="19.545019461424403"><ele>271.0</ele><time>2026-05-03T08:07:10Z</time></trkpt><trkpt lat="41.83483172395144" lon="19.54491419802893"><ele>271.0</ele><time>2026-05-03T08:07:11Z</time></trkpt><trkpt lat="41.83480769205803" lon="19.544818243025855"><ele>271.0</ele><time>2026-05-03T08:07:24Z</time></trkpt><trkpt lat="41.834790578422314" lon="19.544722716818278"><ele>271.0</ele><time>2026-05-03T08:07:27Z</time></trkpt><trkpt lat="41.83478359512661" lon="19.54462302154117"><ele>271.0</ele><time>2026-05-03T08:07:30Z</time></trkpt><trkpt lat="41.834804740630766" lon="19.544539968518617"><ele>271.0</ele><time>2026-05-03T08:07:32Z</time></trkpt><trkpt lat="41.83482188667572" lon="19.544451566810665"><ele>271.0</ele><time>2026-05-03T08:07:35Z</time></trkpt><trkpt lat="41.834838865618" lon="19.544348376405367"><ele>271.3333333333333</ele><time>2026-05-03T08:07:37Z</time></trkpt><trkpt lat="41.83485627981305" lon="19.54422120054275"><ele>271.66666666666663</ele><time>2026-05-03T08:07:39Z</time></trkpt><trkpt lat="41.83485554809655" lon="19.544083115216647"><ele>272.0</ele><time>2026-05-03T08:07:41Z</time></trkpt><trkpt lat="41.83485467452189" lon="19.543967110537913"><ele>272.3333333333333</ele><time>2026-05-03T08:07:43Z</time></trkpt><trkpt lat="41.83482005138794" lon="19.54389052981914"><ele>272.6666666666667</ele><time>2026-05-03T08:07:45Z</time></trkpt><trkpt lat="41.83476934555843" lon="19.543951837315646"><ele>273.0</ele><time>2026-05-03T08:09:16.999Z</time></trkpt><trkpt lat="41.834788297561005" lon="19.544080995740146"><ele>273.0</ele><time>2026-05-03T08:12:53Z</time></trkpt><trkpt lat="41.83482424396164" lon="19.544167239170875"><ele>273.0</ele><time>2026-05-03T08:12:55Z</time></trkpt><trkpt lat="41.8348277437005" lon="19.544270894242672"><ele>273.0</ele><time>2026-05-03T08:14:57Z</time></trkpt><trkpt lat="41.83484386507616" lon="19.544363351440683"><ele>273.0</ele><time>2026-05-03T08:15:01Z</time></trkpt><trkpt lat="41.83484889696373" lon="19.544464960792173"><ele>273.0</ele><time>2026-05-03T08:15:08Z</time></trkpt><trkpt lat="41.834849323512536" lon="19.54455671439177"><ele>273.0</ele><time>2026-05-03T08:15:11Z</time></trkpt><trkpt lat="41.83482967045523" lon="19.544640393623478"><ele>273.0</ele><time>2026-05-03T08:15:14Z</time></trkpt><trkpt lat="41.83481649544296" lon="19.544746789719902"><ele>272.6666666666667</ele><time>2026-05-03T08:15:17Z</time></trkpt><trkpt lat="41.8348335072911" lon="19.544828709233975"><ele>272.3333333333333</ele><time>2026-05-03T08:15:19Z</time></trkpt><trkpt lat="41.834859942285505" lon="19.5449296312516"><ele>272.0</ele><time>2026-05-03T08:15:21Z</time></trkpt><trkpt lat="41.834873623110745" lon="19.54506864853079"><ele>271.66666666666663</ele><time>2026-05-03T08:15:23Z</time></trkpt><trkpt lat="41.83487093980277" lon="19.54515741555294"><ele>271.3333333333333</ele><time>2026-05-03T08:15:24Z</time></trkpt><trkpt lat="41.8348766282777" lon="19.54525106966064"><ele>271.0</ele><time>2026-05-03T08:15:25Z</time></trkpt><trkpt lat="41.83488972408762" lon="19.54535303531241"><ele>270.5</ele><time>2026-05-03T08:15:26Z</time></trkpt><trkpt lat="41.83490552474308" lon="19.545456111287507"><ele>270.0</ele><time>2026-05-03T08:15:27Z</time></trkpt><trkpt lat="41.83492527311481" lon="19.54555342651687"><ele>269.5</ele><time>2026-05-03T08:15:28Z</time></trkpt><trkpt lat="41.83495720369732" lon="19.54563074243405"><ele>269.0</ele><time>2026-05-03T08:15:29Z</time></trkpt><trkpt lat="41.83508038168301" lon="19.545662021624953"><ele>268.5</ele><time>2026-05-03T08:15:31Z</time></trkpt><trkpt lat="41.83515820683773" lon="19.545637910039396"><ele>268.0</ele><time>2026-05-03T08:15:32Z</time></trkpt><trkpt lat="41.83521292448327" lon="19.54552825336045"><ele>270.25</ele><time>2026-05-03T08:15:35Z</time></trkpt><trkpt lat="41.83521108262745" lon="19.545411722729032"><ele>272.5</ele><time>2026-05-03T08:15:36Z</time></trkpt><trkpt lat="41.83520128235217" lon="19.54527561971239"><ele>274.75</ele><time>2026-05-03T08:15:37Z</time></trkpt><trkpt lat="41.835176046582816" lon="19.545103905328858"><ele>277.0</ele><time>2026-05-03T08:15:38Z</time></trkpt><trkpt lat="41.835147223104485" lon="19.54493049556856"><ele>275.66666666666663</ele><time>2026-05-03T08:15:39Z</time></trkpt><trkpt lat="41.83511887149672" lon="19.544737069334577"><ele>274.3333333333333</ele><time>2026-05-03T08:15:40Z</time></trkpt><trkpt lat="41.83509111507824" lon="19.544535282347162"><ele>273.0</ele><time>2026-05-03T08:15:41Z</time></trkpt><trkpt lat="41.83505837361682" lon="19.544311019671778"><ele>273.0</ele><time>2026-05-03T08:15:42Z</time></trkpt><trkpt lat="41.83502759981361" lon="19.544068008295895"><ele>273.0</ele><time>2026-05-03T08:15:43Z</time></trkpt><trkpt lat="41.835014350399476" lon="19.543817263452738"><ele>273.0</ele><time>2026-05-03T08:15:44Z</time></trkpt><trkpt lat="41.83501885284042" lon="19.54355696522649"><ele>267.3333333333333</ele><time>2026-05-03T08:15:45Z</time></trkpt><trkpt lat="41.8350380750261" lon="19.54329822394065"><ele>261.66666666666663</ele><time>2026-05-03T08:15:46Z</time></trkpt><trkpt lat="41.83507049561708" lon="19.54303917250366"><ele>256.0</ele><time>2026-05-03T08:15:47Z</time></trkpt><trkpt lat="41.83512057604552" lon="19.542773808187814"><ele>261.66666666666663</ele><time>2026-05-03T08:15:48Z</time></trkpt><trkpt lat="41.83518970074002" lon="19.54249768015853"><ele>267.3333333333333</ele><time>2026-05-03T08:15:49Z</time></trkpt><trkpt lat="41.83525834743433" lon="19.54223257200082"><ele>273.0</ele><time>2026-05-03T08:15:50Z</time></trkpt><trkpt lat="41.835338648669996" lon="19.541968929897497"><ele>273.0</ele><time>2026-05-03T08:15:51Z</time></trkpt><trkpt lat="41.8354191860845" lon="19.541712611338784"><ele>273.0</ele><time>2026-05-03T08:15:52Z</time></trkpt><trkpt lat="41.83550873551654" lon="19.541466131099487"><ele>273.0</ele><time>2026-05-03T08:15:53Z</time></trkpt><trkpt lat="41.8356117451357" lon="19.541235429484146"><ele>277.0</ele><time>2026-05-03T08:15:54Z</time></trkpt><trkpt lat="41.83572497587112" lon="19.541017419313047"><ele>281.0</ele><time>2026-05-03T08:15:55Z</time></trkpt><trkpt lat="41.83584601344388" lon="19.540814168189154"><ele>285.0</ele><time>2026-05-03T08:15:56Z</time></trkpt><trkpt lat="41.835977067788335" lon="19.540626398360914"><ele>285.0</ele><time>2026-05-03T08:15:57Z</time></trkpt><trkpt lat="41.8361240119545" lon="19.540453040057326"><ele>285.0</ele><time>2026-05-03T08:15:58Z</time></trkpt><trkpt lat="41.83627902112216" lon="19.540284745404524"><ele>285.0</ele><time>2026-05-03T08:15:59Z</time></trkpt><trkpt lat="41.83644505553275" lon="19.540132301193616"><ele>279.0</ele><time>2026-05-03T08:16:00Z</time></trkpt><trkpt lat="41.83662044800332" lon="19.539995702581532"><ele>273.0</ele><time>2026-05-03T08:16:01Z</time></trkpt><trkpt lat="41.836804203444125" lon="19.539874297145808"><ele>267.0</ele><time>2026-05-03T08:16:02Z</time></trkpt><trkpt lat="41.83699184748068" lon="19.53977234108306"><ele>267.0</ele><time>2026-05-03T08:16:03Z</time></trkpt><trkpt lat="41.837174655948054" lon="19.5396759298766"><ele>267.0</ele><time>2026-05-03T08:16:04Z</time></trkpt><trkpt lat="41.83734683510192" lon="19.53954964204043"><ele>267.0</ele><time>2026-05-03T08:16:05Z</time></trkpt><trkpt lat="41.83750044282108" lon="19.53939004517366"><ele>255.66666666666669</ele><time>2026-05-03T08:16:06Z</time></trkpt><trkpt lat="41.837633974493386" lon="19.539205344064374"><ele>244.33333333333334</ele><time>2026-05-03T08:16:07Z</time></trkpt><trkpt lat="41.83774852137238" lon="19.539007056444436"><ele>233.0</ele><time>2026-05-03T08:16:08Z</time></trkpt><trkpt lat="41.8378657548489" lon="19.538822161841118"><ele>223.33333333333334</ele><time>2026-05-03T08:16:09Z</time></trkpt><trkpt lat="41.837994373060475" lon="19.538673099424926"><ele>213.66666666666669</ele><time>2026-05-03T08:16:10Z</time></trkpt><trkpt lat="41.83814376439761" lon="19.538571496260246"><ele>204.0</ele><time>2026-05-03T08:16:11Z</time></trkpt><trkpt lat="41.83830233123346" lon="19.53850604382258"><ele>213.33333333333331</ele><time>2026-05-03T08:16:12Z</time></trkpt><trkpt lat="41.838468514279846" lon="19.53848417010153"><ele>222.66666666666666</ele><time>2026-05-03T08:16:13Z</time></trkpt><trkpt lat="41.838643422696364" lon="19.538469524471985"><ele>232.0</ele><time>2026-05-03T08:16:14Z</time></trkpt><trkpt lat="41.83881178016298" lon="19.538408306803497"><ele>232.0</ele><time>2026-05-03T08:16:15Z</time></trkpt><trkpt lat="41.83897167115796" lon="19.53828662959761"><ele>232.0</ele><time>2026-05-03T08:16:16Z</time></trkpt><trkpt lat="41.83912089219649" lon="19.53811670224644"><ele>232.0</ele><time>2026-05-03T08:16:17Z</time></trkpt><trkpt lat="41.83925587832247" lon="19.53791441468295"><ele>237.0</ele><time>2026-05-03T08:16:18Z</time></trkpt><trkpt lat="41.83938774100724" lon="19.53769853687436"><ele>242.0</ele><time>2026-05-03T08:16:19Z</time></trkpt><trkpt lat="41.83953192297319" lon="19.537492876132596"><ele>247.0</ele><time>2026-05-03T08:16:19.999Z</time></trkpt><trkpt lat="41.839677481327215" lon="19.53729636434367"><ele>247.0</ele><time>2026-05-03T08:16:20.999Z</time></trkpt><trkpt lat="41.83981661334005" lon="19.537099434365853"><ele>247.0</ele><time>2026-05-03T08:16:21.999Z</time></trkpt><trkpt lat="41.83995113722856" lon="19.536890820885223"><ele>247.0</ele><time>2026-05-03T08:16:22.999Z</time></trkpt><trkpt lat="41.84006503307745" lon="19.536672439930655"><ele>247.66666666666666</ele><time>2026-05-03T08:16:23.999Z</time></trkpt><trkpt lat="41.84014596724155" lon="19.53642793041224"><ele>248.33333333333331</ele><time>2026-05-03T08:16:24.999Z</time></trkpt><trkpt lat="41.84020336812719" lon="19.5361750294046"><ele>249.0</ele><time>2026-05-03T08:16:25.999Z</time></trkpt><trkpt lat="41.84024480244385" lon="19.535933659616813"><ele>243.66666666666669</ele><time>2026-05-03T08:16:26.999Z</time></trkpt><trkpt lat="41.84028984885664" lon="19.535705641346752"><ele>238.33333333333334</ele><time>2026-05-03T08:16:27.999Z</time></trkpt><trkpt lat="41.840344223235874" lon="19.535490174845897"><ele>233.0</ele><time>2026-05-03T08:16:28.999Z</time></trkpt><trkpt lat="41.840413295559905" lon="19.535270413302083"><ele>228.0</ele><time>2026-05-03T08:16:30Z</time></trkpt><trkpt lat="41.84048878551287" lon="19.53504028473235"><ele>223.0</ele><time>2026-05-03T08:16:31Z</time></trkpt><trkpt lat="41.84056832663085" lon="19.534806702991652"><ele>218.0</ele><time>2026-05-03T08:16:32Z</time></trkpt><trkpt lat="41.840650696436846" lon="19.534563961813983"><ele>211.0</ele><time>2026-05-03T08:16:33Z</time></trkpt><trkpt lat="41.84073749124261" lon="19.53431591638164"><ele>204.0</ele><time>2026-05-03T08:16:34Z</time></trkpt><trkpt lat="41.840829473129226" lon="19.53406951706274"><ele>197.0</ele><time>2026-05-03T08:16:35Z</time></trkpt><trkpt lat="41.84093617677184" lon="19.5338443000563"><ele>201.0</ele><time>2026-05-03T08:16:36Z</time></trkpt><trkpt lat="41.84106123130604" lon="19.533643863072825"><ele>205.0</ele><time>2026-05-03T08:16:37Z</time></trkpt><trkpt lat="41.841199459599366" lon="19.533460071729436"><ele>209.0</ele><time>2026-05-03T08:16:38Z</time></trkpt><trkpt lat="41.841336925741196" lon="19.533269633803197"><ele>209.0</ele><time>2026-05-03T08:16:39Z</time></trkpt><trkpt lat="41.84145740557472" lon="19.53305740869737"><ele>209.0</ele><time>2026-05-03T08:16:40Z</time></trkpt><trkpt lat="41.841569628036474" lon="19.532834819352882"><ele>209.0</ele><time>2026-05-03T08:16:41Z</time></trkpt><trkpt lat="41.84167759180208" lon="19.53260425906088"><ele>212.0</ele><time>2026-05-03T08:16:42Z</time></trkpt><trkpt lat="41.841785291348195" lon="19.53237706150893"><ele>215.0</ele><time>2026-05-03T08:16:43Z</time></trkpt><trkpt lat="41.84189219127479" lon="19.53215182111805"><ele>218.0</ele><time>2026-05-03T08:16:44Z</time></trkpt><trkpt lat="41.84200059167435" lon="19.53194553809042"><ele>207.0</ele><time>2026-05-03T08:16:45Z</time></trkpt><trkpt lat="41.842117683663886" lon="19.53177814971097"><ele>196.0</ele><time>2026-05-03T08:16:46Z</time></trkpt><trkpt lat="41.842253760402315" lon="19.53163520648159"><ele>185.0</ele><time>2026-05-03T08:16:47Z</time></trkpt><trkpt lat="41.842412947652505" lon="19.531525006899304"><ele>185.0</ele><time>2026-05-03T08:16:48Z</time></trkpt><trkpt lat="41.8425912696669" lon="19.53144274713626"><ele>185.0</ele><time>2026-05-03T08:16:49Z</time></trkpt><trkpt lat="41.842758811251244" lon="19.531342177654157"><ele>185.0</ele><time>2026-05-03T08:16:50Z</time></trkpt><trkpt lat="41.84289970658716" lon="19.531192711781607"><ele>187.0</ele><time>2026-05-03T08:16:51Z</time></trkpt><trkpt lat="41.84301419245625" lon="19.531012026972878"><ele>189.0</ele><time>2026-05-03T08:16:52Z</time></trkpt><trkpt lat="41.84309457510264" lon="19.53080404805206"><ele>191.0</ele><time>2026-05-03T08:16:53Z</time></trkpt><trkpt lat="41.843139824029684" lon="19.530565172231587"><ele>187.66666666666666</ele><time>2026-05-03T08:16:54Z</time></trkpt><trkpt lat="41.8431574727132" lon="19.530305710631993"><ele>184.33333333333334</ele><time>2026-05-03T08:16:55Z</time></trkpt><trkpt lat="41.843160652204794" lon="19.53002538613663"><ele>181.0</ele><time>2026-05-03T08:16:56Z</time></trkpt><trkpt lat="41.843171561042425" lon="19.529736138894595"><ele>174.0</ele><time>2026-05-03T08:16:56.999Z</time></trkpt><trkpt lat="41.84320152719945" lon="19.529440205687703"><ele>167.0</ele><time>2026-05-03T08:16:57.999Z</time></trkpt><trkpt lat="41.84326189045627" lon="19.529177314355167"><ele>160.0</ele><time>2026-05-03T08:16:58.999Z</time></trkpt><trkpt lat="41.84335956377885" lon="19.52895122880829"><ele>163.0</ele><time>2026-05-03T08:16:59.999Z</time></trkpt><trkpt lat="41.843494103520065" lon="19.528755606882545"><ele>166.0</ele><time>2026-05-03T08:17:00.999Z</time></trkpt><trkpt lat="41.8436589379185" lon="19.52857943682207"><ele>169.0</ele><time>2026-05-03T08:17:01.999Z</time></trkpt><trkpt lat="41.843843357052535" lon="19.528419766978157"><ele>169.0</ele><time>2026-05-03T08:17:02.999Z</time></trkpt><trkpt lat="41.84402767094629" lon="19.528269900124464"><ele>169.0</ele><time>2026-05-03T08:17:03.999Z</time></trkpt><trkpt lat="41.84418432841396" lon="19.528100116367117"><ele>169.0</ele><time>2026-05-03T08:17:04.999Z</time></trkpt><trkpt lat="41.844315732217254" lon="19.5278951491204"><ele>167.66666666666669</ele><time>2026-05-03T08:17:05.999Z</time></trkpt><trkpt lat="41.844425209997034" lon="19.52766722068316"><ele>166.33333333333334</ele><time>2026-05-03T08:17:06.999Z</time></trkpt><trkpt lat="41.844521831348565" lon="19.52744989259842"><ele>165.0</ele><time>2026-05-03T08:17:07.999Z</time></trkpt><trkpt lat="41.84463685509564" lon="19.527263509332087"><ele>165.0</ele><time>2026-05-03T08:17:08.999Z</time></trkpt><trkpt lat="41.844777595964786" lon="19.527112706539537"><ele>165.0</ele><time>2026-05-03T08:17:09.999Z</time></trkpt><trkpt lat="41.844937215475454" lon="19.527004832603104"><ele>165.0</ele><time>2026-05-03T08:17:10.999Z</time></trkpt><trkpt lat="41.84511474740706" lon="19.526942605571154"><ele>159.66666666666666</ele><time>2026-05-03T08:17:11.999Z</time></trkpt><trkpt lat="41.84530483138689" lon="19.52690462887531"><ele>154.33333333333331</ele><time>2026-05-03T08:17:12.999Z</time></trkpt><trkpt lat="41.845493282674575" lon="19.526863987305322"><ele>149.0</ele><time>2026-05-03T08:17:13.999Z</time></trkpt><trkpt lat="41.845658469989466" lon="19.526787884767415"><ele>149.0</ele><time>2026-05-03T08:17:14.999Z</time></trkpt><trkpt lat="41.84579373437514" lon="19.52666558053525"><ele>149.0</ele><time>2026-05-03T08:17:15.999Z</time></trkpt><trkpt lat="41.84588948477946" lon="19.526499304064263"><ele>149.0</ele><time>2026-05-03T08:17:16.999Z</time></trkpt><trkpt lat="41.84594417723648" lon="19.52630069303343"><ele>144.0</ele><time>2026-05-03T08:17:17.999Z</time></trkpt><trkpt lat="41.845968817015304" lon="19.526084513413462"><ele>139.0</ele><time>2026-05-03T08:17:18.999Z</time></trkpt><trkpt lat="41.84594843924265" lon="19.525850952873185"><ele>134.0</ele><time>2026-05-03T08:17:19.999Z</time></trkpt><trkpt lat="41.84588986447656" lon="19.525600540916617"><ele>133.0</ele><time>2026-05-03T08:17:20.999Z</time></trkpt><trkpt lat="41.84581610848914" lon="19.52532950989279"><ele>132.0</ele><time>2026-05-03T08:17:21.999Z</time></trkpt><trkpt lat="41.84574953068029" lon="19.525042208310406"><ele>131.0</ele><time>2026-05-03T08:17:22.999Z</time></trkpt><trkpt lat="41.845714643918605" lon="19.524763254148958"><ele>128.33333333333331</ele><time>2026-05-03T08:17:23.999Z</time></trkpt><trkpt lat="41.84572130104559" lon="19.524486992108447"><ele>125.66666666666666</ele><time>2026-05-03T08:17:24.999Z</time></trkpt><trkpt lat="41.845767611204984" lon="19.524225316240496"><ele>123.0</ele><time>2026-05-03T08:17:25.999Z</time></trkpt><trkpt lat="41.84584484028124" lon="19.523967465792875"><ele>126.66666666666666</ele><time>2026-05-03T08:17:26.999Z</time></trkpt><trkpt lat="41.84595770035152" lon="19.52371850212427"><ele>130.33333333333331</ele><time>2026-05-03T08:17:27.999Z</time></trkpt><trkpt lat="41.84610315773838" lon="19.5234942897215"><ele>134.0</ele><time>2026-05-03T08:17:28.999Z</time></trkpt><trkpt lat="41.846281550354" lon="19.523303598967775"><ele>134.0</ele><time>2026-05-03T08:17:29.999Z</time></trkpt><trkpt lat="41.846457864611146" lon="19.523107928099346"><ele>134.0</ele><time>2026-05-03T08:17:30.999Z</time></trkpt><trkpt lat="41.846616513571924" lon="19.522879449823463"><ele>141.0</ele><time>2026-05-03T08:17:31.999Z</time></trkpt><trkpt lat="41.84675323921238" lon="19.522618638274324"><ele>148.0</ele><time>2026-05-03T08:17:32.999Z</time></trkpt><trkpt lat="41.84686784187498" lon="19.522335567338015"><ele>135.0</ele><time>2026-05-03T08:17:33.999Z</time></trkpt><trkpt lat="41.84697912022197" lon="19.52204425476687"><ele>122.0</ele><time>2026-05-03T08:17:34.999Z</time></trkpt><trkpt lat="41.84710603196904" lon="19.5217550434338"><ele>122.0</ele><time>2026-05-03T08:17:35.999Z</time></trkpt><trkpt lat="41.8472541475604" lon="19.52147702520549"><ele>122.0</ele><time>2026-05-03T08:17:36.999Z</time></trkpt><trkpt lat="41.847423447013796" lon="19.521209641320347"><ele>125.0</ele><time>2026-05-03T08:17:37.999Z</time></trkpt><trkpt lat="41.84760212860741" lon="19.52094922565741"><ele>128.0</ele><time>2026-05-03T08:17:38.999Z</time></trkpt><trkpt lat="41.847789010926846" lon="19.520696517654915"><ele>128.0</ele><time>2026-05-03T08:17:39.999Z</time></trkpt><trkpt lat="41.84797677374974" lon="19.520448665860222"><ele>128.0</ele><time>2026-05-03T08:17:40.999Z</time></trkpt><trkpt lat="41.84816019973831" lon="19.520200905305362"><ele>131.0</ele><time>2026-05-03T08:17:41.999Z</time></trkpt><trkpt lat="41.8483436124753" lon="19.51994722818823"><ele>134.0</ele><time>2026-05-03T08:17:42.999Z</time></trkpt><trkpt lat="41.84853105183974" lon="19.51969171307507"><ele>115.0</ele><time>2026-05-03T08:17:43.999Z</time></trkpt><trkpt lat="41.84872339331283" lon="19.519442474041572"><ele>96.0</ele><time>2026-05-03T08:17:44.999Z</time></trkpt><trkpt lat="41.848925888155854" lon="19.519199827238857"><ele>96.0</ele><time>2026-05-03T08:17:45.999Z</time></trkpt><trkpt lat="41.84913238786885" lon="19.518974633750243"><ele>96.0</ele><time>2026-05-03T08:17:46.999Z</time></trkpt><trkpt lat="41.849334185280895" lon="19.518774803259042"><ele>99.0</ele><time>2026-05-03T08:17:47.999Z</time></trkpt><trkpt lat="41.849510947878265" lon="19.518574840320433"><ele>102.0</ele><time>2026-05-03T08:17:48.999Z</time></trkpt><trkpt lat="41.84966251441839" lon="19.518350123493978"><ele>102.0</ele><time>2026-05-03T08:17:49.999Z</time></trkpt><trkpt lat="41.84983468543222" lon="19.51810709128716"><ele>102.0</ele><time>2026-05-03T08:17:50.999Z</time></trkpt><trkpt lat="41.849948273024296" lon="19.51783936025244"><ele>97.33333333333333</ele><time>2026-05-03T08:17:51.999Z</time></trkpt><trkpt lat="41.85004942673192" lon="19.517565224716314"><ele>92.66666666666666</ele><time>2026-05-03T08:17:52.999Z</time></trkpt><trkpt lat="41.85014713316918" lon="19.517305886715924"><ele>88.0</ele><time>2026-05-03T08:17:53.999Z</time></trkpt><trkpt lat="41.85026140602645" lon="19.51706161331347"><ele>88.0</ele><time>2026-05-03T08:17:54.999Z</time></trkpt><trkpt lat="41.8503966944949" lon="19.516822232699298"><ele>88.0</ele><time>2026-05-03T08:17:55.999Z</time></trkpt><trkpt lat="41.85054199022493" lon="19.516595725814003"><ele>88.0</ele><time>2026-05-03T08:17:56.999Z</time></trkpt><trkpt lat="41.8506884092967" lon="19.516384468860384"><ele>79.0</ele><time>2026-05-03T08:17:57.999Z</time></trkpt><trkpt lat="41.85083608290617" lon="19.516175031177866"><ele>70.0</ele><time>2026-05-03T08:17:58.999Z</time></trkpt><trkpt lat="41.85099529206898" lon="19.516005244371996"><ele>61.0</ele><time>2026-05-03T08:17:59.999Z</time></trkpt><trkpt lat="41.85117007452641" lon="19.51587246430631"><ele>61.0</ele><time>2026-05-03T08:18:00.999Z</time></trkpt><trkpt lat="41.85136642314805" lon="19.515772679104995"><ele>61.0</ele><time>2026-05-03T08:18:01.999Z</time></trkpt><trkpt lat="41.85156756172983" lon="19.51569654611815"><ele>61.0</ele><time>2026-05-03T08:18:02.999Z</time></trkpt><trkpt lat="41.85177290658474" lon="19.515631773735713"><ele>63.0</ele><time>2026-05-03T08:18:03.999Z</time></trkpt><trkpt lat="41.851969333013535" lon="19.515546080756078"><ele>65.0</ele><time>2026-05-03T08:18:04.999Z</time></trkpt><trkpt lat="41.85213279125125" lon="19.515430540885266"><ele>67.0</ele><time>2026-05-03T08:18:05.999Z</time></trkpt><trkpt lat="41.85226980120642" lon="19.515275315107772"><ele>67.0</ele><time>2026-05-03T08:18:06.999Z</time></trkpt><trkpt lat="41.852376055011604" lon="19.51507122717836"><ele>67.0</ele><time>2026-05-03T08:18:07.999Z</time></trkpt><trkpt lat="41.85245049874505" lon="19.51483544635671"><ele>67.0</ele><time>2026-05-03T08:18:08.999Z</time></trkpt><trkpt lat="41.852484896129184" lon="19.5145700890057"><ele>63.666666666666664</ele><time>2026-05-03T08:18:09.999Z</time></trkpt><trkpt lat="41.852493695539295" lon="19.51430223787457"><ele>60.33333333333333</ele><time>2026-05-03T08:18:10.999Z</time></trkpt><trkpt lat="41.85249558559248" lon="19.514064120159844"><ele>57.0</ele><time>2026-05-03T08:18:11.999Z</time></trkpt><trkpt lat="41.852519276648486" lon="19.51383655234645"><ele>53.666666666666664</ele><time>2026-05-03T08:18:12.999Z</time></trkpt><trkpt lat="41.852524600790474" lon="19.51361181885255"><ele>50.33333333333333</ele><time>2026-05-03T08:18:13.999Z</time></trkpt><trkpt lat="41.852544660509814" lon="19.513397211395628"><ele>47.0</ele><time>2026-05-03T08:18:14.999Z</time></trkpt><trkpt lat="41.852579624296524" lon="19.513193241957286"><ele>53.0</ele><time>2026-05-03T08:18:15.999Z</time></trkpt><trkpt lat="41.85263292035559" lon="19.512995130284057"><ele>59.0</ele><time>2026-05-03T08:18:16.999Z</time></trkpt><trkpt lat="41.85270258500605" lon="19.512790265828134"><ele>65.0</ele><time>2026-05-03T08:18:17.999Z</time></trkpt><trkpt lat="41.85277662059601" lon="19.51259050182573"><ele>65.0</ele><time>2026-05-03T08:18:18.999Z</time></trkpt><trkpt lat="41.85285082848162" lon="19.512387612969828"><ele>65.0</ele><time>2026-05-03T08:18:19.999Z</time></trkpt><trkpt lat="41.8529216995909" lon="19.51217586902008"><ele>65.0</ele><time>2026-05-03T08:18:20.999Z</time></trkpt><trkpt lat="41.85298733285628" lon="19.51196257157861"><ele>61.66666666666667</ele><time>2026-05-03T08:18:21.999Z</time></trkpt><trkpt lat="41.85305592451448" lon="19.511748934531198"><ele>58.33333333333333</ele><time>2026-05-03T08:18:22.999Z</time></trkpt><trkpt lat="41.85313056025118" lon="19.511528958917904"><ele>55.0</ele><time>2026-05-03T08:18:23.999Z</time></trkpt><trkpt lat="41.85320415563432" lon="19.511327317217646"><ele>50.0</ele><time>2026-05-03T08:18:24.999Z</time></trkpt><trkpt lat="41.853289324007655" lon="19.511116123122957"><ele>45.0</ele><time>2026-05-03T08:18:25.999Z</time></trkpt><trkpt lat="41.85338091453606" lon="19.5109092228322"><ele>40.0</ele><time>2026-05-03T08:18:26.999Z</time></trkpt><trkpt lat="41.85346678657351" lon="19.510699947966724"><ele>50.66666666666667</ele><time>2026-05-03T08:18:27.999Z</time></trkpt><trkpt lat="41.85353889002355" lon="19.510481400137444"><ele>61.333333333333336</ele><time>2026-05-03T08:18:28.999Z</time></trkpt><trkpt lat="41.8535944517772" lon="19.510249244845458"><ele>72.0</ele><time>2026-05-03T08:18:29.999Z</time></trkpt><trkpt lat="41.85363013380135" lon="19.509994682645697"><ele>72.0</ele><time>2026-05-03T08:18:30.999Z</time></trkpt><trkpt lat="41.85365160632573" lon="19.50972277267352"><ele>72.0</ele><time>2026-05-03T08:18:31.999Z</time></trkpt><trkpt lat="41.85366085814812" lon="19.509438547780164"><ele>72.0</ele><time>2026-05-03T08:18:32.999Z</time></trkpt><trkpt lat="41.853678422355884" lon="19.509152209929503"><ele>66.66666666666667</ele><time>2026-05-03T08:18:33.999Z</time></trkpt><trkpt lat="41.85370766088073" lon="19.508868959395617"><ele>61.333333333333336</ele><time>2026-05-03T08:18:34.999Z</time></trkpt><trkpt lat="41.85374595676378" lon="19.508582676954973"><ele>56.0</ele><time>2026-05-03T08:18:36Z</time></trkpt><trkpt lat="41.85379071245275" lon="19.508296666530303"><ele>52.333333333333336</ele><time>2026-05-03T08:18:37Z</time></trkpt><trkpt lat="41.85383751622901" lon="19.508007573717805"><ele>48.66666666666667</ele><time>2026-05-03T08:18:38Z</time></trkpt><trkpt lat="41.85388154484014" lon="19.507710162426715"><ele>45.0</ele><time>2026-05-03T08:18:39Z</time></trkpt><trkpt lat="41.853914941119285" lon="19.507414843426687"><ele>41.333333333333336</ele><time>2026-05-03T08:18:40Z</time></trkpt><trkpt lat="41.85394385087607" lon="19.507122506089466"><ele>37.66666666666667</ele><time>2026-05-03T08:18:41Z</time></trkpt><trkpt lat="41.853974955424654" lon="19.506824776090173"><ele>34.0</ele><time>2026-05-03T08:18:42Z</time></trkpt><trkpt lat="41.8540230540546" lon="19.50652747643237"><ele>24.0</ele><time>2026-05-03T08:18:43Z</time></trkpt><trkpt lat="41.854099545498904" lon="19.506231930420427"><ele>14.0</ele><time>2026-05-03T08:18:44Z</time></trkpt><trkpt lat="41.85419227710213" lon="19.505936420896898"><ele>24.0</ele><time>2026-05-03T08:18:45Z</time></trkpt><trkpt lat="41.85429149389525" lon="19.505642560862896"><ele>34.0</ele><time>2026-05-03T08:18:46Z</time></trkpt><trkpt lat="41.85439025866649" lon="19.505341492382197"><ele>34.0</ele><time>2026-05-03T08:18:47Z</time></trkpt><trkpt lat="41.85447575760741" lon="19.505028590529594"><ele>34.0</ele><time>2026-05-03T08:18:48Z</time></trkpt><trkpt lat="41.85453100642045" lon="19.5046949722965"><ele>31.0</ele><time>2026-05-03T08:18:49Z</time></trkpt><trkpt lat="41.85457445000861" lon="19.504342418304034"><ele>28.0</ele><time>2026-05-03T08:18:50Z</time></trkpt><trkpt lat="41.85461122842987" lon="19.503978882963786"><ele>26.0</ele><time>2026-05-03T08:18:51Z</time></trkpt><trkpt lat="41.854654228483355" lon="19.50361627877049"><ele>24.0</ele><time>2026-05-03T08:18:52Z</time></trkpt><trkpt lat="41.85470189733351" lon="19.50325296591942"><ele>22.0</ele><time>2026-05-03T08:18:53Z</time></trkpt><trkpt lat="41.85475320042076" lon="19.502892305924913"><ele>20.0</ele><time>2026-05-03T08:18:54Z</time></trkpt><trkpt lat="41.85480447784335" lon="19.5025269459388"><ele>20.0</ele><time>2026-05-03T08:18:55Z</time></trkpt><trkpt lat="41.85485957772325" lon="19.502164098034182"><ele>20.0</ele><time>2026-05-03T08:18:56Z</time></trkpt><trkpt lat="41.854922049190826" lon="19.501808704359586"><ele>19.5</ele><time>2026-05-03T08:18:57Z</time></trkpt><trkpt lat="41.8549878968365" lon="19.501463125238434"><ele>19.0</ele><time>2026-05-03T08:18:58Z</time></trkpt><trkpt lat="41.855050612612274" lon="19.501120193954055"><ele>18.0</ele><time>2026-05-03T08:18:59Z</time></trkpt><trkpt lat="41.85510913768517" lon="19.500782394469127"><ele>17.0</ele><time>2026-05-03T08:19:00Z</time></trkpt><trkpt lat="41.85516645345325" lon="19.500448925461598"><ele>22.0</ele><time>2026-05-03T08:19:01Z</time></trkpt><trkpt lat="41.85522425497839" lon="19.50011641867382"><ele>27.0</ele><time>2026-05-03T08:19:02Z</time></trkpt><trkpt lat="41.855279858749725" lon="19.499786663998417"><ele>20.5</ele><time>2026-05-03T08:19:03Z</time></trkpt><trkpt lat="41.855331771037704" lon="19.499457919097946"><ele>14.0</ele><time>2026-05-03T08:19:04Z</time></trkpt><trkpt lat="41.85538548106714" lon="19.49913028749317"><ele>14.0</ele><time>2026-05-03T08:19:05Z</time></trkpt><trkpt lat="41.85544382146367" lon="19.498803900429"><ele>14.0</ele><time>2026-05-03T08:19:06Z</time></trkpt><trkpt lat="41.85550552274999" lon="19.49847123991344"><ele>12.0</ele><time>2026-05-03T08:19:07Z</time></trkpt><trkpt lat="41.8555672270665" lon="19.49813837109039"><ele>10.0</ele><time>2026-05-03T08:19:08Z</time></trkpt><trkpt lat="41.85562684580012" lon="19.497804397648107"><ele>7.5</ele><time>2026-05-03T08:19:09Z</time></trkpt><trkpt lat="41.85568745252941" lon="19.497474779123568"><ele>5.0</ele><time>2026-05-03T08:19:10Z</time></trkpt><trkpt lat="41.85574552991053" lon="19.49715564857537"><ele>6.5</ele><time>2026-05-03T08:19:11Z</time></trkpt><trkpt lat="41.855804536452794" lon="19.496856094858217"><ele>8.0</ele><time>2026-05-03T08:19:12Z</time></trkpt><trkpt lat="41.855871781020895" lon="19.496568163352944"><ele>8.0</ele><time>2026-05-03T08:19:13Z</time></trkpt><trkpt lat="41.85594949823716" lon="19.496283156630717"><ele>8.0</ele><time>2026-05-03T08:19:14Z</time></trkpt><trkpt lat="41.85603259946015" lon="19.49599215963838"><ele>8.5</ele><time>2026-05-03T08:19:15Z</time></trkpt><trkpt lat="41.85612143967169" lon="19.495698615422928"><ele>9.0</ele><time>2026-05-03T08:19:16Z</time></trkpt><trkpt lat="41.856210787727136" lon="19.495402676470054"><ele>9.0</ele><time>2026-05-03T08:19:17Z</time></trkpt><trkpt lat="41.85629448462133" lon="19.495103922766038"><ele>9.0</ele><time>2026-05-03T08:19:18Z</time></trkpt><trkpt lat="41.856377559355046" lon="19.494807787805943"><ele>7.5</ele><time>2026-05-03T08:19:19Z</time></trkpt><trkpt lat="41.856464452983786" lon="19.494514190673033"><ele>6.0</ele><time>2026-05-03T08:19:20Z</time></trkpt><trkpt lat="41.85655232713396" lon="19.494221321134347"><ele>6.0</ele><time>2026-05-03T08:19:21Z</time></trkpt><trkpt lat="41.856636958835104" lon="19.493930308746314"><ele>6.0</ele><time>2026-05-03T08:19:22Z</time></trkpt><trkpt lat="41.85671841871679" lon="19.493636342456835"><ele>7.5</ele><time>2026-05-03T08:19:23Z</time></trkpt><trkpt lat="41.8568012085908" lon="19.493343127886106"><ele>9.0</ele><time>2026-05-03T08:19:24Z</time></trkpt><trkpt lat="41.8568862875596" lon="19.493054450934803"><ele>8.5</ele><time>2026-05-03T08:19:25Z</time></trkpt><trkpt lat="41.85697107218059" lon="19.49276230273571"><ele>8.0</ele><time>2026-05-03T08:19:26Z</time></trkpt><trkpt lat="41.85705617187646" lon="19.492469148468263"><ele>8.0</ele><time>2026-05-03T08:19:27Z</time></trkpt><trkpt lat="41.857143051759614" lon="19.492169991857256"><ele>8.0</ele><time>2026-05-03T08:19:28Z</time></trkpt><trkpt lat="41.85723218358298" lon="19.49186962996401"><ele>7.0</ele><time>2026-05-03T08:19:29Z</time></trkpt><trkpt lat="41.85732341339117" lon="19.491573400675907"><ele>6.0</ele><time>2026-05-03T08:19:30Z</time></trkpt><trkpt lat="41.85741317231648" lon="19.491276944294185"><ele>5.5</ele><time>2026-05-03T08:19:31Z</time></trkpt><trkpt lat="41.85749895023831" lon="19.490977900335572"><ele>5.0</ele><time>2026-05-03T08:19:32Z</time></trkpt><trkpt lat="41.85758388006199" lon="19.490680105257518"><ele>8.0</ele><time>2026-05-03T08:19:33Z</time></trkpt><trkpt lat="41.85766793283093" lon="19.490383065882437"><ele>11.0</ele><time>2026-05-03T08:19:34Z</time></trkpt><trkpt lat="41.8577504755725" lon="19.49008846553106"><ele>11.0</ele><time>2026-05-03T08:19:35Z</time></trkpt><trkpt lat="41.85783273326538" lon="19.48979416071107"><ele>11.0</ele><time>2026-05-03T08:19:36Z</time></trkpt><trkpt lat="41.857917594802394" lon="19.489502551945037"><ele>9.0</ele><time>2026-05-03T08:19:37Z</time></trkpt><trkpt lat="41.85800253080393" lon="19.489211753002046"><ele>7.0</ele><time>2026-05-03T08:19:38Z</time></trkpt><trkpt lat="41.85808615539693" lon="19.488922542566154"><ele>6.0</ele><time>2026-05-03T08:19:39Z</time></trkpt><trkpt lat="41.85817185499275" lon="19.4886336791312"><ele>5.0</ele><time>2026-05-03T08:19:40Z</time></trkpt><trkpt lat="41.85825754060957" lon="19.488347204574772"><ele>5.0</ele><time>2026-05-03T08:19:41Z</time></trkpt><trkpt lat="41.858339988470014" lon="19.48805759636925"><ele>5.0</ele><time>2026-05-03T08:19:42Z</time></trkpt><trkpt lat="41.85842162368364" lon="19.487766553060954"><ele>9.0</ele><time>2026-05-03T08:19:43Z</time></trkpt><trkpt lat="41.85850862413585" lon="19.487476214531593"><ele>13.0</ele><time>2026-05-03T08:19:44Z</time></trkpt><trkpt lat="41.85859438248778" lon="19.487183994473778"><ele>11.0</ele><time>2026-05-03T08:19:45Z</time></trkpt><trkpt lat="41.85867880209428" lon="19.48688726789804"><ele>9.0</ele><time>2026-05-03T08:19:45.999Z</time></trkpt><trkpt lat="41.85876017671843" lon="19.486583444319056"><ele>9.0</ele><time>2026-05-03T08:19:46.999Z</time></trkpt><trkpt lat="41.858835483341196" lon="19.486277307946402"><ele>9.0</ele><time>2026-05-03T08:19:47.999Z</time></trkpt><trkpt lat="41.85890342088833" lon="19.485965537086383"><ele>6.5</ele><time>2026-05-03T08:19:48.999Z</time></trkpt><trkpt lat="41.85896510078732" lon="19.485655216354996"><ele>4.0</ele><time>2026-05-03T08:19:49.999Z</time></trkpt><trkpt lat="41.859025632806016" lon="19.485342524875"><ele>2.5</ele><time>2026-05-03T08:19:50.999Z</time></trkpt><trkpt lat="41.85909003376154" lon="19.485023712564765"><ele>1.0</ele><time>2026-05-03T08:19:51.999Z</time></trkpt><trkpt lat="41.85915171514925" lon="19.48470901529875"><ele>2.0</ele><time>2026-05-03T08:19:52.999Z</time></trkpt><trkpt lat="41.859211524262626" lon="19.48439166413479"><ele>3.0</ele><time>2026-05-03T08:19:53.999Z</time></trkpt><trkpt lat="41.85927071965036" lon="19.484076162426618"><ele>4.5</ele><time>2026-05-03T08:19:54.999Z</time></trkpt><trkpt lat="41.85933123991908" lon="19.4837615217591"><ele>6.0</ele><time>2026-05-03T08:19:55.999Z</time></trkpt><trkpt lat="41.859394624855206" lon="19.48345062361372"><ele>6.0</ele><time>2026-05-03T08:19:56.999Z</time></trkpt><trkpt lat="41.859458662551404" lon="19.483139802602597"><ele>6.0</ele><time>2026-05-03T08:19:57.999Z</time></trkpt><trkpt lat="41.859520206169144" lon="19.482829876948365"><ele>6.0</ele><time>2026-05-03T08:19:58.999Z</time></trkpt><trkpt lat="41.859584031891266" lon="19.482517302000588"><ele>6.0</ele><time>2026-05-03T08:19:59.999Z</time></trkpt><trkpt lat="41.85964769991528" lon="19.482204865531966"><ele>6.5</ele><time>2026-05-03T08:20:00.999Z</time></trkpt><trkpt lat="41.859711060948925" lon="19.481897236966255"><ele>7.0</ele><time>2026-05-03T08:20:01.999Z</time></trkpt><trkpt lat="41.85976419269561" lon="19.481586846317164"><ele>7.0</ele><time>2026-05-03T08:20:02.999Z</time></trkpt><trkpt lat="41.85979828506455" lon="19.48127320821542"><ele>7.0</ele><time>2026-05-03T08:20:03.999Z</time></trkpt><trkpt lat="41.859813836203074" lon="19.480954396133477"><ele>7.0</ele><time>2026-05-03T08:20:04.999Z</time></trkpt><trkpt lat="41.85982455301758" lon="19.48065500888451"><ele>7.0</ele><time>2026-05-03T08:20:05.999Z</time></trkpt><trkpt lat="41.85983776016733" lon="19.480373180826728"><ele>7.0</ele><time>2026-05-03T08:20:06.999Z</time></trkpt><trkpt lat="41.85985055961799" lon="19.480110653374012"><ele>6.0</ele><time>2026-05-03T08:20:07.999Z</time></trkpt><trkpt lat="41.859860115363134" lon="19.4798517396787"><ele>5.0</ele><time>2026-05-03T08:20:08.999Z</time></trkpt><trkpt lat="41.85986723571683" lon="19.479589875302214"><ele>4.0</ele><time>2026-05-03T08:20:09.999Z</time></trkpt><trkpt lat="41.85986925680914" lon="19.4793393324239"><ele>3.75</ele><time>2026-05-03T08:20:10.999Z</time></trkpt><trkpt lat="41.859869413489086" lon="19.47911605425607"><ele>3.5</ele><time>2026-05-03T08:20:11.999Z</time></trkpt><trkpt lat="41.85987021361282" lon="19.478921946614378"><ele>3.25</ele><time>2026-05-03T08:20:12.999Z</time></trkpt><trkpt lat="41.8598752996671" lon="19.478756278141518"><ele>3.0</ele><time>2026-05-03T08:20:13.999Z</time></trkpt><trkpt lat="41.85988673218008" lon="19.478614624636865"><ele>2.8</ele><time>2026-05-03T08:20:14.999Z</time></trkpt><trkpt lat="41.85990509928107" lon="19.478485532022052"><ele>2.5999999999999996</ele><time>2026-05-03T08:20:15.999Z</time></trkpt><trkpt lat="41.85993485012431" lon="19.478357825677552"><ele>2.4000000000000004</ele><time>2026-05-03T08:20:16.999Z</time></trkpt><trkpt lat="41.85997671041671" lon="19.478221698749"><ele>2.2</ele><time>2026-05-03T08:20:17.999Z</time></trkpt><trkpt lat="41.86004121904097" lon="19.47808284861281"><ele>2.0</ele><time>2026-05-03T08:20:18.999Z</time></trkpt><trkpt lat="41.860126777696" lon="19.477951840809798"><ele>2.333333333333333</ele><time>2026-05-03T08:20:19.999Z</time></trkpt><trkpt lat="41.86022491714827" lon="19.477812727183167"><ele>2.6666666666666665</ele><time>2026-05-03T08:20:20.999Z</time></trkpt><trkpt lat="41.86032187729017" lon="19.477632012647774"><ele>3.0</ele><time>2026-05-03T08:20:21.999Z</time></trkpt><trkpt lat="41.86042711835564" lon="19.47741659460143"><ele>3.0</ele><time>2026-05-03T08:20:22.999Z</time></trkpt><trkpt lat="41.86055412413257" lon="19.477169948096037"><ele>3.0</ele><time>2026-05-03T08:20:23.999Z</time></trkpt><trkpt lat="41.86067372796223" lon="19.476951014538983"><ele>3.0</ele><time>2026-05-03T08:20:24.999Z</time></trkpt><trkpt lat="41.86078752892873" lon="19.476725189031807"><ele>3.0</ele><time>2026-05-03T08:20:25.999Z</time></trkpt><trkpt lat="41.86087580233822" lon="19.47650002494301"><ele>3.0</ele><time>2026-05-03T08:20:26.999Z</time></trkpt><trkpt lat="41.86094054360747" lon="19.476272749240522"><ele>3.0</ele><time>2026-05-03T08:20:27.999Z</time></trkpt><trkpt lat="41.860999245332806" lon="19.476051195703487"><ele>3.0</ele><time>2026-05-03T08:20:28.999Z</time></trkpt><trkpt lat="41.86104944397183" lon="19.47584766676037"><ele>3.0</ele><time>2026-05-03T08:20:29.999Z</time></trkpt><trkpt lat="41.86109352679875" lon="19.475637274662674"><ele>3.0</ele><time>2026-05-03T08:20:30.999Z</time></trkpt><trkpt lat="41.86112551957368" lon="19.475416385480745"><ele>3.333333333333333</ele><time>2026-05-03T08:20:31.999Z</time></trkpt><trkpt lat="41.86115034019899" lon="19.475192462145166"><ele>3.6666666666666665</ele><time>2026-05-03T08:20:32.999Z</time></trkpt><trkpt lat="41.861172822180585" lon="19.4749670175449"><ele>4.0</ele><time>2026-05-03T08:20:33.999Z</time></trkpt><trkpt lat="41.86119426171832" lon="19.474746153993657"><ele>3.333333333333333</ele><time>2026-05-03T08:20:34.999Z</time></trkpt><trkpt lat="41.86121465756455" lon="19.474529753296"><ele>2.6666666666666665</ele><time>2026-05-03T08:20:35.999Z</time></trkpt><trkpt lat="41.86123342415817" lon="19.474319148923048"><ele>2.0</ele><time>2026-05-03T08:20:36.999Z</time></trkpt><trkpt lat="41.86125545787561" lon="19.474105168453935"><ele>2.0</ele><time>2026-05-03T08:20:37.999Z</time></trkpt><trkpt lat="41.86128010797509" lon="19.473889147910437"><ele>2.0</ele><time>2026-05-03T08:20:38.999Z</time></trkpt><trkpt lat="41.86130624940713" lon="19.47367413027037"><ele>2.0</ele><time>2026-05-03T08:20:39.999Z</time></trkpt><trkpt lat="41.86133037974881" lon="19.473457998880317"><ele>2.0</ele><time>2026-05-03T08:20:40.999Z</time></trkpt><trkpt lat="41.86135211156637" lon="19.47324636471824"><ele>2.0</ele><time>2026-05-03T08:20:42Z</time></trkpt><trkpt lat="41.86137445901619" lon="19.473063985045684"><ele>2.0</ele><time>2026-05-03T08:20:43Z</time></trkpt><trkpt lat="41.86140463680316" lon="19.472896782580406"><ele>2.0</ele><time>2026-05-03T08:20:44Z</time></trkpt><trkpt lat="41.861443289571305" lon="19.472714186020433"><ele>2.0</ele><time>2026-05-03T08:20:45Z</time></trkpt><trkpt lat="41.86150762599362" lon="19.4724970087607"><ele>2.0</ele><time>2026-05-03T08:20:46Z</time></trkpt><trkpt lat="41.86160262970226" lon="19.47225604534623"><ele>2.0</ele><time>2026-05-03T08:20:47Z</time></trkpt><trkpt lat="41.861699958838756" lon="19.47201624475909"><ele>2.333333333333333</ele><time>2026-05-03T08:20:48Z</time></trkpt><trkpt lat="41.8617980521434" lon="19.471768589067015"><ele>2.6666666666666665</ele><time>2026-05-03T08:20:49Z</time></trkpt><trkpt lat="41.86189269956478" lon="19.471520627394142"><ele>3.0</ele><time>2026-05-03T08:20:50Z</time></trkpt><trkpt lat="41.86197873939428" lon="19.471291086222035"><ele>2.3333333333333335</ele><time>2026-05-03T08:20:51Z</time></trkpt><trkpt lat="41.86206551365793" lon="19.471075813123868"><ele>1.6666666666666665</ele><time>2026-05-03T08:20:52Z</time></trkpt><trkpt lat="41.862156539104994" lon="19.470893994242466"><ele>1.0</ele><time>2026-05-03T08:20:53Z</time></trkpt><trkpt lat="41.862265564823204" lon="19.4707556254373"><ele>1.0</ele><time>2026-05-03T08:20:54Z</time></trkpt><trkpt lat="41.862392884554595" lon="19.470650220537088"><ele>1.0</ele><time>2026-05-03T08:20:55Z</time></trkpt><trkpt lat="41.86253488490186" lon="19.47055728724559"><ele>1.0</ele><time>2026-05-03T08:20:56Z</time></trkpt><trkpt lat="41.862676886974256" lon="19.470464617121124"><ele>2.0</ele><time>2026-05-03T08:20:57Z</time></trkpt><trkpt lat="41.862815604961334" lon="19.470370383195878"><ele>3.0</ele><time>2026-05-03T08:20:58Z</time></trkpt><trkpt lat="41.86295274074494" lon="19.47026809253541"><ele>4.0</ele><time>2026-05-03T08:20:59Z</time></trkpt><trkpt lat="41.8630912012542" lon="19.470159446857043"><ele>4.0</ele><time>2026-05-03T08:21:00Z</time></trkpt><trkpt lat="41.86323941269821" lon="19.470043760904698"><ele>4.0</ele><time>2026-05-03T08:21:01Z</time></trkpt><trkpt lat="41.863387464771925" lon="19.469929798572963"><ele>4.0</ele><time>2026-05-03T08:21:02Z</time></trkpt><trkpt lat="41.863539364028625" lon="19.469810058489077"><ele>2.333333333333333</ele><time>2026-05-03T08:21:03Z</time></trkpt><trkpt lat="41.86369885177455" lon="19.469689922183704"><ele>0.6666666666666666</ele><time>2026-05-03T08:21:04Z</time></trkpt><trkpt lat="41.863864393718934" lon="19.46956864650457"><ele>-1.0</ele><time>2026-05-03T08:21:05Z</time></trkpt><trkpt lat="41.86403696268602" lon="19.469446166222724"><ele>-1.0</ele><time>2026-05-03T08:21:06Z</time></trkpt><trkpt lat="41.864215842117126" lon="19.46932248741293"><ele>-1.0</ele><time>2026-05-03T08:21:07Z</time></trkpt><trkpt lat="41.86439774602689" lon="19.469198598530102"><ele>-1.0</ele><time>2026-05-03T08:21:08Z</time></trkpt><trkpt lat="41.86458378349106" lon="19.46907178427669"><ele>-1.0</ele><time>2026-05-03T08:21:09Z</time></trkpt><trkpt lat="41.86477634574035" lon="19.46893598371448"><ele>-1.0</ele><time>2026-05-03T08:21:10Z</time></trkpt><trkpt lat="41.86497250459988" lon="19.46879317711829"><ele>-1.0</ele><time>2026-05-03T08:21:11Z</time></trkpt><trkpt lat="41.86517073881135" lon="19.468651000806766"><ele>-0.5</ele><time>2026-05-03T08:21:12Z</time></trkpt><trkpt lat="41.865372121689475" lon="19.468507589758545"><ele>0.0</ele><time>2026-05-03T08:21:13Z</time></trkpt><trkpt lat="41.865573110087546" lon="19.46836335511754"><ele>0.0</ele><time>2026-05-03T08:21:14Z</time></trkpt><trkpt lat="41.86577097778142" lon="19.468221624204567"><ele>0.0</ele><time>2026-05-03T08:21:15Z</time></trkpt><trkpt lat="41.86597358141349" lon="19.468070424879425"><ele>-1.0</ele><time>2026-05-03T08:21:16Z</time></trkpt><trkpt lat="41.86617386546786" lon="19.46791208567175"><ele>-2.0</ele><time>2026-05-03T08:21:17Z</time></trkpt><trkpt lat="41.86637214696304" lon="19.467743160669922"><ele>-2.0</ele><time>2026-05-03T08:21:18Z</time></trkpt><trkpt lat="41.86656781257802" lon="19.467565835172408"><ele>-2.0</ele><time>2026-05-03T08:21:19Z</time></trkpt><trkpt lat="41.86676475194192" lon="19.467384339451876"><ele>-1.5</ele><time>2026-05-03T08:21:20Z</time></trkpt><trkpt lat="41.866962319744474" lon="19.46720400127345"><ele>-1.0</ele><time>2026-05-03T08:21:21Z</time></trkpt><trkpt lat="41.86715563277024" lon="19.467036386564345"><ele>-0.6666666666666666</ele><time>2026-05-03T08:21:22Z</time></trkpt><trkpt lat="41.867341353987385" lon="19.466879144785565"><ele>-0.3333333333333333</ele><time>2026-05-03T08:21:23Z</time></trkpt><trkpt lat="41.86751673224336" lon="19.46673063791595"><ele>0.0</ele><time>2026-05-03T08:21:24Z</time></trkpt><trkpt lat="41.867690439442306" lon="19.46658570450607"><ele>0.3333333333333333</ele><time>2026-05-03T08:21:25Z</time></trkpt><trkpt lat="41.86786408945744" lon="19.46644629051372"><ele>0.6666666666666666</ele><time>2026-05-03T08:21:26Z</time></trkpt><trkpt lat="41.86802884474842" lon="19.46631837623462"><ele>1.0</ele><time>2026-05-03T08:21:27Z</time></trkpt><trkpt lat="41.86818531377319" lon="19.466205567493297"><ele>1.0</ele><time>2026-05-03T08:21:28Z</time></trkpt><trkpt lat="41.86833457072036" lon="19.466099924815367"><ele>1.0</ele><time>2026-05-03T08:21:29Z</time></trkpt><trkpt lat="41.86847897188472" lon="19.466002282671727"><ele>1.0</ele><time>2026-05-03T08:21:30Z</time></trkpt><trkpt lat="41.868622309528064" lon="19.465904514406333"><ele>0.0</ele><time>2026-05-03T08:21:31Z</time></trkpt><trkpt lat="41.86876791901578" lon="19.465803478291246"><ele>-1.0</ele><time>2026-05-03T08:21:32Z</time></trkpt><trkpt lat="41.86891088347984" lon="19.465697396365417"><ele>-2.0</ele><time>2026-05-03T08:21:33Z</time></trkpt><trkpt lat="41.86905394607348" lon="19.465589601503126"><ele>-2.0</ele><time>2026-05-03T08:21:34Z</time></trkpt><trkpt lat="41.86919976398492" lon="19.46549087057518"><ele>-2.0</ele><time>2026-05-03T08:21:35Z</time></trkpt><trkpt lat="41.86934818941966" lon="19.465390174259174"><ele>-2.0</ele><time>2026-05-03T08:21:36Z</time></trkpt><trkpt lat="41.86949586751348" lon="19.465300223673868"><ele>-1.6666666666666665</ele><time>2026-05-03T08:21:37Z</time></trkpt><trkpt lat="41.86965061354758" lon="19.46521339165189"><ele>-1.3333333333333333</ele><time>2026-05-03T08:21:38Z</time></trkpt><trkpt lat="41.869815016940194" lon="19.465131910587452"><ele>-1.0</ele><time>2026-05-03T08:21:39Z</time></trkpt><trkpt lat="41.86998838614861" lon="19.465057916598454"><ele>-0.3333333333333333</ele><time>2026-05-03T08:21:40Z</time></trkpt><trkpt lat="41.8701613870218" lon="19.46496753074389"><ele>0.3333333333333333</ele><time>2026-05-03T08:21:41Z</time></trkpt><trkpt lat="41.87032472414293" lon="19.464849139548573"><ele>1.0</ele><time>2026-05-03T08:21:42Z</time></trkpt><trkpt lat="41.87047835449698" lon="19.46469771592121"><ele>1.0</ele><time>2026-05-03T08:21:43Z</time></trkpt><trkpt lat="41.870627865681" lon="19.464528200077417"><ele>1.0</ele><time>2026-05-03T08:21:44Z</time></trkpt><trkpt lat="41.87077995778307" lon="19.464359251404762"><ele>1.0</ele><time>2026-05-03T08:21:45Z</time></trkpt><trkpt lat="41.87092869358537" lon="19.464200887238135"><ele>1.0</ele><time>2026-05-03T08:21:46Z</time></trkpt><trkpt lat="41.8710800054543" lon="19.464043057497758"><ele>1.0</ele><time>2026-05-03T08:21:47Z</time></trkpt><trkpt lat="41.87123665369952" lon="19.463886976498028"><ele>1.0</ele><time>2026-05-03T08:21:48Z</time></trkpt><trkpt lat="41.87139234406132" lon="19.463746988460052"><ele>1.0</ele><time>2026-05-03T08:21:49Z</time></trkpt><trkpt lat="41.87153396857115" lon="19.463646688456073"><ele>1.0</ele><time>2026-05-03T08:21:50Z</time></trkpt><trkpt lat="41.87166903752519" lon="19.46358311345646"><ele>1.0</ele><time>2026-05-03T08:21:51Z</time></trkpt><trkpt lat="41.87178825623793" lon="19.46357667695684"><ele>1.0</ele><time>2026-05-03T08:21:52Z</time></trkpt><trkpt lat="41.87190713424821" lon="19.463603924564627"><ele>0.75</ele><time>2026-05-03T08:21:53Z</time></trkpt><trkpt lat="41.87203775467741" lon="19.463664579998937"><ele>0.5</ele><time>2026-05-03T08:21:54Z</time></trkpt><trkpt lat="41.87218080273356" lon="19.46371234706681"><ele>0.25</ele><time>2026-05-03T08:21:55Z</time></trkpt><trkpt lat="41.872328837862476" lon="19.46371613271585"><ele>0.0</ele><time>2026-05-03T08:21:56Z</time></trkpt><trkpt lat="41.87246911930273" lon="19.46365561906681"><ele>4.333333333333333</ele><time>2026-05-03T08:21:57Z</time></trkpt><trkpt lat="41.87260752273197" lon="19.463566429215298"><ele>8.666666666666666</ele><time>2026-05-03T08:21:58Z</time></trkpt><trkpt lat="41.872736792538404" lon="19.463442005529913"><ele>13.0</ele><time>2026-05-03T08:21:59Z</time></trkpt><trkpt lat="41.87283649313238" lon="19.46328251850383"><ele>13.0</ele><time>2026-05-03T08:22:00Z</time></trkpt><trkpt lat="41.872915714492045" lon="19.463088467090042"><ele>13.0</ele><time>2026-05-03T08:22:01Z</time></trkpt><trkpt lat="41.87301959177964" lon="19.462889116898435"><ele>13.0</ele><time>2026-05-03T08:22:02Z</time></trkpt><trkpt lat="41.873150739055525" lon="19.4627212057597"><ele>14.0</ele><time>2026-05-03T08:22:03Z</time></trkpt><trkpt lat="41.87332012751132" lon="19.46258104490303"><ele>15.0</ele><time>2026-05-03T08:22:04Z</time></trkpt><trkpt lat="41.87351825115402" lon="19.4624493212421"><ele>16.0</ele><time>2026-05-03T08:22:05Z</time></trkpt><trkpt lat="41.873721191573985" lon="19.462298236858413"><ele>16.0</ele><time>2026-05-03T08:22:06Z</time></trkpt><trkpt lat="41.873907572915854" lon="19.462143584057863"><ele>16.0</ele><time>2026-05-03T08:22:07Z</time></trkpt><trkpt lat="41.874093188766196" lon="19.461977257027446"><ele>16.0</ele><time>2026-05-03T08:22:08Z</time></trkpt><trkpt lat="41.87426690524866" lon="19.461794340898518"><ele>18.333333333333332</ele><time>2026-05-03T08:22:09Z</time></trkpt><trkpt lat="41.874422542191446" lon="19.461613740557954"><ele>20.666666666666668</ele><time>2026-05-03T08:22:10Z</time></trkpt><trkpt lat="41.8745735356983" lon="19.46144270966988"><ele>23.0</ele><time>2026-05-03T08:22:11Z</time></trkpt><trkpt lat="41.8747161759229" lon="19.46126847682355"><ele>26.666666666666668</ele><time>2026-05-03T08:22:12Z</time></trkpt><trkpt lat="41.874846748792585" lon="19.46107517292276"><ele>30.333333333333336</ele><time>2026-05-03T08:22:13Z</time></trkpt><trkpt lat="41.87497001813149" lon="19.460869655391974"><ele>34.0</ele><time>2026-05-03T08:22:14Z</time></trkpt><trkpt lat="41.8751073029241" lon="19.460672781678863"><ele>34.0</ele><time>2026-05-03T08:22:15Z</time></trkpt><trkpt lat="41.87525967611286" lon="19.46049847100816"><ele>34.0</ele><time>2026-05-03T08:22:16Z</time></trkpt><trkpt lat="41.875410393828666" lon="19.460327445788366"><ele>34.0</ele><time>2026-05-03T08:22:17Z</time></trkpt><trkpt lat="41.87554856204046" lon="19.460147368166663"><ele>26.666666666666668</ele><time>2026-05-03T08:22:18Z</time></trkpt><trkpt lat="41.875679777846194" lon="19.45995370887931"><ele>19.333333333333336</ele><time>2026-05-03T08:22:19Z</time></trkpt><trkpt lat="41.875803757925794" lon="19.45974686279511"><ele>12.0</ele><time>2026-05-03T08:22:20Z</time></trkpt><trkpt lat="41.875914233418854" lon="19.459524915553764"><ele>14.333333333333332</ele><time>2026-05-03T08:22:21Z</time></trkpt><trkpt lat="41.876016499116915" lon="19.45929616990399"><ele>16.666666666666664</ele><time>2026-05-03T08:22:22Z</time></trkpt><trkpt lat="41.87613760187897" lon="19.459084282149316"><ele>19.0</ele><time>2026-05-03T08:22:23Z</time></trkpt><trkpt lat="41.87628273164648" lon="19.45889870585748"><ele>14.0</ele><time>2026-05-03T08:22:24Z</time></trkpt><trkpt lat="41.87644796776804" lon="19.45872606864028"><ele>9.0</ele><time>2026-05-03T08:22:25Z</time></trkpt><trkpt lat="41.87661201627211" lon="19.458549768513024"><ele>4.0</ele><time>2026-05-03T08:22:26Z</time></trkpt><trkpt lat="41.876766125292306" lon="19.45835828793915"><ele>3.0</ele><time>2026-05-03T08:22:27Z</time></trkpt><trkpt lat="41.87691579704674" lon="19.458176228620317"><ele>2.0</ele><time>2026-05-03T08:22:28Z</time></trkpt><trkpt lat="41.87706827914953" lon="19.45801770678826"><ele>1.0</ele><time>2026-05-03T08:22:29Z</time></trkpt><trkpt lat="41.87721804435717" lon="19.457890549266715"><ele>1.0</ele><time>2026-05-03T08:22:30Z</time></trkpt><trkpt lat="41.87735783747946" lon="19.45780602589155"><ele>1.0</ele><time>2026-05-03T08:22:31Z</time></trkpt><trkpt lat="41.87749109129611" lon="19.457770869632448"><ele>1.0</ele><time>2026-05-03T08:22:31.999Z</time></trkpt><trkpt lat="41.87763259376524" lon="19.45777046916668"><ele>1.0</ele><time>2026-05-03T08:22:32.999Z</time></trkpt><trkpt lat="41.87776538691851" lon="19.45777800460488"><ele>3.5</ele><time>2026-05-03T08:22:33.999Z</time></trkpt><trkpt lat="41.87788888037621" lon="19.45775727979859"><ele>6.0</ele><time>2026-05-03T08:22:34.999Z</time></trkpt><trkpt lat="41.87801696455041" lon="19.457684885272016"><ele>8.5</ele><time>2026-05-03T08:22:35.999Z</time></trkpt><trkpt lat="41.87815718047657" lon="19.457573255461963"><ele>11.0</ele><time>2026-05-03T08:22:36.999Z</time></trkpt><trkpt lat="41.87830416111682" lon="19.457430026062212"><ele>9.666666666666666</ele><time>2026-05-03T08:22:37.999Z</time></trkpt><trkpt lat="41.87847614490849" lon="19.45727347053386"><ele>8.333333333333334</ele><time>2026-05-03T08:22:38.999Z</time></trkpt><trkpt lat="41.87865188161136" lon="19.457126928173757"><ele>7.0</ele><time>2026-05-03T08:22:39.999Z</time></trkpt><trkpt lat="41.878826468848104" lon="19.456965125004462"><ele>7.0</ele><time>2026-05-03T08:22:40.999Z</time></trkpt><trkpt lat="41.87899895538607" lon="19.45678733387954"><ele>7.0</ele><time>2026-05-03T08:22:41.999Z</time></trkpt><trkpt lat="41.87917255862636" lon="19.45660001403985"><ele>7.0</ele><time>2026-05-03T08:22:42.999Z</time></trkpt><trkpt lat="41.87934561480791" lon="19.45640815401444"><ele>7.0</ele><time>2026-05-03T08:22:43.999Z</time></trkpt><trkpt lat="41.87952298722151" lon="19.45622246677038"><ele>7.0</ele><time>2026-05-03T08:22:44.999Z</time></trkpt><trkpt lat="41.879713055977675" lon="19.45604214843761"><ele>7.0</ele><time>2026-05-03T08:22:45.999Z</time></trkpt><trkpt lat="41.879909382938656" lon="19.45586924471633"><ele>7.0</ele><time>2026-05-03T08:22:46.999Z</time></trkpt><trkpt lat="41.88010126291275" lon="19.455685905880085"><ele>6.5</ele><time>2026-05-03T08:22:48Z</time></trkpt><trkpt lat="41.88028042871764" lon="19.455475129542425"><ele>6.0</ele><time>2026-05-03T08:22:49Z</time></trkpt><trkpt lat="41.880451821973516" lon="19.45530598470024"><ele>6.0</ele><time>2026-05-03T08:22:50Z</time></trkpt><trkpt lat="41.8805922595844" lon="19.455088704180685"><ele>6.0</ele><time>2026-05-03T08:22:51Z</time></trkpt><trkpt lat="41.880735744979226" lon="19.45489742065616"><ele>6.0</ele><time>2026-05-03T08:22:52Z</time></trkpt><trkpt lat="41.88089135861636" lon="19.45472951719712"><ele>4.666666666666667</ele><time>2026-05-03T08:22:53Z</time></trkpt><trkpt lat="41.881070268463624" lon="19.454590235727704"><ele>3.333333333333333</ele><time>2026-05-03T08:22:54Z</time></trkpt><trkpt lat="41.88126601018827" lon="19.45447567336427"><ele>2.0</ele><time>2026-05-03T08:22:55Z</time></trkpt><trkpt lat="41.88148019605572" lon="19.45438227954506"><ele>2.0</ele><time>2026-05-03T08:22:56Z</time></trkpt><trkpt lat="41.881699323274546" lon="19.454285757057036"><ele>2.0</ele><time>2026-05-03T08:22:57Z</time></trkpt><trkpt lat="41.88191954283355" lon="19.454196034052497"><ele>2.333333333333333</ele><time>2026-05-03T08:22:58Z</time></trkpt><trkpt lat="41.88214515590607" lon="19.45412299785844"><ele>2.6666666666666665</ele><time>2026-05-03T08:22:59Z</time></trkpt><trkpt lat="41.88234675251018" lon="19.454095925051895"><ele>3.0</ele><time>2026-05-03T08:23:00Z</time></trkpt><trkpt lat="41.882516024489775" lon="19.454088876437023"><ele>5.75</ele><time>2026-05-03T08:23:01Z</time></trkpt><trkpt lat="41.88265263514119" lon="19.454071776244533"><ele>8.5</ele><time>2026-05-03T08:23:02Z</time></trkpt><trkpt lat="41.88277375192393" lon="19.454003216891934"><ele>11.25</ele><time>2026-05-03T08:23:03Z</time></trkpt><trkpt lat="41.88289211804501" lon="19.453869391338557"><ele>14.0</ele><time>2026-05-03T08:23:04Z</time></trkpt><trkpt lat="41.882998977877" lon="19.45369983903663"><ele>14.0</ele><time>2026-05-03T08:23:05Z</time></trkpt><trkpt lat="41.88307859852052" lon="19.45349002492"><ele>14.0</ele><time>2026-05-03T08:23:06Z</time></trkpt><trkpt lat="41.883134000916435" lon="19.453253175307065"><ele>14.0</ele><time>2026-05-03T08:23:07Z</time></trkpt><trkpt lat="41.883166638672144" lon="19.45305570040764"><ele>11.5</ele><time>2026-05-03T08:23:08Z</time></trkpt><trkpt lat="41.88320582428627" lon="19.45289231683316"><ele>9.0</ele><time>2026-05-03T08:23:09Z</time></trkpt><trkpt lat="41.8832631001305" lon="19.452744603128302"><ele>6.5</ele><time>2026-05-03T08:23:10Z</time></trkpt><trkpt lat="41.88333778140803" lon="19.452597496071878"><ele>4.0</ele><time>2026-05-03T08:23:11Z</time></trkpt><trkpt lat="41.88344216877875" lon="19.452461189810663"><ele>5.0</ele><time>2026-05-03T08:23:12Z</time></trkpt><trkpt lat="41.88356077018246" lon="19.452333584920122"><ele>6.0</ele><time>2026-05-03T08:23:13Z</time></trkpt><trkpt lat="41.88367434898822" lon="19.452201615973085"><ele>7.0</ele><time>2026-05-03T08:23:14Z</time></trkpt><trkpt lat="41.88377086098762" lon="19.452057105166368"><ele>8.0</ele><time>2026-05-03T08:23:15Z</time></trkpt><trkpt lat="41.88385350521405" lon="19.45188058804523"><ele>8.0</ele><time>2026-05-03T08:23:16Z</time></trkpt><trkpt lat="41.88391697749828" lon="19.45171900563273"><ele>8.0</ele><time>2026-05-03T08:23:17Z</time></trkpt><trkpt lat="41.883980648308146" lon="19.451576245416177"><ele>8.0</ele><time>2026-05-03T08:23:18Z</time></trkpt><trkpt lat="41.88405040201534" lon="19.451447454421768"><ele>8.0</ele><time>2026-05-03T08:23:19Z</time></trkpt><trkpt lat="41.88411626227351" lon="19.451328085603247"><ele>7.75</ele><time>2026-05-03T08:23:20Z</time></trkpt><trkpt lat="41.88420399088896" lon="19.451199815342033"><ele>7.5</ele><time>2026-05-03T08:23:21Z</time></trkpt><trkpt lat="41.88431324573676" lon="19.4510815006038"><ele>7.25</ele><time>2026-05-03T08:23:22Z</time></trkpt><trkpt lat="41.88443512681641" lon="19.450963410752237"><ele>7.0</ele><time>2026-05-03T08:23:23Z</time></trkpt><trkpt lat="41.884560519819786" lon="19.450845644890666"><ele>7.0</ele><time>2026-05-03T08:23:24Z</time></trkpt><trkpt lat="41.88469446956737" lon="19.450729441718416"><ele>7.0</ele><time>2026-05-03T08:23:25Z</time></trkpt><trkpt lat="41.884843196949966" lon="19.450619783860777"><ele>7.0</ele><time>2026-05-03T08:23:26Z</time></trkpt><trkpt lat="41.88499192080904" lon="19.450527111073487"><ele>5.666666666666667</ele><time>2026-05-03T08:23:27Z</time></trkpt><trkpt lat="41.88514661590265" lon="19.450441270671817"><ele>4.333333333333334</ele><time>2026-05-03T08:23:28Z</time></trkpt><trkpt lat="41.88529427168279" lon="19.450343488540703"><ele>3.0</ele><time>2026-05-03T08:23:29Z</time></trkpt><trkpt lat="41.88542339527391" lon="19.450243400794523"><ele>3.0</ele><time>2026-05-03T08:23:30Z</time></trkpt><trkpt lat="41.88553846888282" lon="19.45012946094868"><ele>3.0</ele><time>2026-05-03T08:23:31Z</time></trkpt><trkpt lat="41.88564419210077" lon="19.44998559445216"><ele>3.0</ele><time>2026-05-03T08:23:32Z</time></trkpt><trkpt lat="41.88575619572058" lon="19.44982105906874"><ele>3.0</ele><time>2026-05-03T08:23:33Z</time></trkpt><trkpt lat="41.88588700235547" lon="19.449656840718003"><ele>3.0</ele><time>2026-05-03T08:23:34Z</time></trkpt><trkpt lat="41.88604160214523" lon="19.44951577450466"><ele>3.0</ele><time>2026-05-03T08:23:35Z</time></trkpt><trkpt lat="41.88620194413142" lon="19.449406310783434"><ele>3.0</ele><time>2026-05-03T08:23:36Z</time></trkpt><trkpt lat="41.88636085157437" lon="19.4493201934431"><ele>3.0</ele><time>2026-05-03T08:23:37Z</time></trkpt><trkpt lat="41.88652990652739" lon="19.449239588984764"><ele>3.0</ele><time>2026-05-03T08:23:38Z</time></trkpt><trkpt lat="41.88668982876853" lon="19.449179292127504"><ele>5.0</ele><time>2026-05-03T08:23:39Z</time></trkpt><trkpt lat="41.88683829228029" lon="19.44914225822875"><ele>7.0</ele><time>2026-05-03T08:23:40Z</time></trkpt><trkpt lat="41.886955642003755" lon="19.44908466735417"><ele>9.0</ele><time>2026-05-03T08:23:41Z</time></trkpt><trkpt lat="41.887072559971244" lon="19.448967891609925"><ele>11.0</ele><time>2026-05-03T08:23:42Z</time></trkpt><trkpt lat="41.88717961528943" lon="19.448827939985346"><ele>8.75</ele><time>2026-05-03T08:23:43Z</time></trkpt><trkpt lat="41.88728927359063" lon="19.448737924844394"><ele>6.5</ele><time>2026-05-03T08:23:44Z</time></trkpt><trkpt lat="41.887408731573686" lon="19.44871583498152"><ele>4.25</ele><time>2026-05-03T08:23:45Z</time></trkpt><trkpt lat="41.88754722950681" lon="19.448713775375126"><ele>2.0</ele><time>2026-05-03T08:23:46Z</time></trkpt><trkpt lat="41.887701066382014" lon="19.448702481391898"><ele>2.0</ele><time>2026-05-03T08:23:47Z</time></trkpt><trkpt lat="41.887851381110416" lon="19.44868876987709"><ele>2.0</ele><time>2026-05-03T08:23:48Z</time></trkpt><trkpt lat="41.88794792915436" lon="19.448683843711837"><ele>2.0</ele><time>2026-05-03T08:23:49Z</time></trkpt><trkpt lat="41.88804402764189" lon="19.448703170211914"><ele>2.0</ele><time>2026-05-03T08:23:51Z</time></trkpt><trkpt lat="41.88812970424622" lon="19.44867320423013"><ele>2.0</ele><time>2026-05-03T08:25:02Z</time></trkpt><trkpt lat="41.88825640962031" lon="19.44865911638517"><ele>1.9999999999999998</ele><time>2026-05-03T08:25:04Z</time></trkpt><trkpt lat="41.88832256363041" lon="19.44865104937945"><ele>2.0</ele><time>2026-05-03T08:25:05Z</time></trkpt><trkpt lat="41.888460976610084" lon="19.448635142504646"><ele>2.0</ele><time>2026-05-03T08:25:07Z</time></trkpt><trkpt lat="41.88854094427026" lon="19.448628754254067"><ele>2.0</ele><time>2026-05-03T08:25:08Z</time></trkpt><trkpt lat="41.888622454019576" lon="19.448625944988482"><ele>1.9999999999999998</ele><time>2026-05-03T08:25:09Z</time></trkpt><trkpt lat="41.8887037350919" lon="19.448621062267254"><ele>2.0</ele><time>2026-05-03T08:25:10Z</time></trkpt><trkpt lat="41.888793699693764" lon="19.448608797668875"><ele>2.0</ele><time>2026-05-03T08:25:11Z</time></trkpt><trkpt lat="41.8888871225578" lon="19.448602660549735"><ele>2.0</ele><time>2026-05-03T08:25:12Z</time></trkpt><trkpt lat="41.888987483135246" lon="19.4486070081784"><ele>2.0</ele><time>2026-05-03T08:25:13Z</time></trkpt><trkpt lat="41.88908766965261" lon="19.44861877763968"><ele>2.0</ele><time>2026-05-03T08:25:14Z</time></trkpt><trkpt lat="41.88918617410336" lon="19.44864097628224"><ele>2.0</ele><time>2026-05-03T08:25:15Z</time></trkpt><trkpt lat="41.88927909059241" lon="19.44867845127171"><ele>2.0</ele><time>2026-05-03T08:25:16Z</time></trkpt><trkpt lat="41.889371426347005" lon="19.448720509264"><ele>2.0</ele><time>2026-05-03T08:25:17Z</time></trkpt><trkpt lat="41.88946318624871" lon="19.448760015815182"><ele>2.0</ele><time>2026-05-03T08:25:18Z</time></trkpt><trkpt lat="41.889550947676014" lon="19.448794714143613"><ele>2.0</ele><time>2026-05-03T08:25:19Z</time></trkpt><trkpt lat="41.88963644902176" lon="19.448826813131056"><ele>2.0</ele><time>2026-05-03T08:25:20Z</time></trkpt><trkpt lat="41.88972533239738" lon="19.448853589705784"><ele>4.6</ele><time>2026-05-03T08:25:21Z</time></trkpt><trkpt lat="41.889815604297326" lon="19.44886575501142"><ele>7.2</ele><time>2026-05-03T08:25:22Z</time></trkpt><trkpt lat="41.88991449717937" lon="19.448856654729397"><ele>9.8</ele><time>2026-05-03T08:25:23Z</time></trkpt><trkpt lat="41.89000962949381" lon="19.448838808362826"><ele>12.4</ele><time>2026-05-03T08:25:24Z</time></trkpt><trkpt lat="41.89010737011277" lon="19.448820263245874"><ele>15.0</ele><time>2026-05-03T08:25:25Z</time></trkpt><trkpt lat="41.890209570673036" lon="19.448807897080766"><ele>16.4</ele><time>2026-05-03T08:25:26Z</time></trkpt><trkpt lat="41.89031073992831" lon="19.44879676125366"><ele>17.8</ele><time>2026-05-03T08:25:27Z</time></trkpt><trkpt lat="41.890416361801954" lon="19.44878805233461"><ele>19.200000000000003</ele><time>2026-05-03T08:25:28Z</time></trkpt><trkpt lat="41.8905255946711" lon="19.44877564220784"><ele>20.6</ele><time>2026-05-03T08:25:29Z</time></trkpt><trkpt lat="41.890637763938955" lon="19.448760680568153"><ele>22.0</ele><time>2026-05-03T08:25:30Z</time></trkpt><trkpt lat="41.89075489969854" lon="19.44874562482283"><ele>17.75</ele><time>2026-05-03T08:25:31Z</time></trkpt><trkpt lat="41.89087683445282" lon="19.448727509524446"><ele>13.5</ele><time>2026-05-03T08:25:32Z</time></trkpt><trkpt lat="41.891002763559904" lon="19.44871051307191"><ele>9.25</ele><time>2026-05-03T08:25:33Z</time></trkpt><trkpt lat="41.8911317407555" lon="19.448695631382268"><ele>5.0</ele><time>2026-05-03T08:25:34Z</time></trkpt><trkpt lat="41.89129252079593" lon="19.448677214376264"><ele>3.3333333333333335</ele><time>2026-05-03T08:25:35Z</time></trkpt><trkpt lat="41.891457057990934" lon="19.44865897431911"><ele>1.6666666666666667</ele><time>2026-05-03T08:25:35.999Z</time></trkpt><trkpt lat="41.891633174576135" lon="19.448643340731152"><ele>0.0</ele><time>2026-05-03T08:25:36.999Z</time></trkpt><trkpt lat="41.89181236972001" lon="19.448629380959034"><ele>-0.6666666666666666</ele><time>2026-05-03T08:25:37.999Z</time></trkpt><trkpt lat="41.89199886030742" lon="19.448616764060617"><ele>-1.3333333333333333</ele><time>2026-05-03T08:25:38.999Z</time></trkpt><trkpt lat="41.892183270808744" lon="19.44859292037095"><ele>-2.0</ele><time>2026-05-03T08:25:39.999Z</time></trkpt><trkpt lat="41.89237464414532" lon="19.448537795858392"><ele>-2.0</ele><time>2026-05-03T08:25:40.999Z</time></trkpt><trkpt lat="41.89256722104759" lon="19.448468586650524"><ele>-2.0</ele><time>2026-05-03T08:25:41.999Z</time></trkpt><trkpt lat="41.892766996200464" lon="19.448404011324424"><ele>-2.0</ele><time>2026-05-03T08:25:42.999Z</time></trkpt><trkpt lat="41.892939070831765" lon="19.44834764659405"><ele>0.3333333333333335</ele><time>2026-05-03T08:25:43.999Z</time></trkpt><trkpt lat="41.89307195050665" lon="19.448254235128733"><ele>2.666666666666667</ele><time>2026-05-03T08:25:44.999Z</time></trkpt><trkpt lat="41.89321414188781" lon="19.448118021979248"><ele>5.0</ele><time>2026-05-03T08:25:45.999Z</time></trkpt><trkpt lat="41.89337102273181" lon="19.447955134162214"><ele>6.5</ele><time>2026-05-03T08:25:46.999Z</time></trkpt><trkpt lat="41.8935609590109" lon="19.44780865898552"><ele>8.0</ele><time>2026-05-03T08:25:47.999Z</time></trkpt><trkpt lat="41.89379444269343" lon="19.447684064037606"><ele>8.0</ele><time>2026-05-03T08:25:48.999Z</time></trkpt><trkpt lat="41.89405204440635" lon="19.44755258584752"><ele>8.0</ele><time>2026-05-03T08:25:49.999Z</time></trkpt><trkpt lat="41.89431262257568" lon="19.447408984118358"><ele>16.0</ele><time>2026-05-03T08:25:50.999Z</time></trkpt><trkpt lat="41.89456102975886" lon="19.447270042175102"><ele>24.0</ele><time>2026-05-03T08:25:51.999Z</time></trkpt><trkpt lat="41.89478175702948" lon="19.447170129508198"><ele>23.666666666666668</ele><time>2026-05-03T08:25:52.999Z</time></trkpt><trkpt lat="41.89498007182134" lon="19.447098893378985"><ele>23.333333333333336</ele><time>2026-05-03T08:25:53.999Z</time></trkpt><trkpt lat="41.89515027986511" lon="19.447034218541223"><ele>23.0</ele><time>2026-05-03T08:25:54.999Z</time></trkpt><trkpt lat="41.8953110155226" lon="19.44690348028793"><ele>23.0</ele><time>2026-05-03T08:25:55.999Z</time></trkpt><trkpt lat="41.895478922806426" lon="19.44670761626339"><ele>23.0</ele><time>2026-05-03T08:25:56.999Z</time></trkpt><trkpt lat="41.895653782026685" lon="19.446486914343414"><ele>28.5</ele><time>2026-05-03T08:25:57.999Z</time></trkpt><trkpt lat="41.895816963095626" lon="19.446243332356808"><ele>34.0</ele><time>2026-05-03T08:25:58.999Z</time></trkpt><trkpt lat="41.89598449380628" lon="19.445987180823195"><ele>34.0</ele><time>2026-05-03T08:25:59.999Z</time></trkpt><trkpt lat="41.89614251149496" lon="19.445769590527238"><ele>34.0</ele><time>2026-05-03T08:26:00.999Z</time></trkpt><trkpt lat="41.89625907108264" lon="19.445607576944127"><ele>34.0</ele><time>2026-05-03T08:26:01.999Z</time></trkpt><trkpt lat="41.89633186367776" lon="19.44542781933499"><ele>27.666666666666668</ele><time>2026-05-03T08:26:02.999Z</time></trkpt><trkpt lat="41.896378857450266" lon="19.4451998929474"><ele>21.333333333333336</ele><time>2026-05-03T08:26:03.999Z</time></trkpt><trkpt lat="41.89642913426833" lon="19.444961107146188"><ele>15.0</ele><time>2026-05-03T08:26:04.999Z</time></trkpt><trkpt lat="41.896514607605965" lon="19.44474465336836"><ele>18.0</ele><time>2026-05-03T08:26:05.999Z</time></trkpt><trkpt lat="41.89663496953641" lon="19.444536651281393"><ele>21.0</ele><time>2026-05-03T08:26:06.999Z</time></trkpt><trkpt lat="41.8967628693209" lon="19.44431585616085"><ele>24.0</ele><time>2026-05-03T08:26:07.999Z</time></trkpt><trkpt lat="41.89691049012047" lon="19.44410878382619"><ele>24.0</ele><time>2026-05-03T08:26:08.999Z</time></trkpt><trkpt lat="41.897092571224384" lon="19.44392259860072"><ele>24.0</ele><time>2026-05-03T08:26:09.999Z</time></trkpt><trkpt lat="41.897274907884324" lon="19.443748264676504"><ele>19.333333333333332</ele><time>2026-05-03T08:26:10.999Z</time></trkpt><trkpt lat="41.897403659203796" lon="19.443592879290986"><ele>14.666666666666668</ele><time>2026-05-03T08:26:11.999Z</time></trkpt><trkpt lat="41.8974851625729" lon="19.443436994335897"><ele>10.0</ele><time>2026-05-03T08:26:12.999Z</time></trkpt><trkpt lat="41.897535326965745" lon="19.443249515364982"><ele>10.0</ele><time>2026-05-03T08:26:13.999Z</time></trkpt><trkpt lat="41.8975684641594" lon="19.443057283834545"><ele>10.0</ele><time>2026-05-03T08:26:14.999Z</time></trkpt><trkpt lat="41.897603128104805" lon="19.442872621214516"><ele>10.0</ele><time>2026-05-03T08:26:15.999Z</time></trkpt><trkpt lat="41.89767978457239" lon="19.442693252661577"><ele>10.0</ele><time>2026-05-03T08:26:16.999Z</time></trkpt><trkpt lat="41.897793742126055" lon="19.442547167474835"><ele>11.0</ele><time>2026-05-03T08:26:17.999Z</time></trkpt><trkpt lat="41.89794126657014" lon="19.442467414482277"><ele>12.0</ele><time>2026-05-03T08:26:18.999Z</time></trkpt><trkpt lat="41.89811712638457" lon="19.44240468295631"><ele>13.0</ele><time>2026-05-03T08:26:19.999Z</time></trkpt><trkpt lat="41.89829110779672" lon="19.442319438135307"><ele>14.666666666666666</ele><time>2026-05-03T08:26:20.999Z</time></trkpt><trkpt lat="41.89843457679713" lon="19.442188423075144"><ele>16.333333333333332</ele><time>2026-05-03T08:26:21.999Z</time></trkpt><trkpt lat="41.89857385697811" lon="19.442027507375183"><ele>18.0</ele><time>2026-05-03T08:26:22.999Z</time></trkpt><trkpt lat="41.89871654859141" lon="19.44186983839082"><ele>18.0</ele><time>2026-05-03T08:26:23.999Z</time></trkpt><trkpt lat="41.898878611377874" lon="19.44171323281371"><ele>18.0</ele><time>2026-05-03T08:26:24.999Z</time></trkpt><trkpt lat="41.89905453995384" lon="19.44156672498798"><ele>18.0</ele><time>2026-05-03T08:26:25.999Z</time></trkpt><trkpt lat="41.89922495697185" lon="19.441396388376898"><ele>16.666666666666668</ele><time>2026-05-03T08:26:26.999Z</time></trkpt><trkpt lat="41.89937876247555" lon="19.441183998872855"><ele>15.333333333333334</ele><time>2026-05-03T08:26:27.999Z</time></trkpt><trkpt lat="41.899538875198324" lon="19.44097552378252"><ele>14.0</ele><time>2026-05-03T08:26:28.999Z</time></trkpt><trkpt lat="41.89969529286957" lon="19.440812484741464"><ele>14.0</ele><time>2026-05-03T08:26:29.999Z</time></trkpt><trkpt lat="41.899853743100266" lon="19.440682287300596"><ele>14.0</ele><time>2026-05-03T08:26:30.999Z</time></trkpt><trkpt lat="41.89999533882163" lon="19.440560858888826"><ele>14.0</ele><time>2026-05-03T08:26:31.999Z</time></trkpt><trkpt lat="41.90010565646081" lon="19.440412611629664"><ele>14.5</ele><time>2026-05-03T08:26:32.999Z</time></trkpt><trkpt lat="41.9001813192498" lon="19.44024837902974"><ele>15.0</ele><time>2026-05-03T08:26:33.999Z</time></trkpt><trkpt lat="41.90025503925825" lon="19.440094964733188"><ele>15.5</ele><time>2026-05-03T08:26:34.999Z</time></trkpt><trkpt lat="41.90032850321726" lon="19.439966299405945"><ele>16.0</ele><time>2026-05-03T08:26:35.999Z</time></trkpt><trkpt lat="41.90039786449516" lon="19.439862902191315"><ele>16.0</ele><time>2026-05-03T08:26:36.999Z</time></trkpt><trkpt lat="41.90046600626689" lon="19.439775553970183"><ele>16.0</ele><time>2026-05-03T08:26:37.999Z</time></trkpt><trkpt lat="41.900533710224586" lon="19.439711645877757"><ele>16.0</ele><time>2026-05-03T08:26:38.999Z</time></trkpt><trkpt lat="41.90061519682652" lon="19.439675648770574"><ele>16.0</ele><time>2026-05-03T08:26:39.999Z</time></trkpt><trkpt lat="41.90070913823256" lon="19.4396709140432"><ele>16.0</ele><time>2026-05-03T08:26:40.999Z</time></trkpt><trkpt lat="41.900818798188176" lon="19.439648463858205"><ele>13.0</ele><time>2026-05-03T08:26:41.999Z</time></trkpt><trkpt lat="41.90096488428977" lon="19.439603714546703"><ele>10.0</ele><time>2026-05-03T08:26:42.999Z</time></trkpt><trkpt lat="41.90113300910993" lon="19.43954852975699"><ele>7.0</ele><time>2026-05-03T08:26:43.999Z</time></trkpt><trkpt lat="41.90129546383245" lon="19.439476694558408"><ele>7.0</ele><time>2026-05-03T08:26:44.999Z</time></trkpt><trkpt lat="41.901455569578935" lon="19.439363339544414"><ele>7.0</ele><time>2026-05-03T08:26:45.999Z</time></trkpt><trkpt lat="41.901607922325304" lon="19.439228656307957"><ele>7.0</ele><time>2026-05-03T08:26:46.999Z</time></trkpt><trkpt lat="41.90176113405885" lon="19.439084877606753"><ele>8.0</ele><time>2026-05-03T08:26:47.999Z</time></trkpt><trkpt lat="41.901907854410744" lon="19.43893506300403"><ele>9.0</ele><time>2026-05-03T08:26:48.999Z</time></trkpt><trkpt lat="41.90205637881704" lon="19.438772579314254"><ele>10.0</ele><time>2026-05-03T08:26:49.999Z</time></trkpt><trkpt lat="41.902199346911466" lon="19.438601713526612"><ele>10.0</ele><time>2026-05-03T08:26:50.999Z</time></trkpt><trkpt lat="41.902337554071764" lon="19.43841446157657"><ele>10.0</ele><time>2026-05-03T08:26:51.999Z</time></trkpt><trkpt lat="41.90247328417444" lon="19.4382089231207"><ele>10.0</ele><time>2026-05-03T08:26:52.999Z</time></trkpt><trkpt lat="41.90260589579296" lon="19.437983685916695"><ele>16.5</ele><time>2026-05-03T08:26:53.999Z</time></trkpt><trkpt lat="41.90272906823055" lon="19.437730319635012"><ele>23.0</ele><time>2026-05-03T08:26:54.999Z</time></trkpt><trkpt lat="41.90284328125585" lon="19.437454575858364"><ele>23.0</ele><time>2026-05-03T08:26:55.999Z</time></trkpt><trkpt lat="41.90293834389698" lon="19.43719075618692"><ele>23.0</ele><time>2026-05-03T08:26:56.999Z</time></trkpt><trkpt lat="41.90301628126341" lon="19.436939864056612"><ele>23.0</ele><time>2026-05-03T08:26:57.999Z</time></trkpt><trkpt lat="41.90306964071474" lon="19.43669053518794"><ele>18.666666666666668</ele><time>2026-05-03T08:26:59Z</time></trkpt><trkpt lat="41.90310817582141" lon="19.43644622227494"><ele>14.333333333333334</ele><time>2026-05-03T08:27:00Z</time></trkpt><trkpt lat="41.90316048933638" lon="19.436228376565403"><ele>10.0</ele><time>2026-05-03T08:27:01Z</time></trkpt><trkpt lat="41.90324980292033" lon="19.436055644167745"><ele>9.666666666666668</ele><time>2026-05-03T08:27:02Z</time></trkpt><trkpt lat="41.90339108564262" lon="19.435890393265453"><ele>9.333333333333334</ele><time>2026-05-03T08:27:03Z</time></trkpt><trkpt lat="41.90354443649835" lon="19.435702577753744"><ele>9.0</ele><time>2026-05-03T08:27:04Z</time></trkpt><trkpt lat="41.90370376345009" lon="19.43550453102263"><ele>7.0</ele><time>2026-05-03T08:27:05Z</time></trkpt><trkpt lat="41.903867545120846" lon="19.43530503478496"><ele>5.0</ele><time>2026-05-03T08:27:06Z</time></trkpt><trkpt lat="41.90403473635104" lon="19.4351125957017"><ele>3.0</ele><time>2026-05-03T08:27:07Z</time></trkpt><trkpt lat="41.90421882632762" lon="19.434940996184082"><ele>5.5</ele><time>2026-05-03T08:27:08Z</time></trkpt><trkpt lat="41.90441979153338" lon="19.43479544684206"><ele>8.0</ele><time>2026-05-03T08:27:09Z</time></trkpt><trkpt lat="41.90461736269984" lon="19.434653837769872"><ele>6.333333333333333</ele><time>2026-05-03T08:27:10Z</time></trkpt><trkpt lat="41.90481288751458" lon="19.43451473394177"><ele>4.666666666666666</ele><time>2026-05-03T08:27:11Z</time></trkpt><trkpt lat="41.90499676190769" lon="19.434389321082527"><ele>3.0</ele><time>2026-05-03T08:27:12Z</time></trkpt><trkpt lat="41.90518095769065" lon="19.434271000806433"><ele>3.0</ele><time>2026-05-03T08:27:13Z</time></trkpt><trkpt lat="41.90537924330743" lon="19.434175627488685"><ele>3.0</ele><time>2026-05-03T08:27:14Z</time></trkpt><trkpt lat="41.90559052698554" lon="19.434124865252937"><ele>3.0</ele><time>2026-05-03T08:27:15Z</time></trkpt><trkpt lat="41.90581094919969" lon="19.43410218799892"><ele>6.666666666666667</ele><time>2026-05-03T08:27:16Z</time></trkpt><trkpt lat="41.90602590919186" lon="19.43407415037896"><ele>10.333333333333334</ele><time>2026-05-03T08:27:17Z</time></trkpt><trkpt lat="41.9062421018208" lon="19.43402489729764"><ele>14.0</ele><time>2026-05-03T08:27:18Z</time></trkpt><trkpt lat="41.906460674993184" lon="19.433952080282985"><ele>14.0</ele><time>2026-05-03T08:27:19Z</time></trkpt><trkpt lat="41.90667890592009" lon="19.433849537780564"><ele>14.0</ele><time>2026-05-03T08:27:20Z</time></trkpt><trkpt lat="41.90688661577656" lon="19.433706237081328"><ele>15.5</ele><time>2026-05-03T08:27:21Z</time></trkpt><trkpt lat="41.907079107307894" lon="19.433534677610275"><ele>17.0</ele><time>2026-05-03T08:27:22Z</time></trkpt><trkpt lat="41.90726745864475" lon="19.433343802403485"><ele>17.0</ele><time>2026-05-03T08:27:23Z</time></trkpt><trkpt lat="41.907465852607274" lon="19.433150192598912"><ele>17.0</ele><time>2026-05-03T08:27:24Z</time></trkpt><trkpt lat="41.907661736203245" lon="19.432960768379658"><ele>11.5</ele><time>2026-05-03T08:27:25Z</time></trkpt><trkpt lat="41.907861049143605" lon="19.432775433280217"><ele>6.0</ele><time>2026-05-03T08:27:26Z</time></trkpt><trkpt lat="41.90806672910652" lon="19.432595954797065"><ele>6.0</ele><time>2026-05-03T08:27:27Z</time></trkpt><trkpt lat="41.90827973556393" lon="19.432436158279987"><ele>6.0</ele><time>2026-05-03T08:27:28Z</time></trkpt><trkpt lat="41.908498162758015" lon="19.432285406206603"><ele>4.5</ele><time>2026-05-03T08:27:29Z</time></trkpt><trkpt lat="41.90871928066715" lon="19.432135612436777"><ele>3.0</ele><time>2026-05-03T08:27:30Z</time></trkpt><trkpt lat="41.90893972298227" lon="19.431983224428166"><ele>3.0</ele><time>2026-05-03T08:27:31Z</time></trkpt><trkpt lat="41.909162544126936" lon="19.431820758696976"><ele>3.0</ele><time>2026-05-03T08:27:32Z</time></trkpt><trkpt lat="41.90938575538017" lon="19.431657720155673"><ele>7.5</ele><time>2026-05-03T08:27:33Z</time></trkpt><trkpt lat="41.90961065847708" lon="19.43150224108134"><ele>12.0</ele><time>2026-05-03T08:27:34Z</time></trkpt><trkpt lat="41.90983897251691" lon="19.43135492008773"><ele>10.5</ele><time>2026-05-03T08:27:35Z</time></trkpt><trkpt lat="41.91006716981319" lon="19.431201446832173"><ele>9.0</ele><time>2026-05-03T08:27:36Z</time></trkpt><trkpt lat="41.910287459847936" lon="19.431039022884708"><ele>9.0</ele><time>2026-05-03T08:27:37Z</time></trkpt><trkpt lat="41.910505389505566" lon="19.430868930885207"><ele>9.0</ele><time>2026-05-03T08:27:38Z</time></trkpt><trkpt lat="41.91072129719616" lon="19.430694980415602"><ele>10.5</ele><time>2026-05-03T08:27:39Z</time></trkpt><trkpt lat="41.910924866278236" lon="19.4305036687311"><ele>12.0</ele><time>2026-05-03T08:27:40Z</time></trkpt><trkpt lat="41.91110828169817" lon="19.430287683067892"><ele>12.0</ele><time>2026-05-03T08:27:41Z</time></trkpt><trkpt lat="41.911269882224516" lon="19.430072128306797"><ele>12.0</ele><time>2026-05-03T08:27:42Z</time></trkpt><trkpt lat="41.91142799074268" lon="19.42987933563789"><ele>12.0</ele><time>2026-05-03T08:27:43Z</time></trkpt><trkpt lat="41.91160666636162" lon="19.42971528696976"><ele>7.5</ele><time>2026-05-03T08:27:44Z</time></trkpt><trkpt lat="41.911815078192106" lon="19.429574754350412"><ele>3.0</ele><time>2026-05-03T08:27:45Z</time></trkpt><trkpt lat="41.912031599474986" lon="19.42944961275385"><ele>3.0</ele><time>2026-05-03T08:27:46Z</time></trkpt><trkpt lat="41.91224686401657" lon="19.429319373101986"><ele>3.0</ele><time>2026-05-03T08:27:47Z</time></trkpt><trkpt lat="41.91245948006767" lon="19.429181232767768"><ele>8.5</ele><time>2026-05-03T08:27:48Z</time></trkpt><trkpt lat="41.91267054364682" lon="19.429045212157842"><ele>14.0</ele><time>2026-05-03T08:27:49Z</time></trkpt><trkpt lat="41.91287825239923" lon="19.428943156871146"><ele>14.0</ele><time>2026-05-03T08:27:50Z</time></trkpt><trkpt lat="41.91310674671418" lon="19.428884967713273"><ele>14.0</ele><time>2026-05-03T08:27:51Z</time></trkpt><trkpt lat="41.91334779780584" lon="19.428831646562593"><ele>9.0</ele><time>2026-05-03T08:27:52Z</time></trkpt><trkpt lat="41.913577249114695" lon="19.428758131979198"><ele>4.0</ele><time>2026-05-03T08:27:53Z</time></trkpt><trkpt lat="41.91379354692068" lon="19.42866257985882"><ele>4.0</ele><time>2026-05-03T08:27:54Z</time></trkpt><trkpt lat="41.913989587694694" lon="19.428545236398378"><ele>4.0</ele><time>2026-05-03T08:27:55Z</time></trkpt><trkpt lat="41.91417419476145" lon="19.42839638178429"><ele>4.0</ele><time>2026-05-03T08:27:56Z</time></trkpt><trkpt lat="41.914359971430095" lon="19.428203744068064"><ele>5.0</ele><time>2026-05-03T08:27:57Z</time></trkpt><trkpt lat="41.914551009700084" lon="19.42799990985162"><ele>6.0</ele><time>2026-05-03T08:27:58Z</time></trkpt><trkpt lat="41.91474089934771" lon="19.42779210667792"><ele>6.0</ele><time>2026-05-03T08:27:59Z</time></trkpt><trkpt lat="41.91492666871947" lon="19.427582318423866"><ele>6.0</ele><time>2026-05-03T08:27:59.999Z</time></trkpt><trkpt lat="41.91510768278238" lon="19.42735476767869"><ele>12.0</ele><time>2026-05-03T08:28:00.999Z</time></trkpt><trkpt lat="41.91527170508374" lon="19.427118357078324"><ele>18.0</ele><time>2026-05-03T08:28:01.999Z</time></trkpt><trkpt lat="41.915400220258725" lon="19.426842963237466"><ele>18.0</ele><time>2026-05-03T08:28:02.999Z</time></trkpt><trkpt lat="41.91549663580081" lon="19.426540886958538"><ele>18.0</ele><time>2026-05-03T08:28:03.999Z</time></trkpt><trkpt lat="41.915582744285636" lon="19.426243006813056"><ele>21.0</ele><time>2026-05-03T08:28:04.999Z</time></trkpt><trkpt lat="41.91568077353418" lon="19.42596734692862"><ele>24.0</ele><time>2026-05-03T08:28:05.999Z</time></trkpt><trkpt lat="41.915797353934956" lon="19.42573471043102"><ele>27.0</ele><time>2026-05-03T08:28:06.999Z</time></trkpt><trkpt lat="41.91593690483537" lon="19.425523665922686"><ele>20.0</ele><time>2026-05-03T08:28:07.999Z</time></trkpt><trkpt lat="41.91610806866794" lon="19.425343572159562"><ele>13.0</ele><time>2026-05-03T08:28:08.999Z</time></trkpt><trkpt lat="41.9162974201319" lon="19.425165244027085"><ele>6.0</ele><time>2026-05-03T08:28:09.999Z</time></trkpt><trkpt lat="41.9164794330065" lon="19.424986311668306"><ele>6.0</ele><time>2026-05-03T08:28:10.999Z</time></trkpt><trkpt lat="41.91665192768491" lon="19.424816420621713"><ele>6.0</ele><time>2026-05-03T08:28:11.999Z</time></trkpt><trkpt lat="41.91678741226333" lon="19.424671384636426"><ele>6.0</ele><time>2026-05-03T08:28:12.999Z</time></trkpt><trkpt lat="41.91687863938189" lon="19.42456222367033"><ele>9.0</ele><time>2026-05-03T08:28:13.999Z</time></trkpt><trkpt lat="41.91694516844944" lon="19.42449269432836"><ele>12.0</ele><time>2026-05-03T08:28:14.999Z</time></trkpt><trkpt lat="41.91700540737056" lon="19.424556905391494"><ele>15.0</ele><time>2026-05-03T08:28:16.999Z</time></trkpt><trkpt lat="41.91698091443319" lon="19.42467969197258"><ele>18.0</ele><time>2026-05-03T08:28:18.999Z</time></trkpt><trkpt lat="41.91695269243425" lon="19.424762085659424"><ele>21.0</ele><time>2026-05-03T08:28:19.999Z</time></trkpt><trkpt lat="41.91690631095089" lon="19.424854706081913"><ele>24.0</ele><time>2026-05-03T08:28:20.999Z</time></trkpt><trkpt lat="41.91685757093391" lon="19.42495494753475"><ele>24.6</ele><time>2026-05-03T08:28:21.999Z</time></trkpt><trkpt lat="41.91681328552182" lon="19.425063402213297"><ele>25.2</ele><time>2026-05-03T08:28:22.999Z</time></trkpt><trkpt lat="41.91676541170491" lon="19.42517738113257"><ele>25.800000000000004</ele><time>2026-05-03T08:28:23.999Z</time></trkpt><trkpt lat="41.916708991027036" lon="19.42529610338639"><ele>26.400000000000002</ele><time>2026-05-03T08:28:24.999Z</time></trkpt><trkpt lat="41.91665447002433" lon="19.425410645231782"><ele>27.0</ele><time>2026-05-03T08:28:25.999Z</time></trkpt><trkpt lat="41.916607154980134" lon="19.425514000505295"><ele>27.0</ele><time>2026-05-03T08:28:26.999Z</time></trkpt><trkpt lat="41.91656889443828" lon="19.42560534282984"><ele>27.000000000000004</ele><time>2026-05-03T08:28:27.999Z</time></trkpt><trkpt lat="41.91652016148006" lon="19.4257010260522"><ele>27.000000000000004</ele><time>2026-05-03T08:28:28.999Z</time></trkpt><trkpt lat="41.91646686524458" lon="19.425809105446767"><ele>27.0</ele><time>2026-05-03T08:28:29.999Z</time></trkpt><trkpt lat="41.916415924820136" lon="19.42591587254142"><ele>27.0</ele><time>2026-05-03T08:28:30.999Z</time></trkpt><trkpt lat="41.91636213719147" lon="19.426032112061915"><ele>27.0</ele><time>2026-05-03T08:28:31.999Z</time></trkpt><trkpt lat="41.916303773298075" lon="19.4261676353085"><ele>27.0</ele><time>2026-05-03T08:28:32.999Z</time></trkpt><trkpt lat="41.91623221486171" lon="19.426317346446947"><ele>27.0</ele><time>2026-05-03T08:28:33.999Z</time></trkpt><trkpt lat="41.91615223413259" lon="19.426484535391314"><ele>27.0</ele><time>2026-05-03T08:28:34.999Z</time></trkpt><trkpt lat="41.91606978624812" lon="19.426667511541044"><ele>29.0</ele><time>2026-05-03T08:28:35.999Z</time></trkpt><trkpt lat="41.915980503927265" lon="19.426862351922935"><ele>31.0</ele><time>2026-05-03T08:28:36.999Z</time></trkpt><trkpt lat="41.915884575862364" lon="19.42706059670625"><ele>33.0</ele><time>2026-05-03T08:28:37.999Z</time></trkpt><trkpt lat="41.91578059283114" lon="19.427262346772533"><ele>33.0</ele><time>2026-05-03T08:28:38.999Z</time></trkpt><trkpt lat="41.91568135270563" lon="19.427464634339373"><ele>33.0</ele><time>2026-05-03T08:28:39.999Z</time></trkpt><trkpt lat="41.91558868835987" lon="19.427684026976742"><ele>33.0</ele><time>2026-05-03T08:28:40.999Z</time></trkpt><trkpt lat="41.91549071426355" lon="19.427920577888255"><ele>37.333333333333336</ele><time>2026-05-03T08:28:41.999Z</time></trkpt><trkpt lat="41.91537459396611" lon="19.428141227027368"><ele>41.66666666666667</ele><time>2026-05-03T08:28:42.999Z</time></trkpt><trkpt lat="41.915245489455664" lon="19.428350657331293"><ele>46.0</ele><time>2026-05-03T08:28:43.999Z</time></trkpt><trkpt lat="41.915109038063605" lon="19.42855500301654"><ele>44.66666666666667</ele><time>2026-05-03T08:28:44.999Z</time></trkpt><trkpt lat="41.914977847014626" lon="19.428758359247304"><ele>43.333333333333336</ele><time>2026-05-03T08:28:45.999Z</time></trkpt><trkpt lat="41.914855429566856" lon="19.428948353290618"><ele>42.0</ele><time>2026-05-03T08:28:46.999Z</time></trkpt><trkpt lat="41.914742661701055" lon="19.42911599839139"><ele>42.0</ele><time>2026-05-03T08:28:47.999Z</time></trkpt><trkpt lat="41.91465031798895" lon="19.429274216671644"><ele>42.0</ele><time>2026-05-03T08:28:48.999Z</time></trkpt><trkpt lat="41.9145905421634" lon="19.42942150093702"><ele>42.0</ele><time>2026-05-03T08:28:49.999Z</time></trkpt><trkpt lat="41.91455088571907" lon="19.429568770920266"><ele>42.0</ele><time>2026-05-03T08:28:50.999Z</time></trkpt><trkpt lat="41.91451365219767" lon="19.42972660672982"><ele>42.25</ele><time>2026-05-03T08:28:51.999Z</time></trkpt><trkpt lat="41.91447855348939" lon="19.429897480017413"><ele>42.5</ele><time>2026-05-03T08:28:52.999Z</time></trkpt><trkpt lat="41.914456183825656" lon="19.430087193155266"><ele>42.75</ele><time>2026-05-03T08:28:53.999Z</time></trkpt><trkpt lat="41.91445006501026" lon="19.430301564697462"><ele>43.0</ele><time>2026-05-03T08:28:54.999Z</time></trkpt><trkpt lat="41.9144510993067" lon="19.43051930360385"><ele>41.0</ele><time>2026-05-03T08:28:55.999Z</time></trkpt><trkpt lat="41.9144476835402" lon="19.430741702675807"><ele>39.0</ele><time>2026-05-03T08:28:56.999Z</time></trkpt><trkpt lat="41.91443814788457" lon="19.430970036741677"><ele>37.0</ele><time>2026-05-03T08:28:57.999Z</time></trkpt><trkpt lat="41.914423614334396" lon="19.43120449125725"><ele>35.333333333333336</ele><time>2026-05-03T08:28:58.999Z</time></trkpt><trkpt lat="41.91440233099094" lon="19.43145000027605"><ele>33.666666666666664</ele><time>2026-05-03T08:28:59.999Z</time></trkpt><trkpt lat="41.91436913369952" lon="19.431699020074568"><ele>32.0</ele><time>2026-05-03T08:29:00.999Z</time></trkpt><trkpt lat="41.914325624325706" lon="19.431957359857567"><ele>34.0</ele><time>2026-05-03T08:29:01.999Z</time></trkpt><trkpt lat="41.914273287708966" lon="19.432217613201725"><ele>36.0</ele><time>2026-05-03T08:29:02.999Z</time></trkpt><trkpt lat="41.91421114943852" lon="19.43248246124119"><ele>38.0</ele><time>2026-05-03T08:29:03.999Z</time></trkpt><trkpt lat="41.91413457076978" lon="19.432751466518177"><ele>37.0</ele><time>2026-05-03T08:29:05Z</time></trkpt><trkpt lat="41.91404861089892" lon="19.433021085849703"><ele>36.0</ele><time>2026-05-03T08:29:06Z</time></trkpt><trkpt lat="41.913948108762085" lon="19.433289035568244"><ele>35.0</ele><time>2026-05-03T08:29:07Z</time></trkpt><trkpt lat="41.9138269469842" lon="19.433552922734176"><ele>31.0</ele><time>2026-05-03T08:29:08Z</time></trkpt><trkpt lat="41.91369467382839" lon="19.433817379521134"><ele>27.0</ele><time>2026-05-03T08:29:09Z</time></trkpt><trkpt lat="41.91355449716349" lon="19.43407504524631"><ele>33.0</ele><time>2026-05-03T08:29:10Z</time></trkpt><trkpt lat="41.91338982416796" lon="19.434337118963214"><ele>39.0</ele><time>2026-05-03T08:29:11Z</time></trkpt><trkpt lat="41.91320546610345" lon="19.434601727586365"><ele>35.0</ele><time>2026-05-03T08:29:12Z</time></trkpt><trkpt lat="41.91300789373917" lon="19.434852485996746"><ele>31.0</ele><time>2026-05-03T08:29:13Z</time></trkpt><trkpt lat="41.91280846160406" lon="19.435099480971836"><ele>31.0</ele><time>2026-05-03T08:29:14Z</time></trkpt><trkpt lat="41.91261132914801" lon="19.43534839412229"><ele>31.0</ele><time>2026-05-03T08:29:15Z</time></trkpt><trkpt lat="41.91243438539036" lon="19.43558279080081"><ele>30.666666666666668</ele><time>2026-05-03T08:29:16Z</time></trkpt><trkpt lat="41.91227801831227" lon="19.435807542104406"><ele>30.333333333333336</ele><time>2026-05-03T08:29:17Z</time></trkpt><trkpt lat="41.91215514072778" lon="19.436045946686377"><ele>30.0</ele><time>2026-05-03T08:29:18Z</time></trkpt><trkpt lat="41.91206179831749" lon="19.436305433826824"><ele>28.666666666666664</ele><time>2026-05-03T08:29:19Z</time></trkpt><trkpt lat="41.91198686471267" lon="19.436584355371412"><ele>27.333333333333332</ele><time>2026-05-03T08:29:20Z</time></trkpt><trkpt lat="41.91193858673146" lon="19.436881878185208"><ele>26.0</ele><time>2026-05-03T08:29:21Z</time></trkpt><trkpt lat="41.911920128004546" lon="19.437195526122537"><ele>26.0</ele><time>2026-05-03T08:29:22Z</time></trkpt><trkpt lat="41.911918016656635" lon="19.437515903693033"><ele>26.0</ele><time>2026-05-03T08:29:23Z</time></trkpt><trkpt lat="41.91191986744004" lon="19.437823322159684"><ele>26.333333333333332</ele><time>2026-05-03T08:29:24Z</time></trkpt><trkpt lat="41.91191234463542" lon="19.438088121953744"><ele>26.666666666666664</ele><time>2026-05-03T08:29:25Z</time></trkpt><trkpt lat="41.911901711692416" lon="19.438323770698428"><ele>27.0</ele><time>2026-05-03T08:29:26Z</time></trkpt><trkpt lat="41.9118912055782" lon="19.438547227571235"><ele>27.0</ele><time>2026-05-03T08:29:27Z</time></trkpt><trkpt lat="41.91188663677762" lon="19.438763572540903"><ele>27.0</ele><time>2026-05-03T08:29:28Z</time></trkpt><trkpt lat="41.91188422076611" lon="19.438983683045677"><ele>27.0</ele><time>2026-05-03T08:29:29Z</time></trkpt><trkpt lat="41.91188295452007" lon="19.439221065631504"><ele>24.666666666666668</ele><time>2026-05-03T08:29:30Z</time></trkpt><trkpt lat="41.911883997534176" lon="19.439494429997236"><ele>22.333333333333336</ele><time>2026-05-03T08:29:31Z</time></trkpt><trkpt lat="41.9118753794247" lon="19.43981360238941"><ele>20.0</ele><time>2026-05-03T08:29:32Z</time></trkpt><trkpt lat="41.91186033480332" lon="19.44015111435"><ele>14.5</ele><time>2026-05-03T08:29:33Z</time></trkpt><trkpt lat="41.911847733363665" lon="19.44049066216656"><ele>9.0</ele><time>2026-05-03T08:29:34Z</time></trkpt><trkpt lat="41.91183892790855" lon="19.440792078587204"><ele>9.0</ele><time>2026-05-03T08:29:35Z</time></trkpt><trkpt lat="41.91184469612791" lon="19.441044511464884"><ele>9.0</ele><time>2026-05-03T08:29:36Z</time></trkpt><trkpt lat="41.91189079155438" lon="19.441267063076726"><ele>9.0</ele><time>2026-05-03T08:29:37Z</time></trkpt><trkpt lat="41.91198337715134" lon="19.441472804322014"><ele>9.666666666666666</ele><time>2026-05-03T08:29:38Z</time></trkpt><trkpt lat="41.91211266642838" lon="19.44164390308947"><ele>10.333333333333332</ele><time>2026-05-03T08:29:39Z</time></trkpt><trkpt lat="41.91226741362716" lon="19.441767839751712"><ele>11.0</ele><time>2026-05-03T08:29:40Z</time></trkpt><trkpt lat="41.9124249618907" lon="19.441850154919273"><ele>13.333333333333332</ele><time>2026-05-03T08:29:41Z</time></trkpt><trkpt lat="41.91258170455271" lon="19.441880155839034"><ele>15.666666666666666</ele><time>2026-05-03T08:29:42Z</time></trkpt><trkpt lat="41.91275021653996" lon="19.44186120457069"><ele>18.0</ele><time>2026-05-03T08:29:43Z</time></trkpt><trkpt lat="41.91295320351412" lon="19.44181435593158"><ele>18.0</ele><time>2026-05-03T08:29:44Z</time></trkpt><trkpt lat="41.91318302638251" lon="19.44177368112963"><ele>18.0</ele><time>2026-05-03T08:29:45Z</time></trkpt><trkpt lat="41.913419123050524" lon="19.441748233249548"><ele>18.0</ele><time>2026-05-03T08:29:46Z</time></trkpt><trkpt lat="41.91365738992581" lon="19.441721372188276"><ele>18.0</ele><time>2026-05-03T08:29:47Z</time></trkpt><trkpt lat="41.913876593585066" lon="19.44169390204021"><ele>18.0</ele><time>2026-05-03T08:29:48Z</time></trkpt><trkpt lat="41.9140893603591" lon="19.441665041053053"><ele>18.0</ele><time>2026-05-03T08:29:49Z</time></trkpt><trkpt lat="41.91429517107881" lon="19.441634149627507"><ele>18.0</ele><time>2026-05-03T08:29:50Z</time></trkpt><trkpt lat="41.914510742736965" lon="19.44159105992646"><ele>14.0</ele><time>2026-05-03T08:29:51Z</time></trkpt><trkpt lat="41.91475075227712" lon="19.44154571065115"><ele>10.0</ele><time>2026-05-03T08:29:52Z</time></trkpt><trkpt lat="41.914998192801235" lon="19.44151232975878"><ele>9.5</ele><time>2026-05-03T08:29:53Z</time></trkpt><trkpt lat="41.915254204315325" lon="19.44148808785357"><ele>9.0</ele><time>2026-05-03T08:29:54Z</time></trkpt><trkpt lat="41.915521866816384" lon="19.441466622492147"><ele>9.0</ele><time>2026-05-03T08:29:55Z</time></trkpt><trkpt lat="41.915794188029686" lon="19.441439747156707"><ele>9.0</ele><time>2026-05-03T08:29:56Z</time></trkpt><trkpt lat="41.91605818791076" lon="19.441403338909016"><ele>6.5</ele><time>2026-05-03T08:29:57Z</time></trkpt><trkpt lat="41.91632015111773" lon="19.441358714254804"><ele>4.0</ele><time>2026-05-03T08:29:58Z</time></trkpt><trkpt lat="41.916584367982786" lon="19.441309725506365"><ele>3.5</ele><time>2026-05-03T08:29:59Z</time></trkpt><trkpt lat="41.91685189623209" lon="19.441266922064898"><ele>3.0</ele><time>2026-05-03T08:30:00Z</time></trkpt><trkpt lat="41.91711847995332" lon="19.441230084959788"><ele>3.0</ele><time>2026-05-03T08:30:01Z</time></trkpt><trkpt lat="41.917382564308205" lon="19.44119649388002"><ele>3.0</ele><time>2026-05-03T08:30:02Z</time></trkpt><trkpt lat="41.917622062028784" lon="19.441164780090983"><ele>3.333333333333333</ele><time>2026-05-03T08:30:03Z</time></trkpt><trkpt lat="41.917844744724114" lon="19.441136113736597"><ele>3.6666666666666665</ele><time>2026-05-03T08:30:04Z</time></trkpt><trkpt lat="41.9180494052415" lon="19.441123835204113"><ele>4.0</ele><time>2026-05-03T08:30:05Z</time></trkpt><trkpt lat="41.9182470321584" lon="19.44114841669192"><ele>2.0</ele><time>2026-05-03T08:30:06Z</time></trkpt><trkpt lat="41.918441927008445" lon="19.441221814323853"><ele>0.0</ele><time>2026-05-03T08:30:07Z</time></trkpt><trkpt lat="41.918622865155136" lon="19.441353590695925"><ele>-2.0</ele><time>2026-05-03T08:30:08Z</time></trkpt><trkpt lat="41.91879501093118" lon="19.441531512669577"><ele>-2.0</ele><time>2026-05-03T08:30:09Z</time></trkpt><trkpt lat="41.91895868794117" lon="19.441724498068016"><ele>-2.0</ele><time>2026-05-03T08:30:10Z</time></trkpt><trkpt lat="41.91910416919647" lon="19.441906129928302"><ele>-2.0</ele><time>2026-05-03T08:30:11Z</time></trkpt><trkpt lat="41.91924133950461" lon="19.442083913654717"><ele>-1.0</ele><time>2026-05-03T08:30:12Z</time></trkpt><trkpt lat="41.919389269018495" lon="19.442258989537148"><ele>0.0</ele><time>2026-05-03T08:30:13Z</time></trkpt><trkpt lat="41.91954563957351" lon="19.442443266459314"><ele>1.0</ele><time>2026-05-03T08:30:14Z</time></trkpt><trkpt lat="41.91970358196477" lon="19.44262919204052"><ele>1.0</ele><time>2026-05-03T08:30:15Z</time></trkpt><trkpt lat="41.919865387115586" lon="19.442797153334276"><ele>1.0</ele><time>2026-05-03T08:30:16Z</time></trkpt><trkpt lat="41.92003104939308" lon="19.442923426467193"><ele>1.0</ele><time>2026-05-03T08:30:17Z</time></trkpt><trkpt lat="41.92021024344558" lon="19.443000154376193"><ele>0.3333333333333333</ele><time>2026-05-03T08:30:18Z</time></trkpt><trkpt lat="41.920405035812045" lon="19.44302742875447"><ele>-0.3333333333333333</ele><time>2026-05-03T08:30:19Z</time></trkpt><trkpt lat="41.920608803120714" lon="19.443002952099853"><ele>-1.0</ele><time>2026-05-03T08:30:20Z</time></trkpt><trkpt lat="41.920819866713416" lon="19.442938065314692"><ele>1.0</ele><time>2026-05-03T08:30:21Z</time></trkpt><trkpt lat="41.92104275980055" lon="19.44285564744794"><ele>3.0</ele><time>2026-05-03T08:30:22Z</time></trkpt><trkpt lat="41.92128248067299" lon="19.44277497474483"><ele>3.0</ele><time>2026-05-03T08:30:23Z</time></trkpt><trkpt lat="41.92152345954502" lon="19.44269511334272"><ele>3.0</ele><time>2026-05-03T08:30:24Z</time></trkpt><trkpt lat="41.92176779316847" lon="19.442597626381485"><ele>6.0</ele><time>2026-05-03T08:30:25Z</time></trkpt><trkpt lat="41.9220067695593" lon="19.442466965338213"><ele>9.0</ele><time>2026-05-03T08:30:26Z</time></trkpt><trkpt lat="41.92223530978288" lon="19.44230548933316"><ele>8.5</ele><time>2026-05-03T08:30:27Z</time></trkpt><trkpt lat="41.922461312233764" lon="19.44212843438228"><ele>8.0</ele><time>2026-05-03T08:30:28Z</time></trkpt><trkpt lat="41.92269050334803" lon="19.44195255333705"><ele>8.0</ele><time>2026-05-03T08:30:29Z</time></trkpt><trkpt lat="41.92292073955602" lon="19.441784969475275"><ele>8.0</ele><time>2026-05-03T08:30:30Z</time></trkpt><trkpt lat="41.923148893856435" lon="19.441614494197697"><ele>8.0</ele><time>2026-05-03T08:30:31Z</time></trkpt><trkpt lat="41.92337947011254" lon="19.441442879206676"><ele>8.0</ele><time>2026-05-03T08:30:32Z</time></trkpt><trkpt lat="41.92360784919414" lon="19.44126968734037"><ele>5.5</ele><time>2026-05-03T08:30:33Z</time></trkpt><trkpt lat="41.92383849469595" lon="19.441095780199852"><ele>3.0</ele><time>2026-05-03T08:30:34Z</time></trkpt><trkpt lat="41.92406952518584" lon="19.44092494223729"><ele>9.0</ele><time>2026-05-03T08:30:35Z</time></trkpt><trkpt lat="41.92429991576501" lon="19.440753897497512"><ele>15.0</ele><time>2026-05-03T08:30:36Z</time></trkpt><trkpt lat="41.924527651479366" lon="19.440581417076018"><ele>10.0</ele><time>2026-05-03T08:30:37Z</time></trkpt><trkpt lat="41.924751845229224" lon="19.440401308566113"><ele>5.0</ele><time>2026-05-03T08:30:38Z</time></trkpt><trkpt lat="41.924968415346385" lon="19.440212368363408"><ele>9.5</ele><time>2026-05-03T08:30:39Z</time></trkpt><trkpt lat="41.92517464063726" lon="19.440013705880396"><ele>14.0</ele><time>2026-05-03T08:30:40Z</time></trkpt><trkpt lat="41.92537532304977" lon="19.439810189393498"><ele>10.5</ele><time>2026-05-03T08:30:41Z</time></trkpt><trkpt lat="41.92557424220381" lon="19.439612387353257"><ele>7.0</ele><time>2026-05-03T08:30:42Z</time></trkpt><trkpt lat="41.92576491966558" lon="19.439426480457968"><ele>11.666666666666668</ele><time>2026-05-03T08:30:43Z</time></trkpt><trkpt lat="41.92594541063821" lon="19.439251200444204"><ele>16.333333333333332</ele><time>2026-05-03T08:30:44Z</time></trkpt><trkpt lat="41.926113494903085" lon="19.439084752171297"><ele>21.0</ele><time>2026-05-03T08:30:44.999Z</time></trkpt><trkpt lat="41.92627340040638" lon="19.438937856426048"><ele>21.0</ele><time>2026-05-03T08:30:45.999Z</time></trkpt><trkpt lat="41.92642141226314" lon="19.438826455297306"><ele>21.0</ele><time>2026-05-03T08:30:46.999Z</time></trkpt><trkpt lat="41.926550010296616" lon="19.438767710627538"><ele>21.0</ele><time>2026-05-03T08:30:47.999Z</time></trkpt><trkpt lat="41.92667329895484" lon="19.43874182436667"><ele>21.0</ele><time>2026-05-03T08:30:48.999Z</time></trkpt><trkpt lat="41.92679427962018" lon="19.43874888666462"><ele>18.75</ele><time>2026-05-03T08:30:49.999Z</time></trkpt><trkpt lat="41.9269145808852" lon="19.43877150260834"><ele>16.5</ele><time>2026-05-03T08:30:50.999Z</time></trkpt><trkpt lat="41.927054488273285" lon="19.438819121447633"><ele>14.25</ele><time>2026-05-03T08:30:51.999Z</time></trkpt><trkpt lat="41.927206281953175" lon="19.438912283321216"><ele>12.0</ele><time>2026-05-03T08:30:52.999Z</time></trkpt><trkpt lat="41.92736381444579" lon="19.43904487724892"><ele>12.0</ele><time>2026-05-03T08:30:53.999Z</time></trkpt><trkpt lat="41.92753856461513" lon="19.43920010556574"><ele>12.0</ele><time>2026-05-03T08:30:54.999Z</time></trkpt><trkpt lat="41.92772080388542" lon="19.439372701782666"><ele>12.0</ele><time>2026-05-03T08:30:55.999Z</time></trkpt><trkpt lat="41.92789702885047" lon="19.439538028261303"><ele>11.333333333333334</ele><time>2026-05-03T08:30:56.999Z</time></trkpt><trkpt lat="41.92807345813397" lon="19.439692546840277"><ele>10.666666666666668</ele><time>2026-05-03T08:30:57.999Z</time></trkpt><trkpt lat="41.92824883492341" lon="19.439837260225403"><ele>10.0</ele><time>2026-05-03T08:30:58.999Z</time></trkpt><trkpt lat="41.92842413714271" lon="19.43997626530034"><ele>7.666666666666667</ele><time>2026-05-03T08:30:59.999Z</time></trkpt><trkpt lat="41.92859509381291" lon="19.440107546571838"><ele>5.333333333333334</ele><time>2026-05-03T08:31:00.999Z</time></trkpt><trkpt lat="41.92876386331946" lon="19.44022998987549"><ele>3.0</ele><time>2026-05-03T08:31:01.999Z</time></trkpt><trkpt lat="41.92893261325659" lon="19.440350175667778"><ele>4.0</ele><time>2026-05-03T08:31:02.999Z</time></trkpt><trkpt lat="41.92909686509381" lon="19.440471137582204"><ele>5.0</ele><time>2026-05-03T08:31:03.999Z</time></trkpt><trkpt lat="41.929260679078865" lon="19.440584005209328"><ele>6.0</ele><time>2026-05-03T08:31:04.999Z</time></trkpt><trkpt lat="41.92942854235166" lon="19.44068403762081"><ele>6.0</ele><time>2026-05-03T08:31:05.999Z</time></trkpt><trkpt lat="41.92960019837746" lon="19.44078140869281"><ele>6.0</ele><time>2026-05-03T08:31:06.999Z</time></trkpt><trkpt lat="41.92977727379871" lon="19.44087782261334"><ele>6.0</ele><time>2026-05-03T08:31:07.999Z</time></trkpt><trkpt lat="41.929961872326345" lon="19.440970120903664"><ele>4.333333333333333</ele><time>2026-05-03T08:31:08.999Z</time></trkpt><trkpt lat="41.930154090929754" lon="19.441061029313943"><ele>2.6666666666666665</ele><time>2026-05-03T08:31:09.999Z</time></trkpt><trkpt lat="41.93034891431429" lon="19.441152931640858"><ele>1.0</ele><time>2026-05-03T08:31:11Z</time></trkpt><trkpt lat="41.93054649677294" lon="19.441240708718023"><ele>0.3333333333333333</ele><time>2026-05-03T08:31:12Z</time></trkpt><trkpt lat="41.93074142486349" lon="19.441325925630387"><ele>-0.3333333333333333</ele><time>2026-05-03T08:31:13Z</time></trkpt><trkpt lat="41.93092781637808" lon="19.44140770080218"><ele>-1.0</ele><time>2026-05-03T08:31:14Z</time></trkpt><trkpt lat="41.93111589669209" lon="19.441485313585027"><ele>-1.0</ele><time>2026-05-03T08:31:15Z</time></trkpt><trkpt lat="41.93130525458408" lon="19.44156534901077"><ele>-1.0</ele><time>2026-05-03T08:31:16Z</time></trkpt><trkpt lat="41.93149749531183" lon="19.441650344331155"><ele>-1.0</ele><time>2026-05-03T08:31:17Z</time></trkpt><trkpt lat="41.931695087040744" lon="19.441739145233583"><ele>0.5</ele><time>2026-05-03T08:31:18Z</time></trkpt><trkpt lat="41.93190771833014" lon="19.4418292057179"><ele>2.0</ele><time>2026-05-03T08:31:19Z</time></trkpt><trkpt lat="41.93213412906127" lon="19.441924868635144"><ele>2.0</ele><time>2026-05-03T08:31:20Z</time></trkpt><trkpt lat="41.932373137653016" lon="19.44202639289405"><ele>2.0</ele><time>2026-05-03T08:31:21Z</time></trkpt><trkpt lat="41.93261369542131" lon="19.442122130778227"><ele>1.5</ele><time>2026-05-03T08:31:22Z</time></trkpt><trkpt lat="41.93285800353709" lon="19.442228128674937"><ele>1.0</ele><time>2026-05-03T08:31:23Z</time></trkpt><trkpt lat="41.93310268526876" lon="19.44234157904392"><ele>1.0</ele><time>2026-05-03T08:31:24Z</time></trkpt><trkpt lat="41.93334817130652" lon="19.442464022666318"><ele>1.0</ele><time>2026-05-03T08:31:25Z</time></trkpt><trkpt lat="41.933595812220396" lon="19.442585974348525"><ele>0.5</ele><time>2026-05-03T08:31:26Z</time></trkpt><trkpt lat="41.93384006744544" lon="19.44270100169503"><ele>0.0</ele><time>2026-05-03T08:31:27Z</time></trkpt><trkpt lat="41.934083042673656" lon="19.442806300886854"><ele>0.0</ele><time>2026-05-03T08:31:28Z</time></trkpt><trkpt lat="41.93432060563975" lon="19.442907525793444"><ele>0.0</ele><time>2026-05-03T08:31:29Z</time></trkpt><trkpt lat="41.93455641844892" lon="19.443011724756694"><ele>0.0</ele><time>2026-05-03T08:31:30Z</time></trkpt><trkpt lat="41.93479256550783" lon="19.44311653638009"><ele>0.0</ele><time>2026-05-03T08:31:31Z</time></trkpt><trkpt lat="41.935028165677856" lon="19.44321641394879"><ele>0.0</ele><time>2026-05-03T08:31:32Z</time></trkpt><trkpt lat="41.93526549977202" lon="19.443306963025304"><ele>0.0</ele><time>2026-05-03T08:31:33Z</time></trkpt><trkpt lat="41.935501417473695" lon="19.443388599774167"><ele>0.0</ele><time>2026-05-03T08:31:34Z</time></trkpt><trkpt lat="41.93573623007481" lon="19.443456120846776"><ele>0.0</ele><time>2026-05-03T08:31:35Z</time></trkpt><trkpt lat="41.93596630228572" lon="19.4435128952035"><ele>0.5</ele><time>2026-05-03T08:31:36Z</time></trkpt><trkpt lat="41.93619691664975" lon="19.443566992138052"><ele>1.0</ele><time>2026-05-03T08:31:37Z</time></trkpt><trkpt lat="41.936426328674465" lon="19.443618734305925"><ele>1.0</ele><time>2026-05-03T08:31:38Z</time></trkpt><trkpt lat="41.93665443296206" lon="19.443672785592927"><ele>1.0</ele><time>2026-05-03T08:31:39Z</time></trkpt><trkpt lat="41.93688758888765" lon="19.44372280952574"><ele>1.0</ele><time>2026-05-03T08:31:40Z</time></trkpt><trkpt lat="41.93713031160527" lon="19.443769681036375"><ele>1.0</ele><time>2026-05-03T08:31:41Z</time></trkpt><trkpt lat="41.9373863274817" lon="19.44380579189547"><ele>1.0</ele><time>2026-05-03T08:31:42Z</time></trkpt><trkpt lat="41.93765828388901" lon="19.443841206332614"><ele>1.0</ele><time>2026-05-03T08:31:43Z</time></trkpt><trkpt lat="41.93793405090218" lon="19.443891929659493"><ele>1.0</ele><time>2026-05-03T08:31:44Z</time></trkpt><trkpt lat="41.93820867865187" lon="19.44396294266517"><ele>1.0</ele><time>2026-05-03T08:31:45Z</time></trkpt><trkpt lat="41.93848111451042" lon="19.44402713768995"><ele>1.5</ele><time>2026-05-03T08:31:46Z</time></trkpt><trkpt lat="41.93875613063822" lon="19.444080335355416"><ele>2.0</ele><time>2026-05-03T08:31:47Z</time></trkpt><trkpt lat="41.939026095841385" lon="19.44413138326448"><ele>1.5</ele><time>2026-05-03T08:31:48Z</time></trkpt><trkpt lat="41.93928700123649" lon="19.44418473941877"><ele>1.0</ele><time>2026-05-03T08:31:49Z</time></trkpt><trkpt lat="41.9395325013943" lon="19.444244606743005"><ele>1.0</ele><time>2026-05-03T08:31:50Z</time></trkpt><trkpt lat="41.939758374933575" lon="19.44432076974849"><ele>1.0</ele><time>2026-05-03T08:31:51Z</time></trkpt><trkpt lat="41.93997189548138" lon="19.444418095337028"><ele>1.0</ele><time>2026-05-03T08:31:52Z</time></trkpt><trkpt lat="41.94017906510972" lon="19.444542413739754"><ele>1.0</ele><time>2026-05-03T08:31:53Z</time></trkpt><trkpt lat="41.94039012703287" lon="19.44468382559872"><ele>1.0</ele><time>2026-05-03T08:31:54Z</time></trkpt><trkpt lat="41.94060379173735" lon="19.44483948524177"><ele>1.0</ele><time>2026-05-03T08:31:55Z</time></trkpt><trkpt lat="41.94082259150402" lon="19.44500204068924"><ele>0.5</ele><time>2026-05-03T08:31:56Z</time></trkpt><trkpt lat="41.94104582149017" lon="19.445163223994115"><ele>0.0</ele><time>2026-05-03T08:31:57Z</time></trkpt><trkpt lat="41.94127283096247" lon="19.445323065516025"><ele>1.0</ele><time>2026-05-03T08:31:58Z</time></trkpt><trkpt lat="41.94149180130198" lon="19.44547471838034"><ele>2.0</ele><time>2026-05-03T08:31:59Z</time></trkpt><trkpt lat="41.94170294478753" lon="19.44562849097964"><ele>2.0</ele><time>2026-05-03T08:32:00Z</time></trkpt><trkpt lat="41.94192862935729" lon="19.445745551985556"><ele>2.0</ele><time>2026-05-03T08:32:01Z</time></trkpt><trkpt lat="41.94214270993392" lon="19.445893613031075"><ele>2.0</ele><time>2026-05-03T08:32:02Z</time></trkpt><trkpt lat="41.942354205407185" lon="19.446056139731102"><ele>2.0</ele><time>2026-05-03T08:32:03Z</time></trkpt><trkpt lat="41.942567988485465" lon="19.446213320545194"><ele>0.5</ele><time>2026-05-03T08:32:04Z</time></trkpt><trkpt lat="41.94278746837373" lon="19.44636944316436"><ele>-1.0</ele><time>2026-05-03T08:32:05Z</time></trkpt><trkpt lat="41.94300971339558" lon="19.446519606017038"><ele>-1.0</ele><time>2026-05-03T08:32:06Z</time></trkpt><trkpt lat="41.94323218309541" lon="19.446674497988635"><ele>-1.0</ele><time>2026-05-03T08:32:07Z</time></trkpt><trkpt lat="41.94344861601873" lon="19.44682416901834"><ele>0.0</ele><time>2026-05-03T08:32:08Z</time></trkpt><trkpt lat="41.943667138911955" lon="19.446975472137087"><ele>1.0</ele><time>2026-05-03T08:32:09Z</time></trkpt><trkpt lat="41.94389241395648" lon="19.44712910557231"><ele>1.0</ele><time>2026-05-03T08:32:10Z</time></trkpt><trkpt lat="41.9441163893486" lon="19.447288226873074"><ele>1.0</ele><time>2026-05-03T08:32:11Z</time></trkpt><trkpt lat="41.94433148094684" lon="19.44744863350131"><ele>1.0</ele><time>2026-05-03T08:32:12Z</time></trkpt><trkpt lat="41.9445464464801" lon="19.447622525624467"><ele>1.0</ele><time>2026-05-03T08:32:13Z</time></trkpt><trkpt lat="41.94475818373118" lon="19.447812153695573"><ele>1.5</ele><time>2026-05-03T08:32:14Z</time></trkpt><trkpt lat="41.94496335299304" lon="19.448017557591662"><ele>2.0</ele><time>2026-05-03T08:32:15Z</time></trkpt><trkpt lat="41.94515972292706" lon="19.448232718054943"><ele>2.0</ele><time>2026-05-03T08:32:16Z</time></trkpt><trkpt lat="41.94535412065502" lon="19.448452920920285"><ele>2.0</ele><time>2026-05-03T08:32:17Z</time></trkpt><trkpt lat="41.94555429786013" lon="19.44867773744059"><ele>2.5</ele><time>2026-05-03T08:32:18Z</time></trkpt><trkpt lat="41.94575444007126" lon="19.448886833394045"><ele>3.0</ele><time>2026-05-03T08:32:19Z</time></trkpt><trkpt lat="41.94595208906362" lon="19.449097875025405"><ele>3.0</ele><time>2026-05-03T08:32:19.999Z</time></trkpt><trkpt lat="41.94615188011376" lon="19.449312942954883"><ele>3.0</ele><time>2026-05-03T08:32:20.999Z</time></trkpt><trkpt lat="41.94634884141387" lon="19.449523770219947"><ele>2.5</ele><time>2026-05-03T08:32:21.999Z</time></trkpt><trkpt lat="41.94653935300734" lon="19.44974406740781"><ele>2.0</ele><time>2026-05-03T08:32:22.999Z</time></trkpt><trkpt lat="41.94673549969661" lon="19.449961774036964"><ele>1.0</ele><time>2026-05-03T08:32:23.999Z</time></trkpt><trkpt lat="41.94693305899423" lon="19.450180913738574"><ele>0.0</ele><time>2026-05-03T08:32:24.999Z</time></trkpt><trkpt lat="41.94713524731431" lon="19.450384365393397"><ele>0.0</ele><time>2026-05-03T08:32:25.999Z</time></trkpt><trkpt lat="41.94734453181896" lon="19.450578061953"><ele>0.0</ele><time>2026-05-03T08:32:26.999Z</time></trkpt><trkpt lat="41.9475595157749" lon="19.45076125098051"><ele>0.0</ele><time>2026-05-03T08:32:27.999Z</time></trkpt><trkpt lat="41.947776374883105" lon="19.45094426414021"><ele>0.0</ele><time>2026-05-03T08:32:28.999Z</time></trkpt><trkpt lat="41.947994322834795" lon="19.45112499961824"><ele>0.5</ele><time>2026-05-03T08:32:29.999Z</time></trkpt><trkpt lat="41.948213227332275" lon="19.451304595016385"><ele>1.0</ele><time>2026-05-03T08:32:30.999Z</time></trkpt><trkpt lat="41.94843639028928" lon="19.45148565413029"><ele>1.5</ele><time>2026-05-03T08:32:31.999Z</time></trkpt><trkpt lat="41.94866474143953" lon="19.45166438499255"><ele>2.0</ele><time>2026-05-03T08:32:32.999Z</time></trkpt><trkpt lat="41.948898767809624" lon="19.45185253020787"><ele>2.0</ele><time>2026-05-03T08:32:33.999Z</time></trkpt><trkpt lat="41.94913503414408" lon="19.452041826434897"><ele>2.0</ele><time>2026-05-03T08:32:34.999Z</time></trkpt><trkpt lat="41.94937453633623" lon="19.452224731631897"><ele>2.0</ele><time>2026-05-03T08:32:35.999Z</time></trkpt><trkpt lat="41.94961539278123" lon="19.452403558320345"><ele>2.0</ele><time>2026-05-03T08:32:36.999Z</time></trkpt><trkpt lat="41.94985591926384" lon="19.4525858860798"><ele>1.5</ele><time>2026-05-03T08:32:37.999Z</time></trkpt><trkpt lat="41.950096089615315" lon="19.452773914314637"><ele>1.0</ele><time>2026-05-03T08:32:38.999Z</time></trkpt><trkpt lat="41.95033455355243" lon="19.452962803469607"><ele>2.0</ele><time>2026-05-03T08:32:39.999Z</time></trkpt><trkpt lat="41.950571896532516" lon="19.453155367960733"><ele>3.0</ele><time>2026-05-03T08:32:40.999Z</time></trkpt><trkpt lat="41.95080755825084" lon="19.45334954545653"><ele>2.5</ele><time>2026-05-03T08:32:41.999Z</time></trkpt><trkpt lat="41.951038973701436" lon="19.453547402779076"><ele>2.0</ele><time>2026-05-03T08:32:42.999Z</time></trkpt><trkpt lat="41.95127007981224" lon="19.453748587345196"><ele>2.5</ele><time>2026-05-03T08:32:43.999Z</time></trkpt><trkpt lat="41.95149930051261" lon="19.45395446917787"><ele>3.0</ele><time>2026-05-03T08:32:44.999Z</time></trkpt><trkpt lat="41.951724545752334" lon="19.454168456187535"><ele>3.0</ele><time>2026-05-03T08:32:45.999Z</time></trkpt><trkpt lat="41.95194740441166" lon="19.454387434386366"><ele>3.0</ele><time>2026-05-03T08:32:46.999Z</time></trkpt><trkpt lat="41.95216882106309" lon="19.454611781606985"><ele>3.0</ele><time>2026-05-03T08:32:47.999Z</time></trkpt><trkpt lat="41.95238696517015" lon="19.45484134391765"><ele>3.0</ele><time>2026-05-03T08:32:48.999Z</time></trkpt><trkpt lat="41.95260412079442" lon="19.455070165217514"><ele>3.0</ele><time>2026-05-03T08:32:49.999Z</time></trkpt><trkpt lat="41.95282033645356" lon="19.45529904884038"><ele>3.0</ele><time>2026-05-03T08:32:50.999Z</time></trkpt><trkpt lat="41.95303864124453" lon="19.455525684728695"><ele>3.0</ele><time>2026-05-03T08:32:51.999Z</time></trkpt><trkpt lat="41.95325724263052" lon="19.455750513621993"><ele>3.0</ele><time>2026-05-03T08:32:52.999Z</time></trkpt><trkpt lat="41.95347673993201" lon="19.45597548342943"><ele>2.5</ele><time>2026-05-03T08:32:53.999Z</time></trkpt><trkpt lat="41.953692705673106" lon="19.456203936451157"><ele>2.0</ele><time>2026-05-03T08:32:54.999Z</time></trkpt><trkpt lat="41.953906272403664" lon="19.456434205876814"><ele>2.0</ele><time>2026-05-03T08:32:55.999Z</time></trkpt><trkpt lat="41.95412020344083" lon="19.456668403328806"><ele>2.0</ele><time>2026-05-03T08:32:56.999Z</time></trkpt><trkpt lat="41.954334849392254" lon="19.456899534360144"><ele>2.0</ele><time>2026-05-03T08:32:57.999Z</time></trkpt><trkpt lat="41.95454946787382" lon="19.457127900328157"><ele>2.0</ele><time>2026-05-03T08:32:58.999Z</time></trkpt><trkpt lat="41.95476636682906" lon="19.457359904150977"><ele>2.0</ele><time>2026-05-03T08:32:59.999Z</time></trkpt><trkpt lat="41.954977662801404" lon="19.457589124617193"><ele>2.0</ele><time>2026-05-03T08:33:00.999Z</time></trkpt><trkpt lat="41.955194917108024" lon="19.45781628407251"><ele>1.5</ele><time>2026-05-03T08:33:01.999Z</time></trkpt><trkpt lat="41.95541031503419" lon="19.458044313633096"><ele>1.0</ele><time>2026-05-03T08:33:02.999Z</time></trkpt><trkpt lat="41.95562625582281" lon="19.458274850491467"><ele>1.0</ele><time>2026-05-03T08:33:03.999Z</time></trkpt><trkpt lat="41.95584195681992" lon="19.458506775293376"><ele>1.0</ele><time>2026-05-03T08:33:04.999Z</time></trkpt><trkpt lat="41.95605920864868" lon="19.45873524085498"><ele>2.0</ele><time>2026-05-03T08:33:05.999Z</time></trkpt><trkpt lat="41.956274167552" lon="19.458963321244482"><ele>3.0</ele><time>2026-05-03T08:33:06.999Z</time></trkpt><trkpt lat="41.95649173335538" lon="19.459190364384778"><ele>3.0</ele><time>2026-05-03T08:33:07.999Z</time></trkpt><trkpt lat="41.956708562522664" lon="19.459421341047342"><ele>3.0</ele><time>2026-05-03T08:33:08.999Z</time></trkpt><trkpt lat="41.956922841103555" lon="19.45965253026254"><ele>3.0</ele><time>2026-05-03T08:33:09.999Z</time></trkpt><trkpt lat="41.95713936800232" lon="19.459879998783997"><ele>3.0</ele><time>2026-05-03T08:33:10.999Z</time></trkpt><trkpt lat="41.9573579753359" lon="19.460106763186058"><ele>3.0</ele><time>2026-05-03T08:33:11.999Z</time></trkpt><trkpt lat="41.95757197523697" lon="19.460333212935204"><ele>3.0</ele><time>2026-05-03T08:33:12.999Z</time></trkpt><trkpt lat="41.957781280595796" lon="19.460559660790192"><ele>3.0</ele><time>2026-05-03T08:33:13.999Z</time></trkpt><trkpt lat="41.95796799350101" lon="19.46077612114439"><ele>3.0</ele><time>2026-05-03T08:33:14.999Z</time></trkpt><trkpt lat="41.95812577338464" lon="19.460997590365427"><ele>3.0</ele><time>2026-05-03T08:33:15.999Z</time></trkpt><trkpt lat="41.95826342979359" lon="19.461237519134617"><ele>3.0</ele><time>2026-05-03T08:33:17Z</time></trkpt><trkpt lat="41.95838974908107" lon="19.46149444529483"><ele>3.0</ele><time>2026-05-03T08:33:18Z</time></trkpt><trkpt lat="41.9585151125996" lon="19.461756669452598"><ele>3.0</ele><time>2026-05-03T08:33:19Z</time></trkpt><trkpt lat="41.958639394709955" lon="19.4620201252923"><ele>3.5</ele><time>2026-05-03T08:33:20Z</time></trkpt><trkpt lat="41.95876887795517" lon="19.462281631100957"><ele>4.0</ele><time>2026-05-03T08:33:21Z</time></trkpt><trkpt lat="41.95889823113524" lon="19.46254017844058"><ele>4.0</ele><time>2026-05-03T08:33:22Z</time></trkpt><trkpt lat="41.959029194090135" lon="19.462802005812183"><ele>4.0</ele><time>2026-05-03T08:33:23Z</time></trkpt><trkpt lat="41.95916642616564" lon="19.46306100690701"><ele>2.5</ele><time>2026-05-03T08:33:24Z</time></trkpt><trkpt lat="41.95930743218465" lon="19.46331919801825"><ele>1.0</ele><time>2026-05-03T08:33:25Z</time></trkpt><trkpt lat="41.959444210159646" lon="19.463584141425322"><ele>2.0</ele><time>2026-05-03T08:33:26Z</time></trkpt><trkpt lat="41.95957557935434" lon="19.463853643013437"><ele>3.0</ele><time>2026-05-03T08:33:27Z</time></trkpt><trkpt lat="41.95970339635678" lon="19.4641233605512"><ele>3.0</ele><time>2026-05-03T08:33:28Z</time></trkpt><trkpt lat="41.95983505871734" lon="19.46439194609084"><ele>3.0</ele><time>2026-05-03T08:33:29Z</time></trkpt><trkpt lat="41.95996820764845" lon="19.464660557935915"><ele>1.5</ele><time>2026-05-03T08:33:30Z</time></trkpt><trkpt lat="41.96009942715635" lon="19.46492568851953"><ele>0.0</ele><time>2026-05-03T08:33:31Z</time></trkpt><trkpt lat="41.96022970221513" lon="19.465192193676497"><ele>0.5</ele><time>2026-05-03T08:33:32Z</time></trkpt><trkpt lat="41.9603561702977" lon="19.4654566574892"><ele>1.0</ele><time>2026-05-03T08:33:33Z</time></trkpt><trkpt lat="41.96048149406604" lon="19.46572334157147"><ele>1.0</ele><time>2026-05-03T08:33:34Z</time></trkpt><trkpt lat="41.96060459021682" lon="19.46598844018997"><ele>1.0</ele><time>2026-05-03T08:33:35Z</time></trkpt><trkpt lat="41.96072649825173" lon="19.466252492130728"><ele>2.0</ele><time>2026-05-03T08:33:36Z</time></trkpt><trkpt lat="41.96084894089174" lon="19.46652129196387"><ele>3.0</ele><time>2026-05-03T08:33:37Z</time></trkpt><trkpt lat="41.960969891273386" lon="19.466788444917164"><ele>3.0</ele><time>2026-05-03T08:33:38Z</time></trkpt><trkpt lat="41.96109105533288" lon="19.4670513102326"><ele>3.0</ele><time>2026-05-03T08:33:39Z</time></trkpt><trkpt lat="41.96121143208663" lon="19.467311412504273"><ele>3.0</ele><time>2026-05-03T08:33:40Z</time></trkpt><trkpt lat="41.96133260491131" lon="19.4675641564479"><ele>3.0</ele><time>2026-05-03T08:33:41Z</time></trkpt><trkpt lat="41.961458793326514" lon="19.4678132349923"><ele>3.0</ele><time>2026-05-03T08:33:42Z</time></trkpt><trkpt lat="41.96158975382536" lon="19.468056022734636"><ele>3.666666666666667</ele><time>2026-05-03T08:33:43Z</time></trkpt><trkpt lat="41.96172470945948" lon="19.468299182451613"><ele>4.333333333333334</ele><time>2026-05-03T08:33:44Z</time></trkpt><trkpt lat="41.961857485141266" lon="19.468540774848307"><ele>5.0</ele><time>2026-05-03T08:33:45Z</time></trkpt><trkpt lat="41.96197683560759" lon="19.46877112153872"><ele>5.0</ele><time>2026-05-03T08:33:46Z</time></trkpt><trkpt lat="41.96209179254862" lon="19.468996740996552"><ele>5.0</ele><time>2026-05-03T08:33:47Z</time></trkpt><trkpt lat="41.96220521003005" lon="19.469226997157286"><ele>5.0</ele><time>2026-05-03T08:33:48Z</time></trkpt><trkpt lat="41.96231734615039" lon="19.469453938942703"><ele>4.666666666666667</ele><time>2026-05-03T08:33:49Z</time></trkpt><trkpt lat="41.962435146748646" lon="19.46968078964125"><ele>4.333333333333333</ele><time>2026-05-03T08:33:50Z</time></trkpt><trkpt lat="41.96255666351031" lon="19.469910702845862"><ele>4.0</ele><time>2026-05-03T08:33:51Z</time></trkpt><trkpt lat="41.96267544286997" lon="19.470143450018185"><ele>3.333333333333333</ele><time>2026-05-03T08:33:52Z</time></trkpt><trkpt lat="41.96280215000016" lon="19.470385365024722"><ele>2.6666666666666665</ele><time>2026-05-03T08:33:53Z</time></trkpt><trkpt lat="41.962928201977284" lon="19.470625149529454"><ele>2.0</ele><time>2026-05-03T08:33:53.999Z</time></trkpt><trkpt lat="41.96305426473833" lon="19.47087364500562"><ele>2.0</ele><time>2026-05-03T08:33:54.999Z</time></trkpt><trkpt lat="41.963180997673554" lon="19.47112182820175"><ele>2.0</ele><time>2026-05-03T08:33:55.999Z</time></trkpt><trkpt lat="41.96331144671127" lon="19.471371195628315"><ele>2.0</ele><time>2026-05-03T08:33:56.999Z</time></trkpt><trkpt lat="41.96344043495424" lon="19.471620544522864"><ele>2.0</ele><time>2026-05-03T08:33:57.999Z</time></trkpt><trkpt lat="41.96356934716725" lon="19.471870193647586"><ele>2.333333333333333</ele><time>2026-05-03T08:33:58.999Z</time></trkpt><trkpt lat="41.96369659634951" lon="19.472117281762593"><ele>2.6666666666666665</ele><time>2026-05-03T08:33:59.999Z</time></trkpt><trkpt lat="41.963815217631556" lon="19.472344497543805"><ele>3.0</ele><time>2026-05-03T08:34:00.999Z</time></trkpt><trkpt lat="41.96393572215677" lon="19.472553315375897"><ele>3.0</ele><time>2026-05-03T08:34:01.999Z</time></trkpt><trkpt lat="41.96406816294733" lon="19.472738464430076"><ele>3.0</ele><time>2026-05-03T08:34:02.999Z</time></trkpt><trkpt lat="41.96422090121686" lon="19.472867109524763"><ele>3.0</ele><time>2026-05-03T08:34:03.999Z</time></trkpt><trkpt lat="41.96439614107411" lon="19.472959582847405"><ele>2.6666666666666665</ele><time>2026-05-03T08:34:04.999Z</time></trkpt><trkpt lat="41.96457512078352" lon="19.47303949509699"><ele>2.333333333333333</ele><time>2026-05-03T08:34:05.999Z</time></trkpt><trkpt lat="41.96476265827923" lon="19.473137172192455"><ele>2.0</ele><time>2026-05-03T08:34:06.999Z</time></trkpt><trkpt lat="41.96495678504349" lon="19.47324594606655"><ele>2.0</ele><time>2026-05-03T08:34:07.999Z</time></trkpt><trkpt lat="41.965160379615085" lon="19.473357575079284"><ele>2.0</ele><time>2026-05-03T08:34:08.999Z</time></trkpt><trkpt lat="41.96537500834118" lon="19.473475262712697"><ele>2.0</ele><time>2026-05-03T08:34:09.999Z</time></trkpt><trkpt lat="41.96559189509553" lon="19.473594610424914"><ele>2.0</ele><time>2026-05-03T08:34:10.999Z</time></trkpt><trkpt lat="41.96580744520653" lon="19.47370964282259"><ele>1.5</ele><time>2026-05-03T08:34:11.999Z</time></trkpt><trkpt lat="41.96602974095234" lon="19.473825348486614"><ele>1.0</ele><time>2026-05-03T08:34:12.999Z</time></trkpt><trkpt lat="41.96625629480712" lon="19.47394874341968"><ele>1.0</ele><time>2026-05-03T08:34:13.999Z</time></trkpt><trkpt lat="41.966490123050676" lon="19.474076504041278"><ele>1.0</ele><time>2026-05-03T08:34:14.999Z</time></trkpt><trkpt lat="41.966727724961196" lon="19.474203132457575"><ele>2.5</ele><time>2026-05-03T08:34:15.999Z</time></trkpt><trkpt lat="41.96697186594985" lon="19.474324288152633"><ele>4.0</ele><time>2026-05-03T08:34:16.999Z</time></trkpt><trkpt lat="41.96722139115981" lon="19.47443798119948"><ele>4.0</ele><time>2026-05-03T08:34:17.999Z</time></trkpt><trkpt lat="41.96747024435695" lon="19.474546559798465"><ele>4.0</ele><time>2026-05-03T08:34:18.999Z</time></trkpt><trkpt lat="41.96771887324197" lon="19.474658229486035"><ele>2.0</ele><time>2026-05-03T08:34:19.999Z</time></trkpt><trkpt lat="41.967965468610885" lon="19.47477369143967"><ele>0.0</ele><time>2026-05-03T08:34:20.999Z</time></trkpt><trkpt lat="41.968214747836235" lon="19.4748875116771"><ele>0.5</ele><time>2026-05-03T08:34:21.999Z</time></trkpt><trkpt lat="41.96846489776644" lon="19.474990783706485"><ele>1.0</ele><time>2026-05-03T08:34:22.999Z</time></trkpt><trkpt lat="41.96871604459504" lon="19.47508560103335"><ele>1.0</ele><time>2026-05-03T08:34:23.999Z</time></trkpt><trkpt lat="41.968965451470005" lon="19.47517783325766"><ele>1.0</ele><time>2026-05-03T08:34:24.999Z</time></trkpt><trkpt lat="41.96921293926891" lon="19.47527702831775"><ele>1.5</ele><time>2026-05-03T08:34:25.999Z</time></trkpt><trkpt lat="41.96945887039045" lon="19.475378699109676"><ele>2.0</ele><time>2026-05-03T08:34:26.999Z</time></trkpt><trkpt lat="41.969694843883616" lon="19.475479360171644"><ele>1.5</ele><time>2026-05-03T08:34:27.999Z</time></trkpt><trkpt lat="41.969928197733665" lon="19.475576884134206"><ele>1.0</ele><time>2026-05-03T08:34:28.999Z</time></trkpt><trkpt lat="41.970151444801786" lon="19.47566873557603"><ele>1.0</ele><time>2026-05-03T08:34:29.999Z</time></trkpt><trkpt lat="41.97036901863818" lon="19.475749602792952"><ele>1.0</ele><time>2026-05-03T08:34:30.999Z</time></trkpt><trkpt lat="41.970585328703756" lon="19.475827586193727"><ele>1.0</ele><time>2026-05-03T08:34:31.999Z</time></trkpt><trkpt lat="41.970796316852194" lon="19.475914483237794"><ele>1.0</ele><time>2026-05-03T08:34:32.999Z</time></trkpt><trkpt lat="41.97100971930988" lon="19.476009282586606"><ele>1.0</ele><time>2026-05-03T08:34:33.999Z</time></trkpt><trkpt lat="41.97122209213283" lon="19.47609569382685"><ele>1.0</ele><time>2026-05-03T08:34:34.999Z</time></trkpt><trkpt lat="41.97143441522746" lon="19.476183097726274"><ele>1.0</ele><time>2026-05-03T08:34:35.999Z</time></trkpt><trkpt lat="41.97165017564654" lon="19.47627448208902"><ele>1.0</ele><time>2026-05-03T08:34:36.999Z</time></trkpt><trkpt lat="41.97186757412587" lon="19.476364495007484"><ele>1.0</ele><time>2026-05-03T08:34:37.999Z</time></trkpt><trkpt lat="41.972086054427535" lon="19.476446935497957"><ele>1.0</ele><time>2026-05-03T08:34:38.999Z</time></trkpt><trkpt lat="41.972307589088516" lon="19.476528949181695"><ele>1.5</ele><time>2026-05-03T08:34:39.999Z</time></trkpt><trkpt lat="41.972527881103616" lon="19.47662139156473"><ele>2.0</ele><time>2026-05-03T08:34:40.999Z</time></trkpt><trkpt lat="41.97274643012392" lon="19.476711419102323"><ele>2.0</ele><time>2026-05-03T08:34:41.999Z</time></trkpt><trkpt lat="41.97296548875697" lon="19.476794972925436"><ele>2.0</ele><time>2026-05-03T08:34:42.999Z</time></trkpt><trkpt lat="41.973182714433705" lon="19.4768857425645"><ele>2.0</ele><time>2026-05-03T08:34:43.999Z</time></trkpt><trkpt lat="41.97339967762933" lon="19.47697976647724"><ele>2.0</ele><time>2026-05-03T08:34:44.999Z</time></trkpt><trkpt lat="41.97361475609422" lon="19.477065819362952"><ele>2.6666666666666665</ele><time>2026-05-03T08:34:45.999Z</time></trkpt><trkpt lat="41.97382755856567" lon="19.477156621325683"><ele>3.333333333333333</ele><time>2026-05-03T08:34:46.999Z</time></trkpt><trkpt lat="41.9740400494456" lon="19.47725252903134"><ele>4.0</ele><time>2026-05-03T08:34:47.999Z</time></trkpt><trkpt lat="41.97425500015773" lon="19.477345449594267"><ele>4.0</ele><time>2026-05-03T08:34:48.999Z</time></trkpt><trkpt lat="41.97446941595366" lon="19.477424911010406"><ele>4.0</ele><time>2026-05-03T08:34:49.999Z</time></trkpt><trkpt lat="41.97468343842292" lon="19.47750113587482"><ele>4.0</ele><time>2026-05-03T08:34:50.999Z</time></trkpt><trkpt lat="41.97489732630279" lon="19.477575743221035"><ele>4.333333333333333</ele><time>2026-05-03T08:34:51.999Z</time></trkpt><trkpt lat="41.97511046242005" lon="19.477648767727057"><ele>4.666666666666667</ele><time>2026-05-03T08:34:52.999Z</time></trkpt><trkpt lat="41.97532373318411" lon="19.477722662022806"><ele>5.0</ele><time>2026-05-03T08:34:53.999Z</time></trkpt><trkpt lat="41.975537807761164" lon="19.477799827898366"><ele>5.0</ele><time>2026-05-03T08:34:54.999Z</time></trkpt><trkpt lat="41.975750991912975" lon="19.477884473430336"><ele>5.0</ele><time>2026-05-03T08:34:55.999Z</time></trkpt><trkpt lat="41.975962759036996" lon="19.477972137418178"><ele>5.0</ele><time>2026-05-03T08:34:56.999Z</time></trkpt><trkpt lat="41.97617584182975" lon="19.478051924491957"><ele>5.0</ele><time>2026-05-03T08:34:57.999Z</time></trkpt><trkpt lat="41.97638978962496" lon="19.478131469867904"><ele>5.0</ele><time>2026-05-03T08:34:58.999Z</time></trkpt><trkpt lat="41.97660405968214" lon="19.478207958528117"><ele>5.0</ele><time>2026-05-03T08:34:59.999Z</time></trkpt><trkpt lat="41.976816186743164" lon="19.478283415528566"><ele>4.333333333333334</ele><time>2026-05-03T08:35:00.999Z</time></trkpt><trkpt lat="41.97702825849249" lon="19.47836420536857"><ele>3.666666666666667</ele><time>2026-05-03T08:35:01.999Z</time></trkpt><trkpt lat="41.977239485830836" lon="19.47844315305872"><ele>3.0</ele><time>2026-05-03T08:35:02.999Z</time></trkpt><trkpt lat="41.977451776608916" lon="19.478518063522312"><ele>2.6666666666666665</ele><time>2026-05-03T08:35:03.999Z</time></trkpt><trkpt lat="41.97766623540911" lon="19.478594768797482"><ele>2.333333333333333</ele><time>2026-05-03T08:35:04.999Z</time></trkpt><trkpt lat="41.97788044654019" lon="19.478675605309487"><ele>2.0</ele><time>2026-05-03T08:35:05.999Z</time></trkpt><trkpt lat="41.97809670632778" lon="19.478758602786083"><ele>3.0</ele><time>2026-05-03T08:35:06.999Z</time></trkpt><trkpt lat="41.978313698884605" lon="19.478837441959136"><ele>4.0</ele><time>2026-05-03T08:35:07.999Z</time></trkpt><trkpt lat="41.97853301349425" lon="19.47891858229701"><ele>4.0</ele><time>2026-05-03T08:35:08.999Z</time></trkpt><trkpt lat="41.97875219524962" lon="19.479001600292836"><ele>4.0</ele><time>2026-05-03T08:35:09.999Z</time></trkpt><trkpt lat="41.97897428481855" lon="19.479089043569257"><ele>4.5</ele><time>2026-05-03T08:35:10.999Z</time></trkpt><trkpt lat="41.9791981396106" lon="19.479171049738035"><ele>5.0</ele><time>2026-05-03T08:35:11.999Z</time></trkpt><trkpt lat="41.97942357887022" lon="19.479249438828717"><ele>5.0</ele><time>2026-05-03T08:35:12.999Z</time></trkpt><trkpt lat="41.97965009668768" lon="19.4793313621703"><ele>5.0</ele><time>2026-05-03T08:35:13.999Z</time></trkpt><trkpt lat="41.979877180745824" lon="19.479417016811006"><ele>5.0</ele><time>2026-05-03T08:35:14.999Z</time></trkpt><trkpt lat="41.98010444434766" lon="19.47949988945743"><ele>5.0</ele><time>2026-05-03T08:35:15.999Z</time></trkpt><trkpt lat="41.98033268661495" lon="19.479586270541024"><ele>6.0</ele><time>2026-05-03T08:35:16.999Z</time></trkpt><trkpt lat="41.98056125258636" lon="19.47967561094"><ele>7.0</ele><time>2026-05-03T08:35:17.999Z</time></trkpt><trkpt lat="41.98078917077903" lon="19.47976351948849"><ele>6.0</ele><time>2026-05-03T08:35:18.999Z</time></trkpt><trkpt lat="41.981017510589865" lon="19.47985215496118"><ele>5.0</ele><time>2026-05-03T08:35:19.999Z</time></trkpt><trkpt lat="41.98124607247666" lon="19.479937457735915"><ele>5.0</ele><time>2026-05-03T08:35:20.999Z</time></trkpt><trkpt lat="41.98147536106198" lon="19.480021399948104"><ele>5.0</ele><time>2026-05-03T08:35:21.999Z</time></trkpt><trkpt lat="41.981704117164774" lon="19.480108017774445"><ele>4.0</ele><time>2026-05-03T08:35:23Z</time></trkpt><trkpt lat="41.98193026538211" lon="19.48019921223598"><ele>3.0</ele><time>2026-05-03T08:35:24Z</time></trkpt><trkpt lat="41.98215027869498" lon="19.48029054273654"><ele>3.0</ele><time>2026-05-03T08:35:25Z</time></trkpt><trkpt lat="41.9823681967467" lon="19.480369914906504"><ele>3.0</ele><time>2026-05-03T08:35:26Z</time></trkpt><trkpt lat="41.98258875796457" lon="19.480435519745548"><ele>3.666666666666667</ele><time>2026-05-03T08:35:27Z</time></trkpt><trkpt lat="41.98280820363236" lon="19.48048117843847"><ele>4.333333333333334</ele><time>2026-05-03T08:35:28Z</time></trkpt><trkpt lat="41.98302857326958" lon="19.48051517696729"><ele>5.0</ele><time>2026-05-03T08:35:29Z</time></trkpt><trkpt lat="41.98324955882486" lon="19.4805456731763"><ele>5.0</ele><time>2026-05-03T08:35:30Z</time></trkpt><trkpt lat="41.98346947361921" lon="19.48057871084265"><ele>5.0</ele><time>2026-05-03T08:35:31Z</time></trkpt><trkpt lat="41.983689177700136" lon="19.48061052747835"><ele>5.0</ele><time>2026-05-03T08:35:32Z</time></trkpt><trkpt lat="41.98390907785584" lon="19.480640173424277"><ele>5.0</ele><time>2026-05-03T08:35:33Z</time></trkpt><trkpt lat="41.984121396902395" lon="19.48066253781697"><ele>5.0</ele><time>2026-05-03T08:35:34Z</time></trkpt><trkpt lat="41.98433215042583" lon="19.480667280854764"><ele>5.0</ele><time>2026-05-03T08:35:35Z</time></trkpt><trkpt lat="41.98454304082217" lon="19.48064285239463"><ele>4.666666666666667</ele><time>2026-05-03T08:35:36Z</time></trkpt><trkpt lat="41.98474909872938" lon="19.48059263996387"><ele>4.333333333333333</ele><time>2026-05-03T08:35:37Z</time></trkpt><trkpt lat="41.98495377855336" lon="19.48053725992372"><ele>4.0</ele><time>2026-05-03T08:35:38Z</time></trkpt><trkpt lat="41.9851579981364" lon="19.480481884864155"><ele>3.333333333333333</ele><time>2026-05-03T08:35:39Z</time></trkpt><trkpt lat="41.98536129111641" lon="19.480397939696786"><ele>2.6666666666666665</ele><time>2026-05-03T08:35:40Z</time></trkpt><trkpt lat="41.985564213720146" lon="19.48028191163481"><ele>2.0</ele><time>2026-05-03T08:35:41Z</time></trkpt><trkpt lat="41.985771595079925" lon="19.480141196517387"><ele>3.0</ele><time>2026-05-03T08:35:42Z</time></trkpt><trkpt lat="41.985980821405136" lon="19.479987952050337"><ele>4.0</ele><time>2026-05-03T08:35:43Z</time></trkpt><trkpt lat="41.98619284752976" lon="19.47983300245091"><ele>4.0</ele><time>2026-05-03T08:35:44Z</time></trkpt><trkpt lat="41.98641085391817" lon="19.4796820583994"><ele>4.0</ele><time>2026-05-03T08:35:45Z</time></trkpt><trkpt lat="41.986627684918226" lon="19.47953037966596"><ele>4.0</ele><time>2026-05-03T08:35:46Z</time></trkpt><trkpt lat="41.986842439266496" lon="19.47937278144525"><ele>4.0</ele><time>2026-05-03T08:35:47Z</time></trkpt><trkpt lat="41.98705573657795" lon="19.479213576743717"><ele>4.0</ele><time>2026-05-03T08:35:48Z</time></trkpt><trkpt lat="41.987268809555026" lon="19.4790635803457"><ele>4.0</ele><time>2026-05-03T08:35:49Z</time></trkpt><trkpt lat="41.98746952060661" lon="19.478917260208714"><ele>4.0</ele><time>2026-05-03T08:35:50Z</time></trkpt><trkpt lat="41.98766453385735" lon="19.478787985822724"><ele>4.0</ele><time>2026-05-03T08:35:51Z</time></trkpt><trkpt lat="41.987873497851474" lon="19.478697878884674"><ele>4.0</ele><time>2026-05-03T08:35:52Z</time></trkpt><trkpt lat="41.98809169019269" lon="19.47865467188141"><ele>4.0</ele><time>2026-05-03T08:35:53Z</time></trkpt><trkpt lat="41.98831813665434" lon="19.478657014043943"><ele>4.0</ele><time>2026-05-03T08:35:54Z</time></trkpt><trkpt lat="41.988554137210876" lon="19.478680834884457"><ele>4.0</ele><time>2026-05-03T08:35:55Z</time></trkpt><trkpt lat="41.98879498359027" lon="19.478704467655945"><ele>4.0</ele><time>2026-05-03T08:35:56Z</time></trkpt><trkpt lat="41.989042754618325" lon="19.478725600535018"><ele>5.0</ele><time>2026-05-03T08:35:57Z</time></trkpt><trkpt lat="41.98929331686288" lon="19.478743702020424"><ele>6.0</ele><time>2026-05-03T08:35:58Z</time></trkpt><trkpt lat="41.98954606568987" lon="19.478763866435017"><ele>5.5</ele><time>2026-05-03T08:35:59Z</time></trkpt><trkpt lat="41.98980050161546" lon="19.47878386598652"><ele>5.0</ele><time>2026-05-03T08:36:00Z</time></trkpt><trkpt lat="41.99005613601105" lon="19.47880439576501"><ele>4.5</ele><time>2026-05-03T08:36:01Z</time></trkpt><trkpt lat="41.99031272273236" lon="19.47882725238436"><ele>4.0</ele><time>2026-05-03T08:36:02Z</time></trkpt><trkpt lat="41.990569702976636" lon="19.47885125322602"><ele>4.0</ele><time>2026-05-03T08:36:03Z</time></trkpt><trkpt lat="41.99082501206281" lon="19.47887636937978"><ele>4.0</ele><time>2026-05-03T08:36:04Z</time></trkpt><trkpt lat="41.99108037879034" lon="19.478901568542494"><ele>4.5</ele><time>2026-05-03T08:36:05Z</time></trkpt><trkpt lat="41.99133154462367" lon="19.478921144925597"><ele>5.0</ele><time>2026-05-03T08:36:06Z</time></trkpt><trkpt lat="41.99158092725619" lon="19.478943260024668"><ele>5.0</ele><time>2026-05-03T08:36:07Z</time></trkpt><trkpt lat="41.99182755915508" lon="19.478979516748502"><ele>5.0</ele><time>2026-05-03T08:36:08Z</time></trkpt><trkpt lat="41.99207168513749" lon="19.479029029713843"><ele>5.0</ele><time>2026-05-03T08:36:09Z</time></trkpt><trkpt lat="41.99231256955709" lon="19.47908529965292"><ele>5.0</ele><time>2026-05-03T08:36:10Z</time></trkpt><trkpt lat="41.992551242400985" lon="19.479145060504262"><ele>4.0</ele><time>2026-05-03T08:36:11Z</time></trkpt><trkpt lat="41.992789683636225" lon="19.47920743601044"><ele>3.0</ele><time>2026-05-03T08:36:12Z</time></trkpt><trkpt lat="41.99302553005275" lon="19.47926946761566"><ele>3.0</ele><time>2026-05-03T08:36:13Z</time></trkpt><trkpt lat="41.99326057468319" lon="19.479337934890125"><ele>3.0</ele><time>2026-05-03T08:36:14Z</time></trkpt><trkpt lat="41.99349440041983" lon="19.479403484498686"><ele>3.0</ele><time>2026-05-03T08:36:15Z</time></trkpt><trkpt lat="41.99372938562142" lon="19.479467322664778"><ele>3.0</ele><time>2026-05-03T08:36:16Z</time></trkpt><trkpt lat="41.99396750521312" lon="19.479529669058817"><ele>3.0</ele><time>2026-05-03T08:36:17Z</time></trkpt><trkpt lat="41.994206163665375" lon="19.479587152896443"><ele>3.0</ele><time>2026-05-03T08:36:18Z</time></trkpt><trkpt lat="41.99444786066815" lon="19.47963337231692"><ele>3.0</ele><time>2026-05-03T08:36:19Z</time></trkpt><trkpt lat="41.99469348320495" lon="19.479669292365944"><ele>3.0</ele><time>2026-05-03T08:36:20Z</time></trkpt><trkpt lat="41.99493766966175" lon="19.479700269181134"><ele>3.5</ele><time>2026-05-03T08:36:21Z</time></trkpt><trkpt lat="41.99518482294633" lon="19.47973575579707"><ele>4.0</ele><time>2026-05-03T08:36:22Z</time></trkpt><trkpt lat="41.995437843654784" lon="19.479774960893884"><ele>4.0</ele><time>2026-05-03T08:36:23Z</time></trkpt><trkpt lat="41.995693425536224" lon="19.479815390714098"><ele>4.0</ele><time>2026-05-03T08:36:24Z</time></trkpt><trkpt lat="41.99595142829444" lon="19.47985444179042"><ele>4.0</ele><time>2026-05-03T08:36:25Z</time></trkpt><trkpt lat="41.99621334277299" lon="19.47989357729296"><ele>4.0</ele><time>2026-05-03T08:36:26Z</time></trkpt><trkpt lat="41.99647633376337" lon="19.479932902812536"><ele>4.0</ele><time>2026-05-03T08:36:27Z</time></trkpt><trkpt lat="41.99674280922686" lon="19.479975411269045"><ele>4.0</ele><time>2026-05-03T08:36:28Z</time></trkpt><trkpt lat="41.99700818945797" lon="19.480015091843434"><ele>4.0</ele><time>2026-05-03T08:36:29Z</time></trkpt><trkpt lat="41.99727269045614" lon="19.480058210901646"><ele>4.0</ele><time>2026-05-03T08:36:30Z</time></trkpt><trkpt lat="41.997537842361936" lon="19.48010179559817"><ele>5.0</ele><time>2026-05-03T08:36:31Z</time></trkpt><trkpt lat="41.99780018300835" lon="19.480140638491548"><ele>6.0</ele><time>2026-05-03T08:36:32Z</time></trkpt><trkpt lat="41.99806072640151" lon="19.48017558377078"><ele>6.0</ele><time>2026-05-03T08:36:32.999Z</time></trkpt><trkpt lat="41.998312553039526" lon="19.48021069947652"><ele>6.0</ele><time>2026-05-03T08:36:33.999Z</time></trkpt><trkpt lat="41.998561925435254" lon="19.480236398249904"><ele>5.0</ele><time>2026-05-03T08:36:34.999Z</time></trkpt><trkpt lat="41.998810004069654" lon="19.480246669617976"><ele>4.0</ele><time>2026-05-03T08:36:35.999Z</time></trkpt><trkpt lat="41.99905813281302" lon="19.48024142241561"><ele>5.0</ele><time>2026-05-03T08:36:36.999Z</time></trkpt><trkpt lat="41.99930242236374" lon="19.480220979892536"><ele>6.0</ele><time>2026-05-03T08:36:37.999Z</time></trkpt><trkpt lat="41.999547239368695" lon="19.48019819838174"><ele>6.0</ele><time>2026-05-03T08:36:38.999Z</time></trkpt><trkpt lat="41.99979290402302" lon="19.480184048637305"><ele>6.0</ele><time>2026-05-03T08:36:39.999Z</time></trkpt><trkpt lat="42.000039230843704" lon="19.480182530201546"><ele>6.0</ele><time>2026-05-03T08:36:40.999Z</time></trkpt><trkpt lat="42.00028273752273" lon="19.480203906791818"><ele>6.0</ele><time>2026-05-03T08:36:41.999Z</time></trkpt><trkpt lat="42.0005262613499" lon="19.480249506680117"><ele>6.0</ele><time>2026-05-03T08:36:42.999Z</time></trkpt><trkpt lat="42.00076628087365" lon="19.480321616946572"><ele>6.0</ele><time>2026-05-03T08:36:43.999Z</time></trkpt><trkpt lat="42.00100612623272" lon="19.480403323521458"><ele>6.5</ele><time>2026-05-03T08:36:44.999Z</time></trkpt><trkpt lat="42.001246895540234" lon="19.480484789598005"><ele>7.0</ele><time>2026-05-03T08:36:45.999Z</time></trkpt><trkpt lat="42.001487714015234" lon="19.480567737078847"><ele>6.5</ele><time>2026-05-03T08:36:46.999Z</time></trkpt><trkpt lat="42.00172770401653" lon="19.480651316891173"><ele>6.0</ele><time>2026-05-03T08:36:47.999Z</time></trkpt><trkpt lat="42.00196579807135" lon="19.480736075137365"><ele>6.0</ele><time>2026-05-03T08:36:48.999Z</time></trkpt><trkpt lat="42.00219239461469" lon="19.48081382994792"><ele>6.0</ele><time>2026-05-03T08:36:49.999Z</time></trkpt><trkpt lat="42.00240318589273" lon="19.480865827405886"><ele>6.0</ele><time>2026-05-03T08:36:50.999Z</time></trkpt><trkpt lat="42.0026025928138" lon="19.480876831898335"><ele>5.666666666666667</ele><time>2026-05-03T08:36:51.999Z</time></trkpt><trkpt lat="42.00280505477633" lon="19.480837691407814"><ele>5.333333333333334</ele><time>2026-05-03T08:36:52.999Z</time></trkpt><trkpt lat="42.00301383977931" lon="19.48074666849637"><ele>5.0</ele><time>2026-05-03T08:36:53.999Z</time></trkpt><trkpt lat="42.0032328569759" lon="19.480634176005474"><ele>5.0</ele><time>2026-05-03T08:36:54.999Z</time></trkpt><trkpt lat="42.00345955439543" lon="19.480517930596598"><ele>5.0</ele><time>2026-05-03T08:36:55.999Z</time></trkpt><trkpt lat="42.003691768028325" lon="19.480401669958162"><ele>5.0</ele><time>2026-05-03T08:36:56.999Z</time></trkpt><trkpt lat="42.00392913708174" lon="19.480283818286296"><ele>5.0</ele><time>2026-05-03T08:36:57.999Z</time></trkpt><trkpt lat="42.00417080214567" lon="19.480164547800605"><ele>5.5</ele><time>2026-05-03T08:36:58.999Z</time></trkpt><trkpt lat="42.00441752953538" lon="19.480046217933225"><ele>6.0</ele><time>2026-05-03T08:36:59.999Z</time></trkpt><trkpt lat="42.00466745744297" lon="19.479924948969543"><ele>6.0</ele><time>2026-05-03T08:37:00.999Z</time></trkpt><trkpt lat="42.0049169714349" lon="19.479804268374153"><ele>6.0</ele><time>2026-05-03T08:37:01.999Z</time></trkpt><trkpt lat="42.005165735451264" lon="19.479680516184793"><ele>5.5</ele><time>2026-05-03T08:37:02.999Z</time></trkpt><trkpt lat="42.00541424652872" lon="19.479559643663805"><ele>5.0</ele><time>2026-05-03T08:37:03.999Z</time></trkpt><trkpt lat="42.00565994349621" lon="19.479442226266638"><ele>5.0</ele><time>2026-05-03T08:37:04.999Z</time></trkpt><trkpt lat="42.00590207751511" lon="19.47932688009566"><ele>5.0</ele><time>2026-05-03T08:37:05.999Z</time></trkpt><trkpt lat="42.00613896279622" lon="19.479214381567516"><ele>5.0</ele><time>2026-05-03T08:37:06.999Z</time></trkpt><trkpt lat="42.006373221276846" lon="19.479105072022055"><ele>5.0</ele><time>2026-05-03T08:37:07.999Z</time></trkpt><trkpt lat="42.006607005959026" lon="19.47899831569142"><ele>5.5</ele><time>2026-05-03T08:37:08.999Z</time></trkpt><trkpt lat="42.00683701842279" lon="19.478891908577157"><ele>6.0</ele><time>2026-05-03T08:37:09.999Z</time></trkpt><trkpt lat="42.00706538504042" lon="19.478784422560402"><ele>6.0</ele><time>2026-05-03T08:37:10.999Z</time></trkpt><trkpt lat="42.0072882457575" lon="19.478678281949193"><ele>6.0</ele><time>2026-05-03T08:37:11.999Z</time></trkpt><trkpt lat="42.0075096147422" lon="19.478567253763337"><ele>5.5</ele><time>2026-05-03T08:37:12.999Z</time></trkpt><trkpt lat="42.0077264090893" lon="19.478453338164996"><ele>5.0</ele><time>2026-05-03T08:37:13.999Z</time></trkpt><trkpt lat="42.00793769911113" lon="19.4783457047513"><ele>5.0</ele><time>2026-05-03T08:37:14.999Z</time></trkpt><trkpt lat="42.00813640541545" lon="19.478250588352022"><ele>5.0</ele><time>2026-05-03T08:37:15.999Z</time></trkpt><trkpt lat="42.00833309938279" lon="19.47815697367805"><ele>5.0</ele><time>2026-05-03T08:37:16.999Z</time></trkpt><trkpt lat="42.0085289595073" lon="19.478066948673437"><ele>5.0</ele><time>2026-05-03T08:37:17.999Z</time></trkpt><trkpt lat="42.00872792847168" lon="19.477976136258036"><ele>5.0</ele><time>2026-05-03T08:37:18.999Z</time></trkpt><trkpt lat="42.00892593599563" lon="19.47788261922434"><ele>5.0</ele><time>2026-05-03T08:37:19.999Z</time></trkpt><trkpt lat="42.00911059874525" lon="19.47779148048678"><ele>5.333333333333334</ele><time>2026-05-03T08:37:20.999Z</time></trkpt><trkpt lat="42.00929258463478" lon="19.47769634609213"><ele>5.666666666666667</ele><time>2026-05-03T08:37:21.999Z</time></trkpt><trkpt lat="42.00947287351669" lon="19.477604306237712"><ele>6.0</ele><time>2026-05-03T08:37:22.999Z</time></trkpt><trkpt lat="42.00965110511433" lon="19.477515833657748"><ele>6.0</ele><time>2026-05-03T08:37:23.999Z</time></trkpt><trkpt lat="42.00982728504216" lon="19.477432365147983"><ele>6.0</ele><time>2026-05-03T08:37:24.999Z</time></trkpt><trkpt lat="42.010003021207716" lon="19.47734677900233"><ele>6.0</ele><time>2026-05-03T08:37:25.999Z</time></trkpt><trkpt lat="42.01017741785842" lon="19.477256993373008"><ele>6.0</ele><time>2026-05-03T08:37:26.999Z</time></trkpt><trkpt lat="42.01035018115859" lon="19.477162874917145"><ele>6.0</ele><time>2026-05-03T08:37:27.999Z</time></trkpt><trkpt lat="42.01052166250771" lon="19.47706171348923"><ele>6.0</ele><time>2026-05-03T08:37:29Z</time></trkpt><trkpt lat="42.01069245069179" lon="19.476956120310643"><ele>5.0</ele><time>2026-05-03T08:37:30Z</time></trkpt><trkpt lat="42.01087263029716" lon="19.47684586499638"><ele>4.0</ele><time>2026-05-03T08:37:31Z</time></trkpt><trkpt lat="42.011059184137146" lon="19.476736542053445"><ele>3.0</ele><time>2026-05-03T08:37:32Z</time></trkpt><trkpt lat="42.01124868423428" lon="19.476624646752573"><ele>3.0</ele><time>2026-05-03T08:37:33Z</time></trkpt><trkpt lat="42.011440738878576" lon="19.47650510860106"><ele>3.0</ele><time>2026-05-03T08:37:34Z</time></trkpt><trkpt lat="42.01163552408974" lon="19.476383255487132"><ele>3.0</ele><time>2026-05-03T08:37:35Z</time></trkpt><trkpt lat="42.01183200635295" lon="19.47626354125439"><ele>3.666666666666667</ele><time>2026-05-03T08:37:36Z</time></trkpt><trkpt lat="42.0120264330276" lon="19.476144392483803"><ele>4.333333333333334</ele><time>2026-05-03T08:37:37Z</time></trkpt><trkpt lat="42.01222422542377" lon="19.47602738267609"><ele>5.0</ele><time>2026-05-03T08:37:38Z</time></trkpt><trkpt lat="42.012422723704525" lon="19.475911392136773"><ele>5.333333333333334</ele><time>2026-05-03T08:37:39Z</time></trkpt><trkpt lat="42.01262496731269" lon="19.475793609171035"><ele>5.666666666666667</ele><time>2026-05-03T08:37:40Z</time></trkpt><trkpt lat="42.01283019242549" lon="19.475677481674726"><ele>6.0</ele><time>2026-05-03T08:37:41Z</time></trkpt><trkpt lat="42.01303727248316" lon="19.47555582310314"><ele>6.0</ele><time>2026-05-03T08:37:42Z</time></trkpt><trkpt lat="42.01325236209417" lon="19.475425235211276"><ele>6.0</ele><time>2026-05-03T08:37:43Z</time></trkpt><trkpt lat="42.01347555643398" lon="19.47530498369326"><ele>6.0</ele><time>2026-05-03T08:37:44Z</time></trkpt><trkpt lat="42.01370926830338" lon="19.4752004093266"><ele>6.0</ele><time>2026-05-03T08:37:45Z</time></trkpt><trkpt lat="42.01394855350332" lon="19.475123267108366"><ele>6.0</ele><time>2026-05-03T08:37:46Z</time></trkpt><trkpt lat="42.01418876843383" lon="19.475060086976168"><ele>6.0</ele><time>2026-05-03T08:37:47Z</time></trkpt><trkpt lat="42.01442980501881" lon="19.475011053697347"><ele>6.0</ele><time>2026-05-03T08:37:48Z</time></trkpt><trkpt lat="42.014670740440124" lon="19.47497296077105"><ele>6.0</ele><time>2026-05-03T08:37:49Z</time></trkpt><trkpt lat="42.01491271347216" lon="19.474951186869877"><ele>5.5</ele><time>2026-05-03T08:37:50Z</time></trkpt><trkpt lat="42.01515321534268" lon="19.474955427859463"><ele>5.0</ele><time>2026-05-03T08:37:51Z</time></trkpt><trkpt lat="42.015391385358484" lon="19.47497842885779"><ele>5.0</ele><time>2026-05-03T08:37:52Z</time></trkpt><trkpt lat="42.01562892395233" lon="19.475012620300035"><ele>5.0</ele><time>2026-05-03T08:37:53Z</time></trkpt><trkpt lat="42.01586427775853" lon="19.47506237334189"><ele>5.0</ele><time>2026-05-03T08:37:54Z</time></trkpt><trkpt lat="42.01609673217387" lon="19.475129142893515"><ele>5.0</ele><time>2026-05-03T08:37:55Z</time></trkpt><trkpt lat="42.01632687724997" lon="19.475217310405835"><ele>5.0</ele><time>2026-05-03T08:37:56Z</time></trkpt><trkpt lat="42.016553374674395" lon="19.475317787610194"><ele>5.0</ele><time>2026-05-03T08:37:57Z</time></trkpt><trkpt lat="42.0167767736214" lon="19.475429579593616"><ele>5.5</ele><time>2026-05-03T08:37:58Z</time></trkpt><trkpt lat="42.01699293100725" lon="19.475563721443883"><ele>6.0</ele><time>2026-05-03T08:37:59Z</time></trkpt><trkpt lat="42.0172021817129" lon="19.47571920774276"><ele>6.0</ele><time>2026-05-03T08:38:00Z</time></trkpt><trkpt lat="42.017405802701596" lon="19.47589135330556"><ele>6.0</ele><time>2026-05-03T08:38:01Z</time></trkpt><trkpt lat="42.01760408426902" lon="19.476077315875546"><ele>6.0</ele><time>2026-05-03T08:38:02Z</time></trkpt><trkpt lat="42.01779897449036" lon="19.476271508850235"><ele>6.0</ele><time>2026-05-03T08:38:03Z</time></trkpt><trkpt lat="42.017995302128014" lon="19.47646638318571"><ele>6.0</ele><time>2026-05-03T08:38:04Z</time></trkpt><trkpt lat="42.018192451944735" lon="19.476665143292507"><ele>6.0</ele><time>2026-05-03T08:38:05Z</time></trkpt><trkpt lat="42.01839220499954" lon="19.476863713173923"><ele>6.0</ele><time>2026-05-03T08:38:06Z</time></trkpt><trkpt lat="42.01859422891539" lon="19.477066003202047"><ele>6.0</ele><time>2026-05-03T08:38:07Z</time></trkpt><trkpt lat="42.01879776160081" lon="19.47727357206037"><ele>6.5</ele><time>2026-05-03T08:38:08Z</time></trkpt><trkpt lat="42.019001115494035" lon="19.477479948644024"><ele>7.0</ele><time>2026-05-03T08:38:09Z</time></trkpt><trkpt lat="42.019206758782744" lon="19.47768675986967"><ele>6.5</ele><time>2026-05-03T08:38:10Z</time></trkpt><trkpt lat="42.0194107205725" lon="19.47789541203481"><ele>6.0</ele><time>2026-05-03T08:38:11Z</time></trkpt><trkpt lat="42.019610812447205" lon="19.478102785379605"><ele>6.0</ele><time>2026-05-03T08:38:12Z</time></trkpt><trkpt lat="42.01981108924478" lon="19.478311658426634"><ele>6.0</ele><time>2026-05-03T08:38:13Z</time></trkpt><trkpt lat="42.02001067898718" lon="19.478520796819943"><ele>6.5</ele><time>2026-05-03T08:38:14Z</time></trkpt><trkpt lat="42.020209680515336" lon="19.478724820171774"><ele>7.0</ele><time>2026-05-03T08:38:15Z</time></trkpt><trkpt lat="42.02041112908873" lon="19.478925578428697"><ele>7.0</ele><time>2026-05-03T08:38:16Z</time></trkpt><trkpt lat="42.02061223622437" lon="19.47912676494827"><ele>7.0</ele><time>2026-05-03T08:38:17Z</time></trkpt><trkpt lat="42.020815466895" lon="19.479328323576095"><ele>7.0</ele><time>2026-05-03T08:38:18Z</time></trkpt><trkpt lat="42.02101686794409" lon="19.479531426831414"><ele>7.0</ele><time>2026-05-03T08:38:19Z</time></trkpt><trkpt lat="42.02121516377222" lon="19.47973721961794"><ele>7.0</ele><time>2026-05-03T08:38:20Z</time></trkpt><trkpt lat="42.02141236264546" lon="19.47994137545631"><ele>7.0</ele><time>2026-05-03T08:38:21Z</time></trkpt><trkpt lat="42.02161183176578" lon="19.480140858743823"><ele>7.0</ele><time>2026-05-03T08:38:22Z</time></trkpt><trkpt lat="42.02181136747978" lon="19.48034356747079"><ele>7.0</ele><time>2026-05-03T08:38:23Z</time></trkpt><trkpt lat="42.02200919271714" lon="19.480548715175168"><ele>6.5</ele><time>2026-05-03T08:38:24Z</time></trkpt><trkpt lat="42.0222060440912" lon="19.480752428617546"><ele>6.0</ele><time>2026-05-03T08:38:25Z</time></trkpt><trkpt lat="42.02240407095569" lon="19.480955295712203"><ele>6.0</ele><time>2026-05-03T08:38:26Z</time></trkpt><trkpt lat="42.022602304509164" lon="19.48115698248555"><ele>6.0</ele><time>2026-05-03T08:38:27Z</time></trkpt><trkpt lat="42.0228024630525" lon="19.481356394635917"><ele>6.0</ele><time>2026-05-03T08:38:28Z</time></trkpt><trkpt lat="42.023002363371695" lon="19.48155911767369"><ele>6.0</ele><time>2026-05-03T08:38:29Z</time></trkpt><trkpt lat="42.0232030402596" lon="19.481763467642192"><ele>6.0</ele><time>2026-05-03T08:38:30Z</time></trkpt><trkpt lat="42.023405337428485" lon="19.48197082821343"><ele>6.0</ele><time>2026-05-03T08:38:31Z</time></trkpt><trkpt lat="42.0236100433654" lon="19.482182053270513"><ele>7.0</ele><time>2026-05-03T08:38:32Z</time></trkpt><trkpt lat="42.02381450172821" lon="19.482397753829424"><ele>8.0</ele><time>2026-05-03T08:38:33Z</time></trkpt><trkpt lat="42.02401895255005" lon="19.482612796255154"><ele>7.0</ele><time>2026-05-03T08:38:34Z</time></trkpt><trkpt lat="42.02422216563451" lon="19.482826205683047"><ele>6.0</ele><time>2026-05-03T08:38:35Z</time></trkpt><trkpt lat="42.0244280990178" lon="19.483038673113242"><ele>5.5</ele><time>2026-05-03T08:38:36Z</time></trkpt><trkpt lat="42.024628966776596" lon="19.48324030118497"><ele>5.0</ele><time>2026-05-03T08:38:37Z</time></trkpt><trkpt lat="42.02482342511119" lon="19.483438089573404"><ele>5.5</ele><time>2026-05-03T08:38:38Z</time></trkpt><trkpt lat="42.02500992383124" lon="19.483627515274932"><ele>6.0</ele><time>2026-05-03T08:38:39Z</time></trkpt><trkpt lat="42.025195156535005" lon="19.48381088520922"><ele>6.0</ele><time>2026-05-03T08:38:40Z</time></trkpt><trkpt lat="42.02537597734919" lon="19.48399389022326"><ele>6.0</ele><time>2026-05-03T08:38:41Z</time></trkpt><trkpt lat="42.025559966824815" lon="19.484175078870088"><ele>6.0</ele><time>2026-05-03T08:38:42Z</time></trkpt><trkpt lat="42.02574488153102" lon="19.484355878049623"><ele>6.0</ele><time>2026-05-03T08:38:43Z</time></trkpt><trkpt lat="42.02592992090675" lon="19.484538398340472"><ele>6.5</ele><time>2026-05-03T08:38:44Z</time></trkpt><trkpt lat="42.026124520222695" lon="19.484726969792632"><ele>7.0</ele><time>2026-05-03T08:38:45Z</time></trkpt><trkpt lat="42.02632033022255" lon="19.484917591371918"><ele>7.0</ele><time>2026-05-03T08:38:46Z</time></trkpt><trkpt lat="42.02651683309617" lon="19.485117061431712"><ele>7.0</ele><time>2026-05-03T08:38:47Z</time></trkpt><trkpt lat="42.02671440512746" lon="19.485323201109413"><ele>7.0</ele><time>2026-05-03T08:38:48Z</time></trkpt><trkpt lat="42.02691699749884" lon="19.485529924356673"><ele>7.0</ele><time>2026-05-03T08:38:49Z</time></trkpt><trkpt lat="42.0271252320837" lon="19.485738479896913"><ele>7.0</ele><time>2026-05-03T08:38:50Z</time></trkpt><trkpt lat="42.02733385913107" lon="19.48594707208351"><ele>7.0</ele><time>2026-05-03T08:38:51Z</time></trkpt><trkpt lat="42.027541750807515" lon="19.4861617279436"><ele>8.0</ele><time>2026-05-03T08:38:52Z</time></trkpt><trkpt lat="42.02774827170565" lon="19.486378170481462"><ele>9.0</ele><time>2026-05-03T08:38:53Z</time></trkpt><trkpt lat="42.02795495391568" lon="19.48659311424463"><ele>9.0</ele><time>2026-05-03T08:38:54Z</time></trkpt><trkpt lat="42.02816049563787" lon="19.48680364236676"><ele>9.0</ele><time>2026-05-03T08:38:55Z</time></trkpt><trkpt lat="42.02836448206894" lon="19.48700834814171"><ele>9.0</ele><time>2026-05-03T08:38:56Z</time></trkpt><trkpt lat="42.02856741837739" lon="19.48720905388769"><ele>9.0</ele><time>2026-05-03T08:38:57Z</time></trkpt><trkpt lat="42.028769537352886" lon="19.48741149701546"><ele>9.0</ele><time>2026-05-03T08:38:58Z</time></trkpt><trkpt lat="42.028968342876276" lon="19.487616539374297"><ele>9.0</ele><time>2026-05-03T08:38:59Z</time></trkpt><trkpt lat="42.02916440391167" lon="19.487813938023226"><ele>7.5</ele><time>2026-05-03T08:39:00Z</time></trkpt><trkpt lat="42.02935773058052" lon="19.488007585207097"><ele>6.0</ele><time>2026-05-03T08:39:01Z</time></trkpt><trkpt lat="42.02954763399528" lon="19.48820450385602"><ele>6.0</ele><time>2026-05-03T08:39:02Z</time></trkpt><trkpt lat="42.029729316855025" lon="19.48841035568694"><ele>6.0</ele><time>2026-05-03T08:39:03Z</time></trkpt><trkpt lat="42.02988654294813" lon="19.488629020031254"><ele>5.666666666666667</ele><time>2026-05-03T08:39:04Z</time></trkpt><trkpt lat="42.030019272581285" lon="19.48885159713598"><ele>5.333333333333334</ele><time>2026-05-03T08:39:05Z</time></trkpt><trkpt lat="42.03013623022054" lon="19.489077974196015"><ele>5.0</ele><time>2026-05-03T08:39:06Z</time></trkpt><trkpt lat="42.03024571082728" lon="19.48932136450543"><ele>5.0</ele><time>2026-05-03T08:39:06.999Z</time></trkpt><trkpt lat="42.03033801082178" lon="19.489577326414597"><ele>5.0</ele><time>2026-05-03T08:39:07.999Z</time></trkpt><trkpt lat="42.030411411924625" lon="19.489840136242886"><ele>5.0</ele><time>2026-05-03T08:39:08.999Z</time></trkpt><trkpt lat="42.03047107415321" lon="19.49011089859049"><ele>5.666666666666667</ele><time>2026-05-03T08:39:09.999Z</time></trkpt><trkpt lat="42.03051849324185" lon="19.49038509739913"><ele>6.333333333333334</ele><time>2026-05-03T08:39:10.999Z</time></trkpt><trkpt lat="42.03054735486491" lon="19.490667358705732"><ele>7.0</ele><time>2026-05-03T08:39:11.999Z</time></trkpt><trkpt lat="42.03055921852077" lon="19.490953962383376"><ele>7.0</ele><time>2026-05-03T08:39:12.999Z</time></trkpt><trkpt lat="42.03056158196083" lon="19.491252021916193"><ele>7.0</ele><time>2026-05-03T08:39:13.999Z</time></trkpt><trkpt lat="42.030561844737136" lon="19.49156551405106"><ele>7.5</ele><time>2026-05-03T08:39:14.999Z</time></trkpt><trkpt lat="42.03056376522285" lon="19.491895967126773"><ele>8.0</ele><time>2026-05-03T08:39:15.999Z</time></trkpt><trkpt lat="42.030565806115916" lon="19.492235427998853"><ele>8.0</ele><time>2026-05-03T08:39:16.999Z</time></trkpt><trkpt lat="42.03056116263886" lon="19.492595383353862"><ele>8.0</ele><time>2026-05-03T08:39:17.999Z</time></trkpt><trkpt lat="42.0305557376718" lon="19.49296419301995"><ele>8.5</ele><time>2026-05-03T08:39:18.999Z</time></trkpt><trkpt lat="42.03054827839171" lon="19.49333975977733"><ele>9.0</ele><time>2026-05-03T08:39:19.999Z</time></trkpt><trkpt lat="42.03053973110385" lon="19.493720598595868"><ele>11.5</ele><time>2026-05-03T08:39:20.999Z</time></trkpt><trkpt lat="42.03053153127666" lon="19.49410814126656"><ele>14.0</ele><time>2026-05-03T08:39:21.999Z</time></trkpt><trkpt lat="42.03052917349056" lon="19.494499349517337"><ele>15.0</ele><time>2026-05-03T08:39:22.999Z</time></trkpt><trkpt lat="42.030533807770695" lon="19.494895471766068"><ele>16.0</ele><time>2026-05-03T08:39:23.999Z</time></trkpt><trkpt lat="42.03054499670498" lon="19.495291337468696"><ele>19.5</ele><time>2026-05-03T08:39:24.999Z</time></trkpt><trkpt lat="42.030563420231736" lon="19.495669980967428"><ele>23.0</ele><time>2026-05-03T08:39:25.999Z</time></trkpt><trkpt lat="42.030594348655114" lon="19.49600859782211"><ele>27.0</ele><time>2026-05-03T08:39:26.999Z</time></trkpt><trkpt lat="42.03062688930142" lon="19.496291983045882"><ele>31.0</ele><time>2026-05-03T08:39:27.999Z</time></trkpt><trkpt lat="42.03065868154743" lon="19.496542559357003"><ele>35.0</ele><time>2026-05-03T08:39:28.999Z</time></trkpt><trkpt lat="42.03069228135132" lon="19.49673647633337"><ele>35.0</ele><time>2026-05-03T08:39:29.999Z</time></trkpt><trkpt lat="42.03072610319932" lon="19.49691768603795"><ele>35.0</ele><time>2026-05-03T08:39:30.999Z</time></trkpt><trkpt lat="42.0307549559504" lon="19.4970750452378"><ele>35.0</ele><time>2026-05-03T08:39:31.999Z</time></trkpt><trkpt lat="42.030785077220415" lon="19.497226933308838"><ele>35.0</ele><time>2026-05-03T08:39:32.999Z</time></trkpt><trkpt lat="42.03082598958324" lon="19.497402306508175"><ele>29.0</ele><time>2026-05-03T08:39:33.999Z</time></trkpt><trkpt lat="42.03087824166956" lon="19.497613714558575"><ele>23.0</ele><time>2026-05-03T08:39:35Z</time></trkpt><trkpt lat="42.03092606603007" lon="19.49782647061835"><ele>17.0</ele><time>2026-05-03T08:39:36Z</time></trkpt><trkpt lat="42.03097735831941" lon="19.498056258360535"><ele>15.333333333333334</ele><time>2026-05-03T08:39:37Z</time></trkpt><trkpt lat="42.031033578450845" lon="19.49830352609698"><ele>13.666666666666668</ele><time>2026-05-03T08:39:38Z</time></trkpt><trkpt lat="42.031084333582676" lon="19.49856602421662"><ele>12.0</ele><time>2026-05-03T08:39:39Z</time></trkpt><trkpt lat="42.031123435569796" lon="19.498846330520735"><ele>10.0</ele><time>2026-05-03T08:39:40Z</time></trkpt><trkpt lat="42.03115292990451" lon="19.49914787344904"><ele>8.0</ele><time>2026-05-03T08:39:41Z</time></trkpt><trkpt lat="42.031178982324946" lon="19.4994506938092"><ele>8.5</ele><time>2026-05-03T08:39:42Z</time></trkpt><trkpt lat="42.03120903962297" lon="19.499760226998898"><ele>9.0</ele><time>2026-05-03T08:39:43Z</time></trkpt><trkpt lat="42.03124666218526" lon="19.50007251914175"><ele>9.0</ele><time>2026-05-03T08:39:44Z</time></trkpt><trkpt lat="42.03129531801368" lon="19.50038426184138"><ele>9.0</ele><time>2026-05-03T08:39:45Z</time></trkpt><trkpt lat="42.031356948905334" lon="19.50069195433068"><ele>8.5</ele><time>2026-05-03T08:39:46Z</time></trkpt><trkpt lat="42.03142523005662" lon="19.500996078918185"><ele>8.0</ele><time>2026-05-03T08:39:47Z</time></trkpt><trkpt lat="42.03149276879112" lon="19.501297013786477"><ele>8.0</ele><time>2026-05-03T08:39:48Z</time></trkpt><trkpt lat="42.031556260901475" lon="19.501591578639594"><ele>8.0</ele><time>2026-05-03T08:39:49Z</time></trkpt><trkpt lat="42.03161666208988" lon="19.5018761095853"><ele>8.0</ele><time>2026-05-03T08:39:50Z</time></trkpt><trkpt lat="42.031670380553656" lon="19.50213592126967"><ele>7.666666666666666</ele><time>2026-05-03T08:39:51Z</time></trkpt><trkpt lat="42.03171745433483" lon="19.50236080484293"><ele>7.333333333333334</ele><time>2026-05-03T08:39:52Z</time></trkpt><trkpt lat="42.031757324767035" lon="19.502556634228547"><ele>7.0</ele><time>2026-05-03T08:39:53Z</time></trkpt><trkpt lat="42.03179166263519" lon="19.502721811908838"><ele>7.000000000000001</ele><time>2026-05-03T08:39:54Z</time></trkpt><trkpt lat="42.0318211167958" lon="19.502868793395145"><ele>7.0</ele><time>2026-05-03T08:39:55Z</time></trkpt><trkpt lat="42.03184136132712" lon="19.502956547501302"><ele>7.0</ele><time>2026-05-03T08:39:56Z</time></trkpt><trkpt lat="42.03185828561318" lon="19.50305564132165"><ele>7.0</ele><time>2026-05-03T08:39:58Z</time></trkpt><trkpt lat="42.03187110844129" lon="19.503142619460988"><ele>7.000000000000001</ele><time>2026-05-03T08:40:00Z</time></trkpt><trkpt lat="42.03193505705449" lon="19.503268534683365"><ele>7.0</ele><time>2026-05-03T08:40:02Z</time></trkpt><trkpt lat="42.03200120671621" lon="19.503281978442434"><ele>7.0</ele><time>2026-05-03T08:40:03Z</time></trkpt><trkpt lat="42.03206824738603" lon="19.503273781439365"><ele>6.999999999999999</ele><time>2026-05-03T08:40:04Z</time></trkpt><trkpt lat="42.03213278108099" lon="19.503159045912742"><ele>6.999999999999999</ele><time>2026-05-03T08:40:06Z</time></trkpt><trkpt lat="42.03219416403754" lon="19.503077167927632"><ele>7.0</ele><time>2026-05-03T08:40:07Z</time></trkpt><trkpt lat="42.03227451497532" lon="19.502981847064365"><ele>7.0</ele><time>2026-05-03T08:40:08Z</time></trkpt><trkpt lat="42.03236030553425" lon="19.502877783268936"><ele>7.0</ele><time>2026-05-03T08:40:09Z</time></trkpt><trkpt lat="42.03247106218784" lon="19.502753686378277"><ele>7.0</ele><time>2026-05-03T08:40:10Z</time></trkpt><trkpt lat="42.03259897159018" lon="19.502633841304718"><ele>7.0</ele><time>2026-05-03T08:40:11Z</time></trkpt><trkpt lat="42.03271871972566" lon="19.50252530324248"><ele>7.0</ele><time>2026-05-03T08:40:12Z</time></trkpt><trkpt lat="42.03284255723092" lon="19.50241796969232"><ele>7.25</ele><time>2026-05-03T08:40:13Z</time></trkpt><trkpt lat="42.03296261844885" lon="19.50232659336163"><ele>7.5</ele><time>2026-05-03T08:40:14Z</time></trkpt><trkpt lat="42.03306827352473" lon="19.50223216607588"><ele>7.75</ele><time>2026-05-03T08:40:15Z</time></trkpt><trkpt lat="42.03317258620616" lon="19.50213532263872"><ele>8.0</ele><time>2026-05-03T08:40:16Z</time></trkpt><trkpt lat="42.03328491713494" lon="19.502035828431087"><ele>7.666666666666666</ele><time>2026-05-03T08:40:17Z</time></trkpt><trkpt lat="42.03340310226723" lon="19.501930262557373"><ele>7.333333333333334</ele><time>2026-05-03T08:40:18Z</time></trkpt><trkpt lat="42.03353245345591" lon="19.50181135887456"><ele>7.0</ele><time>2026-05-03T08:40:19Z</time></trkpt><trkpt lat="42.033679749406176" lon="19.501685840375327"><ele>7.0</ele><time>2026-05-03T08:40:20Z</time></trkpt><trkpt lat="42.03384333492337" lon="19.501541468568316"><ele>7.0</ele><time>2026-05-03T08:40:21Z</time></trkpt><trkpt lat="42.03400045906663" lon="19.501394625979355"><ele>7.0</ele><time>2026-05-03T08:40:21.999Z</time></trkpt><trkpt lat="42.034162369142514" lon="19.501253060372857"><ele>6.666666666666667</ele><time>2026-05-03T08:40:22.999Z</time></trkpt><trkpt lat="42.034322088347146" lon="19.50111148219966"><ele>6.333333333333334</ele><time>2026-05-03T08:40:23.999Z</time></trkpt><trkpt lat="42.03447565424694" lon="19.500976609133705"><ele>6.0</ele><time>2026-05-03T08:40:24.999Z</time></trkpt><trkpt lat="42.0346255950739" lon="19.50084234547342"><ele>6.0</ele><time>2026-05-03T08:40:25.999Z</time></trkpt><trkpt lat="42.03477615441762" lon="19.50071758722417"><ele>6.0</ele><time>2026-05-03T08:40:26.999Z</time></trkpt><trkpt lat="42.03492651846516" lon="19.500599686924208"><ele>6.0</ele><time>2026-05-03T08:40:27.999Z</time></trkpt><trkpt lat="42.035070058092394" lon="19.500479397191512"><ele>6.333333333333334</ele><time>2026-05-03T08:40:28.999Z</time></trkpt><trkpt lat="42.035207896415066" lon="19.50035656160755"><ele>6.666666666666667</ele><time>2026-05-03T08:40:29.999Z</time></trkpt><trkpt lat="42.03533038866769" lon="19.50023668730292"><ele>7.0</ele><time>2026-05-03T08:40:30.999Z</time></trkpt><trkpt lat="42.03545559210919" lon="19.500122365294615"><ele>7.0</ele><time>2026-05-03T08:40:31.999Z</time></trkpt><trkpt lat="42.03558268958404" lon="19.500000586570508"><ele>7.0</ele><time>2026-05-03T08:40:32.999Z</time></trkpt><trkpt lat="42.03570830688185" lon="19.499900565130552"><ele>7.0</ele><time>2026-05-03T08:40:33.999Z</time></trkpt><trkpt lat="42.03583036565116" lon="19.499784505625197"><ele>7.333333333333334</ele><time>2026-05-03T08:40:34.999Z</time></trkpt><trkpt lat="42.03595227279842" lon="19.49966832276976"><ele>7.666666666666666</ele><time>2026-05-03T08:40:35.999Z</time></trkpt><trkpt lat="42.03607921223942" lon="19.499548003620298"><ele>8.0</ele><time>2026-05-03T08:40:36.999Z</time></trkpt><trkpt lat="42.03620192241272" lon="19.49944174889035"><ele>8.5</ele><time>2026-05-03T08:40:37.999Z</time></trkpt><trkpt lat="42.036321812937096" lon="19.499342223227274"><ele>9.0</ele><time>2026-05-03T08:40:38.999Z</time></trkpt><trkpt lat="42.0364403887068" lon="19.49923697577597"><ele>9.5</ele><time>2026-05-03T08:40:39.999Z</time></trkpt><trkpt lat="42.03655563283277" lon="19.499132791404453"><ele>10.0</ele><time>2026-05-03T08:40:40.999Z</time></trkpt><trkpt lat="42.03666297346784" lon="19.49904536873738"><ele>10.0</ele><time>2026-05-03T08:40:41.999Z</time></trkpt><trkpt lat="42.036745030245505" lon="19.4989843663805"><ele>10.0</ele><time>2026-05-03T08:40:42.999Z</time></trkpt><trkpt lat="42.036823776460615" lon="19.498919363402027"><ele>10.0</ele><time>2026-05-03T08:40:43.999Z</time></trkpt><trkpt lat="42.036926716720956" lon="19.498887704274754"><ele>10.0</ele><time>2026-05-03T08:40:45.999Z</time></trkpt><trkpt lat="42.03698683875195" lon="19.49892864120123"><ele>10.0</ele><time>2026-05-03T08:40:48.999Z</time></trkpt><trkpt lat="42.037084555407866" lon="19.498825961076736"><ele>10.0</ele><time>2026-05-03T08:45:29.999Z</time></trkpt><trkpt lat="42.03710943936652" lon="19.498706794077872"><ele>10.0</ele><time>2026-05-03T08:47:33Z</time></trkpt><trkpt lat="42.03716987767835" lon="19.498581143527794"><ele>10.0</ele><time>2026-05-03T08:47:36Z</time></trkpt><trkpt lat="42.03723419735016" lon="19.498511581118052"><ele>10.0</ele><time>2026-05-03T08:47:37Z</time></trkpt><trkpt lat="42.03731278853018" lon="19.498426537366957"><ele>10.0</ele><time>2026-05-03T08:47:38Z</time></trkpt><trkpt lat="42.03739431804513" lon="19.49833753233905"><ele>10.0</ele><time>2026-05-03T08:47:39Z</time></trkpt><trkpt lat="42.03748245159351" lon="19.49825583477302"><ele>10.0</ele><time>2026-05-03T08:47:40Z</time></trkpt><trkpt lat="42.03757044653157" lon="19.498166686244623"><ele>10.0</ele><time>2026-05-03T08:47:41Z</time></trkpt><trkpt lat="42.037677756954594" lon="19.498047302045325"><ele>10.0</ele><time>2026-05-03T08:47:41.999Z</time></trkpt><trkpt lat="42.03779763045478" lon="19.49791285232043"><ele>10.0</ele><time>2026-05-03T08:47:42.999Z</time></trkpt><trkpt lat="42.03792421926924" lon="19.497777090340946"><ele>10.0</ele><time>2026-05-03T08:47:43.999Z</time></trkpt><trkpt lat="42.03804937657297" lon="19.497636369254433"><ele>10.0</ele><time>2026-05-03T08:47:44.999Z</time></trkpt><trkpt lat="42.03816747418385" lon="19.497495917404848"><ele>10.0</ele><time>2026-05-03T08:47:45.999Z</time></trkpt><trkpt lat="42.03827956338696" lon="19.49736106507636"><ele>10.0</ele><time>2026-05-03T08:47:46.999Z</time></trkpt><trkpt lat="42.03838402357749" lon="19.497229495374906"><ele>10.0</ele><time>2026-05-03T08:47:47.999Z</time></trkpt><trkpt lat="42.03848287910735" lon="19.497103790167714"><ele>10.0</ele><time>2026-05-03T08:47:48.999Z</time></trkpt><trkpt lat="42.03858244623301" lon="19.49699217772365"><ele>9.75</ele><time>2026-05-03T08:47:49.999Z</time></trkpt><trkpt lat="42.03868429278691" lon="19.496898464385502"><ele>9.5</ele><time>2026-05-03T08:47:50.999Z</time></trkpt><trkpt lat="42.03878459498595" lon="19.496817494386057"><ele>9.25</ele><time>2026-05-03T08:47:51.999Z</time></trkpt><trkpt lat="42.03887453269815" lon="19.496724713042592"><ele>9.0</ele><time>2026-05-03T08:47:52.999Z</time></trkpt><trkpt lat="42.03895382410095" lon="19.49660949174971"><ele>9.0</ele><time>2026-05-03T08:47:53.999Z</time></trkpt><trkpt lat="42.039026374534124" lon="19.49648303442078"><ele>9.0</ele><time>2026-05-03T08:47:54.999Z</time></trkpt><trkpt lat="42.039105852201814" lon="19.496353711957827"><ele>9.0</ele><time>2026-05-03T08:47:55.999Z</time></trkpt><trkpt lat="42.03919773994502" lon="19.4962273180571"><ele>9.0</ele><time>2026-05-03T08:47:56.999Z</time></trkpt><trkpt lat="42.039296018744146" lon="19.496107088033128"><ele>8.75</ele><time>2026-05-03T08:47:57.999Z</time></trkpt><trkpt lat="42.03939992626959" lon="19.495984596972075"><ele>8.5</ele><time>2026-05-03T08:47:59Z</time></trkpt><trkpt lat="42.03950596319771" lon="19.495861564037185"><ele>8.25</ele><time>2026-05-03T08:48:00Z</time></trkpt><trkpt lat="42.0396143581853" lon="19.495732088617807"><ele>8.0</ele><time>2026-05-03T08:48:01Z</time></trkpt><trkpt lat="42.039723880528925" lon="19.495598128961134"><ele>8.0</ele><time>2026-05-03T08:48:02Z</time></trkpt><trkpt lat="42.03983682397577" lon="19.495463959174998"><ele>8.0</ele><time>2026-05-03T08:48:03Z</time></trkpt><trkpt lat="42.0399490524057" lon="19.495326608786655"><ele>8.0</ele><time>2026-05-03T08:48:04Z</time></trkpt><trkpt lat="42.04006185390333" lon="19.49518619705653"><ele>8.0</ele><time>2026-05-03T08:48:05Z</time></trkpt><trkpt lat="42.04017781642432" lon="19.495039720832917"><ele>8.0</ele><time>2026-05-03T08:48:06Z</time></trkpt><trkpt lat="42.04029628639522" lon="19.4948921400601"><ele>8.0</ele><time>2026-05-03T08:48:07Z</time></trkpt><trkpt lat="42.040415085716475" lon="19.494743403793827"><ele>8.333333333333332</ele><time>2026-05-03T08:48:08Z</time></trkpt><trkpt lat="42.04053191467989" lon="19.49458621059784"><ele>8.666666666666666</ele><time>2026-05-03T08:48:09Z</time></trkpt><trkpt lat="42.04064862325477" lon="19.49441888063337"><ele>9.0</ele><time>2026-05-03T08:48:10Z</time></trkpt><trkpt lat="42.040765254732385" lon="19.49424845593698"><ele>9.0</ele><time>2026-05-03T08:48:11Z</time></trkpt><trkpt lat="42.04088435220951" lon="19.49407665280221"><ele>9.0</ele><time>2026-05-03T08:48:12Z</time></trkpt><trkpt lat="42.04100694262722" lon="19.493912545850137"><ele>9.0</ele><time>2026-05-03T08:48:13Z</time></trkpt><trkpt lat="42.041124777172755" lon="19.493756902853985"><ele>8.0</ele><time>2026-05-03T08:48:14Z</time></trkpt><trkpt lat="42.04124104500488" lon="19.49359863281795"><ele>7.0</ele><time>2026-05-03T08:48:15Z</time></trkpt><trkpt lat="42.04135069773348" lon="19.49344355276352"><ele>6.0</ele><time>2026-05-03T08:48:16Z</time></trkpt><trkpt lat="42.0414507498826" lon="19.493299061363334"><ele>6.0</ele><time>2026-05-03T08:48:17Z</time></trkpt><trkpt lat="42.04155207815341" lon="19.49315963864719"><ele>6.0</ele><time>2026-05-03T08:48:18Z</time></trkpt><trkpt lat="42.04165360301688" lon="19.493017097824502"><ele>6.0</ele><time>2026-05-03T08:48:19Z</time></trkpt><trkpt lat="42.0417516324399" lon="19.49287931508954"><ele>6.0</ele><time>2026-05-03T08:48:20Z</time></trkpt><trkpt lat="42.04184562059322" lon="19.492747901500305"><ele>6.25</ele><time>2026-05-03T08:48:21Z</time></trkpt><trkpt lat="42.041933412134945" lon="19.492621730717126"><ele>6.5</ele><time>2026-05-03T08:48:22Z</time></trkpt><trkpt lat="42.04201391761261" lon="19.492503377388406"><ele>6.75</ele><time>2026-05-03T08:48:23Z</time></trkpt><trkpt lat="42.04209159909112" lon="19.492393107174504"><ele>7.0</ele><time>2026-05-03T08:48:24Z</time></trkpt><trkpt lat="42.04216414549224" lon="19.492287322312762"><ele>7.0</ele><time>2026-05-03T08:48:24.999Z</time></trkpt><trkpt lat="42.04223149351382" lon="19.49218926287046"><ele>6.999999999999999</ele><time>2026-05-03T08:48:25.999Z</time></trkpt><trkpt lat="42.042298878542375" lon="19.492094007903695"><ele>6.999999999999999</ele><time>2026-05-03T08:48:26.999Z</time></trkpt><trkpt lat="42.04236287983469" lon="19.49200567532389"><ele>7.0</ele><time>2026-05-03T08:48:27.999Z</time></trkpt><trkpt lat="42.04242740898282" lon="19.491917564787247"><ele>7.0</ele><time>2026-05-03T08:48:28.999Z</time></trkpt><trkpt lat="42.04248660570591" lon="19.49183349082638"><ele>6.8</ele><time>2026-05-03T08:48:29.999Z</time></trkpt><trkpt lat="42.04254592067372" lon="19.491751969397775"><ele>6.6</ele><time>2026-05-03T08:48:30.999Z</time></trkpt><trkpt lat="42.04260801421465" lon="19.491672391104984"><ele>6.3999999999999995</ele><time>2026-05-03T08:48:31.999Z</time></trkpt><trkpt lat="42.04267732576709" lon="19.491588971750996"><ele>6.199999999999999</ele><time>2026-05-03T08:48:32.999Z</time></trkpt><trkpt lat="42.04275843258936" lon="19.49150679511431"><ele>6.0</ele><time>2026-05-03T08:48:33.999Z</time></trkpt><trkpt lat="42.04285364858366" lon="19.491433182195735"><ele>6.0</ele><time>2026-05-03T08:48:34.999Z</time></trkpt><trkpt lat="42.04295473747419" lon="19.491359893660384"><ele>6.0</ele><time>2026-05-03T08:48:35.999Z</time></trkpt><trkpt lat="42.04305756703613" lon="19.491284399594065"><ele>6.0</ele><time>2026-05-03T08:48:36.999Z</time></trkpt><trkpt lat="42.043157363107724" lon="19.491209604613893"><ele>6.0</ele><time>2026-05-03T08:48:37.999Z</time></trkpt><trkpt lat="42.043253071678166" lon="19.491138819524476"><ele>6.199999999999999</ele><time>2026-05-03T08:48:38.999Z</time></trkpt><trkpt lat="42.04334602160899" lon="19.49106892365948"><ele>6.3999999999999995</ele><time>2026-05-03T08:48:39.999Z</time></trkpt><trkpt lat="42.04344150508768" lon="19.49099965750286"><ele>6.6</ele><time>2026-05-03T08:48:40.999Z</time></trkpt><trkpt lat="42.043534521638016" lon="19.490932780545847"><ele>6.8</ele><time>2026-05-03T08:48:41.999Z</time></trkpt><trkpt lat="42.04362467306075" lon="19.49087385550044"><ele>7.0</ele><time>2026-05-03T08:48:42.999Z</time></trkpt><trkpt lat="42.04371577914245" lon="19.490813659188383"><ele>7.0</ele><time>2026-05-03T08:48:43.999Z</time></trkpt><trkpt lat="42.04381167137066" lon="19.490746749887045"><ele>6.999999999999999</ele><time>2026-05-03T08:48:44.999Z</time></trkpt><trkpt lat="42.043903549710585" lon="19.490674967046182"><ele>6.999999999999999</ele><time>2026-05-03T08:48:45.999Z</time></trkpt><trkpt lat="42.043999210346094" lon="19.490600354978792"><ele>7.0</ele><time>2026-05-03T08:48:46.999Z</time></trkpt><trkpt lat="42.04410013863897" lon="19.49052482350328"><ele>7.0</ele><time>2026-05-03T08:48:47.999Z</time></trkpt><trkpt lat="42.04420866997968" lon="19.49044482003168"><ele>7.5</ele><time>2026-05-03T08:48:48.999Z</time></trkpt><trkpt lat="42.04432032262715" lon="19.49036258638375"><ele>8.0</ele><time>2026-05-03T08:48:49.999Z</time></trkpt><trkpt lat="42.044428795531125" lon="19.490278976017425"><ele>8.5</ele><time>2026-05-03T08:48:50.999Z</time></trkpt><trkpt lat="42.04453233961544" lon="19.49019980857521"><ele>9.0</ele><time>2026-05-03T08:48:51.999Z</time></trkpt><trkpt lat="42.04462955600883" lon="19.490136523161826"><ele>9.0</ele><time>2026-05-03T08:48:52.999Z</time></trkpt><trkpt lat="42.04472682957967" lon="19.490088241793718"><ele>9.0</ele><time>2026-05-03T08:48:53.999Z</time></trkpt><trkpt lat="42.04481587578265" lon="19.4900485124902"><ele>9.0</ele><time>2026-05-03T08:48:54.999Z</time></trkpt><trkpt lat="42.04489443685468" lon="19.49001489864518"><ele>9.0</ele><time>2026-05-03T08:48:55.999Z</time></trkpt><trkpt lat="42.04495750509433" lon="19.489985808320245"><ele>9.0</ele><time>2026-05-03T08:48:56.999Z</time></trkpt><trkpt lat="42.045020479957735" lon="19.489965734560485"><ele>9.0</ele><time>2026-05-03T08:48:57.999Z</time></trkpt><trkpt lat="42.04509510071419" lon="19.489956282198275"><ele>8.8</ele><time>2026-05-03T08:48:58.999Z</time></trkpt><trkpt lat="42.04517755956234" lon="19.489960531755308"><ele>8.600000000000001</ele><time>2026-05-03T08:48:59.999Z</time></trkpt><trkpt lat="42.04526560728253" lon="19.489978246307974"><ele>8.4</ele><time>2026-05-03T08:49:00.999Z</time></trkpt><trkpt lat="42.0453623722815" lon="19.48999879338785"><ele>8.200000000000001</ele><time>2026-05-03T08:49:01.999Z</time></trkpt><trkpt lat="42.04547473130657" lon="19.490021113307197"><ele>8.0</ele><time>2026-05-03T08:49:02.999Z</time></trkpt><trkpt lat="42.04559490601845" lon="19.49006116885812"><ele>8.0</ele><time>2026-05-03T08:49:03.999Z</time></trkpt><trkpt lat="42.04572283715961" lon="19.490122462412458"><ele>8.0</ele><time>2026-05-03T08:49:04.999Z</time></trkpt><trkpt lat="42.04585761482148" lon="19.490188923844947"><ele>8.0</ele><time>2026-05-03T08:49:05.999Z</time></trkpt><trkpt lat="42.04600849247179" lon="19.490260191196153"><ele>8.0</ele><time>2026-05-03T08:49:06.999Z</time></trkpt><trkpt lat="42.0461635587297" lon="19.490346695275722"><ele>16.666666666666668</ele><time>2026-05-03T08:49:07.999Z</time></trkpt><trkpt lat="42.04631208332761" lon="19.490448540844838"><ele>25.333333333333336</ele><time>2026-05-03T08:49:08.999Z</time></trkpt><trkpt lat="42.04646113671804" lon="19.49056869437106"><ele>34.0</ele><time>2026-05-03T08:49:09.999Z</time></trkpt><trkpt lat="42.046607982983645" lon="19.49070330950604"><ele>26.666666666666668</ele><time>2026-05-03T08:49:10.999Z</time></trkpt><trkpt lat="42.046751998839824" lon="19.49084294606123"><ele>19.333333333333336</ele><time>2026-05-03T08:49:11.999Z</time></trkpt><trkpt lat="42.04688887597462" lon="19.490988005607175"><ele>12.0</ele><time>2026-05-03T08:49:12.999Z</time></trkpt><trkpt lat="42.04701666509006" lon="19.491130462195127"><ele>20.5</ele><time>2026-05-03T08:49:13.999Z</time></trkpt><trkpt lat="42.04713047283764" lon="19.49126049767179"><ele>29.0</ele><time>2026-05-03T08:49:14.999Z</time></trkpt><trkpt lat="42.047237021114015" lon="19.491381225694525"><ele>37.5</ele><time>2026-05-03T08:49:15.999Z</time></trkpt><trkpt lat="42.047341601497266" lon="19.491496641518175"><ele>46.0</ele><time>2026-05-03T08:49:16.999Z</time></trkpt><trkpt lat="42.04745285727222" lon="19.491604949891524"><ele>39.75</ele><time>2026-05-03T08:49:17.999Z</time></trkpt><trkpt lat="42.047569108310604" lon="19.49169727031863"><ele>33.5</ele><time>2026-05-03T08:49:18.999Z</time></trkpt><trkpt lat="42.047690492453256" lon="19.491777938132987"><ele>27.25</ele><time>2026-05-03T08:49:19.999Z</time></trkpt><trkpt lat="42.04781785600125" lon="19.491853180610267"><ele>21.0</ele><time>2026-05-03T08:49:20.999Z</time></trkpt><trkpt lat="42.047946778182514" lon="19.491929527781092"><ele>21.0</ele><time>2026-05-03T08:49:21.999Z</time></trkpt><trkpt lat="42.048066370378066" lon="19.49200388968478"><ele>21.0</ele><time>2026-05-03T08:49:22.999Z</time></trkpt><trkpt lat="42.04818099823583" lon="19.492081428656757"><ele>21.0</ele><time>2026-05-03T08:49:23.999Z</time></trkpt><trkpt lat="42.0482940900154" lon="19.4921666029169"><ele>21.0</ele><time>2026-05-03T08:49:24.999Z</time></trkpt><trkpt lat="42.04840739230641" lon="19.492259316935243"><ele>18.75</ele><time>2026-05-03T08:49:25.999Z</time></trkpt><trkpt lat="42.048518414620375" lon="19.492350102487087"><ele>16.5</ele><time>2026-05-03T08:49:26.999Z</time></trkpt><trkpt lat="42.048627820302116" lon="19.492442625477636"><ele>14.25</ele><time>2026-05-03T08:49:27.999Z</time></trkpt><trkpt lat="42.04873428814058" lon="19.492537763230978"><ele>12.0</ele><time>2026-05-03T08:49:28.999Z</time></trkpt><trkpt lat="42.04884006278759" lon="19.492630815160545"><ele>12.0</ele><time>2026-05-03T08:49:29.999Z</time></trkpt><trkpt lat="42.04894531125759" lon="19.492718373210693"><ele>12.0</ele><time>2026-05-03T08:49:30.999Z</time></trkpt><trkpt lat="42.04905323506054" lon="19.492807808424683"><ele>12.0</ele><time>2026-05-03T08:49:31.999Z</time></trkpt><trkpt lat="42.049163231653814" lon="19.4929014196542"><ele>12.0</ele><time>2026-05-03T08:49:32.999Z</time></trkpt><trkpt lat="42.049276042213506" lon="19.492997922866824"><ele>12.25</ele><time>2026-05-03T08:49:33.999Z</time></trkpt><trkpt lat="42.04939179350011" lon="19.49309439670837"><ele>12.5</ele><time>2026-05-03T08:49:34.999Z</time></trkpt><trkpt lat="42.049508604402824" lon="19.493192491422136"><ele>12.75</ele><time>2026-05-03T08:49:35.999Z</time></trkpt><trkpt lat="42.04962361779465" lon="19.493289173726513"><ele>13.0</ele><time>2026-05-03T08:49:36.999Z</time></trkpt><trkpt lat="42.04972802881443" lon="19.493378874822998"><ele>13.0</ele><time>2026-05-03T08:49:37.999Z</time></trkpt><trkpt lat="42.04982766499161" lon="19.493463589062962"><ele>13.0</ele><time>2026-05-03T08:49:38.999Z</time></trkpt><trkpt lat="42.04992094731993" lon="19.49354324316424"><ele>13.0</ele><time>2026-05-03T08:49:39.999Z</time></trkpt><trkpt lat="42.0500051344303" lon="19.49361622492935"><ele>13.0</ele><time>2026-05-03T08:49:40.999Z</time></trkpt><trkpt lat="42.05008539522791" lon="19.493690037672877"><ele>13.0</ele><time>2026-05-03T08:49:41.999Z</time></trkpt><trkpt lat="42.050163850600136" lon="19.49376113017088"><ele>11.8</ele><time>2026-05-03T08:49:42.999Z</time></trkpt><trkpt lat="42.05024175154794" lon="19.49382784381128"><ele>10.600000000000001</ele><time>2026-05-03T08:49:43.999Z</time></trkpt><trkpt lat="42.0503179563352" lon="19.493894650068214"><ele>9.399999999999999</ele><time>2026-05-03T08:49:44.999Z</time></trkpt><trkpt lat="42.05039486427694" lon="19.493971256563388"><ele>8.2</ele><time>2026-05-03T08:49:45.999Z</time></trkpt><trkpt lat="42.05048102562943" lon="19.49405485666881"><ele>7.0</ele><time>2026-05-03T08:49:46.999Z</time></trkpt><trkpt lat="42.050574176164176" lon="19.494140665722288"><ele>7.0</ele><time>2026-05-03T08:49:47.999Z</time></trkpt><trkpt lat="42.05067226457544" lon="19.49422385657997"><ele>7.0</ele><time>2026-05-03T08:49:48.999Z</time></trkpt><trkpt lat="42.05076599187683" lon="19.494304204764404"><ele>7.0</ele><time>2026-05-03T08:49:49.999Z</time></trkpt><trkpt lat="42.05085798141229" lon="19.49438932184983"><ele>7.0</ele><time>2026-05-03T08:49:50.999Z</time></trkpt><trkpt lat="42.05094864694792" lon="19.494478969719175"><ele>7.3999999999999995</ele><time>2026-05-03T08:49:51.999Z</time></trkpt><trkpt lat="42.05103692590533" lon="19.494569619397616"><ele>7.799999999999999</ele><time>2026-05-03T08:49:52.999Z</time></trkpt><trkpt lat="42.05112006689461" lon="19.49465423975643"><ele>8.2</ele><time>2026-05-03T08:49:53.999Z</time></trkpt><trkpt lat="42.051194078219545" lon="19.494737030310322"><ele>8.6</ele><time>2026-05-03T08:49:54.999Z</time></trkpt><trkpt lat="42.05127311129045" lon="19.494830760715114"><ele>9.0</ele><time>2026-05-03T08:49:55.999Z</time></trkpt><trkpt lat="42.05135930832331" lon="19.494926161704782"><ele>9.0</ele><time>2026-05-03T08:49:56.999Z</time></trkpt><trkpt lat="42.05145004212006" lon="19.49502904633804"><ele>9.0</ele><time>2026-05-03T08:49:57.999Z</time></trkpt><trkpt lat="42.05154274644395" lon="19.495137034390343"><ele>9.0</ele><time>2026-05-03T08:49:58.999Z</time></trkpt><trkpt lat="42.05163385460632" lon="19.495250915985615"><ele>9.0</ele><time>2026-05-03T08:49:59.999Z</time></trkpt><trkpt lat="42.051722963017625" lon="19.49536503379468"><ele>9.25</ele><time>2026-05-03T08:50:00.999Z</time></trkpt><trkpt lat="42.05181205461697" lon="19.495477947596886"><ele>9.5</ele><time>2026-05-03T08:50:01.999Z</time></trkpt><trkpt lat="42.05189712940975" lon="19.49559054652538"><ele>9.75</ele><time>2026-05-03T08:50:02.999Z</time></trkpt><trkpt lat="42.0519822822124" lon="19.495702924908628"><ele>10.0</ele><time>2026-05-03T08:50:03.999Z</time></trkpt><trkpt lat="42.052069062339854" lon="19.49581542150732"><ele>10.0</ele><time>2026-05-03T08:50:05Z</time></trkpt><trkpt lat="42.05215197977515" lon="19.495925098530986"><ele>10.0</ele><time>2026-05-03T08:50:06Z</time></trkpt><trkpt lat="42.052232092094556" lon="19.496035536539495"><ele>10.0</ele><time>2026-05-03T08:50:07Z</time></trkpt><trkpt lat="42.05231186090168" lon="19.496151501854357"><ele>10.0</ele><time>2026-05-03T08:50:08Z</time></trkpt><trkpt lat="42.05238728256667" lon="19.496257174358952"><ele>10.4</ele><time>2026-05-03T08:50:09Z</time></trkpt><trkpt lat="42.052474028777674" lon="19.49636824409612"><ele>10.8</ele><time>2026-05-03T08:50:10Z</time></trkpt><trkpt lat="42.05255033382214" lon="19.496480342295147"><ele>11.2</ele><time>2026-05-03T08:50:11Z</time></trkpt><trkpt lat="42.05261137609999" lon="19.496576010536607"><ele>11.6</ele><time>2026-05-03T08:50:12Z</time></trkpt><trkpt lat="42.05266456718342" lon="19.4966521994447"><ele>12.0</ele><time>2026-05-03T08:50:13Z</time></trkpt><trkpt lat="42.05272024365519" lon="19.496730422597302"><ele>12.0</ele><time>2026-05-03T08:50:14Z</time></trkpt><trkpt lat="42.052771939403776" lon="19.496814186863244"><ele>12.0</ele><time>2026-05-03T08:50:15Z</time></trkpt><trkpt lat="42.05282730017166" lon="19.496893270797287"><ele>12.0</ele><time>2026-05-03T08:50:16Z</time></trkpt><trkpt lat="42.05287584434541" lon="19.496959933907167"><ele>12.0</ele><time>2026-05-03T08:50:17Z</time></trkpt><trkpt lat="42.05294588524305" lon="19.497042154506424"><ele>12.0</ele><time>2026-05-03T08:50:21Z</time></trkpt><trkpt lat="42.05303340790323" lon="19.497160964422577"><ele>12.0</ele><time>2026-05-03T08:50:23Z</time></trkpt><trkpt lat="42.05308722088057" lon="19.497231672176145"><ele>12.0</ele><time>2026-05-03T08:50:24Z</time></trkpt><trkpt lat="42.0531568038661" lon="19.497312459940897"><ele>12.0</ele><time>2026-05-03T08:50:25Z</time></trkpt><trkpt lat="42.053236416186756" lon="19.49740853591757"><ele>12.0</ele><time>2026-05-03T08:50:26Z</time></trkpt><trkpt lat="42.053305516882105" lon="19.497506798835285"><ele>12.0</ele><time>2026-05-03T08:50:27Z</time></trkpt><trkpt lat="42.05335394431204" lon="19.497587987531134"><ele>12.0</ele><time>2026-05-03T08:50:28Z</time></trkpt><trkpt lat="42.05340841281388" lon="19.49767068119382"><ele>12.0</ele><time>2026-05-03T08:50:29Z</time></trkpt><trkpt lat="42.0534797482869" lon="19.49774977216827"><ele>12.0</ele><time>2026-05-03T08:50:30Z</time></trkpt><trkpt lat="42.05358657304231" lon="19.497887933184614"><ele>12.0</ele><time>2026-05-03T08:50:31Z</time></trkpt><trkpt lat="42.053692080066575" lon="19.498042284606967"><ele>12.0</ele><time>2026-05-03T08:50:32Z</time></trkpt><trkpt lat="42.0537651839817" lon="19.498158213179682"><ele>12.0</ele><time>2026-05-03T08:50:33Z</time></trkpt><trkpt lat="42.05382593995377" lon="19.498251398993457"><ele>12.0</ele><time>2026-05-03T08:50:34Z</time></trkpt><trkpt lat="42.053897194389" lon="19.498338442025236"><ele>12.0</ele><time>2026-05-03T08:50:35Z</time></trkpt><trkpt lat="42.053959647059784" lon="19.49844608313151"><ele>12.0</ele><time>2026-05-03T08:50:36Z</time></trkpt><trkpt lat="42.05401662332252" lon="19.49853298148181"><ele>12.0</ele><time>2026-05-03T08:50:37Z</time></trkpt><trkpt lat="42.05406025744414" lon="19.498604419028812"><ele>12.0</ele><time>2026-05-03T08:50:38Z</time></trkpt><trkpt lat="42.05411246466012" lon="19.498754877826748"><ele>11.333333333333334</ele><time>2026-05-03T08:50:40Z</time></trkpt><trkpt lat="42.05412991540303" lon="19.498838862369638"><ele>10.666666666666666</ele><time>2026-05-03T08:50:41Z</time></trkpt><trkpt lat="42.05415968582216" lon="19.49897089369882"><ele>10.0</ele><time>2026-05-03T08:50:43Z</time></trkpt><trkpt lat="42.054215883712814" lon="19.49907568226759"><ele>9.333333333333332</ele><time>2026-05-03T08:50:45Z</time></trkpt><trkpt lat="42.05428747109866" lon="19.4991501057654"><ele>8.666666666666666</ele><time>2026-05-03T08:50:46.999Z</time></trkpt><trkpt lat="42.054365379875605" lon="19.499152652771997"><ele>8.0</ele><time>2026-05-03T08:50:48.999Z</time></trkpt><trkpt lat="42.05444338724333" lon="19.499070028488696"><ele>8.0</ele><time>2026-05-03T08:50:50.999Z</time></trkpt><trkpt lat="42.05446454978733" lon="19.498936921891918"><ele>8.0</ele><time>2026-05-03T08:50:52.999Z</time></trkpt><trkpt lat="42.05448089228385" lon="19.49884605931105"><ele>8.0</ele><time>2026-05-03T08:50:55.999Z</time></trkpt><trkpt lat="42.05457231793577" lon="19.49871365791875"><ele>8.0</ele><time>2026-05-03T08:50:57.999Z</time></trkpt><trkpt lat="42.05464262863218" lon="19.498643192031153"><ele>8.0</ele><time>2026-05-03T08:50:58.999Z</time></trkpt><trkpt lat="42.05470643633125" lon="19.498590887830787"><ele>7.800000000000001</ele><time>2026-05-03T08:50:59.999Z</time></trkpt><trkpt lat="42.05477606015873" lon="19.498543267522074"><ele>7.6000000000000005</ele><time>2026-05-03T08:51:00.999Z</time></trkpt><trkpt lat="42.0548545152362" lon="19.49849872417081"><ele>7.3999999999999995</ele><time>2026-05-03T08:51:01.999Z</time></trkpt><trkpt lat="42.054947522884795" lon="19.498453352776025"><ele>7.199999999999999</ele><time>2026-05-03T08:51:02.999Z</time></trkpt><trkpt lat="42.05505256991401" lon="19.49840025463029"><ele>7.0</ele><time>2026-05-03T08:51:03.999Z</time></trkpt><trkpt lat="42.05517429985345" lon="19.498358086096673"><ele>6.333333333333334</ele><time>2026-05-03T08:51:04.999Z</time></trkpt><trkpt lat="42.05530664968721" lon="19.498316198421126"><ele>5.666666666666667</ele><time>2026-05-03T08:51:05.999Z</time></trkpt><trkpt lat="42.05546094033713" lon="19.498290563781172"><ele>5.0</ele><time>2026-05-03T08:51:06.999Z</time></trkpt><trkpt lat="42.0556231366774" lon="19.49830518495075"><ele>3.666666666666667</ele><time>2026-05-03T08:51:07.999Z</time></trkpt><trkpt lat="42.055807138093456" lon="19.498341065139435"><ele>2.3333333333333335</ele><time>2026-05-03T08:51:08.999Z</time></trkpt><trkpt lat="42.056011699870545" lon="19.498389153181204"><ele>1.0</ele><time>2026-05-03T08:51:09.999Z</time></trkpt><trkpt lat="42.056232895948725" lon="19.498433924130186"><ele>1.0</ele><time>2026-05-03T08:51:10.999Z</time></trkpt><trkpt lat="42.05644769780208" lon="19.498480671694153"><ele>1.0</ele><time>2026-05-03T08:51:11.999Z</time></trkpt><trkpt lat="42.05667619222184" lon="19.498520416783325"><ele>1.0</ele><time>2026-05-03T08:51:12.999Z</time></trkpt><trkpt lat="42.0569040333544" lon="19.49853478762265"><ele>1.0</ele><time>2026-05-03T08:51:13.999Z</time></trkpt><trkpt lat="42.05712903788004" lon="19.498531114307745"><ele>1.0</ele><time>2026-05-03T08:51:14.999Z</time></trkpt><trkpt lat="42.05735946530782" lon="19.498492625952885"><ele>1.5</ele><time>2026-05-03T08:51:15.999Z</time></trkpt><trkpt lat="42.05758700121088" lon="19.49844893602692"><ele>2.0</ele><time>2026-05-03T08:51:16.999Z</time></trkpt><trkpt lat="42.05782260767597" lon="19.498397669337958"><ele>2.0</ele><time>2026-05-03T08:51:17.999Z</time></trkpt><trkpt lat="42.05805882662878" lon="19.498329130272754"><ele>2.0</ele><time>2026-05-03T08:51:18.999Z</time></trkpt><trkpt lat="42.058302777493786" lon="19.498239150875516"><ele>1.5</ele><time>2026-05-03T08:51:19.999Z</time></trkpt><trkpt lat="42.05854578866742" lon="19.49812833748307"><ele>1.0</ele><time>2026-05-03T08:51:20.999Z</time></trkpt><trkpt lat="42.05878706478965" lon="19.497993232440464"><ele>0.5</ele><time>2026-05-03T08:51:21.999Z</time></trkpt><trkpt lat="42.0590205610728" lon="19.497832118371317"><ele>0.0</ele><time>2026-05-03T08:51:22.999Z</time></trkpt><trkpt lat="42.05924170389669" lon="19.49761973531887"><ele>1.5</ele><time>2026-05-03T08:51:23.999Z</time></trkpt><trkpt lat="42.05946513354654" lon="19.49742292550225"><ele>3.0</ele><time>2026-05-03T08:51:24.999Z</time></trkpt><trkpt lat="42.05968459838866" lon="19.497212516764503"><ele>2.5</ele><time>2026-05-03T08:51:25.999Z</time></trkpt><trkpt lat="42.05989450751306" lon="19.496992152487667"><ele>2.0</ele><time>2026-05-03T08:51:26.999Z</time></trkpt><trkpt lat="42.06009768289401" lon="19.496761658419675"><ele>2.0</ele><time>2026-05-03T08:51:27.999Z</time></trkpt><trkpt lat="42.06029001496545" lon="19.49652124585078"><ele>2.0</ele><time>2026-05-03T08:51:28.999Z</time></trkpt><trkpt lat="42.06047809771541" lon="19.496271516001542"><ele>2.5</ele><time>2026-05-03T08:51:29.999Z</time></trkpt><trkpt lat="42.06066180689756" lon="19.49601698348789"><ele>3.0</ele><time>2026-05-03T08:51:30.999Z</time></trkpt><trkpt lat="42.06084630995282" lon="19.495760259110526"><ele>3.0</ele><time>2026-05-03T08:51:31.999Z</time></trkpt><trkpt lat="42.0610257549074" lon="19.495516190694463"><ele>3.0</ele><time>2026-05-03T08:51:32.999Z</time></trkpt><trkpt lat="42.061192539075975" lon="19.49529659029452"><ele>3.0</ele><time>2026-05-03T08:51:33.999Z</time></trkpt><trkpt lat="42.0613484346791" lon="19.495083190946254"><ele>3.0</ele><time>2026-05-03T08:51:34.999Z</time></trkpt><trkpt lat="42.061496872237875" lon="19.494875048272583"><ele>3.0</ele><time>2026-05-03T08:51:35.999Z</time></trkpt><trkpt lat="42.06164809434535" lon="19.494674253982435"><ele>3.0</ele><time>2026-05-03T08:51:36.999Z</time></trkpt><trkpt lat="42.06180440180291" lon="19.49447447083618"><ele>3.0</ele><time>2026-05-03T08:51:37.999Z</time></trkpt><trkpt lat="42.06196504444528" lon="19.494264150110926"><ele>3.0</ele><time>2026-05-03T08:51:38.999Z</time></trkpt><trkpt lat="42.06213006560852" lon="19.494045164893794"><ele>3.0</ele><time>2026-05-03T08:51:39.999Z</time></trkpt><trkpt lat="42.062297814703975" lon="19.493816766308754"><ele>3.0</ele><time>2026-05-03T08:51:40.999Z</time></trkpt><trkpt lat="42.06246728123919" lon="19.493582837346942"><ele>3.0</ele><time>2026-05-03T08:51:41.999Z</time></trkpt><trkpt lat="42.06263776013438" lon="19.493347498109227"><ele>3.0</ele><time>2026-05-03T08:51:42.999Z</time></trkpt><trkpt lat="42.062814605058485" lon="19.493112251850178"><ele>3.5</ele><time>2026-05-03T08:51:43.999Z</time></trkpt><trkpt lat="42.06299784849154" lon="19.492881139391983"><ele>4.0</ele><time>2026-05-03T08:51:44.999Z</time></trkpt><trkpt lat="42.06318165890341" lon="19.492653363904626"><ele>3.5</ele><time>2026-05-03T08:51:45.999Z</time></trkpt><trkpt lat="42.0633566207466" lon="19.492424764086163"><ele>3.0</ele><time>2026-05-03T08:51:46.999Z</time></trkpt><trkpt lat="42.06352205095143" lon="19.492205673971288"><ele>3.0</ele><time>2026-05-03T08:51:47.999Z</time></trkpt><trkpt lat="42.0636850570984" lon="19.491983755214928"><ele>3.0</ele><time>2026-05-03T08:51:48.999Z</time></trkpt><trkpt lat="42.063845082173046" lon="19.491762056806273"><ele>3.0</ele><time>2026-05-03T08:51:49.999Z</time></trkpt><trkpt lat="42.06400756854208" lon="19.491538248394495"><ele>3.0</ele><time>2026-05-03T08:51:50.999Z</time></trkpt><trkpt lat="42.06417698746554" lon="19.491311768035448"><ele>2.5</ele><time>2026-05-03T08:51:51.999Z</time></trkpt><trkpt lat="42.06434533287445" lon="19.491090190496767"><ele>2.0</ele><time>2026-05-03T08:51:52.999Z</time></trkpt><trkpt lat="42.06451806938172" lon="19.49086312188479"><ele>2.0</ele><time>2026-05-03T08:51:53.999Z</time></trkpt><trkpt lat="42.06469414883126" lon="19.490644896115544"><ele>2.0</ele><time>2026-05-03T08:51:54.999Z</time></trkpt><trkpt lat="42.06487994247038" lon="19.490440690184755"><ele>3.5</ele><time>2026-05-03T08:51:55.999Z</time></trkpt><trkpt lat="42.065076413562636" lon="19.49026790874065"><ele>5.0</ele><time>2026-05-03T08:51:56.999Z</time></trkpt><trkpt lat="42.065270818103585" lon="19.490124372757325"><ele>5.0</ele><time>2026-05-03T08:51:57.999Z</time></trkpt><trkpt lat="42.065446005135655" lon="19.490028564365122"><ele>5.0</ele><time>2026-05-03T08:51:58.999Z</time></trkpt><trkpt lat="42.0655912360349" lon="19.489963888484034"><ele>5.0</ele><time>2026-05-03T08:51:59.999Z</time></trkpt><trkpt lat="42.065690117964" lon="19.489949748938944"><ele>5.0</ele><time>2026-05-03T08:52:00.999Z</time></trkpt><trkpt lat="42.06579902527713" lon="19.48997717663676"><ele>4.75</ele><time>2026-05-03T08:52:02.999Z</time></trkpt><trkpt lat="42.06589373938892" lon="19.489954219001213"><ele>4.5</ele><time>2026-05-03T08:52:04.999Z</time></trkpt><trkpt lat="42.06599710815521" lon="19.489884809477175"><ele>4.25</ele><time>2026-05-03T08:52:05.999Z</time></trkpt><trkpt lat="42.06612001063564" lon="19.489810601711827"><ele>4.0</ele><time>2026-05-03T08:52:06.999Z</time></trkpt><trkpt lat="42.066264902067566" lon="19.489755094475942"><ele>4.0</ele><time>2026-05-03T08:52:07.999Z</time></trkpt><trkpt lat="42.06642117257077" lon="19.4897061850808"><ele>4.0</ele><time>2026-05-03T08:52:08.999Z</time></trkpt><trkpt lat="42.066592290615596" lon="19.489660954267094"><ele>4.0</ele><time>2026-05-03T08:52:10Z</time></trkpt><trkpt lat="42.06678497867343" lon="19.489609573493283"><ele>4.0</ele><time>2026-05-03T08:52:11Z</time></trkpt><trkpt lat="42.06697662931766" lon="19.489556020239085"><ele>4.0</ele><time>2026-05-03T08:52:12Z</time></trkpt><trkpt lat="42.067178487791715" lon="19.489496322937708"><ele>4.0</ele><time>2026-05-03T08:52:13Z</time></trkpt><trkpt lat="42.06739329901844" lon="19.48944475331738"><ele>4.0</ele><time>2026-05-03T08:52:14Z</time></trkpt><trkpt lat="42.067619462485055" lon="19.489404097003376"><ele>4.0</ele><time>2026-05-03T08:52:15Z</time></trkpt><trkpt lat="42.06784682666578" lon="19.48937766811427"><ele>4.0</ele><time>2026-05-03T08:52:16Z</time></trkpt><trkpt lat="42.06807837992475" lon="19.489367898218507"><ele>4.0</ele><time>2026-05-03T08:52:17Z</time></trkpt><trkpt lat="42.06831849565116" lon="19.489368820629092"><ele>5.0</ele><time>2026-05-03T08:52:18Z</time></trkpt><trkpt lat="42.06855999597191" lon="19.489371423310853"><ele>6.0</ele><time>2026-05-03T08:52:19Z</time></trkpt><trkpt lat="42.06880721771568" lon="19.48937897792792"><ele>6.0</ele><time>2026-05-03T08:52:20Z</time></trkpt><trkpt lat="42.069055114208695" lon="19.489387516130165"><ele>6.0</ele><time>2026-05-03T08:52:21Z</time></trkpt><trkpt lat="42.069306722841745" lon="19.489397905488364"><ele>5.0</ele><time>2026-05-03T08:52:22Z</time></trkpt><trkpt lat="42.069559194617874" lon="19.489410613542717"><ele>4.0</ele><time>2026-05-03T08:52:23Z</time></trkpt><trkpt lat="42.06981191921069" lon="19.489421384368555"><ele>4.0</ele><time>2026-05-03T08:52:24Z</time></trkpt><trkpt lat="42.070066064875604" lon="19.4894318177913"><ele>4.0</ele><time>2026-05-03T08:52:25Z</time></trkpt><trkpt lat="42.07031606844693" lon="19.48943959905867"><ele>4.0</ele><time>2026-05-03T08:52:26Z</time></trkpt><trkpt lat="42.07054662200317" lon="19.48944982032607"><ele>4.0</ele><time>2026-05-03T08:52:27Z</time></trkpt><trkpt lat="42.07076857473752" lon="19.489458176977575"><ele>4.333333333333333</ele><time>2026-05-03T08:52:28Z</time></trkpt><trkpt lat="42.07098685171083" lon="19.489466565730513"><ele>4.666666666666667</ele><time>2026-05-03T08:52:29Z</time></trkpt><trkpt lat="42.07119989528971" lon="19.489476850847684"><ele>5.0</ele><time>2026-05-03T08:52:30Z</time></trkpt><trkpt lat="42.07140658461663" lon="19.489485489506627"><ele>5.333333333333334</ele><time>2026-05-03T08:52:31Z</time></trkpt><trkpt lat="42.07161135818726" lon="19.489492775096004"><ele>5.666666666666667</ele><time>2026-05-03T08:52:32Z</time></trkpt><trkpt lat="42.07181666168635" lon="19.48950416726466"><ele>6.0</ele><time>2026-05-03T08:52:33Z</time></trkpt><trkpt lat="42.07202404887738" lon="19.48952002013025"><ele>6.0</ele><time>2026-05-03T08:52:34Z</time></trkpt><trkpt lat="42.072229433153346" lon="19.48955076342623"><ele>6.0</ele><time>2026-05-03T08:52:35Z</time></trkpt><trkpt lat="42.07244011332814" lon="19.4895772022984"><ele>6.0</ele><time>2026-05-03T08:52:36Z</time></trkpt><trkpt lat="42.072645674601375" lon="19.48960516312673"><ele>6.0</ele><time>2026-05-03T08:52:37Z</time></trkpt><trkpt lat="42.072852224038975" lon="19.489634250874225"><ele>6.0</ele><time>2026-05-03T08:52:38Z</time></trkpt><trkpt lat="42.07305595930114" lon="19.489670870720243"><ele>6.0</ele><time>2026-05-03T08:52:39Z</time></trkpt><trkpt lat="42.07325643336529" lon="19.489725190958616"><ele>6.333333333333334</ele><time>2026-05-03T08:52:40Z</time></trkpt><trkpt lat="42.0734543040799" lon="19.48979535134886"><ele>6.666666666666667</ele><time>2026-05-03T08:52:41Z</time></trkpt><trkpt lat="42.07364677824267" lon="19.48987406305811"><ele>7.0</ele><time>2026-05-03T08:52:42Z</time></trkpt><trkpt lat="42.073836481535956" lon="19.489960867721095"><ele>7.0</ele><time>2026-05-03T08:52:43Z</time></trkpt><trkpt lat="42.07401461371794" lon="19.490053080035125"><ele>7.0</ele><time>2026-05-03T08:52:44Z</time></trkpt><trkpt lat="42.074190025577686" lon="19.49014827469597"><ele>7.0</ele><time>2026-05-03T08:52:45Z</time></trkpt><trkpt lat="42.074362509636664" lon="19.490232546998783"><ele>6.666666666666667</ele><time>2026-05-03T08:52:46Z</time></trkpt><trkpt lat="42.07453746656632" lon="19.49031404144471"><ele>6.333333333333334</ele><time>2026-05-03T08:52:47Z</time></trkpt><trkpt lat="42.07470803823683" lon="19.490398654005364"><ele>6.0</ele><time>2026-05-03T08:52:48Z</time></trkpt><trkpt lat="42.07487853699382" lon="19.49048451268895"><ele>6.666666666666666</ele><time>2026-05-03T08:52:49Z</time></trkpt><trkpt lat="42.075049985493315" lon="19.49057199121818"><ele>7.333333333333333</ele><time>2026-05-03T08:52:50Z</time></trkpt><trkpt lat="42.07522531101411" lon="19.490661013495835"><ele>8.0</ele><time>2026-05-03T08:52:51Z</time></trkpt><trkpt lat="42.07540340948912" lon="19.490743528220253"><ele>8.0</ele><time>2026-05-03T08:52:52Z</time></trkpt><trkpt lat="42.075583726990494" lon="19.49082472753526"><ele>8.0</ele><time>2026-05-03T08:52:53Z</time></trkpt><trkpt lat="42.07576475108865" lon="19.490909982614383"><ele>8.0</ele><time>2026-05-03T08:52:54Z</time></trkpt><trkpt lat="42.07594482344735" lon="19.491004343487802"><ele>7.333333333333333</ele><time>2026-05-03T08:52:55Z</time></trkpt><trkpt lat="42.07612547707262" lon="19.491092997775823"><ele>6.666666666666666</ele><time>2026-05-03T08:52:56Z</time></trkpt><trkpt lat="42.076298600605526" lon="19.491178523283885"><ele>6.0</ele><time>2026-05-03T08:52:57Z</time></trkpt><trkpt lat="42.07646768924265" lon="19.491265706616026"><ele>5.666666666666667</ele><time>2026-05-03T08:52:58Z</time></trkpt><trkpt lat="42.076636836224935" lon="19.491351489112667"><ele>5.333333333333334</ele><time>2026-05-03T08:52:59Z</time></trkpt><trkpt lat="42.0768033440043" lon="19.491437052524475"><ele>5.0</ele><time>2026-05-03T08:53:00Z</time></trkpt><trkpt lat="42.076973624063655" lon="19.491519714057578"><ele>5.0</ele><time>2026-05-03T08:53:01Z</time></trkpt><trkpt lat="42.07713717007523" lon="19.491594852859386"><ele>5.0</ele><time>2026-05-03T08:53:02Z</time></trkpt><trkpt lat="42.077288776100545" lon="19.491666076671187"><ele>5.0</ele><time>2026-05-03T08:53:03Z</time></trkpt><trkpt lat="42.077425335990135" lon="19.49173134194137"><ele>5.8</ele><time>2026-05-03T08:53:04Z</time></trkpt><trkpt lat="42.077546821493456" lon="19.49179592880149"><ele>6.6</ele><time>2026-05-03T08:53:05Z</time></trkpt><trkpt lat="42.077648458685786" lon="19.491848690279806"><ele>7.4</ele><time>2026-05-03T08:53:06Z</time></trkpt><trkpt lat="42.0777321392643" lon="19.491894768919263"><ele>8.2</ele><time>2026-05-03T08:53:07Z</time></trkpt><trkpt lat="42.07780652027532" lon="19.49195467901338"><ele>9.0</ele><time>2026-05-03T08:53:08Z</time></trkpt><trkpt lat="42.07787402913974" lon="19.492025627493355"><ele>9.0</ele><time>2026-05-03T08:53:09Z</time></trkpt><trkpt lat="42.077946276615364" lon="19.49208059399252"><ele>9.0</ele><time>2026-05-03T08:53:10Z</time></trkpt><trkpt lat="42.07802314862048" lon="19.492094908149355"><ele>9.0</ele><time>2026-05-03T08:53:11Z</time></trkpt><trkpt lat="42.078113243986884" lon="19.49208889583578"><ele>9.0</ele><time>2026-05-03T08:53:12Z</time></trkpt><trkpt lat="42.078207006252725" lon="19.492098238307232"><ele>9.0</ele><time>2026-05-03T08:53:13Z</time></trkpt><trkpt lat="42.07830212261708" lon="19.49214049711861"><ele>9.0</ele><time>2026-05-03T08:53:14Z</time></trkpt><trkpt lat="42.07839967862974" lon="19.49219681618943"><ele>9.0</ele><time>2026-05-03T08:53:15Z</time></trkpt><trkpt lat="42.0785096761782" lon="19.49224227718051"><ele>9.0</ele><time>2026-05-03T08:53:16Z</time></trkpt><trkpt lat="42.078627375305864" lon="19.492271306127588"><ele>9.0</ele><time>2026-05-03T08:53:17Z</time></trkpt><trkpt lat="42.078748050886624" lon="19.492289560925297"><ele>9.0</ele><time>2026-05-03T08:53:18Z</time></trkpt><trkpt lat="42.078873457263576" lon="19.49230794075815"><ele>9.0</ele><time>2026-05-03T08:53:19Z</time></trkpt><trkpt lat="42.07900372631037" lon="19.492317545084816"><ele>9.0</ele><time>2026-05-03T08:53:20Z</time></trkpt><trkpt lat="42.079145591968256" lon="19.49232159814378"><ele>9.0</ele><time>2026-05-03T08:53:21Z</time></trkpt><trkpt lat="42.07929395504131" lon="19.4923275551815"><ele>9.0</ele><time>2026-05-03T08:53:22Z</time></trkpt><trkpt lat="42.079445224558135" lon="19.492334668569217"><ele>9.0</ele><time>2026-05-03T08:53:23Z</time></trkpt><trkpt lat="42.079601318031415" lon="19.49233818130738"><ele>9.0</ele><time>2026-05-03T08:53:24Z</time></trkpt><trkpt lat="42.07976058310467" lon="19.492342850235154"><ele>9.0</ele><time>2026-05-03T08:53:25Z</time></trkpt><trkpt lat="42.0799157063288" lon="19.492358015809977"><ele>8.0</ele><time>2026-05-03T08:53:26Z</time></trkpt><trkpt lat="42.08005966946234" lon="19.492384649654507"><ele>7.0</ele><time>2026-05-03T08:53:27Z</time></trkpt><trkpt lat="42.08018925706308" lon="19.492415335364218"><ele>6.0</ele><time>2026-05-03T08:53:28Z</time></trkpt><trkpt lat="42.0803058907675" lon="19.49244061623071"><ele>5.0</ele><time>2026-05-03T08:53:29Z</time></trkpt><trkpt lat="42.080409052677645" lon="19.49246189612478"><ele>5.0</ele><time>2026-05-03T08:53:30Z</time></trkpt><trkpt lat="42.08050438200451" lon="19.49249391553082"><ele>5.0</ele><time>2026-05-03T08:53:30.999Z</time></trkpt><trkpt lat="42.08059880545637" lon="19.492531321316758"><ele>5.0</ele><time>2026-05-03T08:53:31.999Z</time></trkpt><trkpt lat="42.080695259462196" lon="19.49256926846559"><ele>5.0</ele><time>2026-05-03T08:53:32.999Z</time></trkpt><trkpt lat="42.08080351856589" lon="19.49261516443825"><ele>5.0</ele><time>2026-05-03T08:53:33.999Z</time></trkpt><trkpt lat="42.08091897611304" lon="19.492671795946677"><ele>5.25</ele><time>2026-05-03T08:53:34.999Z</time></trkpt><trkpt lat="42.08103695591104" lon="19.492749193517923"><ele>5.5</ele><time>2026-05-03T08:53:35.999Z</time></trkpt><trkpt lat="42.08115801192008" lon="19.492843012079657"><ele>5.75</ele><time>2026-05-03T08:53:36.999Z</time></trkpt><trkpt lat="42.08127773335852" lon="19.49294734209356"><ele>6.0</ele><time>2026-05-03T08:53:37.999Z</time></trkpt><trkpt lat="42.08139228179497" lon="19.493073957464745"><ele>6.0</ele><time>2026-05-03T08:53:38.999Z</time></trkpt><trkpt lat="42.081504585043454" lon="19.49321839373084"><ele>6.0</ele><time>2026-05-03T08:53:39.999Z</time></trkpt><trkpt lat="42.08161309487688" lon="19.493382716172018"><ele>6.0</ele><time>2026-05-03T08:53:40.999Z</time></trkpt><trkpt lat="42.08171447373196" lon="19.493562877182175"><ele>6.333333333333334</ele><time>2026-05-03T08:53:41.999Z</time></trkpt><trkpt lat="42.081812977208045" lon="19.49375609836374"><ele>6.666666666666667</ele><time>2026-05-03T08:53:42.999Z</time></trkpt><trkpt lat="42.0819092979604" lon="19.493961933776735"><ele>7.0</ele><time>2026-05-03T08:53:43.999Z</time></trkpt><trkpt lat="42.08201318773933" lon="19.49416963637773"><ele>7.0</ele><time>2026-05-03T08:53:44.999Z</time></trkpt><trkpt lat="42.0821259107663" lon="19.49437573601289"><ele>7.0</ele><time>2026-05-03T08:53:45.999Z</time></trkpt><trkpt lat="42.08224350626961" lon="19.49458358850183"><ele>7.0</ele><time>2026-05-03T08:53:46.999Z</time></trkpt><trkpt lat="42.0823667501511" lon="19.494800430014998"><ele>8.333333333333334</ele><time>2026-05-03T08:53:47.999Z</time></trkpt><trkpt lat="42.08249605234773" lon="19.495018517542494"><ele>9.666666666666666</ele><time>2026-05-03T08:53:48.999Z</time></trkpt><trkpt lat="42.082636424572854" lon="19.4952391300757"><ele>11.0</ele><time>2026-05-03T08:53:49.999Z</time></trkpt><trkpt lat="42.082779380611434" lon="19.495467824871856"><ele>11.666666666666666</ele><time>2026-05-03T08:53:50.999Z</time></trkpt><trkpt lat="42.082914663896446" lon="19.495710998018843"><ele>12.333333333333332</ele><time>2026-05-03T08:53:51.999Z</time></trkpt><trkpt lat="42.083046680754784" lon="19.49595419585889"><ele>13.0</ele><time>2026-05-03T08:53:52.999Z</time></trkpt><trkpt lat="42.083160880660735" lon="19.496226349994092"><ele>10.0</ele><time>2026-05-03T08:53:53.999Z</time></trkpt><trkpt lat="42.08326437990209" lon="19.49650554321358"><ele>7.0</ele><time>2026-05-03T08:53:54.999Z</time></trkpt><trkpt lat="42.083351405842286" lon="19.49680707154739"><ele>8.0</ele><time>2026-05-03T08:53:55.999Z</time></trkpt><trkpt lat="42.08341996366462" lon="19.49711790065404"><ele>9.0</ele><time>2026-05-03T08:53:56.999Z</time></trkpt><trkpt lat="42.083477512287494" lon="19.49744223416463"><ele>9.0</ele><time>2026-05-03T08:53:57.999Z</time></trkpt><trkpt lat="42.083536488500506" lon="19.49776491736559"><ele>9.0</ele><time>2026-05-03T08:53:58.999Z</time></trkpt><trkpt lat="42.08359969338428" lon="19.49808555180675"><ele>7.5</ele><time>2026-05-03T08:53:59.999Z</time></trkpt><trkpt lat="42.08365628505104" lon="19.498395520831817"><ele>6.0</ele><time>2026-05-03T08:54:00.999Z</time></trkpt><trkpt lat="42.083709600952666" lon="19.498684397230015"><ele>6.666666666666666</ele><time>2026-05-03T08:54:01.999Z</time></trkpt><trkpt lat="42.083765624691424" lon="19.498946496292255"><ele>7.333333333333333</ele><time>2026-05-03T08:54:02.999Z</time></trkpt><trkpt lat="42.08381869211689" lon="19.499178420124164"><ele>8.0</ele><time>2026-05-03T08:54:03.999Z</time></trkpt><trkpt lat="42.083861852188406" lon="19.499404101005066"><ele>8.333333333333332</ele><time>2026-05-03T08:54:04.999Z</time></trkpt><trkpt lat="42.083900933965396" lon="19.499623079898434"><ele>8.666666666666666</ele><time>2026-05-03T08:54:05.999Z</time></trkpt><trkpt lat="42.083944466078144" lon="19.499849744975727"><ele>9.0</ele><time>2026-05-03T08:54:06.999Z</time></trkpt><trkpt lat="42.08398398804325" lon="19.50007418005014"><ele>9.0</ele><time>2026-05-03T08:54:07.999Z</time></trkpt><trkpt lat="42.084027602336825" lon="19.500316479351866"><ele>9.0</ele><time>2026-05-03T08:54:08.999Z</time></trkpt><trkpt lat="42.084078855784014" lon="19.500556218690388"><ele>9.0</ele><time>2026-05-03T08:54:09.999Z</time></trkpt><trkpt lat="42.08412962147665" lon="19.5007986572317"><ele>9.0</ele><time>2026-05-03T08:54:10.999Z</time></trkpt><trkpt lat="42.08417882802537" lon="19.501043989777237"><ele>9.0</ele><time>2026-05-03T08:54:11.999Z</time></trkpt><trkpt lat="42.08423160439409" lon="19.501303647809838"><ele>9.0</ele><time>2026-05-03T08:54:12.999Z</time></trkpt><trkpt lat="42.084282403251386" lon="19.501562096789424"><ele>9.0</ele><time>2026-05-03T08:54:13.999Z</time></trkpt><trkpt lat="42.08434053988907" lon="19.501823082333342"><ele>9.0</ele><time>2026-05-03T08:54:14.999Z</time></trkpt><trkpt lat="42.08443038463521" lon="19.502073714745872"><ele>9.0</ele><time>2026-05-03T08:54:16Z</time></trkpt><trkpt lat="42.0845279088011" lon="19.502316097842204"><ele>8.666666666666666</ele><time>2026-05-03T08:54:17Z</time></trkpt><trkpt lat="42.084640225978376" lon="19.50254756757437"><ele>8.333333333333332</ele><time>2026-05-03T08:54:18Z</time></trkpt><trkpt lat="42.08476247253418" lon="19.50276572198036"><ele>8.0</ele><time>2026-05-03T08:54:19Z</time></trkpt><trkpt lat="42.08489495473007" lon="19.502963467681624"><ele>8.333333333333332</ele><time>2026-05-03T08:54:20Z</time></trkpt><trkpt lat="42.08503204070212" lon="19.503138810703092"><ele>8.666666666666666</ele><time>2026-05-03T08:54:21Z</time></trkpt><trkpt lat="42.085172418115015" lon="19.50329616257082"><ele>9.0</ele><time>2026-05-03T08:54:22Z</time></trkpt><trkpt lat="42.08531631415059" lon="19.50343478455429"><ele>9.0</ele><time>2026-05-03T08:54:23Z</time></trkpt><trkpt lat="42.085467216067606" lon="19.503561956474684"><ele>9.0</ele><time>2026-05-03T08:54:24Z</time></trkpt><trkpt lat="42.085626139081704" lon="19.503674214695874"><ele>9.0</ele><time>2026-05-03T08:54:25Z</time></trkpt><trkpt lat="42.08580127778184" lon="19.50378363971211"><ele>10.666666666666668</ele><time>2026-05-03T08:54:26Z</time></trkpt><trkpt lat="42.08598751488629" lon="19.503903952228576"><ele>12.333333333333334</ele><time>2026-05-03T08:54:27Z</time></trkpt><trkpt lat="42.0861830128799" lon="19.50403410468036"><ele>14.0</ele><time>2026-05-03T08:54:28Z</time></trkpt><trkpt lat="42.08638256038078" lon="19.504169656662675"><ele>14.0</ele><time>2026-05-03T08:54:29Z</time></trkpt><trkpt lat="42.086585563365546" lon="19.504302901201324"><ele>14.0</ele><time>2026-05-03T08:54:30Z</time></trkpt><trkpt lat="42.08679596364306" lon="19.504440689743525"><ele>12.0</ele><time>2026-05-03T08:54:31Z</time></trkpt><trkpt lat="42.087009080292255" lon="19.504582439228475"><ele>10.0</ele><time>2026-05-03T08:54:32Z</time></trkpt><trkpt lat="42.087211051937345" lon="19.5047213596506"><ele>10.0</ele><time>2026-05-03T08:54:33Z</time></trkpt><trkpt lat="42.08739659156785" lon="19.504848816745586"><ele>10.0</ele><time>2026-05-03T08:54:34Z</time></trkpt><trkpt lat="42.08757176426202" lon="19.50496888817557"><ele>10.0</ele><time>2026-05-03T08:54:35Z</time></trkpt><trkpt lat="42.08773944096734" lon="19.505080455628324"><ele>10.333333333333334</ele><time>2026-05-03T08:54:36Z</time></trkpt><trkpt lat="42.08789610816151" lon="19.505188031677474"><ele>10.666666666666666</ele><time>2026-05-03T08:54:37Z</time></trkpt><trkpt lat="42.08805053920013" lon="19.50530508819863"><ele>11.0</ele><time>2026-05-03T08:54:38Z</time></trkpt><trkpt lat="42.08820516064648" lon="19.505449669520704"><ele>10.666666666666666</ele><time>2026-05-03T08:54:39Z</time></trkpt><trkpt lat="42.08836635704869" lon="19.505633635566692"><ele>10.333333333333334</ele><time>2026-05-03T08:54:40Z</time></trkpt><trkpt lat="42.08852585565387" lon="19.505853323353268"><ele>10.0</ele><time>2026-05-03T08:54:41Z</time></trkpt><trkpt lat="42.088678364417355" lon="19.50607805349572"><ele>10.333333333333334</ele><time>2026-05-03T08:54:42Z</time></trkpt><trkpt lat="42.08881055307184" lon="19.50629011637046"><ele>10.666666666666666</ele><time>2026-05-03T08:54:43Z</time></trkpt><trkpt lat="42.088912212327905" lon="19.506477381502574"><ele>11.0</ele><time>2026-05-03T08:54:44Z</time></trkpt><trkpt lat="42.08900295973975" lon="19.50664044745865"><ele>11.0</ele><time>2026-05-03T08:54:45Z</time></trkpt><trkpt lat="42.08906582431767" lon="19.50676921854481"><ele>11.0</ele><time>2026-05-03T08:54:46Z</time></trkpt><trkpt lat="42.08909969689037" lon="19.50685901558676"><ele>11.0</ele><time>2026-05-03T08:54:47Z</time></trkpt><trkpt lat="42.08911811797632" lon="19.506955291394938"><ele>11.0</ele><time>2026-05-03T08:54:49Z</time></trkpt><trkpt lat="42.08912734355014" lon="19.507064370862114"><ele>11.0</ele><time>2026-05-03T08:54:53Z</time></trkpt><trkpt lat="42.089115825161166" lon="19.507174108847142"><ele>11.0</ele><time>2026-05-03T08:54:57Z</time></trkpt><trkpt lat="42.08908241708932" lon="19.50731487825553"><ele>11.333333333333332</ele><time>2026-05-03T08:54:59Z</time></trkpt><trkpt lat="42.08907809731451" lon="19.507403771324018"><ele>11.666666666666666</ele><time>2026-05-03T08:55:00Z</time></trkpt><trkpt lat="42.0890918111343" lon="19.507525455045027"><ele>12.0</ele><time>2026-05-03T08:55:02Z</time></trkpt><trkpt lat="42.08913262004175" lon="19.50763275709556"><ele>12.333333333333332</ele><time>2026-05-03T08:55:05Z</time></trkpt><trkpt lat="42.08925881446997" lon="19.507695057021202"><ele>12.666666666666666</ele><time>2026-05-03T08:55:07Z</time></trkpt><trkpt lat="42.08932528963149" lon="19.50768420922847"><ele>13.0</ele><time>2026-05-03T08:55:08Z</time></trkpt><trkpt lat="42.0894235188883" lon="19.507595593912058"><ele>13.0</ele><time>2026-05-03T08:55:10Z</time></trkpt><trkpt lat="42.08946614114259" lon="19.507524674792343"><ele>13.0</ele><time>2026-05-03T08:55:11Z</time></trkpt><trkpt lat="42.08949239888135" lon="19.507446694217105"><ele>13.0</ele><time>2026-05-03T08:55:12Z</time></trkpt><trkpt lat="42.08948410082463" lon="19.50728205932776"><ele>13.0</ele><time>2026-05-03T08:55:14Z</time></trkpt><trkpt lat="42.0894044630894" lon="19.50717600393129"><ele>13.0</ele><time>2026-05-03T08:55:16Z</time></trkpt><trkpt lat="42.08931111208338" lon="19.507132971331863"><ele>13.0</ele><time>2026-05-03T08:55:18Z</time></trkpt><trkpt lat="42.089215418054785" lon="19.507146007285275"><ele>13.0</ele><time>2026-05-03T08:55:20Z</time></trkpt><trkpt lat="42.08915990343115" lon="19.5071905019787"><ele>13.0</ele><time>2026-05-03T08:55:21Z</time></trkpt><trkpt lat="42.08909190033686" lon="19.507261343930946"><ele>13.0</ele><time>2026-05-03T08:55:22Z</time></trkpt><trkpt lat="42.089006469542674" lon="19.507345549976222"><ele>13.0</ele><time>2026-05-03T08:55:23Z</time></trkpt><trkpt lat="42.0889127986068" lon="19.507412829570455"><ele>13.2</ele><time>2026-05-03T08:55:24Z</time></trkpt><trkpt lat="42.08881329482853" lon="19.507459091890986"><ele>13.4</ele><time>2026-05-03T08:55:25Z</time></trkpt><trkpt lat="42.088706424487086" lon="19.507504296497114"><ele>13.599999999999998</ele><time>2026-05-03T08:55:26Z</time></trkpt><trkpt lat="42.088602248429495" lon="19.507557061083507"><ele>13.799999999999999</ele><time>2026-05-03T08:55:27Z</time></trkpt><trkpt lat="42.08851239338944" lon="19.50761919529192"><ele>14.0</ele><time>2026-05-03T08:55:28Z</time></trkpt><trkpt lat="42.08842392810472" lon="19.50769292202109"><ele>14.0</ele><time>2026-05-03T08:55:29Z</time></trkpt><trkpt lat="42.08833710587331" lon="19.50776892557272"><ele>13.999999999999998</ele><time>2026-05-03T08:55:30Z</time></trkpt><trkpt lat="42.08824923638161" lon="19.50784684948521"><ele>13.999999999999998</ele><time>2026-05-03T08:55:31Z</time></trkpt><trkpt lat="42.08816265446214" lon="19.50792112427837"><ele>14.0</ele><time>2026-05-03T08:55:32Z</time></trkpt><trkpt lat="42.08807490558075" lon="19.507995151474507"><ele>14.0</ele><time>2026-05-03T08:55:33Z</time></trkpt><trkpt lat="42.08798163482057" lon="19.508065564986495"><ele>13.75</ele><time>2026-05-03T08:55:34Z</time></trkpt><trkpt lat="42.08787902695529" lon="19.508139538786047"><ele>13.5</ele><time>2026-05-03T08:55:35Z</time></trkpt><trkpt lat="42.08777541862243" lon="19.50821173195192"><ele>13.25</ele><time>2026-05-03T08:55:36Z</time></trkpt><trkpt lat="42.087675459798334" lon="19.508273001895823"><ele>13.0</ele><time>2026-05-03T08:55:37Z</time></trkpt><trkpt lat="42.087574110312126" lon="19.508331269173524"><ele>13.0</ele><time>2026-05-03T08:55:38Z</time></trkpt><trkpt lat="42.0874626100219" lon="19.508381457553828"><ele>13.0</ele><time>2026-05-03T08:55:39Z</time></trkpt><trkpt lat="42.08734923637727" lon="19.508426268476164"><ele>13.0</ele><time>2026-05-03T08:55:40Z</time></trkpt><trkpt lat="42.08723487379641" lon="19.508463071477294"><ele>13.0</ele><time>2026-05-03T08:55:41Z</time></trkpt><trkpt lat="42.08711076871312" lon="19.508491433102307"><ele>13.333333333333332</ele><time>2026-05-03T08:55:42Z</time></trkpt><trkpt lat="42.086967878339394" lon="19.508502348234764"><ele>13.666666666666668</ele><time>2026-05-03T08:55:43Z</time></trkpt><trkpt lat="42.08681528689262" lon="19.50850517941678"><ele>14.0</ele><time>2026-05-03T08:55:44Z</time></trkpt><trkpt lat="42.086656893061935" lon="19.508528097490817"><ele>13.75</ele><time>2026-05-03T08:55:45Z</time></trkpt><trkpt lat="42.08650909854704" lon="19.508569976505463"><ele>13.5</ele><time>2026-05-03T08:55:46Z</time></trkpt><trkpt lat="42.08637069160193" lon="19.508627310435667"><ele>13.25</ele><time>2026-05-03T08:55:47Z</time></trkpt><trkpt lat="42.08623093714146" lon="19.50868747558212"><ele>13.0</ele><time>2026-05-03T08:55:48Z</time></trkpt><trkpt lat="42.086094820961016" lon="19.508753695345103"><ele>13.333333333333332</ele><time>2026-05-03T08:55:49Z</time></trkpt><trkpt lat="42.085957893305626" lon="19.508830115412035"><ele>13.666666666666668</ele><time>2026-05-03T08:55:50Z</time></trkpt><trkpt lat="42.08582050687974" lon="19.508917815488736"><ele>14.0</ele><time>2026-05-03T08:55:51Z</time></trkpt><trkpt lat="42.08568497761746" lon="19.50901432540701"><ele>14.0</ele><time>2026-05-03T08:55:52Z</time></trkpt><trkpt lat="42.08555075039748" lon="19.509113329818266"><ele>14.0</ele><time>2026-05-03T08:55:53Z</time></trkpt><trkpt lat="42.08541727241578" lon="19.509207564267545"><ele>14.0</ele><time>2026-05-03T08:55:54Z</time></trkpt><trkpt lat="42.085281202018855" lon="19.509303104364022"><ele>14.0</ele><time>2026-05-03T08:55:55Z</time></trkpt><trkpt lat="42.08514565595788" lon="19.509398057612955"><ele>14.0</ele><time>2026-05-03T08:55:56Z</time></trkpt><trkpt lat="42.085012365005475" lon="19.50949142105308"><ele>14.0</ele><time>2026-05-03T08:55:57Z</time></trkpt><trkpt lat="42.08488594669528" lon="19.50957717700934"><ele>14.0</ele><time>2026-05-03T08:55:58Z</time></trkpt><trkpt lat="42.084766566110794" lon="19.509651883219234"><ele>14.5</ele><time>2026-05-03T08:55:59Z</time></trkpt><trkpt lat="42.08465357767292" lon="19.509717251400655"><ele>15.0</ele><time>2026-05-03T08:56:00Z</time></trkpt><trkpt lat="42.084544013712474" lon="19.5097743724512"><ele>15.5</ele><time>2026-05-03T08:56:01Z</time></trkpt><trkpt lat="42.08443617067089" lon="19.509820541756344"><ele>16.0</ele><time>2026-05-03T08:56:02Z</time></trkpt><trkpt lat="42.08433118430046" lon="19.509857778094243"><ele>16.0</ele><time>2026-05-03T08:56:03Z</time></trkpt><trkpt lat="42.08422547489851" lon="19.50989409541823"><ele>16.0</ele><time>2026-05-03T08:56:04Z</time></trkpt><trkpt lat="42.08411723296411" lon="19.509931348055822"><ele>16.0</ele><time>2026-05-03T08:56:05Z</time></trkpt><trkpt lat="42.08400368475723" lon="19.509971793336685"><ele>16.0</ele><time>2026-05-03T08:56:06Z</time></trkpt><trkpt lat="42.083887342874526" lon="19.51001216123118"><ele>14.75</ele><time>2026-05-03T08:56:07Z</time></trkpt><trkpt lat="42.0837692746829" lon="19.510049972781736"><ele>13.5</ele><time>2026-05-03T08:56:08Z</time></trkpt><trkpt lat="42.0836453602362" lon="19.510080954300154"><ele>12.25</ele><time>2026-05-03T08:56:09Z</time></trkpt><trkpt lat="42.08351579220745" lon="19.51010997377004"><ele>11.0</ele><time>2026-05-03T08:56:10Z</time></trkpt><trkpt lat="42.08338258956789" lon="19.510139183420748"><ele>11.75</ele><time>2026-05-03T08:56:11Z</time></trkpt><trkpt lat="42.08325089918899" lon="19.510170045180715"><ele>12.5</ele><time>2026-05-03T08:56:12Z</time></trkpt><trkpt lat="42.083117714254115" lon="19.51020383682315"><ele>13.25</ele><time>2026-05-03T08:56:13Z</time></trkpt><trkpt lat="42.08299565685757" lon="19.510236477268386"><ele>14.0</ele><time>2026-05-03T08:56:14Z</time></trkpt><trkpt lat="42.08288394133021" lon="19.510281686757082"><ele>14.0</ele><time>2026-05-03T08:56:15Z</time></trkpt><trkpt lat="42.08278099956077" lon="19.510348095043387"><ele>14.0</ele><time>2026-05-03T08:56:16Z</time></trkpt><trkpt lat="42.0826901000311" lon="19.510443070849437"><ele>14.0</ele><time>2026-05-03T08:56:16.999Z</time></trkpt><trkpt lat="42.08260310522694" lon="19.510557163528066"><ele>14.0</ele><time>2026-05-03T08:56:17.999Z</time></trkpt><trkpt lat="42.08251582939903" lon="19.51066812550249"><ele>14.0</ele><time>2026-05-03T08:56:18.999Z</time></trkpt><trkpt lat="42.08243723255742" lon="19.51077286021542"><ele>14.0</ele><time>2026-05-03T08:56:19.999Z</time></trkpt><trkpt lat="42.082358166354645" lon="19.51088127091196"><ele>14.0</ele><time>2026-05-03T08:56:20.999Z</time></trkpt><trkpt lat="42.08227283398177" lon="19.51099768413566"><ele>14.0</ele><time>2026-05-03T08:56:22.001Z</time></trkpt><trkpt lat="42.08218575238249" lon="19.51111333623758"><ele>13.5</ele><time>2026-05-03T08:56:23.001Z</time></trkpt><trkpt lat="42.08208791972676" lon="19.511234459123123"><ele>13.0</ele><time>2026-05-03T08:56:24.001Z</time></trkpt><trkpt lat="42.08197311779577" lon="19.511364765628365"><ele>12.5</ele><time>2026-05-03T08:56:25.001Z</time></trkpt><trkpt lat="42.08185172213979" lon="19.511494845804297"><ele>12.0</ele><time>2026-05-03T08:56:26.001Z</time></trkpt><trkpt lat="42.08172320505123" lon="19.511628702478635"><ele>12.333333333333332</ele><time>2026-05-03T08:56:27.001Z</time></trkpt><trkpt lat="42.08159530150793" lon="19.511765563515294"><ele>12.666666666666666</ele><time>2026-05-03T08:56:28.001Z</time></trkpt><trkpt lat="42.08146420177194" lon="19.51190863802094"><ele>13.0</ele><time>2026-05-03T08:56:29.001Z</time></trkpt><trkpt lat="42.08134347758718" lon="19.51204518663984"><ele>12.666666666666666</ele><time>2026-05-03T08:56:30.001Z</time></trkpt><trkpt lat="42.081225953865" lon="19.512179005151356"><ele>12.333333333333332</ele><time>2026-05-03T08:56:31Z</time></trkpt><trkpt lat="42.081104109559966" lon="19.51230611931891"><ele>12.0</ele><time>2026-05-03T08:56:32Z</time></trkpt><trkpt lat="42.08098550045981" lon="19.512422497160905"><ele>12.0</ele><time>2026-05-03T08:56:33Z</time></trkpt><trkpt lat="42.08087756930111" lon="19.512532100909297"><ele>12.0</ele><time>2026-05-03T08:56:34Z</time></trkpt><trkpt lat="42.08078040658053" lon="19.512637484449588"><ele>12.0</ele><time>2026-05-03T08:56:35Z</time></trkpt><trkpt lat="42.08068934855725" lon="19.512740858475315"><ele>12.0</ele><time>2026-05-03T08:56:36Z</time></trkpt><trkpt lat="42.08060302833059" lon="19.512837830730057"><ele>12.6</ele><time>2026-05-03T08:56:37Z</time></trkpt><trkpt lat="42.080527408397145" lon="19.512922025698888"><ele>13.2</ele><time>2026-05-03T08:56:38Z</time></trkpt><trkpt lat="42.08045125234111" lon="19.513005628514996"><ele>13.8</ele><time>2026-05-03T08:56:39Z</time></trkpt><trkpt lat="42.08037736248656" lon="19.513085452323605"><ele>14.4</ele><time>2026-05-03T08:56:40Z</time></trkpt><trkpt lat="42.08030484380774" lon="19.513166077111478"><ele>15.0</ele><time>2026-05-03T08:56:41Z</time></trkpt><trkpt lat="42.08022575541527" lon="19.513244239640436"><ele>15.0</ele><time>2026-05-03T08:56:42Z</time></trkpt><trkpt lat="42.08015269390345" lon="19.513312178068713"><ele>15.0</ele><time>2026-05-03T08:56:43Z</time></trkpt><trkpt lat="42.08009129549592" lon="19.513370600437018"><ele>15.0</ele><time>2026-05-03T08:56:43.999Z</time></trkpt><trkpt lat="42.080041420758015" lon="19.513426109117777"><ele>15.0</ele><time>2026-05-03T08:56:44.999Z</time></trkpt><trkpt lat="42.07995453546637" lon="19.51352625371097"><ele>15.0</ele><time>2026-05-03T08:56:46.999Z</time></trkpt><trkpt lat="42.07985652296097" lon="19.513622871943358"><ele>15.5</ele><time>2026-05-03T08:56:48.999Z</time></trkpt><trkpt lat="42.07980004801716" lon="19.513690429067097"><ele>16.0</ele><time>2026-05-03T08:56:49.999Z</time></trkpt><trkpt lat="42.079739391105896" lon="19.513774710809777"><ele>16.5</ele><time>2026-05-03T08:56:50.999Z</time></trkpt><trkpt lat="42.07966337740679" lon="19.513852934375905"><ele>17.0</ele><time>2026-05-03T08:56:51.999Z</time></trkpt><trkpt lat="42.07959004825206" lon="19.51391764238758"><ele>17.5</ele><time>2026-05-03T08:56:52.999Z</time></trkpt><trkpt lat="42.07952069705588" lon="19.513991706768415"><ele>18.0</ele><time>2026-05-03T08:56:53.999Z</time></trkpt><trkpt lat="42.07946834188797" lon="19.514053144941716"><ele>18.0</ele><time>2026-05-03T08:56:54.999Z</time></trkpt><trkpt lat="42.079388989540305" lon="19.51414520988817"><ele>18.0</ele><time>2026-05-03T08:56:56.999Z</time></trkpt><trkpt lat="42.07929330543713" lon="19.51426641452853"><ele>18.0</ele><time>2026-05-03T08:56:58.999Z</time></trkpt><trkpt lat="42.079228848744215" lon="19.514339549113075"><ele>18.0</ele><time>2026-05-03T08:56:59.999Z</time></trkpt><trkpt lat="42.07914782220362" lon="19.51441117028825"><ele>18.0</ele><time>2026-05-03T08:57:00.999Z</time></trkpt><trkpt lat="42.07908315676441" lon="19.51446858256014"><ele>17.666666666666668</ele><time>2026-05-03T08:57:01.999Z</time></trkpt><trkpt lat="42.07901586971429" lon="19.51452968224925"><ele>17.333333333333332</ele><time>2026-05-03T08:57:03.999Z</time></trkpt><trkpt lat="42.07893592462463" lon="19.514623256198828"><ele>17.0</ele><time>2026-05-03T08:57:09.999Z</time></trkpt><trkpt lat="42.07888166634513" lon="19.514669307764663"><ele>16.666666666666664</ele><time>2026-05-03T08:57:10.999Z</time></trkpt><trkpt lat="42.07881958657184" lon="19.514699383866937"><ele>16.333333333333332</ele><time>2026-05-03T08:57:11.999Z</time></trkpt><trkpt lat="42.07870255313518" lon="19.514731108365073"><ele>16.0</ele><time>2026-05-03T08:57:13.999Z</time></trkpt><trkpt lat="42.078584034252785" lon="19.514759194108105"><ele>15.999999999999998</ele><time>2026-05-03T08:57:15.999Z</time></trkpt><trkpt lat="42.078474125624204" lon="19.514785721673537"><ele>16.0</ele><time>2026-05-03T08:57:17.999Z</time></trkpt><trkpt lat="42.07836780859609" lon="19.51481341794869"><ele>16.0</ele><time>2026-05-03T08:57:19.999Z</time></trkpt><trkpt lat="42.078298766256985" lon="19.514829270378055"><ele>16.0</ele><time>2026-05-03T08:57:21.999Z</time></trkpt><trkpt lat="42.07823545730351" lon="19.51484257658587"><ele>15.999999999999998</ele><time>2026-05-03T08:57:23.999Z</time></trkpt><trkpt lat="42.078169650178886" lon="19.514874065585694"><ele>16.0</ele><time>2026-05-03T08:57:25.999Z</time></trkpt><trkpt lat="42.078121327265976" lon="19.51494678156681"><ele>16.0</ele><time>2026-05-03T08:57:27.999Z</time></trkpt><trkpt lat="42.07811620740621" lon="19.515064791447294"><ele>16.0</ele><time>2026-05-03T08:57:29.999Z</time></trkpt><trkpt lat="42.078159789455285" lon="19.515153064403272"><ele>16.0</ele><time>2026-05-03T08:57:31.999Z</time></trkpt><trkpt lat="42.07823183491746" lon="19.51526498251579"><ele>16.0</ele><time>2026-05-03T08:57:33.999Z</time></trkpt><trkpt lat="42.07827662640887" lon="19.515401655091807"><ele>16.0</ele><time>2026-05-03T08:57:35.999Z</time></trkpt><trkpt lat="42.078324624802974" lon="19.51554907918037"><ele>16.400000000000002</ele><time>2026-05-03T08:57:37.999Z</time></trkpt><trkpt lat="42.078345650176914" lon="19.515655095467626"><ele>16.8</ele><time>2026-05-03T08:57:38.999Z</time></trkpt><trkpt lat="42.07836259296502" lon="19.515788845414967"><ele>17.200000000000003</ele><time>2026-05-03T08:57:39.999Z</time></trkpt><trkpt lat="42.0783876011046" lon="19.51591597342293"><ele>17.6</ele><time>2026-05-03T08:57:40.999Z</time></trkpt><trkpt lat="42.07841808151024" lon="19.5160662012833"><ele>18.0</ele><time>2026-05-03T08:57:41.999Z</time></trkpt><trkpt lat="42.07844596156815" lon="19.516213410385717"><ele>17.75</ele><time>2026-05-03T08:57:42.999Z</time></trkpt><trkpt lat="42.078472282754284" lon="19.51637072722321"><ele>17.5</ele><time>2026-05-03T08:57:43.999Z</time></trkpt><trkpt lat="42.078502830042" lon="19.51653666599355"><ele>17.25</ele><time>2026-05-03T08:57:44.999Z</time></trkpt><trkpt lat="42.078535472571005" lon="19.516702746045258"><ele>17.0</ele><time>2026-05-03T08:57:45.999Z</time></trkpt><trkpt lat="42.078570673490695" lon="19.51687568124971"><ele>17.0</ele><time>2026-05-03T08:57:46.999Z</time></trkpt><trkpt lat="42.07860966106873" lon="19.5170514589694"><ele>17.0</ele><time>2026-05-03T08:57:47.999Z</time></trkpt><trkpt lat="42.07864871307332" lon="19.517228209632588"><ele>17.0</ele><time>2026-05-03T08:57:48.999Z</time></trkpt><trkpt lat="42.07868389827643" lon="19.51740743090249"><ele>17.0</ele><time>2026-05-03T08:57:49.999Z</time></trkpt><trkpt lat="42.07871711792396" lon="19.517590649641658"><ele>17.25</ele><time>2026-05-03T08:57:50.999Z</time></trkpt><trkpt lat="42.07874843316061" lon="19.51777126114444"><ele>17.5</ele><time>2026-05-03T08:57:51.999Z</time></trkpt><trkpt lat="42.07878048490016" lon="19.517950626373388"><ele>17.75</ele><time>2026-05-03T08:57:52.999Z</time></trkpt><trkpt lat="42.07881610661921" lon="19.518126334157134"><ele>18.0</ele><time>2026-05-03T08:57:53.999Z</time></trkpt><trkpt lat="42.07885689521492" lon="19.51829917832767"><ele>18.0</ele><time>2026-05-03T08:57:54.999Z</time></trkpt><trkpt lat="42.07889800498638" lon="19.518472274825598"><ele>18.0</ele><time>2026-05-03T08:57:55.999Z</time></trkpt><trkpt lat="42.078938662003644" lon="19.51864317084445"><ele>18.0</ele><time>2026-05-03T08:57:56.999Z</time></trkpt><trkpt lat="42.07897532001836" lon="19.518805930665156"><ele>18.0</ele><time>2026-05-03T08:57:57.999Z</time></trkpt><trkpt lat="42.07900878037788" lon="19.518952474508147"><ele>18.0</ele><time>2026-05-03T08:57:58.999Z</time></trkpt><trkpt lat="42.07904042627648" lon="19.51909485073441"><ele>18.0</ele><time>2026-05-03T08:57:59.999Z</time></trkpt><trkpt lat="42.0790645220305" lon="19.519232815371346"><ele>18.0</ele><time>2026-05-03T08:58:00.999Z</time></trkpt><trkpt lat="42.07907697735604" lon="19.519366598872956"><ele>18.0</ele><time>2026-05-03T08:58:01.999Z</time></trkpt><trkpt lat="42.07908338051863" lon="19.519514019331503"><ele>18.0</ele><time>2026-05-03T08:58:02.999Z</time></trkpt><trkpt lat="42.07908026917904" lon="19.519671988444625"><ele>18.5</ele><time>2026-05-03T08:58:03.999Z</time></trkpt><trkpt lat="42.07907012408979" lon="19.51984012003555"><ele>19.0</ele><time>2026-05-03T08:58:04.999Z</time></trkpt><trkpt lat="42.07905014128587" lon="19.520016276931553"><ele>19.5</ele><time>2026-05-03T08:58:05.999Z</time></trkpt><trkpt lat="42.079021452193835" lon="19.52020519458276"><ele>20.0</ele><time>2026-05-03T08:58:06.999Z</time></trkpt><trkpt lat="42.07898857419699" lon="19.520398655621285"><ele>20.5</ele><time>2026-05-03T08:58:07.999Z</time></trkpt><trkpt lat="42.078958069528035" lon="19.520588092765813"><ele>21.0</ele><time>2026-05-03T08:58:08.999Z</time></trkpt><trkpt lat="42.07893330334308" lon="19.520761541985486"><ele>21.5</ele><time>2026-05-03T08:58:09.999Z</time></trkpt><trkpt lat="42.07890915507798" lon="19.520923138986547"><ele>22.0</ele><time>2026-05-03T08:58:10.999Z</time></trkpt><trkpt lat="42.07888059963325" lon="19.52109368766347"><ele>21.5</ele><time>2026-05-03T08:58:11.999Z</time></trkpt><trkpt lat="42.07885267578558" lon="19.52127066169439"><ele>21.0</ele><time>2026-05-03T08:58:12.999Z</time></trkpt><trkpt lat="42.07882572076643" lon="19.521450900777758"><ele>20.5</ele><time>2026-05-03T08:58:13.999Z</time></trkpt><trkpt lat="42.07880473912994" lon="19.521598096936128"><ele>20.0</ele><time>2026-05-03T08:58:14.999Z</time></trkpt><trkpt lat="42.07878050461898" lon="19.521708790602684"><ele>20.0</ele><time>2026-05-03T08:58:15.999Z</time></trkpt><trkpt lat="42.07874336933272" lon="19.521806069249664"><ele>20.0</ele><time>2026-05-03T08:58:16.999Z</time></trkpt><trkpt lat="42.07868601693708" lon="19.521905045067857"><ele>20.0</ele><time>2026-05-03T08:58:17.999Z</time></trkpt><trkpt lat="42.078621194576456" lon="19.521996763214027"><ele>20.0</ele><time>2026-05-03T08:58:18.999Z</time></trkpt><trkpt lat="42.07857612719515" lon="19.522090622224194"><ele>20.0</ele><time>2026-05-03T08:58:19.999Z</time></trkpt><trkpt lat="42.078558218060344" lon="19.52217812219016"><ele>20.0</ele><time>2026-05-03T08:58:20.999Z</time></trkpt><trkpt lat="42.0785701106767" lon="19.52227133021894"><ele>19.8</ele><time>2026-05-03T08:58:23.999Z</time></trkpt><trkpt lat="42.078634144189344" lon="19.522376621878806"><ele>19.6</ele><time>2026-05-03T08:58:28Z</time></trkpt><trkpt lat="42.078765556226166" lon="19.522435928511783"><ele>19.4</ele><time>2026-05-03T08:58:30Z</time></trkpt><trkpt lat="42.0788476830196" lon="19.522492368306757"><ele>19.2</ele><time>2026-05-03T08:58:31Z</time></trkpt><trkpt lat="42.07892104981391" lon="19.52257830737605"><ele>19.0</ele><time>2026-05-03T08:58:32Z</time></trkpt><trkpt lat="42.078984885491515" lon="19.522671093656374"><ele>19.0</ele><time>2026-05-03T08:58:33Z</time></trkpt><trkpt lat="42.079053734026395" lon="19.52276335345624"><ele>19.0</ele><time>2026-05-03T08:58:34Z</time></trkpt><trkpt lat="42.07912315560415" lon="19.522859217628746"><ele>19.0</ele><time>2026-05-03T08:58:35Z</time></trkpt><trkpt lat="42.07919173147077" lon="19.52295798674353"><ele>19.0</ele><time>2026-05-03T08:58:36Z</time></trkpt><trkpt lat="42.07925839760343" lon="19.523049240973826"><ele>19.0</ele><time>2026-05-03T08:58:37Z</time></trkpt><trkpt lat="42.079325314178895" lon="19.523137018182936"><ele>19.2</ele><time>2026-05-03T08:58:38Z</time></trkpt><trkpt lat="42.07939289099051" lon="19.523224356322796"><ele>19.4</ele><time>2026-05-03T08:58:39Z</time></trkpt><trkpt lat="42.079455061041955" lon="19.523309189354652"><ele>19.6</ele><time>2026-05-03T08:58:40Z</time></trkpt><trkpt lat="42.079519470779324" lon="19.523389601041377"><ele>19.8</ele><time>2026-05-03T08:58:41Z</time></trkpt><trkpt lat="42.079588573358" lon="19.523472226477583"><ele>20.0</ele><time>2026-05-03T08:58:42Z</time></trkpt><trkpt lat="42.07966312898727" lon="19.52355678465164"><ele>20.0</ele><time>2026-05-03T08:58:43Z</time></trkpt><trkpt lat="42.07974085874558" lon="19.523645881325166"><ele>20.0</ele><time>2026-05-03T08:58:44Z</time></trkpt><trkpt lat="42.07982888760503" lon="19.523737452908065"><ele>20.0</ele><time>2026-05-03T08:58:45Z</time></trkpt><trkpt lat="42.079924193016424" lon="19.523844401580586"><ele>20.0</ele><time>2026-05-03T08:58:46Z</time></trkpt><trkpt lat="42.08001797084599" lon="19.52396434222192"><ele>20.75</ele><time>2026-05-03T08:58:47Z</time></trkpt><trkpt lat="42.08010928432129" lon="19.52408348478752"><ele>21.5</ele><time>2026-05-03T08:58:48Z</time></trkpt><trkpt lat="42.08020281948455" lon="19.524199088088466"><ele>22.25</ele><time>2026-05-03T08:58:49Z</time></trkpt><trkpt lat="42.08029468898873" lon="19.52430690498695"><ele>23.0</ele><time>2026-05-03T08:58:50Z</time></trkpt><trkpt lat="42.08037524843379" lon="19.524402299440027"><ele>23.0</ele><time>2026-05-03T08:58:51Z</time></trkpt><trkpt lat="42.08044718926746" lon="19.5244915759354"><ele>23.0</ele><time>2026-05-03T08:58:52Z</time></trkpt><trkpt lat="42.08050913288577" lon="19.524570834498775"><ele>23.0</ele><time>2026-05-03T08:58:53Z</time></trkpt><trkpt lat="42.08057469904221" lon="19.524652733585686"><ele>23.0</ele><time>2026-05-03T08:58:54Z</time></trkpt><trkpt lat="42.08064864234036" lon="19.524740053859155"><ele>23.0</ele><time>2026-05-03T08:58:55Z</time></trkpt><trkpt lat="42.08072900932509" lon="19.52482821633804"><ele>22.75</ele><time>2026-05-03T08:58:56Z</time></trkpt><trkpt lat="42.080824907081585" lon="19.524923277306158"><ele>22.5</ele><time>2026-05-03T08:58:57Z</time></trkpt><trkpt lat="42.080925983152355" lon="19.52502799399916"><ele>22.25</ele><time>2026-05-03T08:58:58Z</time></trkpt><trkpt lat="42.081035259133536" lon="19.525154702320705"><ele>22.0</ele><time>2026-05-03T08:58:59Z</time></trkpt><trkpt lat="42.08115780113704" lon="19.525311559722343"><ele>21.666666666666664</ele><time>2026-05-03T08:59:00Z</time></trkpt><trkpt lat="42.081276948031466" lon="19.525478416697226"><ele>21.333333333333332</ele><time>2026-05-03T08:59:01Z</time></trkpt><trkpt lat="42.08140716576886" lon="19.525643645463386"><ele>21.0</ele><time>2026-05-03T08:59:02Z</time></trkpt><trkpt lat="42.081545680708835" lon="19.525798832306094"><ele>21.0</ele><time>2026-05-03T08:59:03Z</time></trkpt><trkpt lat="42.08168254716323" lon="19.525953485758784"><ele>21.0</ele><time>2026-05-03T08:59:04Z</time></trkpt><trkpt lat="42.081813931857425" lon="19.52610880508054"><ele>21.0</ele><time>2026-05-03T08:59:05Z</time></trkpt><trkpt lat="42.08194066778605" lon="19.526266328368404"><ele>21.0</ele><time>2026-05-03T08:59:06Z</time></trkpt><trkpt lat="42.08207282613804" lon="19.52643257613866"><ele>21.0</ele><time>2026-05-03T08:59:07Z</time></trkpt><trkpt lat="42.08219881181528" lon="19.52659352891302"><ele>21.0</ele><time>2026-05-03T08:59:08Z</time></trkpt><trkpt lat="42.082326085119156" lon="19.526754415447893"><ele>21.666666666666668</ele><time>2026-05-03T08:59:09Z</time></trkpt><trkpt lat="42.08244987680544" lon="19.52691329925131"><ele>22.333333333333336</ele><time>2026-05-03T08:59:10Z</time></trkpt><trkpt lat="42.08256341790562" lon="19.527062577232318"><ele>23.0</ele><time>2026-05-03T08:59:11Z</time></trkpt><trkpt lat="42.082673762218334" lon="19.527205438035484"><ele>23.0</ele><time>2026-05-03T08:59:12Z</time></trkpt><trkpt lat="42.082784002047866" lon="19.5273461656535"><ele>23.0</ele><time>2026-05-03T08:59:13Z</time></trkpt><trkpt lat="42.082895846462904" lon="19.52748863290009"><ele>23.0</ele><time>2026-05-03T08:59:14Z</time></trkpt><trkpt lat="42.08300891328709" lon="19.52763354921489"><ele>23.0</ele><time>2026-05-03T08:59:15Z</time></trkpt><trkpt lat="42.08311618228611" lon="19.52777401866182"><ele>23.0</ele><time>2026-05-03T08:59:16Z</time></trkpt><trkpt lat="42.083219127979454" lon="19.527906041449967"><ele>23.0</ele><time>2026-05-03T08:59:17Z</time></trkpt><trkpt lat="42.083320358532774" lon="19.528036025220462"><ele>23.0</ele><time>2026-05-03T08:59:18Z</time></trkpt><trkpt lat="42.083416185363824" lon="19.528161325988183"><ele>23.0</ele><time>2026-05-03T08:59:19Z</time></trkpt><trkpt lat="42.08350069678428" lon="19.528273515705123"><ele>23.0</ele><time>2026-05-03T08:59:20Z</time></trkpt><trkpt lat="42.083579886486106" lon="19.528380384651776"><ele>23.0</ele><time>2026-05-03T08:59:21Z</time></trkpt><trkpt lat="42.08365902488351" lon="19.52848343290519"><ele>23.0</ele><time>2026-05-03T08:59:22Z</time></trkpt><trkpt lat="42.08374848506093" lon="19.52859225454054"><ele>23.0</ele><time>2026-05-03T08:59:23Z</time></trkpt><trkpt lat="42.08383894793415" lon="19.52870388283634"><ele>23.0</ele><time>2026-05-03T08:59:23.999Z</time></trkpt><trkpt lat="42.08392911619179" lon="19.5288194946329"><ele>23.0</ele><time>2026-05-03T08:59:24.999Z</time></trkpt><trkpt lat="42.08401784877942" lon="19.52893027847164"><ele>23.0</ele><time>2026-05-03T08:59:25.999Z</time></trkpt><trkpt lat="42.08409827724655" lon="19.529030207443025"><ele>23.25</ele><time>2026-05-03T08:59:26.999Z</time></trkpt><trkpt lat="42.084169130731674" lon="19.52911852990022"><ele>23.5</ele><time>2026-05-03T08:59:27.999Z</time></trkpt><trkpt lat="42.084254254573835" lon="19.529224193132446"><ele>23.75</ele><time>2026-05-03T08:59:28.999Z</time></trkpt><trkpt lat="42.084361146101685" lon="19.529358829764366"><ele>24.0</ele><time>2026-05-03T08:59:29.999Z</time></trkpt><trkpt lat="42.08447539842222" lon="19.529511124549998"><ele>23.666666666666668</ele><time>2026-05-03T08:59:30.999Z</time></trkpt><trkpt lat="42.08459356489702" lon="19.52967825061728"><ele>23.333333333333336</ele><time>2026-05-03T08:59:31.999Z</time></trkpt><trkpt lat="42.08470648663662" lon="19.52983402574023"><ele>23.0</ele><time>2026-05-03T08:59:32.999Z</time></trkpt><trkpt lat="42.08481227776761" lon="19.52996642339605"><ele>23.0</ele><time>2026-05-03T08:59:33.999Z</time></trkpt><trkpt lat="42.084907075759844" lon="19.53008596210565"><ele>23.0</ele><time>2026-05-03T08:59:34.999Z</time></trkpt><trkpt lat="42.08498794357585" lon="19.53019492061533"><ele>23.0</ele><time>2026-05-03T08:59:35.999Z</time></trkpt><trkpt lat="42.085050845768706" lon="19.53028845132819"><ele>23.0</ele><time>2026-05-03T08:59:36.999Z</time></trkpt><trkpt lat="42.08510627330608" lon="19.53039517336263"><ele>23.0</ele><time>2026-05-03T08:59:38.999Z</time></trkpt><trkpt lat="42.085175288740594" lon="19.53051433187072"><ele>23.5</ele><time>2026-05-03T08:59:42.999Z</time></trkpt><trkpt lat="42.08525312101778" lon="19.53054562731333"><ele>24.0</ele><time>2026-05-03T08:59:43.999Z</time></trkpt><trkpt lat="42.08533915458548" lon="19.53055953242765"><ele>24.5</ele><time>2026-05-03T08:59:44.999Z</time></trkpt><trkpt lat="42.08540893748121" lon="19.53056576413713"><ele>25.0</ele><time>2026-05-03T08:59:45.999Z</time></trkpt><trkpt lat="42.085477122383274" lon="19.530575927099235"><ele>25.499999999999996</ele><time>2026-05-03T08:59:46.999Z</time></trkpt><trkpt lat="42.08556324941593" lon="19.530589310258556"><ele>26.0</ele><time>2026-05-03T08:59:47.999Z</time></trkpt><trkpt lat="42.08568994697824" lon="19.5306123230139"><ele>25.666666666666664</ele><time>2026-05-03T08:59:48.999Z</time></trkpt><trkpt lat="42.08584468680484" lon="19.530656571325803"><ele>25.333333333333336</ele><time>2026-05-03T08:59:49.999Z</time></trkpt><trkpt lat="42.085992601042484" lon="19.530701078045798"><ele>25.0</ele><time>2026-05-03T08:59:50.999Z</time></trkpt><trkpt lat="42.08615750571655" lon="19.530753664742043"><ele>25.0</ele><time>2026-05-03T08:59:51.999Z</time></trkpt><trkpt lat="42.0863233895703" lon="19.530786294821645"><ele>25.0</ele><time>2026-05-03T08:59:52.999Z</time></trkpt><trkpt lat="42.08648662757631" lon="19.53081910545278"><ele>25.0</ele><time>2026-05-03T08:59:53.999Z</time></trkpt><trkpt lat="42.08665070727248" lon="19.530875098890284"><ele>24.666666666666668</ele><time>2026-05-03T08:59:54.999Z</time></trkpt><trkpt lat="42.0868028064906" lon="19.53095494792615"><ele>24.333333333333336</ele><time>2026-05-03T08:59:55.999Z</time></trkpt><trkpt lat="42.086954995604835" lon="19.531055208230942"><ele>24.0</ele><time>2026-05-03T08:59:56.999Z</time></trkpt><trkpt lat="42.087095957612156" lon="19.531156290584796"><ele>24.333333333333336</ele><time>2026-05-03T08:59:57.999Z</time></trkpt><trkpt lat="42.08723397835645" lon="19.531250400362776"><ele>24.666666666666668</ele><time>2026-05-03T08:59:58.999Z</time></trkpt><trkpt lat="42.08736807248856" lon="19.531344998825396"><ele>25.0</ele><time>2026-05-03T08:59:59.999Z</time></trkpt><trkpt lat="42.087502197657386" lon="19.531436446977494"><ele>24.25</ele><time>2026-05-03T09:00:00.999Z</time></trkpt><trkpt lat="42.087633769009074" lon="19.53152205141952"><ele>23.5</ele><time>2026-05-03T09:00:01.999Z</time></trkpt><trkpt lat="42.087760309946184" lon="19.53160419670525"><ele>22.75</ele><time>2026-05-03T09:00:02.999Z</time></trkpt><trkpt lat="42.087878864143875" lon="19.531688486057103"><ele>22.0</ele><time>2026-05-03T09:00:03.999Z</time></trkpt><trkpt lat="42.087994190749896" lon="19.53176762979996"><ele>22.0</ele><time>2026-05-03T09:00:04.999Z</time></trkpt><trkpt lat="42.08809193474889" lon="19.531830752501765"><ele>22.0</ele><time>2026-05-03T09:00:05.999Z</time></trkpt><trkpt lat="42.08818680356224" lon="19.53188753673579"><ele>22.0</ele><time>2026-05-03T09:00:06.999Z</time></trkpt><trkpt lat="42.088277903921835" lon="19.53195451692455"><ele>22.0</ele><time>2026-05-03T09:00:07.999Z</time></trkpt><trkpt lat="42.08836433501899" lon="19.53202445513707"><ele>22.0</ele><time>2026-05-03T09:00:08.999Z</time></trkpt><trkpt lat="42.088444499989" lon="19.53208871321053"><ele>22.400000000000002</ele><time>2026-05-03T09:00:09.999Z</time></trkpt><trkpt lat="42.088506475401346" lon="19.532135073941138"><ele>22.8</ele><time>2026-05-03T09:00:10.999Z</time></trkpt><trkpt lat="42.088601865637195" lon="19.532205657969325"><ele>23.2</ele><time>2026-05-03T09:00:12.999Z</time></trkpt><trkpt lat="42.08869923512844" lon="19.532279532248555"><ele>23.6</ele><time>2026-05-03T09:00:14.999Z</time></trkpt><trkpt lat="42.08879218678447" lon="19.532356536230473"><ele>24.0</ele><time>2026-05-03T09:00:16.999Z</time></trkpt><trkpt lat="42.088883528602786" lon="19.53242153316214"><ele>24.0</ele><time>2026-05-03T09:00:18.999Z</time></trkpt><trkpt lat="42.08900210367273" lon="19.532487476443134"><ele>24.0</ele><time>2026-05-03T09:00:20.999Z</time></trkpt><trkpt lat="42.0890939634765" lon="19.532540982025104"><ele>24.0</ele><time>2026-05-03T09:00:21.999Z</time></trkpt><trkpt lat="42.08919061269823" lon="19.532606195755253"><ele>24.0</ele><time>2026-05-03T09:00:22.999Z</time></trkpt><trkpt lat="42.089286366688825" lon="19.532680121102942"><ele>24.0</ele><time>2026-05-03T09:00:23.999Z</time></trkpt><trkpt lat="42.08937141268651" lon="19.532744699173854"><ele>24.2</ele><time>2026-05-03T09:00:24.999Z</time></trkpt><trkpt lat="42.08945750163318" lon="19.532815226863022"><ele>24.4</ele><time>2026-05-03T09:00:25.999Z</time></trkpt><trkpt lat="42.08954697648161" lon="19.532892248670294"><ele>24.6</ele><time>2026-05-03T09:00:26.999Z</time></trkpt><trkpt lat="42.08963519611321" lon="19.532973367720427"><ele>24.8</ele><time>2026-05-03T09:00:27.999Z</time></trkpt><trkpt lat="42.08971986857424" lon="19.533043868867093"><ele>25.0</ele><time>2026-05-03T09:00:28.999Z</time></trkpt><trkpt lat="42.089807795208365" lon="19.53311046055486"><ele>25.5</ele><time>2026-05-03T09:00:29.999Z</time></trkpt><trkpt lat="42.089906424564774" lon="19.5331804064915"><ele>26.0</ele><time>2026-05-03T09:00:30.999Z</time></trkpt><trkpt lat="42.09001843130884" lon="19.533256417432668"><ele>26.5</ele><time>2026-05-03T09:00:31.999Z</time></trkpt><trkpt lat="42.09014142084259" lon="19.533338217753517"><ele>27.0</ele><time>2026-05-03T09:00:33Z</time></trkpt><trkpt lat="42.09026864620089" lon="19.53342616510276"><ele>27.0</ele><time>2026-05-03T09:00:34Z</time></trkpt><trkpt lat="42.09040672358577" lon="19.53353008078261"><ele>27.0</ele><time>2026-05-03T09:00:35Z</time></trkpt><trkpt lat="42.090551439333666" lon="19.533645974694284"><ele>27.0</ele><time>2026-05-03T09:00:36Z</time></trkpt><trkpt lat="42.09069181598618" lon="19.533754543064703"><ele>27.75</ele><time>2026-05-03T09:00:37Z</time></trkpt><trkpt lat="42.0908306579532" lon="19.53385842861103"><ele>28.5</ele><time>2026-05-03T09:00:38Z</time></trkpt><trkpt lat="42.09095078644201" lon="19.533945190799013"><ele>29.25</ele><time>2026-05-03T09:00:39Z</time></trkpt><trkpt lat="42.09104309178226" lon="19.534012919202873"><ele>30.0</ele><time>2026-05-03T09:00:40Z</time></trkpt><trkpt lat="42.09110024167781" lon="19.53405251827532"><ele>30.0</ele><time>2026-05-03T09:00:41Z</time></trkpt><trkpt lat="42.09117124298467" lon="19.534104678909706"><ele>30.0</ele><time>2026-05-03T09:00:43Z</time></trkpt><trkpt lat="42.091231396900454" lon="19.53414771462093"><ele>30.0</ele><time>2026-05-03T09:00:44Z</time></trkpt><trkpt lat="42.091308596099445" lon="19.534200123598005"><ele>30.0</ele><time>2026-05-03T09:00:45Z</time></trkpt><trkpt lat="42.0913862440326" lon="19.534254812074877"><ele>30.0</ele><time>2026-05-03T09:00:46Z</time></trkpt><trkpt lat="42.0914836393744" lon="19.534314718347698"><ele>30.0</ele><time>2026-05-03T09:00:47Z</time></trkpt><trkpt lat="42.09159703176988" lon="19.53439222862106"><ele>29.25</ele><time>2026-05-03T09:00:48Z</time></trkpt><trkpt lat="42.091721290409936" lon="19.534488745979708"><ele>28.5</ele><time>2026-05-03T09:00:49Z</time></trkpt><trkpt lat="42.091849832714296" lon="19.534594205172077"><ele>27.75</ele><time>2026-05-03T09:00:50Z</time></trkpt><trkpt lat="42.09198250269319" lon="19.534691796203276"><ele>27.0</ele><time>2026-05-03T09:00:51Z</time></trkpt><trkpt lat="42.09212875795917" lon="19.534794195754834"><ele>27.0</ele><time>2026-05-03T09:00:52Z</time></trkpt><trkpt lat="42.092288820707914" lon="19.534907533648088"><ele>27.0</ele><time>2026-05-03T09:00:53Z</time></trkpt><trkpt lat="42.09244805174234" lon="19.53502531986184"><ele>27.0</ele><time>2026-05-03T09:00:54Z</time></trkpt><trkpt lat="42.09259941894318" lon="19.53514178255424"><ele>27.333333333333336</ele><time>2026-05-03T09:00:55Z</time></trkpt><trkpt lat="42.09274797454187" lon="19.535260316904534"><ele>27.666666666666668</ele><time>2026-05-03T09:00:56Z</time></trkpt><trkpt lat="42.09288550091647" lon="19.535365735679665"><ele>28.0</ele><time>2026-05-03T09:00:57Z</time></trkpt><trkpt lat="42.09301963414163" lon="19.535462727322823"><ele>28.0</ele><time>2026-05-03T09:00:58Z</time></trkpt><trkpt lat="42.09314865687384" lon="19.535556831669883"><ele>28.0</ele><time>2026-05-03T09:00:59Z</time></trkpt><trkpt lat="42.09327166822808" lon="19.535645292386278"><ele>28.0</ele><time>2026-05-03T09:01:00Z</time></trkpt><trkpt lat="42.09339562647926" lon="19.53573761446554"><ele>28.0</ele><time>2026-05-03T09:01:01Z</time></trkpt><trkpt lat="42.09352029371311" lon="19.535829619230615"><ele>28.2</ele><time>2026-05-03T09:01:02Z</time></trkpt><trkpt lat="42.09363609997945" lon="19.535914608730135"><ele>28.4</ele><time>2026-05-03T09:01:03Z</time></trkpt><trkpt lat="42.0937324715658" lon="19.53598911364843"><ele>28.599999999999998</ele><time>2026-05-03T09:01:04Z</time></trkpt><trkpt lat="42.09380295371837" lon="19.536055389755454"><ele>28.799999999999997</ele><time>2026-05-03T09:01:05Z</time></trkpt><trkpt lat="42.09385911055352" lon="19.536123338054363"><ele>29.0</ele><time>2026-05-03T09:01:06Z</time></trkpt><trkpt lat="42.09390592887404" lon="19.53619624332812"><ele>29.2</ele><time>2026-05-03T09:01:07Z</time></trkpt><trkpt lat="42.09395449147991" lon="19.53625989547916"><ele>29.4</ele><time>2026-05-03T09:01:08Z</time></trkpt><trkpt lat="42.094028121126534" lon="19.53628222907675"><ele>29.6</ele><time>2026-05-03T09:01:09Z</time></trkpt><trkpt lat="42.09412475258801" lon="19.536297148955743"><ele>29.8</ele><time>2026-05-03T09:01:10Z</time></trkpt><trkpt lat="42.09424402999021" lon="19.536351340784094"><ele>30.0</ele><time>2026-05-03T09:01:11Z</time></trkpt><trkpt lat="42.09438217864027" lon="19.536450468982444"><ele>30.333333333333336</ele><time>2026-05-03T09:01:12Z</time></trkpt><trkpt lat="42.094521176089" lon="19.536553035572723"><ele>30.666666666666668</ele><time>2026-05-03T09:01:13Z</time></trkpt><trkpt lat="42.09467520641524" lon="19.536659827760445"><ele>31.0</ele><time>2026-05-03T09:01:14Z</time></trkpt><trkpt lat="42.09483912719316" lon="19.536778851697164"><ele>30.666666666666668</ele><time>2026-05-03T09:01:15Z</time></trkpt><trkpt lat="42.09499857692347" lon="19.536897878323547"><ele>30.333333333333336</ele><time>2026-05-03T09:01:16Z</time></trkpt><trkpt lat="42.095166233431975" lon="19.537026478857104"><ele>30.0</ele><time>2026-05-03T09:01:17Z</time></trkpt><trkpt lat="42.09533607097349" lon="19.537156607245972"><ele>29.666666666666664</ele><time>2026-05-03T09:01:18Z</time></trkpt><trkpt lat="42.095501217847236" lon="19.53727379934967"><ele>29.333333333333332</ele><time>2026-05-03T09:01:19Z</time></trkpt><trkpt lat="42.095653178028265" lon="19.537386193371866"><ele>29.0</ele><time>2026-05-03T09:01:20Z</time></trkpt><trkpt lat="42.0957985581057" lon="19.537491077722745"><ele>29.5</ele><time>2026-05-03T09:01:21Z</time></trkpt><trkpt lat="42.095929518965754" lon="19.537579745384562"><ele>30.0</ele><time>2026-05-03T09:01:22Z</time></trkpt><trkpt lat="42.09604653603897" lon="19.53766276652601"><ele>30.5</ele><time>2026-05-03T09:01:23Z</time></trkpt><trkpt lat="42.096148079076734" lon="19.53774893873778"><ele>31.0</ele><time>2026-05-03T09:01:24Z</time></trkpt><trkpt lat="42.096233169099555" lon="19.53784310255946"><ele>30.6</ele><time>2026-05-03T09:01:25Z</time></trkpt><trkpt lat="42.09629417807188" lon="19.537953246586017"><ele>30.200000000000003</ele><time>2026-05-03T09:01:26Z</time></trkpt><trkpt lat="42.09632884048346" lon="19.538077971437595"><ele>29.799999999999997</ele><time>2026-05-03T09:01:27Z</time></trkpt><trkpt lat="42.09635205001258" lon="19.53822057088293"><ele>29.4</ele><time>2026-05-03T09:01:28Z</time></trkpt><trkpt lat="42.096375339322655" lon="19.53837975215843"><ele>29.0</ele><time>2026-05-03T09:01:29Z</time></trkpt><trkpt lat="42.09639931415752" lon="19.53854560257001"><ele>28.75</ele><time>2026-05-03T09:01:30Z</time></trkpt><trkpt lat="42.09642763697733" lon="19.53871882534742"><ele>28.5</ele><time>2026-05-03T09:01:31Z</time></trkpt><trkpt lat="42.096467778297985" lon="19.53889585138845"><ele>28.25</ele><time>2026-05-03T09:01:32Z</time></trkpt><trkpt lat="42.09652829529067" lon="19.53906924844354"><ele>28.0</ele><time>2026-05-03T09:01:33Z</time></trkpt><trkpt lat="42.09661246921217" lon="19.53923247835367"><ele>29.5</ele><time>2026-05-03T09:01:34Z</time></trkpt><trkpt lat="42.09671336885596" lon="19.539379993463594"><ele>31.0</ele><time>2026-05-03T09:01:35Z</time></trkpt><trkpt lat="42.09680650519608" lon="19.53950302034804"><ele>32.5</ele><time>2026-05-03T09:01:36Z</time></trkpt><trkpt lat="42.096884172390084" lon="19.539607898123876"><ele>34.0</ele><time>2026-05-03T09:01:37Z</time></trkpt><trkpt lat="42.09695394115811" lon="19.539703595981887"><ele>34.0</ele><time>2026-05-03T09:01:38Z</time></trkpt><trkpt lat="42.09700755091478" lon="19.539796064450613"><ele>34.0</ele><time>2026-05-03T09:01:39Z</time></trkpt><trkpt lat="42.09704701995517" lon="19.539890113439693"><ele>34.0</ele><time>2026-05-03T09:01:40Z</time></trkpt><trkpt lat="42.09708583168323" lon="19.539965583895324"><ele>34.0</ele><time>2026-05-03T09:01:41Z</time></trkpt><trkpt lat="42.0971286876708" lon="19.540042001243567"><ele>34.0</ele><time>2026-05-03T09:01:42Z</time></trkpt><trkpt lat="42.097176718887944" lon="19.54013800386414"><ele>34.0</ele><time>2026-05-03T09:01:43Z</time></trkpt><trkpt lat="42.097227769483624" lon="19.54024891202766"><ele>34.0</ele><time>2026-05-03T09:01:44Z</time></trkpt><trkpt lat="42.09727597402005" lon="19.54035898077402"><ele>34.0</ele><time>2026-05-03T09:01:45Z</time></trkpt><trkpt lat="42.09732661450342" lon="19.5404726601123"><ele>34.0</ele><time>2026-05-03T09:01:46Z</time></trkpt><trkpt lat="42.09738346365325" lon="19.5406043322299"><ele>34.0</ele><time>2026-05-03T09:01:47Z</time></trkpt><trkpt lat="42.09744604380699" lon="19.54076041703833"><ele>34.0</ele><time>2026-05-03T09:01:48Z</time></trkpt><trkpt lat="42.097516765345645" lon="19.540920502173783"><ele>34.333333333333336</ele><time>2026-05-03T09:01:49Z</time></trkpt><trkpt lat="42.097596357709186" lon="19.54110248828807"><ele>34.666666666666664</ele><time>2026-05-03T09:01:50Z</time></trkpt><trkpt lat="42.09768602768014" lon="19.541295671573046"><ele>35.0</ele><time>2026-05-03T09:01:51Z</time></trkpt><trkpt lat="42.0977839399198" lon="19.541500380174188"><ele>35.0</ele><time>2026-05-03T09:01:52Z</time></trkpt><trkpt lat="42.09788648184463" lon="19.541710370402747"><ele>35.0</ele><time>2026-05-03T09:01:53Z</time></trkpt><trkpt lat="42.09798189628005" lon="19.541922167758653"><ele>35.0</ele><time>2026-05-03T09:01:54Z</time></trkpt><trkpt lat="42.09806978663955" lon="19.542143613358665"><ele>35.0</ele><time>2026-05-03T09:01:55Z</time></trkpt><trkpt lat="42.09815946619125" lon="19.542366987770013"><ele>35.0</ele><time>2026-05-03T09:01:56Z</time></trkpt><trkpt lat="42.098256366156726" lon="19.542590812205873"><ele>35.0</ele><time>2026-05-03T09:01:57Z</time></trkpt><trkpt lat="42.09835720801475" lon="19.542812271930693"><ele>36.0</ele><time>2026-05-03T09:01:58Z</time></trkpt><trkpt lat="42.09845511779421" lon="19.54302967165916"><ele>37.0</ele><time>2026-05-03T09:01:59Z</time></trkpt><trkpt lat="42.09855152678484" lon="19.543248794074973"><ele>38.0</ele><time>2026-05-03T09:02:00Z</time></trkpt><trkpt lat="42.09864348055416" lon="19.54346536243481"><ele>38.0</ele><time>2026-05-03T09:02:01Z</time></trkpt><trkpt lat="42.09873666982276" lon="19.54367924652431"><ele>38.0</ele><time>2026-05-03T09:02:02Z</time></trkpt><trkpt lat="42.098830907082885" lon="19.543889273798047"><ele>38.0</ele><time>2026-05-03T09:02:02.999Z</time></trkpt><trkpt lat="42.09892184405373" lon="19.54408168151957"><ele>38.33333333333333</ele><time>2026-05-03T09:02:03.999Z</time></trkpt><trkpt lat="42.09901162456341" lon="19.544272207426292"><ele>38.666666666666664</ele><time>2026-05-03T09:02:04.999Z</time></trkpt><trkpt lat="42.09909784997129" lon="19.544467345092364"><ele>39.0</ele><time>2026-05-03T09:02:05.999Z</time></trkpt><trkpt lat="42.09918356440921" lon="19.544672107303526"><ele>39.666666666666664</ele><time>2026-05-03T09:02:06.999Z</time></trkpt><trkpt lat="42.09927293589459" lon="19.54488040499076"><ele>40.33333333333333</ele><time>2026-05-03T09:02:07.999Z</time></trkpt><trkpt lat="42.099365003819926" lon="19.545087974289746"><ele>41.0</ele><time>2026-05-03T09:02:08.999Z</time></trkpt><trkpt lat="42.099460259539285" lon="19.545297663157598"><ele>40.666666666666664</ele><time>2026-05-03T09:02:09.999Z</time></trkpt><trkpt lat="42.09955789790509" lon="19.545504837447556"><ele>40.333333333333336</ele><time>2026-05-03T09:02:10.999Z</time></trkpt><trkpt lat="42.09965305490165" lon="19.545712986223148"><ele>40.0</ele><time>2026-05-03T09:02:11.999Z</time></trkpt><trkpt lat="42.099746845487644" lon="19.54592442483847"><ele>40.0</ele><time>2026-05-03T09:02:12.999Z</time></trkpt><trkpt lat="42.09984101294287" lon="19.546134723984668"><ele>40.0</ele><time>2026-05-03T09:02:13.999Z</time></trkpt><trkpt lat="42.09993306657352" lon="19.546336722562504"><ele>40.0</ele><time>2026-05-03T09:02:14.999Z</time></trkpt><trkpt lat="42.10002120938355" lon="19.546527901350842"><ele>39.66666666666667</ele><time>2026-05-03T09:02:15.999Z</time></trkpt><trkpt lat="42.10010355510566" lon="19.546708098093546"><ele>39.333333333333336</ele><time>2026-05-03T09:02:16.999Z</time></trkpt><trkpt lat="42.100180292180674" lon="19.546882769273033"><ele>39.0</ele><time>2026-05-03T09:02:17.999Z</time></trkpt><trkpt lat="42.10025523184734" lon="19.54705834225063"><ele>39.0</ele><time>2026-05-03T09:02:18.999Z</time></trkpt><trkpt lat="42.100331957423684" lon="19.547235265836647"><ele>39.0</ele><time>2026-05-03T09:02:19.999Z</time></trkpt><trkpt lat="42.1004102739847" lon="19.547415992925362"><ele>39.0</ele><time>2026-05-03T09:02:20.999Z</time></trkpt><trkpt lat="42.10049087333704" lon="19.547595166479415"><ele>39.0</ele><time>2026-05-03T09:02:21.999Z</time></trkpt><trkpt lat="42.10057338261775" lon="19.547776403629715"><ele>39.0</ele><time>2026-05-03T09:02:22.999Z</time></trkpt><trkpt lat="42.10065418420672" lon="19.54796051959592"><ele>39.0</ele><time>2026-05-03T09:02:23.999Z</time></trkpt><trkpt lat="42.1007369950426" lon="19.54814921244469"><ele>40.333333333333336</ele><time>2026-05-03T09:02:24.999Z</time></trkpt><trkpt lat="42.10082080741427" lon="19.548339718812635"><ele>41.66666666666667</ele><time>2026-05-03T09:02:25.999Z</time></trkpt><trkpt lat="42.100905114346794" lon="19.548531255317823"><ele>43.0</ele><time>2026-05-03T09:02:26.999Z</time></trkpt><trkpt lat="42.100991346948135" lon="19.548723104378393"><ele>43.0</ele><time>2026-05-03T09:02:27.999Z</time></trkpt><trkpt lat="42.10107910322677" lon="19.54891621621896"><ele>43.0</ele><time>2026-05-03T09:02:28.999Z</time></trkpt><trkpt lat="42.10116563148637" lon="19.549113807488883"><ele>43.0</ele><time>2026-05-03T09:02:29.999Z</time></trkpt><trkpt lat="42.101256779189114" lon="19.549317509160886"><ele>43.0</ele><time>2026-05-03T09:02:30.999Z</time></trkpt><trkpt lat="42.1013474983536" lon="19.5495188053439"><ele>43.0</ele><time>2026-05-03T09:02:31.999Z</time></trkpt><trkpt lat="42.10143429199591" lon="19.549709128971077"><ele>43.0</ele><time>2026-05-03T09:02:32.999Z</time></trkpt><trkpt lat="42.1015064830832" lon="19.549874416249686"><ele>43.25</ele><time>2026-05-03T09:02:33.999Z</time></trkpt><trkpt lat="42.10156101017626" lon="19.550002964000402"><ele>43.5</ele><time>2026-05-03T09:02:34.999Z</time></trkpt><trkpt lat="42.10161603043579" lon="19.550115536063586"><ele>43.75</ele><time>2026-05-03T09:02:35.999Z</time></trkpt><trkpt lat="42.10167661819151" lon="19.550226462129576"><ele>44.0</ele><time>2026-05-03T09:02:36.999Z</time></trkpt><trkpt lat="42.10174750473956" lon="19.55038528849479"><ele>45.0</ele><time>2026-05-03T09:02:37.999Z</time></trkpt><trkpt lat="42.10181282566156" lon="19.5505700678295"><ele>46.0</ele><time>2026-05-03T09:02:39Z</time></trkpt><trkpt lat="42.10189474409614" lon="19.550756606078973"><ele>47.0</ele><time>2026-05-03T09:02:40Z</time></trkpt><trkpt lat="42.10198920380471" lon="19.550946692471076"><ele>47.0</ele><time>2026-05-03T09:02:41Z</time></trkpt><trkpt lat="42.102071968968424" lon="19.55114015859789"><ele>47.0</ele><time>2026-05-03T09:02:42Z</time></trkpt><trkpt lat="42.10214522811383" lon="19.551311679675283"><ele>47.0</ele><time>2026-05-03T09:02:43Z</time></trkpt><trkpt lat="42.102218337506876" lon="19.551483297502482"><ele>47.0</ele><time>2026-05-03T09:02:44Z</time></trkpt><trkpt lat="42.10229413052214" lon="19.551659464154586"><ele>47.0</ele><time>2026-05-03T09:02:45Z</time></trkpt><trkpt lat="42.102368483085385" lon="19.55183818829502"><ele>47.0</ele><time>2026-05-03T09:02:46Z</time></trkpt><trkpt lat="42.10244510956241" lon="19.552003436847038"><ele>47.0</ele><time>2026-05-03T09:02:47Z</time></trkpt><trkpt lat="42.10252791894316" lon="19.552171468991077"><ele>47.0</ele><time>2026-05-03T09:02:48Z</time></trkpt><trkpt lat="42.10260550922125" lon="19.552342408698188"><ele>47.0</ele><time>2026-05-03T09:02:49Z</time></trkpt><trkpt lat="42.102679167332084" lon="19.55251921517918"><ele>47.0</ele><time>2026-05-03T09:02:50Z</time></trkpt><trkpt lat="42.10276184707302" lon="19.552705074359096"><ele>47.33333333333333</ele><time>2026-05-03T09:02:51Z</time></trkpt><trkpt lat="42.102844145748605" lon="19.55289253428951"><ele>47.666666666666664</ele><time>2026-05-03T09:02:52Z</time></trkpt><trkpt lat="42.102933423837" lon="19.553091329403777"><ele>48.0</ele><time>2026-05-03T09:02:53Z</time></trkpt><trkpt lat="42.103023619965875" lon="19.553289341664684"><ele>48.0</ele><time>2026-05-03T09:02:54Z</time></trkpt><trkpt lat="42.1031087929209" lon="19.55348585408062"><ele>48.0</ele><time>2026-05-03T09:02:55Z</time></trkpt><trkpt lat="42.103193639591495" lon="19.55368073374158"><ele>48.0</ele><time>2026-05-03T09:02:56Z</time></trkpt><trkpt lat="42.10327416676154" lon="19.553864890621377"><ele>47.25</ele><time>2026-05-03T09:02:57Z</time></trkpt><trkpt lat="42.10334707424008" lon="19.554028825794997"><ele>46.5</ele><time>2026-05-03T09:02:58Z</time></trkpt><trkpt lat="42.10341783433919" lon="19.554186003153905"><ele>45.75</ele><time>2026-05-03T09:02:59Z</time></trkpt><trkpt lat="42.1034884840928" lon="19.554327753917715"><ele>45.0</ele><time>2026-05-03T09:03:00Z</time></trkpt><trkpt lat="42.103558817408135" lon="19.554464046959854"><ele>45.75</ele><time>2026-05-03T09:03:01Z</time></trkpt><trkpt lat="42.103630536386554" lon="19.554614302470597"><ele>46.5</ele><time>2026-05-03T09:03:02Z</time></trkpt><trkpt lat="42.10370519121009" lon="19.554780916811062"><ele>47.25</ele><time>2026-05-03T09:03:03Z</time></trkpt><trkpt lat="42.10378209791323" lon="19.554964446082497"><ele>48.0</ele><time>2026-05-03T09:03:04Z</time></trkpt><trkpt lat="42.10385962259189" lon="19.555159026082276"><ele>48.0</ele><time>2026-05-03T09:03:05Z</time></trkpt><trkpt lat="42.10393859458053" lon="19.5553632091297"><ele>48.0</ele><time>2026-05-03T09:03:06Z</time></trkpt><trkpt lat="42.104027015294626" lon="19.555574518657334"><ele>48.0</ele><time>2026-05-03T09:03:07Z</time></trkpt><trkpt lat="42.10411935742648" lon="19.555782527435532"><ele>48.66666666666667</ele><time>2026-05-03T09:03:08Z</time></trkpt><trkpt lat="42.104218671115504" lon="19.55600360740826"><ele>49.333333333333336</ele><time>2026-05-03T09:03:09Z</time></trkpt><trkpt lat="42.10432176703926" lon="19.55623507338984"><ele>50.0</ele><time>2026-05-03T09:03:10Z</time></trkpt><trkpt lat="42.10442851309952" lon="19.556475277354554"><ele>50.0</ele><time>2026-05-03T09:03:11Z</time></trkpt><trkpt lat="42.104538226739095" lon="19.556709383686798"><ele>50.0</ele><time>2026-05-03T09:03:12Z</time></trkpt><trkpt lat="42.104647340476475" lon="19.55695520460745"><ele>50.0</ele><time>2026-05-03T09:03:13Z</time></trkpt><trkpt lat="42.104751626714304" lon="19.557208196473255"><ele>49.66666666666667</ele><time>2026-05-03T09:03:14Z</time></trkpt><trkpt lat="42.104857123816316" lon="19.55745936293725"><ele>49.33333333333333</ele><time>2026-05-03T09:03:15Z</time></trkpt><trkpt lat="42.10496624369795" lon="19.557707255535824"><ele>49.0</ele><time>2026-05-03T09:03:16Z</time></trkpt><trkpt lat="42.10507808371095" lon="19.55796131190829"><ele>50.0</ele><time>2026-05-03T09:03:17Z</time></trkpt><trkpt lat="42.10519256533425" lon="19.558212216872388"><ele>51.0</ele><time>2026-05-03T09:03:18Z</time></trkpt><trkpt lat="42.105313922197574" lon="19.558454941015682"><ele>52.0</ele><time>2026-05-03T09:03:19Z</time></trkpt><trkpt lat="42.10544850329261" lon="19.558689764677304"><ele>50.5</ele><time>2026-05-03T09:03:20Z</time></trkpt><trkpt lat="42.10559541613019" lon="19.5589207162502"><ele>49.0</ele><time>2026-05-03T09:03:21Z</time></trkpt><trkpt lat="42.10574510069153" lon="19.559153530265665"><ele>50.0</ele><time>2026-05-03T09:03:22Z</time></trkpt><trkpt lat="42.10589242263934" lon="19.559388973027737"><ele>51.0</ele><time>2026-05-03T09:03:23Z</time></trkpt><trkpt lat="42.10604214104359" lon="19.559627541456365"><ele>51.0</ele><time>2026-05-03T09:03:24Z</time></trkpt><trkpt lat="42.10619099012705" lon="19.55986494727444"><ele>51.0</ele><time>2026-05-03T09:03:25Z</time></trkpt><trkpt lat="42.10634025111594" lon="19.560101969665862"><ele>51.0</ele><time>2026-05-03T09:03:26Z</time></trkpt><trkpt lat="42.106484903448845" lon="19.56032859230955"><ele>51.0</ele><time>2026-05-03T09:03:27Z</time></trkpt><trkpt lat="42.10661798843554" lon="19.560538054945177"><ele>51.0</ele><time>2026-05-03T09:03:28Z</time></trkpt><trkpt lat="42.10673146162722" lon="19.56071756965696"><ele>51.25</ele><time>2026-05-03T09:03:29Z</time></trkpt><trkpt lat="42.10681647534773" lon="19.560859048039895"><ele>51.5</ele><time>2026-05-03T09:03:30Z</time></trkpt><trkpt lat="42.106892248011434" lon="19.560995449440107"><ele>51.75</ele><time>2026-05-03T09:03:31Z</time></trkpt><trkpt lat="42.10696663131856" lon="19.56112070570341"><ele>52.0</ele><time>2026-05-03T09:03:32Z</time></trkpt><trkpt lat="42.10704386505418" lon="19.56122657890105"><ele>51.49999999999999</ele><time>2026-05-03T09:03:33Z</time></trkpt><trkpt lat="42.10711489991134" lon="19.561321939222598"><ele>51.0</ele><time>2026-05-03T09:03:34Z</time></trkpt><trkpt lat="42.10717487945243" lon="19.561407290295662"><ele>50.5</ele><time>2026-05-03T09:03:35Z</time></trkpt><trkpt lat="42.107220757387005" lon="19.561476959074746"><ele>50.0</ele><time>2026-05-03T09:03:36Z</time></trkpt><trkpt lat="42.1072738062094" lon="19.561556923072846"><ele>49.49999999999999</ele><time>2026-05-03T09:03:38Z</time></trkpt><trkpt lat="42.107333765634195" lon="19.561626045530467"><ele>49.0</ele><time>2026-05-03T09:03:42Z</time></trkpt><trkpt lat="42.107379096955306" lon="19.56171449598538"><ele>49.800000000000004</ele><time>2026-05-03T09:03:44Z</time></trkpt><trkpt lat="42.10744021878012" lon="19.56181838596646"><ele>50.6</ele><time>2026-05-03T09:03:46Z</time></trkpt><trkpt lat="42.10750984118694" lon="19.561930394358786"><ele>51.4</ele><time>2026-05-03T09:03:48Z</time></trkpt><trkpt lat="42.107555922102236" lon="19.562004836002178"><ele>52.2</ele><time>2026-05-03T09:03:49Z</time></trkpt><trkpt lat="42.10760640742749" lon="19.56208837958414"><ele>53.0</ele><time>2026-05-03T09:03:50Z</time></trkpt><trkpt lat="42.10766744178585" lon="19.562180496454708"><ele>53.0</ele><time>2026-05-03T09:03:51Z</time></trkpt><trkpt lat="42.10773425975425" lon="19.562287361296818"><ele>53.0</ele><time>2026-05-03T09:03:52Z</time></trkpt><trkpt lat="42.10780005823577" lon="19.562403903599733"><ele>53.0</ele><time>2026-05-03T09:03:53Z</time></trkpt><trkpt lat="42.107862595261025" lon="19.562519744262634"><ele>53.0</ele><time>2026-05-03T09:03:54Z</time></trkpt><trkpt lat="42.10792985716388" lon="19.56263909002352"><ele>53.0</ele><time>2026-05-03T09:03:55Z</time></trkpt><trkpt lat="42.10799503639442" lon="19.5627568423998"><ele>53.5</ele><time>2026-05-03T09:03:56Z</time></trkpt><trkpt lat="42.10805875725547" lon="19.562870632080234"><ele>54.0</ele><time>2026-05-03T09:03:57Z</time></trkpt><trkpt lat="42.10812711922983" lon="19.56299573373585"><ele>54.5</ele><time>2026-05-03T09:03:58Z</time></trkpt><trkpt lat="42.1081921125607" lon="19.563124291393272"><ele>55.0</ele><time>2026-05-03T09:03:59Z</time></trkpt><trkpt lat="42.10825659574896" lon="19.563252518739013"><ele>55.0</ele><time>2026-05-03T09:04:00Z</time></trkpt><trkpt lat="42.10832014241398" lon="19.563374394569337"><ele>55.0</ele><time>2026-05-03T09:04:01Z</time></trkpt><trkpt lat="42.108385713810975" lon="19.563494477628343"><ele>55.0</ele><time>2026-05-03T09:04:02Z</time></trkpt><trkpt lat="42.10845166997326" lon="19.563616398742177"><ele>55.0</ele><time>2026-05-03T09:04:03Z</time></trkpt><trkpt lat="42.10851411878437" lon="19.56373538273719"><ele>55.0</ele><time>2026-05-03T09:04:04Z</time></trkpt><trkpt lat="42.10857143948503" lon="19.563849748421646"><ele>54.6</ele><time>2026-05-03T09:04:05Z</time></trkpt><trkpt lat="42.10863279973266" lon="19.563967368718185"><ele>54.2</ele><time>2026-05-03T09:04:06Z</time></trkpt><trkpt lat="42.108691316328304" lon="19.564077632255852"><ele>53.8</ele><time>2026-05-03T09:04:07Z</time></trkpt><trkpt lat="42.10875838045672" lon="19.56419240558423"><ele>53.4</ele><time>2026-05-03T09:04:08Z</time></trkpt><trkpt lat="42.10882103018651" lon="19.56430499154505"><ele>53.0</ele><time>2026-05-03T09:04:09Z</time></trkpt><trkpt lat="42.10888252695397" lon="19.564419685593776"><ele>52.8</ele><time>2026-05-03T09:04:10Z</time></trkpt><trkpt lat="42.10894836055096" lon="19.56454034540072"><ele>52.599999999999994</ele><time>2026-05-03T09:04:11Z</time></trkpt><trkpt lat="42.10901127135774" lon="19.564661920592496"><ele>52.400000000000006</ele><time>2026-05-03T09:04:12Z</time></trkpt><trkpt lat="42.10907564613974" lon="19.56478585966934"><ele>52.2</ele><time>2026-05-03T09:04:13Z</time></trkpt><trkpt lat="42.10914379858477" lon="19.56490653765213"><ele>52.0</ele><time>2026-05-03T09:04:14Z</time></trkpt><trkpt lat="42.10921429016002" lon="19.565032434319733"><ele>52.0</ele><time>2026-05-03T09:04:15Z</time></trkpt><trkpt lat="42.109285943173866" lon="19.565160728159768"><ele>52.0</ele><time>2026-05-03T09:04:16Z</time></trkpt><trkpt lat="42.10936123902871" lon="19.565294608375652"><ele>52.0</ele><time>2026-05-03T09:04:17Z</time></trkpt><trkpt lat="42.10944619241215" lon="19.56545455173823"><ele>52.0</ele><time>2026-05-03T09:04:18Z</time></trkpt><trkpt lat="42.10954509407921" lon="19.565640684282712"><ele>50.33333333333333</ele><time>2026-05-03T09:04:19Z</time></trkpt><trkpt lat="42.10964025258597" lon="19.565838355451806"><ele>48.666666666666664</ele><time>2026-05-03T09:04:20Z</time></trkpt><trkpt lat="42.10973442731373" lon="19.566044264192403"><ele>47.0</ele><time>2026-05-03T09:04:21Z</time></trkpt><trkpt lat="42.10983998837442" lon="19.566246343506165"><ele>49.33333333333333</ele><time>2026-05-03T09:04:22Z</time></trkpt><trkpt lat="42.109956385042544" lon="19.566454923701155"><ele>51.666666666666664</ele><time>2026-05-03T09:04:23Z</time></trkpt><trkpt lat="42.11007912287932" lon="19.566677502013018"><ele>54.0</ele><time>2026-05-03T09:04:24Z</time></trkpt><trkpt lat="42.110207974876666" lon="19.566910485305385"><ele>54.33333333333333</ele><time>2026-05-03T09:04:25Z</time></trkpt><trkpt lat="42.11033654143979" lon="19.567152020973598"><ele>54.666666666666664</ele><time>2026-05-03T09:04:26Z</time></trkpt><trkpt lat="42.110464056003266" lon="19.567395095526003"><ele>55.0</ele><time>2026-05-03T09:04:27Z</time></trkpt><trkpt lat="42.11058315031415" lon="19.567626070510904"><ele>55.0</ele><time>2026-05-03T09:04:28Z</time></trkpt><trkpt lat="42.11069496205345" lon="19.567837343222024"><ele>55.0</ele><time>2026-05-03T09:04:29Z</time></trkpt><trkpt lat="42.110797173313394" lon="19.568027021896377"><ele>55.0</ele><time>2026-05-03T09:04:30Z</time></trkpt><trkpt lat="42.110893776760484" lon="19.568200464101896"><ele>55.666666666666664</ele><time>2026-05-03T09:04:31Z</time></trkpt><trkpt lat="42.110987218074676" lon="19.56837973235161"><ele>56.33333333333333</ele><time>2026-05-03T09:04:32Z</time></trkpt><trkpt lat="42.11107937537231" lon="19.568563703371613"><ele>57.0</ele><time>2026-05-03T09:04:33Z</time></trkpt><trkpt lat="42.11117511851222" lon="19.56874333125424"><ele>57.33333333333333</ele><time>2026-05-03T09:04:33.999Z</time></trkpt><trkpt lat="42.11127570298442" lon="19.568925545841118"><ele>57.666666666666664</ele><time>2026-05-03T09:04:34.998Z</time></trkpt><trkpt lat="42.11138018417538" lon="19.569118355067737"><ele>58.0</ele><time>2026-05-03T09:04:35.998Z</time></trkpt><trkpt lat="42.111485949062455" lon="19.569310392483164"><ele>58.33333333333333</ele><time>2026-05-03T09:04:36.998Z</time></trkpt><trkpt lat="42.11159466754277" lon="19.569506005697576"><ele>58.66666666666667</ele><time>2026-05-03T09:04:37.998Z</time></trkpt><trkpt lat="42.11169985151268" lon="19.56970744688978"><ele>59.0</ele><time>2026-05-03T09:04:38.998Z</time></trkpt><trkpt lat="42.1118087632926" lon="19.569906978423735"><ele>59.0</ele><time>2026-05-03T09:04:39.998Z</time></trkpt><trkpt lat="42.11191740904431" lon="19.57010893572781"><ele>59.0</ele><time>2026-05-03T09:04:40.998Z</time></trkpt><trkpt lat="42.11202649396235" lon="19.570312673419775"><ele>59.0</ele><time>2026-05-03T09:04:41.998Z</time></trkpt><trkpt lat="42.11213731665589" lon="19.57051538501418"><ele>59.0</ele><time>2026-05-03T09:04:42.998Z</time></trkpt><trkpt lat="42.11224968792005" lon="19.57072010144275"><ele>59.0</ele><time>2026-05-03T09:04:43.998Z</time></trkpt><trkpt lat="42.11235037486667" lon="19.57090550051712"><ele>59.0</ele><time>2026-05-03T09:04:45Z</time></trkpt><trkpt lat="42.11243690301583" lon="19.57106977782608"><ele>59.0</ele><time>2026-05-03T09:04:46Z</time></trkpt><trkpt lat="42.11251837986557" lon="19.571226017627982"><ele>59.0</ele><time>2026-05-03T09:04:47Z</time></trkpt><trkpt lat="42.1125945188483" lon="19.57138031145187"><ele>59.0</ele><time>2026-05-03T09:04:48Z</time></trkpt><trkpt lat="42.11266617928373" lon="19.571533359266923"><ele>59.0</ele><time>2026-05-03T09:04:49Z</time></trkpt><trkpt lat="42.112755803546904" lon="19.571695911464513"><ele>59.0</ele><time>2026-05-03T09:04:50Z</time></trkpt><trkpt lat="42.11283428808126" lon="19.571837893611953"><ele>59.0</ele><time>2026-05-03T09:04:51Z</time></trkpt><trkpt lat="42.112912518915685" lon="19.57198198661637"><ele>59.0</ele><time>2026-05-03T09:04:52Z</time></trkpt><trkpt lat="42.112984771966936" lon="19.57211990116976"><ele>59.0</ele><time>2026-05-03T09:04:53Z</time></trkpt><trkpt lat="42.11306482253423" lon="19.57225996437806"><ele>59.0</ele><time>2026-05-03T09:04:54Z</time></trkpt><trkpt lat="42.11313820342041" lon="19.57239836720432"><ele>59.0</ele><time>2026-05-03T09:04:55Z</time></trkpt><trkpt lat="42.11320858758746" lon="19.57253447567697"><ele>59.0</ele><time>2026-05-03T09:04:56Z</time></trkpt><trkpt lat="42.11328123076747" lon="19.572673792328747"><ele>59.0</ele><time>2026-05-03T09:04:57Z</time></trkpt><trkpt lat="42.11334786443537" lon="19.572817464254122"><ele>59.0</ele><time>2026-05-03T09:04:58Z</time></trkpt><trkpt lat="42.11342027686497" lon="19.572959574952336"><ele>59.0</ele><time>2026-05-03T09:04:59Z</time></trkpt><trkpt lat="42.113482702732604" lon="19.573102743425082"><ele>59.0</ele><time>2026-05-03T09:05:00Z</time></trkpt><trkpt lat="42.113537609265826" lon="19.573232822166535"><ele>59.0</ele><time>2026-05-03T09:05:01Z</time></trkpt><trkpt lat="42.11359379759838" lon="19.573353906418077"><ele>59.00000000000001</ele><time>2026-05-03T09:05:02Z</time></trkpt><trkpt lat="42.11363491897987" lon="19.57342808100112"><ele>59.0</ele><time>2026-05-03T09:05:03Z</time></trkpt><trkpt lat="42.11368121279293" lon="19.573491285409606"><ele>59.0</ele><time>2026-05-03T09:05:04.999Z</time></trkpt><trkpt lat="42.11372505465588" lon="19.57357042714778"><ele>59.0</ele><time>2026-05-03T09:05:07.999Z</time></trkpt><trkpt lat="42.11376672301881" lon="19.573640881761083"><ele>59.00000000000001</ele><time>2026-05-03T09:05:09.999Z</time></trkpt><trkpt lat="42.11384027594555" lon="19.573755199584955"><ele>59.0</ele><time>2026-05-03T09:05:11.999Z</time></trkpt><trkpt lat="42.11390660147922" lon="19.5738422061028"><ele>58.400000000000006</ele><time>2026-05-03T09:05:13.999Z</time></trkpt><trkpt lat="42.11397601843929" lon="19.573919834047622"><ele>57.800000000000004</ele><time>2026-05-03T09:05:14.999Z</time></trkpt><trkpt lat="42.11404466654039" lon="19.574010578471732"><ele>57.199999999999996</ele><time>2026-05-03T09:05:15.999Z</time></trkpt><trkpt lat="42.11411647142353" lon="19.574096857598164"><ele>56.599999999999994</ele><time>2026-05-03T09:05:16.999Z</time></trkpt><trkpt lat="42.11417164751275" lon="19.574169884068123"><ele>56.0</ele><time>2026-05-03T09:05:17.999Z</time></trkpt><trkpt lat="42.11421477653847" lon="19.574288727778647"><ele>56.0</ele><time>2026-05-03T09:05:19.999Z</time></trkpt><trkpt lat="42.11421489062332" lon="19.574448597942887"><ele>55.99999999999999</ele><time>2026-05-03T09:05:21.999Z</time></trkpt><trkpt lat="42.114217430974804" lon="19.57457211239417"><ele>55.99999999999999</ele><time>2026-05-03T09:05:23.999Z</time></trkpt><trkpt lat="42.114217633428275" lon="19.574694943179782"><ele>56.0</ele><time>2026-05-03T09:05:34.999Z</time></trkpt><trkpt lat="42.11421394684974" lon="19.574797843751448"><ele>56.0</ele><time>2026-05-03T09:05:37.999Z</time></trkpt><trkpt lat="42.114212869299614" lon="19.574917046570647"><ele>55.714285714285715</ele><time>2026-05-03T09:05:39.999Z</time></trkpt><trkpt lat="42.114204987405955" lon="19.57502864498535"><ele>55.42857142857143</ele><time>2026-05-03T09:07:30Z</time></trkpt><trkpt lat="42.11420853287399" lon="19.575117927953308"><ele>55.14285714285714</ele><time>2026-05-03T09:07:31Z</time></trkpt><trkpt lat="42.1142131131276" lon="19.575215698987158"><ele>54.85714285714286</ele><time>2026-05-03T09:07:32Z</time></trkpt><trkpt lat="42.11420940626367" lon="19.575317305191213"><ele>54.57142857142857</ele><time>2026-05-03T09:07:33Z</time></trkpt><trkpt lat="42.11420089577606" lon="19.575416944347964"><ele>54.285714285714285</ele><time>2026-05-03T09:07:34Z</time></trkpt><trkpt lat="42.114196250035356" lon="19.57551686043343"><ele>54.0</ele><time>2026-05-03T09:07:35Z</time></trkpt><trkpt lat="42.114196231433" lon="19.57561470082302"><ele>54.0</ele><time>2026-05-03T09:07:36Z</time></trkpt><trkpt lat="42.114196484884424" lon="19.57570674478149"><ele>54.00000000000001</ele><time>2026-05-03T09:07:36.999Z</time></trkpt><trkpt lat="42.114196861823785" lon="19.57586067117961"><ele>54.00000000000001</ele><time>2026-05-03T09:07:38.999Z</time></trkpt><trkpt lat="42.11418859872395" lon="19.575969771556398"><ele>54.0</ele><time>2026-05-03T09:07:40.999Z</time></trkpt><trkpt lat="42.114241741948454" lon="19.576063944397696"><ele>54.0</ele><time>2026-05-03T09:07:43.999Z</time></trkpt><trkpt lat="42.11433721197701" lon="19.57610882302046"><ele>54.0</ele><time>2026-05-03T09:07:45.999Z</time></trkpt><trkpt lat="42.1143956558234" lon="19.576158621938816"><ele>54.00000000000001</ele><time>2026-05-03T09:07:47.999Z</time></trkpt><trkpt lat="42.114494841652736" lon="19.57623499382956"><ele>54.00000000000001</ele><time>2026-05-03T09:07:49.999Z</time></trkpt><trkpt lat="42.1145904839229" lon="19.57633027336824"><ele>54.0</ele><time>2026-05-03T09:07:51.999Z</time></trkpt><trkpt lat="42.11466370570646" lon="19.57643126897153"><ele>54.0</ele><time>2026-05-03T09:07:53.999Z</time></trkpt><trkpt lat="42.11471264150522" lon="19.57637149177055"><ele>54.0</ele><time>2026-05-03T09:07:56.999Z</time></trkpt><trkpt lat="42.11466440003802" lon="19.576290910187137"><ele>54.00000000000001</ele><time>2026-05-03T09:07:58.999Z</time></trkpt><trkpt lat="42.114609293783" lon="19.57621029421751"><ele>54.00000000000001</ele><time>2026-05-03T09:08:00.999Z</time></trkpt><trkpt lat="42.114546242822314" lon="19.576119674976457"><ele>54.0</ele><time>2026-05-03T09:08:02.999Z</time></trkpt><trkpt lat="42.11447882071848" lon="19.576016163042205"><ele>54.0</ele><time>2026-05-03T09:08:04.999Z</time></trkpt><trkpt lat="42.11449294543118" lon="19.575883948454877"><ele>54.0</ele><time>2026-05-03T09:08:07.999Z</time></trkpt><trkpt lat="42.114500592094394" lon="19.57576749563085"><ele>54.00000000000001</ele><time>2026-05-03T09:08:10.999Z</time></trkpt><trkpt lat="42.11449628263369" lon="19.575655678773344"><ele>54.00000000000001</ele><time>2026-05-03T09:08:16.999Z</time></trkpt><trkpt lat="42.1144910713343" lon="19.575548367445652"><ele>54.0</ele><time>2026-05-03T09:08:18.999Z</time></trkpt><trkpt lat="42.11449286655639" lon="19.575433230758215"><ele>54.0</ele><time>2026-05-03T09:08:21.999Z</time></trkpt><trkpt lat="42.114491554310646" lon="19.57527344167314"><ele>53.0</ele><time>2026-05-03T09:08:23.999Z</time></trkpt><trkpt lat="42.114486811930824" lon="19.575164412844927"><ele>52.0</ele><time>2026-05-03T09:08:25.999Z</time></trkpt><trkpt lat="42.11448402383729" lon="19.575049700301577"><ele>51.0</ele><time>2026-05-03T09:08:27.999Z</time></trkpt><trkpt lat="42.11449188713358" lon="19.574919274258217"><ele>50.0</ele><time>2026-05-03T09:09:06Z</time></trkpt><trkpt lat="42.11446291625849" lon="19.57479967729672"><ele>49.0</ele><time>2026-05-03T09:09:34Z</time></trkpt><trkpt lat="42.11443288668777" lon="19.57469220020841"><ele>48.0</ele><time>2026-05-03T09:09:36Z</time></trkpt><trkpt lat="42.114405333891334" lon="19.574578592636882"><ele>48.0</ele><time>2026-05-03T09:09:39Z</time></trkpt><trkpt lat="42.11444335818448" lon="19.574686648943267"><ele>48.0</ele><time>2026-05-03T09:10:38.999Z</time></trkpt><trkpt lat="42.11447137714822" lon="19.574809049985802"><ele>48.0</ele><time>2026-05-03T09:10:40.999Z</time></trkpt><trkpt lat="42.11449601134533" lon="19.57494481358776"><ele>48.0</ele><time>2026-05-03T09:10:42.999Z</time></trkpt><trkpt lat="42.114492201334166" lon="19.57507058733288"><ele>48.0</ele><time>2026-05-03T09:10:44.999Z</time></trkpt><trkpt lat="42.11448625374694" lon="19.57519689080626"><ele>48.0</ele><time>2026-05-03T09:11:20Z</time></trkpt><trkpt lat="42.11448872416023" lon="19.575329822617952"><ele>48.0</ele><time>2026-05-03T09:11:22Z</time></trkpt><trkpt lat="42.114489744236955" lon="19.575417976917876"><ele>48.0</ele><time>2026-05-03T09:11:23Z</time></trkpt><trkpt lat="42.1144979652302" lon="19.575590459089916"><ele>48.0</ele><time>2026-05-03T09:11:25Z</time></trkpt><trkpt lat="42.114491939837244" lon="19.575686674287763"><ele>48.0</ele><time>2026-05-03T09:11:26Z</time></trkpt><trkpt lat="42.11450191229764" lon="19.575785997207205"><ele>48.0</ele><time>2026-05-03T09:11:31Z</time></trkpt><trkpt lat="42.11449799919902" lon="19.575871281172425"><ele>49.5</ele><time>2026-05-03T09:11:33Z</time></trkpt><trkpt lat="42.114482687863074" lon="19.57603459293534"><ele>51.0</ele><time>2026-05-03T09:11:35Z</time></trkpt><trkpt lat="42.11457205753638" lon="19.576177928821906"><ele>52.5</ele><time>2026-05-03T09:11:37Z</time></trkpt><trkpt lat="42.11465094409141" lon="19.576277341157354"><ele>54.0</ele><time>2026-05-03T09:11:38Z</time></trkpt><trkpt lat="42.114711755135325" lon="19.57636749039385"><ele>54.0</ele><time>2026-05-03T09:11:39Z</time></trkpt><trkpt lat="42.11469129312892" lon="19.576457183066747"><ele>54.0</ele><time>2026-05-03T09:11:42Z</time></trkpt><trkpt lat="42.114599352798315" lon="19.57635905015341"><ele>54.0</ele><time>2026-05-03T09:11:45Z</time></trkpt><trkpt lat="42.114562215597424" lon="19.57626726600074"><ele>54.0</ele><time>2026-05-03T09:11:46Z</time></trkpt><trkpt lat="42.11446187825023" lon="19.576185639977428"><ele>54.0</ele><time>2026-05-03T09:11:48Z</time></trkpt><trkpt lat="42.11439833542986" lon="19.576157145531248"><ele>54.0</ele><time>2026-05-03T09:11:49Z</time></trkpt><trkpt lat="42.11433211776049" lon="19.576102505572315"><ele>54.0</ele><time>2026-05-03T09:11:50Z</time></trkpt><trkpt lat="42.11427511368863" lon="19.57604111538297"><ele>54.0</ele><time>2026-05-03T09:11:51Z</time></trkpt><trkpt lat="42.11422251410078" lon="19.575990269339798"><ele>54.0</ele><time>2026-05-03T09:16:15.999Z</time></trkpt><trkpt lat="42.11417652119095" lon="19.57588015531024"><ele>54.0</ele><time>2026-05-03T09:16:18.999Z</time></trkpt><trkpt lat="42.11417470512981" lon="19.575733397499558"><ele>54.0</ele><time>2026-05-03T09:16:20.999Z</time></trkpt><trkpt lat="42.114176582736164" lon="19.575633498584104"><ele>54.0</ele><time>2026-05-03T09:16:21.999Z</time></trkpt><trkpt lat="42.11418104574667" lon="19.575525745547015"><ele>54.0</ele><time>2026-05-03T09:16:22.999Z</time></trkpt><trkpt lat="42.1141872718994" lon="19.57540947387704"><ele>54.0</ele><time>2026-05-03T09:16:23.999Z</time></trkpt><trkpt lat="42.11419035057234" lon="19.575290976525032"><ele>54.0</ele><time>2026-05-03T09:16:24.999Z</time></trkpt><trkpt lat="42.11419126465017" lon="19.575176022051508"><ele>54.0</ele><time>2026-05-03T09:16:25.999Z</time></trkpt><trkpt lat="42.11419231824961" lon="19.575084828043998"><ele>54.0</ele><time>2026-05-03T09:16:26.999Z</time></trkpt><trkpt lat="42.114194087468114" lon="19.574992415719315"><ele>54.0</ele><time>2026-05-03T09:16:28.999Z</time></trkpt><trkpt lat="42.114189414219176" lon="19.5748921461779"><ele>54.400000000000006</ele><time>2026-05-03T09:16:30.999Z</time></trkpt><trkpt lat="42.11419085140392" lon="19.574745142955617"><ele>54.800000000000004</ele><time>2026-05-03T09:16:32.999Z</time></trkpt><trkpt lat="42.11419271695855" lon="19.574613514642753"><ele>55.199999999999996</ele><time>2026-05-03T09:16:34.999Z</time></trkpt><trkpt lat="42.114199168571375" lon="19.57450226545453"><ele>55.599999999999994</ele><time>2026-05-03T09:16:36.999Z</time></trkpt><trkpt lat="42.11420053317116" lon="19.574402127570355"><ele>56.0</ele><time>2026-05-03T09:16:38.999Z</time></trkpt><trkpt lat="42.114195299726724" lon="19.574277103508763"><ele>56.0</ele><time>2026-05-03T09:16:40.999Z</time></trkpt><trkpt lat="42.11412583299851" lon="19.57414757786242"><ele>55.99999999999999</ele><time>2026-05-03T09:16:42.999Z</time></trkpt><trkpt lat="42.114042855651284" lon="19.574025202608222"><ele>55.99999999999999</ele><time>2026-05-03T09:16:44.999Z</time></trkpt><trkpt lat="42.11399315163187" lon="19.573968399140234"><ele>56.0</ele><time>2026-05-03T09:16:45.999Z</time></trkpt><trkpt lat="42.11394201978715" lon="19.573911367668668"><ele>56.0</ele><time>2026-05-03T09:16:46.999Z</time></trkpt><trkpt lat="42.11386588776075" lon="19.57381138920652"><ele>56.00000000000001</ele><time>2026-05-03T09:16:48.999Z</time></trkpt><trkpt lat="42.11380672221095" lon="19.573710499856023"><ele>56.0</ele><time>2026-05-03T09:16:50.999Z</time></trkpt><trkpt lat="42.11386728939875" lon="19.573646396690435"><ele>56.0</ele><time>2026-05-03T09:16:53.999Z</time></trkpt><trkpt lat="42.113938889404444" lon="19.57366804538676"><ele>56.0</ele><time>2026-05-03T09:16:54.999Z</time></trkpt><trkpt lat="42.11400867147948" lon="19.573707721917263"><ele>56.00000000000001</ele><time>2026-05-03T09:16:55.999Z</time></trkpt><trkpt lat="42.114082716969875" lon="19.573732796276847"><ele>56.0</ele><time>2026-05-03T09:16:56.999Z</time></trkpt><trkpt lat="42.114153739652245" lon="19.573772095235626"><ele>56.00000000000001</ele><time>2026-05-03T09:16:57.999Z</time></trkpt><trkpt lat="42.114230426996016" lon="19.573804460504597"><ele>56.0</ele><time>2026-05-03T09:16:58.999Z</time></trkpt><trkpt lat="42.11430074176475" lon="19.573836713132433"><ele>56.0</ele><time>2026-05-03T09:16:59.999Z</time></trkpt><trkpt lat="42.114366991548295" lon="19.573860053665918"><ele>56.0</ele><time>2026-05-03T09:17:00.999Z</time></trkpt><trkpt lat="42.114446081741214" lon="19.57388372373239"><ele>56.00000000000001</ele><time>2026-05-03T09:17:02.999Z</time></trkpt><trkpt lat="42.11452821867845" lon="19.573923721113044"><ele>56.0</ele><time>2026-05-03T09:17:11.999Z</time></trkpt><trkpt lat="42.114622874576604" lon="19.57394953301083"><ele>56.00000000000001</ele><time>2026-05-03T09:17:13.999Z</time></trkpt><trkpt lat="42.114711658874064" lon="19.573994718371406"><ele>56.0</ele><time>2026-05-03T09:17:15.999Z</time></trkpt><trkpt lat="42.11478176445787" lon="19.574057158727904"><ele>56.0</ele><time>2026-05-03T09:17:17.999Z</time></trkpt><trkpt lat="42.114836740631894" lon="19.574099508949825"><ele>56.0</ele><time>2026-05-03T09:17:19.999Z</time></trkpt><trkpt lat="42.114907330651064" lon="19.574109543318713"><ele>56.00000000000001</ele><time>2026-05-03T09:17:23Z</time></trkpt><trkpt lat="42.11500559291874" lon="19.574135395030165"><ele>56.0</ele><time>2026-05-03T09:17:25Z</time></trkpt><trkpt lat="42.11507346141932" lon="19.57416264326183"><ele>56.199999999999996</ele><time>2026-05-03T09:17:26Z</time></trkpt><trkpt lat="42.11514462276486" lon="19.574198644191224"><ele>56.39999999999999</ele><time>2026-05-03T09:17:27Z</time></trkpt><trkpt lat="42.11522835911427" lon="19.57424605587144"><ele>56.6</ele><time>2026-05-03T09:17:28Z</time></trkpt><trkpt lat="42.11531138774017" lon="19.574305477583174"><ele>56.8</ele><time>2026-05-03T09:17:29Z</time></trkpt><trkpt lat="42.11539770517716" lon="19.574371187659143"><ele>57.0</ele><time>2026-05-03T09:17:30Z</time></trkpt><trkpt lat="42.115488944212714" lon="19.57443801277732"><ele>57.0</ele><time>2026-05-03T09:17:31Z</time></trkpt><trkpt lat="42.11558959328881" lon="19.5745142603086"><ele>57.0</ele><time>2026-05-03T09:17:32Z</time></trkpt><trkpt lat="42.115684427439184" lon="19.57458859257979"><ele>57.0</ele><time>2026-05-03T09:17:33Z</time></trkpt><trkpt lat="42.11578617874607" lon="19.57467223920724"><ele>57.0</ele><time>2026-05-03T09:17:34Z</time></trkpt><trkpt lat="42.115894713462595" lon="19.574769010329344"><ele>56.33333333333333</ele><time>2026-05-03T09:17:35Z</time></trkpt><trkpt lat="42.11600991926858" lon="19.574887520833723"><ele>55.666666666666664</ele><time>2026-05-03T09:17:36Z</time></trkpt><trkpt lat="42.11613347410395" lon="19.57502515004549"><ele>55.0</ele><time>2026-05-03T09:17:37Z</time></trkpt><trkpt lat="42.11626219851811" lon="19.57516915143606"><ele>55.0</ele><time>2026-05-03T09:17:38Z</time></trkpt><trkpt lat="42.11639962803481" lon="19.57530452335802"><ele>55.0</ele><time>2026-05-03T09:17:39Z</time></trkpt><trkpt lat="42.116565815940554" lon="19.575409193019976"><ele>55.0</ele><time>2026-05-03T09:17:40Z</time></trkpt><trkpt lat="42.11672217063565" lon="19.57547512004367"><ele>55.0</ele><time>2026-05-03T09:17:41Z</time></trkpt><trkpt lat="42.11683285247844" lon="19.57550617086971"><ele>55.0</ele><time>2026-05-03T09:17:42Z</time></trkpt><trkpt lat="42.116906221894325" lon="19.57552117520338"><ele>55.0</ele><time>2026-05-03T09:17:43Z</time></trkpt><trkpt lat="42.11700400897524" lon="19.57553692106445"><ele>55.0</ele><time>2026-05-03T09:17:45Z</time></trkpt><trkpt lat="42.11709772793233" lon="19.57558570138313"><ele>55.0</ele><time>2026-05-03T09:17:47Z</time></trkpt><trkpt lat="42.11719117539889" lon="19.575626834237656"><ele>55.0</ele><time>2026-05-03T09:17:48Z</time></trkpt><trkpt lat="42.117311948731704" lon="19.575669309935325"><ele>55.0</ele><time>2026-05-03T09:17:49Z</time></trkpt><trkpt lat="42.11744547410327" lon="19.575714773364677"><ele>55.0</ele><time>2026-05-03T09:17:50Z</time></trkpt><trkpt lat="42.117604160878585" lon="19.57576910666445"><ele>55.0</ele><time>2026-05-03T09:17:51Z</time></trkpt><trkpt lat="42.11776897897155" lon="19.575830463902328"><ele>56.33333333333333</ele><time>2026-05-03T09:17:52Z</time></trkpt><trkpt lat="42.117942923551325" lon="19.57589976194385"><ele>57.66666666666667</ele><time>2026-05-03T09:17:53Z</time></trkpt><trkpt lat="42.118125901318564" lon="19.575969236752314"><ele>59.0</ele><time>2026-05-03T09:17:54Z</time></trkpt><trkpt lat="42.11830841860164" lon="19.576018778333843"><ele>60.0</ele><time>2026-05-03T09:17:55Z</time></trkpt><trkpt lat="42.11850222074567" lon="19.576035680277993"><ele>61.0</ele><time>2026-05-03T09:17:56Z</time></trkpt><trkpt lat="42.11870031395091" lon="19.57602767286343"><ele>62.0</ele><time>2026-05-03T09:17:57Z</time></trkpt><trkpt lat="42.11889934852966" lon="19.576022840312135"><ele>62.0</ele><time>2026-05-03T09:17:58Z</time></trkpt><trkpt lat="42.11909839650524" lon="19.576034631691577"><ele>62.0</ele><time>2026-05-03T09:17:59Z</time></trkpt><trkpt lat="42.11929457456728" lon="19.576062273779012"><ele>62.0</ele><time>2026-05-03T09:18:00Z</time></trkpt><trkpt lat="42.1194687821802" lon="19.576110035610636"><ele>62.0</ele><time>2026-05-03T09:18:01Z</time></trkpt><trkpt lat="42.119612767993615" lon="19.57615661551153"><ele>62.0</ele><time>2026-05-03T09:18:02Z</time></trkpt><trkpt lat="42.11972337249163" lon="19.57618760702038"><ele>62.0</ele><time>2026-05-03T09:18:03Z</time></trkpt><trkpt lat="42.11981119779228" lon="19.57618317293213"><ele>62.0</ele><time>2026-05-03T09:18:04Z</time></trkpt><trkpt lat="42.1198908983431" lon="19.576154959460826"><ele>62.0</ele><time>2026-05-03T09:18:05Z</time></trkpt><trkpt lat="42.11997259032365" lon="19.57613248499634"><ele>62.333333333333336</ele><time>2026-05-03T09:18:08Z</time></trkpt><trkpt lat="42.12005429801058" lon="19.57609611640863"><ele>62.66666666666667</ele><time>2026-05-03T09:18:10Z</time></trkpt><trkpt lat="42.12015008218147" lon="19.57604942339137"><ele>63.0</ele><time>2026-05-03T09:18:13Z</time></trkpt><trkpt lat="42.12023594267813" lon="19.576000545682646"><ele>63.33333333333333</ele><time>2026-05-03T09:18:16Z</time></trkpt><trkpt lat="42.12029766928971" lon="19.576033724933822"><ele>63.666666666666664</ele><time>2026-05-03T09:18:17Z</time></trkpt><trkpt lat="42.12037593943451" lon="19.576076041144276"><ele>64.0</ele><time>2026-05-03T09:18:18Z</time></trkpt><trkpt lat="42.12047269095913" lon="19.57611982136464"><ele>64.0</ele><time>2026-05-03T09:18:19Z</time></trkpt><trkpt lat="42.120585647719004" lon="19.57617144648847"><ele>64.0</ele><time>2026-05-03T09:18:20Z</time></trkpt><trkpt lat="42.120692700446305" lon="19.57622461891299"><ele>64.0</ele><time>2026-05-03T09:18:21Z</time></trkpt><trkpt lat="42.12079799059955" lon="19.576282991116187"><ele>64.0</ele><time>2026-05-03T09:18:22Z</time></trkpt><trkpt lat="42.120903173541265" lon="19.576355702247348"><ele>63.25</ele><time>2026-05-03T09:18:23Z</time></trkpt><trkpt lat="42.12100298870742" lon="19.576449029416306"><ele>62.5</ele><time>2026-05-03T09:18:24Z</time></trkpt><trkpt lat="42.121093230041176" lon="19.57654665851853"><ele>61.75</ele><time>2026-05-03T09:18:25Z</time></trkpt><trkpt lat="42.12118133102196" lon="19.576635212272766"><ele>61.0</ele><time>2026-05-03T09:18:26Z</time></trkpt><trkpt lat="42.121269732132724" lon="19.57671870303943"><ele>61.0</ele><time>2026-05-03T09:18:27Z</time></trkpt><trkpt lat="42.12135206977521" lon="19.576785951139957"><ele>61.0</ele><time>2026-05-03T09:18:28Z</time></trkpt><trkpt lat="42.12145155249661" lon="19.57685962911105"><ele>61.0</ele><time>2026-05-03T09:18:29Z</time></trkpt><trkpt lat="42.12155259863625" lon="19.576935088549074"><ele>61.0</ele><time>2026-05-03T09:18:30Z</time></trkpt><trkpt lat="42.1216591783666" lon="19.577026455099666"><ele>60.0</ele><time>2026-05-03T09:18:31Z</time></trkpt><trkpt lat="42.12176571078672" lon="19.57713214842268"><ele>59.0</ele><time>2026-05-03T09:18:32Z</time></trkpt><trkpt lat="42.12188561415518" lon="19.577245854487842"><ele>58.0</ele><time>2026-05-03T09:18:33Z</time></trkpt><trkpt lat="42.12201181004283" lon="19.577354314082573"><ele>57.0</ele><time>2026-05-03T09:18:34Z</time></trkpt><trkpt lat="42.12215568754389" lon="19.577441655332724"><ele>57.0</ele><time>2026-05-03T09:18:35Z</time></trkpt><trkpt lat="42.12232091619808" lon="19.577504579244966"><ele>57.0</ele><time>2026-05-03T09:18:36Z</time></trkpt><trkpt lat="42.12250326284802" lon="19.57756949265729"><ele>57.0</ele><time>2026-05-03T09:18:37Z</time></trkpt><trkpt lat="42.122690812685256" lon="19.57764775214552"><ele>57.33333333333333</ele><time>2026-05-03T09:18:38Z</time></trkpt><trkpt lat="42.122887059144205" lon="19.577742747584356"><ele>57.666666666666664</ele><time>2026-05-03T09:18:39Z</time></trkpt><trkpt lat="42.123084225752194" lon="19.57783866094223"><ele>58.0</ele><time>2026-05-03T09:18:40Z</time></trkpt><trkpt lat="42.123267245206634" lon="19.577910815347433"><ele>58.0</ele><time>2026-05-03T09:18:41Z</time></trkpt><trkpt lat="42.12344008786166" lon="19.577940098572878"><ele>58.0</ele><time>2026-05-03T09:18:42Z</time></trkpt><trkpt lat="42.1235908019115" lon="19.57794821639808"><ele>58.0</ele><time>2026-05-03T09:18:43Z</time></trkpt><trkpt lat="42.123721173562565" lon="19.577988107413635"><ele>58.0</ele><time>2026-05-03T09:18:44Z</time></trkpt><trkpt lat="42.12385547100823" lon="19.578081384121898"><ele>58.0</ele><time>2026-05-03T09:18:45Z</time></trkpt><trkpt lat="42.12399001344873" lon="19.578212050205707"><ele>58.0</ele><time>2026-05-03T09:18:46Z</time></trkpt><trkpt lat="42.12413123036555" lon="19.578361176279017"><ele>57.666666666666664</ele><time>2026-05-03T09:18:47Z</time></trkpt><trkpt lat="42.12428895392713" lon="19.578516393983392"><ele>57.33333333333333</ele><time>2026-05-03T09:18:48Z</time></trkpt><trkpt lat="42.12445674094401" lon="19.578666652563538"><ele>57.0</ele><time>2026-05-03T09:18:48.999Z</time></trkpt><trkpt lat="42.12463235282724" lon="19.578813443007707"><ele>57.0</ele><time>2026-05-03T09:18:49.999Z</time></trkpt><trkpt lat="42.124805031008876" lon="19.578960556567583"><ele>57.0</ele><time>2026-05-03T09:18:50.999Z</time></trkpt><trkpt lat="42.124950377064465" lon="19.57910782590558"><ele>57.0</ele><time>2026-05-03T09:18:51.999Z</time></trkpt><trkpt lat="42.125064352288696" lon="19.579265083297493"><ele>58.0</ele><time>2026-05-03T09:18:52.999Z</time></trkpt><trkpt lat="42.125165256365115" lon="19.57944846580899"><ele>59.0</ele><time>2026-05-03T09:18:53.999Z</time></trkpt><trkpt lat="42.12526471461298" lon="19.57965184735173"><ele>60.0</ele><time>2026-05-03T09:18:54.999Z</time></trkpt><trkpt lat="42.125376480386834" lon="19.579853979521545"><ele>60.0</ele><time>2026-05-03T09:18:55.999Z</time></trkpt><trkpt lat="42.125506484886756" lon="19.58003729336214"><ele>60.0</ele><time>2026-05-03T09:18:56.999Z</time></trkpt><trkpt lat="42.12563656474277" lon="19.58021493638484"><ele>60.0</ele><time>2026-05-03T09:18:57.999Z</time></trkpt><trkpt lat="42.1257425990521" lon="19.580392431149228"><ele>62.0</ele><time>2026-05-03T09:18:58.999Z</time></trkpt><trkpt lat="42.12582084349938" lon="19.580575258819614"><ele>64.0</ele><time>2026-05-03T09:18:59.999Z</time></trkpt><trkpt lat="42.125883039063794" lon="19.58076124473931"><ele>66.0</ele><time>2026-05-03T09:19:00.999Z</time></trkpt><trkpt lat="42.12594688776044" lon="19.580953050657392"><ele>66.0</ele><time>2026-05-03T09:19:01.999Z</time></trkpt><trkpt lat="42.12601060577338" lon="19.58113715029298"><ele>66.0</ele><time>2026-05-03T09:19:02.999Z</time></trkpt><trkpt lat="42.12607394881636" lon="19.581320689063094"><ele>66.0</ele><time>2026-05-03T09:19:03.999Z</time></trkpt><trkpt lat="42.12613739340017" lon="19.581489293991847"><ele>66.0</ele><time>2026-05-03T09:19:04.999Z</time></trkpt><trkpt lat="42.12619271234457" lon="19.581643430210974"><ele>65.39999999999999</ele><time>2026-05-03T09:19:05.999Z</time></trkpt><trkpt lat="42.12623352629185" lon="19.581756181350706"><ele>64.8</ele><time>2026-05-03T09:19:06.999Z</time></trkpt><trkpt lat="42.12626781467382" lon="19.581869014984708"><ele>64.19999999999999</ele><time>2026-05-03T09:19:07.999Z</time></trkpt><trkpt lat="42.12631045146001" lon="19.58200227351943"><ele>63.599999999999994</ele><time>2026-05-03T09:19:08.999Z</time></trkpt><trkpt lat="42.126356758296026" lon="19.582142496050487"><ele>63.0</ele><time>2026-05-03T09:19:09.999Z</time></trkpt><trkpt lat="42.12640338889821" lon="19.58229180164485"><ele>63.5</ele><time>2026-05-03T09:19:10.999Z</time></trkpt><trkpt lat="42.12644494914076" lon="19.582441428388947"><ele>64.0</ele><time>2026-05-03T09:19:11.999Z</time></trkpt><trkpt lat="42.12648215815343" lon="19.582600644561907"><ele>64.5</ele><time>2026-05-03T09:19:12.999Z</time></trkpt><trkpt lat="42.1265209871041" lon="19.582766746083966"><ele>65.0</ele><time>2026-05-03T09:19:13.999Z</time></trkpt><trkpt lat="42.12656416394269" lon="19.582931683630097"><ele>65.0</ele><time>2026-05-03T09:19:14.999Z</time></trkpt><trkpt lat="42.126606683161484" lon="19.583100866722916"><ele>65.0</ele><time>2026-05-03T09:19:15.999Z</time></trkpt><trkpt lat="42.126643397978164" lon="19.583272430874075"><ele>65.0</ele><time>2026-05-03T09:19:16.999Z</time></trkpt><trkpt lat="42.12667981801812" lon="19.58343935240165"><ele>65.0</ele><time>2026-05-03T09:19:17.999Z</time></trkpt><trkpt lat="42.126728311586426" lon="19.583593871416006"><ele>64.0</ele><time>2026-05-03T09:19:18.999Z</time></trkpt><trkpt lat="42.1267979732216" lon="19.583735235855823"><ele>63.0</ele><time>2026-05-03T09:19:19.999Z</time></trkpt><trkpt lat="42.126882412005685" lon="19.583865536646357"><ele>62.0</ele><time>2026-05-03T09:19:20.999Z</time></trkpt><trkpt lat="42.12697454109433" lon="19.583986472104957"><ele>61.0</ele><time>2026-05-03T09:19:21.999Z</time></trkpt><trkpt lat="42.12706432031246" lon="19.584090181529834"><ele>61.0</ele><time>2026-05-03T09:19:22.999Z</time></trkpt><trkpt lat="42.127149850713046" lon="19.58418931229296"><ele>61.0</ele><time>2026-05-03T09:19:23.999Z</time></trkpt><trkpt lat="42.1272308851345" lon="19.584281185495335"><ele>61.0</ele><time>2026-05-03T09:19:24.999Z</time></trkpt><trkpt lat="42.12732086921792" lon="19.58438409577274"><ele>61.0</ele><time>2026-05-03T09:19:27Z</time></trkpt><trkpt lat="42.12742451154697" lon="19.584496100791167"><ele>61.0</ele><time>2026-05-03T09:19:29Z</time></trkpt><trkpt lat="42.127471904810385" lon="19.58455651232914"><ele>60.99999999999999</ele><time>2026-05-03T09:19:30Z</time></trkpt><trkpt lat="42.12754525824269" lon="19.584677280002644"><ele>60.99999999999999</ele><time>2026-05-03T09:19:32Z</time></trkpt><trkpt lat="42.12765976374749" lon="19.584704685677252"><ele>61.0</ele><time>2026-05-03T09:19:34Z</time></trkpt><trkpt lat="42.12773375130122" lon="19.584685380396497"><ele>61.0</ele><time>2026-05-03T09:19:35Z</time></trkpt><trkpt lat="42.12781893782267" lon="19.584675696558815"><ele>61.0</ele><time>2026-05-03T09:19:36Z</time></trkpt><trkpt lat="42.12789664850757" lon="19.584687948156972"><ele>60.99999999999999</ele><time>2026-05-03T09:19:37Z</time></trkpt><trkpt lat="42.12797581970655" lon="19.584717494345732"><ele>60.99999999999999</ele><time>2026-05-03T09:19:38Z</time></trkpt><trkpt lat="42.12805542146932" lon="19.584776111073904"><ele>61.0</ele><time>2026-05-03T09:19:39Z</time></trkpt><trkpt lat="42.12814531020423" lon="19.584853452410204"><ele>61.0</ele><time>2026-05-03T09:19:40Z</time></trkpt><trkpt lat="42.12824205810142" lon="19.584934213840135"><ele>60.75</ele><time>2026-05-03T09:19:41Z</time></trkpt><trkpt lat="42.12834489956612" lon="19.58501920364968"><ele>60.5</ele><time>2026-05-03T09:19:42Z</time></trkpt><trkpt lat="42.128452956658386" lon="19.5851213853891"><ele>60.25</ele><time>2026-05-03T09:19:43Z</time></trkpt><trkpt lat="42.12855935192062" lon="19.58522776448527"><ele>60.0</ele><time>2026-05-03T09:19:44Z</time></trkpt><trkpt lat="42.128639907898666" lon="19.58533208613358"><ele>60.666666666666664</ele><time>2026-05-03T09:19:45Z</time></trkpt><trkpt lat="42.12866691976502" lon="19.585439330471655"><ele>61.33333333333333</ele><time>2026-05-03T09:19:46Z</time></trkpt><trkpt lat="42.12863999849093" lon="19.58552831826208"><ele>62.0</ele><time>2026-05-03T09:19:47Z</time></trkpt><trkpt lat="42.128551370280995" lon="19.585660390012045"><ele>62.666666666666664</ele><time>2026-05-03T09:19:49Z</time></trkpt><trkpt lat="42.12848748401215" lon="19.58573888203803"><ele>63.33333333333333</ele><time>2026-05-03T09:19:50Z</time></trkpt><trkpt lat="42.12843831728455" lon="19.58579563263821"><ele>64.0</ele><time>2026-05-03T09:19:51Z</time></trkpt><trkpt lat="42.12849718062842" lon="19.58568285892629"><ele>64.0</ele><time>2026-05-03T09:20:00Z</time></trkpt><trkpt lat="42.128581700100085" lon="19.585540046758766"><ele>64.0</ele><time>2026-05-03T09:20:02Z</time></trkpt><trkpt lat="42.128618311566555" lon="19.58544997758843"><ele>64.0</ele><time>2026-05-03T09:20:03Z</time></trkpt><trkpt lat="42.12858716867471" lon="19.58527611055081"><ele>64.0</ele><time>2026-05-03T09:20:05Z</time></trkpt><trkpt lat="42.12852480222848" lon="19.585176363411332"><ele>64.0</ele><time>2026-05-03T09:20:06Z</time></trkpt><trkpt lat="42.12844201818263" lon="19.585098378841355"><ele>63.25</ele><time>2026-05-03T09:20:07Z</time></trkpt><trkpt lat="42.12834393530523" lon="19.58501698375828"><ele>62.5</ele><time>2026-05-03T09:20:08Z</time></trkpt><trkpt lat="42.12823874841603" lon="19.584916800934565"><ele>61.75</ele><time>2026-05-03T09:20:09Z</time></trkpt><trkpt lat="42.12813066209312" lon="19.584819571788447"><ele>61.0</ele><time>2026-05-03T09:20:10Z</time></trkpt><trkpt lat="42.12800973973991" lon="19.58472671292487"><ele>61.0</ele><time>2026-05-03T09:20:11Z</time></trkpt><trkpt lat="42.12788348312484" lon="19.584649296331943"><ele>61.0</ele><time>2026-05-03T09:20:12Z</time></trkpt><trkpt lat="42.12774667941857" lon="19.584611544352793"><ele>61.0</ele><time>2026-05-03T09:20:13Z</time></trkpt><trkpt lat="42.12760195725752" lon="19.584615483239773"><ele>61.0</ele><time>2026-05-03T09:20:14Z</time></trkpt><trkpt lat="42.12750439096013" lon="19.584612942971873"><ele>61.0</ele><time>2026-05-03T09:20:15Z</time></trkpt><trkpt lat="42.12743113364587" lon="19.58452827940423"><ele>61.0</ele><time>2026-05-03T09:20:16Z</time></trkpt><trkpt lat="42.127353006599876" lon="19.584400544004552"><ele>61.0</ele><time>2026-05-03T09:20:17Z</time></trkpt><trkpt lat="42.127253224051906" lon="19.584266912301945"><ele>61.0</ele><time>2026-05-03T09:20:18Z</time></trkpt><trkpt lat="42.12710961476518" lon="19.58410624407483"><ele>61.0</ele><time>2026-05-03T09:20:19Z</time></trkpt><trkpt lat="42.12694759275867" lon="19.58392141644083"><ele>61.0</ele><time>2026-05-03T09:20:20Z</time></trkpt><trkpt lat="42.1268212854604" lon="19.58374836056398"><ele>61.0</ele><time>2026-05-03T09:20:21Z</time></trkpt><trkpt lat="42.12673144631413" lon="19.583595035647967"><ele>62.33333333333333</ele><time>2026-05-03T09:20:22Z</time></trkpt><trkpt lat="42.126668123893865" lon="19.583426437496318"><ele>63.66666666666667</ele><time>2026-05-03T09:20:23Z</time></trkpt><trkpt lat="42.12662699743155" lon="19.583224858389624"><ele>65.0</ele><time>2026-05-03T09:20:24Z</time></trkpt><trkpt lat="42.12658503977433" lon="19.582999576581464"><ele>63.0</ele><time>2026-05-03T09:20:25Z</time></trkpt><trkpt lat="42.12652936380716" lon="19.58275899988903"><ele>61.0</ele><time>2026-05-03T09:20:26Z</time></trkpt><trkpt lat="42.126457779427824" lon="19.58248563420154"><ele>59.0</ele><time>2026-05-03T09:20:27Z</time></trkpt><trkpt lat="42.126378664684445" lon="19.58217432352595"><ele>61.0</ele><time>2026-05-03T09:20:28Z</time></trkpt><trkpt lat="42.12628885074763" lon="19.581874240687814"><ele>63.0</ele><time>2026-05-03T09:20:29Z</time></trkpt><trkpt lat="42.12617455265877" lon="19.581560757269948"><ele>63.0</ele><time>2026-05-03T09:20:30Z</time></trkpt><trkpt lat="42.12606364398571" lon="19.58128172586048"><ele>63.0</ele><time>2026-05-03T09:20:31Z</time></trkpt><trkpt lat="42.12597107559422" lon="19.581026427329096"><ele>63.0</ele><time>2026-05-03T09:20:32Z</time></trkpt><trkpt lat="42.12588869746302" lon="19.580789139783676"><ele>64.0</ele><time>2026-05-03T09:20:33Z</time></trkpt><trkpt lat="42.12581729190833" lon="19.58057247604919"><ele>65.0</ele><time>2026-05-03T09:20:34Z</time></trkpt><trkpt lat="42.12574154846294" lon="19.580377017331653"><ele>66.0</ele><time>2026-05-03T09:20:35Z</time></trkpt><trkpt lat="42.12564875888121" lon="19.58018963845626"><ele>64.0</ele><time>2026-05-03T09:20:36Z</time></trkpt><trkpt lat="42.125531410723546" lon="19.5800198051763"><ele>62.0</ele><time>2026-05-03T09:20:37Z</time></trkpt><trkpt lat="42.125397373277075" lon="19.579848218932014"><ele>60.0</ele><time>2026-05-03T09:20:38Z</time></trkpt><trkpt lat="42.12526594257939" lon="19.57965147191782"><ele>62.0</ele><time>2026-05-03T09:20:39Z</time></trkpt><trkpt lat="42.125150936525266" lon="19.579431327648575"><ele>64.0</ele><time>2026-05-03T09:20:40Z</time></trkpt><trkpt lat="42.12504896988563" lon="19.579236657892917"><ele>66.0</ele><time>2026-05-03T09:20:41Z</time></trkpt><trkpt lat="42.124938452554126" lon="19.579074739780136"><ele>65.33333333333333</ele><time>2026-05-03T09:20:42Z</time></trkpt><trkpt lat="42.12480390309572" lon="19.578928438671223"><ele>64.66666666666666</ele><time>2026-05-03T09:20:43Z</time></trkpt><trkpt lat="42.124637308651074" lon="19.57879044437122"><ele>64.0</ele><time>2026-05-03T09:20:44Z</time></trkpt><trkpt lat="42.12445495963057" lon="19.5786489578259"><ele>64.0</ele><time>2026-05-03T09:20:45Z</time></trkpt><trkpt lat="42.12427090901006" lon="19.578492727201034"><ele>64.0</ele><time>2026-05-03T09:20:46Z</time></trkpt><trkpt lat="42.124093561405836" lon="19.578322010457274"><ele>64.0</ele><time>2026-05-03T09:20:47Z</time></trkpt><trkpt lat="42.12395081005867" lon="19.57817323845401"><ele>62.0</ele><time>2026-05-03T09:20:48Z</time></trkpt><trkpt lat="42.123820726632786" lon="19.578051381673323"><ele>60.0</ele><time>2026-05-03T09:20:49Z</time></trkpt><trkpt lat="42.12369023778475" lon="19.5779545389147"><ele>58.0</ele><time>2026-05-03T09:20:50Z</time></trkpt><trkpt lat="42.123546218360254" lon="19.577897709843164"><ele>58.0</ele><time>2026-05-03T09:20:51Z</time></trkpt><trkpt lat="42.1233818271367" lon="19.577884922000717"><ele>58.0</ele><time>2026-05-03T09:20:52Z</time></trkpt><trkpt lat="42.1232015005434" lon="19.577866410978352"><ele>58.0</ele><time>2026-05-03T09:20:53Z</time></trkpt><trkpt lat="42.12301313018227" lon="19.57780386641317"><ele>61.666666666666664</ele><time>2026-05-03T09:20:54Z</time></trkpt><trkpt lat="42.12282676604158" lon="19.577720558385668"><ele>65.33333333333333</ele><time>2026-05-03T09:20:55Z</time></trkpt><trkpt lat="42.12262556672236" lon="19.577627754341616"><ele>69.0</ele><time>2026-05-03T09:20:56Z</time></trkpt><trkpt lat="42.122422535456344" lon="19.57753514629647"><ele>65.0</ele><time>2026-05-03T09:20:57Z</time></trkpt><trkpt lat="42.12224045876492" lon="19.577461642986396"><ele>61.0</ele><time>2026-05-03T09:20:58Z</time></trkpt><trkpt lat="42.12208239880664" lon="19.577392897668023"><ele>57.0</ele><time>2026-05-03T09:20:59Z</time></trkpt><trkpt lat="42.1219416882109" lon="19.5773066227397"><ele>57.0</ele><time>2026-05-03T09:21:00Z</time></trkpt><trkpt lat="42.12180460396296" lon="19.57718723284449"><ele>57.0</ele><time>2026-05-03T09:21:01Z</time></trkpt><trkpt lat="42.12166243464273" lon="19.577044370508673"><ele>57.0</ele><time>2026-05-03T09:21:02Z</time></trkpt><trkpt lat="42.12151110601602" lon="19.576908355776037"><ele>58.33333333333333</ele><time>2026-05-03T09:21:03Z</time></trkpt><trkpt lat="42.12135636263669" lon="19.57678027984061"><ele>59.666666666666664</ele><time>2026-05-03T09:21:04Z</time></trkpt><trkpt lat="42.12120691342146" lon="19.57665116255207"><ele>61.0</ele><time>2026-05-03T09:21:05Z</time></trkpt><trkpt lat="42.12108238325434" lon="19.57653821558184"><ele>61.0</ele><time>2026-05-03T09:21:05.999Z</time></trkpt><trkpt lat="42.12097067558972" lon="19.576425781293423"><ele>61.0</ele><time>2026-05-03T09:21:06.999Z</time></trkpt><trkpt lat="42.120857673430244" lon="19.576326770535402"><ele>61.0</ele><time>2026-05-03T09:21:07.999Z</time></trkpt><trkpt lat="42.12074312022257" lon="19.57624225548419"><ele>61.0</ele><time>2026-05-03T09:21:08.999Z</time></trkpt><trkpt lat="42.120611384546194" lon="19.57617506791093"><ele>61.599999999999994</ele><time>2026-05-03T09:21:09.999Z</time></trkpt><trkpt lat="42.12048574999244" lon="19.576120935962848"><ele>62.199999999999996</ele><time>2026-05-03T09:21:10.999Z</time></trkpt><trkpt lat="42.12037589366308" lon="19.57607548906738"><ele>62.800000000000004</ele><time>2026-05-03T09:21:11.999Z</time></trkpt><trkpt lat="42.12028107858023" lon="19.576045715516297"><ele>63.400000000000006</ele><time>2026-05-03T09:21:12.999Z</time></trkpt><trkpt lat="42.12021448809169" lon="19.576030135646334"><ele>64.0</ele><time>2026-05-03T09:21:13.999Z</time></trkpt><trkpt lat="42.12014513606172" lon="19.576005005692853"><ele>64.0</ele><time>2026-05-03T09:21:16.999Z</time></trkpt><trkpt lat="42.12011344779965" lon="19.57592487838367"><ele>64.0</ele><time>2026-05-03T09:21:19.999Z</time></trkpt><trkpt lat="42.12008361379924" lon="19.57581616463663"><ele>64.0</ele><time>2026-05-03T09:21:20.999Z</time></trkpt><trkpt lat="42.12007140051245" lon="19.575675583584857"><ele>64.0</ele><time>2026-05-03T09:21:21.999Z</time></trkpt><trkpt lat="42.120038932461135" lon="19.575519579259815"><ele>64.0</ele><time>2026-05-03T09:21:22.999Z</time></trkpt><trkpt lat="42.11999829796112" lon="19.575332871663406"><ele>65.0</ele><time>2026-05-03T09:21:23.999Z</time></trkpt><trkpt lat="42.119950859164604" lon="19.575103932423964"><ele>66.0</ele><time>2026-05-03T09:21:24.999Z</time></trkpt><trkpt lat="42.119916835469034" lon="19.574852551775933"><ele>67.0</ele><time>2026-05-03T09:21:25.999Z</time></trkpt><trkpt lat="42.11988682508806" lon="19.574602228274703"><ele>66.66666666666666</ele><time>2026-05-03T09:21:26.999Z</time></trkpt><trkpt lat="42.11985660765331" lon="19.574372719486696"><ele>66.33333333333333</ele><time>2026-05-03T09:21:27.999Z</time></trkpt><trkpt lat="42.119833923462174" lon="19.574171613381445"><ele>66.0</ele><time>2026-05-03T09:21:28.999Z</time></trkpt><trkpt lat="42.119828136561395" lon="19.573988479041127"><ele>66.0</ele><time>2026-05-03T09:21:29.999Z</time></trkpt><trkpt lat="42.11984810355594" lon="19.573799762295742"><ele>66.0</ele><time>2026-05-03T09:21:30.999Z</time></trkpt><trkpt lat="42.11988658072176" lon="19.57360984659761"><ele>66.0</ele><time>2026-05-03T09:21:31.999Z</time></trkpt><trkpt lat="42.119934148261535" lon="19.573428411676883"><ele>66.0</ele><time>2026-05-03T09:21:33Z</time></trkpt><trkpt lat="42.11998020542844" lon="19.573255076885346"><ele>66.5</ele><time>2026-05-03T09:21:34Z</time></trkpt><trkpt lat="42.12002503811755" lon="19.573086063441348"><ele>67.0</ele><time>2026-05-03T09:21:35Z</time></trkpt><trkpt lat="42.120075602449894" lon="19.572922222453027"><ele>67.5</ele><time>2026-05-03T09:21:36Z</time></trkpt><trkpt lat="42.12011996841196" lon="19.572761298968032"><ele>68.0</ele><time>2026-05-03T09:21:37Z</time></trkpt><trkpt lat="42.12014779221906" lon="19.5726170413829"><ele>68.0</ele><time>2026-05-03T09:21:38Z</time></trkpt><trkpt lat="42.12017014485819" lon="19.57246865150026"><ele>68.0</ele><time>2026-05-03T09:21:39Z</time></trkpt><trkpt lat="42.12018140814347" lon="19.572307753613103"><ele>68.0</ele><time>2026-05-03T09:21:40Z</time></trkpt><trkpt lat="42.12017981265347" lon="19.57213942979386"><ele>68.0</ele><time>2026-05-03T09:21:41Z</time></trkpt><trkpt lat="42.1201773586522" lon="19.571964258685767"><ele>68.0</ele><time>2026-05-03T09:21:42Z</time></trkpt><trkpt lat="42.12017022955616" lon="19.5717960083183"><ele>68.0</ele><time>2026-05-03T09:21:43Z</time></trkpt><trkpt lat="42.12016188360958" lon="19.57164750546601"><ele>68.0</ele><time>2026-05-03T09:21:44Z</time></trkpt><trkpt lat="42.120156137071504" lon="19.571518033639794"><ele>68.0</ele><time>2026-05-03T09:21:45Z</time></trkpt><trkpt lat="42.12014926308411" lon="19.57138817222272"><ele>68.0</ele><time>2026-05-03T09:21:46Z</time></trkpt><trkpt lat="42.12013917762714" lon="19.571245821011814"><ele>67.66666666666667</ele><time>2026-05-03T09:21:47Z</time></trkpt><trkpt lat="42.120138092941524" lon="19.57111473156861"><ele>67.33333333333334</ele><time>2026-05-03T09:21:48Z</time></trkpt><trkpt lat="42.120142154652534" lon="19.571025115496393"><ele>67.0</ele><time>2026-05-03T09:21:49Z</time></trkpt><trkpt lat="42.12016454061325" lon="19.57087866089631"><ele>66.66666666666667</ele><time>2026-05-03T09:21:51Z</time></trkpt><trkpt lat="42.1201903461646" lon="19.57080054313583"><ele>66.33333333333333</ele><time>2026-05-03T09:21:52Z</time></trkpt><trkpt lat="42.120217376382534" lon="19.570708783766502"><ele>66.0</ele><time>2026-05-03T09:21:54Z</time></trkpt><trkpt lat="42.12019556265584" lon="19.570616864719945"><ele>66.0</ele><time>2026-05-03T09:32:59Z</time></trkpt><trkpt lat="42.12018496260208" lon="19.570532393171078"><ele>66.0</ele><time>2026-05-03T09:33:02.999Z</time></trkpt><trkpt lat="42.12010495116639" lon="19.570591469775657"><ele>66.0</ele><time>2026-05-03T09:33:06.999Z</time></trkpt><trkpt lat="42.12012200664449" lon="19.570700535219277"><ele>66.0</ele><time>2026-05-03T09:33:10.999Z</time></trkpt><trkpt lat="42.12010470906673" lon="19.570803141890835"><ele>66.0</ele><time>2026-05-03T09:33:13.999Z</time></trkpt><trkpt lat="42.12011299993949" lon="19.57091994161942"><ele>66.0</ele><time>2026-05-03T09:33:15.999Z</time></trkpt><trkpt lat="42.12009621556041" lon="19.571060603601065"><ele>66.39999999999999</ele><time>2026-05-03T09:33:17.999Z</time></trkpt><trkpt lat="42.12012240233816" lon="19.571220871817633"><ele>66.8</ele><time>2026-05-03T09:33:19.999Z</time></trkpt><trkpt lat="42.12013395555798" lon="19.571338770310344"><ele>67.19999999999999</ele><time>2026-05-03T09:33:20.999Z</time></trkpt><trkpt lat="42.12014874202522" lon="19.5714666624597"><ele>67.6</ele><time>2026-05-03T09:33:21.999Z</time></trkpt><trkpt lat="42.12015595891924" lon="19.571597258144394"><ele>68.0</ele><time>2026-05-03T09:33:22.999Z</time></trkpt><trkpt lat="42.12015428234635" lon="19.57172087933454"><ele>68.0</ele><time>2026-05-03T09:33:23.999Z</time></trkpt><trkpt lat="42.12015404898513" lon="19.571844200843998"><ele>68.0</ele><time>2026-05-03T09:33:24.999Z</time></trkpt><trkpt lat="42.12015491485395" lon="19.57196927373071"><ele>68.0</ele><time>2026-05-03T09:33:25.999Z</time></trkpt><trkpt lat="42.1201538311807" lon="19.572092999204358"><ele>68.0</ele><time>2026-05-03T09:33:26.999Z</time></trkpt><trkpt lat="42.12015283396009" lon="19.57221966888522"><ele>68.0</ele><time>2026-05-03T09:33:27.999Z</time></trkpt><trkpt lat="42.12015056472764" lon="19.572347520051014"><ele>68.0</ele><time>2026-05-03T09:33:28.999Z</time></trkpt><trkpt lat="42.12014053822098" lon="19.57247991715136"><ele>68.0</ele><time>2026-05-03T09:33:29.999Z</time></trkpt><trkpt lat="42.12011867129715" lon="19.572612717169967"><ele>68.0</ele><time>2026-05-03T09:33:30.999Z</time></trkpt><trkpt lat="42.120083538674166" lon="19.57274962188617"><ele>68.0</ele><time>2026-05-03T09:33:31.999Z</time></trkpt><trkpt lat="42.12004032638243" lon="19.572882715669966"><ele>68.0</ele><time>2026-05-03T09:33:32.999Z</time></trkpt><trkpt lat="42.120000393959984" lon="19.573022750321194"><ele>68.0</ele><time>2026-05-03T09:33:33.999Z</time></trkpt><trkpt lat="42.11996494137536" lon="19.57316500751257"><ele>68.0</ele><time>2026-05-03T09:33:34.999Z</time></trkpt><trkpt lat="42.11992652775291" lon="19.573312462115787"><ele>68.0</ele><time>2026-05-03T09:33:35.999Z</time></trkpt><trkpt lat="42.11989153506567" lon="19.573456402087338"><ele>68.0</ele><time>2026-05-03T09:33:36.999Z</time></trkpt><trkpt lat="42.11985799124912" lon="19.573599622719"><ele>67.6</ele><time>2026-05-03T09:33:37.999Z</time></trkpt><trkpt lat="42.119826618925345" lon="19.573750207474394"><ele>67.19999999999999</ele><time>2026-05-03T09:33:38.999Z</time></trkpt><trkpt lat="42.11980670082403" lon="19.573891080440234"><ele>66.8</ele><time>2026-05-03T09:33:39.999Z</time></trkpt><trkpt lat="42.11980454597855" lon="19.574023409689918"><ele>66.39999999999999</ele><time>2026-05-03T09:33:40.999Z</time></trkpt><trkpt lat="42.119811776362496" lon="19.574152101666332"><ele>66.0</ele><time>2026-05-03T09:33:41.999Z</time></trkpt><trkpt lat="42.11982288668594" lon="19.574291701527898"><ele>66.0</ele><time>2026-05-03T09:33:42.999Z</time></trkpt><trkpt lat="42.11983973329377" lon="19.574443332219857"><ele>66.0</ele><time>2026-05-03T09:33:43.999Z</time></trkpt><trkpt lat="42.11986682740944" lon="19.57460181051533"><ele>66.0</ele><time>2026-05-03T09:33:44.999Z</time></trkpt><trkpt lat="42.11989454345435" lon="19.574768093831292"><ele>66.0</ele><time>2026-05-03T09:33:45.999Z</time></trkpt><trkpt lat="42.11991611285313" lon="19.574929304103332"><ele>66.25</ele><time>2026-05-03T09:33:46.999Z</time></trkpt><trkpt lat="42.11994077342277" lon="19.575093098143334"><ele>66.5</ele><time>2026-05-03T09:33:47.999Z</time></trkpt><trkpt lat="42.1199730620763" lon="19.575258320014317"><ele>66.75</ele><time>2026-05-03T09:33:48.999Z</time></trkpt><trkpt lat="42.120012215360184" lon="19.575427079588792"><ele>67.0</ele><time>2026-05-03T09:33:49.999Z</time></trkpt><trkpt lat="42.12004821382892" lon="19.5755936349562"><ele>66.5</ele><time>2026-05-03T09:33:50.999Z</time></trkpt><trkpt lat="42.120073762478974" lon="19.575721615427355"><ele>66.0</ele><time>2026-05-03T09:33:51.999Z</time></trkpt><trkpt lat="42.12008455534982" lon="19.575824370072674"><ele>65.5</ele><time>2026-05-03T09:33:52.999Z</time></trkpt><trkpt lat="42.12011182585056" lon="19.575928293717638"><ele>65.0</ele><time>2026-05-03T09:33:54.999Z</time></trkpt><trkpt lat="42.12013589855159" lon="19.576027346803652"><ele>64.5</ele><time>2026-05-03T09:33:57.999Z</time></trkpt><trkpt lat="42.12024653261634" lon="19.576005536752614"><ele>64.0</ele><time>2026-05-03T09:33:59.999Z</time></trkpt><trkpt lat="42.120315766715095" lon="19.576012462736923"><ele>64.0</ele><time>2026-05-03T09:34:00.999Z</time></trkpt><trkpt lat="42.1204041865049" lon="19.576047411543797"><ele>64.0</ele><time>2026-05-03T09:34:01.999Z</time></trkpt><trkpt lat="42.12049567096551" lon="19.576091202932588"><ele>64.0</ele><time>2026-05-03T09:34:02.999Z</time></trkpt><trkpt lat="42.12060604618976" lon="19.576144626445668"><ele>64.0</ele><time>2026-05-03T09:34:03.999Z</time></trkpt><trkpt lat="42.120724061781054" lon="19.576201321460502"><ele>64.0</ele><time>2026-05-03T09:34:04.999Z</time></trkpt><trkpt lat="42.12083424670148" lon="19.576257429585503"><ele>63.400000000000006</ele><time>2026-05-03T09:34:05.999Z</time></trkpt><trkpt lat="42.12092675119395" lon="19.576319850651814"><ele>62.800000000000004</ele><time>2026-05-03T09:34:06.999Z</time></trkpt><trkpt lat="42.12100188796138" lon="19.57639264891929"><ele>62.199999999999996</ele><time>2026-05-03T09:34:07.999Z</time></trkpt><trkpt lat="42.12108429078474" lon="19.576484311405927"><ele>61.599999999999994</ele><time>2026-05-03T09:34:09Z</time></trkpt><trkpt lat="42.12118116006447" lon="19.576590399563916"><ele>61.0</ele><time>2026-05-03T09:34:10Z</time></trkpt><trkpt lat="42.121293577083335" lon="19.576692031341683"><ele>61.0</ele><time>2026-05-03T09:34:11Z</time></trkpt><trkpt lat="42.12141937583158" lon="19.5767946420129"><ele>61.0</ele><time>2026-05-03T09:34:12Z</time></trkpt><trkpt lat="42.1215495206409" lon="19.576899977127706"><ele>61.0</ele><time>2026-05-03T09:34:13Z</time></trkpt><trkpt lat="42.12168369212205" lon="19.577019895178097"><ele>59.666666666666664</ele><time>2026-05-03T09:34:14Z</time></trkpt><trkpt lat="42.121811203151545" lon="19.577144736097438"><ele>58.33333333333333</ele><time>2026-05-03T09:34:15Z</time></trkpt><trkpt lat="42.12193447357257" lon="19.57726130799472"><ele>57.0</ele><time>2026-05-03T09:34:16Z</time></trkpt><trkpt lat="42.122070988896134" lon="19.57735365075284"><ele>57.0</ele><time>2026-05-03T09:34:17Z</time></trkpt><trkpt lat="42.12222898225106" lon="19.57742455682507"><ele>57.0</ele><time>2026-05-03T09:34:18Z</time></trkpt><trkpt lat="42.12240167589581" lon="19.577486654392892"><ele>57.0</ele><time>2026-05-03T09:34:19Z</time></trkpt><trkpt lat="42.1225790729962" lon="19.577559147646443"><ele>61.0</ele><time>2026-05-03T09:34:20Z</time></trkpt><trkpt lat="42.122763158389034" lon="19.577640089775045"><ele>65.0</ele><time>2026-05-03T09:34:21Z</time></trkpt><trkpt lat="42.122915628495484" lon="19.577710850598965"><ele>69.0</ele><time>2026-05-03T09:34:22Z</time></trkpt><trkpt lat="42.12303759974835" lon="19.577768916701675"><ele>69.0</ele><time>2026-05-03T09:34:23Z</time></trkpt><trkpt lat="42.123148301356395" lon="19.577814280574053"><ele>69.0</ele><time>2026-05-03T09:34:24Z</time></trkpt><trkpt lat="42.12328028877377" lon="19.57784149751518"><ele>69.0</ele><time>2026-05-03T09:34:25Z</time></trkpt><trkpt lat="42.123432817043664" lon="19.57786078394573"><ele>69.0</ele><time>2026-05-03T09:34:26Z</time></trkpt><trkpt lat="42.1235783164083" lon="19.57788991432077"><ele>65.33333333333333</ele><time>2026-05-03T09:34:27Z</time></trkpt><trkpt lat="42.12372428802447" lon="19.577951343159505"><ele>61.666666666666664</ele><time>2026-05-03T09:34:28Z</time></trkpt><trkpt lat="42.12387046328007" lon="19.57806169207608"><ele>58.0</ele><time>2026-05-03T09:34:29Z</time></trkpt><trkpt lat="42.124017908559374" lon="19.578213205555144"><ele>57.666666666666664</ele><time>2026-05-03T09:34:30Z</time></trkpt><trkpt lat="42.1241840970375" lon="19.578379183111824"><ele>57.33333333333333</ele><time>2026-05-03T09:34:31Z</time></trkpt><trkpt lat="42.12435755467669" lon="19.57854323162127"><ele>57.0</ele><time>2026-05-03T09:34:32Z</time></trkpt><trkpt lat="42.124536689892004" lon="19.578702801048284"><ele>57.0</ele><time>2026-05-03T09:34:33Z</time></trkpt><trkpt lat="42.12470354556819" lon="19.57884213480219"><ele>57.0</ele><time>2026-05-03T09:34:34Z</time></trkpt><trkpt lat="42.124851940681" lon="19.578978390088206"><ele>57.0</ele><time>2026-05-03T09:34:35Z</time></trkpt><trkpt lat="42.12498200253584" lon="19.579127686617525"><ele>58.0</ele><time>2026-05-03T09:34:36Z</time></trkpt><trkpt lat="42.12509524211359" lon="19.579305628391204"><ele>59.0</ele><time>2026-05-03T09:34:37Z</time></trkpt><trkpt lat="42.12520411444937" lon="19.579511423109526"><ele>60.0</ele><time>2026-05-03T09:34:38Z</time></trkpt><trkpt lat="42.12531283499186" lon="19.579718158697617"><ele>60.0</ele><time>2026-05-03T09:34:39Z</time></trkpt><trkpt lat="42.125434913897216" lon="19.57991640794188"><ele>60.0</ele><time>2026-05-03T09:34:40Z</time></trkpt><trkpt lat="42.12556486818013" lon="19.580088810323765"><ele>60.0</ele><time>2026-05-03T09:34:41Z</time></trkpt><trkpt lat="42.12567632470492" lon="19.580260415606734"><ele>62.0</ele><time>2026-05-03T09:34:42Z</time></trkpt><trkpt lat="42.125768627483474" lon="19.58045515626907"><ele>64.0</ele><time>2026-05-03T09:34:43Z</time></trkpt><trkpt lat="42.125831212727824" lon="19.580645489935335"><ele>66.0</ele><time>2026-05-03T09:34:44Z</time></trkpt><trkpt lat="42.12588293564043" lon="19.580821887527893"><ele>66.0</ele><time>2026-05-03T09:34:45Z</time></trkpt><trkpt lat="42.125949676871876" lon="19.580991520523366"><ele>66.0</ele><time>2026-05-03T09:34:46Z</time></trkpt><trkpt lat="42.126018880852044" lon="19.581171958691105"><ele>66.0</ele><time>2026-05-03T09:34:47Z</time></trkpt><trkpt lat="42.12608897908569" lon="19.58135570088017"><ele>66.0</ele><time>2026-05-03T09:34:48Z</time></trkpt><trkpt lat="42.12615345735214" lon="19.58153646140945"><ele>65.0</ele><time>2026-05-03T09:34:49Z</time></trkpt><trkpt lat="42.12621819668086" lon="19.581720673916145"><ele>64.0</ele><time>2026-05-03T09:34:50Z</time></trkpt><trkpt lat="42.126288039950204" lon="19.581919935468843"><ele>63.0</ele><time>2026-05-03T09:34:51Z</time></trkpt><trkpt lat="42.12635477845671" lon="19.582138754236908"><ele>61.66666666666667</ele><time>2026-05-03T09:34:52Z</time></trkpt><trkpt lat="42.126417255821096" lon="19.582370646136493"><ele>60.333333333333336</ele><time>2026-05-03T09:34:53Z</time></trkpt><trkpt lat="42.12647722044541" lon="19.582607466761164"><ele>59.0</ele><time>2026-05-03T09:34:54Z</time></trkpt><trkpt lat="42.1265325657251" lon="19.58283678009021"><ele>61.0</ele><time>2026-05-03T09:34:55Z</time></trkpt><trkpt lat="42.12658279426859" lon="19.583055949884272"><ele>63.0</ele><time>2026-05-03T09:34:56Z</time></trkpt><trkpt lat="42.12663001126563" lon="19.583276727847302"><ele>65.0</ele><time>2026-05-03T09:34:57Z</time></trkpt><trkpt lat="42.12668034876315" lon="19.58348911165348"><ele>63.66666666666667</ele><time>2026-05-03T09:34:58Z</time></trkpt><trkpt lat="42.12675668154487" lon="19.583685285365224"><ele>62.33333333333333</ele><time>2026-05-03T09:34:59Z</time></trkpt><trkpt lat="42.126860823311965" lon="19.58384805131908"><ele>61.0</ele><time>2026-05-03T09:35:00Z</time></trkpt><trkpt lat="42.126988277476" lon="19.583988470184227"><ele>61.0</ele><time>2026-05-03T09:35:01Z</time></trkpt><trkpt lat="42.12711769220619" lon="19.584121497466523"><ele>61.0</ele><time>2026-05-03T09:35:02Z</time></trkpt><trkpt lat="42.127237833484415" lon="19.584246242484348"><ele>61.0</ele><time>2026-05-03T09:35:03Z</time></trkpt><trkpt lat="42.12733023714951" lon="19.584363034759438"><ele>61.0</ele><time>2026-05-03T09:35:04Z</time></trkpt><trkpt lat="42.12741195777077" lon="19.584471925333034"><ele>61.0</ele><time>2026-05-03T09:35:05Z</time></trkpt><trkpt lat="42.12747816787408" lon="19.584567056285135"><ele>60.99999999999999</ele><time>2026-05-03T09:35:06Z</time></trkpt><trkpt lat="42.12754075356959" lon="19.584624595802637"><ele>60.99999999999999</ele><time>2026-05-03T09:35:07Z</time></trkpt><trkpt lat="42.12762207712358" lon="19.584636918554413"><ele>61.0</ele><time>2026-05-03T09:35:08Z</time></trkpt><trkpt lat="42.12773061981259" lon="19.58461477872923"><ele>61.0</ele><time>2026-05-03T09:35:09Z</time></trkpt><trkpt lat="42.12784232191613" lon="19.584618844115653"><ele>61.0</ele><time>2026-05-03T09:35:10Z</time></trkpt><trkpt lat="42.12794645750774" lon="19.58466671383128"><ele>60.99999999999999</ele><time>2026-05-03T09:35:11Z</time></trkpt><trkpt lat="42.12803926986531" lon="19.5847397080587"><ele>60.99999999999999</ele><time>2026-05-03T09:35:12Z</time></trkpt><trkpt lat="42.12812588322295" lon="19.584822376384192"><ele>61.0</ele><time>2026-05-03T09:35:13Z</time></trkpt><trkpt lat="42.12821861963957" lon="19.584906400517333"><ele>61.0</ele><time>2026-05-03T09:35:14Z</time></trkpt><trkpt lat="42.12831754834412" lon="19.584993377593925"><ele>60.8</ele><time>2026-05-03T09:35:15Z</time></trkpt><trkpt lat="42.12841380757435" lon="19.585098071818308"><ele>60.599999999999994</ele><time>2026-05-03T09:35:16Z</time></trkpt><trkpt lat="42.12850840455882" lon="19.58519661680034"><ele>60.4</ele><time>2026-05-03T09:35:17Z</time></trkpt><trkpt lat="42.128576229586734" lon="19.585292342226353"><ele>60.2</ele><time>2026-05-03T09:35:18Z</time></trkpt><trkpt lat="42.12859522827362" lon="19.58538334607761"><ele>60.0</ele><time>2026-05-03T09:35:19Z</time></trkpt><trkpt lat="42.12858259347164" lon="19.58547593820827"><ele>60.0</ele><time>2026-05-03T09:35:20Z</time></trkpt><trkpt lat="42.128534417155166" lon="19.58557404812849"><ele>60.0</ele><time>2026-05-03T09:35:21Z</time></trkpt><trkpt lat="42.12846462695686" lon="19.585672603135272"><ele>60.0</ele><time>2026-05-03T09:35:22Z</time></trkpt><trkpt lat="42.12839172848358" lon="19.58573996552365"><ele>60.0</ele><time>2026-05-03T09:35:23Z</time></trkpt><trkpt lat="42.12831786848026" lon="19.585733629532463"><ele>60.0</ele><time>2026-05-03T09:35:24Z</time></trkpt><trkpt lat="42.128208566855584" lon="19.58568594364497"><ele>60.0</ele><time>2026-05-03T09:35:25Z</time></trkpt><trkpt lat="42.12806488006448" lon="19.58563678978627"><ele>60.0</ele><time>2026-05-03T09:35:26Z</time></trkpt><trkpt lat="42.127907587579976" lon="19.58562928643724"><ele>60.0</ele><time>2026-05-03T09:35:27Z</time></trkpt><trkpt lat="42.12774048402113" lon="19.58566003279456"><ele>60.0</ele><time>2026-05-03T09:35:28Z</time></trkpt><trkpt lat="42.12756877004171" lon="19.58571147845754"><ele>60.0</ele><time>2026-05-03T09:35:29Z</time></trkpt><trkpt lat="42.12740947611088" lon="19.585779712158253"><ele>60.0</ele><time>2026-05-03T09:35:30Z</time></trkpt><trkpt lat="42.12728600169769" lon="19.585883300694064"><ele>59.66666666666667</ele><time>2026-05-03T09:35:31Z</time></trkpt><trkpt lat="42.12717507956947" lon="19.58604225387004"><ele>59.333333333333336</ele><time>2026-05-03T09:35:32Z</time></trkpt><trkpt lat="42.127066367603476" lon="19.586236179615742"><ele>59.0</ele><time>2026-05-03T09:35:33Z</time></trkpt><trkpt lat="42.12695643751078" lon="19.586446188655824"><ele>59.0</ele><time>2026-05-03T09:35:34Z</time></trkpt><trkpt lat="42.12685488719454" lon="19.586623848767285"><ele>59.0</ele><time>2026-05-03T09:35:35Z</time></trkpt><trkpt lat="42.126764465996175" lon="19.58674660726007"><ele>59.0</ele><time>2026-05-03T09:35:36Z</time></trkpt><trkpt lat="42.12668375749029" lon="19.586820391582403"><ele>59.0</ele><time>2026-05-03T09:35:37Z</time></trkpt><trkpt lat="42.1266184319232" lon="19.58685323526756"><ele>58.50000000000001</ele><time>2026-05-03T09:35:38Z</time></trkpt><trkpt lat="42.12653963937588" lon="19.58687103444382"><ele>58.0</ele><time>2026-05-03T09:35:40Z</time></trkpt><trkpt lat="42.126459516923674" lon="19.58695273554111"><ele>57.5</ele><time>2026-05-03T09:35:42Z</time></trkpt><trkpt lat="42.12642246811347" lon="19.587024574143033"><ele>57.0</ele><time>2026-05-03T09:35:43Z</time></trkpt><trkpt lat="42.126396597430826" lon="19.58711245125571"><ele>56.50000000000001</ele><time>2026-05-03T09:35:44Z</time></trkpt><trkpt lat="42.12636737248012" lon="19.58719895157425"><ele>56.0</ele><time>2026-05-03T09:35:45Z</time></trkpt><trkpt lat="42.126342791823696" lon="19.587282770118023"><ele>56.00000000000001</ele><time>2026-05-03T09:35:46Z</time></trkpt><trkpt lat="42.126325474841536" lon="19.587375471517962"><ele>56.0</ele><time>2026-05-03T09:35:47Z</time></trkpt><trkpt lat="42.126336182191025" lon="19.587532998785548"><ele>56.0</ele><time>2026-05-03T09:35:49Z</time></trkpt><trkpt lat="42.12640596648615" lon="19.58762791347629"><ele>56.0</ele><time>2026-05-03T09:35:51Z</time></trkpt><trkpt lat="42.126474281251944" lon="19.587678562212762"><ele>56.00000000000001</ele><time>2026-05-03T09:35:52Z</time></trkpt><trkpt lat="42.12654194516599" lon="19.587730725218893"><ele>56.0</ele><time>2026-05-03T09:35:53Z</time></trkpt><trkpt lat="42.12659257228437" lon="19.587796427801674"><ele>56.16666666666667</ele><time>2026-05-03T09:35:54Z</time></trkpt><trkpt lat="42.126623787875005" lon="19.587871837999234"><ele>56.333333333333336</ele><time>2026-05-03T09:35:55Z</time></trkpt><trkpt lat="42.12662903958145" lon="19.587965021049868"><ele>56.5</ele><time>2026-05-03T09:35:56Z</time></trkpt><trkpt lat="42.12660384803808" lon="19.588081565581593"><ele>56.66666666666667</ele><time>2026-05-03T09:35:57Z</time></trkpt><trkpt lat="42.126573308326606" lon="19.588184723871755"><ele>56.833333333333336</ele><time>2026-05-03T09:35:58Z</time></trkpt><trkpt lat="42.126544732361985" lon="19.58830145871547"><ele>57.0</ele><time>2026-05-03T09:35:59Z</time></trkpt><trkpt lat="42.12651474718875" lon="19.588469330627543"><ele>57.0</ele><time>2026-05-03T09:36:00Z</time></trkpt><trkpt lat="42.12648847099822" lon="19.58865221258849"><ele>57.0</ele><time>2026-05-03T09:36:01Z</time></trkpt><trkpt lat="42.126459737790306" lon="19.588853973116578"><ele>57.0</ele><time>2026-05-03T09:36:02Z</time></trkpt><trkpt lat="42.126419479612814" lon="19.58906032929657"><ele>57.0</ele><time>2026-05-03T09:36:03Z</time></trkpt><trkpt lat="42.12635913049311" lon="19.589250582654476"><ele>57.75</ele><time>2026-05-03T09:36:04Z</time></trkpt><trkpt lat="42.126282025766024" lon="19.58943655998773"><ele>58.5</ele><time>2026-05-03T09:36:05Z</time></trkpt><trkpt lat="42.126211897382134" lon="19.589583340042104"><ele>59.25</ele><time>2026-05-03T09:36:06Z</time></trkpt><trkpt lat="42.126171465508904" lon="19.589722357697987"><ele>60.0</ele><time>2026-05-03T09:36:07Z</time></trkpt><trkpt lat="42.12616269892709" lon="19.589884750835427"><ele>60.0</ele><time>2026-05-03T09:36:08Z</time></trkpt><trkpt lat="42.12616614382865" lon="19.590067615980335"><ele>60.0</ele><time>2026-05-03T09:36:09Z</time></trkpt><trkpt lat="42.12615968181786" lon="19.590266654346078"><ele>60.0</ele><time>2026-05-03T09:36:10Z</time></trkpt><trkpt lat="42.12613378431108" lon="19.590480469074727"><ele>60.0</ele><time>2026-05-03T09:36:11Z</time></trkpt><trkpt lat="42.126093999932536" lon="19.590711720533264"><ele>60.33333333333333</ele><time>2026-05-03T09:36:12Z</time></trkpt><trkpt lat="42.12604824731368" lon="19.590954359354765"><ele>60.666666666666664</ele><time>2026-05-03T09:36:13Z</time></trkpt><trkpt lat="42.12599751095319" lon="19.5911911122627"><ele>61.0</ele><time>2026-05-03T09:36:14Z</time></trkpt><trkpt lat="42.12593980147838" lon="19.591432867198762"><ele>60.666666666666664</ele><time>2026-05-03T09:36:15Z</time></trkpt><trkpt lat="42.12587582995891" lon="19.591673571536685"><ele>60.33333333333333</ele><time>2026-05-03T09:36:16Z</time></trkpt><trkpt lat="42.12579573782321" lon="19.59190864552054"><ele>60.0</ele><time>2026-05-03T09:36:17Z</time></trkpt><trkpt lat="42.1256926030761" lon="19.592129229615004"><ele>60.0</ele><time>2026-05-03T09:36:18Z</time></trkpt><trkpt lat="42.12557709272273" lon="19.592337758818267"><ele>60.0</ele><time>2026-05-03T09:36:19Z</time></trkpt><trkpt lat="42.125449711291125" lon="19.592536424634062"><ele>60.0</ele><time>2026-05-03T09:36:20Z</time></trkpt><trkpt lat="42.12531769605046" lon="19.592711175975616"><ele>66.66666666666667</ele><time>2026-05-03T09:36:21Z</time></trkpt><trkpt lat="42.12520162150261" lon="19.592841172800277"><ele>73.33333333333334</ele><time>2026-05-03T09:36:22Z</time></trkpt><trkpt lat="42.12507251772044" lon="19.59293776988268"><ele>80.0</ele><time>2026-05-03T09:36:23Z</time></trkpt><trkpt lat="42.124927156252355" lon="19.592994437845462"><ele>77.25</ele><time>2026-05-03T09:36:24Z</time></trkpt><trkpt lat="42.12478262361696" lon="19.592995571540722"><ele>74.5</ele><time>2026-05-03T09:36:25Z</time></trkpt><trkpt lat="42.12467004174213" lon="19.59309333736668"><ele>71.75</ele><time>2026-05-03T09:36:26Z</time></trkpt><trkpt lat="42.12452297660358" lon="19.59314131446878"><ele>69.0</ele><time>2026-05-03T09:36:27Z</time></trkpt><trkpt lat="42.12436802584294" lon="19.59323875191504"><ele>69.0</ele><time>2026-05-03T09:36:28Z</time></trkpt><trkpt lat="42.12423377917136" lon="19.59335381334683"><ele>69.0</ele><time>2026-05-03T09:36:29Z</time></trkpt><trkpt lat="42.124128835470614" lon="19.593480200666924"><ele>69.0</ele><time>2026-05-03T09:36:30Z</time></trkpt><trkpt lat="42.12404566810957" lon="19.593659641239455"><ele>67.0</ele><time>2026-05-03T09:36:31Z</time></trkpt><trkpt lat="42.123978883348855" lon="19.593870017941697"><ele>65.0</ele><time>2026-05-03T09:36:32Z</time></trkpt><trkpt lat="42.12392295100421" lon="19.59409755733686"><ele>63.0</ele><time>2026-05-03T09:36:33Z</time></trkpt><trkpt lat="42.123835888691495" lon="19.59433984935388"><ele>64.0</ele><time>2026-05-03T09:36:34Z</time></trkpt><trkpt lat="42.12373461264673" lon="19.594594035204846"><ele>65.0</ele><time>2026-05-03T09:36:35Z</time></trkpt><trkpt lat="42.12364463653473" lon="19.59485434761679"><ele>66.0</ele><time>2026-05-03T09:36:36Z</time></trkpt><trkpt lat="42.123543883314966" lon="19.595125858080802"><ele>69.0</ele><time>2026-05-03T09:36:37Z</time></trkpt><trkpt lat="42.12343431378449" lon="19.59539334010256"><ele>72.0</ele><time>2026-05-03T09:36:38Z</time></trkpt><trkpt lat="42.12332881359941" lon="19.595660935487512"><ele>72.0</ele><time>2026-05-03T09:36:39Z</time></trkpt><trkpt lat="42.1232415852501" lon="19.595943307481917"><ele>72.0</ele><time>2026-05-03T09:36:40Z</time></trkpt><trkpt lat="42.12316549729001" lon="19.596233353311515"><ele>68.33333333333333</ele><time>2026-05-03T09:36:41Z</time></trkpt><trkpt lat="42.12310014429569" lon="19.59646987029494"><ele>64.66666666666666</ele><time>2026-05-03T09:36:42Z</time></trkpt><trkpt lat="42.1230562494341" lon="19.59667024181283"><ele>61.0</ele><time>2026-05-03T09:36:43Z</time></trkpt><trkpt lat="42.12303141236144" lon="19.596854100549148"><ele>61.33333333333333</ele><time>2026-05-03T09:36:44Z</time></trkpt><trkpt lat="42.12306333180693" lon="19.59706943644553"><ele>61.66666666666667</ele><time>2026-05-03T09:36:45Z</time></trkpt><trkpt lat="42.12311031963826" lon="19.59729943767807"><ele>62.0</ele><time>2026-05-03T09:36:46Z</time></trkpt><trkpt lat="42.12313912525386" lon="19.597532985141477"><ele>62.0</ele><time>2026-05-03T09:36:47Z</time></trkpt><trkpt lat="42.12316186663722" lon="19.597747249447178"><ele>62.0</ele><time>2026-05-03T09:36:48Z</time></trkpt><trkpt lat="42.123211089927935" lon="19.59790573158288"><ele>62.0</ele><time>2026-05-03T09:36:49Z</time></trkpt><trkpt lat="42.12330612837552" lon="19.59807173578066"><ele>62.0</ele><time>2026-05-03T09:36:50Z</time></trkpt><trkpt lat="42.12342809656028" lon="19.5982096067291"><ele>67.0</ele><time>2026-05-03T09:36:51Z</time></trkpt><trkpt lat="42.1235656106364" lon="19.598352313438195"><ele>72.0</ele><time>2026-05-03T09:36:52Z</time></trkpt><trkpt lat="42.12367012114198" lon="19.598509166335383"><ele>77.0</ele><time>2026-05-03T09:36:53Z</time></trkpt><trkpt lat="42.123740094679704" lon="19.598709571813668"><ele>77.0</ele><time>2026-05-03T09:36:54Z</time></trkpt><trkpt lat="42.12377788335521" lon="19.598922796832507"><ele>77.0</ele><time>2026-05-03T09:36:55Z</time></trkpt><trkpt lat="42.123784786256664" lon="19.599160405900996"><ele>77.0</ele><time>2026-05-03T09:36:56Z</time></trkpt><trkpt lat="42.12377354926297" lon="19.599422048381506"><ele>78.66666666666667</ele><time>2026-05-03T09:36:57Z</time></trkpt><trkpt lat="42.12375329191506" lon="19.59968791046595"><ele>80.33333333333333</ele><time>2026-05-03T09:36:58Z</time></trkpt><trkpt lat="42.12373839995446" lon="19.59994696162404"><ele>82.0</ele><time>2026-05-03T09:36:59Z</time></trkpt><trkpt lat="42.12371600311369" lon="19.600226136076728"><ele>82.33333333333333</ele><time>2026-05-03T09:37:00Z</time></trkpt><trkpt lat="42.12368778587803" lon="19.60050148677613"><ele>82.66666666666667</ele><time>2026-05-03T09:37:01Z</time></trkpt><trkpt lat="42.12365230593446" lon="19.600747876309843"><ele>83.0</ele><time>2026-05-03T09:37:02Z</time></trkpt><trkpt lat="42.12361082456778" lon="19.600987958807313"><ele>84.0</ele><time>2026-05-03T09:37:03Z</time></trkpt><trkpt lat="42.12356115140226" lon="19.601221035801537"><ele>85.0</ele><time>2026-05-03T09:37:04Z</time></trkpt><trkpt lat="42.123512005934714" lon="19.601448787751192"><ele>86.0</ele><time>2026-05-03T09:37:05Z</time></trkpt><trkpt lat="42.12346795507516" lon="19.60166900497406"><ele>86.0</ele><time>2026-05-03T09:37:06Z</time></trkpt><trkpt lat="42.12341768707238" lon="19.601880661344346"><ele>86.0</ele><time>2026-05-03T09:37:07Z</time></trkpt><trkpt lat="42.12338020576525" lon="19.602088204376365"><ele>86.0</ele><time>2026-05-03T09:37:08Z</time></trkpt><trkpt lat="42.12335848843022" lon="19.602265467993018"><ele>86.25</ele><time>2026-05-03T09:37:09Z</time></trkpt><trkpt lat="42.12337243311464" lon="19.602439672237452"><ele>86.5</ele><time>2026-05-03T09:37:10Z</time></trkpt><trkpt lat="42.1234212684241" lon="19.602592925323304"><ele>86.75</ele><time>2026-05-03T09:37:11Z</time></trkpt><trkpt lat="42.12349189127507" lon="19.602725233922325"><ele>87.0</ele><time>2026-05-03T09:37:12Z</time></trkpt><trkpt lat="42.12357120309468" lon="19.60287240155268"><ele>85.0</ele><time>2026-05-03T09:37:13Z</time></trkpt><trkpt lat="42.12364599003543" lon="19.603037264664565"><ele>83.0</ele><time>2026-05-03T09:37:14Z</time></trkpt><trkpt lat="42.12371143811018" lon="19.603203758376416"><ele>81.0</ele><time>2026-05-03T09:37:15Z</time></trkpt><trkpt lat="42.12375616176337" lon="19.603321201177906"><ele>79.0</ele><time>2026-05-03T09:37:16Z</time></trkpt><trkpt lat="42.12377974598247" lon="19.60341123837933"><ele>79.0</ele><time>2026-05-03T09:37:17Z</time></trkpt><trkpt lat="42.12381035478277" lon="19.603506951041677"><ele>79.0</ele><time>2026-05-03T09:37:18Z</time></trkpt><trkpt lat="42.12386571040242" lon="19.603598631024862"><ele>79.0</ele><time>2026-05-03T09:37:19Z</time></trkpt><trkpt lat="42.123931040107955" lon="19.60369624083043"><ele>79.0</ele><time>2026-05-03T09:37:20Z</time></trkpt><trkpt lat="42.12400516648367" lon="19.603775396721666"><ele>79.0</ele><time>2026-05-03T09:37:21Z</time></trkpt><trkpt lat="42.12408812346195" lon="19.603833457689046"><ele>79.0</ele><time>2026-05-03T09:37:22Z</time></trkpt><trkpt lat="42.12417888948801" lon="19.603866218138286"><ele>79.0</ele><time>2026-05-03T09:37:23Z</time></trkpt><trkpt lat="42.12428047288417" lon="19.603860523036573"><ele>79.0</ele><time>2026-05-03T09:37:24Z</time></trkpt><trkpt lat="42.124372766017224" lon="19.603858323567476"><ele>79.0</ele><time>2026-05-03T09:37:25Z</time></trkpt><trkpt lat="42.12446378019864" lon="19.603852616237358"><ele>79.0</ele><time>2026-05-03T09:37:26Z</time></trkpt><trkpt lat="42.12457331334665" lon="19.603816695638585"><ele>79.0</ele><time>2026-05-03T09:37:27Z</time></trkpt><trkpt lat="42.124697025754614" lon="19.603750587232934"><ele>79.0</ele><time>2026-05-03T09:37:28Z</time></trkpt><trkpt lat="42.12482664022447" lon="19.60367211758477"><ele>79.0</ele><time>2026-05-03T09:37:29Z</time></trkpt><trkpt lat="42.12494988147897" lon="19.603616399645926"><ele>79.0</ele><time>2026-05-03T09:37:30Z</time></trkpt><trkpt lat="42.12507182163328" lon="19.603576163945913"><ele>89.0</ele><time>2026-05-03T09:37:31Z</time></trkpt><trkpt lat="42.12520291379589" lon="19.60356349117333"><ele>99.0</ele><time>2026-05-03T09:37:32Z</time></trkpt><trkpt lat="42.12535386942216" lon="19.60357282870671"><ele>109.0</ele><time>2026-05-03T09:37:33Z</time></trkpt><trkpt lat="42.12552951362873" lon="19.60359465632341"><ele>109.0</ele><time>2026-05-03T09:37:34Z</time></trkpt><trkpt lat="42.12572175639251" lon="19.603615927486526"><ele>109.0</ele><time>2026-05-03T09:37:35Z</time></trkpt><trkpt lat="42.12590935597553" lon="19.603626418917024"><ele>109.0</ele><time>2026-05-03T09:37:36Z</time></trkpt><trkpt lat="42.126094381247654" lon="19.603639895529856"><ele>100.66666666666667</ele><time>2026-05-03T09:37:37Z</time></trkpt><trkpt lat="42.12628153104347" lon="19.603669192601345"><ele>92.33333333333334</ele><time>2026-05-03T09:37:38Z</time></trkpt><trkpt lat="42.12646572808236" lon="19.60374383075779"><ele>84.0</ele><time>2026-05-03T09:37:39Z</time></trkpt><trkpt lat="42.12664602612855" lon="19.603830633938905"><ele>84.0</ele><time>2026-05-03T09:37:40Z</time></trkpt><trkpt lat="42.126831231013504" lon="19.603930927181715"><ele>84.0</ele><time>2026-05-03T09:37:41Z</time></trkpt><trkpt lat="42.127021452271464" lon="19.604023430279383"><ele>84.0</ele><time>2026-05-03T09:37:42Z</time></trkpt><trkpt lat="42.12721486886927" lon="19.604131865190393"><ele>87.66666666666667</ele><time>2026-05-03T09:37:43Z</time></trkpt><trkpt lat="42.127407147396575" lon="19.604253888187973"><ele>91.33333333333334</ele><time>2026-05-03T09:37:44Z</time></trkpt><trkpt lat="42.12758994576063" lon="19.604387788963535"><ele>95.0</ele><time>2026-05-03T09:37:45Z</time></trkpt><trkpt lat="42.12776348881545" lon="19.604523151663628"><ele>87.66666666666667</ele><time>2026-05-03T09:37:46Z</time></trkpt><trkpt lat="42.127923700061984" lon="19.60465261517493"><ele>80.33333333333333</ele><time>2026-05-03T09:37:47Z</time></trkpt><trkpt lat="42.12806865066573" lon="19.604838555340272"><ele>73.0</ele><time>2026-05-03T09:37:48Z</time></trkpt><trkpt lat="42.12819591603058" lon="19.604987173641348"><ele>73.66666666666666</ele><time>2026-05-03T09:37:49Z</time></trkpt><trkpt lat="42.128301390631854" lon="19.605144017024493"><ele>74.33333333333333</ele><time>2026-05-03T09:37:50Z</time></trkpt><trkpt lat="42.12838073128999" lon="19.605327480658687"><ele>75.0</ele><time>2026-05-03T09:37:51Z</time></trkpt><trkpt lat="42.12846579215305" lon="19.605527261706005"><ele>75.0</ele><time>2026-05-03T09:37:52Z</time></trkpt><trkpt lat="42.128567398483355" lon="19.6057327131058"><ele>75.0</ele><time>2026-05-03T09:37:53Z</time></trkpt><trkpt lat="42.128677980194595" lon="19.605944780840648"><ele>75.0</ele><time>2026-05-03T09:37:54Z</time></trkpt><trkpt lat="42.128794050118024" lon="19.606160238969505"><ele>76.33333333333333</ele><time>2026-05-03T09:37:55Z</time></trkpt><trkpt lat="42.128917774614266" lon="19.606376374516778"><ele>77.66666666666666</ele><time>2026-05-03T09:37:56Z</time></trkpt><trkpt lat="42.12905208138037" lon="19.60659109217579"><ele>79.0</ele><time>2026-05-03T09:37:57Z</time></trkpt><trkpt lat="42.12919647180498" lon="19.6068019212218"><ele>75.0</ele><time>2026-05-03T09:37:58Z</time></trkpt><trkpt lat="42.12934773081722" lon="19.607024142470465"><ele>71.0</ele><time>2026-05-03T09:37:58.999Z</time></trkpt><trkpt lat="42.12949543090293" lon="19.607279955845964"><ele>71.0</ele><time>2026-05-03T09:37:59.999Z</time></trkpt><trkpt lat="42.129631230334546" lon="19.6075767670547"><ele>71.0</ele><time>2026-05-03T09:38:00.999Z</time></trkpt><trkpt lat="42.12977937091774" lon="19.60786067696388"><ele>76.0</ele><time>2026-05-03T09:38:01.999Z</time></trkpt><trkpt lat="42.12995003407981" lon="19.608120558839737"><ele>81.0</ele><time>2026-05-03T09:38:02.999Z</time></trkpt><trkpt lat="42.1301165359729" lon="19.608357723848634"><ele>81.0</ele><time>2026-05-03T09:38:03.999Z</time></trkpt><trkpt lat="42.13025741023555" lon="19.60858501611186"><ele>81.0</ele><time>2026-05-03T09:38:04.999Z</time></trkpt><trkpt lat="42.130382805673705" lon="19.608813767311144"><ele>81.0</ele><time>2026-05-03T09:38:05.999Z</time></trkpt><trkpt lat="42.13049921254339" lon="19.60905067139358"><ele>78.66666666666667</ele><time>2026-05-03T09:38:06.999Z</time></trkpt><trkpt lat="42.13060330728376" lon="19.609301713185165"><ele>76.33333333333334</ele><time>2026-05-03T09:38:07.999Z</time></trkpt><trkpt lat="42.1306846866978" lon="19.609553645831873"><ele>74.0</ele><time>2026-05-03T09:38:08.999Z</time></trkpt><trkpt lat="42.13074315267552" lon="19.60982108316783"><ele>77.0</ele><time>2026-05-03T09:38:09.999Z</time></trkpt><trkpt lat="42.13078434485469" lon="19.610106911357615"><ele>80.0</ele><time>2026-05-03T09:38:10.999Z</time></trkpt><trkpt lat="42.13081370703227" lon="19.61040214194908"><ele>83.0</ele><time>2026-05-03T09:38:11.999Z</time></trkpt><trkpt lat="42.13082337218692" lon="19.610694486627946"><ele>83.0</ele><time>2026-05-03T09:38:12.999Z</time></trkpt><trkpt lat="42.13084622319518" lon="19.611033955540805"><ele>83.0</ele><time>2026-05-03T09:38:13.999Z</time></trkpt><trkpt lat="42.13085606393766" lon="19.611364838242398"><ele>81.5</ele><time>2026-05-03T09:38:14.999Z</time></trkpt><trkpt lat="42.130846337690784" lon="19.61170850444906"><ele>80.0</ele><time>2026-05-03T09:38:15.999Z</time></trkpt><trkpt lat="42.1308184242475" lon="19.612022843573364"><ele>83.0</ele><time>2026-05-03T09:38:16.999Z</time></trkpt><trkpt lat="42.13078724528348" lon="19.61232094734711"><ele>86.0</ele><time>2026-05-03T09:38:17.999Z</time></trkpt><trkpt lat="42.13074453985224" lon="19.61262720607651"><ele>79.0</ele><time>2026-05-03T09:38:18.999Z</time></trkpt><trkpt lat="42.13069021590628" lon="19.612941436205485"><ele>72.0</ele><time>2026-05-03T09:38:19.999Z</time></trkpt><trkpt lat="42.13062233584298" lon="19.613244481588012"><ele>72.0</ele><time>2026-05-03T09:38:21Z</time></trkpt><trkpt lat="42.130539463119355" lon="19.613495867471187"><ele>72.0</ele><time>2026-05-03T09:38:22Z</time></trkpt><trkpt lat="42.13046974952166" lon="19.61368203246954"><ele>72.0</ele><time>2026-05-03T09:38:23Z</time></trkpt><trkpt lat="42.130449455601436" lon="19.61380088621149"><ele>72.0</ele><time>2026-05-03T09:38:24Z</time></trkpt><trkpt lat="42.13047945567851" lon="19.613933479293262"><ele>73.75</ele><time>2026-05-03T09:38:25Z</time></trkpt><trkpt lat="42.130533021299705" lon="19.61410478842003"><ele>75.5</ele><time>2026-05-03T09:38:26Z</time></trkpt><trkpt lat="42.130548613030825" lon="19.614276234289658"><ele>77.25</ele><time>2026-05-03T09:38:27Z</time></trkpt><trkpt lat="42.1305112441925" lon="19.614436889993343"><ele>79.0</ele><time>2026-05-03T09:38:28Z</time></trkpt><trkpt lat="42.13043889731813" lon="19.614516121448315"><ele>80.0</ele><time>2026-05-03T09:38:29Z</time></trkpt><trkpt lat="42.13035756272946" lon="19.614555884307983"><ele>81.0</ele><time>2026-05-03T09:38:30Z</time></trkpt><trkpt lat="42.13029841387466" lon="19.614641875865924"><ele>82.0</ele><time>2026-05-03T09:38:31Z</time></trkpt><trkpt lat="42.13027111321801" lon="19.61481693233058"><ele>83.0</ele><time>2026-05-03T09:38:32Z</time></trkpt><trkpt lat="42.13026942125479" lon="19.615049166852263"><ele>83.0</ele><time>2026-05-03T09:38:33Z</time></trkpt><trkpt lat="42.13027397367699" lon="19.615286936703882"><ele>83.0</ele><time>2026-05-03T09:38:34Z</time></trkpt><trkpt lat="42.13029349215401" lon="19.615546304337183"><ele>83.0</ele><time>2026-05-03T09:38:35Z</time></trkpt><trkpt lat="42.13033895938503" lon="19.61581445088501"><ele>85.0</ele><time>2026-05-03T09:38:36Z</time></trkpt><trkpt lat="42.13038766344485" lon="19.616077331603673"><ele>87.0</ele><time>2026-05-03T09:38:37Z</time></trkpt><trkpt lat="42.13043278296365" lon="19.616316863497907"><ele>89.0</ele><time>2026-05-03T09:38:38Z</time></trkpt><trkpt lat="42.13050760093543" lon="19.61652973619967"><ele>89.66666666666667</ele><time>2026-05-03T09:38:39Z</time></trkpt><trkpt lat="42.130613016695094" lon="19.616749077622394"><ele>90.33333333333333</ele><time>2026-05-03T09:38:40Z</time></trkpt><trkpt lat="42.13070620797488" lon="19.616995182671108"><ele>91.0</ele><time>2026-05-03T09:38:41Z</time></trkpt><trkpt lat="42.130768838358705" lon="19.61726593856121"><ele>95.33333333333333</ele><time>2026-05-03T09:38:42Z</time></trkpt><trkpt lat="42.13082482456964" lon="19.61753583008687"><ele>99.66666666666666</ele><time>2026-05-03T09:38:43Z</time></trkpt><trkpt lat="42.130888568518344" lon="19.617800885892557"><ele>104.0</ele><time>2026-05-03T09:38:44Z</time></trkpt><trkpt lat="42.13094623547094" lon="19.618050195336185"><ele>104.6</ele><time>2026-05-03T09:38:45Z</time></trkpt><trkpt lat="42.13097808739094" lon="19.618247658803067"><ele>105.2</ele><time>2026-05-03T09:38:46Z</time></trkpt><trkpt lat="42.130981435696086" lon="19.61839304313725"><ele>105.79999999999998</ele><time>2026-05-03T09:38:47Z</time></trkpt><trkpt lat="42.130943319975756" lon="19.61849936007849"><ele>106.39999999999999</ele><time>2026-05-03T09:38:48Z</time></trkpt><trkpt lat="42.13085854091418" lon="19.618575315298923"><ele>107.0</ele><time>2026-05-03T09:38:49Z</time></trkpt><trkpt lat="42.13075557825897" lon="19.618660032242694"><ele>103.75</ele><time>2026-05-03T09:38:50Z</time></trkpt><trkpt lat="42.13069670362922" lon="19.618770088601444"><ele>100.5</ele><time>2026-05-03T09:38:51Z</time></trkpt><trkpt lat="42.13067966792377" lon="19.61893058193347"><ele>97.25</ele><time>2026-05-03T09:38:52Z</time></trkpt><trkpt lat="42.13068582405855" lon="19.619140883768626"><ele>94.0</ele><time>2026-05-03T09:38:53Z</time></trkpt><trkpt lat="42.130702171083435" lon="19.619367399352356"><ele>94.33333333333333</ele><time>2026-05-03T09:38:54Z</time></trkpt><trkpt lat="42.13072585180166" lon="19.619621909092995"><ele>94.66666666666667</ele><time>2026-05-03T09:38:55Z</time></trkpt><trkpt lat="42.130717943817025" lon="19.619894863567936"><ele>95.0</ele><time>2026-05-03T09:38:56Z</time></trkpt><trkpt lat="42.13068664595932" lon="19.620173068153335"><ele>94.66666666666667</ele><time>2026-05-03T09:38:57Z</time></trkpt><trkpt lat="42.130650394431576" lon="19.620457349795842"><ele>94.33333333333333</ele><time>2026-05-03T09:38:58Z</time></trkpt><trkpt lat="42.13061599116561" lon="19.620721712363405"><ele>94.0</ele><time>2026-05-03T09:38:59Z</time></trkpt><trkpt lat="42.13059267961753" lon="19.620923793511594"><ele>94.0</ele><time>2026-05-03T09:39:00Z</time></trkpt><trkpt lat="42.13059193506136" lon="19.621097962938187"><ele>94.0</ele><time>2026-05-03T09:39:01Z</time></trkpt><trkpt lat="42.13063453789111" lon="19.621262636491746"><ele>94.0</ele><time>2026-05-03T09:39:02Z</time></trkpt><trkpt lat="42.13072066478187" lon="19.62143411180683"><ele>94.0</ele><time>2026-05-03T09:39:03Z</time></trkpt><trkpt lat="42.13083626812577" lon="19.621624888146734"><ele>96.0</ele><time>2026-05-03T09:39:04Z</time></trkpt><trkpt lat="42.13095663167198" lon="19.621843240784003"><ele>98.0</ele><time>2026-05-03T09:39:05Z</time></trkpt><trkpt lat="42.13107157611992" lon="19.622075355909853"><ele>100.0</ele><time>2026-05-03T09:39:06Z</time></trkpt><trkpt lat="42.131193863454605" lon="19.622321762415503"><ele>100.0</ele><time>2026-05-03T09:39:07Z</time></trkpt><trkpt lat="42.13132295121145" lon="19.62256472617262"><ele>100.0</ele><time>2026-05-03T09:39:08Z</time></trkpt><trkpt lat="42.13146094206143" lon="19.6228041278826"><ele>100.0</ele><time>2026-05-03T09:39:09Z</time></trkpt><trkpt lat="42.13161035248668" lon="19.623015420111784"><ele>103.0</ele><time>2026-05-03T09:39:10Z</time></trkpt><trkpt lat="42.1317809275187" lon="19.62320063351428"><ele>106.0</ele><time>2026-05-03T09:39:11Z</time></trkpt><trkpt lat="42.13197170716394" lon="19.62336970452858"><ele>109.0</ele><time>2026-05-03T09:39:12Z</time></trkpt><trkpt lat="42.13217262724987" lon="19.623544361546834"><ele>106.5</ele><time>2026-05-03T09:39:13Z</time></trkpt><trkpt lat="42.13237882557782" lon="19.62372897436871"><ele>104.0</ele><time>2026-05-03T09:39:14Z</time></trkpt><trkpt lat="42.1325457851108" lon="19.623905373561414"><ele>104.0</ele><time>2026-05-03T09:39:15Z</time></trkpt><trkpt lat="42.13268395835884" lon="19.624065362857888"><ele>104.0</ele><time>2026-05-03T09:39:16Z</time></trkpt><trkpt lat="42.132800869658645" lon="19.62422426319895"><ele>104.0</ele><time>2026-05-03T09:39:17Z</time></trkpt><trkpt lat="42.13290476060625" lon="19.62442346732057"><ele>106.33333333333333</ele><time>2026-05-03T09:39:18Z</time></trkpt><trkpt lat="42.133009259802705" lon="19.62463993820247"><ele>108.66666666666666</ele><time>2026-05-03T09:39:19Z</time></trkpt><trkpt lat="42.133148748124476" lon="19.624835516334112"><ele>111.0</ele><time>2026-05-03T09:39:20Z</time></trkpt><trkpt lat="42.1333237177203" lon="19.62502692632334"><ele>111.0</ele><time>2026-05-03T09:39:21Z</time></trkpt><trkpt lat="42.133502446569096" lon="19.625240564211612"><ele>111.0</ele><time>2026-05-03T09:39:22Z</time></trkpt><trkpt lat="42.13367021528386" lon="19.625471363054373"><ele>106.33333333333334</ele><time>2026-05-03T09:39:23Z</time></trkpt><trkpt lat="42.133802784201364" lon="19.62569788798652"><ele>101.66666666666667</ele><time>2026-05-03T09:39:24Z</time></trkpt><trkpt lat="42.13391722083807" lon="19.625945629290445"><ele>97.0</ele><time>2026-05-03T09:39:24.999Z</time></trkpt><trkpt lat="42.13404513459817" lon="19.626219387577834"><ele>103.0</ele><time>2026-05-03T09:39:25.999Z</time></trkpt><trkpt lat="42.13419119609252" lon="19.626508807095792"><ele>109.0</ele><time>2026-05-03T09:39:26.999Z</time></trkpt><trkpt lat="42.13432486532834" lon="19.62678059458653"><ele>103.66666666666667</ele><time>2026-05-03T09:39:27.999Z</time></trkpt><trkpt lat="42.134437534402494" lon="19.627014897702708"><ele>98.33333333333334</ele><time>2026-05-03T09:39:28.999Z</time></trkpt><trkpt lat="42.134538904806654" lon="19.62720466939824"><ele>93.0</ele><time>2026-05-03T09:39:29.999Z</time></trkpt><trkpt lat="42.134672931517194" lon="19.627379161748028"><ele>93.0</ele><time>2026-05-03T09:39:30.999Z</time></trkpt><trkpt lat="42.13484015119706" lon="19.627565554513925"><ele>93.0</ele><time>2026-05-03T09:39:31.999Z</time></trkpt><trkpt lat="42.13500569407956" lon="19.627765345362363"><ele>93.0</ele><time>2026-05-03T09:39:32.999Z</time></trkpt><trkpt lat="42.13514098617421" lon="19.627967892074867"><ele>94.33333333333334</ele><time>2026-05-03T09:39:33.999Z</time></trkpt><trkpt lat="42.13524539932777" lon="19.62817604696494"><ele>95.66666666666667</ele><time>2026-05-03T09:39:34.999Z</time></trkpt><trkpt lat="42.135357599390126" lon="19.628401126115754"><ele>97.0</ele><time>2026-05-03T09:39:35.999Z</time></trkpt><trkpt lat="42.135481331677404" lon="19.628637642053366"><ele>92.33333333333334</ele><time>2026-05-03T09:39:36.999Z</time></trkpt><trkpt lat="42.13558713216561" lon="19.62883955780779"><ele>87.66666666666667</ele><time>2026-05-03T09:39:37.999Z</time></trkpt><trkpt lat="42.135662702387904" lon="19.629027580890664"><ele>83.0</ele><time>2026-05-03T09:39:38.999Z</time></trkpt><trkpt lat="42.13571485784692" lon="19.629229683931623"><ele>85.75</ele><time>2026-05-03T09:39:39.999Z</time></trkpt><trkpt lat="42.13574070153748" lon="19.62943798029592"><ele>88.5</ele><time>2026-05-03T09:39:40.999Z</time></trkpt><trkpt lat="42.135760523865905" lon="19.629600220104248"><ele>91.25</ele><time>2026-05-03T09:39:41.999Z</time></trkpt><trkpt lat="42.13582820209784" lon="19.62973225039667"><ele>94.0</ele><time>2026-05-03T09:39:42.999Z</time></trkpt><trkpt lat="42.1359535669622" lon="19.62985400543119"><ele>94.0</ele><time>2026-05-03T09:39:43.999Z</time></trkpt><trkpt lat="42.13610719524006" lon="19.629970583900842"><ele>94.0</ele><time>2026-05-03T09:39:44.999Z</time></trkpt><trkpt lat="42.136259879712924" lon="19.63014218794431"><ele>94.0</ele><time>2026-05-03T09:39:45.999Z</time></trkpt><trkpt lat="42.13640883541893" lon="19.63035253406281"><ele>96.0</ele><time>2026-05-03T09:39:46.999Z</time></trkpt><trkpt lat="42.136556453206396" lon="19.63054765837195"><ele>98.0</ele><time>2026-05-03T09:39:47.999Z</time></trkpt><trkpt lat="42.13669015938064" lon="19.630718720545733"><ele>100.0</ele><time>2026-05-03T09:39:48.999Z</time></trkpt><trkpt lat="42.13681726443853" lon="19.630912773988992"><ele>100.0</ele><time>2026-05-03T09:39:49.999Z</time></trkpt><trkpt lat="42.13692626918554" lon="19.631136914989522"><ele>100.0</ele><time>2026-05-03T09:39:50.999Z</time></trkpt><trkpt lat="42.13702762933124" lon="19.63134112290696"><ele>100.0</ele><time>2026-05-03T09:39:51.999Z</time></trkpt><trkpt lat="42.13714184275333" lon="19.631496977613693"><ele>100.66666666666667</ele><time>2026-05-03T09:39:52.999Z</time></trkpt><trkpt lat="42.137284750035896" lon="19.631622004518615"><ele>101.33333333333334</ele><time>2026-05-03T09:39:53.999Z</time></trkpt><trkpt lat="42.137461378673585" lon="19.631729313904273"><ele>102.0</ele><time>2026-05-03T09:39:54.999Z</time></trkpt><trkpt lat="42.13766180212366" lon="19.631845202729593"><ele>95.0</ele><time>2026-05-03T09:39:55.999Z</time></trkpt><trkpt lat="42.13786946686565" lon="19.631987191535956"><ele>88.0</ele><time>2026-05-03T09:39:56.999Z</time></trkpt><trkpt lat="42.138081649454136" lon="19.63213719276779"><ele>95.5</ele><time>2026-05-03T09:39:57.999Z</time></trkpt><trkpt lat="42.13830140261329" lon="19.63228191100454"><ele>103.0</ele><time>2026-05-03T09:39:58.999Z</time></trkpt><trkpt lat="42.138521753927655" lon="19.63242031636857"><ele>103.0</ele><time>2026-05-03T09:39:59.999Z</time></trkpt><trkpt lat="42.13873223051924" lon="19.632591236658648"><ele>103.0</ele><time>2026-05-03T09:40:00.999Z</time></trkpt><trkpt lat="42.1389227904045" lon="19.632774305800496"><ele>100.66666666666667</ele><time>2026-05-03T09:40:01.999Z</time></trkpt><trkpt lat="42.13908734754438" lon="19.6329334140179"><ele>98.33333333333334</ele><time>2026-05-03T09:40:02.999Z</time></trkpt><trkpt lat="42.13921728075947" lon="19.633105685356096"><ele>96.0</ele><time>2026-05-03T09:40:03.999Z</time></trkpt><trkpt lat="42.13930371766351" lon="19.633302690104337"><ele>96.0</ele><time>2026-05-03T09:40:04.999Z</time></trkpt><trkpt lat="42.139359477456345" lon="19.63354721496826"><ele>96.0</ele><time>2026-05-03T09:40:05.999Z</time></trkpt><trkpt lat="42.13941545450546" lon="19.633832244698226"><ele>96.0</ele><time>2026-05-03T09:40:06.999Z</time></trkpt><trkpt lat="42.13949074577396" lon="19.634141992206423"><ele>94.5</ele><time>2026-05-03T09:40:07.999Z</time></trkpt><trkpt lat="42.13958020092373" lon="19.634453591641226"><ele>93.0</ele><time>2026-05-03T09:40:08.999Z</time></trkpt><trkpt lat="42.13965218957045" lon="19.634753517031207"><ele>93.0</ele><time>2026-05-03T09:40:09.999Z</time></trkpt><trkpt lat="42.13969129469858" lon="19.6350312338584"><ele>93.0</ele><time>2026-05-03T09:40:10.999Z</time></trkpt><trkpt lat="42.139715296527065" lon="19.635301085927"><ele>93.0</ele><time>2026-05-03T09:40:11.999Z</time></trkpt><trkpt lat="42.139732796449316" lon="19.635561951135198"><ele>92.33333333333333</ele><time>2026-05-03T09:40:12.999Z</time></trkpt><trkpt lat="42.13977038682703" lon="19.635809144529652"><ele>91.66666666666666</ele><time>2026-05-03T09:40:13.999Z</time></trkpt><trkpt lat="42.13983809211785" lon="19.63603714447662"><ele>91.0</ele><time>2026-05-03T09:40:14.999Z</time></trkpt><trkpt lat="42.13989599595558" lon="19.636258124981808"><ele>94.66666666666666</ele><time>2026-05-03T09:40:15.999Z</time></trkpt><trkpt lat="42.13992543432638" lon="19.636477304441136"><ele>98.33333333333333</ele><time>2026-05-03T09:40:16.999Z</time></trkpt><trkpt lat="42.13992932149449" lon="19.636684501763725"><ele>102.0</ele><time>2026-05-03T09:40:17.999Z</time></trkpt><trkpt lat="42.13989885392584" lon="19.636872004154828"><ele>98.75</ele><time>2026-05-03T09:40:18.999Z</time></trkpt><trkpt lat="42.139833243052344" lon="19.63704070984395"><ele>95.5</ele><time>2026-05-03T09:40:19.999Z</time></trkpt><trkpt lat="42.1397426581735" lon="19.63718172677713"><ele>92.25</ele><time>2026-05-03T09:40:20.999Z</time></trkpt><trkpt lat="42.139679920631664" lon="19.63732727508436"><ele>89.0</ele><time>2026-05-03T09:40:21.999Z</time></trkpt><trkpt lat="42.1396479273279" lon="19.63744934176311"><ele>89.0</ele><time>2026-05-03T09:40:22.999Z</time></trkpt><trkpt lat="42.139630430397986" lon="19.637544641437774"><ele>89.0</ele><time>2026-05-03T09:40:23.999Z</time></trkpt><trkpt lat="42.13960550482542" lon="19.637675136717665"><ele>89.0</ele><time>2026-05-03T09:40:25.999Z</time></trkpt><trkpt lat="42.13954129738735" lon="19.637808385707604"><ele>89.0</ele><time>2026-05-03T09:40:44Z</time></trkpt><trkpt lat="42.139509600660126" lon="19.637896383519823"><ele>89.0</ele><time>2026-05-03T09:40:45Z</time></trkpt><trkpt lat="42.139467767183376" lon="19.637986778613335"><ele>89.0</ele><time>2026-05-03T09:40:46Z</time></trkpt><trkpt lat="42.13943747217892" lon="19.638072853630717"><ele>89.0</ele><time>2026-05-03T09:40:47Z</time></trkpt><trkpt lat="42.13937050087285" lon="19.638169925654207"><ele>89.0</ele><time>2026-05-03T09:40:49Z</time></trkpt><trkpt lat="42.13930730711275" lon="19.63815541322518"><ele>89.0</ele><time>2026-05-03T09:40:51Z</time></trkpt><trkpt lat="42.13919339096124" lon="19.638113477465225"><ele>89.0</ele><time>2026-05-03T09:40:53Z</time></trkpt><trkpt lat="42.13910238138554" lon="19.63806877887399"><ele>89.0</ele><time>2026-05-03T09:40:55Z</time></trkpt><trkpt lat="42.13909599233215" lon="19.63794169838596"><ele>89.0</ele><time>2026-05-03T09:40:57Z</time></trkpt><trkpt lat="42.139150196620264" lon="19.637800918279446"><ele>89.0</ele><time>2026-05-03T09:40:59Z</time></trkpt><trkpt lat="42.139205019239036" lon="19.637736122670635"><ele>89.0</ele><time>2026-05-03T09:41:00Z</time></trkpt><trkpt lat="42.1392853225065" lon="19.637670646110042"><ele>89.0</ele><time>2026-05-03T09:41:02Z</time></trkpt><trkpt lat="42.13922179774017" lon="19.637740595510582"><ele>89.0</ele><time>2026-05-03T09:41:42Z</time></trkpt><trkpt lat="42.13914740835843" lon="19.63782026060694"><ele>89.0</ele><time>2026-05-03T09:41:44Z</time></trkpt><trkpt lat="42.13908152270603" lon="19.637915313243777"><ele>89.0</ele><time>2026-05-03T09:41:45Z</time></trkpt><trkpt lat="42.13909968045033" lon="19.638009877989553"><ele>89.0</ele><time>2026-05-03T09:41:52Z</time></trkpt><trkpt lat="42.139129176584255" lon="19.638095596903614"><ele>89.0</ele><time>2026-05-03T09:41:56Z</time></trkpt><trkpt lat="42.139197348030784" lon="19.638111809246936"><ele>89.0</ele><time>2026-05-03T09:41:59Z</time></trkpt><trkpt lat="42.13927515897404" lon="19.63813150218513"><ele>89.0</ele><time>2026-05-03T09:42:03Z</time></trkpt><trkpt lat="42.13934132805097" lon="19.638154084965507"><ele>88.99999999999999</ele><time>2026-05-03T09:42:16Z</time></trkpt><trkpt lat="42.139280482883464" lon="19.638108322912274"><ele>89.0</ele><time>2026-05-03T09:43:02Z</time></trkpt><trkpt lat="42.13920678848387" lon="19.638106442752072"><ele>89.0</ele><time>2026-05-03T09:43:08Z</time></trkpt><trkpt lat="42.13913854632462" lon="19.638083371597922"><ele>89.0</ele><time>2026-05-03T09:43:11Z</time></trkpt><trkpt lat="42.13911446348666" lon="19.638002445319156"><ele>89.0</ele><time>2026-05-03T09:43:14Z</time></trkpt><trkpt lat="42.13913751334063" lon="19.63791221428469"><ele>88.99999999999999</ele><time>2026-05-03T09:43:19Z</time></trkpt><trkpt lat="42.139179811317014" lon="19.637838384939243"><ele>89.0</ele><time>2026-05-03T09:43:24Z</time></trkpt><trkpt lat="42.139195192628996" lon="19.6377538078891"><ele>89.0</ele><time>2026-05-03T09:43:28Z</time></trkpt><trkpt lat="42.139135472284636" lon="19.637785025383998"><ele>89.0</ele><time>2026-05-03T09:43:32Z</time></trkpt><trkpt lat="42.139194519452474" lon="19.637741034913994"><ele>89.0</ele><time>2026-05-03T09:44:19Z</time></trkpt><trkpt lat="42.13925979646767" lon="19.637724613533138"><ele>89.0</ele><time>2026-05-03T09:45:50Z</time></trkpt><trkpt lat="42.13918734530435" lon="19.637832085484714"><ele>89.0</ele><time>2026-05-03T09:47:08.999Z</time></trkpt><trkpt lat="42.13914279479752" lon="19.637941094918773"><ele>89.0</ele><time>2026-05-03T09:47:09.999Z</time></trkpt><trkpt lat="42.139112007081515" lon="19.63803024684507"><ele>89.0</ele><time>2026-05-03T09:47:10.999Z</time></trkpt><trkpt lat="42.13914788124682" lon="19.63813002466335"><ele>89.0</ele><time>2026-05-03T09:47:12.999Z</time></trkpt><trkpt lat="42.139238659873115" lon="19.638157797601885"><ele>89.0</ele><time>2026-05-03T09:47:14.999Z</time></trkpt><trkpt lat="42.13931438601764" lon="19.63814934036162"><ele>89.0</ele><time>2026-05-03T09:47:21.999Z</time></trkpt><trkpt lat="42.13942229437142" lon="19.63815380441472"><ele>89.0</ele><time>2026-05-03T09:47:23.999Z</time></trkpt><trkpt lat="42.13947809124959" lon="19.638048887290026"><ele>89.0</ele><time>2026-05-03T09:47:25.999Z</time></trkpt><trkpt lat="42.13950445102705" lon="19.63796941351254"><ele>89.0</ele><time>2026-05-03T09:47:26.999Z</time></trkpt><trkpt lat="42.13955097271738" lon="19.63784183023012"><ele>89.0</ele><time>2026-05-03T09:47:28.999Z</time></trkpt><trkpt lat="42.139582695529334" lon="19.637736944800913"><ele>89.0</ele><time>2026-05-03T09:47:30.999Z</time></trkpt><trkpt lat="42.139626370734426" lon="19.63782444455966"><ele>89.0</ele><time>2026-05-03T09:47:35.999Z</time></trkpt><trkpt lat="42.13958854450038" lon="19.63793315090779"><ele>89.0</ele><time>2026-05-03T09:47:36.999Z</time></trkpt><trkpt lat="42.139558153404295" lon="19.638063749989925"><ele>89.0</ele><time>2026-05-03T09:47:37.999Z</time></trkpt><trkpt lat="42.13955856247542" lon="19.638175263958388"><ele>89.0</ele><time>2026-05-03T09:47:38.999Z</time></trkpt><trkpt lat="42.13959145604043" lon="19.63826759139241"><ele>89.0</ele><time>2026-05-03T09:47:39.999Z</time></trkpt><trkpt lat="42.139664673654124" lon="19.638341533328717"><ele>89.0</ele><time>2026-05-03T09:47:40.999Z</time></trkpt><trkpt lat="42.139766727022405" lon="19.63838888302161"><ele>89.0</ele><time>2026-05-03T09:47:41.999Z</time></trkpt><trkpt lat="42.139894285000196" lon="19.63841631936343"><ele>91.0</ele><time>2026-05-03T09:47:42.999Z</time></trkpt><trkpt lat="42.14003034859174" lon="19.63841037259184"><ele>93.0</ele><time>2026-05-03T09:47:43.999Z</time></trkpt><trkpt lat="42.140183208689805" lon="19.63837356365908"><ele>95.0</ele><time>2026-05-03T09:47:44.999Z</time></trkpt><trkpt lat="42.14035391002202" lon="19.638323788299"><ele>95.0</ele><time>2026-05-03T09:47:45.999Z</time></trkpt><trkpt lat="42.140512674751044" lon="19.63829014200115"><ele>95.0</ele><time>2026-05-03T09:47:46.999Z</time></trkpt><trkpt lat="42.140673549912144" lon="19.638266875977738"><ele>95.0</ele><time>2026-05-03T09:47:47.999Z</time></trkpt><trkpt lat="42.140845818754634" lon="19.638253252617563"><ele>96.5</ele><time>2026-05-03T09:47:48.999Z</time></trkpt><trkpt lat="42.14100209738336" lon="19.638265105152126"><ele>98.0</ele><time>2026-05-03T09:47:49.999Z</time></trkpt><trkpt lat="42.14114460560549" lon="19.63828004310642"><ele>99.5</ele><time>2026-05-03T09:47:50.999Z</time></trkpt><trkpt lat="42.14127732435378" lon="19.6383231998011"><ele>101.0</ele><time>2026-05-03T09:47:51.999Z</time></trkpt><trkpt lat="42.14140502807763" lon="19.63841491247242"><ele>101.0</ele><time>2026-05-03T09:47:52.999Z</time></trkpt><trkpt lat="42.1415249373558" lon="19.638542298469865"><ele>101.0</ele><time>2026-05-03T09:47:53.999Z</time></trkpt><trkpt lat="42.14163992027812" lon="19.63869276819572"><ele>101.0</ele><time>2026-05-03T09:47:54.999Z</time></trkpt><trkpt lat="42.14174663345337" lon="19.63885774477973"><ele>100.66666666666666</ele><time>2026-05-03T09:47:55.999Z</time></trkpt><trkpt lat="42.1418372494854" lon="19.639037808887384"><ele>100.33333333333334</ele><time>2026-05-03T09:47:56.999Z</time></trkpt><trkpt lat="42.141888497670735" lon="19.639232104463787"><ele>100.0</ele><time>2026-05-03T09:47:57.999Z</time></trkpt><trkpt lat="42.14189773479464" lon="19.63942815830393"><ele>99.33333333333334</ele><time>2026-05-03T09:47:58.999Z</time></trkpt><trkpt lat="42.14186810355321" lon="19.639634482710182"><ele>98.66666666666666</ele><time>2026-05-03T09:47:59.999Z</time></trkpt><trkpt lat="42.14186280621638" lon="19.63985147445066"><ele>98.0</ele><time>2026-05-03T09:48:00.999Z</time></trkpt><trkpt lat="42.14189455006311" lon="19.640069076611496"><ele>98.0</ele><time>2026-05-03T09:48:01.999Z</time></trkpt><trkpt lat="42.14188321011316" lon="19.640260704866467"><ele>98.0</ele><time>2026-05-03T09:48:02.999Z</time></trkpt><trkpt lat="42.14183973713024" lon="19.6404606499444"><ele>98.0</ele><time>2026-05-03T09:48:03.999Z</time></trkpt><trkpt lat="42.14179854265189" lon="19.640670067794407"><ele>99.66666666666666</ele><time>2026-05-03T09:48:04.999Z</time></trkpt><trkpt lat="42.14175124347003" lon="19.64087633022873"><ele>101.33333333333334</ele><time>2026-05-03T09:48:05.999Z</time></trkpt><trkpt lat="42.14167654408003" lon="19.641075456173706"><ele>103.0</ele><time>2026-05-03T09:48:06.999Z</time></trkpt><trkpt lat="42.14158668249212" lon="19.64127854916299"><ele>102.66666666666667</ele><time>2026-05-03T09:48:07.999Z</time></trkpt><trkpt lat="42.14149446053059" lon="19.641492738603713"><ele>102.33333333333334</ele><time>2026-05-03T09:48:08.999Z</time></trkpt><trkpt lat="42.14140762474071" lon="19.641719236006388"><ele>102.0</ele><time>2026-05-03T09:48:09.999Z</time></trkpt><trkpt lat="42.14131928666486" lon="19.641965587902337"><ele>102.0</ele><time>2026-05-03T09:48:10.999Z</time></trkpt><trkpt lat="42.14121789028633" lon="19.642229380151424"><ele>102.0</ele><time>2026-05-03T09:48:11.999Z</time></trkpt><trkpt lat="42.141108594424786" lon="19.64247260221848"><ele>102.0</ele><time>2026-05-03T09:48:12.999Z</time></trkpt><trkpt lat="42.14101102581484" lon="19.64267117189326"><ele>107.0</ele><time>2026-05-03T09:48:13.999Z</time></trkpt><trkpt lat="42.14093221560705" lon="19.64284475946816"><ele>112.0</ele><time>2026-05-03T09:48:14.999Z</time></trkpt><trkpt lat="42.14086568222805" lon="19.64299204786816"><ele>117.0</ele><time>2026-05-03T09:48:15.999Z</time></trkpt><trkpt lat="42.140815622622064" lon="19.643142093277774"><ele>122.0</ele><time>2026-05-03T09:48:16.999Z</time></trkpt><trkpt lat="42.14077565898009" lon="19.643316411469726"><ele>122.0</ele><time>2026-05-03T09:48:17.999Z</time></trkpt><trkpt lat="42.14075341469588" lon="19.64349719592771"><ele>122.0</ele><time>2026-05-03T09:48:18.999Z</time></trkpt><trkpt lat="42.1407423758881" lon="19.64372839278459"><ele>122.0</ele><time>2026-05-03T09:48:19.999Z</time></trkpt><trkpt lat="42.140738933904075" lon="19.643963896130117"><ele>121.33333333333333</ele><time>2026-05-03T09:48:20.999Z</time></trkpt><trkpt lat="42.14074184039027" lon="19.644201815812774"><ele>120.66666666666666</ele><time>2026-05-03T09:48:21.999Z</time></trkpt><trkpt lat="42.14073565737844" lon="19.644423598311665"><ele>120.0</ele><time>2026-05-03T09:48:22.999Z</time></trkpt><trkpt lat="42.140701890228804" lon="19.6446244065638"><ele>120.0</ele><time>2026-05-03T09:48:23.999Z</time></trkpt><trkpt lat="42.14065620831472" lon="19.644830646387277"><ele>120.0</ele><time>2026-05-03T09:48:24.999Z</time></trkpt><trkpt lat="42.140594303737345" lon="19.645025685008893"><ele>120.0</ele><time>2026-05-03T09:48:25.999Z</time></trkpt><trkpt lat="42.14051232193821" lon="19.645229169302027"><ele>118.0</ele><time>2026-05-03T09:48:26.999Z</time></trkpt><trkpt lat="42.140448058515595" lon="19.645442226018663"><ele>116.0</ele><time>2026-05-03T09:48:27.999Z</time></trkpt><trkpt lat="42.14040697793976" lon="19.64567531574477"><ele>114.0</ele><time>2026-05-03T09:48:28.999Z</time></trkpt><trkpt lat="42.14036779049057" lon="19.645875982870407"><ele>114.0</ele><time>2026-05-03T09:48:29.999Z</time></trkpt><trkpt lat="42.1403302968344" lon="19.646047548596087"><ele>114.0</ele><time>2026-05-03T09:48:30.999Z</time></trkpt><trkpt lat="42.140312285683166" lon="19.646194173569725"><ele>114.0</ele><time>2026-05-03T09:48:31.999Z</time></trkpt><trkpt lat="42.14031187928336" lon="19.64630321648685"><ele>114.0</ele><time>2026-05-03T09:48:32.999Z</time></trkpt><trkpt lat="42.14035064081879" lon="19.646410713753394"><ele>114.0</ele><time>2026-05-03T09:48:33.999Z</time></trkpt><trkpt lat="42.14044031775985" lon="19.64652382943072"><ele>112.0</ele><time>2026-05-03T09:48:34.999Z</time></trkpt><trkpt lat="42.14055220432162" lon="19.646635132956067"><ele>110.0</ele><time>2026-05-03T09:48:35.999Z</time></trkpt><trkpt lat="42.140669044519626" lon="19.64674859121492"><ele>108.0</ele><time>2026-05-03T09:48:36.999Z</time></trkpt><trkpt lat="42.14081277939626" lon="19.64685865598353"><ele>106.0</ele><time>2026-05-03T09:48:37.999Z</time></trkpt><trkpt lat="42.140986550059345" lon="19.646943345345033"><ele>105.66666666666667</ele><time>2026-05-03T09:48:38.999Z</time></trkpt><trkpt lat="42.14118878342797" lon="19.647014180250327"><ele>105.33333333333334</ele><time>2026-05-03T09:48:39.999Z</time></trkpt><trkpt lat="42.14138792742051" lon="19.647076218708165"><ele>105.0</ele><time>2026-05-03T09:48:40.999Z</time></trkpt><trkpt lat="42.14154985850967" lon="19.64712670484188"><ele>104.5</ele><time>2026-05-03T09:48:41.999Z</time></trkpt><trkpt lat="42.14166672591799" lon="19.64720848941934"><ele>104.0</ele><time>2026-05-03T09:48:42.999Z</time></trkpt><trkpt lat="42.14173077762543" lon="19.64731886754856"><ele>103.5</ele><time>2026-05-03T09:48:43.999Z</time></trkpt><trkpt lat="42.14179260874311" lon="19.647450317512174"><ele>103.0</ele><time>2026-05-03T09:48:44.999Z</time></trkpt><trkpt lat="42.14188258534205" lon="19.647592468913377"><ele>103.0</ele><time>2026-05-03T09:48:45.999Z</time></trkpt><trkpt lat="42.141996963765145" lon="19.64775165645202"><ele>103.0</ele><time>2026-05-03T09:48:46.999Z</time></trkpt><trkpt lat="42.142105471078175" lon="19.647921587633014"><ele>103.0</ele><time>2026-05-03T09:48:47.999Z</time></trkpt><trkpt lat="42.14220286640037" lon="19.648095475983087"><ele>103.33333333333334</ele><time>2026-05-03T09:48:48.999Z</time></trkpt><trkpt lat="42.142295956478144" lon="19.64828047517855"><ele>103.66666666666666</ele><time>2026-05-03T09:48:49.999Z</time></trkpt><trkpt lat="42.142382539364" lon="19.648481117462982"><ele>104.0</ele><time>2026-05-03T09:48:50.999Z</time></trkpt><trkpt lat="42.142463877456706" lon="19.64869034127599"><ele>107.33333333333333</ele><time>2026-05-03T09:48:51.999Z</time></trkpt><trkpt lat="42.142538358447005" lon="19.6489047439419"><ele>110.66666666666666</ele><time>2026-05-03T09:48:52.999Z</time></trkpt><trkpt lat="42.14261667341241" lon="19.649119168813662"><ele>114.0</ele><time>2026-05-03T09:48:53.999Z</time></trkpt><trkpt lat="42.14267938996668" lon="19.64932099681988"><ele>113.0</ele><time>2026-05-03T09:48:54.999Z</time></trkpt><trkpt lat="42.142707398626285" lon="19.649503052838643"><ele>112.0</ele><time>2026-05-03T09:48:55.999Z</time></trkpt><trkpt lat="42.142722318546284" lon="19.649661725685473"><ele>111.0</ele><time>2026-05-03T09:48:56.999Z</time></trkpt><trkpt lat="42.142717912894156" lon="19.6498091943895"><ele>110.0</ele><time>2026-05-03T09:48:57.999Z</time></trkpt><trkpt lat="42.14271763474099" lon="19.649956031999157"><ele>110.0</ele><time>2026-05-03T09:48:58.999Z</time></trkpt><trkpt lat="42.14271215435884" lon="19.650102564643486"><ele>110.0</ele><time>2026-05-03T09:48:59.999Z</time></trkpt><trkpt lat="42.14269941006276" lon="19.650252404286302"><ele>110.0</ele><time>2026-05-03T09:49:00.999Z</time></trkpt><trkpt lat="42.142679062842156" lon="19.650385924741897"><ele>110.0</ele><time>2026-05-03T09:49:01.999Z</time></trkpt><trkpt lat="42.1426431285489" lon="19.65051160241699"><ele>110.0</ele><time>2026-05-03T09:49:02.999Z</time></trkpt><trkpt lat="42.1426042832684" lon="19.650622714331067"><ele>111.0</ele><time>2026-05-03T09:49:03.999Z</time></trkpt><trkpt lat="42.142562796158245" lon="19.650745074112166"><ele>112.0</ele><time>2026-05-03T09:49:04.999Z</time></trkpt><trkpt lat="42.14253620121668" lon="19.650866935230056"><ele>113.0</ele><time>2026-05-03T09:49:05.999Z</time></trkpt><trkpt lat="42.14251210676567" lon="19.65098760662471"><ele>114.0</ele><time>2026-05-03T09:49:06.999Z</time></trkpt><trkpt lat="42.14250497292458" lon="19.651107749321397"><ele>115.0</ele><time>2026-05-03T09:49:07.999Z</time></trkpt><trkpt lat="42.142518708322896" lon="19.651237490636298"><ele>115.2</ele><time>2026-05-03T09:49:08.999Z</time></trkpt><trkpt lat="42.142531875851375" lon="19.651375873737894"><ele>115.4</ele><time>2026-05-03T09:49:09.999Z</time></trkpt><trkpt lat="42.142558544824084" lon="19.65151009412586"><ele>115.6</ele><time>2026-05-03T09:49:10.999Z</time></trkpt><trkpt lat="42.142593797176005" lon="19.651637490588406"><ele>115.8</ele><time>2026-05-03T09:49:11.999Z</time></trkpt><trkpt lat="42.142655368906965" lon="19.65177152140956"><ele>116.0</ele><time>2026-05-03T09:49:12.999Z</time></trkpt><trkpt lat="42.142715366340155" lon="19.65192798054654"><ele>116.5</ele><time>2026-05-03T09:49:13.999Z</time></trkpt><trkpt lat="42.142751600031815" lon="19.652088127298132"><ele>117.0</ele><time>2026-05-03T09:49:14.999Z</time></trkpt><trkpt lat="42.14278074362608" lon="19.652239560584434"><ele>117.5</ele><time>2026-05-03T09:49:15.999Z</time></trkpt><trkpt lat="42.14284493050289" lon="19.652375778255912"><ele>118.0</ele><time>2026-05-03T09:49:16.999Z</time></trkpt><trkpt lat="42.14295845102173" lon="19.65251946368099"><ele>118.0</ele><time>2026-05-03T09:49:17.999Z</time></trkpt><trkpt lat="42.14307512470834" lon="19.652656335034237"><ele>118.0</ele><time>2026-05-03T09:49:18.999Z</time></trkpt><trkpt lat="42.14321568780521" lon="19.652807193207366"><ele>118.0</ele><time>2026-05-03T09:49:19.999Z</time></trkpt><trkpt lat="42.14332376328355" lon="19.652955007574807"><ele>119.25</ele><time>2026-05-03T09:49:20.999Z</time></trkpt><trkpt lat="42.143425421927" lon="19.653111911097866"><ele>120.5</ele><time>2026-05-03T09:49:21.999Z</time></trkpt><trkpt lat="42.14351238369035" lon="19.653274444414755"><ele>121.75</ele><time>2026-05-03T09:49:22.999Z</time></trkpt><trkpt lat="42.14360219150982" lon="19.65341663907726"><ele>123.0</ele><time>2026-05-03T09:49:23.999Z</time></trkpt><trkpt lat="42.143719002935384" lon="19.653514377028113"><ele>123.0</ele><time>2026-05-03T09:49:24.999Z</time></trkpt><trkpt lat="42.14386117156639" lon="19.653612159277305"><ele>123.0</ele><time>2026-05-03T09:49:25.999Z</time></trkpt><trkpt lat="42.144000194922214" lon="19.653739687343556"><ele>123.0</ele><time>2026-05-03T09:49:26.999Z</time></trkpt><trkpt lat="42.144135289055654" lon="19.653894000686396"><ele>129.66666666666666</ele><time>2026-05-03T09:49:27.999Z</time></trkpt><trkpt lat="42.14426471835184" lon="19.654054160114228"><ele>136.33333333333331</ele><time>2026-05-03T09:49:28.999Z</time></trkpt><trkpt lat="42.14438930926773" lon="19.654205027676234"><ele>143.0</ele><time>2026-05-03T09:49:29.999Z</time></trkpt><trkpt lat="42.144488829070696" lon="19.654345580583957"><ele>141.5</ele><time>2026-05-03T09:49:30.999Z</time></trkpt><trkpt lat="42.14456184673621" lon="19.654491174172612"><ele>140.0</ele><time>2026-05-03T09:49:31.999Z</time></trkpt><trkpt lat="42.14461576710427" lon="19.654627938420298"><ele>138.5</ele><time>2026-05-03T09:49:32.999Z</time></trkpt><trkpt lat="42.144675901853496" lon="19.654755270034133"><ele>137.0</ele><time>2026-05-03T09:49:33.999Z</time></trkpt><trkpt lat="42.14474889855309" lon="19.654873163319447"><ele>137.0</ele><time>2026-05-03T09:49:34.999Z</time></trkpt><trkpt lat="42.14483956230075" lon="19.654989923293897"><ele>137.0</ele><time>2026-05-03T09:49:35.999Z</time></trkpt><trkpt lat="42.14494361204356" lon="19.655112429763516"><ele>137.0</ele><time>2026-05-03T09:49:36.999Z</time></trkpt><trkpt lat="42.1450462368973" lon="19.655259569148757"><ele>137.0</ele><time>2026-05-03T09:49:37.999Z</time></trkpt><trkpt lat="42.14513973655506" lon="19.655431107175577"><ele>137.33333333333331</ele><time>2026-05-03T09:49:38.999Z</time></trkpt><trkpt lat="42.14523509464451" lon="19.655610334824534"><ele>137.66666666666666</ele><time>2026-05-03T09:49:39.999Z</time></trkpt><trkpt lat="42.14533105033023" lon="19.655795035634643"><ele>138.0</ele><time>2026-05-03T09:49:40.999Z</time></trkpt><trkpt lat="42.14542854015038" lon="19.65598603994014"><ele>137.25</ele><time>2026-05-03T09:49:41.999Z</time></trkpt><trkpt lat="42.14552013456988" lon="19.656174356357337"><ele>136.5</ele><time>2026-05-03T09:49:42.999Z</time></trkpt><trkpt lat="42.14558303160226" lon="19.65635318405643"><ele>135.75</ele><time>2026-05-03T09:49:43.999Z</time></trkpt><trkpt lat="42.14562374078215" lon="19.656526623489277"><ele>135.0</ele><time>2026-05-03T09:49:44.999Z</time></trkpt><trkpt lat="42.14565486232388" lon="19.656672265142223"><ele>135.0</ele><time>2026-05-03T09:49:45.999Z</time></trkpt><trkpt lat="42.14568482949521" lon="19.656784331149264"><ele>135.0</ele><time>2026-05-03T09:49:46.999Z</time></trkpt><trkpt lat="42.14572808794588" lon="19.656875544452934"><ele>135.0</ele><time>2026-05-03T09:49:47.999Z</time></trkpt><trkpt lat="42.145790787098726" lon="19.65695301289485"><ele>135.0</ele><time>2026-05-03T09:49:48.999Z</time></trkpt><trkpt lat="42.14586696318424" lon="19.657037738339938"><ele>135.0</ele><time>2026-05-03T09:49:49.999Z</time></trkpt><trkpt lat="42.145934846818626" lon="19.657119857405842"><ele>135.0</ele><time>2026-05-03T09:49:50.999Z</time></trkpt><trkpt lat="42.146004211421875" lon="19.657209353940402"><ele>135.5</ele><time>2026-05-03T09:49:51.999Z</time></trkpt><trkpt lat="42.146091368505004" lon="19.65730433402921"><ele>136.0</ele><time>2026-05-03T09:49:52.999Z</time></trkpt><trkpt lat="42.146198050860406" lon="19.657393289556108"><ele>136.5</ele><time>2026-05-03T09:49:53.999Z</time></trkpt><trkpt lat="42.146318084152526" lon="19.657475980381136"><ele>137.0</ele><time>2026-05-03T09:49:54.999Z</time></trkpt><trkpt lat="42.146432223461595" lon="19.65755359322219"><ele>138.75</ele><time>2026-05-03T09:49:55.999Z</time></trkpt><trkpt lat="42.14655017494276" lon="19.657618036221272"><ele>140.5</ele><time>2026-05-03T09:49:56.999Z</time></trkpt><trkpt lat="42.146679724994776" lon="19.65766176531967"><ele>142.25</ele><time>2026-05-03T09:49:57.999Z</time></trkpt><trkpt lat="42.14681648319807" lon="19.6576993574783"><ele>144.0</ele><time>2026-05-03T09:49:58.999Z</time></trkpt><trkpt lat="42.14694999326547" lon="19.6577492919215"><ele>138.33333333333334</ele><time>2026-05-03T09:49:59.999Z</time></trkpt><trkpt lat="42.147076857240585" lon="19.657849256228207"><ele>132.66666666666669</ele><time>2026-05-03T09:50:00.999Z</time></trkpt><trkpt lat="42.14718653061179" lon="19.65801391775503"><ele>127.0</ele><time>2026-05-03T09:50:01.999Z</time></trkpt><trkpt lat="42.147292438547794" lon="19.658200729379594"><ele>126.33333333333334</ele><time>2026-05-03T09:50:02.999Z</time></trkpt><trkpt lat="42.14739873546267" lon="19.658395587545176"><ele>125.66666666666666</ele><time>2026-05-03T09:50:03.999Z</time></trkpt><trkpt lat="42.147501038756296" lon="19.65859132000449"><ele>125.0</ele><time>2026-05-03T09:50:04.999Z</time></trkpt><trkpt lat="42.14760169216658" lon="19.658801088781516"><ele>125.0</ele><time>2026-05-03T09:50:05.999Z</time></trkpt><trkpt lat="42.147706094524395" lon="19.659021567032955"><ele>125.0</ele><time>2026-05-03T09:50:06.999Z</time></trkpt><trkpt lat="42.14781562061353" lon="19.65925912923863"><ele>125.0</ele><time>2026-05-03T09:50:07.999Z</time></trkpt><trkpt lat="42.14793400159717" lon="19.6594988353473"><ele>126.0</ele><time>2026-05-03T09:50:08.999Z</time></trkpt><trkpt lat="42.148053279234325" lon="19.65972730265292"><ele>127.0</ele><time>2026-05-03T09:50:09.999Z</time></trkpt><trkpt lat="42.14815947602318" lon="19.659932773223694"><ele>128.0</ele><time>2026-05-03T09:50:10.999Z</time></trkpt><trkpt lat="42.14825203689171" lon="19.660097634606284"><ele>128.0</ele><time>2026-05-03T09:50:11.999Z</time></trkpt><trkpt lat="42.14835393297588" lon="19.660226254262305"><ele>128.0</ele><time>2026-05-03T09:50:12.999Z</time></trkpt><trkpt lat="42.14847818565888" lon="19.660322153027444"><ele>128.0</ele><time>2026-05-03T09:50:13.999Z</time></trkpt><trkpt lat="42.14861494815123" lon="19.66037654976135"><ele>128.0</ele><time>2026-05-03T09:50:14.999Z</time></trkpt><trkpt lat="42.148749745818016" lon="19.66039522705073"><ele>127.0</ele><time>2026-05-03T09:50:15.999Z</time></trkpt><trkpt lat="42.14887688712514" lon="19.660408307527877"><ele>126.00000000000001</ele><time>2026-05-03T09:50:16.999Z</time></trkpt><trkpt lat="42.14897557598028" lon="19.66046179741847"><ele>125.00000000000001</ele><time>2026-05-03T09:50:17.999Z</time></trkpt><trkpt lat="42.14902644215131" lon="19.66055330902532"><ele>124.0</ele><time>2026-05-03T09:50:18.999Z</time></trkpt><trkpt lat="42.149036257347845" lon="19.66066620393059"><ele>123.0</ele><time>2026-05-03T09:50:19.999Z</time></trkpt><trkpt lat="42.14903050375959" lon="19.660810009329378"><ele>123.0</ele><time>2026-05-03T09:50:20.999Z</time></trkpt><trkpt lat="42.149023621397404" lon="19.660974030233568"><ele>123.0</ele><time>2026-05-03T09:50:21.999Z</time></trkpt><trkpt lat="42.1490402784209" lon="19.66114055409104"><ele>123.0</ele><time>2026-05-03T09:50:22.999Z</time></trkpt><trkpt lat="42.14909221355843" lon="19.66130475128207"><ele>123.0</ele><time>2026-05-03T09:50:23.999Z</time></trkpt><trkpt lat="42.14916928396263" lon="19.66146099144406"><ele>123.5</ele><time>2026-05-03T09:50:24.999Z</time></trkpt><trkpt lat="42.149256519203455" lon="19.661623244541083"><ele>124.0</ele><time>2026-05-03T09:50:25.999Z</time></trkpt><trkpt lat="42.14932286843472" lon="19.66176450362385"><ele>124.5</ele><time>2026-05-03T09:50:26.999Z</time></trkpt><trkpt lat="42.14936488327445" lon="19.66187775075389"><ele>125.0</ele><time>2026-05-03T09:50:27.999Z</time></trkpt><trkpt lat="42.149414777239826" lon="19.66198778057719"><ele>125.8</ele><time>2026-05-03T09:50:28.999Z</time></trkpt><trkpt lat="42.149468701840604" lon="19.662107335116758"><ele>126.6</ele><time>2026-05-03T09:50:29.999Z</time></trkpt><trkpt lat="42.14952019123535" lon="19.66223131753229"><ele>127.4</ele><time>2026-05-03T09:50:30.999Z</time></trkpt><trkpt lat="42.14956777651468" lon="19.662354256664884"><ele>128.2</ele><time>2026-05-03T09:50:31.999Z</time></trkpt><trkpt lat="42.14961249065977" lon="19.66247497222101"><ele>129.0</ele><time>2026-05-03T09:50:32.999Z</time></trkpt><trkpt lat="42.14966022200711" lon="19.66259350237508"><ele>129.0</ele><time>2026-05-03T09:50:33.999Z</time></trkpt><trkpt lat="42.149709555681845" lon="19.66270897983412"><ele>129.0</ele><time>2026-05-03T09:50:34.999Z</time></trkpt><trkpt lat="42.14975554973666" lon="19.66282440811237"><ele>129.0</ele><time>2026-05-03T09:50:35.999Z</time></trkpt><trkpt lat="42.14979620734805" lon="19.662931716575592"><ele>129.0</ele><time>2026-05-03T09:50:36.999Z</time></trkpt><trkpt lat="42.14983295699783" lon="19.66302744266267"><ele>129.0</ele><time>2026-05-03T09:50:37.999Z</time></trkpt><trkpt lat="42.149864299684054" lon="19.66311406826073"><ele>129.0</ele><time>2026-05-03T09:50:38.999Z</time></trkpt><trkpt lat="42.1499068729467" lon="19.66320011258929"><ele>132.25</ele><time>2026-05-03T09:50:39.999Z</time></trkpt><trkpt lat="42.14998363485594" lon="19.66327563199058"><ele>135.5</ele><time>2026-05-03T09:50:40.999Z</time></trkpt><trkpt lat="42.15010352085383" lon="19.663335070109127"><ele>138.75</ele><time>2026-05-03T09:50:41.999Z</time></trkpt><trkpt lat="42.150222332577194" lon="19.663429343378372"><ele>142.0</ele><time>2026-05-03T09:50:42.999Z</time></trkpt><trkpt lat="42.15033169680972" lon="19.663574645090975"><ele>138.66666666666669</ele><time>2026-05-03T09:50:43.999Z</time></trkpt><trkpt lat="42.150448164622496" lon="19.663754196378363"><ele>135.33333333333334</ele><time>2026-05-03T09:50:44.999Z</time></trkpt><trkpt lat="42.15057242163623" lon="19.663949931507712"><ele>132.0</ele><time>2026-05-03T09:50:45.999Z</time></trkpt><trkpt lat="42.15070177785146" lon="19.664158320122258"><ele>134.0</ele><time>2026-05-03T09:50:46.999Z</time></trkpt><trkpt lat="42.1508428422528" lon="19.66438481658561"><ele>136.0</ele><time>2026-05-03T09:50:47.999Z</time></trkpt><trkpt lat="42.150991185662754" lon="19.664597978813376"><ele>138.0</ele><time>2026-05-03T09:50:48.999Z</time></trkpt><trkpt lat="42.15114681463238" lon="19.664804516057252"><ele>138.0</ele><time>2026-05-03T09:50:49.999Z</time></trkpt><trkpt lat="42.151309071706436" lon="19.664990774197644"><ele>138.0</ele><time>2026-05-03T09:50:50.999Z</time></trkpt><trkpt lat="42.15147197531631" lon="19.665142109205668"><ele>138.0</ele><time>2026-05-03T09:50:51.999Z</time></trkpt><trkpt lat="42.151650681421316" lon="19.665276423150324"><ele>138.33333333333334</ele><time>2026-05-03T09:50:52.999Z</time></trkpt><trkpt lat="42.15182984773926" lon="19.665392863096944"><ele>138.66666666666669</ele><time>2026-05-03T09:50:53.999Z</time></trkpt><trkpt lat="42.15198334947377" lon="19.665518445540926"><ele>139.0</ele><time>2026-05-03T09:50:55Z</time></trkpt><trkpt lat="42.152108846723955" lon="19.665649428577996"><ele>139.0</ele><time>2026-05-03T09:50:56Z</time></trkpt><trkpt lat="42.152215309439306" lon="19.66579474979506"><ele>139.0</ele><time>2026-05-03T09:50:57Z</time></trkpt><trkpt lat="42.152321646593585" lon="19.66595600340798"><ele>139.0</ele><time>2026-05-03T09:50:58Z</time></trkpt><trkpt lat="42.15241479280312" lon="19.66610507126011"><ele>139.5</ele><time>2026-05-03T09:50:59Z</time></trkpt><trkpt lat="42.15251133031295" lon="19.666219822073444"><ele>140.0</ele><time>2026-05-03T09:51:00Z</time></trkpt><trkpt lat="42.15262199074869" lon="19.666300721922653"><ele>140.5</ele><time>2026-05-03T09:51:01Z</time></trkpt><trkpt lat="42.15273524250067" lon="19.666387524913496"><ele>141.0</ele><time>2026-05-03T09:51:02Z</time></trkpt><trkpt lat="42.15282345445678" lon="19.666495094570056"><ele>141.0</ele><time>2026-05-03T09:51:03Z</time></trkpt><trkpt lat="42.15288238833951" lon="19.66659659247503"><ele>141.0</ele><time>2026-05-03T09:51:04Z</time></trkpt><trkpt lat="42.15293823390028" lon="19.666662126222775"><ele>141.0</ele><time>2026-05-03T09:51:05Z</time></trkpt><trkpt lat="42.153016081922644" lon="19.66666790011734"><ele>141.0</ele><time>2026-05-03T09:51:06Z</time></trkpt><trkpt lat="42.15312448905521" lon="19.666643767809045"><ele>141.0</ele><time>2026-05-03T09:51:07Z</time></trkpt><trkpt lat="42.153260103457676" lon="19.666680478739153"><ele>140.25</ele><time>2026-05-03T09:51:08Z</time></trkpt><trkpt lat="42.153391435771404" lon="19.66675284839919"><ele>139.5</ele><time>2026-05-03T09:51:09Z</time></trkpt><trkpt lat="42.1535120912174" lon="19.666832952699004"><ele>138.75</ele><time>2026-05-03T09:51:10Z</time></trkpt><trkpt lat="42.1536202043913" lon="19.666924323218485"><ele>138.0</ele><time>2026-05-03T09:51:11Z</time></trkpt><trkpt lat="42.15372369776407" lon="19.66705315836632"><ele>138.0</ele><time>2026-05-03T09:51:12Z</time></trkpt><trkpt lat="42.15384169615205" lon="19.66721913451044"><ele>138.0</ele><time>2026-05-03T09:51:13Z</time></trkpt><trkpt lat="42.153982434762774" lon="19.667402942757597"><ele>138.0</ele><time>2026-05-03T09:51:14Z</time></trkpt><trkpt lat="42.15412819169181" lon="19.667586818649408"><ele>138.5</ele><time>2026-05-03T09:51:15Z</time></trkpt><trkpt lat="42.154248192598736" lon="19.66775466092599"><ele>139.0</ele><time>2026-05-03T09:51:16Z</time></trkpt><trkpt lat="42.15433954131509" lon="19.667898059781788"><ele>139.5</ele><time>2026-05-03T09:51:17Z</time></trkpt><trkpt lat="42.15441650023743" lon="19.66801070207743"><ele>140.0</ele><time>2026-05-03T09:51:18Z</time></trkpt><trkpt lat="42.15449960099088" lon="19.668109101881935"><ele>140.0</ele><time>2026-05-03T09:51:19Z</time></trkpt><trkpt lat="42.154577245070854" lon="19.668222622530603"><ele>140.0</ele><time>2026-05-03T09:51:20Z</time></trkpt><trkpt lat="42.154644428390526" lon="19.668359276601596"><ele>140.0</ele><time>2026-05-03T09:51:21Z</time></trkpt><trkpt lat="42.15472603546867" lon="19.668478585545888"><ele>140.0</ele><time>2026-05-03T09:51:22Z</time></trkpt><trkpt lat="42.15484858188977" lon="19.668574804040947"><ele>140.66666666666666</ele><time>2026-05-03T09:51:23Z</time></trkpt><trkpt lat="42.15499651941077" lon="19.66867207499048"><ele>141.33333333333334</ele><time>2026-05-03T09:51:24Z</time></trkpt><trkpt lat="42.15514135810319" lon="19.66879696679102"><ele>142.0</ele><time>2026-05-03T09:51:25Z</time></trkpt><trkpt lat="42.155274242887764" lon="19.668954576427087"><ele>142.0</ele><time>2026-05-03T09:51:26Z</time></trkpt><trkpt lat="42.155393546467906" lon="19.669135757516763"><ele>142.0</ele><time>2026-05-03T09:51:27Z</time></trkpt><trkpt lat="42.15551095549436" lon="19.66932407359334"><ele>142.0</ele><time>2026-05-03T09:51:28Z</time></trkpt><trkpt lat="42.15562213023213" lon="19.66950342276645"><ele>144.33333333333334</ele><time>2026-05-03T09:51:29Z</time></trkpt><trkpt lat="42.15574032421069" lon="19.6696933454115"><ele>146.66666666666666</ele><time>2026-05-03T09:51:30Z</time></trkpt><trkpt lat="42.15586569095405" lon="19.66987554042615"><ele>149.0</ele><time>2026-05-03T09:51:31Z</time></trkpt><trkpt lat="42.15599632747105" lon="19.670053094775643"><ele>149.0</ele><time>2026-05-03T09:51:32Z</time></trkpt><trkpt lat="42.15613126837603" lon="19.670228027157076"><ele>149.0</ele><time>2026-05-03T09:51:33Z</time></trkpt><trkpt lat="42.156263835014585" lon="19.670409051506134"><ele>149.0</ele><time>2026-05-03T09:51:34Z</time></trkpt><trkpt lat="42.15638943229958" lon="19.670607314228622"><ele>148.0</ele><time>2026-05-03T09:51:35Z</time></trkpt><trkpt lat="42.15650622000335" lon="19.670818680083155"><ele>147.0</ele><time>2026-05-03T09:51:36Z</time></trkpt><trkpt lat="42.15662105436853" lon="19.671029501371418"><ele>146.0</ele><time>2026-05-03T09:51:37Z</time></trkpt><trkpt lat="42.156730726521864" lon="19.671226913779336"><ele>146.0</ele><time>2026-05-03T09:51:38Z</time></trkpt><trkpt lat="42.1568098716502" lon="19.6713994724761"><ele>146.0</ele><time>2026-05-03T09:51:39Z</time></trkpt><trkpt lat="42.15686086343252" lon="19.67153764114389"><ele>146.0</ele><time>2026-05-03T09:51:40Z</time></trkpt><trkpt lat="42.15692238036538" lon="19.671639962890353"><ele>146.0</ele><time>2026-05-03T09:51:41Z</time></trkpt><trkpt lat="42.157004475190874" lon="19.6717370073725"><ele>146.0</ele><time>2026-05-03T09:51:42Z</time></trkpt><trkpt lat="42.15707034677674" lon="19.671875172535245"><ele>146.0</ele><time>2026-05-03T09:51:43Z</time></trkpt><trkpt lat="42.15713853645566" lon="19.672022513634772"><ele>146.0</ele><time>2026-05-03T09:51:44Z</time></trkpt><trkpt lat="42.1572550131336" lon="19.672139097933332"><ele>146.0</ele><time>2026-05-03T09:51:45Z</time></trkpt><trkpt lat="42.15738989757245" lon="19.67224330877953"><ele>146.66666666666666</ele><time>2026-05-03T09:51:46Z</time></trkpt><trkpt lat="42.15754024721932" lon="19.67232425720761"><ele>147.33333333333334</ele><time>2026-05-03T09:51:47Z</time></trkpt><trkpt lat="42.15770268697678" lon="19.672370124395563"><ele>148.0</ele><time>2026-05-03T09:51:48Z</time></trkpt><trkpt lat="42.15787946387265" lon="19.672401305274025"><ele>148.0</ele><time>2026-05-03T09:51:49Z</time></trkpt><trkpt lat="42.15806380577205" lon="19.672439710494018"><ele>148.0</ele><time>2026-05-03T09:51:50Z</time></trkpt><trkpt lat="42.1582548126086" lon="19.67248486915299"><ele>148.0</ele><time>2026-05-03T09:51:51Z</time></trkpt><trkpt lat="42.15845232142807" lon="19.6725255895996"><ele>150.66666666666669</ele><time>2026-05-03T09:51:52Z</time></trkpt><trkpt lat="42.15865017138481" lon="19.672555380412053"><ele>153.33333333333334</ele><time>2026-05-03T09:51:53Z</time></trkpt><trkpt lat="42.158823063077776" lon="19.672570985569806"><ele>156.0</ele><time>2026-05-03T09:51:54Z</time></trkpt><trkpt lat="42.15898494829503" lon="19.6725947540948"><ele>157.0</ele><time>2026-05-03T09:51:55Z</time></trkpt><trkpt lat="42.15914036157177" lon="19.672642626139428"><ele>158.0</ele><time>2026-05-03T09:51:56Z</time></trkpt><trkpt lat="42.15929905597143" lon="19.672710575248498"><ele>159.0</ele><time>2026-05-03T09:51:57Z</time></trkpt><trkpt lat="42.15945811390526" lon="19.672784096343495"><ele>157.4</ele><time>2026-05-03T09:51:58Z</time></trkpt><trkpt lat="42.159608068856016" lon="19.67287101907736"><ele>155.8</ele><time>2026-05-03T09:51:59Z</time></trkpt><trkpt lat="42.15972862840169" lon="19.672952320007898"><ele>154.2</ele><time>2026-05-03T09:52:00Z</time></trkpt><trkpt lat="42.15979243390638" lon="19.673003616544964"><ele>152.6</ele><time>2026-05-03T09:52:01Z</time></trkpt><trkpt lat="42.159850999172036" lon="19.67306434685021"><ele>151.0</ele><time>2026-05-03T09:52:03Z</time></trkpt><trkpt lat="42.15991759280014" lon="19.673137809049912"><ele>151.0</ele><time>2026-05-03T09:52:22Z</time></trkpt><trkpt lat="42.1599926602882" lon="19.673236182375092"><ele>151.0</ele><time>2026-05-03T09:52:24Z</time></trkpt><trkpt lat="42.160044083775446" lon="19.6733151020625"><ele>151.0</ele><time>2026-05-03T09:52:25Z</time></trkpt><trkpt lat="42.16009854335124" lon="19.673381670555123"><ele>151.0</ele><time>2026-05-03T09:52:26Z</time></trkpt><trkpt lat="42.160159740050254" lon="19.67346507192784"><ele>151.0</ele><time>2026-05-03T09:52:27Z</time></trkpt><trkpt lat="42.1602045952979" lon="19.673547085929936"><ele>151.0</ele><time>2026-05-03T09:52:28Z</time></trkpt><trkpt lat="42.1602412278672" lon="19.67361956333544"><ele>150.66666666666669</ele><time>2026-05-03T09:52:30Z</time></trkpt><trkpt lat="42.160292071255036" lon="19.673712199434686"><ele>150.33333333333334</ele><time>2026-05-03T09:52:34Z</time></trkpt><trkpt lat="42.160343032359016" lon="19.673810527820248"><ele>150.0</ele><time>2026-05-03T09:52:36Z</time></trkpt><trkpt lat="42.16038021244325" lon="19.673882551999498"><ele>149.66666666666666</ele><time>2026-05-03T09:52:37Z</time></trkpt><trkpt lat="42.160402961959285" lon="19.673991583083684"><ele>149.33333333333331</ele><time>2026-05-03T09:52:39Z</time></trkpt><trkpt lat="42.16044631621205" lon="19.674092358776626"><ele>149.0</ele><time>2026-05-03T09:52:57Z</time></trkpt><trkpt lat="42.160478503134335" lon="19.6741786150043"><ele>149.0</ele><time>2026-05-03T09:52:58Z</time></trkpt><trkpt lat="42.160512347957535" lon="19.67428374818889"><ele>149.0</ele><time>2026-05-03T09:52:59Z</time></trkpt><trkpt lat="42.16055465397247" lon="19.67439762407606"><ele>149.0</ele><time>2026-05-03T09:53:00Z</time></trkpt><trkpt lat="42.160613975214325" lon="19.674524023310155"><ele>149.0</ele><time>2026-05-03T09:53:01.001Z</time></trkpt><trkpt lat="42.16067050782099" lon="19.67465099578527"><ele>149.0</ele><time>2026-05-03T09:53:02.001Z</time></trkpt><trkpt lat="42.16070659332453" lon="19.6747999367868"><ele>149.16666666666666</ele><time>2026-05-03T09:53:03.001Z</time></trkpt><trkpt lat="42.16072417116071" lon="19.674930479490435"><ele>149.33333333333331</ele><time>2026-05-03T09:53:04.001Z</time></trkpt><trkpt lat="42.16072606105258" lon="19.67502141806721"><ele>149.5</ele><time>2026-05-03T09:53:05.001Z</time></trkpt><trkpt lat="42.16072362718764" lon="19.67515399562004"><ele>149.66666666666666</ele><time>2026-05-03T09:53:07.001Z</time></trkpt><trkpt lat="42.16073082888808" lon="19.675284263667994"><ele>149.83333333333334</ele><time>2026-05-03T09:53:09.001Z</time></trkpt><trkpt lat="42.16074535398039" lon="19.67537326641781"><ele>150.0</ele><time>2026-05-03T09:53:10.001Z</time></trkpt><trkpt lat="42.16078780848288" lon="19.67546664036205"><ele>150.0</ele><time>2026-05-03T09:53:11.001Z</time></trkpt><trkpt lat="42.160846411434996" lon="19.67556006525584"><ele>150.0</ele><time>2026-05-03T09:53:12.001Z</time></trkpt><trkpt lat="42.16090914013824" lon="19.67566141869269"><ele>150.0</ele><time>2026-05-03T09:53:13.001Z</time></trkpt><trkpt lat="42.160983872344325" lon="19.675750739914875"><ele>150.0</ele><time>2026-05-03T09:53:14.001Z</time></trkpt><trkpt lat="42.161084347023994" lon="19.67578178774535"><ele>150.0</ele><time>2026-05-03T09:53:15.001Z</time></trkpt><trkpt lat="42.16118424484253" lon="19.675808556616715"><ele>150.0</ele><time>2026-05-03T09:53:16.001Z</time></trkpt><trkpt lat="42.1612868573809" lon="19.675878337217885"><ele>150.0</ele><time>2026-05-03T09:53:17.001Z</time></trkpt><trkpt lat="42.161393437973665" lon="19.67598224083957"><ele>150.0</ele><time>2026-05-03T09:53:18.001Z</time></trkpt><trkpt lat="42.16149779187634" lon="19.676107008403235"><ele>150.0</ele><time>2026-05-03T09:53:19.001Z</time></trkpt><trkpt lat="42.16160546135076" lon="19.67624236496341"><ele>152.66666666666666</ele><time>2026-05-03T09:53:20.001Z</time></trkpt><trkpt lat="42.16171694307649" lon="19.67638486008284"><ele>155.33333333333331</ele><time>2026-05-03T09:53:21.001Z</time></trkpt><trkpt lat="42.16182401673161" lon="19.67653409669897"><ele>158.0</ele><time>2026-05-03T09:53:22.001Z</time></trkpt><trkpt lat="42.16193033658132" lon="19.676677675758054"><ele>158.0</ele><time>2026-05-03T09:53:23.001Z</time></trkpt><trkpt lat="42.162041887300234" lon="19.67680763059434"><ele>158.0</ele><time>2026-05-03T09:53:24.001Z</time></trkpt><trkpt lat="42.162149700886765" lon="19.676910235042875"><ele>158.0</ele><time>2026-05-03T09:53:25.001Z</time></trkpt><trkpt lat="42.16225891721955" lon="19.676986140564903"><ele>158.0</ele><time>2026-05-03T09:53:26.001Z</time></trkpt><trkpt lat="42.162365354525306" lon="19.677047566238617"><ele>158.60000000000002</ele><time>2026-05-03T09:53:27.001Z</time></trkpt><trkpt lat="42.16246150927874" lon="19.67711135256553"><ele>159.20000000000002</ele><time>2026-05-03T09:53:28.001Z</time></trkpt><trkpt lat="42.16254437289295" lon="19.67718642847611"><ele>159.8</ele><time>2026-05-03T09:53:29.001Z</time></trkpt><trkpt lat="42.16261534205445" lon="19.677272130434265"><ele>160.4</ele><time>2026-05-03T09:53:30Z</time></trkpt><trkpt lat="42.162681535160786" lon="19.677370260077467"><ele>161.0</ele><time>2026-05-03T09:53:31Z</time></trkpt><trkpt lat="42.16273741092279" lon="19.67748650504884"><ele>161.0</ele><time>2026-05-03T09:53:32Z</time></trkpt><trkpt lat="42.16277605985297" lon="19.67762866766798"><ele>161.0</ele><time>2026-05-03T09:53:33Z</time></trkpt><trkpt lat="42.16279765749594" lon="19.67778868761775"><ele>161.0</ele><time>2026-05-03T09:53:34Z</time></trkpt><trkpt lat="42.16281959031781" lon="19.677961915312558"><ele>161.0</ele><time>2026-05-03T09:53:35Z</time></trkpt><trkpt lat="42.162850919659945" lon="19.678143741876724"><ele>159.75</ele><time>2026-05-03T09:53:36Z</time></trkpt><trkpt lat="42.162882271627375" lon="19.678337178702915"><ele>158.5</ele><time>2026-05-03T09:53:37Z</time></trkpt><trkpt lat="42.16290599624216" lon="19.67853986020158"><ele>157.25</ele><time>2026-05-03T09:53:38Z</time></trkpt><trkpt lat="42.16292545641509" lon="19.67874030068349"><ele>156.0</ele><time>2026-05-03T09:53:39Z</time></trkpt><trkpt lat="42.162938736146586" lon="19.678925368683196"><ele>156.0</ele><time>2026-05-03T09:53:40Z</time></trkpt><trkpt lat="42.16294322460393" lon="19.679084097866514"><ele>156.0</ele><time>2026-05-03T09:53:41Z</time></trkpt><trkpt lat="42.16294419956418" lon="19.679226545945934"><ele>156.0</ele><time>2026-05-03T09:53:42Z</time></trkpt><trkpt lat="42.16295063272948" lon="19.679360597348072"><ele>156.0</ele><time>2026-05-03T09:53:43Z</time></trkpt><trkpt lat="42.16296197346124" lon="19.67949079278424"><ele>156.0</ele><time>2026-05-03T09:53:44Z</time></trkpt><trkpt lat="42.16297740847823" lon="19.679625063821923"><ele>157.0</ele><time>2026-05-03T09:53:45Z</time></trkpt><trkpt lat="42.16299621789976" lon="19.679766528414564"><ele>158.0</ele><time>2026-05-03T09:53:46Z</time></trkpt><trkpt lat="42.163007045335156" lon="19.67992157191296"><ele>159.0</ele><time>2026-05-03T09:53:47Z</time></trkpt><trkpt lat="42.16301778667363" lon="19.68008166576328"><ele>160.0</ele><time>2026-05-03T09:53:48Z</time></trkpt><trkpt lat="42.16302847233194" lon="19.680249545337787"><ele>159.5</ele><time>2026-05-03T09:53:49Z</time></trkpt><trkpt lat="42.16302287415528" lon="19.680422754596282"><ele>159.0</ele><time>2026-05-03T09:53:50Z</time></trkpt><trkpt lat="42.16301662866218" lon="19.680600463816482"><ele>158.5</ele><time>2026-05-03T09:53:51Z</time></trkpt><trkpt lat="42.16303415336534" lon="19.680785196441658"><ele>158.0</ele><time>2026-05-03T09:53:52Z</time></trkpt><trkpt lat="42.16307744995279" lon="19.6809763976675"><ele>160.0</ele><time>2026-05-03T09:53:53Z</time></trkpt><trkpt lat="42.163133722168986" lon="19.681174942455304"><ele>162.0</ele><time>2026-05-03T09:53:54Z</time></trkpt><trkpt lat="42.16318269591074" lon="19.68138382277011"><ele>164.0</ele><time>2026-05-03T09:53:55Z</time></trkpt><trkpt lat="42.163218445812795" lon="19.681601483521618"><ele>164.33333333333331</ele><time>2026-05-03T09:53:56Z</time></trkpt><trkpt lat="42.16324787436625" lon="19.68182870486362"><ele>164.66666666666666</ele><time>2026-05-03T09:53:57Z</time></trkpt><trkpt lat="42.1632786643595" lon="19.682051795946872"><ele>165.0</ele><time>2026-05-03T09:53:58Z</time></trkpt><trkpt lat="42.16331632025699" lon="19.682280353503295"><ele>165.33333333333334</ele><time>2026-05-03T09:53:59Z</time></trkpt><trkpt lat="42.1633584527641" lon="19.68251675119501"><ele>165.66666666666669</ele><time>2026-05-03T09:54:00Z</time></trkpt><trkpt lat="42.16340480873828" lon="19.682764393899806"><ele>166.0</ele><time>2026-05-03T09:54:01Z</time></trkpt><trkpt lat="42.16345720106193" lon="19.683015545891184"><ele>166.0</ele><time>2026-05-03T09:54:02Z</time></trkpt><trkpt lat="42.16351776347764" lon="19.683268099777113"><ele>166.0</ele><time>2026-05-03T09:54:03Z</time></trkpt><trkpt lat="42.16359067692748" lon="19.68351820074135"><ele>166.0</ele><time>2026-05-03T09:54:04Z</time></trkpt><trkpt lat="42.16367234132188" lon="19.683765953795916"><ele>165.0</ele><time>2026-05-03T09:54:05Z</time></trkpt><trkpt lat="42.16375299782637" lon="19.684017683741317"><ele>164.0</ele><time>2026-05-03T09:54:06Z</time></trkpt><trkpt lat="42.16382140257306" lon="19.68428277770434"><ele>163.0</ele><time>2026-05-03T09:54:07Z</time></trkpt><trkpt lat="42.16386236157793" lon="19.684564354586033"><ele>162.66666666666669</ele><time>2026-05-03T09:54:08Z</time></trkpt><trkpt lat="42.16387547924777" lon="19.684851445417223"><ele>162.33333333333334</ele><time>2026-05-03T09:54:09Z</time></trkpt><trkpt lat="42.16387827342309" lon="19.685136997244275"><ele>162.0</ele><time>2026-05-03T09:54:10Z</time></trkpt><trkpt lat="42.16387933601027" lon="19.685411369379327"><ele>163.66666666666666</ele><time>2026-05-03T09:54:11Z</time></trkpt><trkpt lat="42.16386619463339" lon="19.685680891168776"><ele>165.33333333333331</ele><time>2026-05-03T09:54:12Z</time></trkpt><trkpt lat="42.1638407059954" lon="19.685934159756123"><ele>167.0</ele><time>2026-05-03T09:54:13Z</time></trkpt><trkpt lat="42.163825551132106" lon="19.68616901584198"><ele>167.0</ele><time>2026-05-03T09:54:14Z</time></trkpt><trkpt lat="42.163826473881684" lon="19.68638892062826"><ele>167.0</ele><time>2026-05-03T09:54:15Z</time></trkpt><trkpt lat="42.16382912691283" lon="19.68656639758933"><ele>167.0</ele><time>2026-05-03T09:54:16Z</time></trkpt><trkpt lat="42.163833190420924" lon="19.686713666659266"><ele>167.0</ele><time>2026-05-03T09:54:17Z</time></trkpt><trkpt lat="42.16383082406761" lon="19.686840084705675"><ele>167.8</ele><time>2026-05-03T09:54:18Z</time></trkpt><trkpt lat="42.1638263421807" lon="19.686948685686236"><ele>168.6</ele><time>2026-05-03T09:54:19Z</time></trkpt><trkpt lat="42.16383372825993" lon="19.6870414984131"><ele>169.4</ele><time>2026-05-03T09:54:20Z</time></trkpt><trkpt lat="42.16384772828422" lon="19.687185607593104"><ele>170.20000000000002</ele><time>2026-05-03T09:54:22Z</time></trkpt><trkpt lat="42.163865258270874" lon="19.687322765280825"><ele>171.0</ele><time>2026-05-03T09:54:24Z</time></trkpt><trkpt lat="42.16390619908978" lon="19.6874949206226"><ele>171.0</ele><time>2026-05-03T09:54:26Z</time></trkpt><trkpt lat="42.163932513120955" lon="19.687597324373744"><ele>171.0</ele><time>2026-05-03T09:54:27Z</time></trkpt><trkpt lat="42.16397085563096" lon="19.687702716773305"><ele>171.0</ele><time>2026-05-03T09:54:28Z</time></trkpt><trkpt lat="42.16401769859542" lon="19.68780076703483"><ele>171.0</ele><time>2026-05-03T09:54:29Z</time></trkpt><trkpt lat="42.164054372699574" lon="19.687885492183437"><ele>171.0</ele><time>2026-05-03T09:54:30Z</time></trkpt><trkpt lat="42.16408345994115" lon="19.687965323478796"><ele>171.0</ele><time>2026-05-03T09:54:31Z</time></trkpt><trkpt lat="42.164117333125155" lon="19.688038701661554"><ele>171.83333333333334</ele><time>2026-05-03T09:54:32Z</time></trkpt><trkpt lat="42.164162878455286" lon="19.68810201701908"><ele>172.66666666666666</ele><time>2026-05-03T09:54:33Z</time></trkpt><trkpt lat="42.164221644656806" lon="19.688148679243078"><ele>173.5</ele><time>2026-05-03T09:54:34Z</time></trkpt><trkpt lat="42.164291021155755" lon="19.688187077420572"><ele>174.33333333333331</ele><time>2026-05-03T09:54:35Z</time></trkpt><trkpt lat="42.164363948168074" lon="19.688231175376995"><ele>175.16666666666666</ele><time>2026-05-03T09:54:36Z</time></trkpt><trkpt lat="42.16443572343959" lon="19.68829124818263"><ele>176.0</ele><time>2026-05-03T09:54:37Z</time></trkpt><trkpt lat="42.16450603881819" lon="19.68836885040121"><ele>176.0</ele><time>2026-05-03T09:54:38Z</time></trkpt><trkpt lat="42.16457563434116" lon="19.688455816769682"><ele>176.0</ele><time>2026-05-03T09:54:39Z</time></trkpt><trkpt lat="42.16464985245644" lon="19.688545220788736"><ele>176.0</ele><time>2026-05-03T09:54:40Z</time></trkpt><trkpt lat="42.164733018374356" lon="19.68863327164412"><ele>176.0</ele><time>2026-05-03T09:54:40.999Z</time></trkpt><trkpt lat="42.16482190133394" lon="19.688717178994676"><ele>176.0</ele><time>2026-05-03T09:54:41.999Z</time></trkpt><trkpt lat="42.1649169796289" lon="19.68879145123327"><ele>175.20000000000002</ele><time>2026-05-03T09:54:42.999Z</time></trkpt><trkpt lat="42.165008108784036" lon="19.688840703913783"><ele>174.4</ele><time>2026-05-03T09:54:43.999Z</time></trkpt><trkpt lat="42.16509934068542" lon="19.688845352035884"><ele>173.6</ele><time>2026-05-03T09:54:44.999Z</time></trkpt><trkpt lat="42.16519773091403" lon="19.688825324813926"><ele>172.8</ele><time>2026-05-03T09:54:45.999Z</time></trkpt><trkpt lat="42.165306043632484" lon="19.688804279436965"><ele>172.0</ele><time>2026-05-03T09:54:46.999Z</time></trkpt><trkpt lat="42.165419511133386" lon="19.688787272922635"><ele>172.0</ele><time>2026-05-03T09:54:47.999Z</time></trkpt><trkpt lat="42.16551433273566" lon="19.688781358212633"><ele>172.0</ele><time>2026-05-03T09:54:48.999Z</time></trkpt><trkpt lat="42.16559697171177" lon="19.688793661896227"><ele>172.0</ele><time>2026-05-03T09:54:49.999Z</time></trkpt><trkpt lat="42.16565479105838" lon="19.688841201683918"><ele>172.0</ele><time>2026-05-03T09:54:50.999Z</time></trkpt><trkpt lat="42.16569688052794" lon="19.688991267320823"><ele>172.0</ele><time>2026-05-03T09:54:52.999Z</time></trkpt><trkpt lat="42.1656798097226" lon="19.689079739694797"><ele>172.0</ele><time>2026-05-03T09:54:53.999Z</time></trkpt><trkpt lat="42.16563017173778" lon="19.689165612303388"><ele>172.0</ele><time>2026-05-03T09:54:54.999Z</time></trkpt><trkpt lat="42.16556634640714" lon="19.68925070318258"><ele>172.0</ele><time>2026-05-03T09:54:55.999Z</time></trkpt><trkpt lat="42.16549956667698" lon="19.68935115326206"><ele>172.0</ele><time>2026-05-03T09:54:56.999Z</time></trkpt><trkpt lat="42.16542878603879" lon="19.689459105148472"><ele>172.0</ele><time>2026-05-03T09:54:57.999Z</time></trkpt><trkpt lat="42.165353510457116" lon="19.68957185820744"><ele>172.0</ele><time>2026-05-03T09:54:58.999Z</time></trkpt><trkpt lat="42.16529169032065" lon="19.689683898892365"><ele>171.39999999999998</ele><time>2026-05-03T09:54:59.999Z</time></trkpt><trkpt lat="42.165259140600575" lon="19.689784230705197"><ele>170.79999999999998</ele><time>2026-05-03T09:55:00.999Z</time></trkpt><trkpt lat="42.165267395774244" lon="19.689892907311005"><ele>170.2</ele><time>2026-05-03T09:55:01.999Z</time></trkpt><trkpt lat="42.165304134965396" lon="19.690011103772832"><ele>169.6</ele><time>2026-05-03T09:55:02.999Z</time></trkpt><trkpt lat="42.16536400196727" lon="19.69013763038763"><ele>169.0</ele><time>2026-05-03T09:55:03.999Z</time></trkpt><trkpt lat="42.165419408349685" lon="19.690298112180685"><ele>168.75</ele><time>2026-05-03T09:55:04.999Z</time></trkpt><trkpt lat="42.1654697056538" lon="19.690488985598176"><ele>168.5</ele><time>2026-05-03T09:55:05.999Z</time></trkpt><trkpt lat="42.165516124768395" lon="19.690671572366554"><ele>168.25</ele><time>2026-05-03T09:55:07Z</time></trkpt><trkpt lat="42.16556077468395" lon="19.690861059191388"><ele>168.0</ele><time>2026-05-03T09:55:08Z</time></trkpt><trkpt lat="42.16560151578669" lon="19.691055128649566"><ele>168.75</ele><time>2026-05-03T09:55:09Z</time></trkpt><trkpt lat="42.165634939383466" lon="19.691251369064727"><ele>169.5</ele><time>2026-05-03T09:55:10Z</time></trkpt><trkpt lat="42.16564819553983" lon="19.691449106125724"><ele>170.25</ele><time>2026-05-03T09:55:11Z</time></trkpt><trkpt lat="42.165646109318544" lon="19.691645251556753"><ele>171.0</ele><time>2026-05-03T09:55:12Z</time></trkpt><trkpt lat="42.16564314286156" lon="19.691837109161014"><ele>172.0</ele><time>2026-05-03T09:55:13Z</time></trkpt><trkpt lat="42.16563307298413" lon="19.692009656277737"><ele>173.0</ele><time>2026-05-03T09:55:14Z</time></trkpt><trkpt lat="42.1656045744555" lon="19.692177032517378"><ele>174.0</ele><time>2026-05-03T09:55:15Z</time></trkpt><trkpt lat="42.16555612458906" lon="19.69233808271941"><ele>175.0</ele><time>2026-05-03T09:55:16Z</time></trkpt><trkpt lat="42.165499799121335" lon="19.692507042370476"><ele>175.0</ele><time>2026-05-03T09:55:17Z</time></trkpt><trkpt lat="42.165435107315865" lon="19.69267731852529"><ele>175.0</ele><time>2026-05-03T09:55:18Z</time></trkpt><trkpt lat="42.165367429984364" lon="19.69283216582854"><ele>175.0</ele><time>2026-05-03T09:55:19Z</time></trkpt><trkpt lat="42.16531546493601" lon="19.692982027770665"><ele>175.0</ele><time>2026-05-03T09:55:20Z</time></trkpt><trkpt lat="42.16528969296797" lon="19.693164756244023"><ele>176.33333333333334</ele><time>2026-05-03T09:55:21Z</time></trkpt><trkpt lat="42.16526014656753" lon="19.69336670430074"><ele>177.66666666666666</ele><time>2026-05-03T09:55:22Z</time></trkpt><trkpt lat="42.16520870464903" lon="19.693566574700974"><ele>179.0</ele><time>2026-05-03T09:55:23Z</time></trkpt><trkpt lat="42.16514234978439" lon="19.69375830059977"><ele>180.0</ele><time>2026-05-03T09:55:24Z</time></trkpt><trkpt lat="42.16506706921376" lon="19.693917631881003"><ele>181.0</ele><time>2026-05-03T09:55:25Z</time></trkpt><trkpt lat="42.164981430330066" lon="19.694051731783095"><ele>182.0</ele><time>2026-05-03T09:55:26Z</time></trkpt><trkpt lat="42.16489003218065" lon="19.694139204138622"><ele>183.0</ele><time>2026-05-03T09:55:27Z</time></trkpt><trkpt lat="42.16481731292974" lon="19.69420636810918"><ele>183.5</ele><time>2026-05-03T09:55:28Z</time></trkpt><trkpt lat="42.16478686837686" lon="19.69432051041756"><ele>184.0</ele><time>2026-05-03T09:55:29Z</time></trkpt><trkpt lat="42.16480977766223" lon="19.694480402598142"><ele>184.5</ele><time>2026-05-03T09:55:30Z</time></trkpt><trkpt lat="42.16486289487432" lon="19.69467080007841"><ele>185.0</ele><time>2026-05-03T09:55:31Z</time></trkpt><trkpt lat="42.164940351531286" lon="19.69486776174"><ele>185.0</ele><time>2026-05-03T09:55:32Z</time></trkpt><trkpt lat="42.16504000010594" lon="19.695075422124525"><ele>185.0</ele><time>2026-05-03T09:55:33Z</time></trkpt><trkpt lat="42.16515349701" lon="19.69527526650218"><ele>185.0</ele><time>2026-05-03T09:55:34Z</time></trkpt><trkpt lat="42.16527222677099" lon="19.695465139354692"><ele>183.0</ele><time>2026-05-03T09:55:35Z</time></trkpt><trkpt lat="42.16537993022418" lon="19.695641233149896"><ele>181.0</ele><time>2026-05-03T09:55:36Z</time></trkpt><trkpt lat="42.165467319341055" lon="19.69582477017164"><ele>179.0</ele><time>2026-05-03T09:55:37Z</time></trkpt><trkpt lat="42.165542781318706" lon="19.69600515315007"><ele>177.0</ele><time>2026-05-03T09:55:38Z</time></trkpt><trkpt lat="42.16561914436758" lon="19.696170425539567"><ele>175.0</ele><time>2026-05-03T09:55:39Z</time></trkpt><trkpt lat="42.16570203585871" lon="19.696305487311054"><ele>173.0</ele><time>2026-05-03T09:55:40Z</time></trkpt><trkpt lat="42.16577892592793" lon="19.696421351274044"><ele>171.0</ele><time>2026-05-03T09:55:41Z</time></trkpt><trkpt lat="42.16584942553596" lon="19.696530401726015"><ele>173.0</ele><time>2026-05-03T09:55:42Z</time></trkpt><trkpt lat="42.16589845415421" lon="19.69661535157156"><ele>175.0</ele><time>2026-05-03T09:55:43Z</time></trkpt><trkpt lat="42.16596255463812" lon="19.696758183265832"><ele>177.0</ele><time>2026-05-03T09:55:45Z</time></trkpt><trkpt lat="42.16600312694795" lon="19.696887691002182"><ele>179.0</ele><time>2026-05-03T09:55:46Z</time></trkpt><trkpt lat="42.16603597181811" lon="19.697077229289945"><ele>179.0</ele><time>2026-05-03T09:55:47Z</time></trkpt><trkpt lat="42.1660497887347" lon="19.697288993020226"><ele>179.0</ele><time>2026-05-03T09:55:48Z</time></trkpt><trkpt lat="42.1660607140185" lon="19.69749875586034"><ele>179.0</ele><time>2026-05-03T09:55:49Z</time></trkpt><trkpt lat="42.16607944098401" lon="19.69768996174562"><ele>178.75</ele><time>2026-05-03T09:55:50Z</time></trkpt><trkpt lat="42.16612183566626" lon="19.697818810887693"><ele>178.5</ele><time>2026-05-03T09:55:51Z</time></trkpt><trkpt lat="42.16621438644623" lon="19.697923065756445"><ele>178.25</ele><time>2026-05-03T09:55:52Z</time></trkpt><trkpt lat="42.16634879313296" lon="19.69801084244109"><ele>178.0</ele><time>2026-05-03T09:55:53Z</time></trkpt><trkpt lat="42.166500364741815" lon="19.698098959998415"><ele>180.5</ele><time>2026-05-03T09:55:54Z</time></trkpt><trkpt lat="42.166636353059886" lon="19.698181489670826"><ele>183.0</ele><time>2026-05-03T09:55:55Z</time></trkpt><trkpt lat="42.166750896616364" lon="19.69822001822226"><ele>185.5</ele><time>2026-05-03T09:55:56Z</time></trkpt><trkpt lat="42.166874621132294" lon="19.69819103646879"><ele>188.0</ele><time>2026-05-03T09:55:57Z</time></trkpt><trkpt lat="42.16701362204429" lon="19.698109380454103"><ele>188.0</ele><time>2026-05-03T09:55:58Z</time></trkpt><trkpt lat="42.16713890787519" lon="19.697986274484073"><ele>188.0</ele><time>2026-05-03T09:55:59Z</time></trkpt><trkpt lat="42.16723502271863" lon="19.697844195735165"><ele>188.0</ele><time>2026-05-03T09:56:00Z</time></trkpt><trkpt lat="42.16733909123938" lon="19.6976589420448"><ele>190.0</ele><time>2026-05-03T09:56:01Z</time></trkpt><trkpt lat="42.16746353669573" lon="19.697483054568295"><ele>192.0</ele><time>2026-05-03T09:56:02Z</time></trkpt><trkpt lat="42.1675955194158" lon="19.69728660355207"><ele>194.0</ele><time>2026-05-03T09:56:03Z</time></trkpt><trkpt lat="42.167741838528194" lon="19.697067453216683"><ele>204.66666666666669</ele><time>2026-05-03T09:56:04Z</time></trkpt><trkpt lat="42.16787583585609" lon="19.696866995958842"><ele>215.33333333333331</ele><time>2026-05-03T09:56:05Z</time></trkpt><trkpt lat="42.16799897286227" lon="19.69668922151423"><ele>226.0</ele><time>2026-05-03T09:56:06Z</time></trkpt><trkpt lat="42.168105798039214" lon="19.696532923627746"><ele>212.0</ele><time>2026-05-03T09:56:07Z</time></trkpt><trkpt lat="42.16822674248124" lon="19.696404070963823"><ele>198.0</ele><time>2026-05-03T09:56:08Z</time></trkpt><trkpt lat="42.16835191131776" lon="19.696297139241448"><ele>184.0</ele><time>2026-05-03T09:56:09Z</time></trkpt><trkpt lat="42.1684818818665" lon="19.696202759098917"><ele>184.0</ele><time>2026-05-03T09:56:10Z</time></trkpt><trkpt lat="42.16861951230253" lon="19.696118919872138"><ele>184.0</ele><time>2026-05-03T09:56:11Z</time></trkpt><trkpt lat="42.16876564119273" lon="19.696064618187766"><ele>184.0</ele><time>2026-05-03T09:56:12Z</time></trkpt><trkpt lat="42.168907996998676" lon="19.696028827766693"><ele>184.0</ele><time>2026-05-03T09:56:13Z</time></trkpt><trkpt lat="42.16904046236227" lon="19.696004102550372"><ele>186.75</ele><time>2026-05-03T09:56:14Z</time></trkpt><trkpt lat="42.169167788603914" lon="19.695991617149883"><ele>189.5</ele><time>2026-05-03T09:56:15Z</time></trkpt><trkpt lat="42.16929945122236" lon="19.695997264017336"><ele>192.25</ele><time>2026-05-03T09:56:16Z</time></trkpt><trkpt lat="42.16943216145555" lon="19.696012986896715"><ele>195.0</ele><time>2026-05-03T09:56:17Z</time></trkpt><trkpt lat="42.16956453812763" lon="19.696017229921697"><ele>195.0</ele><time>2026-05-03T09:56:18Z</time></trkpt><trkpt lat="42.169693932199465" lon="19.695996234122997"><ele>195.0</ele><time>2026-05-03T09:56:19Z</time></trkpt><trkpt lat="42.16982325626644" lon="19.695974038129336"><ele>195.0</ele><time>2026-05-03T09:56:20Z</time></trkpt><trkpt lat="42.169946281678726" lon="19.695961541025042"><ele>195.0</ele><time>2026-05-03T09:56:21Z</time></trkpt><trkpt lat="42.170056321815125" lon="19.695962583065693"><ele>195.2</ele><time>2026-05-03T09:56:21.999Z</time></trkpt><trkpt lat="42.1701558809901" lon="19.69598087822892"><ele>195.4</ele><time>2026-05-03T09:56:22.999Z</time></trkpt><trkpt lat="42.170246159413715" lon="19.69601247494821"><ele>195.60000000000002</ele><time>2026-05-03T09:56:23.999Z</time></trkpt><trkpt lat="42.17033083438542" lon="19.696059961603428"><ele>195.8</ele><time>2026-05-03T09:56:24.999Z</time></trkpt><trkpt lat="42.17040649247656" lon="19.696125610204902"><ele>196.0</ele><time>2026-05-03T09:56:25.999Z</time></trkpt><trkpt lat="42.17047242517252" lon="19.696219820743497"><ele>197.8</ele><time>2026-05-03T09:56:26.999Z</time></trkpt><trkpt lat="42.170531961871376" lon="19.69633719539323"><ele>199.60000000000002</ele><time>2026-05-03T09:56:27.999Z</time></trkpt><trkpt lat="42.17059818101305" lon="19.696450016312102"><ele>201.4</ele><time>2026-05-03T09:56:28.999Z</time></trkpt><trkpt lat="42.170665309552184" lon="19.696556775088503"><ele>203.2</ele><time>2026-05-03T09:56:29.999Z</time></trkpt><trkpt lat="42.17073069999231" lon="19.696687142698714"><ele>205.0</ele><time>2026-05-03T09:56:30.999Z</time></trkpt><trkpt lat="42.17080477833228" lon="19.696818574229834"><ele>201.5</ele><time>2026-05-03T09:56:31.999Z</time></trkpt><trkpt lat="42.170888761848445" lon="19.696960473213164"><ele>198.0</ele><time>2026-05-03T09:56:32.999Z</time></trkpt><trkpt lat="42.17097072687962" lon="19.697111391165738"><ele>194.5</ele><time>2026-05-03T09:56:33.999Z</time></trkpt><trkpt lat="42.17104728640446" lon="19.69727910888408"><ele>191.0</ele><time>2026-05-03T09:56:34.999Z</time></trkpt><trkpt lat="42.17109264986748" lon="19.697438130497396"><ele>191.0</ele><time>2026-05-03T09:56:35.999Z</time></trkpt><trkpt lat="42.171099874478614" lon="19.697617101963232"><ele>191.0</ele><time>2026-05-03T09:56:36.999Z</time></trkpt><trkpt lat="42.171098349591695" lon="19.697820755654046"><ele>191.0</ele><time>2026-05-03T09:56:37.999Z</time></trkpt><trkpt lat="42.17109920335434" lon="19.698053070824724"><ele>191.0</ele><time>2026-05-03T09:56:38.999Z</time></trkpt><trkpt lat="42.17109325314621" lon="19.698283654509453"><ele>191.0</ele><time>2026-05-03T09:56:39.999Z</time></trkpt><trkpt lat="42.17107979584875" lon="19.69852381409223"><ele>191.0</ele><time>2026-05-03T09:56:40.999Z</time></trkpt><trkpt lat="42.17105610519566" lon="19.69873834272694"><ele>191.4</ele><time>2026-05-03T09:56:41.999Z</time></trkpt><trkpt lat="42.17102189349444" lon="19.69890173486988"><ele>191.8</ele><time>2026-05-03T09:56:42.999Z</time></trkpt><trkpt lat="42.1709877532951" lon="19.69901117810724"><ele>192.20000000000002</ele><time>2026-05-03T09:56:43.999Z</time></trkpt><trkpt lat="42.17094699684603" lon="19.6991607049125"><ele>192.60000000000002</ele><time>2026-05-03T09:56:45.999Z</time></trkpt><trkpt lat="42.170928917990445" lon="19.699286668366028"><ele>193.0</ele><time>2026-05-03T09:56:47.999Z</time></trkpt><trkpt lat="42.1709276682494" lon="19.699442133281334"><ele>194.60000000000002</ele><time>2026-05-03T09:56:49.999Z</time></trkpt><trkpt lat="42.170938747352636" lon="19.6995569333365"><ele>196.20000000000002</ele><time>2026-05-03T09:56:50.999Z</time></trkpt><trkpt lat="42.17095200535313" lon="19.69969192039979"><ele>197.8</ele><time>2026-05-03T09:56:51.999Z</time></trkpt><trkpt lat="42.170965565674" lon="19.699835908520516"><ele>199.4</ele><time>2026-05-03T09:56:52.999Z</time></trkpt><trkpt lat="42.170964885909605" lon="19.699989483892264"><ele>201.0</ele><time>2026-05-03T09:56:53.999Z</time></trkpt><trkpt lat="42.17093526141829" lon="19.70014628694323"><ele>202.0</ele><time>2026-05-03T09:56:54.999Z</time></trkpt><trkpt lat="42.17087899756961" lon="19.700299154077292"><ele>203.0</ele><time>2026-05-03T09:56:55.999Z</time></trkpt><trkpt lat="42.170825957901336" lon="19.70044421735817"><ele>204.0</ele><time>2026-05-03T09:56:56.999Z</time></trkpt><trkpt lat="42.17079476559743" lon="19.700596461921048"><ele>205.0</ele><time>2026-05-03T09:56:57.999Z</time></trkpt><trkpt lat="42.1707761055808" lon="19.70076254571754"><ele>205.0</ele><time>2026-05-03T09:56:58.999Z</time></trkpt><trkpt lat="42.17076165282" lon="19.700935874893066"><ele>205.0</ele><time>2026-05-03T09:56:59.999Z</time></trkpt><trkpt lat="42.17074899428041" lon="19.701119175968014"><ele>205.0</ele><time>2026-05-03T09:57:00.999Z</time></trkpt><trkpt lat="42.17073455307649" lon="19.701314463173084"><ele>205.0</ele><time>2026-05-03T09:57:01.999Z</time></trkpt><trkpt lat="42.17071376929038" lon="19.701517835972968"><ele>197.0</ele><time>2026-05-03T09:57:02.999Z</time></trkpt><trkpt lat="42.170685572331635" lon="19.70172840042617"><ele>189.0</ele><time>2026-05-03T09:57:03.999Z</time></trkpt><trkpt lat="42.170652287704804" lon="19.701943952246467"><ele>181.0</ele><time>2026-05-03T09:57:04.999Z</time></trkpt><trkpt lat="42.170621789909234" lon="19.702152728554736"><ele>181.0</ele><time>2026-05-03T09:57:05.999Z</time></trkpt><trkpt lat="42.17059444179708" lon="19.702358142425204"><ele>181.0</ele><time>2026-05-03T09:57:06.999Z</time></trkpt><trkpt lat="42.170560385536895" lon="19.702566286597275"><ele>181.0</ele><time>2026-05-03T09:57:07.999Z</time></trkpt><trkpt lat="42.17052144736766" lon="19.70277031863822"><ele>182.25</ele><time>2026-05-03T09:57:08.999Z</time></trkpt><trkpt lat="42.17048026960984" lon="19.70296303433611"><ele>183.5</ele><time>2026-05-03T09:57:09.999Z</time></trkpt><trkpt lat="42.170439095278596" lon="19.703141145989946"><ele>184.75</ele><time>2026-05-03T09:57:10.999Z</time></trkpt><trkpt lat="42.170407293525656" lon="19.703304727141596"><ele>186.0</ele><time>2026-05-03T09:57:11.999Z</time></trkpt><trkpt lat="42.17039095542865" lon="19.703471133798"><ele>187.0</ele><time>2026-05-03T09:57:13Z</time></trkpt><trkpt lat="42.170402779675676" lon="19.703654166200703"><ele>188.0</ele><time>2026-05-03T09:57:14Z</time></trkpt><trkpt lat="42.17043923080382" lon="19.703852659076244"><ele>189.0</ele><time>2026-05-03T09:57:15Z</time></trkpt><trkpt lat="42.170470889499065" lon="19.70406587120033"><ele>190.0</ele><time>2026-05-03T09:57:16Z</time></trkpt><trkpt lat="42.17048233909099" lon="19.704283631585152"><ele>188.33333333333334</ele><time>2026-05-03T09:57:17Z</time></trkpt><trkpt lat="42.17048622726712" lon="19.704501392247714"><ele>186.66666666666666</ele><time>2026-05-03T09:57:18Z</time></trkpt><trkpt lat="42.170499698322914" lon="19.704718033635203"><ele>185.0</ele><time>2026-05-03T09:57:19Z</time></trkpt><trkpt lat="42.17052664635407" lon="19.70493734051981"><ele>185.0</ele><time>2026-05-03T09:57:20Z</time></trkpt><trkpt lat="42.170539737357515" lon="19.705163008340303"><ele>185.0</ele><time>2026-05-03T09:57:21Z</time></trkpt><trkpt lat="42.17054174629905" lon="19.705377954422417"><ele>185.0</ele><time>2026-05-03T09:57:22Z</time></trkpt><trkpt lat="42.17055107973946" lon="19.705587489739152"><ele>184.0</ele><time>2026-05-03T09:57:23Z</time></trkpt><trkpt lat="42.17058077068603" lon="19.70579305934804"><ele>183.0</ele><time>2026-05-03T09:57:24Z</time></trkpt><trkpt lat="42.17063369679652" lon="19.705992517042105"><ele>182.0</ele><time>2026-05-03T09:57:25Z</time></trkpt><trkpt lat="42.1706967493851" lon="19.706196087977975"><ele>188.0</ele><time>2026-05-03T09:57:26Z</time></trkpt><trkpt lat="42.170753148322014" lon="19.70640638835022"><ele>194.0</ele><time>2026-05-03T09:57:27Z</time></trkpt><trkpt lat="42.17081087428978" lon="19.70660820099061"><ele>200.0</ele><time>2026-05-03T09:57:28Z</time></trkpt><trkpt lat="42.17088650783464" lon="19.706791545017197"><ele>197.0</ele><time>2026-05-03T09:57:29Z</time></trkpt><trkpt lat="42.17098801419322" lon="19.706942464702276"><ele>194.0</ele><time>2026-05-03T09:57:30Z</time></trkpt><trkpt lat="42.17109877025781" lon="19.707085640486753"><ele>191.0</ele><time>2026-05-03T09:57:31Z</time></trkpt><trkpt lat="42.17119945805655" lon="19.70724058132154"><ele>191.0</ele><time>2026-05-03T09:57:32Z</time></trkpt><trkpt lat="42.171289017558834" lon="19.70740669854007"><ele>191.0</ele><time>2026-05-03T09:57:33Z</time></trkpt><trkpt lat="42.171374694761994" lon="19.70757341085418"><ele>191.0</ele><time>2026-05-03T09:57:34Z</time></trkpt><trkpt lat="42.1714548085451" lon="19.70774598340499"><ele>191.75</ele><time>2026-05-03T09:57:35Z</time></trkpt><trkpt lat="42.17153169199575" lon="19.707922856024894"><ele>192.5</ele><time>2026-05-03T09:57:36Z</time></trkpt><trkpt lat="42.17160651908286" lon="19.70809315795687"><ele>193.25</ele><time>2026-05-03T09:57:37Z</time></trkpt><trkpt lat="42.17167680270273" lon="19.708247112162393"><ele>194.0</ele><time>2026-05-03T09:57:38Z</time></trkpt><trkpt lat="42.171751149281846" lon="19.708383547996565"><ele>194.0</ele><time>2026-05-03T09:57:39Z</time></trkpt><trkpt lat="42.171838282977255" lon="19.70850066783167"><ele>194.0</ele><time>2026-05-03T09:57:40Z</time></trkpt><trkpt lat="42.1719334324381" lon="19.70861361222625"><ele>194.0</ele><time>2026-05-03T09:57:41Z</time></trkpt><trkpt lat="42.17204322802858" lon="19.70871080062417"><ele>194.0</ele><time>2026-05-03T09:57:42Z</time></trkpt><trkpt lat="42.1721640041127" lon="19.70880332612657"><ele>192.5</ele><time>2026-05-03T09:57:43Z</time></trkpt><trkpt lat="42.17228363995776" lon="19.708911017082627"><ele>191.0</ele><time>2026-05-03T09:57:44Z</time></trkpt><trkpt lat="42.17239251957738" lon="19.70903647267284"><ele>189.5</ele><time>2026-05-03T09:57:45Z</time></trkpt><trkpt lat="42.17249635463643" lon="19.709163340223018"><ele>188.0</ele><time>2026-05-03T09:57:46Z</time></trkpt><trkpt lat="42.17260450786968" lon="19.709281670444597"><ele>189.25</ele><time>2026-05-03T09:57:47Z</time></trkpt><trkpt lat="42.17271956753396" lon="19.709374538915842"><ele>190.5</ele><time>2026-05-03T09:57:48Z</time></trkpt><trkpt lat="42.17284104286484" lon="19.709419135684456"><ele>191.75</ele><time>2026-05-03T09:57:49Z</time></trkpt><trkpt lat="42.1729721730106" lon="19.70942331036409"><ele>193.0</ele><time>2026-05-03T09:57:50Z</time></trkpt><trkpt lat="42.173101239962506" lon="19.709439880546498"><ele>193.8</ele><time>2026-05-03T09:57:51Z</time></trkpt><trkpt lat="42.173211640365864" lon="19.709472264008838"><ele>194.60000000000002</ele><time>2026-05-03T09:57:52Z</time></trkpt><trkpt lat="42.17330570122955" lon="19.709500816928905"><ele>195.39999999999998</ele><time>2026-05-03T09:57:53Z</time></trkpt><trkpt lat="42.17336780630423" lon="19.70953828031381"><ele>196.2</ele><time>2026-05-03T09:57:54Z</time></trkpt><trkpt lat="42.1734016267676" lon="19.709659996623454"><ele>197.0</ele><time>2026-05-03T09:57:56Z</time></trkpt><trkpt lat="42.17339023124279" lon="19.709774582779044"><ele>197.00000000000003</ele><time>2026-05-03T09:57:58Z</time></trkpt><trkpt lat="42.1733702651097" lon="19.709879137094497"><ele>197.0</ele><time>2026-05-03T09:58:00Z</time></trkpt><trkpt lat="42.17334523674282" lon="19.710029558852558"><ele>197.0</ele><time>2026-05-03T09:58:02Z</time></trkpt><trkpt lat="42.173324654461716" lon="19.710121767390834"><ele>197.0</ele><time>2026-05-03T09:58:03Z</time></trkpt><trkpt lat="42.17330342320573" lon="19.71022060666409"><ele>197.00000000000003</ele><time>2026-05-03T09:58:04Z</time></trkpt><trkpt lat="42.17328616542861" lon="19.71032185925288"><ele>197.0</ele><time>2026-05-03T09:58:05Z</time></trkpt><trkpt lat="42.17328514124603" lon="19.710418339010094"><ele>198.66666666666669</ele><time>2026-05-03T09:58:06Z</time></trkpt><trkpt lat="42.17331111726338" lon="19.710508238139752"><ele>200.33333333333334</ele><time>2026-05-03T09:58:07Z</time></trkpt><trkpt lat="42.17337124855391" lon="19.710580946787523"><ele>202.0</ele><time>2026-05-03T09:58:08Z</time></trkpt><trkpt lat="42.1734517568728" lon="19.710637490535937"><ele>203.66666666666669</ele><time>2026-05-03T09:58:09Z</time></trkpt><trkpt lat="42.17354328617631" lon="19.710700751539438"><ele>205.33333333333334</ele><time>2026-05-03T09:58:10Z</time></trkpt><trkpt lat="42.17362884271129" lon="19.71076849545763"><ele>207.0</ele><time>2026-05-03T09:58:11Z</time></trkpt><trkpt lat="42.17371060165142" lon="19.710856808682493"><ele>207.0</ele><time>2026-05-03T09:58:12Z</time></trkpt><trkpt lat="42.17377881025243" lon="19.710970715997362"><ele>207.0</ele><time>2026-05-03T09:58:13Z</time></trkpt><trkpt lat="42.173837041404845" lon="19.711111271351584"><ele>207.0</ele><time>2026-05-03T09:58:14Z</time></trkpt><trkpt lat="42.173898472926574" lon="19.71127415498539"><ele>207.0</ele><time>2026-05-03T09:58:15Z</time></trkpt><trkpt lat="42.173958711118615" lon="19.711437695373576"><ele>207.75</ele><time>2026-05-03T09:58:16Z</time></trkpt><trkpt lat="42.174016153554" lon="19.711610872255523"><ele>208.5</ele><time>2026-05-03T09:58:17Z</time></trkpt><trkpt lat="42.17406942091857" lon="19.71179341822147"><ele>209.25</ele><time>2026-05-03T09:58:18Z</time></trkpt><trkpt lat="42.17411919458634" lon="19.711955187435414"><ele>210.0</ele><time>2026-05-03T09:58:19Z</time></trkpt><trkpt lat="42.17416933519294" lon="19.712104529036502"><ele>210.0</ele><time>2026-05-03T09:58:20Z</time></trkpt><trkpt lat="42.174220835005485" lon="19.71225736265227"><ele>210.0</ele><time>2026-05-03T09:58:21Z</time></trkpt><trkpt lat="42.17425922096836" lon="19.712399291658866"><ele>210.0</ele><time>2026-05-03T09:58:22Z</time></trkpt><trkpt lat="42.174280733635705" lon="19.712539441545335"><ele>210.0</ele><time>2026-05-03T09:58:23Z</time></trkpt><trkpt lat="42.174304382498995" lon="19.712693419524452"><ele>213.5</ele><time>2026-05-03T09:58:24Z</time></trkpt><trkpt lat="42.17432924661837" lon="19.712864113387624"><ele>217.0</ele><time>2026-05-03T09:58:25Z</time></trkpt><trkpt lat="42.17435827175456" lon="19.713045741710186"><ele>220.5</ele><time>2026-05-03T09:58:26Z</time></trkpt><trkpt lat="42.17439215892517" lon="19.713228296697963"><ele>224.0</ele><time>2026-05-03T09:58:27Z</time></trkpt><trkpt lat="42.174429842474254" lon="19.71341805131968"><ele>233.66666666666669</ele><time>2026-05-03T09:58:28Z</time></trkpt><trkpt lat="42.174478676077" lon="19.713612411620623"><ele>243.33333333333331</ele><time>2026-05-03T09:58:29Z</time></trkpt><trkpt lat="42.174542182711825" lon="19.713814041160262"><ele>253.0</ele><time>2026-05-03T09:58:30Z</time></trkpt><trkpt lat="42.17461080568684" lon="19.714024756707158"><ele>253.0</ele><time>2026-05-03T09:58:31Z</time></trkpt><trkpt lat="42.17467614392112" lon="19.714235641910115"><ele>253.0</ele><time>2026-05-03T09:58:32Z</time></trkpt><trkpt lat="42.17474367516449" lon="19.714442879134406"><ele>253.0</ele><time>2026-05-03T09:58:33Z</time></trkpt><trkpt lat="42.17482654065565" lon="19.71464409773893"><ele>249.33333333333331</ele><time>2026-05-03T09:58:34Z</time></trkpt><trkpt lat="42.174922090997725" lon="19.71484590878839"><ele>245.66666666666669</ele><time>2026-05-03T09:58:35Z</time></trkpt><trkpt lat="42.175025561116215" lon="19.71505764360566"><ele>242.0</ele><time>2026-05-03T09:58:36Z</time></trkpt><trkpt lat="42.175138358169626" lon="19.71526900869171"><ele>242.0</ele><time>2026-05-03T09:58:37Z</time></trkpt><trkpt lat="42.17525272484026" lon="19.715479839752795"><ele>242.0</ele><time>2026-05-03T09:58:38Z</time></trkpt><trkpt lat="42.17535776483846" lon="19.715670782928377"><ele>242.0</ele><time>2026-05-03T09:58:39Z</time></trkpt><trkpt lat="42.17544763898264" lon="19.715845820095826"><ele>242.0</ele><time>2026-05-03T09:58:40Z</time></trkpt><trkpt lat="42.17552982244932" lon="19.716013365744328"><ele>242.0</ele><time>2026-05-03T09:58:41Z</time></trkpt><trkpt lat="42.17560973004212" lon="19.71617481794585"><ele>242.0</ele><time>2026-05-03T09:58:42Z</time></trkpt><trkpt lat="42.17570479188881" lon="19.71632026068204"><ele>242.0</ele><time>2026-05-03T09:58:43Z</time></trkpt><trkpt lat="42.17581854663367" lon="19.716463168829957"><ele>243.0</ele><time>2026-05-03T09:58:44Z</time></trkpt><trkpt lat="42.175944769602246" lon="19.716626349846287"><ele>244.0</ele><time>2026-05-03T09:58:45Z</time></trkpt><trkpt lat="42.17607168272666" lon="19.716817134875907"><ele>245.0</ele><time>2026-05-03T09:58:46Z</time></trkpt><trkpt lat="42.1761986785972" lon="19.717019582477203"><ele>245.0</ele><time>2026-05-03T09:58:47Z</time></trkpt><trkpt lat="42.17632789092437" lon="19.717230801982264"><ele>245.0</ele><time>2026-05-03T09:58:48Z</time></trkpt><trkpt lat="42.176455448490955" lon="19.717451232897442"><ele>245.0</ele><time>2026-05-03T09:58:49Z</time></trkpt><trkpt lat="42.17655887924761" lon="19.717666441640986"><ele>239.33333333333334</ele><time>2026-05-03T09:58:50Z</time></trkpt><trkpt lat="42.17665581690015" lon="19.717848463927943"><ele>233.66666666666669</ele><time>2026-05-03T09:58:51Z</time></trkpt><trkpt lat="42.176773666570696" lon="19.717982132995868"><ele>228.0</ele><time>2026-05-03T09:58:52Z</time></trkpt><trkpt lat="42.17689242454169" lon="19.71812782895071"><ele>228.0</ele><time>2026-05-03T09:58:53Z</time></trkpt><trkpt lat="42.17701923253524" lon="19.718284181740266"><ele>228.0</ele><time>2026-05-03T09:58:54Z</time></trkpt><trkpt lat="42.17717207604309" lon="19.71842616190548"><ele>228.0</ele><time>2026-05-03T09:58:55Z</time></trkpt><trkpt lat="42.177328062388526" lon="19.718560311441717"><ele>223.66666666666669</ele><time>2026-05-03T09:58:56Z</time></trkpt><trkpt lat="42.1774603701041" lon="19.7187020464421"><ele>219.33333333333334</ele><time>2026-05-03T09:58:57Z</time></trkpt><trkpt lat="42.17757999823564" lon="19.718871785888304"><ele>215.0</ele><time>2026-05-03T09:58:58Z</time></trkpt><trkpt lat="42.177695431250605" lon="19.71905098280363"><ele>215.0</ele><time>2026-05-03T09:58:59Z</time></trkpt><trkpt lat="42.177818940427265" lon="19.71922457503926"><ele>215.0</ele><time>2026-05-03T09:59:00Z</time></trkpt><trkpt lat="42.17795018313695" lon="19.7193967431951"><ele>215.0</ele><time>2026-05-03T09:59:01Z</time></trkpt><trkpt lat="42.17808210008214" lon="19.719573436579292"><ele>212.66666666666669</ele><time>2026-05-03T09:59:01.999Z</time></trkpt><trkpt lat="42.17821569089801" lon="19.719754594842566"><ele>210.33333333333331</ele><time>2026-05-03T09:59:02.999Z</time></trkpt><trkpt lat="42.178352981227604" lon="19.719934676232885"><ele>208.0</ele><time>2026-05-03T09:59:03.999Z</time></trkpt><trkpt lat="42.17848213516847" lon="19.720111946078788"><ele>213.5</ele><time>2026-05-03T09:59:04.999Z</time></trkpt><trkpt lat="42.17858496416958" lon="19.720269020029203"><ele>219.0</ele><time>2026-05-03T09:59:05.999Z</time></trkpt><trkpt lat="42.17866004505837" lon="19.72040225421406"><ele>224.5</ele><time>2026-05-03T09:59:06.999Z</time></trkpt><trkpt lat="42.178717807963345" lon="19.720531560290834"><ele>230.0</ele><time>2026-05-03T09:59:07.999Z</time></trkpt><trkpt lat="42.178774263160506" lon="19.72061857503198"><ele>230.00000000000003</ele><time>2026-05-03T09:59:08.999Z</time></trkpt><trkpt lat="42.17884036935833" lon="19.720646084599746"><ele>230.0</ele><time>2026-05-03T09:59:09.999Z</time></trkpt><trkpt lat="42.17891354202623" lon="19.720654604670685"><ele>230.0</ele><time>2026-05-03T09:59:11.999Z</time></trkpt><trkpt lat="42.179012740842865" lon="19.72065938195969"><ele>230.0</ele><time>2026-05-03T10:00:11Z</time></trkpt><trkpt lat="42.17908620567407" lon="19.720667188358583"><ele>230.00000000000003</ele><time>2026-05-03T10:00:13Z</time></trkpt><trkpt lat="42.17919110192658" lon="19.72065777133552"><ele>230.0</ele><time>2026-05-03T10:00:15Z</time></trkpt><trkpt lat="42.179262317116375" lon="19.720634424482018"><ele>225.83333333333334</ele><time>2026-05-03T10:00:16Z</time></trkpt><trkpt lat="42.179335808945424" lon="19.720603653779143"><ele>221.66666666666669</ele><time>2026-05-03T10:00:17Z</time></trkpt><trkpt lat="42.17941348968061" lon="19.720575464816722"><ele>217.5</ele><time>2026-05-03T10:00:18Z</time></trkpt><trkpt lat="42.179493155799435" lon="19.720542033164584"><ele>213.33333333333331</ele><time>2026-05-03T10:00:19Z</time></trkpt><trkpt lat="42.179579617246965" lon="19.720514859737715"><ele>209.16666666666666</ele><time>2026-05-03T10:00:20Z</time></trkpt><trkpt lat="42.179666859227936" lon="19.72048634251562"><ele>205.0</ele><time>2026-05-03T10:00:21Z</time></trkpt><trkpt lat="42.17975939317797" lon="19.720457660688915"><ele>207.4</ele><time>2026-05-03T10:00:22Z</time></trkpt><trkpt lat="42.17986200760168" lon="19.72043537531854"><ele>209.8</ele><time>2026-05-03T10:00:23Z</time></trkpt><trkpt lat="42.17996672225707" lon="19.720417704878763"><ele>212.2</ele><time>2026-05-03T10:00:24Z</time></trkpt><trkpt lat="42.18006708990619" lon="19.72038670528906"><ele>214.6</ele><time>2026-05-03T10:00:25Z</time></trkpt><trkpt lat="42.18016413750047" lon="19.720337183928464"><ele>217.0</ele><time>2026-05-03T10:00:26Z</time></trkpt><trkpt lat="42.180269025691864" lon="19.720275793564387"><ele>216.5</ele><time>2026-05-03T10:00:27Z</time></trkpt><trkpt lat="42.180379452290204" lon="19.720207310570867"><ele>216.0</ele><time>2026-05-03T10:00:28Z</time></trkpt><trkpt lat="42.180497398877286" lon="19.72019455896383"><ele>215.5</ele><time>2026-05-03T10:00:29Z</time></trkpt><trkpt lat="42.180606322968075" lon="19.720156137773913"><ele>215.0</ele><time>2026-05-03T10:00:30Z</time></trkpt><trkpt lat="42.1806988213935" lon="19.72011024799562"><ele>215.0</ele><time>2026-05-03T10:00:31Z</time></trkpt><trkpt lat="42.18078749110917" lon="19.720063302407233"><ele>215.0</ele><time>2026-05-03T10:00:32Z</time></trkpt><trkpt lat="42.18086886419954" lon="19.719987566201823"><ele>215.0</ele><time>2026-05-03T10:00:33Z</time></trkpt><trkpt lat="42.1809465987312" lon="19.719874473521525"><ele>215.0</ele><time>2026-05-03T10:00:34Z</time></trkpt><trkpt lat="42.18100745932241" lon="19.71974804516799"><ele>215.0</ele><time>2026-05-03T10:00:35Z</time></trkpt><trkpt lat="42.18106377815119" lon="19.719597399085483"><ele>215.0</ele><time>2026-05-03T10:00:36Z</time></trkpt><trkpt lat="42.18113755860987" lon="19.71945561344526"><ele>215.0</ele><time>2026-05-03T10:00:37Z</time></trkpt><trkpt lat="42.181231088265235" lon="19.719298186045496"><ele>215.0</ele><time>2026-05-03T10:00:38Z</time></trkpt><trkpt lat="42.18130739112329" lon="19.719163044396588"><ele>215.0</ele><time>2026-05-03T10:00:39Z</time></trkpt><trkpt lat="42.18136934841168" lon="19.71904713147203"><ele>216.2</ele><time>2026-05-03T10:00:40Z</time></trkpt><trkpt lat="42.181439458847414" lon="19.718927534112222"><ele>217.4</ele><time>2026-05-03T10:00:41Z</time></trkpt><trkpt lat="42.18150483913091" lon="19.718819568181978"><ele>218.60000000000002</ele><time>2026-05-03T10:00:42Z</time></trkpt><trkpt lat="42.18155946890521" lon="19.7187186824277"><ele>219.8</ele><time>2026-05-03T10:00:43Z</time></trkpt><trkpt lat="42.18160101506827" lon="19.718633296756643"><ele>221.0</ele><time>2026-05-03T10:00:44Z</time></trkpt><trkpt lat="42.181644267468364" lon="19.718539317213647"><ele>218.66666666666669</ele><time>2026-05-03T10:00:45Z</time></trkpt><trkpt lat="42.18169196413359" lon="19.71844152827499"><ele>216.33333333333334</ele><time>2026-05-03T10:00:46Z</time></trkpt><trkpt lat="42.1817403278697" lon="19.718355971704916"><ele>214.0</ele><time>2026-05-03T10:00:47Z</time></trkpt><trkpt lat="42.18180817465353" lon="19.7182607069851"><ele>211.66666666666669</ele><time>2026-05-03T10:00:48Z</time></trkpt><trkpt lat="42.181872172996336" lon="19.718208448821255"><ele>209.33333333333334</ele><time>2026-05-03T10:00:49Z</time></trkpt><trkpt lat="42.18194411620403" lon="19.71816050966177"><ele>207.0</ele><time>2026-05-03T10:00:50Z</time></trkpt><trkpt lat="42.18200917748115" lon="19.71812574474358"><ele>207.0</ele><time>2026-05-03T10:00:51Z</time></trkpt><trkpt lat="42.1820752164384" lon="19.718136783271557"><ele>207.0</ele><time>2026-05-03T10:00:52Z</time></trkpt><trkpt lat="42.18214330123491" lon="19.71818199862593"><ele>207.0</ele><time>2026-05-03T10:00:53Z</time></trkpt><trkpt lat="42.18223010975195" lon="19.71823619053904"><ele>207.0</ele><time>2026-05-03T10:00:54Z</time></trkpt><trkpt lat="42.182309859344315" lon="19.71829503979594"><ele>207.0</ele><time>2026-05-03T10:00:55Z</time></trkpt><trkpt lat="42.18239897518354" lon="19.7183774748918"><ele>207.0</ele><time>2026-05-03T10:00:56Z</time></trkpt><trkpt lat="42.182481708907865" lon="19.71844778604965"><ele>207.2</ele><time>2026-05-03T10:00:57Z</time></trkpt><trkpt lat="42.18254882596509" lon="19.718518998718363"><ele>207.39999999999998</ele><time>2026-05-03T10:00:58Z</time></trkpt><trkpt lat="42.18262075360566" lon="19.718579123311862"><ele>207.60000000000002</ele><time>2026-05-03T10:00:59Z</time></trkpt><trkpt lat="42.18269788148399" lon="19.7186348155098"><ele>207.8</ele><time>2026-05-03T10:01:00Z</time></trkpt><trkpt lat="42.18279903001619" lon="19.718708627779698"><ele>208.0</ele><time>2026-05-03T10:01:01Z</time></trkpt><trkpt lat="42.18289078546322" lon="19.7187870494051"><ele>207.25</ele><time>2026-05-03T10:01:02Z</time></trkpt><trkpt lat="42.183001128908195" lon="19.718873065893103"><ele>206.5</ele><time>2026-05-03T10:01:03Z</time></trkpt><trkpt lat="42.183103867264165" lon="19.71894117140717"><ele>205.75</ele><time>2026-05-03T10:01:04Z</time></trkpt><trkpt lat="42.18321264912098" lon="19.719016102473685"><ele>205.0</ele><time>2026-05-03T10:01:05Z</time></trkpt><trkpt lat="42.18330317447879" lon="19.719102540815037"><ele>205.0</ele><time>2026-05-03T10:01:06Z</time></trkpt><trkpt lat="42.183387535415534" lon="19.719193673530164"><ele>205.0</ele><time>2026-05-03T10:01:07Z</time></trkpt><trkpt lat="42.183478434839266" lon="19.71927455001343"><ele>205.0</ele><time>2026-05-03T10:01:08Z</time></trkpt><trkpt lat="42.18356320894713" lon="19.719353610212757"><ele>205.0</ele><time>2026-05-03T10:01:09Z</time></trkpt><trkpt lat="42.18362656909694" lon="19.719433076698575"><ele>205.0</ele><time>2026-05-03T10:01:10Z</time></trkpt><trkpt lat="42.18370601591903" lon="19.71952986028296"><ele>206.0</ele><time>2026-05-03T10:01:11Z</time></trkpt><trkpt lat="42.18379377893953" lon="19.719607153353937"><ele>207.0</ele><time>2026-05-03T10:01:12Z</time></trkpt><trkpt lat="42.1838948749009" lon="19.719668136929904"><ele>208.0</ele><time>2026-05-03T10:01:13Z</time></trkpt><trkpt lat="42.183986545679055" lon="19.719733871048778"><ele>209.0</ele><time>2026-05-03T10:01:14Z</time></trkpt><trkpt lat="42.184046995846565" lon="19.719795715233865"><ele>210.0</ele><time>2026-05-03T10:01:15Z</time></trkpt><trkpt lat="42.18411512523819" lon="19.71985306549355"><ele>210.0</ele><time>2026-05-03T10:01:16Z</time></trkpt><trkpt lat="42.18421024522562" lon="19.71990501528765"><ele>210.0</ele><time>2026-05-03T10:01:17Z</time></trkpt><trkpt lat="42.1843039735321" lon="19.719942184126406"><ele>210.0</ele><time>2026-05-03T10:01:18Z</time></trkpt><trkpt lat="42.18439033950122" lon="19.719993733725264"><ele>210.0</ele><time>2026-05-03T10:01:19Z</time></trkpt><trkpt lat="42.18446267704252" lon="19.720036558565084"><ele>210.0</ele><time>2026-05-03T10:01:20Z</time></trkpt><trkpt lat="42.18455298696996" lon="19.720090764906022"><ele>210.0</ele><time>2026-05-03T10:01:21Z</time></trkpt><trkpt lat="42.184641591169566" lon="19.720133241561186"><ele>210.0</ele><time>2026-05-03T10:01:22Z</time></trkpt><trkpt lat="42.184740571505436" lon="19.72017361248821"><ele>210.0</ele><time>2026-05-03T10:01:23Z</time></trkpt><trkpt lat="42.184839623226374" lon="19.7202070725173"><ele>210.0</ele><time>2026-05-03T10:01:24Z</time></trkpt><trkpt lat="42.18493481940637" lon="19.72022846045257"><ele>210.0</ele><time>2026-05-03T10:01:25.001Z</time></trkpt><trkpt lat="42.18502355593176" lon="19.720244411444106"><ele>210.0</ele><time>2026-05-03T10:01:26.001Z</time></trkpt><trkpt lat="42.185102876825596" lon="19.720249326241973"><ele>210.0</ele><time>2026-05-03T10:01:27.001Z</time></trkpt><trkpt lat="42.18516807940672" lon="19.720262228390837"><ele>210.0</ele><time>2026-05-03T10:01:28.001Z</time></trkpt><trkpt lat="42.1852644180946" lon="19.720250491852813"><ele>210.0</ele><time>2026-05-03T10:01:29.001Z</time></trkpt><trkpt lat="42.18536437501333" lon="19.72025548802145"><ele>210.0</ele><time>2026-05-03T10:01:30.001Z</time></trkpt><trkpt lat="42.18544171634557" lon="19.720312599189196"><ele>210.0</ele><time>2026-05-03T10:01:31.001Z</time></trkpt><trkpt lat="42.18553460427706" lon="19.720335265145366"><ele>218.4</ele><time>2026-05-03T10:01:32.001Z</time></trkpt><trkpt lat="42.185613064586306" lon="19.720349511024608"><ele>226.8</ele><time>2026-05-03T10:01:33.001Z</time></trkpt><trkpt lat="42.18570083851252" lon="19.720322608189882"><ele>235.2</ele><time>2026-05-03T10:01:34.001Z</time></trkpt><trkpt lat="42.18577790406457" lon="19.720283631772112"><ele>243.6</ele><time>2026-05-03T10:01:35.001Z</time></trkpt><trkpt lat="42.185887942679784" lon="19.720276149696815"><ele>252.0</ele><time>2026-05-03T10:01:37.001Z</time></trkpt><trkpt lat="42.18597608790936" lon="19.72036887352191"><ele>252.0</ele><time>2026-05-03T10:01:39.001Z</time></trkpt><trkpt lat="42.18601769168009" lon="19.720461202909778"><ele>252.0</ele><time>2026-05-03T10:01:40.001Z</time></trkpt><trkpt lat="42.186060309349635" lon="19.720545347031482"><ele>252.0</ele><time>2026-05-03T10:01:41.001Z</time></trkpt><trkpt lat="42.18610468609157" lon="19.720667005823643"><ele>252.0</ele><time>2026-05-03T10:01:42.001Z</time></trkpt><trkpt lat="42.186130009466666" lon="19.720783032835108"><ele>252.0</ele><time>2026-05-03T10:01:43.001Z</time></trkpt><trkpt lat="42.186158357755374" lon="19.720911246745278"><ele>252.0</ele><time>2026-05-03T10:01:44.001Z</time></trkpt><trkpt lat="42.18617838038593" lon="19.721020227120242"><ele>252.0</ele><time>2026-05-03T10:01:45Z</time></trkpt><trkpt lat="42.186249888000845" lon="19.721127604230627"><ele>252.0</ele><time>2026-05-03T10:01:47Z</time></trkpt><trkpt lat="42.18632775558942" lon="19.72112271685467"><ele>252.0</ele><time>2026-05-03T10:01:50Z</time></trkpt><trkpt lat="42.18639183786532" lon="19.721060736545116"><ele>252.0</ele><time>2026-05-03T10:01:52Z</time></trkpt><trkpt lat="42.18641109521208" lon="19.720936995921416"><ele>252.0</ele><time>2026-05-03T10:01:54Z</time></trkpt><trkpt lat="42.1863830389325" lon="19.720820201430666"><ele>252.0</ele><time>2026-05-03T10:01:56Z</time></trkpt><trkpt lat="42.18635412670401" lon="19.72069760538132"><ele>252.0</ele><time>2026-05-03T10:03:10.999Z</time></trkpt><trkpt lat="42.18635055930635" lon="19.720591422209328"><ele>252.0</ele><time>2026-05-03T10:03:11.999Z</time></trkpt><trkpt lat="42.186321510399175" lon="19.72047421108063"><ele>252.0</ele><time>2026-05-03T10:03:12.999Z</time></trkpt><trkpt lat="42.18629584808267" lon="19.7203310847116"><ele>252.0</ele><time>2026-05-03T10:03:13.999Z</time></trkpt><trkpt lat="42.18628116405217" lon="19.720217948089154"><ele>252.0</ele><time>2026-05-03T10:03:14.999Z</time></trkpt><trkpt lat="42.186280579087146" lon="19.720113701550872"><ele>252.0</ele><time>2026-05-03T10:03:15.999Z</time></trkpt><trkpt lat="42.18629428596188" lon="19.719985106799168"><ele>245.8</ele><time>2026-05-03T10:03:16.999Z</time></trkpt><trkpt lat="42.18631601181706" lon="19.719839767894143"><ele>239.6</ele><time>2026-05-03T10:03:17.999Z</time></trkpt><trkpt lat="42.18634057833461" lon="19.71970354460545"><ele>233.40000000000003</ele><time>2026-05-03T10:03:18.999Z</time></trkpt><trkpt lat="42.186363518064525" lon="19.719605646009185"><ele>227.20000000000002</ele><time>2026-05-03T10:03:19.999Z</time></trkpt><trkpt lat="42.186407803185304" lon="19.71951857772133"><ele>221.0</ele><time>2026-05-03T10:03:20.999Z</time></trkpt><trkpt lat="42.18647752889105" lon="19.71941500081602"><ele>222.25</ele><time>2026-05-03T10:03:21.999Z</time></trkpt><trkpt lat="42.18656611411146" lon="19.719310930774036"><ele>223.5</ele><time>2026-05-03T10:03:22.999Z</time></trkpt><trkpt lat="42.18667167873834" lon="19.719217654150427"><ele>224.75</ele><time>2026-05-03T10:03:23.999Z</time></trkpt><trkpt lat="42.186788986423444" lon="19.719104757210683"><ele>226.0</ele><time>2026-05-03T10:03:24.999Z</time></trkpt><trkpt lat="42.186891714454525" lon="19.718989772015743"><ele>226.0</ele><time>2026-05-03T10:03:25.999Z</time></trkpt><trkpt lat="42.18697373312759" lon="19.718863691471803"><ele>226.0</ele><time>2026-05-03T10:03:26.999Z</time></trkpt><trkpt lat="42.187044981312944" lon="19.71872653973502"><ele>226.0</ele><time>2026-05-03T10:03:27.999Z</time></trkpt><trkpt lat="42.18710847180573" lon="19.718579762957983"><ele>226.0</ele><time>2026-05-03T10:03:28.999Z</time></trkpt><trkpt lat="42.18714816431187" lon="19.718421272512312"><ele>223.25</ele><time>2026-05-03T10:03:29.999Z</time></trkpt><trkpt lat="42.18716589829942" lon="19.718267897182514"><ele>220.5</ele><time>2026-05-03T10:03:31Z</time></trkpt><trkpt lat="42.18716484205042" lon="19.718074655097936"><ele>217.75</ele><time>2026-05-03T10:03:32Z</time></trkpt><trkpt lat="42.18717310767644" lon="19.71787614440173"><ele>215.0</ele><time>2026-05-03T10:03:33Z</time></trkpt><trkpt lat="42.18720953108109" lon="19.71767066537425"><ele>214.66666666666669</ele><time>2026-05-03T10:03:34Z</time></trkpt><trkpt lat="42.18726253795878" lon="19.717455256237635"><ele>214.33333333333331</ele><time>2026-05-03T10:03:35Z</time></trkpt><trkpt lat="42.187309346449055" lon="19.717228142246146"><ele>214.0</ele><time>2026-05-03T10:03:36Z</time></trkpt><trkpt lat="42.18735520765169" lon="19.71706766199372"><ele>216.39999999999998</ele><time>2026-05-03T10:03:37Z</time></trkpt><trkpt lat="42.18740860462035" lon="19.716923600083142"><ele>218.79999999999998</ele><time>2026-05-03T10:03:38Z</time></trkpt><trkpt lat="42.187464379363526" lon="19.716793159159476"><ele>221.20000000000002</ele><time>2026-05-03T10:03:39Z</time></trkpt><trkpt lat="42.18753109606824" lon="19.716690938890114"><ele>223.60000000000002</ele><time>2026-05-03T10:03:40Z</time></trkpt><trkpt lat="42.18761307237368" lon="19.71662714258201"><ele>226.0</ele><time>2026-05-03T10:03:41Z</time></trkpt><trkpt lat="42.18769771351999" lon="19.71659617388796"><ele>226.0</ele><time>2026-05-03T10:03:42Z</time></trkpt><trkpt lat="42.18779159418965" lon="19.716611500279644"><ele>226.00000000000003</ele><time>2026-05-03T10:03:43Z</time></trkpt><trkpt lat="42.18787509194134" lon="19.716657859962833"><ele>226.00000000000003</ele><time>2026-05-03T10:03:44Z</time></trkpt><trkpt lat="42.18793748069525" lon="19.716737634788686"><ele>226.0</ele><time>2026-05-03T10:03:45Z</time></trkpt><trkpt lat="42.18800531304511" lon="19.71685792765504"><ele>226.0</ele><time>2026-05-03T10:03:46Z</time></trkpt><trkpt lat="42.18806944060597" lon="19.717013144396056"><ele>229.8</ele><time>2026-05-03T10:03:47Z</time></trkpt><trkpt lat="42.18813079013076" lon="19.71717729067227"><ele>233.60000000000002</ele><time>2026-05-03T10:03:48Z</time></trkpt><trkpt lat="42.18818585374518" lon="19.717290084449903"><ele>237.4</ele><time>2026-05-03T10:03:49Z</time></trkpt><trkpt lat="42.18824899856753" lon="19.717354597626983"><ele>241.2</ele><time>2026-05-03T10:03:50Z</time></trkpt><trkpt lat="42.18835135418711" lon="19.71739552385522"><ele>245.0</ele><time>2026-05-03T10:03:51Z</time></trkpt><trkpt lat="42.1884678218638" lon="19.71744522768685"><ele>245.8</ele><time>2026-05-03T10:03:52Z</time></trkpt><trkpt lat="42.18856484216792" lon="19.717520677144492"><ele>246.6</ele><time>2026-05-03T10:03:53Z</time></trkpt><trkpt lat="42.188644946791875" lon="19.71762985060987"><ele>247.39999999999998</ele><time>2026-05-03T10:03:54Z</time></trkpt><trkpt lat="42.18869723307808" lon="19.71772069997457"><ele>248.2</ele><time>2026-05-03T10:03:55Z</time></trkpt><trkpt lat="42.18881680810591" lon="19.717772025780558"><ele>249.0</ele><time>2026-05-03T10:03:57Z</time></trkpt><trkpt lat="42.188914855289646" lon="19.71774188879045"><ele>246.0</ele><time>2026-05-03T10:03:58Z</time></trkpt><trkpt lat="42.18903760395755" lon="19.717691015026897"><ele>242.99999999999997</ele><time>2026-05-03T10:03:59Z</time></trkpt><trkpt lat="42.18916416156413" lon="19.717654972379886"><ele>239.99999999999997</ele><time>2026-05-03T10:04:00Z</time></trkpt><trkpt lat="42.18925571058967" lon="19.717676891475723"><ele>237.0</ele><time>2026-05-03T10:04:01Z</time></trkpt><trkpt lat="42.18933730682619" lon="19.717737445711997"><ele>234.0</ele><time>2026-05-03T10:04:02Z</time></trkpt><trkpt lat="42.18943039301105" lon="19.71782851995272"><ele>241.83333333333334</ele><time>2026-05-03T10:04:03Z</time></trkpt><trkpt lat="42.18953912287819" lon="19.71796538887368"><ele>249.66666666666669</ele><time>2026-05-03T10:04:04Z</time></trkpt><trkpt lat="42.1896136859538" lon="19.717997933206153"><ele>257.5</ele><time>2026-05-03T10:04:05Z</time></trkpt><trkpt lat="42.18969750944366" lon="19.718002202352206"><ele>265.33333333333337</ele><time>2026-05-03T10:04:06Z</time></trkpt><trkpt lat="42.1897658251862" lon="19.717997853599954"><ele>273.1666666666667</ele><time>2026-05-03T10:04:07Z</time></trkpt><trkpt lat="42.18982592451351" lon="19.718024969775684"><ele>281.0</ele><time>2026-05-03T10:04:08Z</time></trkpt><trkpt lat="42.18990627980062" lon="19.717925279039317"><ele>281.0</ele><time>2026-05-03T10:04:10Z</time></trkpt><trkpt lat="42.18993422474666" lon="19.717846726577285"><ele>281.0</ele><time>2026-05-03T10:04:11Z</time></trkpt><trkpt lat="42.18992402164292" lon="19.717696353284097"><ele>281.0</ele><time>2026-05-03T10:04:13Z</time></trkpt><trkpt lat="42.19001755804538" lon="19.717618909738764"><ele>281.0</ele><time>2026-05-03T10:04:14.999Z</time></trkpt><trkpt lat="42.19011387643855" lon="19.717603545435963"><ele>281.0</ele><time>2026-05-03T10:04:15.999Z</time></trkpt><trkpt lat="42.19023458556507" lon="19.71755350342313"><ele>272.8</ele><time>2026-05-03T10:04:16.999Z</time></trkpt><trkpt lat="42.19034852077134" lon="19.71752304133873"><ele>264.6</ele><time>2026-05-03T10:04:17.999Z</time></trkpt><trkpt lat="42.190421065463596" lon="19.717487837927642"><ele>256.4</ele><time>2026-05-03T10:04:18.999Z</time></trkpt><trkpt lat="42.19048188529216" lon="19.71735317003082"><ele>248.2</ele><time>2026-05-03T10:04:20.999Z</time></trkpt><trkpt lat="42.190530052769844" lon="19.71722231001785"><ele>240.0</ele><time>2026-05-03T10:04:21.999Z</time></trkpt><trkpt lat="42.190587663116546" lon="19.717106620504435"><ele>240.0</ele><time>2026-05-03T10:04:22.999Z</time></trkpt><trkpt lat="42.19066343818862" lon="19.717052565547398"><ele>240.0</ele><time>2026-05-03T10:04:23.999Z</time></trkpt><trkpt lat="42.19076016677674" lon="19.71695238583878"><ele>240.0</ele><time>2026-05-03T10:04:24.999Z</time></trkpt><trkpt lat="42.19084597835043" lon="19.716835614969877"><ele>240.0</ele><time>2026-05-03T10:04:25.999Z</time></trkpt><trkpt lat="42.19091941264739" lon="19.716725945861594"><ele>240.0</ele><time>2026-05-03T10:04:26.999Z</time></trkpt><trkpt lat="42.1909846883409" lon="19.71659705893225"><ele>237.6</ele><time>2026-05-03T10:04:27.999Z</time></trkpt><trkpt lat="42.19104135718815" lon="19.716470710479243"><ele>235.2</ele><time>2026-05-03T10:04:28.999Z</time></trkpt><trkpt lat="42.191092153405656" lon="19.71635442508477"><ele>232.8</ele><time>2026-05-03T10:04:29.999Z</time></trkpt><trkpt lat="42.19111997268582" lon="19.716236052253244"><ele>230.4</ele><time>2026-05-03T10:04:30.999Z</time></trkpt><trkpt lat="42.19112800902618" lon="19.716089913740387"><ele>228.0</ele><time>2026-05-03T10:04:31.999Z</time></trkpt><trkpt lat="42.191139967112605" lon="19.715911276250107"><ele>226.75</ele><time>2026-05-03T10:04:32.999Z</time></trkpt><trkpt lat="42.191159350511896" lon="19.715761737843387"><ele>225.5</ele><time>2026-05-03T10:04:33.999Z</time></trkpt><trkpt lat="42.191170250289375" lon="19.71560976277841"><ele>224.25</ele><time>2026-05-03T10:04:34.999Z</time></trkpt><trkpt lat="42.191161672693525" lon="19.715439244432076"><ele>223.0</ele><time>2026-05-03T10:04:35.999Z</time></trkpt><trkpt lat="42.191142824565624" lon="19.71526472543919"><ele>225.25</ele><time>2026-05-03T10:04:36.999Z</time></trkpt><trkpt lat="42.19113733795953" lon="19.7151083618979"><ele>227.5</ele><time>2026-05-03T10:04:37.999Z</time></trkpt><trkpt lat="42.191165771706665" lon="19.714936533160184"><ele>229.75</ele><time>2026-05-03T10:04:38.999Z</time></trkpt><trkpt lat="42.19120222437049" lon="19.714743497457786"><ele>232.0</ele><time>2026-05-03T10:04:39.999Z</time></trkpt><trkpt lat="42.19124412597959" lon="19.714544379807958"><ele>231.99999999999997</ele><time>2026-05-03T10:04:40.999Z</time></trkpt><trkpt lat="42.19128888594748" lon="19.7144066966652"><ele>232.0</ele><time>2026-05-03T10:04:41.999Z</time></trkpt><trkpt lat="42.19133081843843" lon="19.71432431684014"><ele>232.0</ele><time>2026-05-03T10:04:42.999Z</time></trkpt><trkpt lat="42.191387310436596" lon="19.714246048166853"><ele>232.0</ele><time>2026-05-03T10:04:43.999Z</time></trkpt><trkpt lat="42.1914498962538" lon="19.714169115869307"><ele>231.99999999999997</ele><time>2026-05-03T10:04:44.999Z</time></trkpt><trkpt lat="42.19150256101108" lon="19.71408074689853"><ele>232.0</ele><time>2026-05-03T10:04:45.999Z</time></trkpt><trkpt lat="42.191560410593986" lon="19.713870841348967"><ele>233.25</ele><time>2026-05-03T10:04:46.999Z</time></trkpt><trkpt lat="42.19159824122614" lon="19.713711819447358"><ele>234.5</ele><time>2026-05-03T10:04:47.999Z</time></trkpt><trkpt lat="42.19161412112492" lon="19.713557654285815"><ele>235.75</ele><time>2026-05-03T10:04:48.999Z</time></trkpt><trkpt lat="42.19162295633367" lon="19.713387876131076"><ele>237.0</ele><time>2026-05-03T10:04:49.999Z</time></trkpt><trkpt lat="42.19165695323988" lon="19.713222267708794"><ele>234.8</ele><time>2026-05-03T10:04:50.999Z</time></trkpt><trkpt lat="42.191718532416225" lon="19.713078204314453"><ele>232.6</ele><time>2026-05-03T10:04:51.999Z</time></trkpt><trkpt lat="42.19179200962886" lon="19.712949424625336"><ele>230.40000000000003</ele><time>2026-05-03T10:04:52.999Z</time></trkpt><trkpt lat="42.191874094637406" lon="19.712829970926098"><ele>228.20000000000002</ele><time>2026-05-03T10:04:53.999Z</time></trkpt><trkpt lat="42.19193205047587" lon="19.71274929733829"><ele>226.0</ele><time>2026-05-03T10:04:54.999Z</time></trkpt><trkpt lat="42.19202628200803" lon="19.71268699728998"><ele>226.0</ele><time>2026-05-03T10:04:56.999Z</time></trkpt><trkpt lat="42.19213141598727" lon="19.71273728873946"><ele>226.00000000000003</ele><time>2026-05-03T10:04:58.999Z</time></trkpt><trkpt lat="42.192168688489005" lon="19.712836881891445"><ele>226.00000000000003</ele><time>2026-05-03T10:04:59.999Z</time></trkpt><trkpt lat="42.19222476686461" lon="19.7129389498903"><ele>226.0</ele><time>2026-05-03T10:05:00.999Z</time></trkpt><trkpt lat="42.19227388606941" lon="19.71304927136489"><ele>226.0</ele><time>2026-05-03T10:05:01.999Z</time></trkpt><trkpt lat="42.192339629295795" lon="19.71315832107866"><ele>228.0</ele><time>2026-05-03T10:05:02.999Z</time></trkpt><trkpt lat="42.19240620720535" lon="19.713263857464295"><ele>230.00000000000003</ele><time>2026-05-03T10:05:03.999Z</time></trkpt><trkpt lat="42.19247958596917" lon="19.713360947395866"><ele>232.00000000000003</ele><time>2026-05-03T10:05:04.999Z</time></trkpt><trkpt lat="42.1925602368018" lon="19.713441804119228"><ele>234.0</ele><time>2026-05-03T10:05:05.999Z</time></trkpt><trkpt lat="42.192650611615036" lon="19.713508952971537"><ele>236.0</ele><time>2026-05-03T10:05:06.999Z</time></trkpt><trkpt lat="42.192747547811926" lon="19.713570663665323"><ele>244.25</ele><time>2026-05-03T10:05:07.999Z</time></trkpt><trkpt lat="42.192857931383514" lon="19.713634893801274"><ele>252.5</ele><time>2026-05-03T10:05:08.999Z</time></trkpt><trkpt lat="42.19297911076723" lon="19.713689349236436"><ele>260.75</ele><time>2026-05-03T10:05:09.999Z</time></trkpt><trkpt lat="42.193095305428685" lon="19.713724515656732"><ele>269.0</ele><time>2026-05-03T10:05:10.999Z</time></trkpt><trkpt lat="42.19320339366852" lon="19.713736577913554"><ele>269.0</ele><time>2026-05-03T10:05:11.999Z</time></trkpt><trkpt lat="42.19328933863331" lon="19.713750343057544"><ele>269.0</ele><time>2026-05-03T10:05:12.999Z</time></trkpt><trkpt lat="42.19338490480125" lon="19.71379948390108"><ele>269.0</ele><time>2026-05-03T10:05:13.999Z</time></trkpt><trkpt lat="42.193473067352116" lon="19.713824984219247"><ele>269.0</ele><time>2026-05-03T10:05:14.999Z</time></trkpt><trkpt lat="42.193569138364936" lon="19.71384294219546"><ele>269.0</ele><time>2026-05-03T10:05:15.999Z</time></trkpt><trkpt lat="42.193666567794956" lon="19.713844610461038"><ele>269.0</ele><time>2026-05-03T10:05:16.999Z</time></trkpt><trkpt lat="42.19375474587711" lon="19.713816886377774"><ele>269.0</ele><time>2026-05-03T10:05:17.999Z</time></trkpt><trkpt lat="42.19385415697084" lon="19.71376509938709"><ele>269.0</ele><time>2026-05-03T10:05:18.999Z</time></trkpt><trkpt lat="42.19396545068226" lon="19.713703303595768"><ele>269.0</ele><time>2026-05-03T10:05:19.999Z</time></trkpt><trkpt lat="42.194067883731265" lon="19.71362105493191"><ele>269.0</ele><time>2026-05-03T10:05:20.999Z</time></trkpt><trkpt lat="42.194160361040886" lon="19.71352529665591"><ele>264.0</ele><time>2026-05-03T10:05:21.999Z</time></trkpt><trkpt lat="42.19423723468817" lon="19.713432233773805"><ele>259.0</ele><time>2026-05-03T10:05:22.999Z</time></trkpt><trkpt lat="42.19429897112933" lon="19.713337685108936"><ele>253.99999999999997</ele><time>2026-05-03T10:05:23.999Z</time></trkpt><trkpt lat="42.19436329313943" lon="19.713255011297143"><ele>249.0</ele><time>2026-05-03T10:05:24.999Z</time></trkpt><trkpt lat="42.19442653473776" lon="19.713168953020084"><ele>244.0</ele><time>2026-05-03T10:05:25.999Z</time></trkpt><trkpt lat="42.194489090234775" lon="19.713065276823333"><ele>244.0</ele><time>2026-05-03T10:05:26.999Z</time></trkpt><trkpt lat="42.194544390049074" lon="19.71295534261283"><ele>243.99999999999997</ele><time>2026-05-03T10:05:27.999Z</time></trkpt><trkpt lat="42.194592890754" lon="19.71285102923119"><ele>243.99999999999997</ele><time>2026-05-03T10:05:28.999Z</time></trkpt><trkpt lat="42.19463652481714" lon="19.71272198085167"><ele>244.0</ele><time>2026-05-03T10:05:29.999Z</time></trkpt><trkpt lat="42.19466036276454" lon="19.71258769114436"><ele>244.0</ele><time>2026-05-03T10:05:30.999Z</time></trkpt><trkpt lat="42.19467423456933" lon="19.712448739885208"><ele>242.0</ele><time>2026-05-03T10:05:31.999Z</time></trkpt><trkpt lat="42.19468507837195" lon="19.712311822624567"><ele>239.99999999999997</ele><time>2026-05-03T10:05:32.999Z</time></trkpt><trkpt lat="42.19468394095862" lon="19.712190466649524"><ele>237.99999999999997</ele><time>2026-05-03T10:05:33.999Z</time></trkpt><trkpt lat="42.19467908583268" lon="19.71210040589166"><ele>236.0</ele><time>2026-05-03T10:05:34.999Z</time></trkpt><trkpt lat="42.194681599443655" lon="19.711951478969368"><ele>234.0</ele><time>2026-05-03T10:05:37Z</time></trkpt><trkpt lat="42.19468987373181" lon="19.711809267907526"><ele>234.0</ele><time>2026-05-03T10:05:39Z</time></trkpt><trkpt lat="42.194696236865816" lon="19.71171682496057"><ele>234.00000000000003</ele><time>2026-05-03T10:05:40Z</time></trkpt><trkpt lat="42.19470552738663" lon="19.711617950776965"><ele>234.0</ele><time>2026-05-03T10:05:41Z</time></trkpt><trkpt lat="42.194721159640196" lon="19.71151154626065"><ele>234.0</ele><time>2026-05-03T10:05:42Z</time></trkpt><trkpt lat="42.1947315304215" lon="19.71141564075784"><ele>234.00000000000003</ele><time>2026-05-03T10:05:43Z</time></trkpt><trkpt lat="42.194753854151095" lon="19.711326162851055"><ele>234.0</ele><time>2026-05-03T10:05:44Z</time></trkpt><trkpt lat="42.19478570211597" lon="19.711239547579034"><ele>234.0</ele><time>2026-05-03T10:05:45Z</time></trkpt><trkpt lat="42.194832262555394" lon="19.711171785541794"><ele>236.83333333333334</ele><time>2026-05-03T10:05:46Z</time></trkpt><trkpt lat="42.19495302360552" lon="19.71111583772187"><ele>239.66666666666669</ele><time>2026-05-03T10:05:48Z</time></trkpt><trkpt lat="42.195027453889715" lon="19.711127847832596"><ele>242.5</ele><time>2026-05-03T10:05:49Z</time></trkpt><trkpt lat="42.19508314674876" lon="19.711174141796473"><ele>245.33333333333334</ele><time>2026-05-03T10:05:50Z</time></trkpt><trkpt lat="42.195122146825994" lon="19.71124177212982"><ele>248.16666666666669</ele><time>2026-05-03T10:05:51Z</time></trkpt><trkpt lat="42.1951742270077" lon="19.71130465250414"><ele>251.0</ele><time>2026-05-03T10:05:52Z</time></trkpt><trkpt lat="42.19522482828208" lon="19.711362176035973"><ele>251.00000000000003</ele><time>2026-05-03T10:05:53Z</time></trkpt><trkpt lat="42.19527620979978" lon="19.711421390433657"><ele>251.0</ele><time>2026-05-03T10:05:55Z</time></trkpt><trkpt lat="42.19536331938666" lon="19.71151093946422"><ele>251.0</ele><time>2026-05-03T10:07:02.999Z</time></trkpt><trkpt lat="42.19543320058269" lon="19.71154836480535"><ele>251.0</ele><time>2026-05-03T10:07:03.999Z</time></trkpt><trkpt lat="42.195517036036996" lon="19.7116170357684"><ele>251.00000000000003</ele><time>2026-05-03T10:07:04.999Z</time></trkpt><trkpt lat="42.195591824667055" lon="19.711645675786336"><ele>251.0</ele><time>2026-05-03T10:07:05.999Z</time></trkpt><trkpt lat="42.195675153077325" lon="19.711668010537753"><ele>253.50000000000003</ele><time>2026-05-03T10:07:06.999Z</time></trkpt><trkpt lat="42.19576513205081" lon="19.711704413031438"><ele>256.0</ele><time>2026-05-03T10:07:07.999Z</time></trkpt><trkpt lat="42.19585542729406" lon="19.711742848572865"><ele>258.5</ele><time>2026-05-03T10:07:08.999Z</time></trkpt><trkpt lat="42.195928918949285" lon="19.711756165985843"><ele>261.0</ele><time>2026-05-03T10:07:09.999Z</time></trkpt><trkpt lat="42.19599872747566" lon="19.711721138664316"><ele>263.5</ele><time>2026-05-03T10:07:10.999Z</time></trkpt><trkpt lat="42.196091008808644" lon="19.711646465605806"><ele>266.0</ele><time>2026-05-03T10:07:11.999Z</time></trkpt><trkpt lat="42.19619511632142" lon="19.711594615665508"><ele>266.0</ele><time>2026-05-03T10:07:12.999Z</time></trkpt><trkpt lat="42.196308335045984" lon="19.71153709626326"><ele>266.0</ele><time>2026-05-03T10:07:13.999Z</time></trkpt><trkpt lat="42.19639997877831" lon="19.711484619371117"><ele>266.0</ele><time>2026-05-03T10:07:14.999Z</time></trkpt><trkpt lat="42.19647872472793" lon="19.7114321613286"><ele>266.0</ele><time>2026-05-03T10:07:15.999Z</time></trkpt><trkpt lat="42.19653602114903" lon="19.711340258910436"><ele>266.0</ele><time>2026-05-03T10:07:16.999Z</time></trkpt><trkpt lat="42.19658496784699" lon="19.711213753596713"><ele>266.6</ele><time>2026-05-03T10:07:17.999Z</time></trkpt><trkpt lat="42.19665107928263" lon="19.711075549037968"><ele>267.20000000000005</ele><time>2026-05-03T10:07:18.999Z</time></trkpt><trkpt lat="42.196707798188946" lon="19.71095890253498"><ele>267.79999999999995</ele><time>2026-05-03T10:07:19.999Z</time></trkpt><trkpt lat="42.19673475498665" lon="19.710872613760163"><ele>268.4</ele><time>2026-05-03T10:07:20.999Z</time></trkpt><trkpt lat="42.19678678244614" lon="19.71068047094073"><ele>269.0</ele><time>2026-05-03T10:07:22.999Z</time></trkpt><trkpt lat="42.196830300651825" lon="19.710606129532405"><ele>263.5</ele><time>2026-05-03T10:07:23.999Z</time></trkpt><trkpt lat="42.19686930801964" lon="19.71047204948096"><ele>258.0</ele><time>2026-05-03T10:07:24.999Z</time></trkpt><trkpt lat="42.19691403638979" lon="19.710299150690904"><ele>252.5</ele><time>2026-05-03T10:07:25.999Z</time></trkpt><trkpt lat="42.19695317061459" lon="19.71013500955006"><ele>247.0</ele><time>2026-05-03T10:07:26.999Z</time></trkpt><trkpt lat="42.19698651503773" lon="19.7100046754554"><ele>245.6</ele><time>2026-05-03T10:07:27.999Z</time></trkpt><trkpt lat="42.197008325616196" lon="19.709880587890513"><ele>244.2</ele><time>2026-05-03T10:07:28.999Z</time></trkpt><trkpt lat="42.19700762586556" lon="19.709772086939267"><ele>242.8</ele><time>2026-05-03T10:07:29.999Z</time></trkpt><trkpt lat="42.1969979512025" lon="19.709631458238803"><ele>241.4</ele><time>2026-05-03T10:07:30.999Z</time></trkpt><trkpt lat="42.19695719365819" lon="19.70948551539507"><ele>240.0</ele><time>2026-05-03T10:07:31.999Z</time></trkpt><trkpt lat="42.1969042490899" lon="19.70934802336957"><ele>239.66666666666666</ele><time>2026-05-03T10:07:32.999Z</time></trkpt><trkpt lat="42.196864919538704" lon="19.709232837249886"><ele>239.33333333333331</ele><time>2026-05-03T10:07:33.999Z</time></trkpt><trkpt lat="42.19685018753847" lon="19.70910318115405"><ele>239.0</ele><time>2026-05-03T10:07:34.999Z</time></trkpt><trkpt lat="42.19685106708729" lon="19.708975111119795"><ele>238.66666666666666</ele><time>2026-05-03T10:07:35.999Z</time></trkpt><trkpt lat="42.196824849758436" lon="19.708871551303954"><ele>238.33333333333331</ele><time>2026-05-03T10:07:36.999Z</time></trkpt><trkpt lat="42.19677133602046" lon="19.708812012208664"><ele>238.0</ele><time>2026-05-03T10:07:37.999Z</time></trkpt><trkpt lat="42.19671315435576" lon="19.708730452348924"><ele>238.0</ele><time>2026-05-03T10:07:38.999Z</time></trkpt><trkpt lat="42.19667320113816" lon="19.708628606415925"><ele>238.0</ele><time>2026-05-03T10:07:39.999Z</time></trkpt><trkpt lat="42.19660579489659" lon="19.708381613891138"><ele>238.0</ele><time>2026-05-03T10:07:40.999Z</time></trkpt><trkpt lat="42.1965517931612" lon="19.708255686951865"><ele>238.0</ele><time>2026-05-03T10:07:41.999Z</time></trkpt><trkpt lat="42.196512994420864" lon="19.70813639773521"><ele>238.4</ele><time>2026-05-03T10:07:43Z</time></trkpt><trkpt lat="42.19649958493026" lon="19.708026450017638"><ele>238.8</ele><time>2026-05-03T10:07:44Z</time></trkpt><trkpt lat="42.19651460380072" lon="19.707912780351094"><ele>239.2</ele><time>2026-05-03T10:07:45Z</time></trkpt><trkpt lat="42.19655794543835" lon="19.707806031508497"><ele>239.6</ele><time>2026-05-03T10:07:46Z</time></trkpt><trkpt lat="42.1966170209997" lon="19.70769055196875"><ele>240.0</ele><time>2026-05-03T10:07:47Z</time></trkpt><trkpt lat="42.19669792498251" lon="19.707560554605816"><ele>240.0</ele><time>2026-05-03T10:07:48Z</time></trkpt><trkpt lat="42.19679429180088" lon="19.70746130239709"><ele>240.0</ele><time>2026-05-03T10:07:49Z</time></trkpt><trkpt lat="42.1969118476041" lon="19.70736781410322"><ele>240.0</ele><time>2026-05-03T10:07:50Z</time></trkpt><trkpt lat="42.19701694374948" lon="19.707303359106643"><ele>240.0</ele><time>2026-05-03T10:07:51Z</time></trkpt><trkpt lat="42.19710562337615" lon="19.70726933390183"><ele>240.0</ele><time>2026-05-03T10:07:52Z</time></trkpt><trkpt lat="42.197195546483" lon="19.70726633433275"><ele>240.0</ele><time>2026-05-03T10:07:53Z</time></trkpt><trkpt lat="42.19729707948082" lon="19.70727447637008"><ele>240.0</ele><time>2026-05-03T10:07:54Z</time></trkpt><trkpt lat="42.19740285723931" lon="19.707277225628225"><ele>240.0</ele><time>2026-05-03T10:07:55Z</time></trkpt><trkpt lat="42.19748977285986" lon="19.707250472970248"><ele>240.0</ele><time>2026-05-03T10:07:56Z</time></trkpt><trkpt lat="42.19759320472966" lon="19.707193329095663"><ele>245.0</ele><time>2026-05-03T10:07:57Z</time></trkpt><trkpt lat="42.197708183673655" lon="19.707134390085763"><ele>250.0</ele><time>2026-05-03T10:07:58Z</time></trkpt><trkpt lat="42.197846566123644" lon="19.707100479696848"><ele>255.0</ele><time>2026-05-03T10:07:59Z</time></trkpt><trkpt lat="42.19798775320545" lon="19.707086171162903"><ele>260.0</ele><time>2026-05-03T10:08:00Z</time></trkpt><trkpt lat="42.198137944940385" lon="19.70707068231095"><ele>255.25</ele><time>2026-05-03T10:08:01Z</time></trkpt><trkpt lat="42.198260449392386" lon="19.707044453063858"><ele>250.5</ele><time>2026-05-03T10:08:02Z</time></trkpt><trkpt lat="42.19836746019416" lon="19.70699923364636"><ele>245.75</ele><time>2026-05-03T10:08:03Z</time></trkpt><trkpt lat="42.1984747173434" lon="19.706949793099813"><ele>241.0</ele><time>2026-05-03T10:08:04Z</time></trkpt><trkpt lat="42.19858633698249" lon="19.70689890251937"><ele>241.0</ele><time>2026-05-03T10:08:05Z</time></trkpt><trkpt lat="42.19865937463111" lon="19.70685119964259"><ele>241.0</ele><time>2026-05-03T10:08:06Z</time></trkpt><trkpt lat="42.198809125104965" lon="19.70684593383292"><ele>241.0</ele><time>2026-05-03T10:08:08Z</time></trkpt><trkpt lat="42.198918243813104" lon="19.706875648238693"><ele>241.0</ele><time>2026-05-03T10:08:09Z</time></trkpt><trkpt lat="42.19903450645969" lon="19.706878917995382"><ele>241.16666666666666</ele><time>2026-05-03T10:08:10Z</time></trkpt><trkpt lat="42.19912713055772" lon="19.706872961727054"><ele>241.33333333333331</ele><time>2026-05-03T10:08:11Z</time></trkpt><trkpt lat="42.19921380894664" lon="19.706842126461797"><ele>241.5</ele><time>2026-05-03T10:08:12Z</time></trkpt><trkpt lat="42.19926893987783" lon="19.706783838458847"><ele>241.66666666666669</ele><time>2026-05-03T10:08:13Z</time></trkpt><trkpt lat="42.19931419561992" lon="19.7066877587259"><ele>241.83333333333334</ele><time>2026-05-03T10:08:14Z</time></trkpt><trkpt lat="42.1993676140321" lon="19.706577342892118"><ele>242.0</ele><time>2026-05-03T10:08:15Z</time></trkpt><trkpt lat="42.199459816125994" lon="19.706486619972594"><ele>242.0</ele><time>2026-05-03T10:08:16Z</time></trkpt><trkpt lat="42.19956667236834" lon="19.706406100152805"><ele>242.0</ele><time>2026-05-03T10:08:17Z</time></trkpt><trkpt lat="42.1996754505254" lon="19.706320940355155"><ele>242.0</ele><time>2026-05-03T10:08:18Z</time></trkpt><trkpt lat="42.19978626565626" lon="19.706237333904813"><ele>242.0</ele><time>2026-05-03T10:08:19Z</time></trkpt><trkpt lat="42.19990618969325" lon="19.70615578394843"><ele>244.75</ele><time>2026-05-03T10:08:20Z</time></trkpt><trkpt lat="42.20003932892142" lon="19.706090720951014"><ele>247.5</ele><time>2026-05-03T10:08:21Z</time></trkpt><trkpt lat="42.20017060108409" lon="19.70603285988792"><ele>250.25</ele><time>2026-05-03T10:08:22Z</time></trkpt><trkpt lat="42.20028465240074" lon="19.70601081547887"><ele>253.0</ele><time>2026-05-03T10:08:23Z</time></trkpt><trkpt lat="42.200380693696665" lon="19.706002530131897"><ele>253.0</ele><time>2026-05-03T10:08:24Z</time></trkpt><trkpt lat="42.20048207340533" lon="19.70601930229046"><ele>253.0</ele><time>2026-05-03T10:08:25Z</time></trkpt><trkpt lat="42.20058666219751" lon="19.706079031433088"><ele>253.0</ele><time>2026-05-03T10:08:26Z</time></trkpt><trkpt lat="42.20069735514128" lon="19.70615523296257"><ele>253.0</ele><time>2026-05-03T10:08:27Z</time></trkpt><trkpt lat="42.20078299769439" lon="19.706214913591662"><ele>253.0</ele><time>2026-05-03T10:08:28Z</time></trkpt><trkpt lat="42.20084355067837" lon="19.706268737460885"><ele>259.5</ele><time>2026-05-03T10:08:29Z</time></trkpt><trkpt lat="42.200888400961304" lon="19.70633075065806"><ele>266.0</ele><time>2026-05-03T10:08:30Z</time></trkpt><trkpt lat="42.200946336251974" lon="19.7064100716178"><ele>272.5</ele><time>2026-05-03T10:08:31Z</time></trkpt><trkpt lat="42.20101244898641" lon="19.70644816109"><ele>279.0</ele><time>2026-05-03T10:08:32Z</time></trkpt><trkpt lat="42.2010868290299" lon="19.70646424976741"><ele>285.5</ele><time>2026-05-03T10:08:33Z</time></trkpt><trkpt lat="42.201161703820546" lon="19.706434591085625"><ele>292.0</ele><time>2026-05-03T10:08:34Z</time></trkpt><trkpt lat="42.20125529661618" lon="19.706399307745208"><ele>292.0</ele><time>2026-05-03T10:08:35Z</time></trkpt><trkpt lat="42.2013513567582" lon="19.706373118896767"><ele>292.0</ele><time>2026-05-03T10:08:36Z</time></trkpt><trkpt lat="42.20145759965216" lon="19.70637202659096"><ele>292.0</ele><time>2026-05-03T10:08:37Z</time></trkpt><trkpt lat="42.20157945073523" lon="19.706385966468723"><ele>292.0</ele><time>2026-05-03T10:08:38Z</time></trkpt><trkpt lat="42.20168888062701" lon="19.706381316953514"><ele>292.0</ele><time>2026-05-03T10:08:39Z</time></trkpt><trkpt lat="42.20177331374795" lon="19.70640567266013"><ele>290.3333333333333</ele><time>2026-05-03T10:08:40Z</time></trkpt><trkpt lat="42.201839941094484" lon="19.70644169048728"><ele>288.66666666666663</ele><time>2026-05-03T10:08:41Z</time></trkpt><trkpt lat="42.201912494043526" lon="19.706444365169663"><ele>287.0</ele><time>2026-05-03T10:08:42Z</time></trkpt><trkpt lat="42.20197383057513" lon="19.706395415362564"><ele>285.3333333333333</ele><time>2026-05-03T10:08:43Z</time></trkpt><trkpt lat="42.20203418673781" lon="19.706314054169805"><ele>283.6666666666667</ele><time>2026-05-03T10:08:44Z</time></trkpt><trkpt lat="42.202105214286405" lon="19.706239343751296"><ele>282.0</ele><time>2026-05-03T10:08:45Z</time></trkpt><trkpt lat="42.20218300623096" lon="19.706198266402343"><ele>282.0</ele><time>2026-05-03T10:08:46Z</time></trkpt><trkpt lat="42.20225720129145" lon="19.706172270999673"><ele>282.0</ele><time>2026-05-03T10:08:47Z</time></trkpt><trkpt lat="42.202321881070134" lon="19.70615078033382"><ele>282.0</ele><time>2026-05-03T10:08:48Z</time></trkpt><trkpt lat="42.20239511311023" lon="19.706161411305096"><ele>282.0</ele><time>2026-05-03T10:08:49Z</time></trkpt><trkpt lat="42.20247178774002" lon="19.706203074055733"><ele>282.0</ele><time>2026-05-03T10:08:50Z</time></trkpt><trkpt lat="42.202515703876934" lon="19.70626999900346"><ele>282.0</ele><time>2026-05-03T10:08:51Z</time></trkpt><trkpt lat="42.20257522937321" lon="19.706362451250534"><ele>282.3333333333333</ele><time>2026-05-03T10:08:52Z</time></trkpt><trkpt lat="42.20262623198497" lon="19.706413961878575"><ele>282.6666666666667</ele><time>2026-05-03T10:08:53Z</time></trkpt><trkpt lat="42.20272729297993" lon="19.706384792441025"><ele>283.0</ele><time>2026-05-03T10:08:55Z</time></trkpt><trkpt lat="42.2027743640694" lon="19.706320012041296"><ele>283.33333333333337</ele><time>2026-05-03T10:08:56Z</time></trkpt><trkpt lat="42.20282580713414" lon="19.706236050667293"><ele>283.6666666666667</ele><time>2026-05-03T10:08:57Z</time></trkpt><trkpt lat="42.20288343724561" lon="19.706179718818433"><ele>284.0</ele><time>2026-05-03T10:08:58Z</time></trkpt><trkpt lat="42.2029572993515" lon="19.706149629593728"><ele>284.0</ele><time>2026-05-03T10:08:59Z</time></trkpt><trkpt lat="42.20305019956096" lon="19.70613544528971"><ele>284.0</ele><time>2026-05-03T10:09:00Z</time></trkpt><trkpt lat="42.203133751475164" lon="19.706110208691292"><ele>284.0</ele><time>2026-05-03T10:09:01Z</time></trkpt><trkpt lat="42.203217234731106" lon="19.706079255939105"><ele>284.0</ele><time>2026-05-03T10:09:02Z</time></trkpt><trkpt lat="42.20329894093754" lon="19.706054542159062"><ele>284.0</ele><time>2026-05-03T10:09:03Z</time></trkpt><trkpt lat="42.203398439303776" lon="19.70600133270834"><ele>282.2</ele><time>2026-05-03T10:09:04Z</time></trkpt><trkpt lat="42.20350317786102" lon="19.705936394894195"><ele>280.4</ele><time>2026-05-03T10:09:05Z</time></trkpt><trkpt lat="42.20358653044666" lon="19.705854942725065"><ele>278.6</ele><time>2026-05-03T10:09:06Z</time></trkpt><trkpt lat="42.20366775996041" lon="19.70577886286163"><ele>276.8</ele><time>2026-05-03T10:09:07Z</time></trkpt><trkpt lat="42.20373551706315" lon="19.705717475781036"><ele>275.0</ele><time>2026-05-03T10:09:08Z</time></trkpt><trkpt lat="42.20379023772906" lon="19.705627179091998"><ele>275.0</ele><time>2026-05-03T10:09:09Z</time></trkpt><trkpt lat="42.203843489123116" lon="19.705507127121535"><ele>275.0</ele><time>2026-05-03T10:09:10Z</time></trkpt><trkpt lat="42.20388731120687" lon="19.70539072344952"><ele>275.0</ele><time>2026-05-03T10:09:11Z</time></trkpt><trkpt lat="42.203943430831096" lon="19.70529059693525"><ele>275.0</ele><time>2026-05-03T10:09:12Z</time></trkpt><trkpt lat="42.204012222339166" lon="19.70518731868431"><ele>275.0</ele><time>2026-05-03T10:09:13Z</time></trkpt><trkpt lat="42.20407871137588" lon="19.70511906925942"><ele>273.1666666666667</ele><time>2026-05-03T10:09:14Z</time></trkpt><trkpt lat="42.2041326838064" lon="19.705060810960934"><ele>271.33333333333337</ele><time>2026-05-03T10:09:15Z</time></trkpt><trkpt lat="42.20416840655058" lon="19.704981835394857"><ele>269.5</ele><time>2026-05-03T10:09:16Z</time></trkpt><trkpt lat="42.204233532444135" lon="19.70485401915485"><ele>267.6666666666667</ele><time>2026-05-03T10:09:18Z</time></trkpt><trkpt lat="42.204295940695864" lon="19.704795796562397"><ele>265.8333333333333</ele><time>2026-05-03T10:09:19Z</time></trkpt><trkpt lat="42.20436811727098" lon="19.70477900482819"><ele>264.0</ele><time>2026-05-03T10:09:20Z</time></trkpt><trkpt lat="42.204439934382265" lon="19.704776096434085"><ele>264.0</ele><time>2026-05-03T10:09:21Z</time></trkpt><trkpt lat="42.204515517510565" lon="19.70485016162734"><ele>264.0</ele><time>2026-05-03T10:09:23Z</time></trkpt><trkpt lat="42.204563111532266" lon="19.705018710612293"><ele>264.0</ele><time>2026-05-03T10:09:24.999Z</time></trkpt><trkpt lat="42.20460193764841" lon="19.70512203906515"><ele>264.0</ele><time>2026-05-03T10:09:25.999Z</time></trkpt><trkpt lat="42.20465989661871" lon="19.70521375005368"><ele>264.0</ele><time>2026-05-03T10:09:26.999Z</time></trkpt><trkpt lat="42.20470268772129" lon="19.705285847988804"><ele>269.6666666666667</ele><time>2026-05-03T10:09:27.999Z</time></trkpt><trkpt lat="42.20475549808561" lon="19.705346703693287"><ele>275.3333333333333</ele><time>2026-05-03T10:09:28.999Z</time></trkpt><trkpt lat="42.204829043743054" lon="19.705396826738227"><ele>281.0</ele><time>2026-05-03T10:09:29.999Z</time></trkpt><trkpt lat="42.204911321968204" lon="19.70544410429582"><ele>286.66666666666663</ele><time>2026-05-03T10:09:30.999Z</time></trkpt><trkpt lat="42.204999971481904" lon="19.705476739802485"><ele>292.3333333333333</ele><time>2026-05-03T10:09:31.999Z</time></trkpt><trkpt lat="42.20507482435186" lon="19.705474264470688"><ele>298.0</ele><time>2026-05-03T10:09:32.999Z</time></trkpt><trkpt lat="42.20514963224958" lon="19.705477077176532"><ele>298.0</ele><time>2026-05-03T10:09:33.999Z</time></trkpt><trkpt lat="42.20521717102745" lon="19.7055146382713"><ele>298.0</ele><time>2026-05-03T10:09:34.999Z</time></trkpt><trkpt lat="42.205279563622895" lon="19.70564717622059"><ele>298.0</ele><time>2026-05-03T10:09:36.999Z</time></trkpt><trkpt lat="42.205375582664104" lon="19.705716411690755"><ele>298.0</ele><time>2026-05-03T10:09:38.999Z</time></trkpt><trkpt lat="42.20545282961025" lon="19.70569190330295"><ele>298.0</ele><time>2026-05-03T10:09:39.999Z</time></trkpt><trkpt lat="42.20555039684103" lon="19.705667096407886"><ele>298.0</ele><time>2026-05-03T10:09:40.999Z</time></trkpt><trkpt lat="42.2056493759059" lon="19.705663310626164"><ele>298.0</ele><time>2026-05-03T10:09:41.999Z</time></trkpt><trkpt lat="42.205743537569816" lon="19.705657960652857"><ele>298.0</ele><time>2026-05-03T10:09:42.999Z</time></trkpt><trkpt lat="42.20582010899579" lon="19.705649086072146"><ele>298.0</ele><time>2026-05-03T10:09:43.999Z</time></trkpt><trkpt lat="42.20587841155579" lon="19.705703789325124"><ele>298.0</ele><time>2026-05-03T10:09:45.999Z</time></trkpt><trkpt lat="42.20593873211461" lon="19.70583715047779"><ele>298.2</ele><time>2026-05-03T10:09:47.999Z</time></trkpt><trkpt lat="42.205956328333876" lon="19.70594511141939"><ele>298.4</ele><time>2026-05-03T10:09:49Z</time></trkpt><trkpt lat="42.20596247112205" lon="19.70606064057751"><ele>298.59999999999997</ele><time>2026-05-03T10:09:50Z</time></trkpt><trkpt lat="42.20596528532555" lon="19.706201125975344"><ele>298.8</ele><time>2026-05-03T10:09:51Z</time></trkpt><trkpt lat="42.20598011434376" lon="19.706332668265276"><ele>299.0</ele><time>2026-05-03T10:09:52Z</time></trkpt><trkpt lat="42.20600459176111" lon="19.7064507258987"><ele>304.1666666666667</ele><time>2026-05-03T10:09:53Z</time></trkpt><trkpt lat="42.20603878558525" lon="19.706536737189335"><ele>309.33333333333337</ele><time>2026-05-03T10:09:54Z</time></trkpt><trkpt lat="42.206149586630985" lon="19.706633825897615"><ele>314.5</ele><time>2026-05-03T10:09:56Z</time></trkpt><trkpt lat="42.206235193086634" lon="19.70667426891944"><ele>319.6666666666667</ele><time>2026-05-03T10:09:57Z</time></trkpt><trkpt lat="42.206308799707415" lon="19.706728214511326"><ele>324.8333333333333</ele><time>2026-05-03T10:09:58Z</time></trkpt><trkpt lat="42.20635323636602" lon="19.70678943699268"><ele>330.0</ele><time>2026-05-03T10:09:59Z</time></trkpt><trkpt lat="42.20639765333259" lon="19.706892173980076"><ele>334.0</ele><time>2026-05-03T10:10:00Z</time></trkpt><trkpt lat="42.206442770975734" lon="19.707027342684707"><ele>338.0</ele><time>2026-05-03T10:10:01Z</time></trkpt><trkpt lat="42.206484486695054" lon="19.70716838090224"><ele>342.0</ele><time>2026-05-03T10:10:02Z</time></trkpt><trkpt lat="42.206520123168836" lon="19.707284757091752"><ele>346.0</ele><time>2026-05-03T10:10:03Z</time></trkpt><trkpt lat="42.20658139633208" lon="19.707388704058108"><ele>350.0</ele><time>2026-05-03T10:10:04Z</time></trkpt><trkpt lat="42.20664881461175" lon="19.70748941462619"><ele>346.6666666666667</ele><time>2026-05-03T10:10:05Z</time></trkpt><trkpt lat="42.206695347207734" lon="19.70761065144901"><ele>343.33333333333337</ele><time>2026-05-03T10:10:06Z</time></trkpt><trkpt lat="42.20672875875125" lon="19.707711460145624"><ele>340.0</ele><time>2026-05-03T10:10:07Z</time></trkpt><trkpt lat="42.20677655859151" lon="19.707800329040133"><ele>336.6666666666667</ele><time>2026-05-03T10:10:08Z</time></trkpt><trkpt lat="42.20684384480696" lon="19.707864682432206"><ele>333.3333333333333</ele><time>2026-05-03T10:10:09Z</time></trkpt><trkpt lat="42.20690884461051" lon="19.707938041030456"><ele>330.0</ele><time>2026-05-03T10:10:10Z</time></trkpt><trkpt lat="42.2069543409371" lon="19.70802276154227"><ele>330.0</ele><time>2026-05-03T10:10:11Z</time></trkpt><trkpt lat="42.206985239907176" lon="19.708129516581394"><ele>330.0</ele><time>2026-05-03T10:10:12Z</time></trkpt><trkpt lat="42.20700610580125" lon="19.708242386131207"><ele>330.0</ele><time>2026-05-03T10:10:13Z</time></trkpt><trkpt lat="42.207013939489755" lon="19.708360942143173"><ele>330.0</ele><time>2026-05-03T10:10:14Z</time></trkpt><trkpt lat="42.20702261537246" lon="19.708483719468617"><ele>330.0</ele><time>2026-05-03T10:10:15Z</time></trkpt><trkpt lat="42.20701243067908" lon="19.70860467487363"><ele>330.0</ele><time>2026-05-03T10:10:16Z</time></trkpt><trkpt lat="42.20699032585037" lon="19.708732597066064"><ele>332.0</ele><time>2026-05-03T10:10:17Z</time></trkpt><trkpt lat="42.20697274216023" lon="19.70886072139558"><ele>334.0</ele><time>2026-05-03T10:10:18Z</time></trkpt><trkpt lat="42.20696725341328" lon="19.708958249040528"><ele>336.0</ele><time>2026-05-03T10:10:19Z</time></trkpt><trkpt lat="42.20697096439921" lon="19.709053316855908"><ele>338.0</ele><time>2026-05-03T10:10:20Z</time></trkpt><trkpt lat="42.20701405575737" lon="19.709162422748154"><ele>340.0</ele><time>2026-05-03T10:10:22Z</time></trkpt><trkpt lat="42.20711661828141" lon="19.70918682520831"><ele>342.0</ele><time>2026-05-03T10:10:24Z</time></trkpt><trkpt lat="42.20718276082837" lon="19.70915288441121"><ele>342.0</ele><time>2026-05-03T10:10:25Z</time></trkpt><trkpt lat="42.20727712451158" lon="19.70908303167649"><ele>342.0</ele><time>2026-05-03T10:10:26Z</time></trkpt><trkpt lat="42.20734622952495" lon="19.709006099200572"><ele>342.0</ele><time>2026-05-03T10:10:27Z</time></trkpt><trkpt lat="42.20741284746879" lon="19.708910820912763"><ele>342.0</ele><time>2026-05-03T10:10:28Z</time></trkpt><trkpt lat="42.20747043211308" lon="19.70880758768811"><ele>342.0</ele><time>2026-05-03T10:10:29Z</time></trkpt><trkpt lat="42.20753354418879" lon="19.70876704446906"><ele>338.0</ele><time>2026-05-03T10:10:30Z</time></trkpt><trkpt lat="42.20760330047164" lon="19.7087492233908"><ele>334.0</ele><time>2026-05-03T10:10:31Z</time></trkpt><trkpt lat="42.207722855429964" lon="19.7087239247888"><ele>330.0</ele><time>2026-05-03T10:10:33Z</time></trkpt><trkpt lat="42.207822633742744" lon="19.708608898292965"><ele>326.0</ele><time>2026-05-03T10:10:35Z</time></trkpt><trkpt lat="42.20788466289248" lon="19.708497849896023"><ele>322.0</ele><time>2026-05-03T10:10:36Z</time></trkpt><trkpt lat="42.20793403179462" lon="19.70838283518199"><ele>321.40000000000003</ele><time>2026-05-03T10:10:37Z</time></trkpt><trkpt lat="42.207960229935836" lon="19.708298920517795"><ele>320.8</ele><time>2026-05-03T10:10:38Z</time></trkpt><trkpt lat="42.20805163324299" lon="19.70814180777821"><ele>320.2</ele><time>2026-05-03T10:10:40Z</time></trkpt><trkpt lat="42.20811911032532" lon="19.70805160780601"><ele>319.6</ele><time>2026-05-03T10:10:41Z</time></trkpt><trkpt lat="42.208187012653" lon="19.707972722947748"><ele>319.0</ele><time>2026-05-03T10:10:42Z</time></trkpt><trkpt lat="42.20825710171892" lon="19.707917688842898"><ele>319.0</ele><time>2026-05-03T10:10:43Z</time></trkpt><trkpt lat="42.208330413404134" lon="19.707893904165015"><ele>319.0</ele><time>2026-05-03T10:10:44Z</time></trkpt><trkpt lat="42.208420870056536" lon="19.70787609261942"><ele>319.0</ele><time>2026-05-03T10:10:45Z</time></trkpt><trkpt lat="42.208505639921064" lon="19.70785051166176"><ele>319.0</ele><time>2026-05-03T10:10:46Z</time></trkpt><trkpt lat="42.208581815186676" lon="19.707805093083408"><ele>319.0</ele><time>2026-05-03T10:10:47Z</time></trkpt><trkpt lat="42.20865594967835" lon="19.707730660042387"><ele>319.0</ele><time>2026-05-03T10:10:48Z</time></trkpt><trkpt lat="42.20871481617843" lon="19.707654741585834"><ele>316.66666666666663</ele><time>2026-05-03T10:10:49Z</time></trkpt><trkpt lat="42.208781571720024" lon="19.707557262438982"><ele>314.3333333333333</ele><time>2026-05-03T10:10:50Z</time></trkpt><trkpt lat="42.20882318724551" lon="19.707477345207995"><ele>312.0</ele><time>2026-05-03T10:10:51Z</time></trkpt><trkpt lat="42.20888343452876" lon="19.707391159420684"><ele>309.6666666666667</ele><time>2026-05-03T10:10:52Z</time></trkpt><trkpt lat="42.20893244601682" lon="19.707308409090007"><ele>307.33333333333337</ele><time>2026-05-03T10:10:53Z</time></trkpt><trkpt lat="42.20899246347769" lon="19.707243641827137"><ele>305.0</ele><time>2026-05-03T10:10:54Z</time></trkpt><trkpt lat="42.209044929844474" lon="19.707194504217604"><ele>305.0</ele><time>2026-05-03T10:10:55Z</time></trkpt><trkpt lat="42.209106163133036" lon="19.707150948992098"><ele>305.0</ele><time>2026-05-03T10:10:56Z</time></trkpt><trkpt lat="42.20916841876861" lon="19.707134714335293"><ele>305.0</ele><time>2026-05-03T10:10:56.999Z</time></trkpt><trkpt lat="42.20924210287858" lon="19.70716893136643"><ele>305.0</ele><time>2026-05-03T10:10:57.999Z</time></trkpt><trkpt lat="42.20933419103546" lon="19.707226994471593"><ele>305.0</ele><time>2026-05-03T10:10:58.999Z</time></trkpt><trkpt lat="42.209397709007646" lon="19.707313110112082"><ele>305.0</ele><time>2026-05-03T10:10:59.999Z</time></trkpt><trkpt lat="42.209474825632114" lon="19.70739058075005"><ele>305.0</ele><time>2026-05-03T10:11:00.999Z</time></trkpt><trkpt lat="42.20955802541738" lon="19.707482308748336"><ele>305.0</ele><time>2026-05-03T10:11:01.999Z</time></trkpt><trkpt lat="42.20962244603801" lon="19.707576404941722"><ele>305.0</ele><time>2026-05-03T10:11:02.999Z</time></trkpt><trkpt lat="42.20967117870556" lon="19.707637127621776"><ele>305.0</ele><time>2026-05-03T10:11:03.999Z</time></trkpt><trkpt lat="42.20974412404037" lon="19.707655980626416"><ele>305.0</ele><time>2026-05-03T10:11:05.999Z</time></trkpt><trkpt lat="42.20985438294799" lon="19.70760475155804"><ele>302.0</ele><time>2026-05-03T10:11:07.999Z</time></trkpt><trkpt lat="42.20995310649789" lon="19.707606433399103"><ele>299.0</ele><time>2026-05-03T10:11:08.999Z</time></trkpt><trkpt lat="42.21001454357641" lon="19.707629915153202"><ele>296.0</ele><time>2026-05-03T10:11:09.999Z</time></trkpt><trkpt lat="42.210064134774825" lon="19.707695348909976"><ele>293.0</ele><time>2026-05-03T10:11:10.999Z</time></trkpt><trkpt lat="42.21013120420076" lon="19.7077881515281"><ele>290.0</ele><time>2026-05-03T10:11:11.999Z</time></trkpt><trkpt lat="42.21020904281302" lon="19.707854089095925"><ele>287.0</ele><time>2026-05-03T10:11:12.999Z</time></trkpt><trkpt lat="42.210298604188644" lon="19.7078990014605"><ele>295.0</ele><time>2026-05-03T10:11:13.999Z</time></trkpt><trkpt lat="42.21037873579518" lon="19.7079109773587"><ele>303.0</ele><time>2026-05-03T10:11:14.999Z</time></trkpt><trkpt lat="42.21047840352614" lon="19.708047634891464"><ele>311.0</ele><time>2026-05-03T10:11:16.999Z</time></trkpt><trkpt lat="42.21054671128339" lon="19.708127747127524"><ele>319.0</ele><time>2026-05-03T10:11:17.999Z</time></trkpt><trkpt lat="42.2106175240298" lon="19.708146220293337"><ele>327.0</ele><time>2026-05-03T10:11:18.999Z</time></trkpt><trkpt lat="42.21069203374826" lon="19.708118178047574"><ele>327.0</ele><time>2026-05-03T10:11:19.999Z</time></trkpt><trkpt lat="42.21076226901294" lon="19.70805584930812"><ele>327.0</ele><time>2026-05-03T10:11:20.999Z</time></trkpt><trkpt lat="42.21082082017852" lon="19.70797908560982"><ele>327.0</ele><time>2026-05-03T10:11:21.999Z</time></trkpt><trkpt lat="42.210923182442166" lon="19.70802901533588"><ele>327.0</ele><time>2026-05-03T10:11:24.999Z</time></trkpt><trkpt lat="42.21097018831235" lon="19.70812870794985"><ele>327.0</ele><time>2026-05-03T10:11:25.999Z</time></trkpt><trkpt lat="42.21102206359967" lon="19.708245880114177"><ele>327.0</ele><time>2026-05-03T10:11:26.999Z</time></trkpt><trkpt lat="42.21109363184074" lon="19.708323683864933"><ele>327.0</ele><time>2026-05-03T10:11:27.999Z</time></trkpt><trkpt lat="42.21117973722213" lon="19.70836510249854"><ele>327.0</ele><time>2026-05-03T10:11:28.999Z</time></trkpt><trkpt lat="42.21127211570646" lon="19.708387775491897"><ele>327.0</ele><time>2026-05-03T10:11:29.999Z</time></trkpt><trkpt lat="42.211342341552566" lon="19.70839182749517"><ele>327.0</ele><time>2026-05-03T10:11:30.999Z</time></trkpt><trkpt lat="42.21140456046893" lon="19.70836210606852"><ele>327.0</ele><time>2026-05-03T10:11:32.999Z</time></trkpt><trkpt lat="42.21144794453473" lon="19.708232758008325"><ele>327.0</ele><time>2026-05-03T10:11:35.999Z</time></trkpt><trkpt lat="42.21137805669436" lon="19.708068337391953"><ele>327.0</ele><time>2026-05-03T10:11:37.999Z</time></trkpt><trkpt lat="42.211359327656716" lon="19.707978806512898"><ele>327.0</ele><time>2026-05-03T10:11:38.999Z</time></trkpt><trkpt lat="42.211375069096675" lon="19.70786789765215"><ele>327.0</ele><time>2026-05-03T10:11:39.999Z</time></trkpt><trkpt lat="42.21141932459822" lon="19.707773526927582"><ele>327.0</ele><time>2026-05-03T10:11:40.999Z</time></trkpt><trkpt lat="42.21148121080034" lon="19.707707117961778"><ele>324.0</ele><time>2026-05-03T10:11:41.999Z</time></trkpt><trkpt lat="42.21156204174478" lon="19.707665845528933"><ele>321.0</ele><time>2026-05-03T10:11:42.999Z</time></trkpt><trkpt lat="42.21161139199273" lon="19.707543960570888"><ele>318.0</ele><time>2026-05-03T10:11:44.999Z</time></trkpt><trkpt lat="42.21158862622225" lon="19.707437993297766"><ele>315.0</ele><time>2026-05-03T10:11:45.999Z</time></trkpt><trkpt lat="42.21156647304751" lon="19.70731234351014"><ele>312.0</ele><time>2026-05-03T10:11:46.999Z</time></trkpt><trkpt lat="42.21156831178" lon="19.707190989914423"><ele>312.0</ele><time>2026-05-03T10:11:47.999Z</time></trkpt><trkpt lat="42.2115936006683" lon="19.70709446634853"><ele>312.0</ele><time>2026-05-03T10:11:48.998Z</time></trkpt><trkpt lat="42.21164929840613" lon="19.70698966549226"><ele>312.0</ele><time>2026-05-03T10:11:49.998Z</time></trkpt><trkpt lat="42.21172937816628" lon="19.706867472132735"><ele>312.0</ele><time>2026-05-03T10:11:50.998Z</time></trkpt><trkpt lat="42.2118101909883" lon="19.7067391250949"><ele>312.0</ele><time>2026-05-03T10:11:51.998Z</time></trkpt><trkpt lat="42.21186661795182" lon="19.706578776182226"><ele>308.1666666666667</ele><time>2026-05-03T10:11:52.998Z</time></trkpt><trkpt lat="42.211898967799236" lon="19.70644760205031"><ele>304.3333333333333</ele><time>2026-05-03T10:11:53.998Z</time></trkpt><trkpt lat="42.21193205048188" lon="19.70633520126863"><ele>300.5</ele><time>2026-05-03T10:11:55Z</time></trkpt><trkpt lat="42.21195310926406" lon="19.706221631659414"><ele>296.66666666666663</ele><time>2026-05-03T10:11:56Z</time></trkpt><trkpt lat="42.211951250837394" lon="19.706116419504887"><ele>292.8333333333333</ele><time>2026-05-03T10:11:57Z</time></trkpt><trkpt lat="42.21194066121826" lon="19.70602378509221"><ele>289.0</ele><time>2026-05-03T10:11:58Z</time></trkpt><trkpt lat="42.21193579869241" lon="19.705888717059622"><ele>287.25</ele><time>2026-05-03T10:11:59Z</time></trkpt><trkpt lat="42.21194207627886" lon="19.705747359483457"><ele>285.5</ele><time>2026-05-03T10:12:00Z</time></trkpt><trkpt lat="42.21196664072105" lon="19.70557750528818"><ele>283.75</ele><time>2026-05-03T10:12:01Z</time></trkpt><trkpt lat="42.211995944190924" lon="19.705408906079768"><ele>282.0</ele><time>2026-05-03T10:12:02Z</time></trkpt><trkpt lat="42.21201947831069" lon="19.70524050288801"><ele>280.75</ele><time>2026-05-03T10:12:03Z</time></trkpt><trkpt lat="42.21202922435793" lon="19.70505217336979"><ele>279.5</ele><time>2026-05-03T10:12:04Z</time></trkpt><trkpt lat="42.212044464889225" lon="19.704864871404432"><ele>278.25</ele><time>2026-05-03T10:12:05Z</time></trkpt><trkpt lat="42.21205776127153" lon="19.70469730531849"><ele>277.0</ele><time>2026-05-03T10:12:06Z</time></trkpt><trkpt lat="42.212066372244635" lon="19.70455500661038"><ele>276.0</ele><time>2026-05-03T10:12:07Z</time></trkpt><trkpt lat="42.212073068154226" lon="19.704400045144578"><ele>275.0</ele><time>2026-05-03T10:12:08Z</time></trkpt><trkpt lat="42.21208512878084" lon="19.70424349347853"><ele>274.0</ele><time>2026-05-03T10:12:09Z</time></trkpt><trkpt lat="42.21209312208514" lon="19.70406888682476"><ele>273.0</ele><time>2026-05-03T10:12:10Z</time></trkpt><trkpt lat="42.21208921681457" lon="19.70392426231097"><ele>273.0</ele><time>2026-05-03T10:12:11Z</time></trkpt><trkpt lat="42.21209252475833" lon="19.703774838342266"><ele>273.0</ele><time>2026-05-03T10:12:12Z</time></trkpt><trkpt lat="42.21210344729133" lon="19.703633140188174"><ele>273.0</ele><time>2026-05-03T10:12:13Z</time></trkpt><trkpt lat="42.2121216499225" lon="19.703496332349108"><ele>273.0</ele><time>2026-05-03T10:12:14Z</time></trkpt><trkpt lat="42.21213966166061" lon="19.70339043976604"><ele>273.0</ele><time>2026-05-03T10:12:15Z</time></trkpt><trkpt lat="42.212194634910304" lon="19.703275253614986"><ele>273.4</ele><time>2026-05-03T10:12:17Z</time></trkpt><trkpt lat="42.2123208823254" lon="19.703306834957477"><ele>273.8</ele><time>2026-05-03T10:12:19Z</time></trkpt><trkpt lat="42.212392961652796" lon="19.703365889142226"><ele>274.2</ele><time>2026-05-03T10:12:20Z</time></trkpt><trkpt lat="42.21247339372079" lon="19.703456552364724"><ele>274.6</ele><time>2026-05-03T10:12:21Z</time></trkpt><trkpt lat="42.212570850782164" lon="19.7034984508324"><ele>275.0</ele><time>2026-05-03T10:12:22Z</time></trkpt><trkpt lat="42.212667037275374" lon="19.70349514206516"><ele>275.0</ele><time>2026-05-03T10:12:23Z</time></trkpt><trkpt lat="42.21276800056175" lon="19.703512080769976"><ele>275.0</ele><time>2026-05-03T10:12:24Z</time></trkpt><trkpt lat="42.21285434519861" lon="19.703561695444684"><ele>275.0</ele><time>2026-05-03T10:12:25Z</time></trkpt><trkpt lat="42.21294220908662" lon="19.703633350785626"><ele>275.0</ele><time>2026-05-03T10:12:26Z</time></trkpt><trkpt lat="42.2130050789079" lon="19.70367528629937"><ele>275.0</ele><time>2026-05-03T10:12:27Z</time></trkpt><trkpt lat="42.21307065517655" lon="19.703679918520088"><ele>275.0</ele><time>2026-05-03T10:12:28Z</time></trkpt><trkpt lat="42.21317625043668" lon="19.703623826475084"><ele>284.83333333333337</ele><time>2026-05-03T10:12:30Z</time></trkpt><trkpt lat="42.21325017478671" lon="19.70360164241249"><ele>294.6666666666667</ele><time>2026-05-03T10:12:31Z</time></trkpt><trkpt lat="42.21333496135929" lon="19.70361384705011"><ele>304.5</ele><time>2026-05-03T10:12:32Z</time></trkpt><trkpt lat="42.2134054284789" lon="19.703670596278645"><ele>314.3333333333333</ele><time>2026-05-03T10:12:33Z</time></trkpt><trkpt lat="42.21345420895559" lon="19.703733844617865"><ele>324.16666666666663</ele><time>2026-05-03T10:12:34Z</time></trkpt><trkpt lat="42.21347989817423" lon="19.703818206549393"><ele>334.0</ele><time>2026-05-03T10:12:34.999Z</time></trkpt><trkpt lat="42.21348714965695" lon="19.70392949575534"><ele>334.0</ele><time>2026-05-03T10:12:35.999Z</time></trkpt><trkpt lat="42.21350087883767" lon="19.704040116526812"><ele>334.0</ele><time>2026-05-03T10:12:36.999Z</time></trkpt><trkpt lat="42.21352863660716" lon="19.70415979515363"><ele>334.0</ele><time>2026-05-03T10:12:37.999Z</time></trkpt><trkpt lat="42.21358174955493" lon="19.704231575861233"><ele>334.0</ele><time>2026-05-03T10:12:38.999Z</time></trkpt><trkpt lat="42.21363830666186" lon="19.704302177381336"><ele>334.0</ele><time>2026-05-03T10:12:39.999Z</time></trkpt><trkpt lat="42.213675603995625" lon="19.70440535421345"><ele>334.0</ele><time>2026-05-03T10:12:40.999Z</time></trkpt><trkpt lat="42.21371179903735" lon="19.70452457057498"><ele>333.2</ele><time>2026-05-03T10:12:41.999Z</time></trkpt><trkpt lat="42.21375955380945" lon="19.704636662213026"><ele>332.4</ele><time>2026-05-03T10:12:42.999Z</time></trkpt><trkpt lat="42.21384245376237" lon="19.704726221958186"><ele>331.6</ele><time>2026-05-03T10:12:43.999Z</time></trkpt><trkpt lat="42.21393714894683" lon="19.704810083385308"><ele>330.8</ele><time>2026-05-03T10:12:44.999Z</time></trkpt><trkpt lat="42.21401267453905" lon="19.704879334995955"><ele>330.0</ele><time>2026-05-03T10:12:45.999Z</time></trkpt><trkpt lat="42.21408144457588" lon="19.705026056991844"><ele>330.0</ele><time>2026-05-03T10:12:47.999Z</time></trkpt><trkpt lat="42.21412747340272" lon="19.70516188509116"><ele>330.0</ele><time>2026-05-03T10:12:48.999Z</time></trkpt><trkpt lat="42.21415316220823" lon="19.705280728974696"><ele>330.0</ele><time>2026-05-03T10:12:49.999Z</time></trkpt><trkpt lat="42.21416587491747" lon="19.705403253352415"><ele>330.0</ele><time>2026-05-03T10:12:50.999Z</time></trkpt><trkpt lat="42.21416785351451" lon="19.705540020223214"><ele>330.0</ele><time>2026-05-03T10:12:51.999Z</time></trkpt><trkpt lat="42.21417754841846" lon="19.70565462652197"><ele>335.6666666666667</ele><time>2026-05-03T10:12:52.999Z</time></trkpt><trkpt lat="42.21420833000481" lon="19.705748105232992"><ele>341.3333333333333</ele><time>2026-05-03T10:12:53.999Z</time></trkpt><trkpt lat="42.214283346303546" lon="19.70579043887135"><ele>347.0</ele><time>2026-05-03T10:12:55.999Z</time></trkpt><trkpt lat="42.21435080746008" lon="19.705794501935124"><ele>352.66666666666663</ele><time>2026-05-03T10:12:56.999Z</time></trkpt><trkpt lat="42.21442381708144" lon="19.70577062082237"><ele>358.3333333333333</ele><time>2026-05-03T10:12:57.999Z</time></trkpt><trkpt lat="42.21449047568047" lon="19.705716041588815"><ele>364.0</ele><time>2026-05-03T10:12:58.999Z</time></trkpt><trkpt lat="42.214532532590745" lon="19.705623939696235"><ele>364.0</ele><time>2026-05-03T10:12:59.999Z</time></trkpt><trkpt lat="42.21455587692751" lon="19.705504549963756"><ele>364.0</ele><time>2026-05-03T10:13:00.999Z</time></trkpt><trkpt lat="42.21455018760483" lon="19.70537093294867"><ele>364.0</ele><time>2026-05-03T10:13:01.999Z</time></trkpt><trkpt lat="42.2145225358667" lon="19.70523264454401"><ele>364.0</ele><time>2026-05-03T10:13:02.999Z</time></trkpt><trkpt lat="42.214513433645514" lon="19.705103377908"><ele>364.0</ele><time>2026-05-03T10:13:03.999Z</time></trkpt><trkpt lat="42.21453663265448" lon="19.704983635614195"><ele>357.2</ele><time>2026-05-03T10:13:04.999Z</time></trkpt><trkpt lat="42.21457071471348" lon="19.704883509650934"><ele>350.4</ele><time>2026-05-03T10:13:05.999Z</time></trkpt><trkpt lat="42.21458978931108" lon="19.70475500224712"><ele>343.6</ele><time>2026-05-03T10:13:06.999Z</time></trkpt><trkpt lat="42.21458798828229" lon="19.70462696830237"><ele>336.8</ele><time>2026-05-03T10:13:07.999Z</time></trkpt><trkpt lat="42.21456049027007" lon="19.70448906261707"><ele>330.0</ele><time>2026-05-03T10:13:08.999Z</time></trkpt><trkpt lat="42.21452509914303" lon="19.70435426930853"><ele>325.8</ele><time>2026-05-03T10:13:09.999Z</time></trkpt><trkpt lat="42.214480204495715" lon="19.704210679573922"><ele>321.6</ele><time>2026-05-03T10:13:10.999Z</time></trkpt><trkpt lat="42.21442482546334" lon="19.704054194685828"><ele>317.4</ele><time>2026-05-03T10:13:11.999Z</time></trkpt><trkpt lat="42.21440028124312" lon="19.703944702401092"><ele>313.2</ele><time>2026-05-03T10:13:12.999Z</time></trkpt><trkpt lat="42.214412468206476" lon="19.70385802034884"><ele>309.0</ele><time>2026-05-03T10:13:13.999Z</time></trkpt><trkpt lat="42.21445683273737" lon="19.703788326503734"><ele>309.0</ele><time>2026-05-03T10:13:14.999Z</time></trkpt><trkpt lat="42.214521273316365" lon="19.70373498082273"><ele>309.0</ele><time>2026-05-03T10:13:15.999Z</time></trkpt><trkpt lat="42.214606591419425" lon="19.70370779416769"><ele>309.0</ele><time>2026-05-03T10:13:16.999Z</time></trkpt><trkpt lat="42.21471198620073" lon="19.703710990512903"><ele>309.0</ele><time>2026-05-03T10:13:17.999Z</time></trkpt><trkpt lat="42.21483183852048" lon="19.703730986735653"><ele>309.0</ele><time>2026-05-03T10:13:18.999Z</time></trkpt><trkpt lat="42.214938675862214" lon="19.703713260781708"><ele>313.1666666666667</ele><time>2026-05-03T10:13:19.999Z</time></trkpt><trkpt lat="42.215028747737485" lon="19.7036872404083"><ele>317.3333333333333</ele><time>2026-05-03T10:13:20.999Z</time></trkpt><trkpt lat="42.215112345105275" lon="19.703654738883024"><ele>321.5</ele><time>2026-05-03T10:13:21.999Z</time></trkpt><trkpt lat="42.21518730832008" lon="19.70362995512639"><ele>325.66666666666663</ele><time>2026-05-03T10:13:22.999Z</time></trkpt><trkpt lat="42.21526752397309" lon="19.703635030938663"><ele>329.8333333333333</ele><time>2026-05-03T10:13:23.999Z</time></trkpt><trkpt lat="42.21535324044632" lon="19.703638247151396"><ele>334.0</ele><time>2026-05-03T10:13:24.999Z</time></trkpt><trkpt lat="42.21544948551729" lon="19.703627990787773"><ele>334.0</ele><time>2026-05-03T10:13:25.999Z</time></trkpt><trkpt lat="42.21554473347666" lon="19.7036213477939"><ele>334.0</ele><time>2026-05-03T10:13:26.999Z</time></trkpt><trkpt lat="42.215647791801246" lon="19.70362950299727"><ele>334.0</ele><time>2026-05-03T10:13:27.999Z</time></trkpt><trkpt lat="42.21575673641811" lon="19.703636865186066"><ele>334.0</ele><time>2026-05-03T10:13:28.999Z</time></trkpt><trkpt lat="42.21585079590266" lon="19.703656976320428"><ele>334.0</ele><time>2026-05-03T10:13:29.999Z</time></trkpt><trkpt lat="42.21594432160063" lon="19.70367554668796"><ele>338.0</ele><time>2026-05-03T10:13:30.999Z</time></trkpt><trkpt lat="42.21602584489977" lon="19.703690000449654"><ele>342.0</ele><time>2026-05-03T10:13:31.999Z</time></trkpt><trkpt lat="42.21609554296474" lon="19.703697676318388"><ele>346.0</ele><time>2026-05-03T10:13:32.999Z</time></trkpt><trkpt lat="42.216161185733746" lon="19.703722006397808"><ele>350.0</ele><time>2026-05-03T10:13:34.999Z</time></trkpt><trkpt lat="42.216257989463095" lon="19.70376026589643"><ele>354.0</ele><time>2026-05-03T10:13:37.999Z</time></trkpt><trkpt lat="42.21638319706804" lon="19.703790303151127"><ele>358.0</ele><time>2026-05-03T10:13:39.999Z</time></trkpt><trkpt lat="42.216458415403736" lon="19.703805519740605"><ele>359.5</ele><time>2026-05-03T10:13:40.999Z</time></trkpt><trkpt lat="42.21652121958175" lon="19.70381172160911"><ele>361.0</ele><time>2026-05-03T10:13:41.999Z</time></trkpt><trkpt lat="42.21658402824183" lon="19.703840152691534"><ele>362.5</ele><time>2026-05-03T10:13:42.999Z</time></trkpt><trkpt lat="42.216656381028386" lon="19.703875119127712"><ele>364.0</ele><time>2026-05-03T10:13:43.999Z</time></trkpt><trkpt lat="42.216727988008955" lon="19.703912038537332"><ele>365.5</ele><time>2026-05-03T10:13:44.999Z</time></trkpt><trkpt lat="42.21680541211687" lon="19.703967871063828"><ele>367.0</ele><time>2026-05-03T10:13:45.999Z</time></trkpt><trkpt lat="42.216878231823436" lon="19.70402504810769"><ele>367.0</ele><time>2026-05-03T10:13:46.999Z</time></trkpt><trkpt lat="42.21696673580093" lon="19.704102688199775"><ele>367.0</ele><time>2026-05-03T10:13:47.999Z</time></trkpt><trkpt lat="42.21704719640566" lon="19.70415152282617"><ele>367.0</ele><time>2026-05-03T10:13:48.999Z</time></trkpt><trkpt lat="42.217115708948896" lon="19.70421643531976"><ele>367.0</ele><time>2026-05-03T10:13:49.999Z</time></trkpt><trkpt lat="42.217181009957294" lon="19.704232059409488"><ele>367.0</ele><time>2026-05-03T10:13:50.999Z</time></trkpt><trkpt lat="42.21725004703265" lon="19.704220046967354"><ele>367.0</ele><time>2026-05-03T10:13:51.999Z</time></trkpt><trkpt lat="42.21734664570547" lon="19.704203922601206"><ele>368.20000000000005</ele><time>2026-05-03T10:13:52.999Z</time></trkpt><trkpt lat="42.21744455370996" lon="19.704199980862008"><ele>369.4</ele><time>2026-05-03T10:13:53.999Z</time></trkpt><trkpt lat="42.217548062074556" lon="19.70418810537314"><ele>370.6</ele><time>2026-05-03T10:13:54.999Z</time></trkpt><trkpt lat="42.21762980385447" lon="19.7041823167075"><ele>371.79999999999995</ele><time>2026-05-03T10:13:55.999Z</time></trkpt><trkpt lat="42.21772780299688" lon="19.704167981033393"><ele>373.0</ele><time>2026-05-03T10:13:56.999Z</time></trkpt><trkpt lat="42.21781514888625" lon="19.704146071795535"><ele>373.0</ele><time>2026-05-03T10:13:57.999Z</time></trkpt><trkpt lat="42.21795483457539" lon="19.704218859393027"><ele>373.0</ele><time>2026-05-03T10:13:59.999Z</time></trkpt><trkpt lat="42.218024854503035" lon="19.704273570103958"><ele>373.0</ele><time>2026-05-03T10:14:01Z</time></trkpt><trkpt lat="42.21807999518485" lon="19.704350214259012"><ele>373.0</ele><time>2026-05-03T10:14:02Z</time></trkpt><trkpt lat="42.21812465434926" lon="19.70442532511896"><ele>373.0</ele><time>2026-05-03T10:14:03Z</time></trkpt><trkpt lat="42.21824895945735" lon="19.70447275389412"><ele>373.0</ele><time>2026-05-03T10:14:05Z</time></trkpt><trkpt lat="42.21834379284931" lon="19.70449430077864"><ele>373.0</ele><time>2026-05-03T10:14:06Z</time></trkpt><trkpt lat="42.218409415169134" lon="19.704498132545456"><ele>373.0</ele><time>2026-05-03T10:14:07Z</time></trkpt><trkpt lat="42.21847491722786" lon="19.704382056065935"><ele>373.0</ele><time>2026-05-03T10:14:09Z</time></trkpt><trkpt lat="42.21853204767299" lon="19.70429639764867"><ele>373.0</ele><time>2026-05-03T10:14:10Z</time></trkpt><trkpt lat="42.2185858697589" lon="19.70422042882622"><ele>373.0</ele><time>2026-05-03T10:14:11Z</time></trkpt><trkpt lat="42.21864200405439" lon="19.704161831666177"><ele>365.5</ele><time>2026-05-03T10:14:12Z</time></trkpt><trkpt lat="42.218722387820485" lon="19.704125968748183"><ele>358.0</ele><time>2026-05-03T10:14:13Z</time></trkpt><trkpt lat="42.218791280631265" lon="19.704099166026737"><ele>350.5</ele><time>2026-05-03T10:14:14Z</time></trkpt><trkpt lat="42.218874085890626" lon="19.704172384690597"><ele>343.0</ele><time>2026-05-03T10:14:16Z</time></trkpt><trkpt lat="42.21891159360836" lon="19.704262093045656"><ele>335.5</ele><time>2026-05-03T10:14:17Z</time></trkpt><trkpt lat="42.2189749553336" lon="19.7043620666643"><ele>328.0</ele><time>2026-05-03T10:14:18Z</time></trkpt><trkpt lat="42.21903421590785" lon="19.70440298134641"><ele>328.0</ele><time>2026-05-03T10:14:19Z</time></trkpt><trkpt lat="42.219101448581874" lon="19.704391580548823"><ele>328.0</ele><time>2026-05-03T10:14:20Z</time></trkpt><trkpt lat="42.21917466659566" lon="19.70434549163297"><ele>328.0</ele><time>2026-05-03T10:14:21Z</time></trkpt><trkpt lat="42.21925192434939" lon="19.70427629440405"><ele>328.0</ele><time>2026-05-03T10:14:22Z</time></trkpt><trkpt lat="42.219314245721584" lon="19.704188720394324"><ele>328.0</ele><time>2026-05-03T10:14:23Z</time></trkpt><trkpt lat="42.219377385905496" lon="19.704086565206392"><ele>328.0</ele><time>2026-05-03T10:14:24Z</time></trkpt><trkpt lat="42.2194403303702" lon="19.70395122939665"><ele>328.0</ele><time>2026-05-03T10:14:25Z</time></trkpt><trkpt lat="42.219505243655696" lon="19.70382335047402"><ele>328.0</ele><time>2026-05-03T10:14:26Z</time></trkpt><trkpt lat="42.21956387449041" lon="19.70373855722212"><ele>328.0</ele><time>2026-05-03T10:14:27Z</time></trkpt><trkpt lat="42.219616389463596" lon="19.703685055180607"><ele>328.0</ele><time>2026-05-03T10:14:28Z</time></trkpt><trkpt lat="42.21968710242281" lon="19.70364933524427"><ele>328.0</ele><time>2026-05-03T10:14:29Z</time></trkpt><trkpt lat="42.21977247635524" lon="19.703616509185036"><ele>328.0</ele><time>2026-05-03T10:14:30Z</time></trkpt><trkpt lat="42.21984708460148" lon="19.7035730663943"><ele>325.16666666666663</ele><time>2026-05-03T10:14:31Z</time></trkpt><trkpt lat="42.21990779198517" lon="19.703510919723026"><ele>322.3333333333333</ele><time>2026-05-03T10:14:32Z</time></trkpt><trkpt lat="42.21997524491549" lon="19.70344734419407"><ele>319.5</ele><time>2026-05-03T10:14:33Z</time></trkpt><trkpt lat="42.2200659767892" lon="19.703389358765452"><ele>316.6666666666667</ele><time>2026-05-03T10:14:35Z</time></trkpt><trkpt lat="42.220154676649926" lon="19.703454220842673"><ele>313.83333333333337</ele><time>2026-05-03T10:14:37Z</time></trkpt><trkpt lat="42.22020043780955" lon="19.703514107380784"><ele>311.0</ele><time>2026-05-03T10:14:38Z</time></trkpt><trkpt lat="42.22025382119772" lon="19.703564429861434"><ele>311.0</ele><time>2026-05-03T10:14:39Z</time></trkpt><trkpt lat="42.22036094034994" lon="19.703490209038033"><ele>311.0</ele><time>2026-05-03T10:14:41Z</time></trkpt><trkpt lat="42.22040187415385" lon="19.70339396999224"><ele>311.0</ele><time>2026-05-03T10:14:42Z</time></trkpt><trkpt lat="42.22043384777646" lon="19.70330327029404"><ele>311.0</ele><time>2026-05-03T10:14:43Z</time></trkpt><trkpt lat="42.220475816184866" lon="19.703233203313534"><ele>311.0</ele><time>2026-05-03T10:14:44Z</time></trkpt><trkpt lat="42.220562724323614" lon="19.703193074930887"><ele>311.0</ele><time>2026-05-03T10:14:46Z</time></trkpt><trkpt lat="42.2206713129509" lon="19.703265508643224"><ele>312.0</ele><time>2026-05-03T10:14:48Z</time></trkpt><trkpt lat="42.22073587846905" lon="19.703323776301502"><ele>313.0</ele><time>2026-05-03T10:14:49Z</time></trkpt><trkpt lat="42.220805837799354" lon="19.703355564706918"><ele>314.0</ele><time>2026-05-03T10:14:50Z</time></trkpt><trkpt lat="42.22088004811789" lon="19.703347466752497"><ele>315.0</ele><time>2026-05-03T10:14:51Z</time></trkpt><trkpt lat="42.22096068731985" lon="19.703340433648272"><ele>316.0</ele><time>2026-05-03T10:14:52Z</time></trkpt><trkpt lat="42.2210319396334" lon="19.70335703993217"><ele>317.0</ele><time>2026-05-03T10:14:53Z</time></trkpt><trkpt lat="42.22109287395191" lon="19.703402424218254"><ele>318.0</ele><time>2026-05-03T10:14:54Z</time></trkpt><trkpt lat="42.221166444687825" lon="19.703457941242764"><ele>318.0</ele><time>2026-05-03T10:14:55Z</time></trkpt><trkpt lat="42.22124345607734" lon="19.703480432685353"><ele>318.0</ele><time>2026-05-03T10:14:56Z</time></trkpt><trkpt lat="42.2213090525806" lon="19.703462688111568"><ele>318.0</ele><time>2026-05-03T10:14:57Z</time></trkpt><trkpt lat="42.22142381112414" lon="19.703503779911987"><ele>318.0</ele><time>2026-05-03T10:14:59Z</time></trkpt><trkpt lat="42.22148455354698" lon="19.703576467434804"><ele>318.0</ele><time>2026-05-03T10:15:00Z</time></trkpt><trkpt lat="42.22156193930765" lon="19.703637168622212"><ele>318.0</ele><time>2026-05-03T10:15:01Z</time></trkpt><trkpt lat="42.22162514158174" lon="19.70366443716126"><ele>330.2</ele><time>2026-05-03T10:15:02Z</time></trkpt><trkpt lat="42.22174761120382" lon="19.70364599867528"><ele>342.4</ele><time>2026-05-03T10:15:04Z</time></trkpt><trkpt lat="42.22184408320576" lon="19.703662778768667"><ele>354.59999999999997</ele><time>2026-05-03T10:15:05Z</time></trkpt><trkpt lat="42.221942858162684" lon="19.703723168878746"><ele>366.8</ele><time>2026-05-03T10:15:06Z</time></trkpt><trkpt lat="42.22201898707026" lon="19.703812945508144"><ele>379.0</ele><time>2026-05-03T10:15:07Z</time></trkpt><trkpt lat="42.222093049459794" lon="19.70388599136777"><ele>379.0</ele><time>2026-05-03T10:15:09Z</time></trkpt><trkpt lat="42.22220468053482" lon="19.703804273868123"><ele>379.0</ele><time>2026-05-03T10:15:11Z</time></trkpt><trkpt lat="42.222277588095245" lon="19.703720189854025"><ele>379.0</ele><time>2026-05-03T10:15:12Z</time></trkpt><trkpt lat="42.22236414215647" lon="19.703656272647148"><ele>379.0</ele><time>2026-05-03T10:15:13Z</time></trkpt><trkpt lat="42.22245024609658" lon="19.70361294146037"><ele>379.0</ele><time>2026-05-03T10:15:14Z</time></trkpt><trkpt lat="42.222540719118086" lon="19.703569675722267"><ele>379.3333333333333</ele><time>2026-05-03T10:15:15Z</time></trkpt><trkpt lat="42.2226199850024" lon="19.70356862943183"><ele>379.66666666666663</ele><time>2026-05-03T10:15:16Z</time></trkpt><trkpt lat="42.222720722983794" lon="19.703600409020847"><ele>380.0</ele><time>2026-05-03T10:15:17Z</time></trkpt><trkpt lat="42.22282433740257" lon="19.70364611080694"><ele>380.3333333333333</ele><time>2026-05-03T10:15:18Z</time></trkpt><trkpt lat="42.222890189182216" lon="19.70367977752426"><ele>380.6666666666667</ele><time>2026-05-03T10:15:19Z</time></trkpt><trkpt lat="42.222963978464804" lon="19.70373654466955"><ele>381.0</ele><time>2026-05-03T10:15:21.999Z</time></trkpt><trkpt lat="42.223095541681346" lon="19.70379454465754"><ele>379.6</ele><time>2026-05-03T10:15:41.999Z</time></trkpt><trkpt lat="42.22316598523682" lon="19.703833113899172"><ele>378.20000000000005</ele><time>2026-05-03T10:15:42.999Z</time></trkpt><trkpt lat="42.22324515460734" lon="19.703856073462216"><ele>376.79999999999995</ele><time>2026-05-03T10:15:43.999Z</time></trkpt><trkpt lat="42.22331408537198" lon="19.70384355700089"><ele>375.4</ele><time>2026-05-03T10:15:44.999Z</time></trkpt><trkpt lat="42.22342301451004" lon="19.70370969633619"><ele>374.0</ele><time>2026-05-03T10:15:46.999Z</time></trkpt><trkpt lat="42.223478464216825" lon="19.703599480173835"><ele>374.0</ele><time>2026-05-03T10:15:47.999Z</time></trkpt><trkpt lat="42.22355658162541" lon="19.703537783242353"><ele>374.0</ele><time>2026-05-03T10:15:48.999Z</time></trkpt><trkpt lat="42.223653724579066" lon="19.703522368381403"><ele>374.0</ele><time>2026-05-03T10:15:49.999Z</time></trkpt><trkpt lat="42.223736579451824" lon="19.70353965671953"><ele>374.0</ele><time>2026-05-03T10:15:50.999Z</time></trkpt><trkpt lat="42.223809627662284" lon="19.703581215163915"><ele>374.0</ele><time>2026-05-03T10:15:51.999Z</time></trkpt><trkpt lat="42.22387816220611" lon="19.703646869632436"><ele>374.0</ele><time>2026-05-03T10:15:52.999Z</time></trkpt><trkpt lat="42.22395481411157" lon="19.70370680116311"><ele>376.83333333333337</ele><time>2026-05-03T10:15:53.999Z</time></trkpt><trkpt lat="42.22404962584921" lon="19.70375359098817"><ele>379.6666666666667</ele><time>2026-05-03T10:15:54.999Z</time></trkpt><trkpt lat="42.22412569739602" lon="19.70376369875213"><ele>382.5</ele><time>2026-05-03T10:15:55.999Z</time></trkpt><trkpt lat="42.22419171336513" lon="19.703776187643463"><ele>385.33333333333337</ele><time>2026-05-03T10:15:56.999Z</time></trkpt><trkpt lat="42.224274381220255" lon="19.70366006361855"><ele>388.1666666666667</ele><time>2026-05-03T10:15:58.999Z</time></trkpt><trkpt lat="42.22428549764385" lon="19.703550947578385"><ele>391.0</ele><time>2026-05-03T10:15:59.999Z</time></trkpt><trkpt lat="42.22426942715615" lon="19.703411636163175"><ele>382.6666666666667</ele><time>2026-05-03T10:16:00.999Z</time></trkpt><trkpt lat="42.22426087640881" lon="19.703279662692868"><ele>374.33333333333337</ele><time>2026-05-03T10:16:01.999Z</time></trkpt><trkpt lat="42.22428234517055" lon="19.703198615473966"><ele>366.0</ele><time>2026-05-03T10:16:02.999Z</time></trkpt><trkpt lat="42.224353470503786" lon="19.70312156435859"><ele>357.6666666666667</ele><time>2026-05-03T10:16:04.999Z</time></trkpt><trkpt lat="42.22442801042505" lon="19.70313000252037"><ele>349.33333333333337</ele><time>2026-05-03T10:16:05.999Z</time></trkpt><trkpt lat="42.22450547052653" lon="19.703111311862948"><ele>341.0</ele><time>2026-05-03T10:16:07Z</time></trkpt><trkpt lat="42.22461672617518" lon="19.70307742336932"><ele>341.0</ele><time>2026-05-03T10:16:08Z</time></trkpt><trkpt lat="42.224734987999376" lon="19.703058515258103"><ele>341.0</ele><time>2026-05-03T10:16:09Z</time></trkpt><trkpt lat="42.22486493369428" lon="19.703025392619807"><ele>341.0</ele><time>2026-05-03T10:16:10Z</time></trkpt><trkpt lat="42.22496501133107" lon="19.70297296069052"><ele>341.0</ele><time>2026-05-03T10:16:11Z</time></trkpt><trkpt lat="42.225079085862426" lon="19.70292808492202"><ele>335.2</ele><time>2026-05-03T10:16:12Z</time></trkpt><trkpt lat="42.2252079206514" lon="19.702899682691175"><ele>329.40000000000003</ele><time>2026-05-03T10:16:13Z</time></trkpt><trkpt lat="42.22531491232731" lon="19.70289116117278"><ele>323.6</ele><time>2026-05-03T10:16:14Z</time></trkpt><trkpt lat="42.22539291943316" lon="19.70285558503382"><ele>317.8</ele><time>2026-05-03T10:16:15Z</time></trkpt><trkpt lat="42.225483300756004" lon="19.70280535490573"><ele>312.0</ele><time>2026-05-03T10:16:16Z</time></trkpt><trkpt lat="42.22555834145752" lon="19.70272248435938"><ele>312.0</ele><time>2026-05-03T10:16:17Z</time></trkpt><trkpt lat="42.22561322757705" lon="19.702592691213077"><ele>312.0</ele><time>2026-05-03T10:16:18Z</time></trkpt><trkpt lat="42.22566680192516" lon="19.702418602665855"><ele>312.0</ele><time>2026-05-03T10:16:19Z</time></trkpt><trkpt lat="42.22572223904875" lon="19.70230711137224"><ele>312.0</ele><time>2026-05-03T10:16:20Z</time></trkpt><trkpt lat="42.22578455006704" lon="19.702265560450773"><ele>312.0</ele><time>2026-05-03T10:16:21Z</time></trkpt><trkpt lat="42.22586642346008" lon="19.70225029329483"><ele>313.5</ele><time>2026-05-03T10:16:22Z</time></trkpt><trkpt lat="42.225922213212165" lon="19.702196939179213"><ele>315.0</ele><time>2026-05-03T10:16:23Z</time></trkpt><trkpt lat="42.22593148527512" lon="19.702104464564485"><ele>316.5</ele><time>2026-05-03T10:16:24Z</time></trkpt><trkpt lat="42.22594407988755" lon="19.701977441598192"><ele>318.0</ele><time>2026-05-03T10:16:25Z</time></trkpt><trkpt lat="42.225947635521486" lon="19.701822114027806"><ele>319.5</ele><time>2026-05-03T10:16:26Z</time></trkpt><trkpt lat="42.2259698951364" lon="19.701699136200883"><ele>321.0</ele><time>2026-05-03T10:16:27Z</time></trkpt><trkpt lat="42.226030553460895" lon="19.70158251132967"><ele>321.0</ele><time>2026-05-03T10:16:28Z</time></trkpt><trkpt lat="42.226122214136254" lon="19.701477625139468"><ele>321.0</ele><time>2026-05-03T10:16:29Z</time></trkpt><trkpt lat="42.22619705983205" lon="19.70144023151978"><ele>321.0</ele><time>2026-05-03T10:16:30Z</time></trkpt><trkpt lat="42.226268323810054" lon="19.701438356083532"><ele>321.0</ele><time>2026-05-03T10:16:31Z</time></trkpt><trkpt lat="42.226361125332325" lon="19.701463933876305"><ele>321.0</ele><time>2026-05-03T10:16:32Z</time></trkpt><trkpt lat="42.22647419780293" lon="19.70151234898071"><ele>330.75</ele><time>2026-05-03T10:16:33Z</time></trkpt><trkpt lat="42.22659178147628" lon="19.701536207075165"><ele>340.5</ele><time>2026-05-03T10:16:34Z</time></trkpt><trkpt lat="42.226711440416466" lon="19.701536510853643"><ele>350.25</ele><time>2026-05-03T10:16:35Z</time></trkpt><trkpt lat="42.22682382805507" lon="19.701509691925345"><ele>360.0</ele><time>2026-05-03T10:16:36Z</time></trkpt><trkpt lat="42.226930825447354" lon="19.701439134482573"><ele>360.0</ele><time>2026-05-03T10:16:37Z</time></trkpt><trkpt lat="42.22700535856409" lon="19.701398720962327"><ele>360.0</ele><time>2026-05-03T10:16:38Z</time></trkpt><trkpt lat="42.227103675790815" lon="19.701462655951662"><ele>360.0</ele><time>2026-05-03T10:16:40Z</time></trkpt><trkpt lat="42.22714060463839" lon="19.701572491516053"><ele>360.0</ele><time>2026-05-03T10:16:41Z</time></trkpt><trkpt lat="42.22718542127826" lon="19.701709119770204"><ele>360.0</ele><time>2026-05-03T10:16:42Z</time></trkpt><trkpt lat="42.227282276127376" lon="19.701857465449525"><ele>366.6</ele><time>2026-05-03T10:16:43Z</time></trkpt><trkpt lat="42.22738362044747" lon="19.702003981206207"><ele>373.2</ele><time>2026-05-03T10:16:44Z</time></trkpt><trkpt lat="42.22747598252355" lon="19.702118985696504"><ele>379.79999999999995</ele><time>2026-05-03T10:16:45Z</time></trkpt><trkpt lat="42.227541769777766" lon="19.70220381865502"><ele>386.4</ele><time>2026-05-03T10:16:46Z</time></trkpt><trkpt lat="42.22760648531581" lon="19.70224210516603"><ele>393.0</ele><time>2026-05-03T10:16:47Z</time></trkpt><trkpt lat="42.2276820268153" lon="19.702223865191723"><ele>393.0</ele><time>2026-05-03T10:16:48Z</time></trkpt><trkpt lat="42.227768425271925" lon="19.70215923723164"><ele>393.0</ele><time>2026-05-03T10:16:49Z</time></trkpt><trkpt lat="42.22785679522843" lon="19.702071098020618"><ele>393.0</ele><time>2026-05-03T10:16:50Z</time></trkpt><trkpt lat="42.22797362172218" lon="19.70200616892013"><ele>393.0</ele><time>2026-05-03T10:16:51Z</time></trkpt><trkpt lat="42.22806143128717" lon="19.701965532831203"><ele>393.0</ele><time>2026-05-03T10:16:52Z</time></trkpt><trkpt lat="42.22813746900705" lon="19.701974958196868"><ele>394.79999999999995</ele><time>2026-05-03T10:16:53Z</time></trkpt><trkpt lat="42.22822207477832" lon="19.70196810327717"><ele>396.6</ele><time>2026-05-03T10:16:54Z</time></trkpt><trkpt lat="42.228298027793564" lon="19.701916930346115"><ele>398.4</ele><time>2026-05-03T10:16:55Z</time></trkpt><trkpt lat="42.22836597245335" lon="19.701821529114312"><ele>400.20000000000005</ele><time>2026-05-03T10:16:56Z</time></trkpt><trkpt lat="42.228483827515355" lon="19.701730631338748"><ele>402.0</ele><time>2026-05-03T10:16:57Z</time></trkpt><trkpt lat="42.22859120493152" lon="19.701629715723694"><ele>390.40000000000003</ele><time>2026-05-03T10:16:58Z</time></trkpt><trkpt lat="42.22867690477982" lon="19.701572204633788"><ele>378.8</ele><time>2026-05-03T10:16:59Z</time></trkpt><trkpt lat="42.22874532768404" lon="19.701532109017894"><ele>367.2</ele><time>2026-05-03T10:17:00Z</time></trkpt><trkpt lat="42.22881452563654" lon="19.70146313463163"><ele>355.6</ele><time>2026-05-03T10:17:01Z</time></trkpt><trkpt lat="42.22886767289199" lon="19.701337441203606"><ele>344.0</ele><time>2026-05-03T10:17:02Z</time></trkpt><trkpt lat="42.228945809438116" lon="19.70119711264724"><ele>345.6</ele><time>2026-05-03T10:17:03Z</time></trkpt><trkpt lat="42.229033323130466" lon="19.701069009522698"><ele>347.2</ele><time>2026-05-03T10:17:04Z</time></trkpt><trkpt lat="42.22910104231047" lon="19.70096709509991"><ele>348.8</ele><time>2026-05-03T10:17:05Z</time></trkpt><trkpt lat="42.229160304622255" lon="19.70091628510137"><ele>350.40000000000003</ele><time>2026-05-03T10:17:06Z</time></trkpt><trkpt lat="42.22922616496023" lon="19.700893551246295"><ele>352.0</ele><time>2026-05-03T10:17:07Z</time></trkpt><trkpt lat="42.22930582115049" lon="19.70092277017053"><ele>352.0</ele><time>2026-05-03T10:17:08Z</time></trkpt><trkpt lat="42.22938942408951" lon="19.70099276672135"><ele>352.0</ele><time>2026-05-03T10:17:09Z</time></trkpt><trkpt lat="42.22947071372418" lon="19.701080253963397"><ele>352.0</ele><time>2026-05-03T10:17:10Z</time></trkpt><trkpt lat="42.22957035132627" lon="19.701170949422146"><ele>352.0</ele><time>2026-05-03T10:17:11Z</time></trkpt><trkpt lat="42.22965881307322" lon="19.70121963814679"><ele>352.0</ele><time>2026-05-03T10:17:12Z</time></trkpt><trkpt lat="42.22970817469544" lon="19.70127350358679"><ele>360.75</ele><time>2026-05-03T10:17:13Z</time></trkpt><trkpt lat="42.22979010251092" lon="19.70146600928656"><ele>369.5</ele><time>2026-05-03T10:17:15Z</time></trkpt><trkpt lat="42.229868546405434" lon="19.701577395214755"><ele>378.25</ele><time>2026-05-03T10:17:16Z</time></trkpt><trkpt lat="42.22995807080426" lon="19.701670800956116"><ele>387.0</ele><time>2026-05-03T10:17:17Z</time></trkpt><trkpt lat="42.23002002481376" lon="19.701734012111707"><ele>387.75</ele><time>2026-05-03T10:17:18Z</time></trkpt><trkpt lat="42.230135768033115" lon="19.701712247120803"><ele>388.5</ele><time>2026-05-03T10:17:20Z</time></trkpt><trkpt lat="42.230245194268164" lon="19.701670747082183"><ele>389.25</ele><time>2026-05-03T10:17:21Z</time></trkpt><trkpt lat="42.23035250449162" lon="19.701604565935504"><ele>390.0</ele><time>2026-05-03T10:17:22Z</time></trkpt><trkpt lat="42.230471728594715" lon="19.701542307147108"><ele>390.0</ele><time>2026-05-03T10:17:23Z</time></trkpt><trkpt lat="42.23058731201228" lon="19.701457910173332"><ele>390.0</ele><time>2026-05-03T10:17:24Z</time></trkpt><trkpt lat="42.23069953928403" lon="19.70139431679461"><ele>390.0</ele><time>2026-05-03T10:17:25Z</time></trkpt><trkpt lat="42.23080229769128" lon="19.70133570614801"><ele>390.0</ele><time>2026-05-03T10:17:26Z</time></trkpt><trkpt lat="42.23088628373477" lon="19.70125957061152"><ele>387.2</ele><time>2026-05-03T10:17:27Z</time></trkpt><trkpt lat="42.23095102217496" lon="19.70114400860757"><ele>384.4</ele><time>2026-05-03T10:17:28Z</time></trkpt><trkpt lat="42.23102610441134" lon="19.701012757215896"><ele>381.6</ele><time>2026-05-03T10:17:29Z</time></trkpt><trkpt lat="42.23108246052486" lon="19.700956579977767"><ele>378.8</ele><time>2026-05-03T10:17:30Z</time></trkpt><trkpt lat="42.23122045619576" lon="19.701002268715172"><ele>376.0</ele><time>2026-05-03T10:17:32Z</time></trkpt><trkpt lat="42.231318060406466" lon="19.701079924534906"><ele>376.0</ele><time>2026-05-03T10:17:33Z</time></trkpt><trkpt lat="42.231407903597166" lon="19.70120460451488"><ele>376.0</ele><time>2026-05-03T10:17:34Z</time></trkpt><trkpt lat="42.23148790158109" lon="19.70135850523009"><ele>376.0</ele><time>2026-05-03T10:17:35Z</time></trkpt><trkpt lat="42.231550844764854" lon="19.701493845471894"><ele>376.0</ele><time>2026-05-03T10:17:36Z</time></trkpt><trkpt lat="42.23163620290175" lon="19.701624156271627"><ele>376.4</ele><time>2026-05-03T10:17:37Z</time></trkpt><trkpt lat="42.23172296900604" lon="19.70170154012325"><ele>376.8</ele><time>2026-05-03T10:17:38Z</time></trkpt><trkpt lat="42.23181513125718" lon="19.70176954613848"><ele>377.2</ele><time>2026-05-03T10:17:39Z</time></trkpt><trkpt lat="42.23190556111757" lon="19.701857252440345"><ele>377.59999999999997</ele><time>2026-05-03T10:17:40Z</time></trkpt><trkpt lat="42.231965208382455" lon="19.701972671792742"><ele>378.0</ele><time>2026-05-03T10:17:41Z</time></trkpt><trkpt lat="42.23200763926699" lon="19.702114036958736"><ele>378.0</ele><time>2026-05-03T10:17:42Z</time></trkpt><trkpt lat="42.23204528100951" lon="19.70224067198392"><ele>378.0</ele><time>2026-05-03T10:17:43Z</time></trkpt><trkpt lat="42.232100720464494" lon="19.70234801126272"><ele>378.0</ele><time>2026-05-03T10:17:44Z</time></trkpt><trkpt lat="42.2321693915334" lon="19.702466885426958"><ele>378.0</ele><time>2026-05-03T10:17:45Z</time></trkpt><trkpt lat="42.23223547077096" lon="19.70259196746182"><ele>378.0</ele><time>2026-05-03T10:17:46Z</time></trkpt><trkpt lat="42.23227738921951" lon="19.702718135447817"><ele>374.0</ele><time>2026-05-03T10:17:47Z</time></trkpt><trkpt lat="42.23231920889256" lon="19.702883544774338"><ele>370.0</ele><time>2026-05-03T10:17:48Z</time></trkpt><trkpt lat="42.23237815337559" lon="19.703063211235218"><ele>366.0</ele><time>2026-05-03T10:17:49Z</time></trkpt><trkpt lat="42.232429973391945" lon="19.70319318916719"><ele>362.0</ele><time>2026-05-03T10:17:50Z</time></trkpt><trkpt lat="42.23248771985486" lon="19.703311082011332"><ele>362.0</ele><time>2026-05-03T10:17:51Z</time></trkpt><trkpt lat="42.23259353421209" lon="19.703401346461384"><ele>362.0</ele><time>2026-05-03T10:17:52.999Z</time></trkpt><trkpt lat="42.232656368066635" lon="19.703477322763558"><ele>362.0</ele><time>2026-05-03T10:17:53.999Z</time></trkpt><trkpt lat="42.232782816408175" lon="19.703603340372073"><ele>362.0</ele><time>2026-05-03T10:17:54.999Z</time></trkpt><trkpt lat="42.23287738468035" lon="19.703672815640417"><ele>357.0</ele><time>2026-05-03T10:17:55.999Z</time></trkpt><trkpt lat="42.23298288847451" lon="19.703631175012152"><ele>352.0</ele><time>2026-05-03T10:17:57.999Z</time></trkpt><trkpt lat="42.23308193466537" lon="19.703591142139384"><ele>347.0</ele><time>2026-05-03T10:17:58.999Z</time></trkpt><trkpt lat="42.23323753679844" lon="19.70353343928581"><ele>342.0</ele><time>2026-05-03T10:17:59.999Z</time></trkpt><trkpt lat="42.23334346968193" lon="19.703549196417807"><ele>345.8</ele><time>2026-05-03T10:18:00.999Z</time></trkpt><trkpt lat="42.23339984460683" lon="19.703607025556476"><ele>349.6</ele><time>2026-05-03T10:18:01.999Z</time></trkpt><trkpt lat="42.23343764012744" lon="19.70370020009958"><ele>353.40000000000003</ele><time>2026-05-03T10:18:02.999Z</time></trkpt><trkpt lat="42.23348500689989" lon="19.70381260853048"><ele>357.20000000000005</ele><time>2026-05-03T10:18:03.999Z</time></trkpt><trkpt lat="42.2335543823453" lon="19.70397905407499"><ele>361.0</ele><time>2026-05-03T10:18:04.999Z</time></trkpt><trkpt lat="42.23361263592637" lon="19.704097504856264"><ele>361.0</ele><time>2026-05-03T10:18:05.999Z</time></trkpt><trkpt lat="42.23364938293629" lon="19.704209327414926"><ele>361.0</ele><time>2026-05-03T10:18:06.999Z</time></trkpt><trkpt lat="42.23369390795811" lon="19.704375371060962"><ele>361.0</ele><time>2026-05-03T10:18:07.999Z</time></trkpt><trkpt lat="42.23374865773758" lon="19.7045581859055"><ele>361.0</ele><time>2026-05-03T10:18:08.999Z</time></trkpt><trkpt lat="42.23379692439043" lon="19.704645661910355"><ele>361.0</ele><time>2026-05-03T10:18:09.999Z</time></trkpt><trkpt lat="42.23385996848819" lon="19.70472664542307"><ele>362.8</ele><time>2026-05-03T10:18:10.999Z</time></trkpt><trkpt lat="42.23392800904281" lon="19.704748307803523"><ele>364.6</ele><time>2026-05-03T10:18:12Z</time></trkpt><trkpt lat="42.23402909816544" lon="19.70467706590941"><ele>366.4</ele><time>2026-05-03T10:18:14Z</time></trkpt><trkpt lat="42.23413824750126" lon="19.70461676349306"><ele>368.2</ele><time>2026-05-03T10:18:16Z</time></trkpt><trkpt lat="42.23416702134943" lon="19.70453364866441"><ele>370.0</ele><time>2026-05-03T10:18:17Z</time></trkpt><trkpt lat="42.23415017470626" lon="19.704415314375634"><ele>368.0</ele><time>2026-05-03T10:18:18Z</time></trkpt><trkpt lat="42.23410509325023" lon="19.704267960401722"><ele>366.0</ele><time>2026-05-03T10:18:19Z</time></trkpt><trkpt lat="42.23408603560429" lon="19.704141078565232"><ele>364.0</ele><time>2026-05-03T10:18:20Z</time></trkpt><trkpt lat="42.234116740127384" lon="19.70403505308565"><ele>362.0</ele><time>2026-05-03T10:18:21Z</time></trkpt><trkpt lat="42.23417252436783" lon="19.703870467203295"><ele>360.0</ele><time>2026-05-03T10:18:22Z</time></trkpt><trkpt lat="42.23418392675361" lon="19.70372204091044"><ele>360.2</ele><time>2026-05-03T10:18:23Z</time></trkpt><trkpt lat="42.234154679167325" lon="19.703554682447546"><ele>360.4</ele><time>2026-05-03T10:18:24Z</time></trkpt><trkpt lat="42.234119890814455" lon="19.70342767093189"><ele>360.6</ele><time>2026-05-03T10:18:25Z</time></trkpt><trkpt lat="42.23405706780819" lon="19.703322560255305"><ele>360.8</ele><time>2026-05-03T10:18:26Z</time></trkpt><trkpt lat="42.23397852980947" lon="19.703204037968977"><ele>361.0</ele><time>2026-05-03T10:18:27Z</time></trkpt><trkpt lat="42.23393154008246" lon="19.703053761698808"><ele>354.66666666666663</ele><time>2026-05-03T10:18:28Z</time></trkpt><trkpt lat="42.233897552038265" lon="19.702864545048083"><ele>348.3333333333333</ele><time>2026-05-03T10:18:29Z</time></trkpt><trkpt lat="42.23387529917335" lon="19.70265814950061"><ele>342.0</ele><time>2026-05-03T10:18:30Z</time></trkpt><trkpt lat="42.23386470579464" lon="19.70244402776263"><ele>341.6</ele><time>2026-05-03T10:18:31Z</time></trkpt><trkpt lat="42.23384507346419" lon="19.702275780459445"><ele>341.20000000000005</ele><time>2026-05-03T10:18:32Z</time></trkpt><trkpt lat="42.233814366425605" lon="19.7021333135021"><ele>340.8</ele><time>2026-05-03T10:18:33Z</time></trkpt><trkpt lat="42.2337601289124" lon="19.702037909781524"><ele>340.4</ele><time>2026-05-03T10:18:34Z</time></trkpt><trkpt lat="42.23365567811017" lon="19.701981091993986"><ele>340.0</ele><time>2026-05-03T10:18:35Z</time></trkpt><trkpt lat="42.23358130224398" lon="19.7018736804713"><ele>343.75</ele><time>2026-05-03T10:18:36Z</time></trkpt><trkpt lat="42.23355912164181" lon="19.701733435788793"><ele>347.5</ele><time>2026-05-03T10:18:37Z</time></trkpt><trkpt lat="42.233556013875585" lon="19.701547289786898"><ele>351.25</ele><time>2026-05-03T10:18:38Z</time></trkpt><trkpt lat="42.233537130944995" lon="19.701369352644484"><ele>355.0</ele><time>2026-05-03T10:18:39Z</time></trkpt><trkpt lat="42.23349194204851" lon="19.701179331668538"><ele>359.66666666666663</ele><time>2026-05-03T10:18:40Z</time></trkpt><trkpt lat="42.233425552701114" lon="19.700973517347915"><ele>364.3333333333333</ele><time>2026-05-03T10:18:41Z</time></trkpt><trkpt lat="42.233335499132174" lon="19.700758214169497"><ele>369.0</ele><time>2026-05-03T10:18:42Z</time></trkpt><trkpt lat="42.233227807236055" lon="19.700564961467173"><ele>362.6666666666667</ele><time>2026-05-03T10:18:43Z</time></trkpt><trkpt lat="42.23311450605699" lon="19.700399771562736"><ele>356.33333333333337</ele><time>2026-05-03T10:18:44Z</time></trkpt><trkpt lat="42.23299638902428" lon="19.700232348543445"><ele>350.0</ele><time>2026-05-03T10:18:45Z</time></trkpt><trkpt lat="42.23288971853906" lon="19.700051269005044"><ele>350.0</ele><time>2026-05-03T10:18:46Z</time></trkpt><trkpt lat="42.23278054900456" lon="19.69985727354039"><ele>350.0</ele><time>2026-05-03T10:18:47Z</time></trkpt><trkpt lat="42.232708247026764" lon="19.69971664484903"><ele>350.0</ele><time>2026-05-03T10:18:48Z</time></trkpt><trkpt lat="42.23266731730155" lon="19.69962186981898"><ele>350.0</ele><time>2026-05-03T10:18:49Z</time></trkpt><trkpt lat="42.232691915968886" lon="19.699498285429723"><ele>350.0</ele><time>2026-05-03T10:18:51Z</time></trkpt><trkpt lat="42.232749781040425" lon="19.69942368847551"><ele>350.0</ele><time>2026-05-03T10:18:52Z</time></trkpt><trkpt lat="42.23283462971937" lon="19.69937927701423"><ele>350.0</ele><time>2026-05-03T10:18:53Z</time></trkpt><trkpt lat="42.23293834990926" lon="19.699369829693353"><ele>350.0</ele><time>2026-05-03T10:18:54Z</time></trkpt><trkpt lat="42.23301978288208" lon="19.69934218991861"><ele>350.0</ele><time>2026-05-03T10:18:55Z</time></trkpt><trkpt lat="42.23310452852317" lon="19.699299860439325"><ele>350.0</ele><time>2026-05-03T10:18:55.999Z</time></trkpt><trkpt lat="42.23320285865827" lon="19.699296808997598"><ele>354.0</ele><time>2026-05-03T10:18:56.999Z</time></trkpt><trkpt lat="42.23328683851628" lon="19.69935074681094"><ele>358.0</ele><time>2026-05-03T10:18:57.999Z</time></trkpt><trkpt lat="42.23335639463561" lon="19.699408051918805"><ele>362.0</ele><time>2026-05-03T10:18:58.999Z</time></trkpt><trkpt lat="42.2334776061718" lon="19.699440859718887"><ele>366.0</ele><time>2026-05-03T10:19:00.999Z</time></trkpt><trkpt lat="42.2335636049099" lon="19.69937838075383"><ele>370.0</ele><time>2026-05-03T10:19:01.999Z</time></trkpt><trkpt lat="42.23366694579185" lon="19.699322505338387"><ele>370.0</ele><time>2026-05-03T10:19:02.999Z</time></trkpt><trkpt lat="42.23378293153198" lon="19.699312558400447"><ele>370.0</ele><time>2026-05-03T10:19:03.999Z</time></trkpt><trkpt lat="42.233893279413245" lon="19.699326144681166"><ele>370.0</ele><time>2026-05-03T10:19:04.999Z</time></trkpt><trkpt lat="42.23397345389559" lon="19.69928554785666"><ele>370.0</ele><time>2026-05-03T10:19:05.999Z</time></trkpt><trkpt lat="42.2340481107984" lon="19.699205512803832"><ele>370.0</ele><time>2026-05-03T10:19:06.999Z</time></trkpt><trkpt lat="42.23412052709524" lon="19.699102919846368"><ele>375.0</ele><time>2026-05-03T10:19:07.999Z</time></trkpt><trkpt lat="42.23419488506296" lon="19.69899284977619"><ele>380.0</ele><time>2026-05-03T10:19:08.999Z</time></trkpt><trkpt lat="42.23428117812628" lon="19.69886663417483"><ele>385.0</ele><time>2026-05-03T10:19:09.999Z</time></trkpt><trkpt lat="42.23437845487888" lon="19.69877423446802"><ele>390.0</ele><time>2026-05-03T10:19:10.999Z</time></trkpt><trkpt lat="42.234490497621806" lon="19.698710309750478"><ele>390.0</ele><time>2026-05-03T10:19:11.999Z</time></trkpt><trkpt lat="42.23461694356259" lon="19.69868741685637"><ele>390.0</ele><time>2026-05-03T10:19:12.999Z</time></trkpt><trkpt lat="42.23474246234445" lon="19.698671838770426"><ele>390.0</ele><time>2026-05-03T10:19:13.999Z</time></trkpt><trkpt lat="42.234862493283345" lon="19.698616005711763"><ele>390.0</ele><time>2026-05-03T10:19:14.999Z</time></trkpt><trkpt lat="42.234989229788276" lon="19.69853686699452"><ele>389.5</ele><time>2026-05-03T10:19:15.999Z</time></trkpt><trkpt lat="42.23509861462089" lon="19.698341587381005"><ele>389.0</ele><time>2026-05-03T10:19:17.999Z</time></trkpt><trkpt lat="42.2351604311564" lon="19.698175682561065"><ele>388.5</ele><time>2026-05-03T10:19:18.999Z</time></trkpt><trkpt lat="42.23521527819237" lon="19.698088468481927"><ele>388.0</ele><time>2026-05-03T10:19:19.999Z</time></trkpt><trkpt lat="42.23529444983563" lon="19.698048794226455"><ele>388.0</ele><time>2026-05-03T10:19:20.999Z</time></trkpt><trkpt lat="42.235399871038936" lon="19.698015622917488"><ele>388.0</ele><time>2026-05-03T10:19:21.999Z</time></trkpt><trkpt lat="42.2355037442269" lon="19.697954963124555"><ele>388.0</ele><time>2026-05-03T10:19:22.999Z</time></trkpt><trkpt lat="42.235579404704005" lon="19.697905875015586"><ele>388.0</ele><time>2026-05-03T10:19:23.999Z</time></trkpt><trkpt lat="42.2356431548214" lon="19.697927517378695"><ele>388.0</ele><time>2026-05-03T10:19:25.999Z</time></trkpt><trkpt lat="42.23575894163355" lon="19.6981882027849"><ele>391.25</ele><time>2026-05-03T10:19:26.999Z</time></trkpt><trkpt lat="42.23583668785197" lon="19.698290054956075"><ele>394.5</ele><time>2026-05-03T10:19:27.999Z</time></trkpt><trkpt lat="42.23593925519564" lon="19.698385323664997"><ele>397.75</ele><time>2026-05-03T10:19:28.999Z</time></trkpt><trkpt lat="42.23603349645138" lon="19.69847679404953"><ele>401.0</ele><time>2026-05-03T10:19:29.999Z</time></trkpt><trkpt lat="42.23613520975512" lon="19.698588357390385"><ele>405.20000000000005</ele><time>2026-05-03T10:19:30.999Z</time></trkpt><trkpt lat="42.23622118073386" lon="19.69869851441244"><ele>409.40000000000003</ele><time>2026-05-03T10:19:31.999Z</time></trkpt><trkpt lat="42.236308527028385" lon="19.69875966590659"><ele>413.6</ele><time>2026-05-03T10:19:32.999Z</time></trkpt><trkpt lat="42.23640311745824" lon="19.698788856538354"><ele>417.8</ele><time>2026-05-03T10:19:33.999Z</time></trkpt><trkpt lat="42.23647171256574" lon="19.69875961211987"><ele>422.0</ele><time>2026-05-03T10:19:34.999Z</time></trkpt><trkpt lat="42.236539496272826" lon="19.698702141639192"><ele>422.25</ele><time>2026-05-03T10:19:35.999Z</time></trkpt><trkpt lat="42.236622240135574" lon="19.69862450023351"><ele>422.5</ele><time>2026-05-03T10:19:36.999Z</time></trkpt><trkpt lat="42.23669087636313" lon="19.698529107476322"><ele>422.75</ele><time>2026-05-03T10:19:37.999Z</time></trkpt><trkpt lat="42.236793222451254" lon="19.69839542732129"><ele>423.0</ele><time>2026-05-03T10:19:38.999Z</time></trkpt><trkpt lat="42.236911313152895" lon="19.69824658350487"><ele>418.4</ele><time>2026-05-03T10:19:39.999Z</time></trkpt><trkpt lat="42.23703121497751" lon="19.698135777895136"><ele>413.79999999999995</ele><time>2026-05-03T10:19:40.999Z</time></trkpt><trkpt lat="42.237118979225556" lon="19.698046573532196"><ele>409.2</ele><time>2026-05-03T10:19:41.999Z</time></trkpt><trkpt lat="42.23716675183392" lon="19.697970525847786"><ele>404.6</ele><time>2026-05-03T10:19:42.999Z</time></trkpt><trkpt lat="42.23717505386313" lon="19.697815142170743"><ele>400.0</ele><time>2026-05-03T10:19:44.999Z</time></trkpt><trkpt lat="42.23713693662209" lon="19.697693288876053"><ele>402.2</ele><time>2026-05-03T10:19:45.999Z</time></trkpt><trkpt lat="42.23712275001976" lon="19.6975707049463"><ele>404.4</ele><time>2026-05-03T10:19:46.999Z</time></trkpt><trkpt lat="42.23715616555078" lon="19.697476139722784"><ele>406.6</ele><time>2026-05-03T10:19:47.999Z</time></trkpt><trkpt lat="42.23722421422791" lon="19.69736188901857"><ele>408.8</ele><time>2026-05-03T10:19:48.999Z</time></trkpt><trkpt lat="42.23727533439828" lon="19.697213432958005"><ele>411.0</ele><time>2026-05-03T10:19:49.999Z</time></trkpt><trkpt lat="42.23734211692613" lon="19.697070999310743"><ele>407.4</ele><time>2026-05-03T10:19:50.999Z</time></trkpt><trkpt lat="42.23742738991095" lon="19.696917500175765"><ele>403.8</ele><time>2026-05-03T10:19:51.999Z</time></trkpt><trkpt lat="42.237501533621824" lon="19.69680290718453"><ele>400.2</ele><time>2026-05-03T10:19:52.999Z</time></trkpt><trkpt lat="42.23756849884986" lon="19.696714015354793"><ele>396.59999999999997</ele><time>2026-05-03T10:19:53.999Z</time></trkpt><trkpt lat="42.237614685815906" lon="19.696638956490368"><ele>393.0</ele><time>2026-05-03T10:19:54.999Z</time></trkpt><trkpt lat="42.23768176532928" lon="19.696514420796113"><ele>393.0</ele><time>2026-05-03T10:19:56.999Z</time></trkpt><trkpt lat="42.237746949921785" lon="19.696419038923807"><ele>393.0</ele><time>2026-05-03T10:19:58.999Z</time></trkpt><trkpt lat="42.237847176134395" lon="19.696333033382604"><ele>393.0</ele><time>2026-05-03T10:20:00.999Z</time></trkpt><trkpt lat="42.23793930248624" lon="19.69627086072521"><ele>393.0</ele><time>2026-05-03T10:20:02.999Z</time></trkpt><trkpt lat="42.23800608501614" lon="19.696260346485566"><ele>393.0</ele><time>2026-05-03T10:20:04.999Z</time></trkpt><trkpt lat="42.238025875613815" lon="19.696381369065648"><ele>393.0</ele><time>2026-05-03T10:20:45Z</time></trkpt><trkpt lat="42.23793763143641" lon="19.696453255151866"><ele>393.0</ele><time>2026-05-03T10:20:48Z</time></trkpt><trkpt lat="42.23788140662246" lon="19.69650642017308"><ele>393.0</ele><time>2026-05-03T10:22:06.999Z</time></trkpt><trkpt lat="42.237853581147796" lon="19.69658916100098"><ele>393.0</ele><time>2026-05-03T10:22:14.999Z</time></trkpt><trkpt lat="42.23786364227824" lon="19.696678104826514"><ele>393.0</ele><time>2026-05-03T10:23:36Z</time></trkpt><trkpt lat="42.23778977629174" lon="19.696620583073187"><ele>393.0</ele><time>2026-05-03T10:24:06.999Z</time></trkpt><trkpt lat="42.237846821605984" lon="19.696710184075027"><ele>393.0</ele><time>2026-05-03T10:24:28.999Z</time></trkpt><trkpt lat="42.23791753103455" lon="19.696680408844312"><ele>393.0</ele><time>2026-05-03T10:24:42Z</time></trkpt><trkpt lat="42.2379001122128" lon="19.696593803875228"><ele>393.0</ele><time>2026-05-03T10:24:46Z</time></trkpt><trkpt lat="42.237973036587114" lon="19.6965763154498"><ele>393.0</ele><time>2026-05-03T10:53:22.001Z</time></trkpt><trkpt lat="42.23802462582472" lon="19.696459490555608"><ele>393.0</ele><time>2026-05-03T10:53:35.001Z</time></trkpt><trkpt lat="42.23807424391156" lon="19.69639798465296"><ele>393.0</ele><time>2026-05-03T10:53:37.001Z</time></trkpt><trkpt lat="42.238199009027284" lon="19.696399900538154"><ele>397.0</ele><time>2026-05-03T10:53:39.001Z</time></trkpt><trkpt lat="42.23831569319092" lon="19.69638798489674"><ele>401.0</ele><time>2026-05-03T10:53:41.001Z</time></trkpt><trkpt lat="42.2383928793822" lon="19.696356701547305"><ele>405.0</ele><time>2026-05-03T10:53:42.001Z</time></trkpt><trkpt lat="42.23846894445483" lon="19.69632822457672"><ele>409.0</ele><time>2026-05-03T10:53:43Z</time></trkpt><trkpt lat="42.23853400589008" lon="19.696331899732577"><ele>413.0</ele><time>2026-05-03T10:53:44Z</time></trkpt><trkpt lat="42.23861092845444" lon="19.6963619929536"><ele>417.0</ele><time>2026-05-03T10:53:45Z</time></trkpt><trkpt lat="42.238676459879095" lon="19.696375349857256"><ele>417.0</ele><time>2026-05-03T10:53:46Z</time></trkpt><trkpt lat="42.238786572649516" lon="19.69626514983422"><ele>417.0</ele><time>2026-05-03T10:53:48Z</time></trkpt><trkpt lat="42.23884520223479" lon="19.69614770026246"><ele>417.0</ele><time>2026-05-03T10:53:49Z</time></trkpt><trkpt lat="42.238905076843466" lon="19.69610849217711"><ele>417.0</ele><time>2026-05-03T10:53:50Z</time></trkpt><trkpt lat="42.23900262668593" lon="19.696065744816938"><ele>417.0</ele><time>2026-05-03T10:53:51Z</time></trkpt><trkpt lat="42.23910219542904" lon="19.69598706712835"><ele>416.0</ele><time>2026-05-03T10:53:52.001Z</time></trkpt><trkpt lat="42.23919908974643" lon="19.695912461611144"><ele>415.0</ele><time>2026-05-03T10:53:53.001Z</time></trkpt><trkpt lat="42.23925988759331" lon="19.695754560672853"><ele>414.0</ele><time>2026-05-03T10:53:54.001Z</time></trkpt><trkpt lat="42.239298657802145" lon="19.695636541142225"><ele>413.0</ele><time>2026-05-03T10:53:55.001Z</time></trkpt><trkpt lat="42.23930762436837" lon="19.695543149596062"><ele>412.0</ele><time>2026-05-03T10:53:56.001Z</time></trkpt><trkpt lat="42.2393395138538" lon="19.69544236574974"><ele>412.0</ele><time>2026-05-03T10:53:57.001Z</time></trkpt><trkpt lat="42.23939951849654" lon="19.695380377536942"><ele>412.0</ele><time>2026-05-03T10:53:58.001Z</time></trkpt><trkpt lat="42.23950563447811" lon="19.69538718420034"><ele>412.0</ele><time>2026-05-03T10:53:59.001Z</time></trkpt><trkpt lat="42.23960979065712" lon="19.69532097998054"><ele>412.0</ele><time>2026-05-03T10:54:00.001Z</time></trkpt><trkpt lat="42.23970532473621" lon="19.6952449976431"><ele>412.0</ele><time>2026-05-03T10:54:01.001Z</time></trkpt><trkpt lat="42.23976801728294" lon="19.695168492362406"><ele>414.5</ele><time>2026-05-03T10:54:02.001Z</time></trkpt><trkpt lat="42.23982781971487" lon="19.69506084119492"><ele>417.0</ele><time>2026-05-03T10:54:03.001Z</time></trkpt><trkpt lat="42.23990492200416" lon="19.694969080204885"><ele>419.5</ele><time>2026-05-03T10:54:04Z</time></trkpt><trkpt lat="42.24002275071543" lon="19.69489602958041"><ele>422.0</ele><time>2026-05-03T10:54:05Z</time></trkpt><trkpt lat="42.240151807232415" lon="19.69479311011089"><ele>422.0</ele><time>2026-05-03T10:54:06Z</time></trkpt><trkpt lat="42.240282122414044" lon="19.694668093334514"><ele>422.0</ele><time>2026-05-03T10:54:07Z</time></trkpt><trkpt lat="42.24040228644784" lon="19.694532747604942"><ele>422.0</ele><time>2026-05-03T10:54:08Z</time></trkpt><trkpt lat="42.24050134902043" lon="19.69444638625564"><ele>422.0</ele><time>2026-05-03T10:54:09Z</time></trkpt><trkpt lat="42.2405717221918" lon="19.694321005461173"><ele>422.6</ele><time>2026-05-03T10:54:10Z</time></trkpt><trkpt lat="42.24067399944559" lon="19.694250737403348"><ele>423.20000000000005</ele><time>2026-05-03T10:54:11Z</time></trkpt><trkpt lat="42.24076304175772" lon="19.694155591407586"><ele>423.8</ele><time>2026-05-03T10:54:12Z</time></trkpt><trkpt lat="42.24085767177658" lon="19.694039244101667"><ele>424.4</ele><time>2026-05-03T10:54:13Z</time></trkpt><trkpt lat="42.2409223315115" lon="19.693949678580324"><ele>425.0</ele><time>2026-05-03T10:54:14Z</time></trkpt><trkpt lat="42.24104653034921" lon="19.693969911657398"><ele>425.0</ele><time>2026-05-03T10:54:16Z</time></trkpt><trkpt lat="42.24112250166492" lon="19.693969911652953"><ele>425.0</ele><time>2026-05-03T10:54:17Z</time></trkpt><trkpt lat="42.2412139423924" lon="19.693969911648054"><ele>425.0</ele><time>2026-05-03T10:54:18Z</time></trkpt><trkpt lat="42.2413005748294" lon="19.69397626245692"><ele>425.0</ele><time>2026-05-03T10:54:19Z</time></trkpt><trkpt lat="42.24139637941226" lon="19.69407844197656"><ele>425.0</ele><time>2026-05-03T10:54:21Z</time></trkpt><trkpt lat="42.24148514582246" lon="19.69416167847029"><ele>430.2</ele><time>2026-05-03T10:54:22Z</time></trkpt><trkpt lat="42.241561264918616" lon="19.694173796697793"><ele>435.4</ele><time>2026-05-03T10:54:23Z</time></trkpt><trkpt lat="42.241627078538514" lon="19.69409837040942"><ele>440.6</ele><time>2026-05-03T10:54:24Z</time></trkpt><trkpt lat="42.24170151913322" lon="19.694004404868096"><ele>445.8</ele><time>2026-05-03T10:54:25Z</time></trkpt><trkpt lat="42.24182729995801" lon="19.693943376981313"><ele>451.0</ele><time>2026-05-03T10:54:26Z</time></trkpt><trkpt lat="42.24193749687328" lon="19.69389797688237"><ele>451.0</ele><time>2026-05-03T10:54:27Z</time></trkpt><trkpt lat="42.24199887755913" lon="19.693790662015036"><ele>451.0</ele><time>2026-05-03T10:54:28Z</time></trkpt><trkpt lat="42.24206674658552" lon="19.693673463348084"><ele>451.0</ele><time>2026-05-03T10:54:29Z</time></trkpt><trkpt lat="42.24212853238855" lon="19.69359196352877"><ele>451.0</ele><time>2026-05-03T10:54:30Z</time></trkpt><trkpt lat="42.24214205371773" lon="19.693490103141198"><ele>451.0</ele><time>2026-05-03T10:54:31Z</time></trkpt><trkpt lat="42.242114874074716" lon="19.693351970176266"><ele>444.6</ele><time>2026-05-03T10:54:32Z</time></trkpt><trkpt lat="42.24210286379328" lon="19.693196273190797"><ele>438.20000000000005</ele><time>2026-05-03T10:54:33Z</time></trkpt><trkpt lat="42.2420709519067" lon="19.69309693250648"><ele>431.79999999999995</ele><time>2026-05-03T10:54:34Z</time></trkpt><trkpt lat="42.24203645245933" lon="19.693005024978735"><ele>425.4</ele><time>2026-05-03T10:54:35Z</time></trkpt><trkpt lat="42.241944007931515" lon="19.69294439084463"><ele>419.0</ele><time>2026-05-03T10:54:36Z</time></trkpt><trkpt lat="42.2418994383403" lon="19.69283792483524"><ele>417.0</ele><time>2026-05-03T10:54:37Z</time></trkpt><trkpt lat="42.24185903836095" lon="19.692741419016002"><ele>415.0</ele><time>2026-05-03T10:54:38Z</time></trkpt><trkpt lat="42.241986498603744" lon="19.692561096827607"><ele>413.0</ele><time>2026-05-03T10:54:40Z</time></trkpt><trkpt lat="42.24203733062883" lon="19.692403637787127"><ele>411.0</ele><time>2026-05-03T10:54:41Z</time></trkpt><trkpt lat="42.242108934533455" lon="19.6922500306905"><ele>411.0</ele><time>2026-05-03T10:54:42Z</time></trkpt><trkpt lat="42.24213015637148" lon="19.69213757591022"><ele>411.0</ele><time>2026-05-03T10:54:43Z</time></trkpt><trkpt lat="42.242247768840116" lon="19.69221034049406"><ele>411.0</ele><time>2026-05-03T10:54:44Z</time></trkpt><trkpt lat="42.242334605433" lon="19.692193091722146"><ele>411.0</ele><time>2026-05-03T10:54:45Z</time></trkpt><trkpt lat="42.24244512869343" lon="19.692161772504672"><ele>411.0</ele><time>2026-05-03T10:54:46Z</time></trkpt><trkpt lat="42.24247007685556" lon="19.69203997452247"><ele>419.25</ele><time>2026-05-03T10:54:47Z</time></trkpt><trkpt lat="42.242499267058335" lon="19.691842696924432"><ele>427.5</ele><time>2026-05-03T10:54:49Z</time></trkpt><trkpt lat="42.24248980348357" lon="19.69166763200826"><ele>435.75</ele><time>2026-05-03T10:54:50Z</time></trkpt><trkpt lat="42.2424126838304" lon="19.691505245703635"><ele>444.0</ele><time>2026-05-03T10:54:51Z</time></trkpt><trkpt lat="42.242391722301875" lon="19.691333417439537"><ele>444.0</ele><time>2026-05-03T10:54:52Z</time></trkpt><trkpt lat="42.24240972937689" lon="19.69122240600201"><ele>444.0</ele><time>2026-05-03T10:54:53Z</time></trkpt><trkpt lat="42.24244397755541" lon="19.691108497931534"><ele>444.0</ele><time>2026-05-03T10:54:54Z</time></trkpt><trkpt lat="42.24246978437997" lon="19.690999121024774"><ele>444.0</ele><time>2026-05-03T10:54:55Z</time></trkpt><trkpt lat="42.24262795649877" lon="19.691045755304902"><ele>444.0</ele><time>2026-05-03T10:54:56Z</time></trkpt><trkpt lat="42.242690625875774" lon="19.690988597013362"><ele>442.0</ele><time>2026-05-03T10:54:57Z</time></trkpt><trkpt lat="42.24276562529748" lon="19.690890154387812"><ele>440.0</ele><time>2026-05-03T10:54:58Z</time></trkpt><trkpt lat="42.24284168215262" lon="19.690810973915095"><ele>438.0</ele><time>2026-05-03T10:54:59Z</time></trkpt><trkpt lat="42.24294486535758" lon="19.690733185772824"><ele>436.0</ele><time>2026-05-03T10:55:00Z</time></trkpt><trkpt lat="42.24301887653194" lon="19.690727062127003"><ele>434.0</ele><time>2026-05-03T10:55:01Z</time></trkpt><trkpt lat="42.24309880386192" lon="19.690780187848688"><ele>437.0</ele><time>2026-05-03T10:55:02Z</time></trkpt><trkpt lat="42.243181634546545" lon="19.690831932581773"><ele>440.0</ele><time>2026-05-03T10:55:03Z</time></trkpt><trkpt lat="42.24331243524671" lon="19.690894291170594"><ele>443.0</ele><time>2026-05-03T10:55:04Z</time></trkpt><trkpt lat="42.24347279526668" lon="19.690964708166852"><ele>446.0</ele><time>2026-05-03T10:55:05Z</time></trkpt><trkpt lat="42.243618694014145" lon="19.691024133321772"><ele>445.99999999999994</ele><time>2026-05-03T10:55:06Z</time></trkpt><trkpt lat="42.24371437498966" lon="19.69106061580989"><ele>446.0</ele><time>2026-05-03T10:55:07Z</time></trkpt><trkpt lat="42.24377759364847" lon="19.691055816300462"><ele>446.0</ele><time>2026-05-03T10:55:08Z</time></trkpt><trkpt lat="42.243788576048274" lon="19.691176851353536"><ele>446.0</ele><time>2026-05-03T10:55:11Z</time></trkpt><trkpt lat="42.24372145490692" lon="19.69125743326959"><ele>445.99999999999994</ele><time>2026-05-03T10:55:13Z</time></trkpt><trkpt lat="42.24363590615487" lon="19.691235093634198"><ele>446.0</ele><time>2026-05-03T10:55:15Z</time></trkpt><trkpt lat="42.2435593795151" lon="19.691174044706262"><ele>445.99999999999994</ele><time>2026-05-03T10:55:17Z</time></trkpt><trkpt lat="42.243478871984436" lon="19.69112945459357"><ele>446.0</ele><time>2026-05-03T10:55:19Z</time></trkpt><trkpt lat="42.24340711937357" lon="19.69110055753026"><ele>446.0</ele><time>2026-05-03T10:55:22Z</time></trkpt><trkpt lat="42.24335838131672" lon="19.69102871558051"><ele>446.0</ele><time>2026-05-03T10:55:24Z</time></trkpt><trkpt lat="42.24329353473909" lon="19.691038283568076"><ele>445.99999999999994</ele><time>2026-05-03T10:55:26Z</time></trkpt><trkpt lat="42.24321498636232" lon="19.69104853594445"><ele>446.0</ele><time>2026-05-03T10:55:29Z</time></trkpt><trkpt lat="42.243138531626684" lon="19.69108819016691"><ele>445.66666666666663</ele><time>2026-05-03T10:56:11.001Z</time></trkpt><trkpt lat="42.24307476309948" lon="19.691126807108542"><ele>445.3333333333333</ele><time>2026-05-03T10:56:12.001Z</time></trkpt><trkpt lat="42.2430278795282" lon="19.691190739647517"><ele>445.0</ele><time>2026-05-03T10:56:13.001Z</time></trkpt><trkpt lat="42.24298256927857" lon="19.69127495024661"><ele>444.66666666666663</ele><time>2026-05-03T10:56:14.001Z</time></trkpt><trkpt lat="42.242954326419714" lon="19.691382896915012"><ele>444.3333333333333</ele><time>2026-05-03T10:56:15.001Z</time></trkpt><trkpt lat="42.24294063716595" lon="19.691502743240033"><ele>444.0</ele><time>2026-05-03T10:56:16.001Z</time></trkpt><trkpt lat="42.24284682078029" lon="19.69159038671538"><ele>444.0</ele><time>2026-05-03T10:56:18.001Z</time></trkpt><trkpt lat="42.24277604749861" lon="19.691677419605497"><ele>444.0</ele><time>2026-05-03T10:56:19.001Z</time></trkpt><trkpt lat="42.242782657258644" lon="19.69184000294217"><ele>444.0</ele><time>2026-05-03T10:56:20.001Z</time></trkpt><trkpt lat="42.24275904039211" lon="19.691998530595516"><ele>444.0</ele><time>2026-05-03T10:56:21.001Z</time></trkpt><trkpt lat="42.242700495556804" lon="19.692108024598188"><ele>444.0</ele><time>2026-05-03T10:56:22.001Z</time></trkpt><trkpt lat="42.2426580734787" lon="19.69227716934728"><ele>447.75</ele><time>2026-05-03T10:56:23.001Z</time></trkpt><trkpt lat="42.242591329167524" lon="19.69244366345406"><ele>451.5</ele><time>2026-05-03T10:56:24.001Z</time></trkpt><trkpt lat="42.24254625963478" lon="19.692560086807855"><ele>455.25</ele><time>2026-05-03T10:56:25.001Z</time></trkpt><trkpt lat="42.24254951116027" lon="19.692810967357794"><ele>459.0</ele><time>2026-05-03T10:56:27.001Z</time></trkpt><trkpt lat="42.24267330931622" lon="19.692956816512"><ele>460.25</ele><time>2026-05-03T10:56:28.001Z</time></trkpt><trkpt lat="42.242730592039464" lon="19.69311285161882"><ele>461.5</ele><time>2026-05-03T10:56:29.001Z</time></trkpt><trkpt lat="42.24275961242318" lon="19.693219928328983"><ele>462.75</ele><time>2026-05-03T10:56:30.001Z</time></trkpt><trkpt lat="42.24271415077081" lon="19.693380878324938"><ele>464.0</ele><time>2026-05-03T10:56:32.001Z</time></trkpt><trkpt lat="42.24260631079795" lon="19.693487700638673"><ele>472.3333333333333</ele><time>2026-05-03T10:56:33.001Z</time></trkpt><trkpt lat="42.242511191887026" lon="19.69365852049261"><ele>480.66666666666663</ele><time>2026-05-03T10:56:34.001Z</time></trkpt><trkpt lat="42.24242583038007" lon="19.693865240166808"><ele>489.0</ele><time>2026-05-03T10:56:35.001Z</time></trkpt><trkpt lat="42.24236706538327" lon="19.694006706461845"><ele>489.0</ele><time>2026-05-03T10:56:36.001Z</time></trkpt><trkpt lat="42.24232816096511" lon="19.694100658442586"><ele>489.0</ele><time>2026-05-03T10:56:37.001Z</time></trkpt><trkpt lat="42.242355418105106" lon="19.69425348716633"><ele>489.0</ele><time>2026-05-03T10:56:38.001Z</time></trkpt><trkpt lat="42.24231936175709" lon="19.694385502447084"><ele>489.0</ele><time>2026-05-03T10:56:39.001Z</time></trkpt><trkpt lat="42.24226155779177" lon="19.6944954388811"><ele>489.0</ele><time>2026-05-03T10:56:40.001Z</time></trkpt><trkpt lat="42.2421598513387" lon="19.694552614931286"><ele>490.4</ele><time>2026-05-03T10:56:41.001Z</time></trkpt><trkpt lat="42.24207088702193" lon="19.694601748833247"><ele>491.79999999999995</ele><time>2026-05-03T10:56:42.001Z</time></trkpt><trkpt lat="42.24201264707806" lon="19.694693212795855"><ele>493.20000000000005</ele><time>2026-05-03T10:56:43.001Z</time></trkpt><trkpt lat="42.241964842571925" lon="19.694826696810676"><ele>494.6</ele><time>2026-05-03T10:56:44.001Z</time></trkpt><trkpt lat="42.24189367190457" lon="19.694877809466593"><ele>496.0</ele><time>2026-05-03T10:56:46.001Z</time></trkpt><trkpt lat="42.241812511400106" lon="19.694820392336442"><ele>496.0</ele><time>2026-05-03T10:56:47.001Z</time></trkpt><trkpt lat="42.24178619283802" lon="19.694666009786246"><ele>496.0</ele><time>2026-05-03T10:56:48.001Z</time></trkpt><trkpt lat="42.241747237102466" lon="19.694541615955035"><ele>496.0</ele><time>2026-05-03T10:56:49.001Z</time></trkpt><trkpt lat="42.241674325487644" lon="19.694528683512896"><ele>496.0</ele><time>2026-05-03T10:56:50.001Z</time></trkpt><trkpt lat="42.241615568709896" lon="19.69456297100112"><ele>496.0</ele><time>2026-05-03T10:56:51.001Z</time></trkpt><trkpt lat="42.24140305665457" lon="19.69461903546781"><ele>492.50000000000006</ele><time>2026-05-03T10:56:53.001Z</time></trkpt><trkpt lat="42.24129935281811" lon="19.694580275368754"><ele>489.0</ele><time>2026-05-03T10:56:54.001Z</time></trkpt><trkpt lat="42.241207577187005" lon="19.69456177593857"><ele>485.5</ele><time>2026-05-03T10:56:55.001Z</time></trkpt><trkpt lat="42.2411304002186" lon="19.694552908821947"><ele>482.0</ele><time>2026-05-03T10:56:56.001Z</time></trkpt><trkpt lat="42.24107098229558" lon="19.694587469688138"><ele>478.50000000000006</ele><time>2026-05-03T10:56:57.001Z</time></trkpt><trkpt lat="42.24102755615421" lon="19.694676766040168"><ele>475.0</ele><time>2026-05-03T10:56:58.001Z</time></trkpt><trkpt lat="42.24099603876868" lon="19.694819849512086"><ele>475.0</ele><time>2026-05-03T10:56:59.001Z</time></trkpt><trkpt lat="42.240991999401444" lon="19.694976139816287"><ele>475.0</ele><time>2026-05-03T10:57:00.001Z</time></trkpt><trkpt lat="42.240944979146974" lon="19.69513089023143"><ele>475.0</ele><time>2026-05-03T10:57:02.001Z</time></trkpt><trkpt lat="42.24085782113416" lon="19.69519700443287"><ele>475.0</ele><time>2026-05-03T10:57:03.001Z</time></trkpt><trkpt lat="42.24073809767983" lon="19.695267663900204"><ele>478.2</ele><time>2026-05-03T10:57:04.001Z</time></trkpt><trkpt lat="42.24066214888332" lon="19.69534223267495"><ele>481.4</ele><time>2026-05-03T10:57:05.001Z</time></trkpt><trkpt lat="42.24063276890578" lon="19.695427243463254"><ele>484.6</ele><time>2026-05-03T10:57:06.001Z</time></trkpt><trkpt lat="42.24061480662765" lon="19.695541786629274"><ele>487.8</ele><time>2026-05-03T10:57:07.001Z</time></trkpt><trkpt lat="42.24058337339474" lon="19.695712419193793"><ele>491.0</ele><time>2026-05-03T10:57:08.001Z</time></trkpt><trkpt lat="42.240596801602024" lon="19.695902692923184"><ele>490.66666666666663</ele><time>2026-05-03T10:57:09.001Z</time></trkpt><trkpt lat="42.240593711267685" lon="19.696124101760542"><ele>490.33333333333337</ele><time>2026-05-03T10:57:10.001Z</time></trkpt><trkpt lat="42.24070286225957" lon="19.696322155232934"><ele>490.0</ele><time>2026-05-03T10:57:11.001Z</time></trkpt><trkpt lat="42.24071360311202" lon="19.69653147213666"><ele>490.0</ele><time>2026-05-03T10:57:12.001Z</time></trkpt><trkpt lat="42.240733199478036" lon="19.696703420887555"><ele>490.0</ele><time>2026-05-03T10:57:13.001Z</time></trkpt><trkpt lat="42.240778622991755" lon="19.696858002880408"><ele>490.0</ele><time>2026-05-03T10:57:14.001Z</time></trkpt><trkpt lat="42.24082543005076" lon="19.697001607109456"><ele>490.0</ele><time>2026-05-03T10:57:15.001Z</time></trkpt><trkpt lat="42.24091478585684" lon="19.697152371192868"><ele>490.2</ele><time>2026-05-03T10:57:16.001Z</time></trkpt><trkpt lat="42.2409882972075" lon="19.697283881735068"><ele>490.4</ele><time>2026-05-03T10:57:17.001Z</time></trkpt><trkpt lat="42.24103153631733" lon="19.697370449613796"><ele>490.6</ele><time>2026-05-03T10:57:18.001Z</time></trkpt><trkpt lat="42.2410563769355" lon="19.697493682203582"><ele>490.8</ele><time>2026-05-03T10:57:20.001Z</time></trkpt><trkpt lat="42.24101876824895" lon="19.69760787678421"><ele>491.0</ele><time>2026-05-03T10:57:21.001Z</time></trkpt><trkpt lat="42.240952436029936" lon="19.697738068735948"><ele>497.0</ele><time>2026-05-03T10:57:22.001Z</time></trkpt><trkpt lat="42.24086908456156" lon="19.697871089070038"><ele>503.0</ele><time>2026-05-03T10:57:23.001Z</time></trkpt><trkpt lat="42.240784144132775" lon="19.698013531449448"><ele>509.0</ele><time>2026-05-03T10:57:24.001Z</time></trkpt><trkpt lat="42.240735982408125" lon="19.69815065718934"><ele>515.0</ele><time>2026-05-03T10:57:25.001Z</time></trkpt><trkpt lat="42.24069827073415" lon="19.69824756535587"><ele>515.0</ele><time>2026-05-03T10:57:26.001Z</time></trkpt><trkpt lat="42.240647842554885" lon="19.69831546835246"><ele>515.0</ele><time>2026-05-03T10:57:27.001Z</time></trkpt><trkpt lat="42.24052130032463" lon="19.69834537027949"><ele>515.0</ele><time>2026-05-03T10:57:28.001Z</time></trkpt><trkpt lat="42.24040483863663" lon="19.69838653597051"><ele>515.0</ele><time>2026-05-03T10:57:29.001Z</time></trkpt><trkpt lat="42.2402960945751" lon="19.698490430184826"><ele>514.4</ele><time>2026-05-03T10:57:30.001Z</time></trkpt><trkpt lat="42.24021690786114" lon="19.69857536532114"><ele>513.8</ele><time>2026-05-03T10:57:31.001Z</time></trkpt><trkpt lat="42.24017279357721" lon="19.698667432092154"><ele>513.2</ele><time>2026-05-03T10:57:32.001Z</time></trkpt><trkpt lat="42.24016167260519" lon="19.698803599652766"><ele>512.6</ele><time>2026-05-03T10:57:33.001Z</time></trkpt><trkpt lat="42.2401609891723" lon="19.698932123664164"><ele>512.0</ele><time>2026-05-03T10:57:34.001Z</time></trkpt><trkpt lat="42.24011456940438" lon="19.699053481613824"><ele>512.0</ele><time>2026-05-03T10:57:36.001Z</time></trkpt><trkpt lat="42.24003450110882" lon="19.699020963186328"><ele>512.0</ele><time>2026-05-03T10:57:37.001Z</time></trkpt><trkpt lat="42.23999102539794" lon="19.698919485733008"><ele>512.0</ele><time>2026-05-03T10:57:38.001Z</time></trkpt><trkpt lat="42.23992128892525" lon="19.698820595638452"><ele>512.0</ele><time>2026-05-03T10:57:39.001Z</time></trkpt><trkpt lat="42.239864650441135" lon="19.69870212798118"><ele>512.0</ele><time>2026-05-03T10:57:40.001Z</time></trkpt><trkpt lat="42.239789337664305" lon="19.698631480515935"><ele>511.0</ele><time>2026-05-03T10:57:41.001Z</time></trkpt><trkpt lat="42.23965347363774" lon="19.698608451708772"><ele>510.00000000000006</ele><time>2026-05-03T10:57:43.001Z</time></trkpt><trkpt lat="42.23956885611695" lon="19.698646387815813"><ele>509.00000000000006</ele><time>2026-05-03T10:57:44.001Z</time></trkpt><trkpt lat="42.239489178095326" lon="19.698714209528468"><ele>508.0</ele><time>2026-05-03T10:57:45.001Z</time></trkpt><trkpt lat="42.23941279109985" lon="19.69883048460142"><ele>507.0</ele><time>2026-05-03T10:57:46.001Z</time></trkpt><trkpt lat="42.23932408160726" lon="19.698993318331325"><ele>507.0</ele><time>2026-05-03T10:57:47.001Z</time></trkpt><trkpt lat="42.239197955203686" lon="19.699086672039595"><ele>507.00000000000006</ele><time>2026-05-03T10:57:48.001Z</time></trkpt><trkpt lat="42.23913285646985" lon="19.69913484839823"><ele>507.00000000000006</ele><time>2026-05-03T10:57:49.001Z</time></trkpt><trkpt lat="42.23904065267261" lon="19.69920361898458"><ele>507.0</ele><time>2026-05-03T10:57:50.001Z</time></trkpt><trkpt lat="42.23894193474996" lon="19.69926624464247"><ele>507.0</ele><time>2026-05-03T10:57:51.001Z</time></trkpt><trkpt lat="42.238890591258745" lon="19.699345651184803"><ele>505.20000000000005</ele><time>2026-05-03T10:57:52.001Z</time></trkpt><trkpt lat="42.238882012912285" lon="19.699460796860993"><ele>503.40000000000003</ele><time>2026-05-03T10:57:53.001Z</time></trkpt><trkpt lat="42.23887802813884" lon="19.69962059009929"><ele>501.59999999999997</ele><time>2026-05-03T10:57:54.001Z</time></trkpt><trkpt lat="42.23883913578695" lon="19.699771031177136"><ele>499.79999999999995</ele><time>2026-05-03T10:57:55.001Z</time></trkpt><trkpt lat="42.23880864531667" lon="19.69993520507468"><ele>498.0</ele><time>2026-05-03T10:57:56.001Z</time></trkpt><trkpt lat="42.238789215087316" lon="19.700040159040668"><ele>498.0</ele><time>2026-05-03T10:57:57.001Z</time></trkpt><trkpt lat="42.23879271842781" lon="19.700153949833037"><ele>497.99999999999994</ele><time>2026-05-03T10:57:58.001Z</time></trkpt><trkpt lat="42.238886072784105" lon="19.70029539168358"><ele>497.99999999999994</ele><time>2026-05-03T10:57:59.001Z</time></trkpt><trkpt lat="42.23897997967798" lon="19.700399659885708"><ele>498.0</ele><time>2026-05-03T10:58:00.001Z</time></trkpt><trkpt lat="42.239033011577554" lon="19.70047836377705"><ele>498.0</ele><time>2026-05-03T10:58:01.001Z</time></trkpt><trkpt lat="42.23900329181475" lon="19.70061908183219"><ele>500.5</ele><time>2026-05-03T10:58:04.002Z</time></trkpt><trkpt lat="42.23893469367608" lon="19.700694529311516"><ele>503.0</ele><time>2026-05-03T10:58:05.002Z</time></trkpt><trkpt lat="42.23885501681714" lon="19.700692508252903"><ele>505.5</ele><time>2026-05-03T10:58:06.002Z</time></trkpt><trkpt lat="42.23877384655399" lon="19.700713957849818"><ele>508.0</ele><time>2026-05-03T10:58:07.002Z</time></trkpt><trkpt lat="42.238672980823814" lon="19.700774428790005"><ele>510.5</ele><time>2026-05-03T10:58:08.002Z</time></trkpt><trkpt lat="42.238624422282115" lon="19.700856382144458"><ele>513.0</ele><time>2026-05-03T10:58:09.002Z</time></trkpt><trkpt lat="42.23859295978518" lon="19.700968604428596"><ele>513.0</ele><time>2026-05-03T10:58:10.002Z</time></trkpt><trkpt lat="42.23857355732469" lon="19.701069857218776"><ele>513.0</ele><time>2026-05-03T10:58:11.002Z</time></trkpt><trkpt lat="42.238503505452556" lon="19.70116096543311"><ele>513.0</ele><time>2026-05-03T10:58:13.002Z</time></trkpt><trkpt lat="42.23842883020697" lon="19.70105405551958"><ele>513.0</ele><time>2026-05-03T10:58:14.001Z</time></trkpt><trkpt lat="42.23834817256329" lon="19.700981105180063"><ele>513.0</ele><time>2026-05-03T10:58:15.001Z</time></trkpt><trkpt lat="42.23825692041073" lon="19.70089922094927"><ele>513.0</ele><time>2026-05-03T10:58:16.001Z</time></trkpt><trkpt lat="42.23816220770521" lon="19.70083776796556"><ele>513.0</ele><time>2026-05-03T10:58:17.001Z</time></trkpt><trkpt lat="42.23806116186216" lon="19.700806162043648"><ele>513.0</ele><time>2026-05-03T10:58:18.001Z</time></trkpt><trkpt lat="42.23796479673605" lon="19.700814043790352"><ele>513.0</ele><time>2026-05-03T10:58:19.001Z</time></trkpt><trkpt lat="42.23788523675452" lon="19.700856172852106"><ele>513.0</ele><time>2026-05-03T10:58:20.001Z</time></trkpt><trkpt lat="42.23781162871704" lon="19.700915259147088"><ele>513.1999999999999</ele><time>2026-05-03T10:58:21.001Z</time></trkpt><trkpt lat="42.237755951969994" lon="19.701004692304735"><ele>513.4</ele><time>2026-05-03T10:58:22.001Z</time></trkpt><trkpt lat="42.2377308603825" lon="19.70113927305485"><ele>513.5999999999999</ele><time>2026-05-03T10:58:23.001Z</time></trkpt><trkpt lat="42.23769359949377" lon="19.701292128653066"><ele>513.8</ele><time>2026-05-03T10:58:24.001Z</time></trkpt><trkpt lat="42.23770114639877" lon="19.701459814128473"><ele>514.0</ele><time>2026-05-03T10:58:25.001Z</time></trkpt><trkpt lat="42.237743367635034" lon="19.701628753861737"><ele>514.0</ele><time>2026-05-03T10:58:26.001Z</time></trkpt><trkpt lat="42.23783273132967" lon="19.70179198627746"><ele>514.0</ele><time>2026-05-03T10:58:27.001Z</time></trkpt><trkpt lat="42.23789623639415" lon="19.70194663545593"><ele>514.0</ele><time>2026-05-03T10:58:28.001Z</time></trkpt><trkpt lat="42.23794252956557" lon="19.702094601736672"><ele>514.0</ele><time>2026-05-03T10:58:29.001Z</time></trkpt><trkpt lat="42.237983204524376" lon="19.702193388240335"><ele>517.5</ele><time>2026-05-03T10:58:30.001Z</time></trkpt><trkpt lat="42.23799694989045" lon="19.702286551084214"><ele>521.0</ele><time>2026-05-03T10:58:31.001Z</time></trkpt><trkpt lat="42.23799778165681" lon="19.702398153609142"><ele>524.5</ele><time>2026-05-03T10:58:32.001Z</time></trkpt><trkpt lat="42.237985782490725" lon="19.702523672414713"><ele>528.0</ele><time>2026-05-03T10:58:33.001Z</time></trkpt><trkpt lat="42.23800394886052" lon="19.702666031579778"><ele>531.5</ele><time>2026-05-03T10:58:34.001Z</time></trkpt><trkpt lat="42.23801267399737" lon="19.702794929566416"><ele>535.0</ele><time>2026-05-03T10:58:35.001Z</time></trkpt><trkpt lat="42.23802504710016" lon="19.702897150314598"><ele>537.6</ele><time>2026-05-03T10:58:36.001Z</time></trkpt><trkpt lat="42.23803725415356" lon="19.703010951171265"><ele>540.2</ele><time>2026-05-03T10:58:37.001Z</time></trkpt><trkpt lat="42.23810016259033" lon="19.703100996068752"><ele>542.8</ele><time>2026-05-03T10:58:38.001Z</time></trkpt><trkpt lat="42.23818294329244" lon="19.703173166373045"><ele>545.4</ele><time>2026-05-03T10:58:39.001Z</time></trkpt><trkpt lat="42.23831526774622" lon="19.70317987952078"><ele>548.0</ele><time>2026-05-03T10:58:40.001Z</time></trkpt><trkpt lat="42.23841960925298" lon="19.703170935968476"><ele>548.0</ele><time>2026-05-03T10:58:41.001Z</time></trkpt><trkpt lat="42.238509979110646" lon="19.70322339990821"><ele>548.0</ele><time>2026-05-03T10:58:43.001Z</time></trkpt><trkpt lat="42.23858309208782" lon="19.703286353927307"><ele>548.0</ele><time>2026-05-03T10:58:44.001Z</time></trkpt><trkpt lat="42.23868313366144" lon="19.703379896266362"><ele>548.0</ele><time>2026-05-03T10:58:45.001Z</time></trkpt><trkpt lat="42.23877429768883" lon="19.703449934716375"><ele>548.0</ele><time>2026-05-03T10:58:46.001Z</time></trkpt><trkpt lat="42.23887238197874" lon="19.703521232906184"><ele>550.1999999999999</ele><time>2026-05-03T10:58:47.001Z</time></trkpt><trkpt lat="42.239017112942136" lon="19.70356327598289"><ele>552.4</ele><time>2026-05-03T10:58:48.001Z</time></trkpt><trkpt lat="42.23910677020815" lon="19.70357358655908"><ele>554.5999999999999</ele><time>2026-05-03T10:58:49.001Z</time></trkpt><trkpt lat="42.23919170192831" lon="19.703541053065084"><ele>556.8</ele><time>2026-05-03T10:58:50.001Z</time></trkpt><trkpt lat="42.23927595482543" lon="19.703478177399735"><ele>559.0</ele><time>2026-05-03T10:58:51.001Z</time></trkpt><trkpt lat="42.23933530480211" lon="19.703365772283284"><ele>559.0</ele><time>2026-05-03T10:58:52.001Z</time></trkpt><trkpt lat="42.239281174235636" lon="19.703139427617057"><ele>559.0</ele><time>2026-05-03T10:58:53.001Z</time></trkpt><trkpt lat="42.23928368493578" lon="19.70304036089263"><ele>559.0</ele><time>2026-05-03T10:58:54.001Z</time></trkpt><trkpt lat="42.23928649365532" lon="19.702934561223152"><ele>559.0</ele><time>2026-05-03T10:58:55.001Z</time></trkpt><trkpt lat="42.2393125439901" lon="19.702850302932976"><ele>559.0</ele><time>2026-05-03T10:58:56.001Z</time></trkpt><trkpt lat="42.239339466974" lon="19.702748719544463"><ele>558.0</ele><time>2026-05-03T10:58:57.001Z</time></trkpt><trkpt lat="42.23941688066388" lon="19.702733759104525"><ele>557.0</ele><time>2026-05-03T10:58:58.001Z</time></trkpt><trkpt lat="42.239504236453165" lon="19.702635324264904"><ele>556.0</ele><time>2026-05-03T10:58:59.001Z</time></trkpt><trkpt lat="42.23959931918424" lon="19.702524962070726"><ele>555.0</ele><time>2026-05-03T10:59:00.001Z</time></trkpt><trkpt lat="42.23969372930128" lon="19.702407274957736"><ele>554.0</ele><time>2026-05-03T10:59:01.001Z</time></trkpt><trkpt lat="42.239772606740665" lon="19.702233957820273"><ele>557.4</ele><time>2026-05-03T10:59:02.001Z</time></trkpt><trkpt lat="42.239858900161586" lon="19.70218746166016"><ele>560.8</ele><time>2026-05-03T10:59:03.001Z</time></trkpt><trkpt lat="42.2399374641178" lon="19.702127470862834"><ele>564.2</ele><time>2026-05-03T10:59:04.001Z</time></trkpt><trkpt lat="42.24003513250053" lon="19.702073574423597"><ele>567.6</ele><time>2026-05-03T10:59:05.001Z</time></trkpt><trkpt lat="42.240154509895966" lon="19.70201606518095"><ele>571.0</ele><time>2026-05-03T10:59:06.001Z</time></trkpt><trkpt lat="42.240236252342406" lon="19.702002711697478"><ele>571.0</ele><time>2026-05-03T10:59:07.001Z</time></trkpt><trkpt lat="42.24030199183722" lon="19.70198728599773"><ele>571.0</ele><time>2026-05-03T10:59:08.001Z</time></trkpt><trkpt lat="42.24035123570726" lon="19.702090847365007"><ele>571.0</ele><time>2026-05-03T10:59:09.001Z</time></trkpt><trkpt lat="42.24045951177667" lon="19.702139588113603"><ele>571.0</ele><time>2026-05-03T10:59:10.001Z</time></trkpt><trkpt lat="42.240528852049096" lon="19.702168584799423"><ele>571.0</ele><time>2026-05-03T10:59:11.001Z</time></trkpt><trkpt lat="42.240668064440854" lon="19.701986235541465"><ele>571.6</ele><time>2026-05-03T10:59:13.001Z</time></trkpt><trkpt lat="42.240635174731295" lon="19.701868699812927"><ele>572.2</ele><time>2026-05-03T10:59:14.001Z</time></trkpt><trkpt lat="42.24064757666632" lon="19.701752551357778"><ele>572.8</ele><time>2026-05-03T10:59:15.001Z</time></trkpt><trkpt lat="42.24066062836226" lon="19.701630215112846"><ele>573.4</ele><time>2026-05-03T10:59:16.001Z</time></trkpt><trkpt lat="42.24069670096821" lon="19.70151121199746"><ele>574.0</ele><time>2026-05-03T10:59:17.001Z</time></trkpt><trkpt lat="42.24073562908443" lon="19.70136793488008"><ele>574.0</ele><time>2026-05-03T10:59:18.001Z</time></trkpt><trkpt lat="42.24080648278119" lon="19.701258701395364"><ele>574.0</ele><time>2026-05-03T10:59:19.001Z</time></trkpt><trkpt lat="42.24087906038084" lon="19.7011362327329"><ele>574.0</ele><time>2026-05-03T10:59:20.001Z</time></trkpt><trkpt lat="42.24095950414052" lon="19.701072686582894"><ele>574.0</ele><time>2026-05-03T10:59:21.001Z</time></trkpt><trkpt lat="42.24102100498299" lon="19.701009507865365"><ele>574.0</ele><time>2026-05-03T10:59:22.001Z</time></trkpt><trkpt lat="42.241057796573" lon="19.70108577728991"><ele>574.0</ele><time>2026-05-03T10:59:23.001Z</time></trkpt><trkpt lat="42.24113660026637" lon="19.701101981172606"><ele>574.0</ele><time>2026-05-03T10:59:24.001Z</time></trkpt><trkpt lat="42.24126111638557" lon="19.70112143112896"><ele>574.0</ele><time>2026-05-03T10:59:25.001Z</time></trkpt><trkpt lat="42.24136436818891" lon="19.701102452124612"><ele>574.0</ele><time>2026-05-03T10:59:26.001Z</time></trkpt><trkpt lat="42.24143080466216" lon="19.701076375537543"><ele>574.0</ele><time>2026-05-03T10:59:27.001Z</time></trkpt><trkpt lat="42.24148953543286" lon="19.70104236061128"><ele>574.0</ele><time>2026-05-03T10:59:28.001Z</time></trkpt><trkpt lat="42.24153480736113" lon="19.700900031941153"><ele>578.5</ele><time>2026-05-03T10:59:29.001Z</time></trkpt><trkpt lat="42.241497932317124" lon="19.700728776753323"><ele>583.0</ele><time>2026-05-03T10:59:30.001Z</time></trkpt><trkpt lat="42.241530536068375" lon="19.70062213639715"><ele>587.5</ele><time>2026-05-03T10:59:31.001Z</time></trkpt><trkpt lat="42.241577538598946" lon="19.700453135306418"><ele>592.0</ele><time>2026-05-03T10:59:32.001Z</time></trkpt><trkpt lat="42.241581381737916" lon="19.700318593341027"><ele>589.75</ele><time>2026-05-03T10:59:33.001Z</time></trkpt><trkpt lat="42.24161209217576" lon="19.700169442382343"><ele>587.5</ele><time>2026-05-03T10:59:34.001Z</time></trkpt><trkpt lat="42.24161835372109" lon="19.699992226575887"><ele>585.25</ele><time>2026-05-03T10:59:35.001Z</time></trkpt><trkpt lat="42.241644730948934" lon="19.699822985115464"><ele>583.0</ele><time>2026-05-03T10:59:36.001Z</time></trkpt><trkpt lat="42.241693248155904" lon="19.699703562565062"><ele>583.0</ele><time>2026-05-03T10:59:37.001Z</time></trkpt><trkpt lat="42.24175485397838" lon="19.69954723548216"><ele>583.0</ele><time>2026-05-03T10:59:38.001Z</time></trkpt><trkpt lat="42.241753775618555" lon="19.699358850862538"><ele>583.0</ele><time>2026-05-03T10:59:39.001Z</time></trkpt><trkpt lat="42.24179978188047" lon="19.6991996259071"><ele>583.0</ele><time>2026-05-03T10:59:40.001Z</time></trkpt><trkpt lat="42.241855408518234" lon="19.699083775801213"><ele>580.0</ele><time>2026-05-03T10:59:41.001Z</time></trkpt><trkpt lat="42.24187580725099" lon="19.69896546314991"><ele>577.0</ele><time>2026-05-03T10:59:42.001Z</time></trkpt><trkpt lat="42.24192431929765" lon="19.698831059777042"><ele>574.0</ele><time>2026-05-03T10:59:43.001Z</time></trkpt><trkpt lat="42.24198392946445" lon="19.698694466799807"><ele>571.0</ele><time>2026-05-03T10:59:44.001Z</time></trkpt><trkpt lat="42.24201326729863" lon="19.69861612779477"><ele>568.0</ele><time>2026-05-03T10:59:45.001Z</time></trkpt><trkpt lat="42.24208603219645" lon="19.698692893986507"><ele>568.0</ele><time>2026-05-03T10:59:46.001Z</time></trkpt><trkpt lat="42.242197546813124" lon="19.69867491486759"><ele>568.0</ele><time>2026-05-03T10:59:47.001Z</time></trkpt><trkpt lat="42.24229798643388" lon="19.698592449326632"><ele>568.0</ele><time>2026-05-03T10:59:48.001Z</time></trkpt><trkpt lat="42.242412328172016" lon="19.698497715546978"><ele>568.0</ele><time>2026-05-03T10:59:49.001Z</time></trkpt><trkpt lat="42.24248859513391" lon="19.698325619455165"><ele>572.0</ele><time>2026-05-03T10:59:50.001Z</time></trkpt><trkpt lat="42.24256583539683" lon="19.698222960484053"><ele>576.0</ele><time>2026-05-03T10:59:51.001Z</time></trkpt><trkpt lat="42.24263081775947" lon="19.698145090551897"><ele>580.0</ele><time>2026-05-03T10:59:52.001Z</time></trkpt><trkpt lat="42.24269754931583" lon="19.698125694429162"><ele>584.0</ele><time>2026-05-03T10:59:54.001Z</time></trkpt><trkpt lat="42.24269724216489" lon="19.69823063701496"><ele>588.0</ele><time>2026-05-03T10:59:57.001Z</time></trkpt><trkpt lat="42.24274210161772" lon="19.698302539278227"><ele>592.0</ele><time>2026-05-03T10:59:58.001Z</time></trkpt><trkpt lat="42.2427944340764" lon="19.69840512262632"><ele>592.0</ele><time>2026-05-03T10:59:59.001Z</time></trkpt><trkpt lat="42.24285246331424" lon="19.69853637233139"><ele>592.0</ele><time>2026-05-03T11:00:00.001Z</time></trkpt><trkpt lat="42.242914059254275" lon="19.698678996186537"><ele>592.0</ele><time>2026-05-03T11:00:01.001Z</time></trkpt><trkpt lat="42.24295893394195" lon="19.69878290240813"><ele>592.0</ele><time>2026-05-03T11:00:02.001Z</time></trkpt><trkpt lat="42.24299733947328" lon="19.698871829456454"><ele>592.0</ele><time>2026-05-03T11:00:04.001Z</time></trkpt><trkpt lat="42.2432033880099" lon="19.698694096797023"><ele>595.0</ele><time>2026-05-03T11:00:06.001Z</time></trkpt><trkpt lat="42.243216235632175" lon="19.698609538132"><ele>598.0</ele><time>2026-05-03T11:00:07.001Z</time></trkpt><trkpt lat="42.24320201578604" lon="19.698513822673316"><ele>601.0</ele><time>2026-05-03T11:00:08.001Z</time></trkpt><trkpt lat="42.24317218127755" lon="19.698389834193645"><ele>604.0</ele><time>2026-05-03T11:00:09.001Z</time></trkpt><trkpt lat="42.243172025779195" lon="19.6982661738893"><ele>607.0</ele><time>2026-05-03T11:00:10.002Z</time></trkpt><trkpt lat="42.24321395036623" lon="19.698141979863443"><ele>610.0</ele><time>2026-05-03T11:00:12.002Z</time></trkpt><trkpt lat="42.24331006608018" lon="19.698112726538483"><ele>610.0</ele><time>2026-05-03T11:00:14.002Z</time></trkpt><trkpt lat="42.2433765967094" lon="19.69815382198708"><ele>610.0</ele><time>2026-05-03T11:00:15.002Z</time></trkpt><trkpt lat="42.24342210450086" lon="19.698220498407263"><ele>610.0</ele><time>2026-05-03T11:00:16.002Z</time></trkpt><trkpt lat="42.24345705536125" lon="19.698301422597947"><ele>610.0</ele><time>2026-05-03T11:00:17.002Z</time></trkpt><trkpt lat="42.24351009035142" lon="19.698374977667605"><ele>610.0</ele><time>2026-05-03T11:00:18.002Z</time></trkpt><trkpt lat="42.24357250511405" lon="19.698409242741818"><ele>610.0</ele><time>2026-05-03T11:00:19.002Z</time></trkpt><trkpt lat="42.24366014303024" lon="19.698391112280394"><ele>610.0</ele><time>2026-05-03T11:00:20.002Z</time></trkpt><trkpt lat="42.24376752749188" lon="19.698379031896835"><ele>610.0</ele><time>2026-05-03T11:00:21.002Z</time></trkpt><trkpt lat="42.2438833220511" lon="19.698357197151143"><ele>610.0</ele><time>2026-05-03T11:00:22.002Z</time></trkpt><trkpt lat="42.24397976284805" lon="19.698334964085227"><ele>610.0</ele><time>2026-05-03T11:00:23.002Z</time></trkpt><trkpt lat="42.24403135347089" lon="19.698282807491264"><ele>610.0</ele><time>2026-05-03T11:00:24.002Z</time></trkpt><trkpt lat="42.24406436668635" lon="19.698182530392195"><ele>610.0</ele><time>2026-05-03T11:00:25.002Z</time></trkpt><trkpt lat="42.2440993144462" lon="19.6980471054666"><ele>609.2</ele><time>2026-05-03T11:00:26.001Z</time></trkpt><trkpt lat="42.2441436401091" lon="19.69791004502665"><ele>608.4</ele><time>2026-05-03T11:00:27.001Z</time></trkpt><trkpt lat="42.244203323604836" lon="19.697813702010357"><ele>607.6</ele><time>2026-05-03T11:00:28.001Z</time></trkpt><trkpt lat="42.2442744825075" lon="19.69775311039957"><ele>606.8</ele><time>2026-05-03T11:00:29.001Z</time></trkpt><trkpt lat="42.24435490331814" lon="19.6977358969238"><ele>606.0</ele><time>2026-05-03T11:00:30.001Z</time></trkpt><trkpt lat="42.24444128902317" lon="19.69774103326822"><ele>611.0</ele><time>2026-05-03T11:00:31.001Z</time></trkpt><trkpt lat="42.24455276235566" lon="19.69780952010069"><ele>616.0</ele><time>2026-05-03T11:00:33.001Z</time></trkpt><trkpt lat="42.244629734128786" lon="19.69794836177804"><ele>621.0</ele><time>2026-05-03T11:00:35.001Z</time></trkpt><trkpt lat="42.24468645423762" lon="19.698070603287817"><ele>626.0</ele><time>2026-05-03T11:00:36.001Z</time></trkpt><trkpt lat="42.24473987765963" lon="19.69821316764092"><ele>628.2</ele><time>2026-05-03T11:00:37.001Z</time></trkpt><trkpt lat="42.24479815911291" lon="19.698353308534408"><ele>630.4000000000001</ele><time>2026-05-03T11:00:38.001Z</time></trkpt><trkpt lat="42.24485826788183" lon="19.698433003847775"><ele>632.6</ele><time>2026-05-03T11:00:39.001Z</time></trkpt><trkpt lat="42.24493117639089" lon="19.698480523155418"><ele>634.8000000000001</ele><time>2026-05-03T11:00:40.001Z</time></trkpt><trkpt lat="42.24502798984229" lon="19.698534650456565"><ele>637.0</ele><time>2026-05-03T11:00:41.001Z</time></trkpt><trkpt lat="42.245098064862084" lon="19.69855269473611"><ele>637.0</ele><time>2026-05-03T11:00:42.001Z</time></trkpt><trkpt lat="42.245202453041216" lon="19.698465691799367"><ele>637.0</ele><time>2026-05-03T11:00:44.001Z</time></trkpt><trkpt lat="42.245235999161565" lon="19.69836503214526"><ele>637.0</ele><time>2026-05-03T11:00:45.001Z</time></trkpt><trkpt lat="42.24526074636453" lon="19.69824580974273"><ele>637.0</ele><time>2026-05-03T11:00:46.001Z</time></trkpt><trkpt lat="42.24532014995588" lon="19.698127834732503"><ele>637.0</ele><time>2026-05-03T11:00:47.001Z</time></trkpt><trkpt lat="42.24540208504294" lon="19.698072397410108"><ele>637.0</ele><time>2026-05-03T11:00:48.001Z</time></trkpt><trkpt lat="42.2455001815211" lon="19.69805972802154"><ele>637.0</ele><time>2026-05-03T11:00:49.001Z</time></trkpt><trkpt lat="42.24562195139165" lon="19.698032050616312"><ele>637.0</ele><time>2026-05-03T11:00:50.001Z</time></trkpt><trkpt lat="42.2457322038494" lon="19.69804080338911"><ele>637.0</ele><time>2026-05-03T11:00:51.001Z</time></trkpt><trkpt lat="42.24580647035861" lon="19.69808114861721"><ele>637.0</ele><time>2026-05-03T11:00:53.001Z</time></trkpt><trkpt lat="42.24580056265778" lon="19.698215281238287"><ele>637.0</ele><time>2026-05-03T11:00:55.001Z</time></trkpt><trkpt lat="42.245762822811955" lon="19.698284712654853"><ele>637.0</ele><time>2026-05-03T11:00:56.001Z</time></trkpt><trkpt lat="42.24561897438161" lon="19.69827888532075"><ele>637.0</ele><time>2026-05-03T11:00:58.001Z</time></trkpt><trkpt lat="42.24552906868379" lon="19.69827497269152"><ele>637.0</ele><time>2026-05-03T11:00:59.001Z</time></trkpt><trkpt lat="42.24542846525871" lon="19.698301206480632"><ele>637.0</ele><time>2026-05-03T11:01:00.001Z</time></trkpt><trkpt lat="42.24536435112736" lon="19.69835348838657"><ele>637.0</ele><time>2026-05-03T11:01:01.001Z</time></trkpt><trkpt lat="42.24533170689504" lon="19.69854338029419"><ele>637.0</ele><time>2026-05-03T11:01:03.001Z</time></trkpt><trkpt lat="42.24533849153868" lon="19.69869000062088"><ele>637.0</ele><time>2026-05-03T11:01:04.001Z</time></trkpt><trkpt lat="42.245319582790884" lon="19.698794398628475"><ele>637.0</ele><time>2026-05-03T11:01:05.001Z</time></trkpt><trkpt lat="42.245270929179135" lon="19.69886381396621"><ele>637.0</ele><time>2026-05-03T11:01:06.001Z</time></trkpt><trkpt lat="42.24519977837097" lon="19.698886762032636"><ele>638.2</ele><time>2026-05-03T11:01:07.001Z</time></trkpt><trkpt lat="42.245101847967675" lon="19.69888781704851"><ele>639.4000000000001</ele><time>2026-05-03T11:01:08.001Z</time></trkpt><trkpt lat="42.24500253221287" lon="19.698861217975885"><ele>640.5999999999999</ele><time>2026-05-03T11:01:09.001Z</time></trkpt><trkpt lat="42.24489405298627" lon="19.698810454794113"><ele>641.8</ele><time>2026-05-03T11:01:10.001Z</time></trkpt><trkpt lat="42.2447703471596" lon="19.69877814869915"><ele>643.0</ele><time>2026-05-03T11:01:11.001Z</time></trkpt><trkpt lat="42.24467868008685" lon="19.698796577680902"><ele>643.0</ele><time>2026-05-03T11:01:12.001Z</time></trkpt><trkpt lat="42.244624633658034" lon="19.698859940097403"><ele>643.0</ele><time>2026-05-03T11:01:13.001Z</time></trkpt><trkpt lat="42.244598582893516" lon="19.698961898157005"><ele>643.0</ele><time>2026-05-03T11:01:14.001Z</time></trkpt><trkpt lat="42.24456946447015" lon="19.699096251328786"><ele>643.0</ele><time>2026-05-03T11:01:15.001Z</time></trkpt><trkpt lat="42.24452360029384" lon="19.699248079772214"><ele>643.0</ele><time>2026-05-03T11:01:16.001Z</time></trkpt><trkpt lat="42.24444382018687" lon="19.69940723036053"><ele>649.5</ele><time>2026-05-03T11:01:17.001Z</time></trkpt><trkpt lat="42.244330065638195" lon="19.69954681820872"><ele>656.0</ele><time>2026-05-03T11:01:18.001Z</time></trkpt><trkpt lat="42.24419694158018" lon="19.699651908154202"><ele>662.5</ele><time>2026-05-03T11:01:19.001Z</time></trkpt><trkpt lat="42.24409156244709" lon="19.699694436384974"><ele>669.0</ele><time>2026-05-03T11:01:20.001Z</time></trkpt><trkpt lat="42.243999799021914" lon="19.699745734695906"><ele>664.8000000000001</ele><time>2026-05-03T11:01:21.001Z</time></trkpt><trkpt lat="42.24391165700282" lon="19.699801918631547"><ele>660.6</ele><time>2026-05-03T11:01:22.001Z</time></trkpt><trkpt lat="42.24384122734286" lon="19.699856552853024"><ele>656.4</ele><time>2026-05-03T11:01:23.001Z</time></trkpt><trkpt lat="42.24384053177412" lon="19.700018414448888"><ele>652.2</ele><time>2026-05-03T11:01:24.001Z</time></trkpt><trkpt lat="42.24379808280826" lon="19.700134251651892"><ele>648.0</ele><time>2026-05-03T11:01:25.001Z</time></trkpt><trkpt lat="42.24374778479051" lon="19.700249658097245"><ele>651.0</ele><time>2026-05-03T11:01:26.001Z</time></trkpt><trkpt lat="42.24368309021043" lon="19.700340558455835"><ele>654.0</ele><time>2026-05-03T11:01:27.001Z</time></trkpt><trkpt lat="42.243614268387795" lon="19.700454182922655"><ele>657.0</ele><time>2026-05-03T11:01:28.001Z</time></trkpt><trkpt lat="42.243622244765035" lon="19.700656164777254"><ele>660.0</ele><time>2026-05-03T11:01:29.001Z</time></trkpt><trkpt lat="42.243554306316675" lon="19.70080451549157"><ele>660.0</ele><time>2026-05-03T11:01:30.001Z</time></trkpt><trkpt lat="42.243488246452415" lon="19.70095274342899"><ele>660.0</ele><time>2026-05-03T11:01:31.001Z</time></trkpt><trkpt lat="42.24345749015421" lon="19.701092092540524"><ele>660.0</ele><time>2026-05-03T11:01:32.001Z</time></trkpt><trkpt lat="42.2434616242455" lon="19.701191924565677"><ele>660.0</ele><time>2026-05-03T11:01:33.001Z</time></trkpt><trkpt lat="42.24346368954252" lon="19.70127849297994"><ele>660.0</ele><time>2026-05-03T11:01:34.001Z</time></trkpt><trkpt lat="42.243437618515884" lon="19.70136625841509"><ele>660.0</ele><time>2026-05-03T11:01:35.001Z</time></trkpt><trkpt lat="42.24326973926721" lon="19.701349207484416"><ele>656.25</ele><time>2026-05-03T11:01:38.001Z</time></trkpt><trkpt lat="42.24319849071113" lon="19.70135133227184"><ele>652.5</ele><time>2026-05-03T11:01:39.001Z</time></trkpt><trkpt lat="42.243090351884305" lon="19.701476093239986"><ele>648.75</ele><time>2026-05-03T11:01:41.001Z</time></trkpt><trkpt lat="42.24305764372958" lon="19.701640211253988"><ele>645.0</ele><time>2026-05-03T11:01:42.001Z</time></trkpt><trkpt lat="42.24302081904834" lon="19.701808149397447"><ele>649.4</ele><time>2026-05-03T11:01:43.001Z</time></trkpt><trkpt lat="42.242986114163976" lon="19.701979313525545"><ele>653.8</ele><time>2026-05-03T11:01:44.001Z</time></trkpt><trkpt lat="42.24294493464358" lon="19.702131242231072"><ele>658.2</ele><time>2026-05-03T11:01:45.001Z</time></trkpt><trkpt lat="42.24292254339249" lon="19.70225533488927"><ele>662.6</ele><time>2026-05-03T11:01:46.001Z</time></trkpt><trkpt lat="42.24285600937845" lon="19.702298472317366"><ele>667.0</ele><time>2026-05-03T11:01:47.001Z</time></trkpt><trkpt lat="42.24277379550454" lon="19.702363254234807"><ele>667.0</ele><time>2026-05-03T11:01:48.001Z</time></trkpt><trkpt lat="42.24270720617224" lon="19.702418976239045"><ele>667.0</ele><time>2026-05-03T11:01:49.001Z</time></trkpt><trkpt lat="42.242647858347354" lon="19.702486989405923"><ele>667.0</ele><time>2026-05-03T11:01:50.001Z</time></trkpt><trkpt lat="42.24254594891362" lon="19.702609823122753"><ele>667.0</ele><time>2026-05-03T11:01:52.001Z</time></trkpt><trkpt lat="42.24247563004175" lon="19.70271170328895"><ele>667.0</ele><time>2026-05-03T11:01:53.001Z</time></trkpt><trkpt lat="42.24238757519174" lon="19.70284671200936"><ele>662.25</ele><time>2026-05-03T11:01:54.001Z</time></trkpt><trkpt lat="42.24230114811" lon="19.702996399959574"><ele>657.5</ele><time>2026-05-03T11:01:55.001Z</time></trkpt><trkpt lat="42.24224075260035" lon="19.703111493259094"><ele>652.75</ele><time>2026-05-03T11:01:56.001Z</time></trkpt><trkpt lat="42.24222295742724" lon="19.70325686320578"><ele>648.0</ele><time>2026-05-03T11:01:57.001Z</time></trkpt><trkpt lat="42.24221633074524" lon="19.703392756665554"><ele>648.0</ele><time>2026-05-03T11:01:58.001Z</time></trkpt><trkpt lat="42.24226840719111" lon="19.703544747643605"><ele>648.0</ele><time>2026-05-03T11:01:59.001Z</time></trkpt><trkpt lat="42.242291916784794" lon="19.703645943164343"><ele>648.0</ele><time>2026-05-03T11:02:00.001Z</time></trkpt><trkpt lat="42.24221516310295" lon="19.703678730068226"><ele>648.0</ele><time>2026-05-03T11:02:01Z</time></trkpt><trkpt lat="42.24210122046172" lon="19.703807072537575"><ele>648.0</ele><time>2026-05-03T11:02:03Z</time></trkpt><trkpt lat="42.242054911383725" lon="19.70389271722404"><ele>650.8</ele><time>2026-05-03T11:02:04Z</time></trkpt><trkpt lat="42.24203949299677" lon="19.703992900978843"><ele>653.5999999999999</ele><time>2026-05-03T11:02:05Z</time></trkpt><trkpt lat="42.24206114668748" lon="19.704138914585744"><ele>656.4000000000001</ele><time>2026-05-03T11:02:06Z</time></trkpt><trkpt lat="42.24206957991369" lon="19.704307717842866"><ele>659.2</ele><time>2026-05-03T11:02:07Z</time></trkpt><trkpt lat="42.24207662006878" lon="19.704493990146847"><ele>662.0</ele><time>2026-05-03T11:02:08Z</time></trkpt><trkpt lat="42.242037977035395" lon="19.704617888803536"><ele>664.8</ele><time>2026-05-03T11:02:09Z</time></trkpt><trkpt lat="42.242029358711434" lon="19.704715275826942"><ele>667.6</ele><time>2026-05-03T11:02:10Z</time></trkpt><trkpt lat="42.24209651851457" lon="19.70484608891549"><ele>670.4</ele><time>2026-05-03T11:02:12Z</time></trkpt><trkpt lat="42.242196165590386" lon="19.704845041052707"><ele>673.1999999999999</ele><time>2026-05-03T11:02:13Z</time></trkpt><trkpt lat="42.24226223368803" lon="19.704801261988386"><ele>676.0</ele><time>2026-05-03T11:02:14Z</time></trkpt><trkpt lat="42.24230387265697" lon="19.704693643336185"><ele>676.0</ele><time>2026-05-03T11:02:15Z</time></trkpt><trkpt lat="42.242326712339704" lon="19.70458027974789"><ele>676.0</ele><time>2026-05-03T11:02:16.001Z</time></trkpt><trkpt lat="42.24228875622815" lon="19.704440299448684"><ele>676.0</ele><time>2026-05-03T11:02:17.001Z</time></trkpt><trkpt lat="42.242279102172944" lon="19.70426662293689"><ele>676.0</ele><time>2026-05-03T11:02:18.001Z</time></trkpt><trkpt lat="42.242270050109404" lon="19.704100156132828"><ele>672.5</ele><time>2026-05-03T11:02:19.001Z</time></trkpt><trkpt lat="42.24225810274372" lon="19.70398593339441"><ele>669.0</ele><time>2026-05-03T11:02:20.001Z</time></trkpt><trkpt lat="42.24233294143857" lon="19.703878479808562"><ele>665.5</ele><time>2026-05-03T11:02:21.001Z</time></trkpt><trkpt lat="42.242408090326315" lon="19.703753094549427"><ele>662.0</ele><time>2026-05-03T11:02:22.001Z</time></trkpt><trkpt lat="42.242512937887746" lon="19.703612420068858"><ele>668.75</ele><time>2026-05-03T11:02:23.001Z</time></trkpt><trkpt lat="42.24261517955218" lon="19.70344227405698"><ele>675.5</ele><time>2026-05-03T11:02:24.001Z</time></trkpt><trkpt lat="42.24269289008169" lon="19.70325690208416"><ele>682.25</ele><time>2026-05-03T11:02:25.001Z</time></trkpt><trkpt lat="42.24275297443101" lon="19.703134414978067"><ele>689.0</ele><time>2026-05-03T11:02:26.001Z</time></trkpt><trkpt lat="42.24284889873251" lon="19.703072317170548"><ele>689.0</ele><time>2026-05-03T11:02:27.001Z</time></trkpt><trkpt lat="42.2429181661566" lon="19.702995118785566"><ele>689.0</ele><time>2026-05-03T11:02:28.001Z</time></trkpt><trkpt lat="42.24300990574564" lon="19.70301042321088"><ele>689.0</ele><time>2026-05-03T11:02:29.001Z</time></trkpt><trkpt lat="42.243119158255716" lon="19.7030206639441"><ele>689.0</ele><time>2026-05-03T11:02:30.001Z</time></trkpt><trkpt lat="42.24320454218784" lon="19.702985794542407"><ele>689.0</ele><time>2026-05-03T11:02:31.001Z</time></trkpt><trkpt lat="42.24327498246673" lon="19.702921310434782"><ele>692.0</ele><time>2026-05-03T11:02:32.001Z</time></trkpt><trkpt lat="42.24333353130474" lon="19.702792553906413"><ele>695.0</ele><time>2026-05-03T11:02:33Z</time></trkpt><trkpt lat="42.24337323552043" lon="19.702639286346308"><ele>698.0</ele><time>2026-05-03T11:02:34Z</time></trkpt><trkpt lat="42.24342610490136" lon="19.702450770575883"><ele>701.0</ele><time>2026-05-03T11:02:35Z</time></trkpt><trkpt lat="42.24348321091576" lon="19.702264119582306"><ele>701.0</ele><time>2026-05-03T11:02:36Z</time></trkpt><trkpt lat="42.24353425131258" lon="19.7021617640302"><ele>701.0</ele><time>2026-05-03T11:02:37Z</time></trkpt><trkpt lat="42.24358838860739" lon="19.702060333508797"><ele>701.0</ele><time>2026-05-03T11:02:38Z</time></trkpt><trkpt lat="42.2437137466115" lon="19.70214571149553"><ele>701.0</ele><time>2026-05-03T11:02:39Z</time></trkpt><trkpt lat="42.243809328859356" lon="19.702069823850028"><ele>701.0</ele><time>2026-05-03T11:02:40Z</time></trkpt><trkpt lat="42.243896692007404" lon="19.70199928103067"><ele>704.6666666666666</ele><time>2026-05-03T11:02:41Z</time></trkpt><trkpt lat="42.24397217220236" lon="19.701975029181312"><ele>708.3333333333333</ele><time>2026-05-03T11:02:42Z</time></trkpt><trkpt lat="42.24404524858077" lon="19.7019466106828"><ele>712.0</ele><time>2026-05-03T11:02:43Z</time></trkpt><trkpt lat="42.24411843195348" lon="19.70198212080794"><ele>715.6666666666666</ele><time>2026-05-03T11:02:44Z</time></trkpt><trkpt lat="42.244171924766555" lon="19.702033004485827"><ele>719.3333333333334</ele><time>2026-05-03T11:02:45Z</time></trkpt><trkpt lat="42.24422154672645" lon="19.70214756904937"><ele>723.0</ele><time>2026-05-03T11:02:46Z</time></trkpt><trkpt lat="42.244319176845536" lon="19.702260068529316"><ele>723.0</ele><time>2026-05-03T11:02:47Z</time></trkpt><trkpt lat="42.24440044172572" lon="19.70239816148772"><ele>723.0</ele><time>2026-05-03T11:02:48Z</time></trkpt><trkpt lat="42.244468784712396" lon="19.702458435276903"><ele>723.0</ele><time>2026-05-03T11:02:49Z</time></trkpt><trkpt lat="42.244539830163745" lon="19.702463837372097"><ele>723.0</ele><time>2026-05-03T11:02:51Z</time></trkpt><trkpt lat="42.24462909472986" lon="19.702399024998247"><ele>723.0</ele><time>2026-05-03T11:02:52Z</time></trkpt><trkpt lat="42.244637836141465" lon="19.702192592765613"><ele>723.0</ele><time>2026-05-03T11:02:53Z</time></trkpt><trkpt lat="42.24465406631816" lon="19.70206106435801"><ele>723.0</ele><time>2026-05-03T11:02:54Z</time></trkpt><trkpt lat="42.24462673434226" lon="19.70189662319325"><ele>723.0</ele><time>2026-05-03T11:02:55Z</time></trkpt><trkpt lat="42.24453687993885" lon="19.701724702950862"><ele>723.0</ele><time>2026-05-03T11:02:56Z</time></trkpt><trkpt lat="42.24452059945646" lon="19.70159565371728"><ele>723.8</ele><time>2026-05-03T11:02:57Z</time></trkpt><trkpt lat="42.24453415368304" lon="19.701506144178744"><ele>724.5999999999999</ele><time>2026-05-03T11:02:58Z</time></trkpt><trkpt lat="42.24462346163975" lon="19.701446546907356"><ele>725.4000000000001</ele><time>2026-05-03T11:02:59Z</time></trkpt><trkpt lat="42.244695179700045" lon="19.701410833368882"><ele>726.2</ele><time>2026-05-03T11:03:00Z</time></trkpt><trkpt lat="42.2448151914892" lon="19.701325920645694"><ele>727.0</ele><time>2026-05-03T11:03:01Z</time></trkpt><trkpt lat="42.24492811443789" lon="19.701231204022374"><ele>727.0</ele><time>2026-05-03T11:03:02Z</time></trkpt><trkpt lat="42.24504396253208" lon="19.701134033865507"><ele>727.0</ele><time>2026-05-03T11:03:03Z</time></trkpt><trkpt lat="42.245147534180276" lon="19.701073367074326"><ele>727.0</ele><time>2026-05-03T11:03:04Z</time></trkpt><trkpt lat="42.24527349413153" lon="19.701053356015628"><ele>727.0</ele><time>2026-05-03T11:03:05Z</time></trkpt><trkpt lat="42.2454213060072" lon="19.701053858782643"><ele>727.2</ele><time>2026-05-03T11:03:06Z</time></trkpt><trkpt lat="42.245570713369126" lon="19.70106427086668"><ele>727.4000000000001</ele><time>2026-05-03T11:03:07Z</time></trkpt><trkpt lat="42.245663557720874" lon="19.70104701710746"><ele>727.5999999999999</ele><time>2026-05-03T11:03:08Z</time></trkpt><trkpt lat="42.24572090728798" lon="19.7010011587521"><ele>727.8</ele><time>2026-05-03T11:03:09Z</time></trkpt><trkpt lat="42.245784834713405" lon="19.700972560773167"><ele>728.0</ele><time>2026-05-03T11:03:10Z</time></trkpt><trkpt lat="42.24586149680925" lon="19.701031605723955"><ele>729.1666666666666</ele><time>2026-05-03T11:03:12Z</time></trkpt><trkpt lat="42.24591010452675" lon="19.701154634604457"><ele>730.3333333333333</ele><time>2026-05-03T11:03:14Z</time></trkpt><trkpt lat="42.24590183068284" lon="19.701244518038997"><ele>731.5</ele><time>2026-05-03T11:03:15Z</time></trkpt><trkpt lat="42.24588554073198" lon="19.701328644960537"><ele>732.6666666666666</ele><time>2026-05-03T11:03:16Z</time></trkpt><trkpt lat="42.24581973375097" lon="19.70144158712922"><ele>733.8333333333334</ele><time>2026-05-03T11:03:18Z</time></trkpt><trkpt lat="42.245752083083204" lon="19.70146503850595"><ele>735.0</ele><time>2026-05-03T11:03:19Z</time></trkpt><trkpt lat="42.24566382943049" lon="19.701491880132817"><ele>733.4</ele><time>2026-05-03T11:03:20Z</time></trkpt><trkpt lat="42.24555830773884" lon="19.701523650957803"><ele>731.8</ele><time>2026-05-03T11:03:21Z</time></trkpt><trkpt lat="42.24546169787121" lon="19.701562708254507"><ele>730.2</ele><time>2026-05-03T11:03:22Z</time></trkpt><trkpt lat="42.245381105315374" lon="19.701620069182166"><ele>728.6</ele><time>2026-05-03T11:03:23Z</time></trkpt><trkpt lat="42.245303206319896" lon="19.70172203659375"><ele>727.0</ele><time>2026-05-03T11:03:24Z</time></trkpt><trkpt lat="42.24523899991835" lon="19.701838861253147"><ele>728.8</ele><time>2026-05-03T11:03:25Z</time></trkpt><trkpt lat="42.2451831955767" lon="19.701982360959406"><ele>730.6</ele><time>2026-05-03T11:03:26Z</time></trkpt><trkpt lat="42.24514705719806" lon="19.70212755378032"><ele>732.4</ele><time>2026-05-03T11:03:27Z</time></trkpt><trkpt lat="42.24512249712576" lon="19.70225592377142"><ele>734.1999999999999</ele><time>2026-05-03T11:03:28Z</time></trkpt><trkpt lat="42.24518160779401" lon="19.702380162056134"><ele>736.0</ele><time>2026-05-03T11:03:30Z</time></trkpt><trkpt lat="42.24524944196062" lon="19.702446570582705"><ele>736.0</ele><time>2026-05-03T11:03:31Z</time></trkpt><trkpt lat="42.24534424031954" lon="19.702506549387152"><ele>736.0</ele><time>2026-05-03T11:03:32Z</time></trkpt><trkpt lat="42.24544330664559" lon="19.70257918344687"><ele>736.0</ele><time>2026-05-03T11:03:33Z</time></trkpt><trkpt lat="42.245525326960454" lon="19.702640643442702"><ele>736.0</ele><time>2026-05-03T11:03:34Z</time></trkpt><trkpt lat="42.24560140831762" lon="19.702601747394"><ele>736.0</ele><time>2026-05-03T11:03:36Z</time></trkpt><trkpt lat="42.24562039836415" lon="19.70252031645016"><ele>739.0</ele><time>2026-05-03T11:03:37Z</time></trkpt><trkpt lat="42.24563028920894" lon="19.702396943713676"><ele>742.0</ele><time>2026-05-03T11:03:38Z</time></trkpt><trkpt lat="42.245653647126936" lon="19.70230298482712"><ele>745.0</ele><time>2026-05-03T11:03:39Z</time></trkpt><trkpt lat="42.24574522266335" lon="19.702315494475684"><ele>748.0</ele><time>2026-05-03T11:03:41Z</time></trkpt><trkpt lat="42.24588292755828" lon="19.702428794903454"><ele>751.0</ele><time>2026-05-03T11:03:43Z</time></trkpt><trkpt lat="42.245959976232065" lon="19.70252986318914"><ele>751.0</ele><time>2026-05-03T11:03:44Z</time></trkpt><trkpt lat="42.24601406824281" lon="19.702635934452093"><ele>751.0</ele><time>2026-05-03T11:03:45Z</time></trkpt><trkpt lat="42.2460441892542" lon="19.702737952276042"><ele>751.0</ele><time>2026-05-03T11:03:46Z</time></trkpt><trkpt lat="42.24600771956315" lon="19.702890498656657"><ele>751.0</ele><time>2026-05-03T11:03:48Z</time></trkpt><trkpt lat="42.2459541980922" lon="19.702958807344285"><ele>751.0</ele><time>2026-05-03T11:03:49Z</time></trkpt><trkpt lat="42.24589498848869" lon="19.703018774629832"><ele>751.0</ele><time>2026-05-03T11:03:50Z</time></trkpt><trkpt lat="42.24583198828958" lon="19.703110648404618"><ele>751.0</ele><time>2026-05-03T11:03:51Z</time></trkpt><trkpt lat="42.245796097849436" lon="19.7031819460561"><ele>751.0</ele><time>2026-05-03T11:03:52Z</time></trkpt><trkpt lat="42.24570406388159" lon="19.70317455137175"><ele>751.0</ele><time>2026-05-03T11:03:54Z</time></trkpt><trkpt lat="42.24561551938493" lon="19.703140478355593"><ele>751.0</ele><time>2026-05-03T11:03:55Z</time></trkpt><trkpt lat="42.245532517166744" lon="19.703136850631445"><ele>751.0</ele><time>2026-05-03T11:03:56Z</time></trkpt><trkpt lat="42.24545426243079" lon="19.7031759452903"><ele>751.0</ele><time>2026-05-03T11:03:57Z</time></trkpt><trkpt lat="42.24535405279052" lon="19.703232685731003"><ele>751.0</ele><time>2026-05-03T11:03:58Z</time></trkpt><trkpt lat="42.24527373952896" lon="19.703293751441826"><ele>751.0</ele><time>2026-05-03T11:03:59Z</time></trkpt><trkpt lat="42.24520684012717" lon="19.703390600324365"><ele>751.0</ele><time>2026-05-03T11:04:00Z</time></trkpt><trkpt lat="42.24516234084038" lon="19.703510402617823"><ele>751.0</ele><time>2026-05-03T11:04:01Z</time></trkpt><trkpt lat="42.24513547131475" lon="19.703639982206557"><ele>751.0</ele><time>2026-05-03T11:04:02Z</time></trkpt><trkpt lat="42.24510735325339" lon="19.70377556351315"><ele>750.75</ele><time>2026-05-03T11:04:03Z</time></trkpt><trkpt lat="42.24505191388092" lon="19.703874017089177"><ele>750.5</ele><time>2026-05-03T11:04:04Z</time></trkpt><trkpt lat="42.244957260999044" lon="19.703979783059232"><ele>750.25</ele><time>2026-05-03T11:04:05Z</time></trkpt><trkpt lat="42.244858141554154" lon="19.704099643368256"><ele>750.0</ele><time>2026-05-03T11:04:06Z</time></trkpt><trkpt lat="42.244759646438304" lon="19.70422838797738"><ele>750.0</ele><time>2026-05-03T11:04:07Z</time></trkpt><trkpt lat="42.24468719806927" lon="19.704348866824784"><ele>750.0</ele><time>2026-05-03T11:04:08Z</time></trkpt><trkpt lat="42.24462471108109" lon="19.704507363210872"><ele>750.0</ele><time>2026-05-03T11:04:09Z</time></trkpt><trkpt lat="42.2445472722354" lon="19.7046504518699"><ele>750.0</ele><time>2026-05-03T11:04:10Z</time></trkpt><trkpt lat="42.24445812039261" lon="19.70473779179179"><ele>755.25</ele><time>2026-05-03T11:04:11Z</time></trkpt><trkpt lat="42.24435298470214" lon="19.704765431869895"><ele>760.5</ele><time>2026-05-03T11:04:12Z</time></trkpt><trkpt lat="42.24422081079126" lon="19.704765673729543"><ele>765.75</ele><time>2026-05-03T11:04:13Z</time></trkpt><trkpt lat="42.244107026072676" lon="19.704774196538924"><ele>771.0</ele><time>2026-05-03T11:04:14Z</time></trkpt><trkpt lat="42.24401964872262" lon="19.70483590746842"><ele>764.1999999999999</ele><time>2026-05-03T11:04:15Z</time></trkpt><trkpt lat="42.243928729636224" lon="19.704948843856055"><ele>757.4</ele><time>2026-05-03T11:04:16Z</time></trkpt><trkpt lat="42.24386273156588" lon="19.705042057046295"><ele>750.6</ele><time>2026-05-03T11:04:17Z</time></trkpt><trkpt lat="42.24383932066214" lon="19.70516964017295"><ele>743.8</ele><time>2026-05-03T11:04:19Z</time></trkpt><trkpt lat="42.24388193740956" lon="19.70529903723002"><ele>737.0</ele><time>2026-05-03T11:04:21Z</time></trkpt><trkpt lat="42.24392002216622" lon="19.70539981329012"><ele>745.4000000000001</ele><time>2026-05-03T11:04:22.001Z</time></trkpt><trkpt lat="42.24396820210554" lon="19.705535506129113"><ele>753.8000000000001</ele><time>2026-05-03T11:04:23.001Z</time></trkpt><trkpt lat="42.24401830212289" lon="19.705653430064768"><ele>762.2</ele><time>2026-05-03T11:04:24.001Z</time></trkpt><trkpt lat="42.2440656916712" lon="19.70577399922436"><ele>770.6</ele><time>2026-05-03T11:04:25.001Z</time></trkpt><trkpt lat="42.24411451802841" lon="19.70589442238509"><ele>779.0</ele><time>2026-05-03T11:04:26.001Z</time></trkpt><trkpt lat="42.24414518086613" lon="19.705973722586705"><ele>779.0000000000001</ele><time>2026-05-03T11:04:27.001Z</time></trkpt><trkpt lat="42.24417547569751" lon="19.706071119678246"><ele>779.0</ele><time>2026-05-03T11:04:28.001Z</time></trkpt><trkpt lat="42.244199238648775" lon="19.70615267849391"><ele>779.0</ele><time>2026-05-03T11:04:29.001Z</time></trkpt><trkpt lat="42.24420796701827" lon="19.706278523393152"><ele>779.0</ele><time>2026-05-03T11:04:30.001Z</time></trkpt><trkpt lat="42.24421637070446" lon="19.706416793223624"><ele>779.0000000000001</ele><time>2026-05-03T11:04:31.001Z</time></trkpt><trkpt lat="42.24424333434303" lon="19.706553866269513"><ele>779.0</ele><time>2026-05-03T11:04:32.001Z</time></trkpt><trkpt lat="42.24428002771225" lon="19.706715114395696"><ele>779.0</ele><time>2026-05-03T11:04:33.001Z</time></trkpt><trkpt lat="42.24430911722718" lon="19.706880596875656"><ele>779.0</ele><time>2026-05-03T11:04:34.001Z</time></trkpt><trkpt lat="42.24433862841547" lon="19.707060862960624"><ele>779.0</ele><time>2026-05-03T11:04:35.001Z</time></trkpt><trkpt lat="42.24436778613223" lon="19.707258866933213"><ele>779.0</ele><time>2026-05-03T11:04:36.001Z</time></trkpt><trkpt lat="42.244396650644916" lon="19.707455851051673"><ele>779.0</ele><time>2026-05-03T11:04:37Z</time></trkpt><trkpt lat="42.24442348914838" lon="19.707616158803983"><ele>779.0</ele><time>2026-05-03T11:04:38Z</time></trkpt><trkpt lat="42.24446425230945" lon="19.70778748664433"><ele>779.0</ele><time>2026-05-03T11:04:39Z</time></trkpt><trkpt lat="42.24448353582703" lon="19.70799200379267"><ele>779.0</ele><time>2026-05-03T11:04:40Z</time></trkpt><trkpt lat="42.244507434906986" lon="19.708197385902334"><ele>780.0</ele><time>2026-05-03T11:04:41Z</time></trkpt><trkpt lat="42.24452524512072" lon="19.708404662542318"><ele>781.0</ele><time>2026-05-03T11:04:42Z</time></trkpt><trkpt lat="42.24452728697237" lon="19.70857553867008"><ele>782.0</ele><time>2026-05-03T11:04:43Z</time></trkpt><trkpt lat="42.24452178895416" lon="19.708725303752246"><ele>783.0</ele><time>2026-05-03T11:04:44Z</time></trkpt><trkpt lat="42.244534707187896" lon="19.708900635759093"><ele>784.4</ele><time>2026-05-03T11:04:45Z</time></trkpt><trkpt lat="42.24456123081641" lon="19.709060140305514"><ele>785.8</ele><time>2026-05-03T11:04:46Z</time></trkpt><trkpt lat="42.244575126868035" lon="19.70917282035388"><ele>787.2</ele><time>2026-05-03T11:04:47Z</time></trkpt><trkpt lat="42.244551034318654" lon="19.709267805139152"><ele>788.6</ele><time>2026-05-03T11:04:48Z</time></trkpt><trkpt lat="42.24448434674264" lon="19.709374927555437"><ele>790.0</ele><time>2026-05-03T11:04:49Z</time></trkpt><trkpt lat="42.24442760485409" lon="19.709486099192198"><ele>791.75</ele><time>2026-05-03T11:04:50Z</time></trkpt><trkpt lat="42.24438306266577" lon="19.709645808769938"><ele>793.5</ele><time>2026-05-03T11:04:51Z</time></trkpt><trkpt lat="42.24437146386625" lon="19.709813651021427"><ele>795.25</ele><time>2026-05-03T11:04:52Z</time></trkpt><trkpt lat="42.24438691671397" lon="19.70998254130637"><ele>797.0</ele><time>2026-05-03T11:04:53Z</time></trkpt><trkpt lat="42.244408629427504" lon="19.710160180880248"><ele>799.75</ele><time>2026-05-03T11:04:54Z</time></trkpt><trkpt lat="42.244404621444886" lon="19.71034386830622"><ele>802.5</ele><time>2026-05-03T11:04:55Z</time></trkpt><trkpt lat="42.24435643444144" lon="19.71051072895701"><ele>805.25</ele><time>2026-05-03T11:04:56Z</time></trkpt><trkpt lat="42.244309046715365" lon="19.7106902957478"><ele>808.0</ele><time>2026-05-03T11:04:57Z</time></trkpt><trkpt lat="42.244291649075485" lon="19.71086246758728"><ele>808.0</ele><time>2026-05-03T11:04:58Z</time></trkpt><trkpt lat="42.244277546899546" lon="19.71100667847027"><ele>808.0</ele><time>2026-05-03T11:04:59Z</time></trkpt><trkpt lat="42.24423677637085" lon="19.711124361535475"><ele>808.0</ele><time>2026-05-03T11:05:00Z</time></trkpt><trkpt lat="42.24415942319617" lon="19.711220093688684"><ele>808.0</ele><time>2026-05-03T11:05:01Z</time></trkpt><trkpt lat="42.24408881161887" lon="19.711309789287707"><ele>808.0</ele><time>2026-05-03T11:05:02Z</time></trkpt><trkpt lat="42.24406276064724" lon="19.711388057635673"><ele>811.5</ele><time>2026-05-03T11:05:03Z</time></trkpt><trkpt lat="42.244140946846514" lon="19.711576863206318"><ele>815.0</ele><time>2026-05-03T11:05:05Z</time></trkpt><trkpt lat="42.244186597042365" lon="19.711700947671023"><ele>818.5</ele><time>2026-05-03T11:05:06Z</time></trkpt><trkpt lat="42.2441973938825" lon="19.71184382411241"><ele>822.0</ele><time>2026-05-03T11:05:07Z</time></trkpt><trkpt lat="42.24420709571556" lon="19.71198195813357"><ele>822.2</ele><time>2026-05-03T11:05:08Z</time></trkpt><trkpt lat="42.24415213531458" lon="19.712108926843552"><ele>822.4000000000001</ele><time>2026-05-03T11:05:10Z</time></trkpt><trkpt lat="42.24408293089759" lon="19.712156118743838"><ele>822.5999999999999</ele><time>2026-05-03T11:05:11Z</time></trkpt><trkpt lat="42.243997902083535" lon="19.712244646789895"><ele>822.8</ele><time>2026-05-03T11:05:12Z</time></trkpt><trkpt lat="42.243946480157" lon="19.712359788073297"><ele>823.0</ele><time>2026-05-03T11:05:13Z</time></trkpt><trkpt lat="42.24394973390008" lon="19.712492256002584"><ele>823.0</ele><time>2026-05-03T11:05:14Z</time></trkpt><trkpt lat="42.24396567572371" lon="19.71265615012711"><ele>823.0</ele><time>2026-05-03T11:05:15Z</time></trkpt><trkpt lat="42.24398769161616" lon="19.712797117528385"><ele>823.0</ele><time>2026-05-03T11:05:16Z</time></trkpt><trkpt lat="42.24403653439036" lon="19.712918333261463"><ele>823.0</ele><time>2026-05-03T11:05:18Z</time></trkpt><trkpt lat="42.24414483057938" lon="19.712870520167925"><ele>823.0</ele><time>2026-05-03T11:05:20Z</time></trkpt><trkpt lat="42.244175566275416" lon="19.712780774828772"><ele>823.0</ele><time>2026-05-03T11:05:21Z</time></trkpt><trkpt lat="42.24418216130172" lon="19.712665184222367"><ele>823.0</ele><time>2026-05-03T11:05:22Z</time></trkpt><trkpt lat="42.24416280197459" lon="19.712519277354847"><ele>823.0</ele><time>2026-05-03T11:05:23Z</time></trkpt><trkpt lat="42.24413738165198" lon="19.712388325384907"><ele>823.0</ele><time>2026-05-03T11:05:24Z</time></trkpt><trkpt lat="42.24420031874895" lon="19.712258090747987"><ele>823.0</ele><time>2026-05-03T11:05:26Z</time></trkpt><trkpt lat="42.24432266489775" lon="19.71227860463111"><ele>823.0</ele><time>2026-05-03T11:05:28Z</time></trkpt><trkpt lat="42.24435021108969" lon="19.712359658440274"><ele>823.0</ele><time>2026-05-03T11:05:29Z</time></trkpt><trkpt lat="42.24435289732343" lon="19.712455942330138"><ele>823.0</ele><time>2026-05-03T11:05:30Z</time></trkpt><trkpt lat="42.244341925771124" lon="19.71255958231887"><ele>823.0</ele><time>2026-05-03T11:05:31Z</time></trkpt><trkpt lat="42.244322574047885" lon="19.712723648764378"><ele>823.0</ele><time>2026-05-03T11:05:32Z</time></trkpt><trkpt lat="42.244292360115416" lon="19.712906969772185"><ele>824.0</ele><time>2026-05-03T11:05:33Z</time></trkpt><trkpt lat="42.244258042391856" lon="19.71310921276213"><ele>825.0</ele><time>2026-05-03T11:05:34Z</time></trkpt><trkpt lat="42.24423279406834" lon="19.713297298372204"><ele>826.0</ele><time>2026-05-03T11:05:35Z</time></trkpt><trkpt lat="42.24423358450048" lon="19.713483014358413"><ele>827.0</ele><time>2026-05-03T11:05:36Z</time></trkpt><trkpt lat="42.24425689227047" lon="19.71369700849282"><ele>827.0</ele><time>2026-05-03T11:05:37Z</time></trkpt><trkpt lat="42.24428129767962" lon="19.713950108356656"><ele>827.0</ele><time>2026-05-03T11:05:38Z</time></trkpt><trkpt lat="42.24429945691603" lon="19.714204781508496"><ele>827.0</ele><time>2026-05-03T11:05:39Z</time></trkpt><trkpt lat="42.244338389690185" lon="19.71439772148496"><ele>825.3333333333334</ele><time>2026-05-03T11:05:40Z</time></trkpt><trkpt lat="42.24441013298644" lon="19.714598107840732"><ele>823.6666666666667</ele><time>2026-05-03T11:05:41Z</time></trkpt><trkpt lat="42.24447337194243" lon="19.71479195768921"><ele>822.0</ele><time>2026-05-03T11:05:42Z</time></trkpt><trkpt lat="42.244517913565225" lon="19.715003108422767"><ele>822.0</ele><time>2026-05-03T11:05:43Z</time></trkpt><trkpt lat="42.244573871376" lon="19.715208724380055"><ele>822.0</ele><time>2026-05-03T11:05:44Z</time></trkpt><trkpt lat="42.244654703652536" lon="19.715379814069085"><ele>822.0</ele><time>2026-05-03T11:05:45Z</time></trkpt><trkpt lat="42.24477035408386" lon="19.715526962607022"><ele>832.75</ele><time>2026-05-03T11:05:46Z</time></trkpt><trkpt lat="42.244905594545564" lon="19.715667151388285"><ele>843.5</ele><time>2026-05-03T11:05:47Z</time></trkpt><trkpt lat="42.24503916106367" lon="19.71577740722829"><ele>854.25</ele><time>2026-05-03T11:05:48Z</time></trkpt><trkpt lat="42.245107108965904" lon="19.715857832390114"><ele>865.0</ele><time>2026-05-03T11:05:49Z</time></trkpt><trkpt lat="42.24514710952902" lon="19.715927994073112"><ele>870.0</ele><time>2026-05-03T11:05:50Z</time></trkpt><trkpt lat="42.245165083731" lon="19.716149897601124"><ele>875.0</ele><time>2026-05-03T11:05:52Z</time></trkpt><trkpt lat="42.245181710512526" lon="19.716343003316922"><ele>880.0</ele><time>2026-05-03T11:05:53Z</time></trkpt><trkpt lat="42.24524438225325" lon="19.716533808601607"><ele>880.0</ele><time>2026-05-03T11:05:54Z</time></trkpt><trkpt lat="42.24528903499845" lon="19.716676128865522"><ele>880.0</ele><time>2026-05-03T11:05:55Z</time></trkpt><trkpt lat="42.24527895489676" lon="19.716829965808753"><ele>880.0</ele><time>2026-05-03T11:05:57Z</time></trkpt><trkpt lat="42.245228720158885" lon="19.716895999091843"><ele>880.0</ele><time>2026-05-03T11:05:58Z</time></trkpt><trkpt lat="42.24511195745599" lon="19.716865428005992"><ele>880.0</ele><time>2026-05-03T11:06:00Z</time></trkpt><trkpt lat="42.24503626620558" lon="19.716774593762466"><ele>880.0</ele><time>2026-05-03T11:06:01Z</time></trkpt><trkpt lat="42.24494027741508" lon="19.716672945253354"><ele>880.0</ele><time>2026-05-03T11:06:02Z</time></trkpt><trkpt lat="42.244809032532444" lon="19.716580415786666"><ele>880.0</ele><time>2026-05-03T11:06:03Z</time></trkpt><trkpt lat="42.24470880787199" lon="19.716532986888804"><ele>880.0</ele><time>2026-05-03T11:06:04Z</time></trkpt><trkpt lat="42.24462506712667" lon="19.7165230680549"><ele>879.6</ele><time>2026-05-03T11:06:05Z</time></trkpt><trkpt lat="42.24452857956222" lon="19.71654639015471"><ele>879.2</ele><time>2026-05-03T11:06:06Z</time></trkpt><trkpt lat="42.24441192215983" lon="19.716560849982432"><ele>878.8</ele><time>2026-05-03T11:06:07Z</time></trkpt><trkpt lat="42.244318688599506" lon="19.716635251534292"><ele>878.4</ele><time>2026-05-03T11:06:08Z</time></trkpt><trkpt lat="42.2442178689807" lon="19.716595000341922"><ele>878.0</ele><time>2026-05-03T11:06:09Z</time></trkpt><trkpt lat="42.24409941231625" lon="19.716553742266186"><ele>869.6666666666667</ele><time>2026-05-03T11:06:10Z</time></trkpt><trkpt lat="42.24396033368576" lon="19.716534900343262"><ele>861.3333333333333</ele><time>2026-05-03T11:06:11Z</time></trkpt><trkpt lat="42.243809488796195" lon="19.716580435086442"><ele>853.0</ele><time>2026-05-03T11:06:12Z</time></trkpt><trkpt lat="42.24358030223868" lon="19.71662329456321"><ele>853.0</ele><time>2026-05-03T11:06:13Z</time></trkpt><trkpt lat="42.24343480137057" lon="19.71672981027214"><ele>853.0</ele><time>2026-05-03T11:06:14Z</time></trkpt><trkpt lat="42.24334195994046" lon="19.716810551424825"><ele>853.0</ele><time>2026-05-03T11:06:15Z</time></trkpt><trkpt lat="42.24329110875781" lon="19.71688616508172"><ele>853.0</ele><time>2026-05-03T11:06:16Z</time></trkpt><trkpt lat="42.243259743480024" lon="19.7169983896584"><ele>853.0</ele><time>2026-05-03T11:06:17Z</time></trkpt><trkpt lat="42.24325128789799" lon="19.717165511955542"><ele>858.6666666666666</ele><time>2026-05-03T11:06:18Z</time></trkpt><trkpt lat="42.24327737690794" lon="19.717349490191495"><ele>864.3333333333333</ele><time>2026-05-03T11:06:19Z</time></trkpt><trkpt lat="42.243337567314214" lon="19.717565711668765"><ele>870.0</ele><time>2026-05-03T11:06:20Z</time></trkpt><trkpt lat="42.24341221630799" lon="19.717783165025732"><ele>872.2</ele><time>2026-05-03T11:06:21Z</time></trkpt><trkpt lat="42.24346783448222" lon="19.717896711021762"><ele>874.4</ele><time>2026-05-03T11:06:22Z</time></trkpt><trkpt lat="42.24347304900964" lon="19.718027172509824"><ele>876.5999999999999</ele><time>2026-05-03T11:06:24Z</time></trkpt><trkpt lat="42.24337393160026" lon="19.718128684378616"><ele>878.8</ele><time>2026-05-03T11:06:25.999Z</time></trkpt><trkpt lat="42.24330951185074" lon="19.718180792239778"><ele>881.0</ele><time>2026-05-03T11:06:26.999Z</time></trkpt><trkpt lat="42.24334398880737" lon="19.71810606307768"><ele>881.0000000000001</ele><time>2026-05-03T11:06:54Z</time></trkpt><trkpt lat="42.24336465919367" lon="19.718024412976913"><ele>881.0</ele><time>2026-05-03T11:06:59Z</time></trkpt><trkpt lat="42.24332589163347" lon="19.71809529620242"><ele>881.0</ele><time>2026-05-03T11:09:11Z</time></trkpt><trkpt lat="42.2433025648084" lon="19.718194289276724"><ele>881.0</ele><time>2026-05-03T11:10:08.999Z</time></trkpt><trkpt lat="42.24335206591679" lon="19.718275181678006"><ele>881.0000000000001</ele><time>2026-05-03T11:10:10.999Z</time></trkpt><trkpt lat="42.243445980677656" lon="19.71840241789587"><ele>881.0</ele><time>2026-05-03T11:10:12.999Z</time></trkpt><trkpt lat="42.24350400013829" lon="19.718512654024675"><ele>882.5999999999999</ele><time>2026-05-03T11:10:14.999Z</time></trkpt><trkpt lat="42.243452154210495" lon="19.718635028039643"><ele>884.1999999999999</ele><time>2026-05-03T11:10:17.999Z</time></trkpt><trkpt lat="42.2433116598186" lon="19.718650441417587"><ele>885.8000000000001</ele><time>2026-05-03T11:10:19.999Z</time></trkpt><trkpt lat="42.24321285888398" lon="19.718674996061505"><ele>887.4000000000001</ele><time>2026-05-03T11:10:20.999Z</time></trkpt><trkpt lat="42.24312568220931" lon="19.718739650947814"><ele>889.0</ele><time>2026-05-03T11:10:21.999Z</time></trkpt><trkpt lat="42.243037695843874" lon="19.718866998597033"><ele>889.0</ele><time>2026-05-03T11:10:22.999Z</time></trkpt><trkpt lat="42.24295444350694" lon="19.719020148996865"><ele>889.0000000000001</ele><time>2026-05-03T11:10:23.999Z</time></trkpt><trkpt lat="42.242878318025426" lon="19.71911878931602"><ele>889.0000000000001</ele><time>2026-05-03T11:10:24.999Z</time></trkpt><trkpt lat="42.24279745134978" lon="19.71914088602791"><ele>889.0</ele><time>2026-05-03T11:10:25.999Z</time></trkpt><trkpt lat="42.24270221022903" lon="19.71913157769469"><ele>889.0</ele><time>2026-05-03T11:10:26.999Z</time></trkpt><trkpt lat="42.24258784534563" lon="19.719091129571776"><ele>888.9999999999999</ele><time>2026-05-03T11:10:27.999Z</time></trkpt><trkpt lat="42.242514142354615" lon="19.719065141034907"><ele>889.0</ele><time>2026-05-03T11:10:28.999Z</time></trkpt><trkpt lat="42.24245563295256" lon="19.71914432078699"><ele>889.0</ele><time>2026-05-03T11:10:30.999Z</time></trkpt><trkpt lat="42.24250314092157" lon="19.719265736176887"><ele>889.0</ele><time>2026-05-03T11:10:32.999Z</time></trkpt><trkpt lat="42.24261635956116" lon="19.719274426217037"><ele>888.9999999999999</ele><time>2026-05-03T11:10:34.999Z</time></trkpt><trkpt lat="42.24268389033178" lon="19.719307304608243"><ele>889.0</ele><time>2026-05-03T11:10:35.999Z</time></trkpt><trkpt lat="42.24277523926849" lon="19.719350799106625"><ele>889.0</ele><time>2026-05-03T11:10:36.999Z</time></trkpt><trkpt lat="42.242892735711564" lon="19.719397105792176"><ele>889.0</ele><time>2026-05-03T11:10:37.999Z</time></trkpt><trkpt lat="42.243016759469306" lon="19.719451583642055"><ele>889.0</ele><time>2026-05-03T11:10:38.999Z</time></trkpt><trkpt lat="42.24315274544354" lon="19.719518620619045"><ele>889.0</ele><time>2026-05-03T11:10:39.999Z</time></trkpt><trkpt lat="42.24329207648034" lon="19.719571629814"><ele>890.8333333333333</ele><time>2026-05-03T11:10:40.999Z</time></trkpt><trkpt lat="42.24339297755157" lon="19.71959672245827"><ele>892.6666666666666</ele><time>2026-05-03T11:10:41.999Z</time></trkpt><trkpt lat="42.24346608423184" lon="19.719592001560386"><ele>894.5</ele><time>2026-05-03T11:10:42.999Z</time></trkpt><trkpt lat="42.24353647183352" lon="19.719541673314303"><ele>896.3333333333333</ele><time>2026-05-03T11:10:43.999Z</time></trkpt><trkpt lat="42.243586488311884" lon="19.719451434976442"><ele>898.1666666666666</ele><time>2026-05-03T11:10:44.999Z</time></trkpt><trkpt lat="42.24362427603475" lon="19.71932012494497"><ele>900.0</ele><time>2026-05-03T11:10:45.999Z</time></trkpt><trkpt lat="42.24366579260876" lon="19.71918398193327"><ele>900.0</ele><time>2026-05-03T11:10:46.999Z</time></trkpt><trkpt lat="42.24371720615777" lon="19.719123918393226"><ele>900.0</ele><time>2026-05-03T11:10:47.999Z</time></trkpt><trkpt lat="42.243806897407396" lon="19.719120117380555"><ele>900.0</ele><time>2026-05-03T11:10:49.999Z</time></trkpt><trkpt lat="42.24383021307232" lon="19.719238026195935"><ele>900.0</ele><time>2026-05-03T11:10:51.999Z</time></trkpt><trkpt lat="42.24381319412309" lon="19.719322736283083"><ele>900.0</ele><time>2026-05-03T11:10:52.999Z</time></trkpt><trkpt lat="42.24376767588718" lon="19.71943913450778"><ele>900.0</ele><time>2026-05-03T11:10:53.999Z</time></trkpt><trkpt lat="42.243723322908856" lon="19.71957670979478"><ele>903.6666666666666</ele><time>2026-05-03T11:10:54.999Z</time></trkpt><trkpt lat="42.243682301054335" lon="19.719705218623016"><ele>907.3333333333333</ele><time>2026-05-03T11:10:55.999Z</time></trkpt><trkpt lat="42.2436416572421" lon="19.71978897291054"><ele>911.0</ele><time>2026-05-03T11:10:56.999Z</time></trkpt><trkpt lat="42.24357760123803" lon="19.719850416816005"><ele>914.6666666666666</ele><time>2026-05-03T11:10:57.999Z</time></trkpt><trkpt lat="42.24349065542826" lon="19.71987768184855"><ele>918.3333333333333</ele><time>2026-05-03T11:10:58.999Z</time></trkpt><trkpt lat="42.24339100811875" lon="19.719875165162517"><ele>922.0</ele><time>2026-05-03T11:10:59.999Z</time></trkpt><trkpt lat="42.24325857050848" lon="19.719842749059055"><ele>918.3333333333333</ele><time>2026-05-03T11:11:00.999Z</time></trkpt><trkpt lat="42.24310608115934" lon="19.719810222063145"><ele>914.6666666666667</ele><time>2026-05-03T11:11:01.999Z</time></trkpt><trkpt lat="42.24292758649644" lon="19.71978418089587"><ele>911.0</ele><time>2026-05-03T11:11:02.999Z</time></trkpt><trkpt lat="42.242786503778525" lon="19.71978134677123"><ele>911.0000000000001</ele><time>2026-05-03T11:11:03.999Z</time></trkpt><trkpt lat="42.242701450903716" lon="19.719788118204555"><ele>911.0</ele><time>2026-05-03T11:11:04.999Z</time></trkpt><trkpt lat="42.242635616683444" lon="19.719837819351934"><ele>911.0</ele><time>2026-05-03T11:11:05.999Z</time></trkpt><trkpt lat="42.24259851920484" lon="19.719912324726927"><ele>911.0</ele><time>2026-05-03T11:11:06.999Z</time></trkpt><trkpt lat="42.24257112797299" lon="19.720019493905173"><ele>911.0000000000001</ele><time>2026-05-03T11:11:07.999Z</time></trkpt><trkpt lat="42.24254975766108" lon="19.720169934603586"><ele>911.0</ele><time>2026-05-03T11:11:08.999Z</time></trkpt><trkpt lat="42.242523413754405" lon="19.720285181544"><ele>913.5999999999999</ele><time>2026-05-03T11:11:09.999Z</time></trkpt><trkpt lat="42.24246613636253" lon="19.720353751926588"><ele>916.1999999999999</ele><time>2026-05-03T11:11:10.999Z</time></trkpt><trkpt lat="42.242369718132174" lon="19.720416601580016"><ele>918.8000000000001</ele><time>2026-05-03T11:11:11.999Z</time></trkpt><trkpt lat="42.2422657927257" lon="19.72046493174409"><ele>921.4000000000001</ele><time>2026-05-03T11:11:12.999Z</time></trkpt><trkpt lat="42.24215085800369" lon="19.720544694016045"><ele>924.0</ele><time>2026-05-03T11:11:13.999Z</time></trkpt><trkpt lat="42.242022697254164" lon="19.720646437329183"><ele>924.0</ele><time>2026-05-03T11:11:14.999Z</time></trkpt><trkpt lat="42.24189357238053" lon="19.72076762530343"><ele>924.0</ele><time>2026-05-03T11:11:15.999Z</time></trkpt><trkpt lat="42.241772845158614" lon="19.720901090130827"><ele>924.0</ele><time>2026-05-03T11:11:16.999Z</time></trkpt><trkpt lat="42.24166051692395" lon="19.721079641930213"><ele>924.6666666666667</ele><time>2026-05-03T11:11:17.999Z</time></trkpt><trkpt lat="42.2415496383581" lon="19.72128284098269"><ele>925.3333333333334</ele><time>2026-05-03T11:11:18.999Z</time></trkpt><trkpt lat="42.241462497089884" lon="19.721473284432967"><ele>926.0</ele><time>2026-05-03T11:11:19.999Z</time></trkpt><trkpt lat="42.24139103546892" lon="19.72162594660966"><ele>926.0</ele><time>2026-05-03T11:11:20.999Z</time></trkpt><trkpt lat="42.24133710092468" lon="19.721744434207725"><ele>925.9999999999999</ele><time>2026-05-03T11:11:21.999Z</time></trkpt><trkpt lat="42.24128100420849" lon="19.721830740754676"><ele>925.9999999999999</ele><time>2026-05-03T11:11:22.999Z</time></trkpt><trkpt lat="42.24118978889733" lon="19.7218823106759"><ele>926.0</ele><time>2026-05-03T11:11:23.999Z</time></trkpt><trkpt lat="42.24106468766089" lon="19.72191126656203"><ele>926.0</ele><time>2026-05-03T11:11:24.999Z</time></trkpt><trkpt lat="42.24095577889178" lon="19.72197348848496"><ele>927.8</ele><time>2026-05-03T11:11:25.999Z</time></trkpt><trkpt lat="42.24091021852944" lon="19.722134481467428"><ele>929.5999999999999</ele><time>2026-05-03T11:11:27.999Z</time></trkpt><trkpt lat="42.24092163936786" lon="19.722242141098135"><ele>931.4</ele><time>2026-05-03T11:11:28.999Z</time></trkpt><trkpt lat="42.24097641304384" lon="19.722333202354033"><ele>933.2</ele><time>2026-05-03T11:11:29.999Z</time></trkpt><trkpt lat="42.24105866685708" lon="19.72240704396699"><ele>935.0</ele><time>2026-05-03T11:11:30.999Z</time></trkpt><trkpt lat="42.241159601070805" lon="19.72243747430092"><ele>935.0</ele><time>2026-05-03T11:11:31.999Z</time></trkpt><trkpt lat="42.241257865726126" lon="19.722409059672863"><ele>935.0</ele><time>2026-05-03T11:11:32.999Z</time></trkpt><trkpt lat="42.24136015515186" lon="19.722371363398693"><ele>935.0</ele><time>2026-05-03T11:11:33.999Z</time></trkpt><trkpt lat="42.24145214846608" lon="19.722403752696835"><ele>935.0</ele><time>2026-05-03T11:11:35.999Z</time></trkpt><trkpt lat="42.24146344408002" lon="19.722516806906164"><ele>935.0</ele><time>2026-05-03T11:11:37.999Z</time></trkpt><trkpt lat="42.24140024198674" lon="19.722693965328588"><ele>934.4</ele><time>2026-05-03T11:11:39.999Z</time></trkpt><trkpt lat="42.24137747869161" lon="19.72279195011896"><ele>933.8</ele><time>2026-05-03T11:11:40.999Z</time></trkpt><trkpt lat="42.24137345498479" lon="19.7229505748833"><ele>933.2</ele><time>2026-05-03T11:11:41.999Z</time></trkpt><trkpt lat="42.241393915215475" lon="19.723107629084787"><ele>932.6</ele><time>2026-05-03T11:11:42.999Z</time></trkpt><trkpt lat="42.24142024919455" lon="19.723284834909638"><ele>932.0</ele><time>2026-05-03T11:11:43.999Z</time></trkpt><trkpt lat="42.241442422244134" lon="19.723482728584646"><ele>932.2</ele><time>2026-05-03T11:11:44.999Z</time></trkpt><trkpt lat="42.24143979917076" lon="19.723631311784445"><ele>932.4000000000001</ele><time>2026-05-03T11:11:45.999Z</time></trkpt><trkpt lat="42.241423710144254" lon="19.72376134946095"><ele>932.5999999999999</ele><time>2026-05-03T11:11:46.999Z</time></trkpt><trkpt lat="42.24137975083173" lon="19.72385724842907"><ele>932.8</ele><time>2026-05-03T11:11:47.999Z</time></trkpt><trkpt lat="42.241308689506845" lon="19.723951599927865"><ele>933.0</ele><time>2026-05-03T11:11:48.999Z</time></trkpt><trkpt lat="42.241247456337405" lon="19.724035104367946"><ele>933.0</ele><time>2026-05-03T11:11:49.999Z</time></trkpt><trkpt lat="42.241229106558215" lon="19.724134904532278"><ele>933.0</ele><time>2026-05-03T11:11:50.999Z</time></trkpt><trkpt lat="42.2412526143329" lon="19.724247700664115"><ele>933.0</ele><time>2026-05-03T11:11:51.999Z</time></trkpt><trkpt lat="42.24129663021937" lon="19.724408198757054"><ele>933.0</ele><time>2026-05-03T11:11:52.999Z</time></trkpt><trkpt lat="42.24134783003611" lon="19.7245846978522"><ele>933.0</ele><time>2026-05-03T11:11:53.999Z</time></trkpt><trkpt lat="42.241406006700274" lon="19.724778564062003"><ele>934.25</ele><time>2026-05-03T11:11:54.999Z</time></trkpt><trkpt lat="42.24145385571678" lon="19.724969779129776"><ele>935.5</ele><time>2026-05-03T11:11:55.999Z</time></trkpt><trkpt lat="42.24149388492999" lon="19.725180819175595"><ele>936.75</ele><time>2026-05-03T11:11:56.999Z</time></trkpt><trkpt lat="42.24151192831345" lon="19.725365798404567"><ele>938.0</ele><time>2026-05-03T11:11:57.999Z</time></trkpt><trkpt lat="42.24150761477611" lon="19.72548045480086"><ele>941.0</ele><time>2026-05-03T11:11:58.999Z</time></trkpt><trkpt lat="42.24145929008234" lon="19.725581945473458"><ele>944.0</ele><time>2026-05-03T11:11:59.999Z</time></trkpt><trkpt lat="42.24138379308939" lon="19.725672779070933"><ele>947.0</ele><time>2026-05-03T11:12:00.999Z</time></trkpt><trkpt lat="42.2412830780203" lon="19.72577867153765"><ele>950.0</ele><time>2026-05-03T11:12:01.999Z</time></trkpt><trkpt lat="42.24121443325214" lon="19.725900253748595"><ele>953.0</ele><time>2026-05-03T11:12:02.999Z</time></trkpt><trkpt lat="42.24119505390051" lon="19.726057517541626"><ele>958.6666666666667</ele><time>2026-05-03T11:12:03.999Z</time></trkpt><trkpt lat="42.241196859960446" lon="19.726245741603453"><ele>964.3333333333333</ele><time>2026-05-03T11:12:04.999Z</time></trkpt><trkpt lat="42.24119403794172" lon="19.72648842930137"><ele>970.0</ele><time>2026-05-03T11:12:05.999Z</time></trkpt><trkpt lat="42.241174939018954" lon="19.726725237872962"><ele>976.3333333333333</ele><time>2026-05-03T11:12:06.999Z</time></trkpt><trkpt lat="42.24116651909295" lon="19.726999854927755"><ele>982.6666666666667</ele><time>2026-05-03T11:12:07.999Z</time></trkpt><trkpt lat="42.24117887577613" lon="19.727224923461993"><ele>989.0</ele><time>2026-05-03T11:12:08.999Z</time></trkpt><trkpt lat="42.24117371447621" lon="19.72734952816765"><ele>989.0</ele><time>2026-05-03T11:12:09.999Z</time></trkpt><trkpt lat="42.241153541996816" lon="19.727442284329083"><ele>989.0</ele><time>2026-05-03T11:12:10.999Z</time></trkpt><trkpt lat="42.241029447059915" lon="19.727559564426155"><ele>989.0</ele><time>2026-05-03T11:12:12.999Z</time></trkpt><trkpt lat="42.24092756572495" lon="19.727603251037127"><ele>989.0</ele><time>2026-05-03T11:12:13.999Z</time></trkpt><trkpt lat="42.240806265153545" lon="19.72764710242578"><ele>989.0</ele><time>2026-05-03T11:12:14.999Z</time></trkpt><trkpt lat="42.2406843863098" lon="19.727696155272334"><ele>989.0</ele><time>2026-05-03T11:12:15.999Z</time></trkpt><trkpt lat="42.24057892011878" lon="19.72776794199717"><ele>989.0</ele><time>2026-05-03T11:12:16.999Z</time></trkpt><trkpt lat="42.240488259572544" lon="19.7278941408448"><ele>989.0</ele><time>2026-05-03T11:12:17.999Z</time></trkpt><trkpt lat="42.24038614067805" lon="19.728063226442003"><ele>991.0</ele><time>2026-05-03T11:12:18.999Z</time></trkpt><trkpt lat="42.24027808645991" lon="19.728222520774363"><ele>993.0</ele><time>2026-05-03T11:12:19.999Z</time></trkpt><trkpt lat="42.240193103858786" lon="19.728314289068226"><ele>995.0</ele><time>2026-05-03T11:12:20.999Z</time></trkpt><trkpt lat="42.24009902856848" lon="19.728361574876512"><ele>997.0</ele><time>2026-05-03T11:12:21.999Z</time></trkpt><trkpt lat="42.23999071694076" lon="19.72838274380475"><ele>997.0</ele><time>2026-05-03T11:12:22.999Z</time></trkpt><trkpt lat="42.239844841321386" lon="19.728389309812506"><ele>997.0</ele><time>2026-05-03T11:12:23.999Z</time></trkpt><trkpt lat="42.23969025062064" lon="19.728376229237476"><ele>997.0</ele><time>2026-05-03T11:12:24.999Z</time></trkpt><trkpt lat="42.23955369954178" lon="19.728364024782024"><ele>997.0</ele><time>2026-05-03T11:12:25.999Z</time></trkpt><trkpt lat="42.23947617261502" lon="19.728390146702697"><ele>993.25</ele><time>2026-05-03T11:12:26.999Z</time></trkpt><trkpt lat="42.239423922943324" lon="19.728446046940643"><ele>989.5</ele><time>2026-05-03T11:12:27.999Z</time></trkpt><trkpt lat="42.23934299762194" lon="19.728554691551153"><ele>985.75</ele><time>2026-05-03T11:12:28.999Z</time></trkpt><trkpt lat="42.239245200075516" lon="19.728659260550565"><ele>982.0</ele><time>2026-05-03T11:12:29.999Z</time></trkpt><trkpt lat="42.23911363885412" lon="19.728755388069114"><ele>985.5</ele><time>2026-05-03T11:12:30.999Z</time></trkpt><trkpt lat="42.23899005850732" lon="19.728891181718623"><ele>989.0</ele><time>2026-05-03T11:12:31.999Z</time></trkpt><trkpt lat="42.2389200327037" lon="19.72903292228852"><ele>992.5</ele><time>2026-05-03T11:12:32.999Z</time></trkpt><trkpt lat="42.23888298034425" lon="19.72916452409112"><ele>996.0</ele><time>2026-05-03T11:12:33.999Z</time></trkpt><trkpt lat="42.238844991722296" lon="19.729320182165104"><ele>1004.75</ele><time>2026-05-03T11:12:34.999Z</time></trkpt><trkpt lat="42.238782288313224" lon="19.729414519203566"><ele>1013.5</ele><time>2026-05-03T11:12:35.999Z</time></trkpt><trkpt lat="42.238695672948" lon="19.729467853958354"><ele>1022.25</ele><time>2026-05-03T11:12:36.999Z</time></trkpt><trkpt lat="42.23857547777417" lon="19.729510441350595"><ele>1031.0</ele><time>2026-05-03T11:12:37.999Z</time></trkpt><trkpt lat="42.23843838721754" lon="19.729520086615796"><ele>1031.0</ele><time>2026-05-03T11:12:38.999Z</time></trkpt><trkpt lat="42.238300669501406" lon="19.729528619783874"><ele>1031.0</ele><time>2026-05-03T11:12:39.999Z</time></trkpt><trkpt lat="42.23815106327039" lon="19.72955119713952"><ele>1031.0</ele><time>2026-05-03T11:12:40.999Z</time></trkpt><trkpt lat="42.23804757543552" lon="19.729573679119014"><ele>1031.0</ele><time>2026-05-03T11:12:41.999Z</time></trkpt><trkpt lat="42.237976990187235" lon="19.72961513648841"><ele>1023.8</ele><time>2026-05-03T11:12:42.999Z</time></trkpt><trkpt lat="42.237934929146135" lon="19.729690431794303"><ele>1016.5999999999999</ele><time>2026-05-03T11:12:43.999Z</time></trkpt><trkpt lat="42.2379161397262" lon="19.7297889826342"><ele>1009.4</ele><time>2026-05-03T11:12:44.999Z</time></trkpt><trkpt lat="42.23791726706828" lon="19.729920739079645"><ele>1002.2</ele><time>2026-05-03T11:12:46Z</time></trkpt><trkpt lat="42.23792701124672" lon="19.730056752091958"><ele>995.0</ele><time>2026-05-03T11:12:47Z</time></trkpt><trkpt lat="42.237918172708" lon="19.73020147587451"><ele>997.75</ele><time>2026-05-03T11:12:48Z</time></trkpt><trkpt lat="42.23790188922087" lon="19.730363715859912"><ele>1000.5</ele><time>2026-05-03T11:12:49Z</time></trkpt><trkpt lat="42.237887580154904" lon="19.730574507601265"><ele>1003.25</ele><time>2026-05-03T11:12:50Z</time></trkpt><trkpt lat="42.23788267840103" lon="19.73077734793633"><ele>1006.0</ele><time>2026-05-03T11:12:51Z</time></trkpt><trkpt lat="42.237885419500074" lon="19.73098490429941"><ele>1009.6666666666666</ele><time>2026-05-03T11:12:52Z</time></trkpt><trkpt lat="42.23788418331524" lon="19.731190863609942"><ele>1013.3333333333333</ele><time>2026-05-03T11:12:53Z</time></trkpt><trkpt lat="42.23785999144133" lon="19.731398345598386"><ele>1017.0</ele><time>2026-05-03T11:12:54Z</time></trkpt><trkpt lat="42.23781093424556" lon="19.731589241757668"><ele>1017.0</ele><time>2026-05-03T11:12:55Z</time></trkpt><trkpt lat="42.237741582257634" lon="19.731769508438447"><ele>1017.0</ele><time>2026-05-03T11:12:56Z</time></trkpt><trkpt lat="42.237657875334975" lon="19.731961921296506"><ele>1017.0</ele><time>2026-05-03T11:12:57Z</time></trkpt><trkpt lat="42.23756485748239" lon="19.732130634600267"><ele>1014.75</ele><time>2026-05-03T11:12:58Z</time></trkpt><trkpt lat="42.23747989574678" lon="19.732280745179978"><ele>1012.5</ele><time>2026-05-03T11:12:59Z</time></trkpt><trkpt lat="42.23740326677276" lon="19.732399165738055"><ele>1010.25</ele><time>2026-05-03T11:13:00Z</time></trkpt><trkpt lat="42.23730321476115" lon="19.732489508369888"><ele>1008.0</ele><time>2026-05-03T11:13:01Z</time></trkpt><trkpt lat="42.237190700163445" lon="19.732550946882416"><ele>1008.0</ele><time>2026-05-03T11:13:02Z</time></trkpt><trkpt lat="42.23709760480645" lon="19.732604604362287"><ele>1008.0</ele><time>2026-05-03T11:13:03Z</time></trkpt><trkpt lat="42.23702222148783" lon="19.732687474089865"><ele>1008.0</ele><time>2026-05-03T11:13:04Z</time></trkpt><trkpt lat="42.23694668783961" lon="19.732815406988408"><ele>1008.0</ele><time>2026-05-03T11:13:05Z</time></trkpt><trkpt lat="42.23686559724948" lon="19.732968004021057"><ele>1015.5</ele><time>2026-05-03T11:13:06Z</time></trkpt><trkpt lat="42.236800412092" lon="19.733122474069898"><ele>1023.0</ele><time>2026-05-03T11:13:07Z</time></trkpt><trkpt lat="42.23677868049471" lon="19.733283741568798"><ele>1030.5</ele><time>2026-05-03T11:13:08Z</time></trkpt><trkpt lat="42.23678034005259" lon="19.73348891762932"><ele>1038.0</ele><time>2026-05-03T11:13:09Z</time></trkpt><trkpt lat="42.236781954655626" lon="19.733711206445548"><ele>1044.0</ele><time>2026-05-03T11:13:10Z</time></trkpt><trkpt lat="42.23675656440591" lon="19.73394627084902"><ele>1050.0</ele><time>2026-05-03T11:13:11Z</time></trkpt><trkpt lat="42.23674703953374" lon="19.734185754271845"><ele>1056.0</ele><time>2026-05-03T11:13:12Z</time></trkpt><trkpt lat="42.23674637815532" lon="19.734373757719954"><ele>1060.0</ele><time>2026-05-03T11:13:13Z</time></trkpt><trkpt lat="42.23676922462062" lon="19.734486743169583"><ele>1064.0</ele><time>2026-05-03T11:13:14Z</time></trkpt><trkpt lat="42.23681102626325" lon="19.73462394877576"><ele>1068.0</ele><time>2026-05-03T11:13:15Z</time></trkpt><trkpt lat="42.23682222657486" lon="19.73474845947352"><ele>1072.0</ele><time>2026-05-03T11:13:16Z</time></trkpt><trkpt lat="42.236793481355434" lon="19.73483873295949"><ele>1076.0</ele><time>2026-05-03T11:13:17Z</time></trkpt><trkpt lat="42.23668740301223" lon="19.734935764602707"><ele>1076.0</ele><time>2026-05-03T11:13:19Z</time></trkpt><trkpt lat="42.23662259958753" lon="19.734947540623736"><ele>1076.0</ele><time>2026-05-03T11:13:20Z</time></trkpt><trkpt lat="42.2365461266774" lon="19.73493118959816"><ele>1076.0</ele><time>2026-05-03T11:13:21Z</time></trkpt><trkpt lat="42.23648946494985" lon="19.73488642484795"><ele>1076.0</ele><time>2026-05-03T11:13:22Z</time></trkpt><trkpt lat="42.236403848128106" lon="19.734819373089458"><ele>1076.0</ele><time>2026-05-03T11:13:23Z</time></trkpt><trkpt lat="42.23628793146035" lon="19.73477099486543"><ele>1076.0</ele><time>2026-05-03T11:13:24Z</time></trkpt><trkpt lat="42.236177945484194" lon="19.73477246266998"><ele>1075.25</ele><time>2026-05-03T11:13:25Z</time></trkpt><trkpt lat="42.236065184657924" lon="19.73482185592398"><ele>1074.5</ele><time>2026-05-03T11:13:26Z</time></trkpt><trkpt lat="42.235944718166145" lon="19.734881329510177"><ele>1073.75</ele><time>2026-05-03T11:13:27Z</time></trkpt><trkpt lat="42.23580702394813" lon="19.734966837126564"><ele>1073.0</ele><time>2026-05-03T11:13:28Z</time></trkpt><trkpt lat="42.23566409893124" lon="19.73507809166667"><ele>1078.0</ele><time>2026-05-03T11:13:29Z</time></trkpt><trkpt lat="42.2355288718541" lon="19.735181897525756"><ele>1083.0</ele><time>2026-05-03T11:13:30Z</time></trkpt><trkpt lat="42.23538286693672" lon="19.735310050224008"><ele>1088.0</ele><time>2026-05-03T11:13:31Z</time></trkpt><trkpt lat="42.2352849219573" lon="19.735427482970326"><ele>1088.0</ele><time>2026-05-03T11:13:32Z</time></trkpt><trkpt lat="42.235207036489534" lon="19.735567843114108"><ele>1088.0</ele><time>2026-05-03T11:13:33Z</time></trkpt><trkpt lat="42.23512084513551" lon="19.735700669971006"><ele>1088.0</ele><time>2026-05-03T11:13:34Z</time></trkpt><trkpt lat="42.23500985024641" lon="19.735802051066045"><ele>1088.0</ele><time>2026-05-03T11:13:35Z</time></trkpt><trkpt lat="42.23488235150245" lon="19.73588916304789"><ele>1084.25</ele><time>2026-05-03T11:13:36Z</time></trkpt><trkpt lat="42.23475510253832" lon="19.73599263665683"><ele>1080.5</ele><time>2026-05-03T11:13:36.999Z</time></trkpt><trkpt lat="42.234664154562154" lon="19.736101544405134"><ele>1076.75</ele><time>2026-05-03T11:13:37.999Z</time></trkpt><trkpt lat="42.23459451364846" lon="19.73622168752642"><ele>1073.0</ele><time>2026-05-03T11:13:38.999Z</time></trkpt><trkpt lat="42.234554401699505" lon="19.73636291279084"><ele>1079.8</ele><time>2026-05-03T11:13:39.999Z</time></trkpt><trkpt lat="42.234507650096425" lon="19.736472054003002"><ele>1086.6</ele><time>2026-05-03T11:13:40.999Z</time></trkpt><trkpt lat="42.23443015339551" lon="19.736533394248603"><ele>1093.4</ele><time>2026-05-03T11:13:41.999Z</time></trkpt><trkpt lat="42.2343243652192" lon="19.736596775353924"><ele>1100.2</ele><time>2026-05-03T11:13:42.999Z</time></trkpt><trkpt lat="42.23421833575552" lon="19.736683854809687"><ele>1107.0</ele><time>2026-05-03T11:13:43.999Z</time></trkpt><trkpt lat="42.234110968489404" lon="19.73677806840985"><ele>1107.0</ele><time>2026-05-03T11:13:44.999Z</time></trkpt><trkpt lat="42.23398146752096" lon="19.736857680964036"><ele>1107.0</ele><time>2026-05-03T11:13:45.999Z</time></trkpt><trkpt lat="42.23383175555178" lon="19.73691985333761"><ele>1107.0</ele><time>2026-05-03T11:13:46.999Z</time></trkpt><trkpt lat="42.233675420728154" lon="19.736988443176116"><ele>1110.2</ele><time>2026-05-03T11:13:47.999Z</time></trkpt><trkpt lat="42.233561999787135" lon="19.737045041916844"><ele>1113.4</ele><time>2026-05-03T11:13:48.999Z</time></trkpt><trkpt lat="42.233504356448584" lon="19.737131222874222"><ele>1116.6</ele><time>2026-05-03T11:13:49.999Z</time></trkpt><trkpt lat="42.23344592577301" lon="19.737261053370894"><ele>1119.8</ele><time>2026-05-03T11:13:50.999Z</time></trkpt><trkpt lat="42.23338110831494" lon="19.73741033549453"><ele>1123.0</ele><time>2026-05-03T11:13:51.999Z</time></trkpt><trkpt lat="42.23332734470112" lon="19.737580351288546"><ele>1123.0</ele><time>2026-05-03T11:13:52.999Z</time></trkpt><trkpt lat="42.23329181739603" lon="19.737702854937762"><ele>1123.0</ele><time>2026-05-03T11:13:53.999Z</time></trkpt><trkpt lat="42.23324607814" lon="19.73779432765449"><ele>1123.0</ele><time>2026-05-03T11:13:55.999Z</time></trkpt><trkpt lat="42.23313205764689" lon="19.737811154439115"><ele>1123.0</ele><time>2026-05-03T11:13:57.999Z</time></trkpt><trkpt lat="42.23305465171929" lon="19.737788014450636"><ele>1123.0</ele><time>2026-05-03T11:13:58.999Z</time></trkpt><trkpt lat="42.23295798620211" lon="19.73777470758024"><ele>1129.75</ele><time>2026-05-03T11:13:59.999Z</time></trkpt><trkpt lat="42.23283341209118" lon="19.73780268504313"><ele>1136.5</ele><time>2026-05-03T11:14:00.999Z</time></trkpt><trkpt lat="42.232717830417194" lon="19.737858716115152"><ele>1143.25</ele><time>2026-05-03T11:14:01.999Z</time></trkpt><trkpt lat="42.23260901669779" lon="19.73791840354025"><ele>1150.0</ele><time>2026-05-03T11:14:02.999Z</time></trkpt><trkpt lat="42.232513546638565" lon="19.737870557976528"><ele>1150.0</ele><time>2026-05-03T11:14:04.999Z</time></trkpt><trkpt lat="42.23245043454362" lon="19.737777471732354"><ele>1150.0</ele><time>2026-05-03T11:14:05.999Z</time></trkpt><trkpt lat="42.23236880601351" lon="19.737672578724016"><ele>1150.0</ele><time>2026-05-03T11:14:06.999Z</time></trkpt><trkpt lat="42.23228250711197" lon="19.737618536229355"><ele>1150.0</ele><time>2026-05-03T11:14:07.999Z</time></trkpt><trkpt lat="42.23219131365404" lon="19.737632988613832"><ele>1150.0</ele><time>2026-05-03T11:14:08.999Z</time></trkpt><trkpt lat="42.232100108559194" lon="19.737701972669004"><ele>1150.25</ele><time>2026-05-03T11:14:09.999Z</time></trkpt><trkpt lat="42.23198284407273" lon="19.73774678802979"><ele>1150.5</ele><time>2026-05-03T11:14:10.999Z</time></trkpt><trkpt lat="42.23184432622925" lon="19.7377335639506"><ele>1150.75</ele><time>2026-05-03T11:14:11.999Z</time></trkpt><trkpt lat="42.23170468448818" lon="19.737715444321644"><ele>1151.0</ele><time>2026-05-03T11:14:12.999Z</time></trkpt><trkpt lat="42.231582532465026" lon="19.737729335409853"><ele>1151.0</ele><time>2026-05-03T11:14:13.999Z</time></trkpt><trkpt lat="42.23149054188949" lon="19.737765136832603"><ele>1151.0</ele><time>2026-05-03T11:14:14.999Z</time></trkpt><trkpt lat="42.23142159384435" lon="19.737849943602686"><ele>1151.0</ele><time>2026-05-03T11:14:15.999Z</time></trkpt><trkpt lat="42.23133864710669" lon="19.737971232580435"><ele>1151.0</ele><time>2026-05-03T11:14:16.999Z</time></trkpt><trkpt lat="42.23126863186277" lon="19.738086337151334"><ele>1151.0</ele><time>2026-05-03T11:14:17.999Z</time></trkpt><trkpt lat="42.23117182731193" lon="19.738077854482043"><ele>1152.75</ele><time>2026-05-03T11:14:19.999Z</time></trkpt><trkpt lat="42.231072842132505" lon="19.73803541519544"><ele>1154.5</ele><time>2026-05-03T11:14:20.999Z</time></trkpt><trkpt lat="42.23098195968758" lon="19.737932427885127"><ele>1156.25</ele><time>2026-05-03T11:14:21.999Z</time></trkpt><trkpt lat="42.23087833164177" lon="19.737822388358698"><ele>1158.0</ele><time>2026-05-03T11:14:22.999Z</time></trkpt><trkpt lat="42.230752077212" lon="19.7377399103626"><ele>1156.5</ele><time>2026-05-03T11:14:23.999Z</time></trkpt><trkpt lat="42.23061490945234" lon="19.7376976723593"><ele>1155.0</ele><time>2026-05-03T11:14:24.999Z</time></trkpt><trkpt lat="42.23046849366887" lon="19.737666062818263"><ele>1153.5</ele><time>2026-05-03T11:14:25.999Z</time></trkpt><trkpt lat="42.23036022978853" lon="19.737653829922483"><ele>1152.0</ele><time>2026-05-03T11:14:26.999Z</time></trkpt><trkpt lat="42.230293513719815" lon="19.73767784739493"><ele>1156.6</ele><time>2026-05-03T11:14:27.999Z</time></trkpt><trkpt lat="42.23022662270639" lon="19.7377986873723"><ele>1161.2</ele><time>2026-05-03T11:14:29.999Z</time></trkpt><trkpt lat="42.23023364552369" lon="19.737905661752457"><ele>1165.8</ele><time>2026-05-03T11:14:30.999Z</time></trkpt><trkpt lat="42.23027685877162" lon="19.73801249594161"><ele>1170.4</ele><time>2026-05-03T11:14:31.999Z</time></trkpt><trkpt lat="42.23034370739047" lon="19.738128791802684"><ele>1175.0</ele><time>2026-05-03T11:14:32.999Z</time></trkpt><trkpt lat="42.23042036215728" lon="19.73825479241823"><ele>1175.0</ele><time>2026-05-03T11:14:33.999Z</time></trkpt><trkpt lat="42.23052142474229" lon="19.73839592621037"><ele>1175.0</ele><time>2026-05-03T11:14:34.999Z</time></trkpt><trkpt lat="42.23064493525595" lon="19.738532757994562"><ele>1175.0</ele><time>2026-05-03T11:14:35.999Z</time></trkpt><trkpt lat="42.23078543484348" lon="19.738640641771596"><ele>1176.25</ele><time>2026-05-03T11:14:36.999Z</time></trkpt><trkpt lat="42.23094421317592" lon="19.738749905922347"><ele>1177.5</ele><time>2026-05-03T11:14:37.999Z</time></trkpt><trkpt lat="42.23106764449378" lon="19.73885774411785"><ele>1178.75</ele><time>2026-05-03T11:14:38.999Z</time></trkpt><trkpt lat="42.23113803436462" lon="19.738952516281397"><ele>1180.0</ele><time>2026-05-03T11:14:39.999Z</time></trkpt><trkpt lat="42.231179980095696" lon="19.739033418711273"><ele>1180.0</ele><time>2026-05-03T11:14:40.999Z</time></trkpt><trkpt lat="42.23117705639001" lon="19.7392126296569"><ele>1180.0</ele><time>2026-05-03T11:14:42.999Z</time></trkpt><trkpt lat="42.231158751555476" lon="19.739336254711866"><ele>1180.0</ele><time>2026-05-03T11:14:43.999Z</time></trkpt><trkpt lat="42.23118041651392" lon="19.739473060020504"><ele>1180.0</ele><time>2026-05-03T11:14:45.999Z</time></trkpt><trkpt lat="42.23123941777401" lon="19.73954124125267"><ele>1180.0</ele><time>2026-05-03T11:14:46.999Z</time></trkpt><trkpt lat="42.23132605127808" lon="19.739585661470617"><ele>1183.25</ele><time>2026-05-03T11:14:47.999Z</time></trkpt><trkpt lat="42.23144150254459" lon="19.739621694612346"><ele>1186.5</ele><time>2026-05-03T11:14:48.999Z</time></trkpt><trkpt lat="42.23156444597866" lon="19.739648058767667"><ele>1189.75</ele><time>2026-05-03T11:14:49.999Z</time></trkpt><trkpt lat="42.23169746251521" lon="19.739672124806255"><ele>1193.0</ele><time>2026-05-03T11:14:50.999Z</time></trkpt><trkpt lat="42.23181742913745" lon="19.7396652733356"><ele>1193.0</ele><time>2026-05-03T11:14:52Z</time></trkpt><trkpt lat="42.231930461369856" lon="19.739627037691623"><ele>1193.0</ele><time>2026-05-03T11:14:53Z</time></trkpt><trkpt lat="42.23206456300449" lon="19.73955286839702"><ele>1193.0</ele><time>2026-05-03T11:14:54Z</time></trkpt><trkpt lat="42.23221756923076" lon="19.73945515496393"><ele>1193.0</ele><time>2026-05-03T11:14:55Z</time></trkpt><trkpt lat="42.23238000812168" lon="19.73932806628537"><ele>1188.3333333333335</ele><time>2026-05-03T11:14:56Z</time></trkpt><trkpt lat="42.232555952615" lon="19.739194976454993"><ele>1183.6666666666667</ele><time>2026-05-03T11:14:57Z</time></trkpt><trkpt lat="42.23271583390714" lon="19.73910743086448"><ele>1179.0</ele><time>2026-05-03T11:14:58Z</time></trkpt><trkpt lat="42.2328768895381" lon="19.73904522522619"><ele>1179.0</ele><time>2026-05-03T11:14:59Z</time></trkpt><trkpt lat="42.233000982066066" lon="19.73900005701902"><ele>1179.0</ele><time>2026-05-03T11:15:00Z</time></trkpt><trkpt lat="42.233105035079134" lon="19.738967314404245"><ele>1179.0</ele><time>2026-05-03T11:15:01Z</time></trkpt><trkpt lat="42.233212122297545" lon="19.73898248397202"><ele>1179.0</ele><time>2026-05-03T11:15:02Z</time></trkpt><trkpt lat="42.233332915911504" lon="19.73904527188729"><ele>1182.2</ele><time>2026-05-03T11:15:03Z</time></trkpt><trkpt lat="42.23345204657116" lon="19.73910116974914"><ele>1185.4</ele><time>2026-05-03T11:15:04Z</time></trkpt><trkpt lat="42.23351713491909" lon="19.73910637738501"><ele>1188.6</ele><time>2026-05-03T11:15:05Z</time></trkpt><trkpt lat="42.23359991535936" lon="19.739068425461877"><ele>1191.8</ele><time>2026-05-03T11:15:06Z</time></trkpt><trkpt lat="42.233682411411515" lon="19.73895996591912"><ele>1195.0</ele><time>2026-05-03T11:15:07Z</time></trkpt><trkpt lat="42.2337926093391" lon="19.73889393876962"><ele>1195.0</ele><time>2026-05-03T11:15:08Z</time></trkpt><trkpt lat="42.233925735114354" lon="19.738845492537294"><ele>1195.0</ele><time>2026-05-03T11:15:09Z</time></trkpt><trkpt lat="42.23408296249641" lon="19.738820158935763"><ele>1195.0</ele><time>2026-05-03T11:15:10Z</time></trkpt><trkpt lat="42.23423686741358" lon="19.7388157690859"><ele>1199.0</ele><time>2026-05-03T11:15:11Z</time></trkpt><trkpt lat="42.234403693167565" lon="19.738802232642637"><ele>1203.0</ele><time>2026-05-03T11:15:12Z</time></trkpt><trkpt lat="42.23460131755594" lon="19.73880207402221"><ele>1207.0</ele><time>2026-05-03T11:15:13Z</time></trkpt><trkpt lat="42.23479873973821" lon="19.73882588702499"><ele>1207.0</ele><time>2026-05-03T11:15:14Z</time></trkpt><trkpt lat="42.23499417419443" lon="19.738878525743125"><ele>1207.0</ele><time>2026-05-03T11:15:15Z</time></trkpt><trkpt lat="42.2351840145653" lon="19.738930801547674"><ele>1207.0</ele><time>2026-05-03T11:15:16Z</time></trkpt><trkpt lat="42.23535968985886" lon="19.738989829495587"><ele>1207.0</ele><time>2026-05-03T11:15:17Z</time></trkpt><trkpt lat="42.235496877542204" lon="19.739014905892006"><ele>1207.0</ele><time>2026-05-03T11:15:18Z</time></trkpt><trkpt lat="42.235618213895215" lon="19.739040111638246"><ele>1207.0</ele><time>2026-05-03T11:15:19Z</time></trkpt><trkpt lat="42.235688527651384" lon="19.739054342564867"><ele>1207.0</ele><time>2026-05-03T11:15:20Z</time></trkpt><trkpt lat="42.235719188932244" lon="19.73913790187151"><ele>1207.0</ele><time>2026-05-03T11:15:22Z</time></trkpt><trkpt lat="42.23570587856631" lon="19.73922644050029"><ele>1207.0</ele><time>2026-05-03T11:15:23Z</time></trkpt><trkpt lat="42.23565749101611" lon="19.739286945237275"><ele>1207.0</ele><time>2026-05-03T11:15:24Z</time></trkpt><trkpt lat="42.235587442518806" lon="19.739294893061114"><ele>1207.0</ele><time>2026-05-03T11:15:25Z</time></trkpt><trkpt lat="42.2354972095247" lon="19.73927530732829"><ele>1207.0</ele><time>2026-05-03T11:15:26Z</time></trkpt><trkpt lat="42.23540740576802" lon="19.73926120187117"><ele>1207.0</ele><time>2026-05-03T11:15:27Z</time></trkpt><trkpt lat="42.23538220867844" lon="19.739370216084215"><ele>1207.0</ele><time>2026-05-03T11:15:29Z</time></trkpt><trkpt lat="42.235467707274175" lon="19.739462928537826"><ele>1206.5</ele><time>2026-05-03T11:15:31Z</time></trkpt><trkpt lat="42.23554943045694" lon="19.739482555025006"><ele>1206.0</ele><time>2026-05-03T11:15:32Z</time></trkpt><trkpt lat="42.23566849482893" lon="19.739493485798832"><ele>1205.5</ele><time>2026-05-03T11:15:33Z</time></trkpt><trkpt lat="42.23581522729524" lon="19.739509963605375"><ele>1205.0</ele><time>2026-05-03T11:15:34Z</time></trkpt><trkpt lat="42.23595795358482" lon="19.739518019258313"><ele>1205.0</ele><time>2026-05-03T11:15:35Z</time></trkpt><trkpt lat="42.23610260830867" lon="19.73950341369884"><ele>1205.0</ele><time>2026-05-03T11:15:36Z</time></trkpt><trkpt lat="42.23626052047194" lon="19.73948699772203"><ele>1205.0</ele><time>2026-05-03T11:15:37Z</time></trkpt><trkpt lat="42.23637207832137" lon="19.739511553985682"><ele>1205.0</ele><time>2026-05-03T11:15:38Z</time></trkpt><trkpt lat="42.23647947689102" lon="19.739541397934946"><ele>1203.5</ele><time>2026-05-03T11:15:39Z</time></trkpt><trkpt lat="42.23657560735998" lon="19.739527141617977"><ele>1202.0</ele><time>2026-05-03T11:15:40Z</time></trkpt><trkpt lat="42.2366750102628" lon="19.739440129975616"><ele>1200.5</ele><time>2026-05-03T11:15:41Z</time></trkpt><trkpt lat="42.236806551867254" lon="19.73930911239789"><ele>1199.0</ele><time>2026-05-03T11:15:42Z</time></trkpt><trkpt lat="42.23695130362958" lon="19.73917310463414"><ele>1201.0</ele><time>2026-05-03T11:15:43Z</time></trkpt><trkpt lat="42.23711385173578" lon="19.739061583960204"><ele>1203.0</ele><time>2026-05-03T11:15:44Z</time></trkpt><trkpt lat="42.23728615243296" lon="19.73893865890951"><ele>1205.0</ele><time>2026-05-03T11:15:45Z</time></trkpt><trkpt lat="42.23742615020661" lon="19.738825386090316"><ele>1205.0</ele><time>2026-05-03T11:15:46Z</time></trkpt><trkpt lat="42.23755238865983" lon="19.73874820664019"><ele>1205.0</ele><time>2026-05-03T11:15:47Z</time></trkpt><trkpt lat="42.23770960793098" lon="19.738690588459786"><ele>1205.0</ele><time>2026-05-03T11:15:48Z</time></trkpt><trkpt lat="42.23787674637765" lon="19.738647351774528"><ele>1205.0</ele><time>2026-05-03T11:15:49Z</time></trkpt><trkpt lat="42.23802830274219" lon="19.738616281715714"><ele>1205.0</ele><time>2026-05-03T11:15:50Z</time></trkpt><trkpt lat="42.23814880052542" lon="19.73857652646549"><ele>1205.0</ele><time>2026-05-03T11:15:51Z</time></trkpt><trkpt lat="42.23822393012363" lon="19.738526421938456"><ele>1205.0</ele><time>2026-05-03T11:15:52Z</time></trkpt><trkpt lat="42.23828535470271" lon="19.738493511431507"><ele>1205.0</ele><time>2026-05-03T11:15:53Z</time></trkpt><trkpt lat="42.23832557756936" lon="19.738612575120417"><ele>1205.0</ele><time>2026-05-03T11:15:56Z</time></trkpt><trkpt lat="42.23821796147986" lon="19.738713957553305"><ele>1205.0</ele><time>2026-05-03T11:15:58Z</time></trkpt><trkpt lat="42.23810237716936" lon="19.738749419127732"><ele>1205.0</ele><time>2026-05-03T11:15:59Z</time></trkpt><trkpt lat="42.23797584028388" lon="19.738826769645087"><ele>1205.0</ele><time>2026-05-03T11:16:00Z</time></trkpt><trkpt lat="42.23784984286764" lon="19.738949098188755"><ele>1205.0</ele><time>2026-05-03T11:16:01Z</time></trkpt><trkpt lat="42.23774280306426" lon="19.739108700782715"><ele>1205.0</ele><time>2026-05-03T11:16:02Z</time></trkpt><trkpt lat="42.23764328892431" lon="19.739294024867093"><ele>1205.0</ele><time>2026-05-03T11:16:03Z</time></trkpt><trkpt lat="42.23753811781895" lon="19.739458596456817"><ele>1203.0</ele><time>2026-05-03T11:16:04Z</time></trkpt><trkpt lat="42.237424412989114" lon="19.739611378079665"><ele>1201.0</ele><time>2026-05-03T11:16:05Z</time></trkpt><trkpt lat="42.237321291982404" lon="19.739763099824028"><ele>1199.0</ele><time>2026-05-03T11:16:06Z</time></trkpt><trkpt lat="42.23722776217375" lon="19.73990703113763"><ele>1199.0</ele><time>2026-05-03T11:16:07Z</time></trkpt><trkpt lat="42.23713380300546" lon="19.74001310595093"><ele>1199.0</ele><time>2026-05-03T11:16:08Z</time></trkpt><trkpt lat="42.23701579664698" lon="19.740105647000924"><ele>1199.0</ele><time>2026-05-03T11:16:09Z</time></trkpt><trkpt lat="42.23687569548586" lon="19.740193728402424"><ele>1199.0</ele><time>2026-05-03T11:16:10Z</time></trkpt><trkpt lat="42.23674474927812" lon="19.740303636327564"><ele>1195.3333333333335</ele><time>2026-05-03T11:16:11Z</time></trkpt><trkpt lat="42.23661216974326" lon="19.74045078972895"><ele>1191.6666666666667</ele><time>2026-05-03T11:16:12Z</time></trkpt><trkpt lat="42.23647489346648" lon="19.740587003765526"><ele>1188.0</ele><time>2026-05-03T11:16:13Z</time></trkpt><trkpt lat="42.23631912091053" lon="19.740701376537736"><ele>1188.0</ele><time>2026-05-03T11:16:14Z</time></trkpt><trkpt lat="42.23617275234944" lon="19.740794329229256"><ele>1188.0</ele><time>2026-05-03T11:16:15Z</time></trkpt><trkpt lat="42.23605252754237" lon="19.740857391477547"><ele>1188.0</ele><time>2026-05-03T11:16:16Z</time></trkpt><trkpt lat="42.23594349213194" lon="19.740892981091115"><ele>1188.0</ele><time>2026-05-03T11:16:17Z</time></trkpt><trkpt lat="42.235851197444354" lon="19.740923808579353"><ele>1188.0</ele><time>2026-05-03T11:16:18Z</time></trkpt><trkpt lat="42.23578519054005" lon="19.74095893256482"><ele>1188.0</ele><time>2026-05-03T11:16:19Z</time></trkpt><trkpt lat="42.23572933312509" lon="19.74105065931025"><ele>1188.0</ele><time>2026-05-03T11:16:21Z</time></trkpt><trkpt lat="42.23577935033043" lon="19.741124495451402"><ele>1188.0</ele><time>2026-05-03T11:16:23Z</time></trkpt><trkpt lat="42.23590806809408" lon="19.741123834871793"><ele>1188.0</ele><time>2026-05-03T11:16:25Z</time></trkpt><trkpt lat="42.2360161426794" lon="19.741073023516204"><ele>1188.0</ele><time>2026-05-03T11:16:26Z</time></trkpt><trkpt lat="42.23614144320737" lon="19.741006366133956"><ele>1188.0</ele><time>2026-05-03T11:16:27Z</time></trkpt><trkpt lat="42.236292652594116" lon="19.740948180271417"><ele>1188.0</ele><time>2026-05-03T11:16:28Z</time></trkpt><trkpt lat="42.23646505931844" lon="19.740903355452375"><ele>1184.6666666666667</ele><time>2026-05-03T11:16:29Z</time></trkpt><trkpt lat="42.23665477367079" lon="19.740848626922762"><ele>1181.3333333333335</ele><time>2026-05-03T11:16:30Z</time></trkpt><trkpt lat="42.23683509632301" lon="19.740775453500852"><ele>1178.0</ele><time>2026-05-03T11:16:31Z</time></trkpt><trkpt lat="42.23698881030901" lon="19.740713871022763"><ele>1178.0</ele><time>2026-05-03T11:16:32Z</time></trkpt><trkpt lat="42.23709769306857" lon="19.740647963339807"><ele>1178.0</ele><time>2026-05-03T11:16:33Z</time></trkpt><trkpt lat="42.23720020816279" lon="19.74055879735479"><ele>1178.0</ele><time>2026-05-03T11:16:33.999Z</time></trkpt><trkpt lat="42.237304034652546" lon="19.74043665974657"><ele>1178.0</ele><time>2026-05-03T11:16:34.999Z</time></trkpt><trkpt lat="42.23741351903155" lon="19.74034102534007"><ele>1179.75</ele><time>2026-05-03T11:16:35.999Z</time></trkpt><trkpt lat="42.237545368099475" lon="19.740280473848145"><ele>1181.5</ele><time>2026-05-03T11:16:36.999Z</time></trkpt><trkpt lat="42.23768799383103" lon="19.74025298484204"><ele>1183.25</ele><time>2026-05-03T11:16:37.999Z</time></trkpt><trkpt lat="42.237826595751486" lon="19.74020286784651"><ele>1185.0</ele><time>2026-05-03T11:16:38.999Z</time></trkpt><trkpt lat="42.237963150876396" lon="19.74009750048317"><ele>1185.0</ele><time>2026-05-03T11:16:39.999Z</time></trkpt><trkpt lat="42.23811508465011" lon="19.739980979942363"><ele>1185.0</ele><time>2026-05-03T11:16:40.999Z</time></trkpt><trkpt lat="42.238250494047335" lon="19.739897132858793"><ele>1185.0</ele><time>2026-05-03T11:16:41.999Z</time></trkpt><trkpt lat="42.23836227564031" lon="19.73985075744447"><ele>1185.0</ele><time>2026-05-03T11:16:42.999Z</time></trkpt><trkpt lat="42.238464619383905" lon="19.73982067310082"><ele>1181.8</ele><time>2026-05-03T11:16:43.999Z</time></trkpt><trkpt lat="42.23854092932792" lon="19.739823017785373"><ele>1178.6</ele><time>2026-05-03T11:16:44.999Z</time></trkpt><trkpt lat="42.23862698358644" lon="19.739852773956486"><ele>1175.4</ele><time>2026-05-03T11:16:45.999Z</time></trkpt><trkpt lat="42.238716856232884" lon="19.739924223650895"><ele>1172.2</ele><time>2026-05-03T11:16:46.999Z</time></trkpt><trkpt lat="42.23880731007414" lon="19.74001938361741"><ele>1169.0</ele><time>2026-05-03T11:16:47.999Z</time></trkpt><trkpt lat="42.238887959495166" lon="19.740071807989143"><ele>1166.5</ele><time>2026-05-03T11:16:48.999Z</time></trkpt><trkpt lat="42.238995481420766" lon="19.740070497455015"><ele>1164.0</ele><time>2026-05-03T11:16:49.999Z</time></trkpt><trkpt lat="42.239103711215066" lon="19.74002199708038"><ele>1161.5</ele><time>2026-05-03T11:16:50.999Z</time></trkpt><trkpt lat="42.239201324608466" lon="19.739927418781846"><ele>1159.0</ele><time>2026-05-03T11:16:51.999Z</time></trkpt><trkpt lat="42.23929386619809" lon="19.739819927248387"><ele>1159.0</ele><time>2026-05-03T11:16:52.999Z</time></trkpt><trkpt lat="42.23935686800052" lon="19.73978258274713"><ele>1159.0</ele><time>2026-05-03T11:16:53.999Z</time></trkpt><trkpt lat="42.239422047661705" lon="19.739799314983266"><ele>1159.0</ele><time>2026-05-03T11:16:54.999Z</time></trkpt><trkpt lat="42.23952144860114" lon="19.73982275147935"><ele>1159.0</ele><time>2026-05-03T11:16:55.999Z</time></trkpt><trkpt lat="42.23965479439927" lon="19.739877887010312"><ele>1159.0</ele><time>2026-05-03T11:16:57Z</time></trkpt><trkpt lat="42.23978997462125" lon="19.73989043288812"><ele>1157.5</ele><time>2026-05-03T11:16:58Z</time></trkpt><trkpt lat="42.2398915108562" lon="19.739883611269686"><ele>1156.0</ele><time>2026-05-03T11:16:59Z</time></trkpt><trkpt lat="42.239969555939844" lon="19.739865144285687"><ele>1154.5</ele><time>2026-05-03T11:17:00Z</time></trkpt><trkpt lat="42.24004797464536" lon="19.739863637330085"><ele>1153.0</ele><time>2026-05-03T11:17:01Z</time></trkpt><trkpt lat="42.240107193309406" lon="19.739918248366894"><ele>1151.5</ele><time>2026-05-03T11:17:02Z</time></trkpt><trkpt lat="42.240189908438744" lon="19.740011834254535"><ele>1150.0</ele><time>2026-05-03T11:17:03Z</time></trkpt><trkpt lat="42.24028471713391" lon="19.74010627182777"><ele>1150.0</ele><time>2026-05-03T11:17:04Z</time></trkpt><trkpt lat="42.24039526695962" lon="19.740160378734338"><ele>1150.0</ele><time>2026-05-03T11:17:05Z</time></trkpt><trkpt lat="42.240503771545946" lon="19.740172607117515"><ele>1150.0</ele><time>2026-05-03T11:17:06Z</time></trkpt><trkpt lat="42.240611290646356" lon="19.74012568956605"><ele>1150.0</ele><time>2026-05-03T11:17:07Z</time></trkpt><trkpt lat="42.24071178081809" lon="19.740057991399432"><ele>1150.6</ele><time>2026-05-03T11:17:08Z</time></trkpt><trkpt lat="42.240779611772176" lon="19.74003284095046"><ele>1151.2</ele><time>2026-05-03T11:17:09Z</time></trkpt><trkpt lat="42.24086171379419" lon="19.740090333810898"><ele>1151.8</ele><time>2026-05-03T11:17:11Z</time></trkpt><trkpt lat="42.24090580630022" lon="19.740273696899393"><ele>1152.4</ele><time>2026-05-03T11:17:13Z</time></trkpt><trkpt lat="42.24089851162845" lon="19.74038085036836"><ele>1153.0</ele><time>2026-05-03T11:17:14Z</time></trkpt><trkpt lat="42.24086964137106" lon="19.740538197517747"><ele>1150.25</ele><time>2026-05-03T11:17:15Z</time></trkpt><trkpt lat="42.24081774718888" lon="19.740724902658087"><ele>1147.5</ele><time>2026-05-03T11:17:16Z</time></trkpt><trkpt lat="42.240757682225414" lon="19.740899020526253"><ele>1144.75</ele><time>2026-05-03T11:17:17Z</time></trkpt><trkpt lat="42.240702104864425" lon="19.74102273756281"><ele>1142.0</ele><time>2026-05-03T11:17:18Z</time></trkpt><trkpt lat="42.240623999659334" lon="19.74111754167708"><ele>1137.75</ele><time>2026-05-03T11:17:19Z</time></trkpt><trkpt lat="42.2405580943568" lon="19.74123217776456"><ele>1133.5</ele><time>2026-05-03T11:17:20Z</time></trkpt><trkpt lat="42.24052732800137" lon="19.74139355613443"><ele>1129.25</ele><time>2026-05-03T11:17:21Z</time></trkpt><trkpt lat="42.240534842252444" lon="19.74157117773583"><ele>1125.0</ele><time>2026-05-03T11:17:22Z</time></trkpt><trkpt lat="42.24056126537948" lon="19.741752500748376"><ele>1123.6</ele><time>2026-05-03T11:17:23Z</time></trkpt><trkpt lat="42.240603375159196" lon="19.741889006402644"><ele>1122.2</ele><time>2026-05-03T11:17:24Z</time></trkpt><trkpt lat="42.24061926760417" lon="19.742001616642558"><ele>1120.8</ele><time>2026-05-03T11:17:25Z</time></trkpt><trkpt lat="42.24059532776293" lon="19.742103507427803"><ele>1119.4</ele><time>2026-05-03T11:17:26Z</time></trkpt><trkpt lat="42.24054857767733" lon="19.742212373102355"><ele>1118.0</ele><time>2026-05-03T11:17:27Z</time></trkpt><trkpt lat="42.240457301790045" lon="19.74233802065852"><ele>1118.0</ele><time>2026-05-03T11:17:28Z</time></trkpt><trkpt lat="42.24034106512183" lon="19.742444092425924"><ele>1118.0</ele><time>2026-05-03T11:17:29Z</time></trkpt><trkpt lat="42.240190491083204" lon="19.742538070007654"><ele>1118.0</ele><time>2026-05-03T11:17:30Z</time></trkpt><trkpt lat="42.240027788457866" lon="19.74261966274127"><ele>1118.0</ele><time>2026-05-03T11:17:31Z</time></trkpt><trkpt lat="42.239898158213464" lon="19.742698774964477"><ele>1118.0</ele><time>2026-05-03T11:17:32Z</time></trkpt><trkpt lat="42.23981255642588" lon="19.74277399462451"><ele>1118.0</ele><time>2026-05-03T11:17:33Z</time></trkpt><trkpt lat="42.23975267794791" lon="19.742876825933475"><ele>1118.0</ele><time>2026-05-03T11:17:34Z</time></trkpt><trkpt lat="42.239691784828146" lon="19.742997993093528"><ele>1116.0</ele><time>2026-05-03T11:17:35Z</time></trkpt><trkpt lat="42.23963847373616" lon="19.743146301052505"><ele>1114.0</ele><time>2026-05-03T11:17:36Z</time></trkpt><trkpt lat="42.23958944025763" lon="19.743294376482822"><ele>1112.0</ele><time>2026-05-03T11:17:37Z</time></trkpt><trkpt lat="42.23952608026867" lon="19.74339160747432"><ele>1110.0</ele><time>2026-05-03T11:17:38Z</time></trkpt><trkpt lat="42.23945133722345" lon="19.743446842984405"><ele>1108.0</ele><time>2026-05-03T11:17:39Z</time></trkpt><trkpt lat="42.23932957111534" lon="19.74348074932854"><ele>1108.0</ele><time>2026-05-03T11:17:40Z</time></trkpt><trkpt lat="42.239169641705956" lon="19.743520635791718"><ele>1108.0</ele><time>2026-05-03T11:17:41Z</time></trkpt><trkpt lat="42.239007469331874" lon="19.743620775097785"><ele>1108.0</ele><time>2026-05-03T11:17:42Z</time></trkpt><trkpt lat="42.23884406278574" lon="19.743745137540408"><ele>1103.6666666666665</ele><time>2026-05-03T11:17:43Z</time></trkpt><trkpt lat="42.238688118817315" lon="19.743841126112503"><ele>1099.3333333333333</ele><time>2026-05-03T11:17:44Z</time></trkpt><trkpt lat="42.23855030663104" lon="19.743925970829782"><ele>1095.0</ele><time>2026-05-03T11:17:45Z</time></trkpt><trkpt lat="42.238422583426456" lon="19.744029346846204"><ele>1095.0</ele><time>2026-05-03T11:17:46Z</time></trkpt><trkpt lat="42.238298129875915" lon="19.74408734060068"><ele>1095.0</ele><time>2026-05-03T11:17:47Z</time></trkpt><trkpt lat="42.23815842282849" lon="19.74411109467654"><ele>1095.0</ele><time>2026-05-03T11:17:48Z</time></trkpt><trkpt lat="42.238024256764895" lon="19.744127013351214"><ele>1095.0</ele><time>2026-05-03T11:17:49Z</time></trkpt><trkpt lat="42.23789182643414" lon="19.74415546693104"><ele>1093.8</ele><time>2026-05-03T11:17:50Z</time></trkpt><trkpt lat="42.237790405985244" lon="19.744180568923024"><ele>1092.6</ele><time>2026-05-03T11:17:51Z</time></trkpt><trkpt lat="42.23771468916748" lon="19.744180037247794"><ele>1091.4</ele><time>2026-05-03T11:17:52Z</time></trkpt><trkpt lat="42.23762035832487" lon="19.744209265112506"><ele>1090.2</ele><time>2026-05-03T11:17:54Z</time></trkpt><trkpt lat="42.237637462868605" lon="19.74435274045335"><ele>1089.0</ele><time>2026-05-03T11:17:56Z</time></trkpt><trkpt lat="42.23768882130349" lon="19.74442264536661"><ele>1085.25</ele><time>2026-05-03T11:17:57Z</time></trkpt><trkpt lat="42.23778818168284" lon="19.74448262941686"><ele>1081.5</ele><time>2026-05-03T11:17:58Z</time></trkpt><trkpt lat="42.23789802389393" lon="19.744581128736804"><ele>1077.75</ele><time>2026-05-03T11:17:59Z</time></trkpt><trkpt lat="42.23798877311739" lon="19.744704553043725"><ele>1074.0</ele><time>2026-05-03T11:18:00Z</time></trkpt><trkpt lat="42.238068907059436" lon="19.74478525818475"><ele>1075.0</ele><time>2026-05-03T11:18:01Z</time></trkpt><trkpt lat="42.23817802164342" lon="19.74480981190589"><ele>1076.0</ele><time>2026-05-03T11:18:01.999Z</time></trkpt><trkpt lat="42.2383152702972" lon="19.74480027680298"><ele>1077.0</ele><time>2026-05-03T11:18:02.999Z</time></trkpt><trkpt lat="42.23846847408221" lon="19.744817680082942"><ele>1078.0</ele><time>2026-05-03T11:18:03.999Z</time></trkpt><trkpt lat="42.23861426151102" lon="19.74485545986478"><ele>1078.0</ele><time>2026-05-03T11:18:04.999Z</time></trkpt><trkpt lat="42.238744170766836" lon="19.74491610825886"><ele>1078.0</ele><time>2026-05-03T11:18:05.999Z</time></trkpt><trkpt lat="42.238869873815226" lon="19.74494762547606"><ele>1078.0</ele><time>2026-05-03T11:18:06.999Z</time></trkpt><trkpt lat="42.238994615102705" lon="19.744922311373674"><ele>1078.0</ele><time>2026-05-03T11:18:07.999Z</time></trkpt><trkpt lat="42.23910335443503" lon="19.744859790271533"><ele>1076.0</ele><time>2026-05-03T11:18:08.999Z</time></trkpt><trkpt lat="42.23920353537415" lon="19.744764720192162"><ele>1074.0</ele><time>2026-05-03T11:18:09.999Z</time></trkpt><trkpt lat="42.23930557664296" lon="19.74464056500901"><ele>1072.0</ele><time>2026-05-03T11:18:10.999Z</time></trkpt><trkpt lat="42.23940896367545" lon="19.744526755062353"><ele>1070.0</ele><time>2026-05-03T11:18:11.999Z</time></trkpt><trkpt lat="42.23951022381311" lon="19.744455637659804"><ele>1070.0</ele><time>2026-05-03T11:18:12.999Z</time></trkpt><trkpt lat="42.23961400218767" lon="19.744424462962485"><ele>1070.0</ele><time>2026-05-03T11:18:13.999Z</time></trkpt><trkpt lat="42.23972204038274" lon="19.744415460678066"><ele>1070.0</ele><time>2026-05-03T11:18:14.999Z</time></trkpt><trkpt lat="42.239852517518116" lon="19.74443555932679"><ele>1070.0</ele><time>2026-05-03T11:18:15.999Z</time></trkpt><trkpt lat="42.23998944633879" lon="19.744475171981374"><ele>1066.5</ele><time>2026-05-03T11:18:16.999Z</time></trkpt><trkpt lat="42.240109317707564" lon="19.744518457394094"><ele>1063.0</ele><time>2026-05-03T11:18:17.999Z</time></trkpt><trkpt lat="42.24022799221042" lon="19.74453856541214"><ele>1059.5</ele><time>2026-05-03T11:18:18.999Z</time></trkpt><trkpt lat="42.24034381574242" lon="19.744536732806864"><ele>1056.0</ele><time>2026-05-03T11:18:19.999Z</time></trkpt><trkpt lat="42.24047559897959" lon="19.744539845536057"><ele>1056.0</ele><time>2026-05-03T11:18:20.999Z</time></trkpt><trkpt lat="42.24061829344316" lon="19.74455346935707"><ele>1056.0</ele><time>2026-05-03T11:18:21.999Z</time></trkpt><trkpt lat="42.24077590598881" lon="19.744572447761335"><ele>1056.0</ele><time>2026-05-03T11:18:22.999Z</time></trkpt><trkpt lat="42.2409438988283" lon="19.744593123177065"><ele>1055.0</ele><time>2026-05-03T11:18:23.999Z</time></trkpt><trkpt lat="42.24109329620488" lon="19.74461457672949"><ele>1054.0</ele><time>2026-05-03T11:18:24.999Z</time></trkpt><trkpt lat="42.241232216591186" lon="19.744656717597934"><ele>1053.0</ele><time>2026-05-03T11:18:25.999Z</time></trkpt><trkpt lat="42.241365037699644" lon="19.74472522732887"><ele>1052.0</ele><time>2026-05-03T11:18:26.999Z</time></trkpt><trkpt lat="42.24147959364601" lon="19.744790724670814"><ele>1051.6</ele><time>2026-05-03T11:18:27.999Z</time></trkpt><trkpt lat="42.24157891273287" lon="19.744825400109995"><ele>1051.2</ele><time>2026-05-03T11:18:28.999Z</time></trkpt><trkpt lat="42.241660202875764" lon="19.74481254485495"><ele>1050.8</ele><time>2026-05-03T11:18:29.999Z</time></trkpt><trkpt lat="42.24174662308283" lon="19.744765848538215"><ele>1050.4</ele><time>2026-05-03T11:18:30.999Z</time></trkpt><trkpt lat="42.24183805943247" lon="19.744690005788293"><ele>1050.0</ele><time>2026-05-03T11:18:31.999Z</time></trkpt><trkpt lat="42.241932576295646" lon="19.74461587901921"><ele>1050.0</ele><time>2026-05-03T11:18:32.999Z</time></trkpt><trkpt lat="42.24200791177617" lon="19.744589203900215"><ele>1050.0</ele><time>2026-05-03T11:18:33.999Z</time></trkpt><trkpt lat="42.2420814347523" lon="19.744610614728025"><ele>1050.0</ele><time>2026-05-03T11:18:34.999Z</time></trkpt><trkpt lat="42.24215697149683" lon="19.744683063961286"><ele>1050.0</ele><time>2026-05-03T11:18:35.999Z</time></trkpt><trkpt lat="42.24224959840072" lon="19.744801739672457"><ele>1050.0</ele><time>2026-05-03T11:18:36.999Z</time></trkpt><trkpt lat="42.2423701541798" lon="19.74491544172759"><ele>1048.75</ele><time>2026-05-03T11:18:37.999Z</time></trkpt><trkpt lat="42.242489674364386" lon="19.744982039172992"><ele>1047.5</ele><time>2026-05-03T11:18:38.999Z</time></trkpt><trkpt lat="42.24260574133169" lon="19.744989220483564"><ele>1046.25</ele><time>2026-05-03T11:18:39.999Z</time></trkpt><trkpt lat="42.24274096432726" lon="19.74497536727694"><ele>1045.0</ele><time>2026-05-03T11:18:40.999Z</time></trkpt><trkpt lat="42.24288779429175" lon="19.744957394691962"><ele>1045.0</ele><time>2026-05-03T11:18:41.999Z</time></trkpt><trkpt lat="42.243002183847544" lon="19.744976204033602"><ele>1045.0</ele><time>2026-05-03T11:18:42.999Z</time></trkpt><trkpt lat="42.243103943519245" lon="19.745020224623563"><ele>1045.0</ele><time>2026-05-03T11:18:43.999Z</time></trkpt><trkpt lat="42.24321345464406" lon="19.745082080578175"><ele>1045.0</ele><time>2026-05-03T11:18:44.999Z</time></trkpt><trkpt lat="42.24333876931838" lon="19.745176456996976"><ele>1038.6666666666665</ele><time>2026-05-03T11:18:45.999Z</time></trkpt><trkpt lat="42.24348274481192" lon="19.74524532614474"><ele>1032.3333333333333</ele><time>2026-05-03T11:18:46.999Z</time></trkpt><trkpt lat="42.24362762685906" lon="19.745270607423873"><ele>1026.0</ele><time>2026-05-03T11:18:47.999Z</time></trkpt><trkpt lat="42.24379640472796" lon="19.74527738424314"><ele>1028.3333333333333</ele><time>2026-05-03T11:18:48.999Z</time></trkpt><trkpt lat="42.24396915711053" lon="19.745287086166073"><ele>1030.6666666666665</ele><time>2026-05-03T11:18:49.999Z</time></trkpt><trkpt lat="42.24413018522878" lon="19.745315643206"><ele>1033.0</ele><time>2026-05-03T11:18:50.999Z</time></trkpt><trkpt lat="42.24425570249842" lon="19.745342465520658"><ele>1033.0</ele><time>2026-05-03T11:18:51.999Z</time></trkpt><trkpt lat="42.24434798460614" lon="19.745392142335994"><ele>1033.0</ele><time>2026-05-03T11:18:52.999Z</time></trkpt><trkpt lat="42.24445953657813" lon="19.745483326122798"><ele>1033.0</ele><time>2026-05-03T11:18:53.999Z</time></trkpt><trkpt lat="42.24458501649656" lon="19.745621316334"><ele>1033.0</ele><time>2026-05-03T11:18:54.999Z</time></trkpt><trkpt lat="42.24474108195467" lon="19.74574101884354"><ele>1035.6666666666665</ele><time>2026-05-03T11:18:55.999Z</time></trkpt><trkpt lat="42.2449192316698" lon="19.745857890785842"><ele>1038.3333333333333</ele><time>2026-05-03T11:18:56.999Z</time></trkpt><trkpt lat="42.24505400071245" lon="19.74595337430025"><ele>1041.0</ele><time>2026-05-03T11:18:57.999Z</time></trkpt><trkpt lat="42.24515786021374" lon="19.746018136182006"><ele>1041.0</ele><time>2026-05-03T11:18:58.999Z</time></trkpt><trkpt lat="42.24526748724478" lon="19.746046131747654"><ele>1041.0</ele><time>2026-05-03T11:18:59.999Z</time></trkpt><trkpt lat="42.24540162225623" lon="19.74602888473613"><ele>1041.0</ele><time>2026-05-03T11:19:00.999Z</time></trkpt><trkpt lat="42.245552741342784" lon="19.74603243909244"><ele>1041.0</ele><time>2026-05-03T11:19:01.999Z</time></trkpt><trkpt lat="42.24571467221001" lon="19.746065491911175"><ele>1034.3333333333333</ele><time>2026-05-03T11:19:03Z</time></trkpt><trkpt lat="42.24587308115795" lon="19.746116067596432"><ele>1027.6666666666665</ele><time>2026-05-03T11:19:04Z</time></trkpt><trkpt lat="42.24602397276551" lon="19.74617464501179"><ele>1021.0</ele><time>2026-05-03T11:19:05Z</time></trkpt><trkpt lat="42.24617843088253" lon="19.74625532928751"><ele>1021.0</ele><time>2026-05-03T11:19:06Z</time></trkpt><trkpt lat="42.246311908437804" lon="19.746339342882095"><ele>1021.0</ele><time>2026-05-03T11:19:07Z</time></trkpt><trkpt lat="42.2464498704148" lon="19.746431854342728"><ele>1021.0</ele><time>2026-05-03T11:19:08Z</time></trkpt><trkpt lat="42.24659523918679" lon="19.74653454269809"><ele>1023.75</ele><time>2026-05-03T11:19:09Z</time></trkpt><trkpt lat="42.24673305010342" lon="19.74666650181964"><ele>1026.5</ele><time>2026-05-03T11:19:10Z</time></trkpt><trkpt lat="42.24684942520702" lon="19.74679225418555"><ele>1029.25</ele><time>2026-05-03T11:19:11Z</time></trkpt><trkpt lat="42.2469467142744" lon="19.746896772755772"><ele>1032.0</ele><time>2026-05-03T11:19:12Z</time></trkpt><trkpt lat="42.247024781354234" lon="19.74699327348082"><ele>1027.4</ele><time>2026-05-03T11:19:13Z</time></trkpt><trkpt lat="42.24708948082433" lon="19.747096135514905"><ele>1022.8000000000001</ele><time>2026-05-03T11:19:14Z</time></trkpt><trkpt lat="42.24714408977291" lon="19.7472040878069"><ele>1018.2</ele><time>2026-05-03T11:19:15Z</time></trkpt><trkpt lat="42.24718549338477" lon="19.747334322011408"><ele>1013.6</ele><time>2026-05-03T11:19:16Z</time></trkpt><trkpt lat="42.24720806908857" lon="19.747504834637194"><ele>1009.0</ele><time>2026-05-03T11:19:17Z</time></trkpt><trkpt lat="42.247232987128626" lon="19.74766234033395"><ele>1008.8000000000001</ele><time>2026-05-03T11:19:18Z</time></trkpt><trkpt lat="42.247275203975065" lon="19.74778049787841"><ele>1008.6000000000001</ele><time>2026-05-03T11:19:19Z</time></trkpt><trkpt lat="42.247339892117786" lon="19.74786234408597"><ele>1008.4</ele><time>2026-05-03T11:19:20Z</time></trkpt><trkpt lat="42.247442752430864" lon="19.747926386143156"><ele>1008.2</ele><time>2026-05-03T11:19:21Z</time></trkpt><trkpt lat="42.24756987164499" lon="19.747978736817306"><ele>1008.0</ele><time>2026-05-03T11:19:22Z</time></trkpt><trkpt lat="42.24767778606208" lon="19.748013077946162"><ele>1008.0</ele><time>2026-05-03T11:19:23Z</time></trkpt><trkpt lat="42.247758001314814" lon="19.7480409412584"><ele>1008.0</ele><time>2026-05-03T11:19:24Z</time></trkpt><trkpt lat="42.24781039880477" lon="19.748107892781203"><ele>1008.0</ele><time>2026-05-03T11:19:26Z</time></trkpt><trkpt lat="42.247776716678466" lon="19.748222858481462"><ele>1008.0</ele><time>2026-05-03T11:19:28Z</time></trkpt><trkpt lat="42.24766735277095" lon="19.748224074639623"><ele>1008.0</ele><time>2026-05-03T11:19:30Z</time></trkpt><trkpt lat="42.247580727039036" lon="19.74818239689639"><ele>1008.0</ele><time>2026-05-03T11:19:31Z</time></trkpt><trkpt lat="42.24746617961921" lon="19.74815148861179"><ele>1008.0</ele><time>2026-05-03T11:19:32Z</time></trkpt><trkpt lat="42.24735182707322" lon="19.74815856080345"><ele>1008.0</ele><time>2026-05-03T11:19:33Z</time></trkpt><trkpt lat="42.247278422870686" lon="19.748185856654757"><ele>1008.0</ele><time>2026-05-03T11:19:34Z</time></trkpt><trkpt lat="42.24721246004421" lon="19.748295310030237"><ele>1008.0</ele><time>2026-05-03T11:19:36Z</time></trkpt><trkpt lat="42.247242494937076" lon="19.74840089624877"><ele>1008.0</ele><time>2026-05-03T11:19:38Z</time></trkpt><trkpt lat="42.24737322864502" lon="19.74840618903105"><ele>1008.0</ele><time>2026-05-03T11:19:39.999Z</time></trkpt><trkpt lat="42.24748772335277" lon="19.748391120088403"><ele>1008.0</ele><time>2026-05-03T11:19:40.999Z</time></trkpt><trkpt lat="42.247599288269285" lon="19.748387096513557"><ele>1008.0</ele><time>2026-05-03T11:19:41.999Z</time></trkpt><trkpt lat="42.24773509683686" lon="19.74843608958344"><ele>1008.0</ele><time>2026-05-03T11:19:42.999Z</time></trkpt><trkpt lat="42.247870197717035" lon="19.748527335415556"><ele>1008.5999999999999</ele><time>2026-05-03T11:19:43.999Z</time></trkpt><trkpt lat="42.24797912863275" lon="19.748599937936593"><ele>1009.1999999999999</ele><time>2026-05-03T11:19:44.999Z</time></trkpt><trkpt lat="42.248062620176775" lon="19.748615960431128"><ele>1009.8</ele><time>2026-05-03T11:19:45.999Z</time></trkpt><trkpt lat="42.248139314330906" lon="19.748585308517217"><ele>1010.4</ele><time>2026-05-03T11:19:46.999Z</time></trkpt><trkpt lat="42.24821415964027" lon="19.748529031218922"><ele>1011.0</ele><time>2026-05-03T11:19:47.999Z</time></trkpt><trkpt lat="42.24829623446197" lon="19.748480545341287"><ele>1011.0</ele><time>2026-05-03T11:19:48.999Z</time></trkpt><trkpt lat="42.24837113041869" lon="19.748487823760662"><ele>1011.0</ele><time>2026-05-03T11:19:49.999Z</time></trkpt><trkpt lat="42.24846309117901" lon="19.748541468252782"><ele>1011.0</ele><time>2026-05-03T11:19:50.999Z</time></trkpt><trkpt lat="42.2485790659423" lon="19.748639338519013"><ele>1011.0</ele><time>2026-05-03T11:19:51.999Z</time></trkpt><trkpt lat="42.24871079367287" lon="19.748749689589403"><ele>1003.0</ele><time>2026-05-03T11:19:52.999Z</time></trkpt><trkpt lat="42.248875294668146" lon="19.748860538947547"><ele>995.0</ele><time>2026-05-03T11:19:53.999Z</time></trkpt><trkpt lat="42.249024892344465" lon="19.748948947021894"><ele>987.0</ele><time>2026-05-03T11:19:54.999Z</time></trkpt><trkpt lat="42.24916162020049" lon="19.749041640876136"><ele>987.0</ele><time>2026-05-03T11:19:55.999Z</time></trkpt><trkpt lat="42.24928442260436" lon="19.74911698183575"><ele>987.0</ele><time>2026-05-03T11:19:56.999Z</time></trkpt><trkpt lat="42.249394384803104" lon="19.749161946554672"><ele>987.0</ele><time>2026-05-03T11:19:57.999Z</time></trkpt><trkpt lat="42.24950995896474" lon="19.749153537781893"><ele>987.0</ele><time>2026-05-03T11:19:58.999Z</time></trkpt><trkpt lat="42.2496456125168" lon="19.749091890810114"><ele>981.6666666666667</ele><time>2026-05-03T11:19:59.999Z</time></trkpt><trkpt lat="42.24980152911631" lon="19.74900489239996"><ele>976.3333333333334</ele><time>2026-05-03T11:20:00.999Z</time></trkpt><trkpt lat="42.249969032919466" lon="19.748915750150065"><ele>971.0</ele><time>2026-05-03T11:20:01.999Z</time></trkpt><trkpt lat="42.25010670524659" lon="19.74886661783478"><ele>971.0</ele><time>2026-05-03T11:20:02.999Z</time></trkpt><trkpt lat="42.25021188338232" lon="19.748864979506834"><ele>971.0</ele><time>2026-05-03T11:20:03.999Z</time></trkpt><trkpt lat="42.25032074892421" lon="19.748868289736848"><ele>971.0</ele><time>2026-05-03T11:20:04.999Z</time></trkpt><trkpt lat="42.25045063981152" lon="19.748846957833756"><ele>971.0</ele><time>2026-05-03T11:20:05.999Z</time></trkpt><trkpt lat="42.25057338183686" lon="19.748803855759128"><ele>967.75</ele><time>2026-05-03T11:20:06.999Z</time></trkpt><trkpt lat="42.25068011186915" lon="19.748738662290446"><ele>964.5</ele><time>2026-05-03T11:20:07.999Z</time></trkpt><trkpt lat="42.25075698207464" lon="19.748666355781232"><ele>961.25</ele><time>2026-05-03T11:20:08.999Z</time></trkpt><trkpt lat="42.2508186073308" lon="19.74854225429413"><ele>958.0</ele><time>2026-05-03T11:20:09.999Z</time></trkpt><trkpt lat="42.25088616359678" lon="19.74838649260159"><ele>966.5</ele><time>2026-05-03T11:20:10.999Z</time></trkpt><trkpt lat="42.25095679264692" lon="19.748229212383173"><ele>975.0</ele><time>2026-05-03T11:20:11.999Z</time></trkpt><trkpt lat="42.25103674950457" lon="19.74810636755788"><ele>983.5</ele><time>2026-05-03T11:20:12.999Z</time></trkpt><trkpt lat="42.251120266431826" lon="19.748009543546566"><ele>992.0</ele><time>2026-05-03T11:20:13.999Z</time></trkpt><trkpt lat="42.25120972520253" lon="19.747930978636994"><ele>992.0</ele><time>2026-05-03T11:20:14.999Z</time></trkpt><trkpt lat="42.2512823809227" lon="19.747868398280342"><ele>992.0</ele><time>2026-05-03T11:20:15.999Z</time></trkpt><trkpt lat="42.25139627543554" lon="19.747855534501543"><ele>992.0</ele><time>2026-05-03T11:20:17.999Z</time></trkpt><trkpt lat="42.2514923084876" lon="19.747968728800394"><ele>992.0</ele><time>2026-05-03T11:20:19.999Z</time></trkpt><trkpt lat="42.25153754183092" lon="19.748049438544292"><ele>992.0</ele><time>2026-05-03T11:20:20.999Z</time></trkpt><trkpt lat="42.251575156701314" lon="19.748189884309824"><ele>986.75</ele><time>2026-05-03T11:20:21.999Z</time></trkpt><trkpt lat="42.25158767150068" lon="19.74836715599383"><ele>981.5</ele><time>2026-05-03T11:20:22.999Z</time></trkpt><trkpt lat="42.251594935051735" lon="19.748572322057278"><ele>976.25</ele><time>2026-05-03T11:20:23.999Z</time></trkpt><trkpt lat="42.25162344009708" lon="19.748733321604213"><ele>971.0</ele><time>2026-05-03T11:20:24.999Z</time></trkpt><trkpt lat="42.251678245288055" lon="19.748894036441236"><ele>966.3333333333334</ele><time>2026-05-03T11:20:25.999Z</time></trkpt><trkpt lat="42.25173495697564" lon="19.749086103462748"><ele>961.6666666666667</ele><time>2026-05-03T11:20:26.999Z</time></trkpt><trkpt lat="42.251752616431794" lon="19.749304044926582"><ele>957.0</ele><time>2026-05-03T11:20:27.999Z</time></trkpt><trkpt lat="42.25175154529427" lon="19.74951932179592"><ele>955.5</ele><time>2026-05-03T11:20:28.999Z</time></trkpt><trkpt lat="42.251727877563845" lon="19.74971762690331"><ele>954.0</ele><time>2026-05-03T11:20:29.999Z</time></trkpt><trkpt lat="42.25170050806736" lon="19.749904022383816"><ele>952.5</ele><time>2026-05-03T11:20:30.999Z</time></trkpt><trkpt lat="42.25167860134226" lon="19.750073856810264"><ele>951.0</ele><time>2026-05-03T11:20:31.999Z</time></trkpt><trkpt lat="42.251687775323965" lon="19.75024665975596"><ele>949.75</ele><time>2026-05-03T11:20:32.999Z</time></trkpt><trkpt lat="42.25170684542207" lon="19.75043835968291"><ele>948.5</ele><time>2026-05-03T11:20:33.999Z</time></trkpt><trkpt lat="42.25170801093968" lon="19.75059974607223"><ele>947.25</ele><time>2026-05-03T11:20:34.999Z</time></trkpt><trkpt lat="42.251678382529064" lon="19.75073274132384"><ele>946.0</ele><time>2026-05-03T11:20:35.999Z</time></trkpt><trkpt lat="42.2516406947017" lon="19.75084669381165"><ele>946.0</ele><time>2026-05-03T11:20:36.999Z</time></trkpt><trkpt lat="42.25159474614533" lon="19.750961641961684"><ele>945.9999999999999</ele><time>2026-05-03T11:20:37.999Z</time></trkpt><trkpt lat="42.251549342362594" lon="19.75107630720295"><ele>945.9999999999999</ele><time>2026-05-03T11:20:38.999Z</time></trkpt><trkpt lat="42.25152346080676" lon="19.751206780631406"><ele>946.0</ele><time>2026-05-03T11:20:39.999Z</time></trkpt><trkpt lat="42.25150861658926" lon="19.751339756033705"><ele>946.0</ele><time>2026-05-03T11:20:40.999Z</time></trkpt><trkpt lat="42.25151541946203" lon="19.751469609206488"><ele>946.0</ele><time>2026-05-03T11:20:41.999Z</time></trkpt><trkpt lat="42.25153779547727" lon="19.751598391612706"><ele>946.0</ele><time>2026-05-03T11:20:42.999Z</time></trkpt><trkpt lat="42.25158069770903" lon="19.751770643630017"><ele>946.0</ele><time>2026-05-03T11:20:43.999Z</time></trkpt><trkpt lat="42.25163922482947" lon="19.75196049800551"><ele>946.0</ele><time>2026-05-03T11:20:44.999Z</time></trkpt><trkpt lat="42.25168531087029" lon="19.75214664757249"><ele>944.1999999999999</ele><time>2026-05-03T11:20:45.999Z</time></trkpt><trkpt lat="42.25171092796157" lon="19.752283478763836"><ele>942.3999999999999</ele><time>2026-05-03T11:20:46.999Z</time></trkpt><trkpt lat="42.25174003648697" lon="19.752403945305808"><ele>940.6</ele><time>2026-05-03T11:20:47.999Z</time></trkpt><trkpt lat="42.25180362987266" lon="19.75252850785435"><ele>938.8</ele><time>2026-05-03T11:20:48.999Z</time></trkpt><trkpt lat="42.251862530485134" lon="19.75268998556663"><ele>937.0</ele><time>2026-05-03T11:20:49.999Z</time></trkpt><trkpt lat="42.251913678954345" lon="19.75287898786378"><ele>933.2</ele><time>2026-05-03T11:20:50.999Z</time></trkpt><trkpt lat="42.251947716464656" lon="19.753062670307774"><ele>929.4000000000001</ele><time>2026-05-03T11:20:51.999Z</time></trkpt><trkpt lat="42.2519704291756" lon="19.753192718606496"><ele>925.5999999999999</ele><time>2026-05-03T11:20:52.999Z</time></trkpt><trkpt lat="42.25199991203714" lon="19.753307156948605"><ele>921.8</ele><time>2026-05-03T11:20:53.999Z</time></trkpt><trkpt lat="42.25205852760335" lon="19.753396779836944"><ele>918.0</ele><time>2026-05-03T11:20:54.999Z</time></trkpt><trkpt lat="42.25217173836216" lon="19.753478428718335"><ele>920.0</ele><time>2026-05-03T11:20:55.999Z</time></trkpt><trkpt lat="42.25231878932886" lon="19.753534855663577"><ele>922.0</ele><time>2026-05-03T11:20:56.999Z</time></trkpt><trkpt lat="42.25246621775025" lon="19.753614762577005"><ele>924.0</ele><time>2026-05-03T11:20:57.999Z</time></trkpt><trkpt lat="42.25258812983485" lon="19.753728211741407"><ele>924.0</ele><time>2026-05-03T11:20:58.999Z</time></trkpt><trkpt lat="42.25269345634099" lon="19.75387354061856"><ele>924.0</ele><time>2026-05-03T11:20:59.999Z</time></trkpt><trkpt lat="42.25278046381591" lon="19.754064640282586"><ele>924.0</ele><time>2026-05-03T11:21:00.999Z</time></trkpt><trkpt lat="42.25285632841262" lon="19.754270174790992"><ele>924.3333333333333</ele><time>2026-05-03T11:21:01.999Z</time></trkpt><trkpt lat="42.252962541743806" lon="19.754473151034755"><ele>924.6666666666666</ele><time>2026-05-03T11:21:02.999Z</time></trkpt><trkpt lat="42.25308720821772" lon="19.75466891276693"><ele>925.0</ele><time>2026-05-03T11:21:03.999Z</time></trkpt><trkpt lat="42.25320447692289" lon="19.754863440263808"><ele>925.0</ele><time>2026-05-03T11:21:04.999Z</time></trkpt><trkpt lat="42.253290930575794" lon="19.755012325067835"><ele>925.0</ele><time>2026-05-03T11:21:05.999Z</time></trkpt><trkpt lat="42.25336562899387" lon="19.755105698066842"><ele>925.0</ele><time>2026-05-03T11:21:06.999Z</time></trkpt><trkpt lat="42.25345786875802" lon="19.755171413347384"><ele>925.0</ele><time>2026-05-03T11:21:07.999Z</time></trkpt><trkpt lat="42.25356545488567" lon="19.7552295266865"><ele>925.0</ele><time>2026-05-03T11:21:09Z</time></trkpt><trkpt lat="42.25366043578603" lon="19.7553032648519"><ele>925.0</ele><time>2026-05-03T11:21:10Z</time></trkpt><trkpt lat="42.25373794953533" lon="19.755395295898747"><ele>925.0</ele><time>2026-05-03T11:21:11Z</time></trkpt><trkpt lat="42.25378684095924" lon="19.755494612231796"><ele>925.0</ele><time>2026-05-03T11:21:12Z</time></trkpt><trkpt lat="42.25382553212837" lon="19.75562158490909"><ele>925.0</ele><time>2026-05-03T11:21:13Z</time></trkpt><trkpt lat="42.25387365690739" lon="19.755800766874952"><ele>922.9999999999999</ele><time>2026-05-03T11:21:14Z</time></trkpt><trkpt lat="42.25391957647829" lon="19.755951312869666"><ele>921.0</ele><time>2026-05-03T11:21:15Z</time></trkpt><trkpt lat="42.25394304562356" lon="19.756043755805962"><ele>919.0</ele><time>2026-05-03T11:21:16Z</time></trkpt><trkpt lat="42.25394590571172" lon="19.75617713201339"><ele>917.0</ele><time>2026-05-03T11:21:18Z</time></trkpt><trkpt lat="42.25389720134003" lon="19.75623156691942"><ele>914.9999999999999</ele><time>2026-05-03T11:21:19Z</time></trkpt><trkpt lat="42.25383490904072" lon="19.756294109594414"><ele>913.0</ele><time>2026-05-03T11:21:20Z</time></trkpt><trkpt lat="42.25378202002406" lon="19.75636645262644"><ele>912.9999999999999</ele><time>2026-05-03T11:21:21Z</time></trkpt><trkpt lat="42.25372343284756" lon="19.75645141934532"><ele>913.0</ele><time>2026-05-03T11:21:22Z</time></trkpt><trkpt lat="42.25365404228812" lon="19.75654063924008"><ele>913.0</ele><time>2026-05-03T11:21:23Z</time></trkpt><trkpt lat="42.25359124374823" lon="19.75664332377443"><ele>913.0</ele><time>2026-05-03T11:21:24Z</time></trkpt><trkpt lat="42.253534605946285" lon="19.75669548390515"><ele>912.9999999999999</ele><time>2026-05-03T11:21:25Z</time></trkpt><trkpt lat="42.253457617859944" lon="19.756782985325085"><ele>913.0</ele><time>2026-05-03T11:21:27Z</time></trkpt><trkpt lat="42.25339158404802" lon="19.756902980026226"><ele>914.2</ele><time>2026-05-03T11:21:29Z</time></trkpt><trkpt lat="42.253335331614494" lon="19.756973921413476"><ele>915.4</ele><time>2026-05-03T11:21:31Z</time></trkpt><trkpt lat="42.25332079887344" lon="19.757092752755252"><ele>916.6000000000001</ele><time>2026-05-03T11:22:04Z</time></trkpt><trkpt lat="42.25332122253088" lon="19.757217566620973"><ele>917.8000000000001</ele><time>2026-05-03T11:22:06Z</time></trkpt><trkpt lat="42.25330178984458" lon="19.757373579042568"><ele>919.0</ele><time>2026-05-03T11:22:08Z</time></trkpt><trkpt lat="42.253302859026824" lon="19.757482385540104"><ele>919.0</ele><time>2026-05-03T11:22:09Z</time></trkpt><trkpt lat="42.25328153985687" lon="19.757606513315235"><ele>919.0</ele><time>2026-05-03T11:22:10Z</time></trkpt><trkpt lat="42.25325083347263" lon="19.7577494623052"><ele>919.0</ele><time>2026-05-03T11:22:11Z</time></trkpt><trkpt lat="42.253202631536446" lon="19.75790154941744"><ele>919.0</ele><time>2026-05-03T11:22:12Z</time></trkpt><trkpt lat="42.25313349210237" lon="19.758051184511718"><ele>912.2</ele><time>2026-05-03T11:22:13Z</time></trkpt><trkpt lat="42.25305610749847" lon="19.758173736826983"><ele>905.4000000000001</ele><time>2026-05-03T11:22:13.999Z</time></trkpt><trkpt lat="42.25298771573783" lon="19.758273120909568"><ele>898.6</ele><time>2026-05-03T11:22:14.999Z</time></trkpt><trkpt lat="42.252944832118345" lon="19.758354792875114"><ele>891.8</ele><time>2026-05-03T11:22:15.999Z</time></trkpt><trkpt lat="42.252927116751806" lon="19.758450260722267"><ele>885.0</ele><time>2026-05-03T11:22:16.999Z</time></trkpt><trkpt lat="42.252927886228846" lon="19.758572627653724"><ele>882.0</ele><time>2026-05-03T11:22:17.999Z</time></trkpt><trkpt lat="42.25296275625912" lon="19.758711405511423"><ele>879.0</ele><time>2026-05-03T11:22:18.999Z</time></trkpt><trkpt lat="42.25301592703385" lon="19.758883992023627"><ele>876.0</ele><time>2026-05-03T11:22:19.999Z</time></trkpt><trkpt lat="42.253100691429836" lon="19.75909653009642"><ele>873.0</ele><time>2026-05-03T11:22:20.999Z</time></trkpt><trkpt lat="42.253189297434474" lon="19.75933146732088"><ele>873.0</ele><time>2026-05-03T11:22:21.999Z</time></trkpt><trkpt lat="42.25328158511119" lon="19.75956812592781"><ele>873.0</ele><time>2026-05-03T11:22:22.999Z</time></trkpt><trkpt lat="42.25336229720811" lon="19.759742097026358"><ele>873.0</ele><time>2026-05-03T11:22:23.999Z</time></trkpt><trkpt lat="42.253429287574406" lon="19.75990815474684"><ele>873.0</ele><time>2026-05-03T11:22:24.999Z</time></trkpt><trkpt lat="42.25347516779424" lon="19.76007198258793"><ele>873.0</ele><time>2026-05-03T11:22:25.999Z</time></trkpt><trkpt lat="42.25348679422685" lon="19.760235439228378"><ele>873.0</ele><time>2026-05-03T11:22:26.999Z</time></trkpt><trkpt lat="42.25348336681903" lon="19.760412023227584"><ele>873.0</ele><time>2026-05-03T11:22:27.999Z</time></trkpt><trkpt lat="42.25350839809032" lon="19.760592982573964"><ele>873.0</ele><time>2026-05-03T11:22:28.999Z</time></trkpt><trkpt lat="42.253542793534656" lon="19.76078675485943"><ele>873.0</ele><time>2026-05-03T11:22:29.999Z</time></trkpt><trkpt lat="42.25353897131222" lon="19.760997131340126"><ele>873.0</ele><time>2026-05-03T11:22:30.999Z</time></trkpt><trkpt lat="42.253543773346486" lon="19.761186574804455"><ele>873.0</ele><time>2026-05-03T11:22:31.999Z</time></trkpt><trkpt lat="42.25356645979746" lon="19.761367820656613"><ele>874.6666666666667</ele><time>2026-05-03T11:22:32.999Z</time></trkpt><trkpt lat="42.253597850929665" lon="19.761586090236325"><ele>876.3333333333334</ele><time>2026-05-03T11:22:33.999Z</time></trkpt><trkpt lat="42.25361235630346" lon="19.761837169117825"><ele>878.0</ele><time>2026-05-03T11:22:34.999Z</time></trkpt><trkpt lat="42.253619748325875" lon="19.762123883873297"><ele>878.0</ele><time>2026-05-03T11:22:35.999Z</time></trkpt><trkpt lat="42.253615448914616" lon="19.762315856165436"><ele>878.0</ele><time>2026-05-03T11:22:36.999Z</time></trkpt><trkpt lat="42.25360845549928" lon="19.762481218692496"><ele>878.0</ele><time>2026-05-03T11:22:37.999Z</time></trkpt><trkpt lat="42.253591817241265" lon="19.76263167501284"><ele>878.0</ele><time>2026-05-03T11:22:38.999Z</time></trkpt><trkpt lat="42.25354486474778" lon="19.76277398576153"><ele>878.0</ele><time>2026-05-03T11:22:39.999Z</time></trkpt><trkpt lat="42.25347129826287" lon="19.76292661772527"><ele>878.0</ele><time>2026-05-03T11:22:40.999Z</time></trkpt><trkpt lat="42.25337806633884" lon="19.763083133805182"><ele>878.0</ele><time>2026-05-03T11:22:41.999Z</time></trkpt><trkpt lat="42.25330647078222" lon="19.763222077756453"><ele>878.0</ele><time>2026-05-03T11:22:42.999Z</time></trkpt><trkpt lat="42.2532659690176" lon="19.763350668073045"><ele>878.0</ele><time>2026-05-03T11:22:43.999Z</time></trkpt><trkpt lat="42.25325585846868" lon="19.76349978059784"><ele>878.0</ele><time>2026-05-03T11:22:44.999Z</time></trkpt><trkpt lat="42.253254055195484" lon="19.76368152588017"><ele>878.0</ele><time>2026-05-03T11:22:45.999Z</time></trkpt><trkpt lat="42.25325707093271" lon="19.763855335758834"><ele>878.0</ele><time>2026-05-03T11:22:46.999Z</time></trkpt><trkpt lat="42.2532763560375" lon="19.764040015310854"><ele>882.3333333333334</ele><time>2026-05-03T11:22:47.999Z</time></trkpt><trkpt lat="42.253320105845425" lon="19.76425026071453"><ele>886.6666666666667</ele><time>2026-05-03T11:22:48.999Z</time></trkpt><trkpt lat="42.25338187189363" lon="19.764474145948487"><ele>891.0</ele><time>2026-05-03T11:22:49.999Z</time></trkpt><trkpt lat="42.25344672242633" lon="19.764717574881487"><ele>891.0</ele><time>2026-05-03T11:22:50.999Z</time></trkpt><trkpt lat="42.253495525148544" lon="19.764981240896212"><ele>891.0</ele><time>2026-05-03T11:22:51.999Z</time></trkpt><trkpt lat="42.25352608771439" lon="19.765269625124564"><ele>891.0</ele><time>2026-05-03T11:22:52.999Z</time></trkpt><trkpt lat="42.253538575830284" lon="19.76553841309592"><ele>891.0</ele><time>2026-05-03T11:22:53.999Z</time></trkpt><trkpt lat="42.25355085592221" lon="19.76578979447195"><ele>891.0</ele><time>2026-05-03T11:22:54.999Z</time></trkpt><trkpt lat="42.253575756469324" lon="19.76600964070561"><ele>891.0</ele><time>2026-05-03T11:22:55.999Z</time></trkpt><trkpt lat="42.25361321898977" lon="19.766229598106445"><ele>891.0</ele><time>2026-05-03T11:22:56.999Z</time></trkpt><trkpt lat="42.25365999122662" lon="19.76642746072249"><ele>891.0</ele><time>2026-05-03T11:22:57.999Z</time></trkpt><trkpt lat="42.25371487904269" lon="19.766615501043105"><ele>891.0</ele><time>2026-05-03T11:22:58.999Z</time></trkpt><trkpt lat="42.253753052194746" lon="19.76682147006639"><ele>889.6666666666667</ele><time>2026-05-03T11:22:59.999Z</time></trkpt><trkpt lat="42.2537586112349" lon="19.767024258054324"><ele>888.3333333333334</ele><time>2026-05-03T11:23:00.999Z</time></trkpt><trkpt lat="42.25377307303277" lon="19.767263289913437"><ele>887.0</ele><time>2026-05-03T11:23:01.999Z</time></trkpt><trkpt lat="42.25378079742815" lon="19.767516533234513"><ele>887.6666666666667</ele><time>2026-05-03T11:23:02.999Z</time></trkpt><trkpt lat="42.25377807991423" lon="19.767771248147987"><ele>888.3333333333333</ele><time>2026-05-03T11:23:03.999Z</time></trkpt><trkpt lat="42.25377566072444" lon="19.76803376505511"><ele>889.0</ele><time>2026-05-03T11:23:04.999Z</time></trkpt><trkpt lat="42.25377702522052" lon="19.76832095503955"><ele>888.3333333333333</ele><time>2026-05-03T11:23:05.999Z</time></trkpt><trkpt lat="42.25377754445544" lon="19.76858959997091"><ele>887.6666666666667</ele><time>2026-05-03T11:23:06.999Z</time></trkpt><trkpt lat="42.253766968572414" lon="19.768837043798083"><ele>887.0</ele><time>2026-05-03T11:23:07.999Z</time></trkpt><trkpt lat="42.253739854090874" lon="19.769065208585406"><ele>887.0</ele><time>2026-05-03T11:23:08.999Z</time></trkpt><trkpt lat="42.25370266850913" lon="19.769260055177647"><ele>887.0</ele><time>2026-05-03T11:23:09.999Z</time></trkpt><trkpt lat="42.25365731515433" lon="19.769456496705057"><ele>887.0</ele><time>2026-05-03T11:23:10.999Z</time></trkpt><trkpt lat="42.25361039348749" lon="19.769678419956595"><ele>887.6666666666667</ele><time>2026-05-03T11:23:11.999Z</time></trkpt><trkpt lat="42.253586342638215" lon="19.769916350442365"><ele>888.3333333333333</ele><time>2026-05-03T11:23:12.999Z</time></trkpt><trkpt lat="42.25357452907511" lon="19.770175425574028"><ele>889.0</ele><time>2026-05-03T11:23:14Z</time></trkpt><trkpt lat="42.253561119382276" lon="19.770454396901123"><ele>889.3333333333333</ele><time>2026-05-03T11:23:15Z</time></trkpt><trkpt lat="42.25355853524884" lon="19.770742164184373"><ele>889.6666666666667</ele><time>2026-05-03T11:23:16Z</time></trkpt><trkpt lat="42.2535690685326" lon="19.771052555896365"><ele>890.0</ele><time>2026-05-03T11:23:17Z</time></trkpt><trkpt lat="42.25357487712428" lon="19.77132915293686"><ele>891.6666666666667</ele><time>2026-05-03T11:23:18Z</time></trkpt><trkpt lat="42.25355464321288" lon="19.77161417314582"><ele>893.3333333333333</ele><time>2026-05-03T11:23:19Z</time></trkpt><trkpt lat="42.25352923061351" lon="19.771910873556298"><ele>895.0</ele><time>2026-05-03T11:23:20Z</time></trkpt><trkpt lat="42.253478798683304" lon="19.772227840933315"><ele>899.6666666666666</ele><time>2026-05-03T11:23:21Z</time></trkpt><trkpt lat="42.25341536916728" lon="19.772536199610382"><ele>904.3333333333333</ele><time>2026-05-03T11:23:22Z</time></trkpt><trkpt lat="42.25332985619437" lon="19.772791110841165"><ele>909.0</ele><time>2026-05-03T11:23:23Z</time></trkpt><trkpt lat="42.253265740394006" lon="19.772994452345312"><ele>911.5</ele><time>2026-05-03T11:23:24Z</time></trkpt><trkpt lat="42.253225405343976" lon="19.77315645204905"><ele>914.0</ele><time>2026-05-03T11:23:25Z</time></trkpt><trkpt lat="42.253203219759584" lon="19.773331873320434"><ele>916.5</ele><time>2026-05-03T11:23:26Z</time></trkpt><trkpt lat="42.25319727690812" lon="19.77354217161982"><ele>919.0</ele><time>2026-05-03T11:23:27Z</time></trkpt><trkpt lat="42.25320060379302" lon="19.773786322166735"><ele>922.3333333333333</ele><time>2026-05-03T11:23:28Z</time></trkpt><trkpt lat="42.253210652205254" lon="19.774038713681385"><ele>925.6666666666667</ele><time>2026-05-03T11:23:29Z</time></trkpt><trkpt lat="42.25322656398695" lon="19.77429778885463"><ele>929.0</ele><time>2026-05-03T11:23:30Z</time></trkpt><trkpt lat="42.25323311942582" lon="19.77454872712682"><ele>931.6666666666667</ele><time>2026-05-03T11:23:31Z</time></trkpt><trkpt lat="42.25321520185535" lon="19.77475535355662"><ele>934.3333333333333</ele><time>2026-05-03T11:23:32Z</time></trkpt><trkpt lat="42.25318619681889" lon="19.774963319246073"><ele>937.0</ele><time>2026-05-03T11:23:33Z</time></trkpt><trkpt lat="42.25318519276306" lon="19.77518614414454"><ele>936.6666666666666</ele><time>2026-05-03T11:23:34Z</time></trkpt><trkpt lat="42.25320269542225" lon="19.775418046249154"><ele>936.3333333333333</ele><time>2026-05-03T11:23:35Z</time></trkpt><trkpt lat="42.25323623128959" lon="19.775662658461897"><ele>936.0</ele><time>2026-05-03T11:23:36Z</time></trkpt><trkpt lat="42.253261253475166" lon="19.775924516045336"><ele>936.0</ele><time>2026-05-03T11:23:37Z</time></trkpt><trkpt lat="42.253276634190605" lon="19.776215794211844"><ele>936.0</ele><time>2026-05-03T11:23:38Z</time></trkpt><trkpt lat="42.25327546525512" lon="19.776492547026795"><ele>936.0</ele><time>2026-05-03T11:23:39Z</time></trkpt><trkpt lat="42.25327201835253" lon="19.77678088826458"><ele>936.25</ele><time>2026-05-03T11:23:40Z</time></trkpt><trkpt lat="42.25325802431529" lon="19.777026432599225"><ele>936.5</ele><time>2026-05-03T11:23:41Z</time></trkpt><trkpt lat="42.25323844961548" lon="19.77721154536598"><ele>936.75</ele><time>2026-05-03T11:23:42Z</time></trkpt><trkpt lat="42.253246771022106" lon="19.77736527252281"><ele>937.0</ele><time>2026-05-03T11:23:43Z</time></trkpt><trkpt lat="42.25328509433933" lon="19.77755700965681"><ele>933.6666666666666</ele><time>2026-05-03T11:23:44Z</time></trkpt><trkpt lat="42.25333663298974" lon="19.777761861047384"><ele>930.3333333333333</ele><time>2026-05-03T11:23:45Z</time></trkpt><trkpt lat="42.253397483446484" lon="19.77799427717787"><ele>927.0</ele><time>2026-05-03T11:23:46Z</time></trkpt><trkpt lat="42.253447496866514" lon="19.778237403043057"><ele>927.0</ele><time>2026-05-03T11:23:47Z</time></trkpt><trkpt lat="42.25347159634591" lon="19.778453512935734"><ele>927.0</ele><time>2026-05-03T11:23:48Z</time></trkpt><trkpt lat="42.25347811632473" lon="19.778630568008744"><ele>927.0</ele><time>2026-05-03T11:23:49Z</time></trkpt><trkpt lat="42.25350513432752" lon="19.778795396696616"><ele>927.0</ele><time>2026-05-03T11:23:50Z</time></trkpt><trkpt lat="42.253577820409575" lon="19.778967031513673"><ele>924.0</ele><time>2026-05-03T11:23:51Z</time></trkpt><trkpt lat="42.253676352136985" lon="19.77915169999064"><ele>921.0</ele><time>2026-05-03T11:23:52Z</time></trkpt><trkpt lat="42.253775705937336" lon="19.77937392720837"><ele>918.0</ele><time>2026-05-03T11:23:53Z</time></trkpt><trkpt lat="42.253853764702036" lon="19.77961333691579"><ele>920.6666666666667</ele><time>2026-05-03T11:23:54Z</time></trkpt><trkpt lat="42.25394915591323" lon="19.77986109204313"><ele>923.3333333333334</ele><time>2026-05-03T11:23:55Z</time></trkpt><trkpt lat="42.25405416180395" lon="19.780109937487477"><ele>926.0</ele><time>2026-05-03T11:23:56Z</time></trkpt><trkpt lat="42.25416905283888" lon="19.780373727751506"><ele>926.0</ele><time>2026-05-03T11:23:57Z</time></trkpt><trkpt lat="42.25427746371505" lon="19.78062625367871"><ele>926.0</ele><time>2026-05-03T11:23:58Z</time></trkpt><trkpt lat="42.25437570461644" lon="19.780849106685807"><ele>926.0</ele><time>2026-05-03T11:23:59Z</time></trkpt><trkpt lat="42.2544611442216" lon="19.78104745923287"><ele>922.5</ele><time>2026-05-03T11:24:00Z</time></trkpt><trkpt lat="42.25452485397242" lon="19.781216311583247"><ele>919.0</ele><time>2026-05-03T11:24:01Z</time></trkpt><trkpt lat="42.254563365905554" lon="19.7813778102377"><ele>915.5</ele><time>2026-05-03T11:24:02Z</time></trkpt><trkpt lat="42.25456856727897" lon="19.7815542148214"><ele>912.0</ele><time>2026-05-03T11:24:03Z</time></trkpt><trkpt lat="42.254577186671" lon="19.781765639905984"><ele>908.5</ele><time>2026-05-03T11:24:04Z</time></trkpt><trkpt lat="42.254595901482574" lon="19.78197254310431"><ele>905.0</ele><time>2026-05-03T11:24:05Z</time></trkpt><trkpt lat="42.25463449547937" lon="19.782144020489064"><ele>901.5</ele><time>2026-05-03T11:24:06Z</time></trkpt><trkpt lat="42.25468380417924" lon="19.782288525136327"><ele>898.0</ele><time>2026-05-03T11:24:07Z</time></trkpt><trkpt lat="42.254710704812005" lon="19.782402709195537"><ele>898.0</ele><time>2026-05-03T11:24:08Z</time></trkpt><trkpt lat="42.25469429027801" lon="19.78253265216492"><ele>898.0</ele><time>2026-05-03T11:24:09Z</time></trkpt><trkpt lat="42.254658756030985" lon="19.782713658792858"><ele>898.0</ele><time>2026-05-03T11:24:10Z</time></trkpt><trkpt lat="42.25462753379343" lon="19.782907997584914"><ele>898.0</ele><time>2026-05-03T11:24:11Z</time></trkpt><trkpt lat="42.25461578005337" lon="19.783087681617847"><ele>896.4</ele><time>2026-05-03T11:24:12Z</time></trkpt><trkpt lat="42.254604121254154" lon="19.783260524527666"><ele>894.8</ele><time>2026-05-03T11:24:13Z</time></trkpt><trkpt lat="42.25459382036338" lon="19.78340265585406"><ele>893.2</ele><time>2026-05-03T11:24:14Z</time></trkpt><trkpt lat="42.254591431189986" lon="19.783498692169058"><ele>891.6</ele><time>2026-05-03T11:24:15Z</time></trkpt><trkpt lat="42.254628173429445" lon="19.78362373592408"><ele>890.0</ele><time>2026-05-03T11:24:17Z</time></trkpt><trkpt lat="42.25469772250955" lon="19.783637240910977"><ele>890.0</ele><time>2026-05-03T11:24:19Z</time></trkpt><trkpt lat="42.25478043485535" lon="19.783536752565077"><ele>890.0</ele><time>2026-05-03T11:24:21Z</time></trkpt><trkpt lat="42.25485042958542" lon="19.78342214520209"><ele>890.0</ele><time>2026-05-03T11:24:22Z</time></trkpt><trkpt lat="42.254939120468414" lon="19.78329281036063"><ele>890.0</ele><time>2026-05-03T11:24:23Z</time></trkpt><trkpt lat="42.25503753027169" lon="19.783202135262478"><ele>894.0</ele><time>2026-05-03T11:24:24Z</time></trkpt><trkpt lat="42.2551386573737" lon="19.78317415420462"><ele>898.0</ele><time>2026-05-03T11:24:25Z</time></trkpt><trkpt lat="42.25525109120112" lon="19.783137571122033"><ele>902.0</ele><time>2026-05-03T11:24:26Z</time></trkpt><trkpt lat="42.255396516608485" lon="19.783121229402656"><ele>906.0</ele><time>2026-05-03T11:24:27Z</time></trkpt><trkpt lat="42.25555400241497" lon="19.783118954037512"><ele>904.25</ele><time>2026-05-03T11:24:28Z</time></trkpt><trkpt lat="42.25571037993578" lon="19.783187190478536"><ele>902.5</ele><time>2026-05-03T11:24:29Z</time></trkpt><trkpt lat="42.25583938317457" lon="19.783265192893086"><ele>900.75</ele><time>2026-05-03T11:24:30Z</time></trkpt><trkpt lat="42.25597304167483" lon="19.783304352732888"><ele>899.0</ele><time>2026-05-03T11:24:31Z</time></trkpt><trkpt lat="42.25608697752236" lon="19.783320344635303"><ele>899.0</ele><time>2026-05-03T11:24:32Z</time></trkpt><trkpt lat="42.256188868529485" lon="19.78329580291846"><ele>899.0</ele><time>2026-05-03T11:24:33Z</time></trkpt><trkpt lat="42.256302552427165" lon="19.78324070158903"><ele>899.0</ele><time>2026-05-03T11:24:34Z</time></trkpt><trkpt lat="42.25641404129812" lon="19.78313921240953"><ele>899.0</ele><time>2026-05-03T11:24:35Z</time></trkpt><trkpt lat="42.25650721050512" lon="19.783016152156847"><ele>898.6</ele><time>2026-05-03T11:24:36Z</time></trkpt><trkpt lat="42.256583338525715" lon="19.782855509807124"><ele>898.2</ele><time>2026-05-03T11:24:37Z</time></trkpt><trkpt lat="42.25663717370366" lon="19.782717320658055"><ele>897.8000000000001</ele><time>2026-05-03T11:24:38Z</time></trkpt><trkpt lat="42.256660331542484" lon="19.782622048199297"><ele>897.4000000000001</ele><time>2026-05-03T11:24:39Z</time></trkpt><trkpt lat="42.2566991447789" lon="19.782519087702795"><ele>897.0</ele><time>2026-05-03T11:24:41Z</time></trkpt><trkpt lat="42.256769657962174" lon="19.78255863806667"><ele>897.0</ele><time>2026-05-03T11:24:43Z</time></trkpt><trkpt lat="42.25678599238657" lon="19.782675978521738"><ele>897.0</ele><time>2026-05-03T11:24:45Z</time></trkpt><trkpt lat="42.25675612793098" lon="19.78278122123113"><ele>897.0</ele><time>2026-05-03T11:24:46Z</time></trkpt><trkpt lat="42.25668769040434" lon="19.78290420881208"><ele>897.0</ele><time>2026-05-03T11:24:47Z</time></trkpt><trkpt lat="42.25660631777467" lon="19.78306499015845"><ele>897.0</ele><time>2026-05-03T11:24:48Z</time></trkpt><trkpt lat="42.256516348136394" lon="19.78325739023945"><ele>897.6666666666667</ele><time>2026-05-03T11:24:49Z</time></trkpt><trkpt lat="42.256412381431154" lon="19.783466863882158"><ele>898.3333333333334</ele><time>2026-05-03T11:24:50Z</time></trkpt><trkpt lat="42.256322371901554" lon="19.783659324603388"><ele>899.0</ele><time>2026-05-03T11:24:51Z</time></trkpt><trkpt lat="42.25624102457437" lon="19.783790488393546"><ele>895.8000000000001</ele><time>2026-05-03T11:24:52Z</time></trkpt><trkpt lat="42.256166318906025" lon="19.78389746697551"><ele>892.6000000000001</ele><time>2026-05-03T11:24:53Z</time></trkpt><trkpt lat="42.25610161604786" lon="19.78399179406973"><ele>889.4</ele><time>2026-05-03T11:24:54Z</time></trkpt><trkpt lat="42.256030888687974" lon="19.78407907113622"><ele>886.2</ele><time>2026-05-03T11:24:55Z</time></trkpt><trkpt lat="42.25592161725486" lon="19.784156161815048"><ele>883.0</ele><time>2026-05-03T11:24:56Z</time></trkpt><trkpt lat="42.2557878463126" lon="19.784250658376852"><ele>884.0</ele><time>2026-05-03T11:24:57Z</time></trkpt><trkpt lat="42.25565298681387" lon="19.784364799622697"><ele>885.0</ele><time>2026-05-03T11:24:58Z</time></trkpt><trkpt lat="42.255533923195415" lon="19.784490074986117"><ele>886.0</ele><time>2026-05-03T11:24:59Z</time></trkpt><trkpt lat="42.255420014260174" lon="19.784629948148147"><ele>886.0</ele><time>2026-05-03T11:25:00Z</time></trkpt><trkpt lat="42.25530586491968" lon="19.784789513090512"><ele>886.0</ele><time>2026-05-03T11:25:01Z</time></trkpt><trkpt lat="42.25519696081745" lon="19.78495606122228"><ele>886.0</ele><time>2026-05-03T11:25:02Z</time></trkpt><trkpt lat="42.25512002936059" lon="19.785095505925707"><ele>883.25</ele><time>2026-05-03T11:25:03Z</time></trkpt><trkpt lat="42.25507015531905" lon="19.78523184194125"><ele>880.5</ele><time>2026-05-03T11:25:04Z</time></trkpt><trkpt lat="42.25503002431174" lon="19.78539784039889"><ele>877.75</ele><time>2026-05-03T11:25:05Z</time></trkpt><trkpt lat="42.25500209450301" lon="19.78560602410088"><ele>875.0</ele><time>2026-05-03T11:25:06Z</time></trkpt><trkpt lat="42.25497319740142" lon="19.785805804942388"><ele>875.0</ele><time>2026-05-03T11:25:07Z</time></trkpt><trkpt lat="42.254949215925734" lon="19.785951434815317"><ele>875.0</ele><time>2026-05-03T11:25:08Z</time></trkpt><trkpt lat="42.25494563876035" lon="19.786048206567965"><ele>875.0</ele><time>2026-05-03T11:25:09Z</time></trkpt><trkpt lat="42.25498728084127" lon="19.786178801363164"><ele>875.0</ele><time>2026-05-03T11:25:11Z</time></trkpt><trkpt lat="42.25509405799251" lon="19.78617296334088"><ele>875.0</ele><time>2026-05-03T11:25:13Z</time></trkpt><trkpt lat="42.255150652439035" lon="19.786120729468458"><ele>875.0</ele><time>2026-05-03T11:25:14Z</time></trkpt><trkpt lat="42.25519377835322" lon="19.78602235099798"><ele>875.0</ele><time>2026-05-03T11:25:15Z</time></trkpt><trkpt lat="42.25523924422022" lon="19.78586810411419"><ele>875.0</ele><time>2026-05-03T11:25:16Z</time></trkpt><trkpt lat="42.25531281499542" lon="19.785718172929997"><ele>875.0</ele><time>2026-05-03T11:25:17Z</time></trkpt><trkpt lat="42.25541726544484" lon="19.78557581993746"><ele>875.0</ele><time>2026-05-03T11:25:18Z</time></trkpt><trkpt lat="42.2555487601852" lon="19.785442597735067"><ele>875.0</ele><time>2026-05-03T11:25:19Z</time></trkpt><trkpt lat="42.25568742833596" lon="19.785322142997874"><ele>875.0</ele><time>2026-05-03T11:25:20.001Z</time></trkpt><trkpt lat="42.25582213490562" lon="19.785212595511567"><ele>872.75</ele><time>2026-05-03T11:25:21.001Z</time></trkpt><trkpt lat="42.25593911905526" lon="19.785121224562282"><ele>870.5</ele><time>2026-05-03T11:25:22.001Z</time></trkpt><trkpt lat="42.25604394830847" lon="19.785067842662997"><ele>868.25</ele><time>2026-05-03T11:25:23.001Z</time></trkpt><trkpt lat="42.256175611744645" lon="19.785053478220572"><ele>866.0</ele><time>2026-05-03T11:25:24.001Z</time></trkpt><trkpt lat="42.25631045021224" lon="19.785013986350048"><ele>866.0</ele><time>2026-05-03T11:25:25.001Z</time></trkpt><trkpt lat="42.256438184759695" lon="19.784928503737156"><ele>866.0</ele><time>2026-05-03T11:25:26.001Z</time></trkpt><trkpt lat="42.25656296895328" lon="19.784808651583177"><ele>866.0</ele><time>2026-05-03T11:25:27.001Z</time></trkpt><trkpt lat="42.256709939656915" lon="19.78467591266373"><ele>866.6666666666667</ele><time>2026-05-03T11:25:28.001Z</time></trkpt><trkpt lat="42.25686782150556" lon="19.78453308329975"><ele>867.3333333333333</ele><time>2026-05-03T11:25:29.001Z</time></trkpt><trkpt lat="42.25701745858701" lon="19.78440566925147"><ele>868.0</ele><time>2026-05-03T11:25:30.001Z</time></trkpt><trkpt lat="42.257150184668276" lon="19.784288982763897"><ele>868.0</ele><time>2026-05-03T11:25:31.001Z</time></trkpt><trkpt lat="42.25726099797113" lon="19.784168019258406"><ele>868.0</ele><time>2026-05-03T11:25:32.001Z</time></trkpt><trkpt lat="42.25735965917041" lon="19.784058271085716"><ele>868.0</ele><time>2026-05-03T11:25:33.001Z</time></trkpt><trkpt lat="42.25747139401555" lon="19.78398385079789"><ele>868.0</ele><time>2026-05-03T11:25:34.001Z</time></trkpt><trkpt lat="42.25757588611491" lon="19.783927340090592"><ele>864.2</ele><time>2026-05-03T11:25:35.001Z</time></trkpt><trkpt lat="42.257671306813435" lon="19.7838796000496"><ele>860.4</ele><time>2026-05-03T11:25:36.001Z</time></trkpt><trkpt lat="42.257750175810514" lon="19.783843100181382"><ele>856.6</ele><time>2026-05-03T11:25:37.001Z</time></trkpt><trkpt lat="42.25784116677357" lon="19.78382794739827"><ele>852.8000000000001</ele><time>2026-05-03T11:25:38Z</time></trkpt><trkpt lat="42.257932842165374" lon="19.783856720503607"><ele>849.0</ele><time>2026-05-03T11:25:39Z</time></trkpt><trkpt lat="42.25803708980322" lon="19.783924062266273"><ele>845.0</ele><time>2026-05-03T11:25:40Z</time></trkpt><trkpt lat="42.258143386422546" lon="19.78400626709616"><ele>841.0</ele><time>2026-05-03T11:25:41Z</time></trkpt><trkpt lat="42.25822975277745" lon="19.784084317700017"><ele>837.0</ele><time>2026-05-03T11:25:42Z</time></trkpt><trkpt lat="42.25827660622013" lon="19.784160852378758"><ele>833.0</ele><time>2026-05-03T11:25:42.999Z</time></trkpt><trkpt lat="42.25830676237293" lon="19.78426622976788"><ele>829.0</ele><time>2026-05-03T11:25:43.999Z</time></trkpt><trkpt lat="42.25831541500454" lon="19.784383567392297"><ele>829.75</ele><time>2026-05-03T11:25:44.999Z</time></trkpt><trkpt lat="42.25828507104439" lon="19.784527780979396"><ele>830.5</ele><time>2026-05-03T11:25:45.999Z</time></trkpt><trkpt lat="42.25822851710714" lon="19.78469869389048"><ele>831.25</ele><time>2026-05-03T11:25:46.999Z</time></trkpt><trkpt lat="42.25814773308856" lon="19.784893732972492"><ele>832.0</ele><time>2026-05-03T11:25:47.999Z</time></trkpt><trkpt lat="42.25806932926059" lon="19.785104862173814"><ele>830.0</ele><time>2026-05-03T11:25:48.999Z</time></trkpt><trkpt lat="42.25800103855591" lon="19.78532160323895"><ele>828.0</ele><time>2026-05-03T11:25:49.999Z</time></trkpt><trkpt lat="42.25795902886296" lon="19.785520860928724"><ele>826.0</ele><time>2026-05-03T11:25:50.999Z</time></trkpt><trkpt lat="42.257927294490955" lon="19.78571914573795"><ele>826.0</ele><time>2026-05-03T11:25:51.999Z</time></trkpt><trkpt lat="42.25788994873165" lon="19.785917681775388"><ele>826.0</ele><time>2026-05-03T11:25:52.999Z</time></trkpt><trkpt lat="42.25782304121878" lon="19.786127645057352"><ele>826.0</ele><time>2026-05-03T11:25:53.999Z</time></trkpt><trkpt lat="42.25775656633795" lon="19.786314200461014"><ele>825.0</ele><time>2026-05-03T11:25:54.999Z</time></trkpt><trkpt lat="42.25768829684409" lon="19.786476093624962"><ele>824.0</ele><time>2026-05-03T11:25:55.999Z</time></trkpt><trkpt lat="42.25763594437338" lon="19.786590792153795"><ele>823.0</ele><time>2026-05-03T11:25:56.999Z</time></trkpt><trkpt lat="42.25759166610679" lon="19.78667026650436"><ele>822.0</ele><time>2026-05-03T11:25:57.999Z</time></trkpt><trkpt lat="42.25757138319313" lon="19.78676262332724"><ele>821.0</ele><time>2026-05-03T11:25:58.999Z</time></trkpt><trkpt lat="42.25756694974598" lon="19.786906046185095"><ele>819.75</ele><time>2026-05-03T11:25:59.999Z</time></trkpt><trkpt lat="42.25756571588509" lon="19.787079783332853"><ele>818.5</ele><time>2026-05-03T11:26:00.999Z</time></trkpt><trkpt lat="42.257539469560164" lon="19.787290078304675"><ele>817.25</ele><time>2026-05-03T11:26:01.999Z</time></trkpt><trkpt lat="42.257506336875515" lon="19.787503052358087"><ele>816.0</ele><time>2026-05-03T11:26:02.999Z</time></trkpt><trkpt lat="42.25748823193226" lon="19.787688070123462"><ele>813.0</ele><time>2026-05-03T11:26:03.999Z</time></trkpt><trkpt lat="42.25748845066601" lon="19.787862565670334"><ele>810.0</ele><time>2026-05-03T11:26:04.999Z</time></trkpt><trkpt lat="42.25749916081372" lon="19.788041873420262"><ele>807.0</ele><time>2026-05-03T11:26:05.999Z</time></trkpt><trkpt lat="42.25749251922746" lon="19.788201715948396"><ele>804.0</ele><time>2026-05-03T11:26:06.999Z</time></trkpt><trkpt lat="42.2574421950949" lon="19.788330930503875"><ele>804.0</ele><time>2026-05-03T11:26:07.999Z</time></trkpt><trkpt lat="42.25738269632209" lon="19.788453453927882"><ele>804.0</ele><time>2026-05-03T11:26:08.999Z</time></trkpt><trkpt lat="42.25729970077374" lon="19.788554013412256"><ele>804.0</ele><time>2026-05-03T11:26:09.999Z</time></trkpt><trkpt lat="42.25721036773824" lon="19.788625056554203"><ele>804.0</ele><time>2026-05-03T11:26:10.999Z</time></trkpt><trkpt lat="42.25714118390953" lon="19.788660535191703"><ele>804.0</ele><time>2026-05-03T11:26:11.999Z</time></trkpt><trkpt lat="42.25710905219482" lon="19.788771209235556"><ele>804.2</ele><time>2026-05-03T11:26:13.999Z</time></trkpt><trkpt lat="42.25717105560906" lon="19.78889877108069"><ele>804.4000000000001</ele><time>2026-05-03T11:26:15.999Z</time></trkpt><trkpt lat="42.25723607279932" lon="19.788949546189826"><ele>804.6</ele><time>2026-05-03T11:26:16.999Z</time></trkpt><trkpt lat="42.257343165592374" lon="19.788996011040044"><ele>804.8</ele><time>2026-05-03T11:26:17.999Z</time></trkpt><trkpt lat="42.2574646954888" lon="19.78904623473508"><ele>805.0</ele><time>2026-05-03T11:26:18.999Z</time></trkpt><trkpt lat="42.25761320507971" lon="19.789104488885133"><ele>804.9999999999999</ele><time>2026-05-03T11:26:19.999Z</time></trkpt><trkpt lat="42.25772777202206" lon="19.789167625263936"><ele>805.0</ele><time>2026-05-03T11:26:20.999Z</time></trkpt><trkpt lat="42.257806129987316" lon="19.789220898273093"><ele>805.0</ele><time>2026-05-03T11:26:21.999Z</time></trkpt><trkpt lat="42.25787043144697" lon="19.78928762360011"><ele>805.0</ele><time>2026-05-03T11:26:22.999Z</time></trkpt><trkpt lat="42.2579036411648" lon="19.789364245036584"><ele>804.9999999999999</ele><time>2026-05-03T11:26:23.999Z</time></trkpt><trkpt lat="42.25792703482096" lon="19.78945756768909"><ele>805.0</ele><time>2026-05-03T11:26:24.999Z</time></trkpt><trkpt lat="42.25793399448295" lon="19.78956476655253"><ele>806.4</ele><time>2026-05-03T11:26:25.999Z</time></trkpt><trkpt lat="42.25792755721135" lon="19.78968357811274"><ele>807.8</ele><time>2026-05-03T11:26:26.999Z</time></trkpt><trkpt lat="42.25792363658448" lon="19.789821302736843"><ele>809.2</ele><time>2026-05-03T11:26:27.999Z</time></trkpt><trkpt lat="42.2579230409967" lon="19.789977407914712"><ele>810.6</ele><time>2026-05-03T11:26:28.999Z</time></trkpt><trkpt lat="42.25793261981707" lon="19.790122242782665"><ele>812.0</ele><time>2026-05-03T11:26:29.999Z</time></trkpt><trkpt lat="42.25795691668266" lon="19.790217014650846"><ele>812.0000000000001</ele><time>2026-05-03T11:26:30.999Z</time></trkpt><trkpt lat="42.25799519540713" lon="19.790298451657335"><ele>812.0</ele><time>2026-05-03T11:26:32.999Z</time></trkpt><trkpt lat="42.25806842725903" lon="19.790324484628098"><ele>812.0</ele><time>2026-05-03T11:26:34.999Z</time></trkpt><trkpt lat="42.25814387464247" lon="19.790338956862527"><ele>812.0</ele><time>2026-05-03T11:26:35.999Z</time></trkpt><trkpt lat="42.258236377730306" lon="19.790368563461097"><ele>812.0000000000001</ele><time>2026-05-03T11:26:36.999Z</time></trkpt><trkpt lat="42.25833093667691" lon="19.790404778586172"><ele>812.0</ele><time>2026-05-03T11:26:37.999Z</time></trkpt><trkpt lat="42.25839242387713" lon="19.790430868215214"><ele>807.1666666666667</ele><time>2026-05-03T11:26:38.999Z</time></trkpt><trkpt lat="42.258474048651685" lon="19.790462531386545"><ele>802.3333333333334</ele><time>2026-05-03T11:26:40.999Z</time></trkpt><trkpt lat="42.258467867653536" lon="19.790548371993378"><ele>797.5</ele><time>2026-05-03T11:28:09Z</time></trkpt><trkpt lat="42.25847306044982" lon="19.79064252953522"><ele>792.6666666666667</ele><time>2026-05-03T11:29:25.999Z</time></trkpt><trkpt lat="42.258447038737756" lon="19.79077620116697"><ele>787.8333333333334</ele><time>2026-05-03T11:29:28.999Z</time></trkpt><trkpt lat="42.258426249203296" lon="19.790947525800675"><ele>783.0</ele><time>2026-05-03T11:29:30.999Z</time></trkpt><trkpt lat="42.25840814689194" lon="19.791053223491232"><ele>781.8333333333334</ele><time>2026-05-03T11:29:32Z</time></trkpt><trkpt lat="42.2583902807621" lon="19.791148490598875"><ele>780.6666666666667</ele><time>2026-05-03T11:29:33Z</time></trkpt><trkpt lat="42.258383110929906" lon="19.791239821432512"><ele>779.5</ele><time>2026-05-03T11:29:34Z</time></trkpt><trkpt lat="42.2583754354082" lon="19.791337524845428"><ele>778.3333333333334</ele><time>2026-05-03T11:29:35Z</time></trkpt><trkpt lat="42.25836386861377" lon="19.791437976428632"><ele>777.1666666666667</ele><time>2026-05-03T11:29:36Z</time></trkpt><trkpt lat="42.258349886750736" lon="19.791564400072343"><ele>776.0</ele><time>2026-05-03T11:29:37Z</time></trkpt><trkpt lat="42.258322301269374" lon="19.79170223515952"><ele>772.0</ele><time>2026-05-03T11:29:38Z</time></trkpt><trkpt lat="42.25827945360964" lon="19.791865988510498"><ele>768.0</ele><time>2026-05-03T11:29:39Z</time></trkpt><trkpt lat="42.2582250951989" lon="19.792038812683895"><ele>764.0</ele><time>2026-05-03T11:29:40Z</time></trkpt><trkpt lat="42.25816261203609" lon="19.79223336398697"><ele>760.0</ele><time>2026-05-03T11:29:41Z</time></trkpt><trkpt lat="42.2580928689568" lon="19.792442615808003"><ele>764.25</ele><time>2026-05-03T11:29:42Z</time></trkpt><trkpt lat="42.25802711079881" lon="19.79263729221019"><ele>768.5</ele><time>2026-05-03T11:29:43Z</time></trkpt><trkpt lat="42.25796690571498" lon="19.792815757335813"><ele>772.75</ele><time>2026-05-03T11:29:44Z</time></trkpt><trkpt lat="42.25791843092672" lon="19.79298785184839"><ele>777.0</ele><time>2026-05-03T11:29:45Z</time></trkpt><trkpt lat="42.257878850050396" lon="19.793159887517454"><ele>777.0</ele><time>2026-05-03T11:29:46Z</time></trkpt><trkpt lat="42.25784803027423" lon="19.793329679649382"><ele>777.0</ele><time>2026-05-03T11:29:47Z</time></trkpt><trkpt lat="42.25781461938632" lon="19.793486351145333"><ele>777.0</ele><time>2026-05-03T11:29:48Z</time></trkpt><trkpt lat="42.25777702439847" lon="19.79363406341085"><ele>777.0</ele><time>2026-05-03T11:29:49Z</time></trkpt><trkpt lat="42.25774779636116" lon="19.793772676489013"><ele>773.6</ele><time>2026-05-03T11:29:50Z</time></trkpt><trkpt lat="42.257725719203115" lon="19.7938997535735"><ele>770.2</ele><time>2026-05-03T11:29:51Z</time></trkpt><trkpt lat="42.25768559434341" lon="19.79401009987451"><ele>766.8</ele><time>2026-05-03T11:29:52Z</time></trkpt><trkpt lat="42.257623092973795" lon="19.794125117867384"><ele>763.4</ele><time>2026-05-03T11:29:53Z</time></trkpt><trkpt lat="42.257526401023505" lon="19.794227247720684"><ele>760.0</ele><time>2026-05-03T11:29:54Z</time></trkpt><trkpt lat="42.257432843463434" lon="19.79432038997765"><ele>759.1666666666667</ele><time>2026-05-03T11:29:55Z</time></trkpt><trkpt lat="42.257375958592476" lon="19.794408958853264"><ele>758.3333333333334</ele><time>2026-05-03T11:29:56Z</time></trkpt><trkpt lat="42.25733747095779" lon="19.794493846994012"><ele>757.5</ele><time>2026-05-03T11:29:57Z</time></trkpt><trkpt lat="42.25732562753054" lon="19.79457945140881"><ele>756.6666666666666</ele><time>2026-05-03T11:29:58Z</time></trkpt><trkpt lat="42.25733490700024" lon="19.794682126460938"><ele>755.8333333333333</ele><time>2026-05-03T11:29:59Z</time></trkpt><trkpt lat="42.25737418614178" lon="19.794782076325347"><ele>755.0</ele><time>2026-05-03T11:30:00Z</time></trkpt><trkpt lat="42.25744031681047" lon="19.79487327097261"><ele>755.0</ele><time>2026-05-03T11:30:01Z</time></trkpt><trkpt lat="42.25752991951151" lon="19.794939423317185"><ele>755.0</ele><time>2026-05-03T11:30:02Z</time></trkpt><trkpt lat="42.25763316018503" lon="19.795002318166997"><ele>755.0</ele><time>2026-05-03T11:30:03Z</time></trkpt><trkpt lat="42.25770662614008" lon="19.795076126750022"><ele>755.0</ele><time>2026-05-03T11:30:04Z</time></trkpt><trkpt lat="42.25773599227096" lon="19.79517358297343"><ele>755.0</ele><time>2026-05-03T11:30:05Z</time></trkpt><trkpt lat="42.25775021818282" lon="19.79530339991425"><ele>755.75</ele><time>2026-05-03T11:30:06Z</time></trkpt><trkpt lat="42.257782246819126" lon="19.79545856448619"><ele>756.5</ele><time>2026-05-03T11:30:07Z</time></trkpt><trkpt lat="42.25783917929258" lon="19.795607259887824"><ele>757.25</ele><time>2026-05-03T11:30:08Z</time></trkpt><trkpt lat="42.25792698260161" lon="19.795721797273774"><ele>758.0</ele><time>2026-05-03T11:30:09Z</time></trkpt><trkpt lat="42.25802793416783" lon="19.79583494635475"><ele>758.0</ele><time>2026-05-03T11:30:10Z</time></trkpt><trkpt lat="42.258094237203785" lon="19.795939833041185"><ele>758.0</ele><time>2026-05-03T11:30:11Z</time></trkpt><trkpt lat="42.25812753868434" lon="19.796035900677207"><ele>758.0</ele><time>2026-05-03T11:30:12Z</time></trkpt><trkpt lat="42.258136799049296" lon="19.796139467340833"><ele>758.0</ele><time>2026-05-03T11:30:13Z</time></trkpt><trkpt lat="42.25811972785107" lon="19.79624512457161"><ele>758.0</ele><time>2026-05-03T11:30:14Z</time></trkpt><trkpt lat="42.258098347245785" lon="19.796338900719377"><ele>758.0</ele><time>2026-05-03T11:30:15Z</time></trkpt><trkpt lat="42.25812563867019" lon="19.796435107679198"><ele>752.0</ele><time>2026-05-03T11:30:17Z</time></trkpt><trkpt lat="42.25819772598934" lon="19.796402885086945"><ele>746.0</ele><time>2026-05-03T11:30:19Z</time></trkpt><trkpt lat="42.25824828523898" lon="19.796329488493047"><ele>740.0</ele><time>2026-05-03T11:30:20Z</time></trkpt><trkpt lat="42.25828053794583" lon="19.79619811305453"><ele>734.0</ele><time>2026-05-03T11:30:21Z</time></trkpt><trkpt lat="42.25829024909775" lon="19.79605183256483"><ele>728.0</ele><time>2026-05-03T11:30:22Z</time></trkpt><trkpt lat="42.258286154597265" lon="19.79592409973149"><ele>727.4</ele><time>2026-05-03T11:30:23Z</time></trkpt><trkpt lat="42.258257902828156" lon="19.795835615804428"><ele>726.8</ele><time>2026-05-03T11:30:24Z</time></trkpt><trkpt lat="42.258197831270195" lon="19.79574075092"><ele>726.2</ele><time>2026-05-03T11:30:25Z</time></trkpt><trkpt lat="42.25810019704772" lon="19.79564273027491"><ele>725.6</ele><time>2026-05-03T11:30:26Z</time></trkpt><trkpt lat="42.2580144151628" lon="19.795531121420485"><ele>725.0</ele><time>2026-05-03T11:30:27Z</time></trkpt><trkpt lat="42.25797377457642" lon="19.79543680370718"><ele>725.0</ele><time>2026-05-03T11:30:28Z</time></trkpt><trkpt lat="42.25798174701858" lon="19.79528619852822"><ele>725.0</ele><time>2026-05-03T11:30:30Z</time></trkpt><trkpt lat="42.258071006495285" lon="19.795251219333473"><ele>725.0</ele><time>2026-05-03T11:30:32Z</time></trkpt><trkpt lat="42.25816000350205" lon="19.795252996964816"><ele>725.0</ele><time>2026-05-03T11:30:33Z</time></trkpt><trkpt lat="42.258277211162124" lon="19.79528193394477"><ele>725.0</ele><time>2026-05-03T11:30:34Z</time></trkpt><trkpt lat="42.258413032924786" lon="19.79533176311484"><ele>725.0</ele><time>2026-05-03T11:30:35Z</time></trkpt><trkpt lat="42.258524427281415" lon="19.795357881617516"><ele>725.0</ele><time>2026-05-03T11:30:36Z</time></trkpt><trkpt lat="42.258609191401895" lon="19.795350885196463"><ele>725.0</ele><time>2026-05-03T11:30:37Z</time></trkpt><trkpt lat="42.258710196299035" lon="19.795235392306136"><ele>725.0</ele><time>2026-05-03T11:30:39Z</time></trkpt><trkpt lat="42.258766591328445" lon="19.795130456527996"><ele>725.0</ele><time>2026-05-03T11:30:40Z</time></trkpt><trkpt lat="42.25881819778752" lon="19.795002470246587"><ele>726.4</ele><time>2026-05-03T11:30:41Z</time></trkpt><trkpt lat="42.25885747862501" lon="19.79485200100962"><ele>727.8</ele><time>2026-05-03T11:30:42Z</time></trkpt><trkpt lat="42.258863179584885" lon="19.794701077379134"><ele>729.2</ele><time>2026-05-03T11:30:42.999Z</time></trkpt><trkpt lat="42.25886676311175" lon="19.794537141014242"><ele>730.6</ele><time>2026-05-03T11:30:43.999Z</time></trkpt><trkpt lat="42.25889061714857" lon="19.794408920246774"><ele>732.0</ele><time>2026-05-03T11:30:44.999Z</time></trkpt><trkpt lat="42.258956092788814" lon="19.794273911819122"><ele>726.0</ele><time>2026-05-03T11:30:45.999Z</time></trkpt><trkpt lat="42.25903081382485" lon="19.7941487740851"><ele>720.0</ele><time>2026-05-03T11:30:46.999Z</time></trkpt><trkpt lat="42.25906413680293" lon="19.794028996976262"><ele>714.0</ele><time>2026-05-03T11:30:47.999Z</time></trkpt><trkpt lat="42.259076661357206" lon="19.793874502554644"><ele>708.0</ele><time>2026-05-03T11:30:48.999Z</time></trkpt><trkpt lat="42.259072818626244" lon="19.79367843632394"><ele>708.8</ele><time>2026-05-03T11:30:49.999Z</time></trkpt><trkpt lat="42.25905232044341" lon="19.793479566548235"><ele>709.5999999999999</ele><time>2026-05-03T11:30:50.999Z</time></trkpt><trkpt lat="42.259025160507875" lon="19.793346666988743"><ele>710.4000000000001</ele><time>2026-05-03T11:30:51.999Z</time></trkpt><trkpt lat="42.25900724197605" lon="19.793252256482024"><ele>711.2</ele><time>2026-05-03T11:30:52.999Z</time></trkpt><trkpt lat="42.25904053979647" lon="19.79312265042148"><ele>712.0</ele><time>2026-05-03T11:30:54.999Z</time></trkpt><trkpt lat="42.25919296785401" lon="19.793058620729152"><ele>712.0</ele><time>2026-05-03T11:30:56.999Z</time></trkpt><trkpt lat="42.25932837833044" lon="19.793015513295007"><ele>712.0</ele><time>2026-05-03T11:30:57.999Z</time></trkpt><trkpt lat="42.2594758983549" lon="19.79295912897019"><ele>712.0</ele><time>2026-05-03T11:30:58.999Z</time></trkpt><trkpt lat="42.259614910924554" lon="19.79292032156375"><ele>712.0</ele><time>2026-05-03T11:30:59.999Z</time></trkpt><trkpt lat="42.25974911086678" lon="19.792923457893203"><ele>707.8</ele><time>2026-05-03T11:31:00.999Z</time></trkpt><trkpt lat="42.2598838857986" lon="19.792963120327762"><ele>703.6</ele><time>2026-05-03T11:31:01.999Z</time></trkpt><trkpt lat="42.25999408572305" lon="19.792982604630797"><ele>699.4</ele><time>2026-05-03T11:31:02.999Z</time></trkpt><trkpt lat="42.26007500745348" lon="19.792962418581592"><ele>695.1999999999999</ele><time>2026-05-03T11:31:03.999Z</time></trkpt><trkpt lat="42.26016251852747" lon="19.792916179145383"><ele>691.0</ele><time>2026-05-03T11:31:04.999Z</time></trkpt><trkpt lat="42.260252743631725" lon="19.792824138196334"><ele>691.0</ele><time>2026-05-03T11:31:05.999Z</time></trkpt><trkpt lat="42.26033430587082" lon="19.79272116317904"><ele>691.0</ele><time>2026-05-03T11:31:06.999Z</time></trkpt><trkpt lat="42.260383157377284" lon="19.79262785520676"><ele>691.0</ele><time>2026-05-03T11:31:07.999Z</time></trkpt><trkpt lat="42.26040719071488" lon="19.79251243876867"><ele>691.0</ele><time>2026-05-03T11:31:08.999Z</time></trkpt><trkpt lat="42.26041883970994" lon="19.792361092690264"><ele>691.0</ele><time>2026-05-03T11:31:09.999Z</time></trkpt><trkpt lat="42.26041667839097" lon="19.79216535636891"><ele>694.5</ele><time>2026-05-03T11:31:10.999Z</time></trkpt><trkpt lat="42.260425553185705" lon="19.79196070413129"><ele>698.0</ele><time>2026-05-03T11:31:11.999Z</time></trkpt><trkpt lat="42.26043587556482" lon="19.791826357354683"><ele>701.5</ele><time>2026-05-03T11:31:12.999Z</time></trkpt><trkpt lat="42.26045448282947" lon="19.791691307554057"><ele>705.0</ele><time>2026-05-03T11:31:13.999Z</time></trkpt><trkpt lat="42.260508350340146" lon="19.791557112700893"><ele>706.4</ele><time>2026-05-03T11:31:14.999Z</time></trkpt><trkpt lat="42.26057318637833" lon="19.79139783110666"><ele>707.8</ele><time>2026-05-03T11:31:15.999Z</time></trkpt><trkpt lat="42.260606412800236" lon="19.79126388003224"><ele>709.2</ele><time>2026-05-03T11:31:16.999Z</time></trkpt><trkpt lat="42.26060760535885" lon="19.791146299682865"><ele>710.6</ele><time>2026-05-03T11:31:17.999Z</time></trkpt><trkpt lat="42.26057225802016" lon="19.79101750271101"><ele>712.0</ele><time>2026-05-03T11:31:18.999Z</time></trkpt><trkpt lat="42.260504678342116" lon="19.790881060579"><ele>712.5</ele><time>2026-05-03T11:31:19.999Z</time></trkpt><trkpt lat="42.26044674118106" lon="19.790778190302134"><ele>713.0</ele><time>2026-05-03T11:31:20.999Z</time></trkpt><trkpt lat="42.26044198445293" lon="19.790669777770457"><ele>713.5</ele><time>2026-05-03T11:31:22.999Z</time></trkpt><trkpt lat="42.26058019613024" lon="19.790593498430212"><ele>714.0</ele><time>2026-05-03T11:31:24.999Z</time></trkpt><trkpt lat="42.260699078373484" lon="19.79053927079779"><ele>706.0</ele><time>2026-05-03T11:31:25.999Z</time></trkpt><trkpt lat="42.26080745617873" lon="19.79045728833713"><ele>698.0</ele><time>2026-05-03T11:31:26.999Z</time></trkpt><trkpt lat="42.260897575473464" lon="19.7903350566082"><ele>690.0</ele><time>2026-05-03T11:31:27.999Z</time></trkpt><trkpt lat="42.26097423458929" lon="19.790164149002766"><ele>682.0</ele><time>2026-05-03T11:31:28.999Z</time></trkpt><trkpt lat="42.261045093138236" lon="19.789991457096235"><ele>682.0</ele><time>2026-05-03T11:31:29.999Z</time></trkpt><trkpt lat="42.26110071419619" lon="19.789884959529164"><ele>682.0</ele><time>2026-05-03T11:31:30.999Z</time></trkpt><trkpt lat="42.26114353706507" lon="19.789804247479793"><ele>682.0</ele><time>2026-05-03T11:31:31.999Z</time></trkpt><trkpt lat="42.26123583044153" lon="19.789719234300183"><ele>682.0</ele><time>2026-05-03T11:31:33.999Z</time></trkpt><trkpt lat="42.261314926152075" lon="19.789761217238013"><ele>682.0</ele><time>2026-05-03T11:31:35.999Z</time></trkpt><trkpt lat="42.26128492115098" lon="19.789906036972376"><ele>682.0</ele><time>2026-05-03T11:31:38Z</time></trkpt><trkpt lat="42.26122915638221" lon="19.79001278446636"><ele>682.0</ele><time>2026-05-03T11:31:39Z</time></trkpt><trkpt lat="42.26116566957786" lon="19.790147011066384"><ele>682.0</ele><time>2026-05-03T11:31:40Z</time></trkpt><trkpt lat="42.26111361471914" lon="19.790328011185697"><ele>682.0</ele><time>2026-05-03T11:31:41Z</time></trkpt><trkpt lat="42.26108082066519" lon="19.79051070744783"><ele>680.8</ele><time>2026-05-03T11:31:42Z</time></trkpt><trkpt lat="42.26104712410322" lon="19.790651496490188"><ele>679.6</ele><time>2026-05-03T11:31:43Z</time></trkpt><trkpt lat="42.26101107605807" lon="19.790754156947923"><ele>678.4</ele><time>2026-05-03T11:31:44Z</time></trkpt><trkpt lat="42.26099670628791" lon="19.790837885020583"><ele>677.1999999999999</ele><time>2026-05-03T11:31:45Z</time></trkpt><trkpt lat="42.26102747621758" lon="19.79095337392876"><ele>676.0</ele><time>2026-05-03T11:31:47Z</time></trkpt><trkpt lat="42.26113882169803" lon="19.79104411881054"><ele>676.0</ele><time>2026-05-03T11:31:49Z</time></trkpt><trkpt lat="42.26118653043802" lon="19.79111995157437"><ele>676.0</ele><time>2026-05-03T11:31:50Z</time></trkpt><trkpt lat="42.26129854614874" lon="19.79122497422934"><ele>676.0</ele><time>2026-05-03T11:31:51Z</time></trkpt><trkpt lat="42.26134325417741" lon="19.791398304155877"><ele>676.0</ele><time>2026-05-03T11:31:52Z</time></trkpt><trkpt lat="42.261378591932726" lon="19.79158670618173"><ele>676.0</ele><time>2026-05-03T11:31:53Z</time></trkpt><trkpt lat="42.261405369821546" lon="19.791791239661812"><ele>676.0</ele><time>2026-05-03T11:31:54Z</time></trkpt><trkpt lat="42.261416271948" lon="19.79198282305508"><ele>676.0</ele><time>2026-05-03T11:31:55Z</time></trkpt><trkpt lat="42.26141401241604" lon="19.79216106418132"><ele>676.0</ele><time>2026-05-03T11:31:56Z</time></trkpt><trkpt lat="42.26139529894889" lon="19.792320786840634"><ele>675.8</ele><time>2026-05-03T11:31:57Z</time></trkpt><trkpt lat="42.261356856959985" lon="19.792473038946508"><ele>675.5999999999999</ele><time>2026-05-03T11:31:58Z</time></trkpt><trkpt lat="42.26130592200317" lon="19.792615112593026"><ele>675.4</ele><time>2026-05-03T11:31:59Z</time></trkpt><trkpt lat="42.261273957529184" lon="19.79274951232898"><ele>675.2</ele><time>2026-05-03T11:32:00Z</time></trkpt><trkpt lat="42.26126575039126" lon="19.792853513460383"><ele>675.0</ele><time>2026-05-03T11:32:01Z</time></trkpt><trkpt lat="42.26129378248239" lon="19.792960796930252"><ele>674.0</ele><time>2026-05-03T11:32:02Z</time></trkpt><trkpt lat="42.26134578610568" lon="19.793108308508963"><ele>673.0</ele><time>2026-05-03T11:32:03Z</time></trkpt><trkpt lat="42.261389480121466" lon="19.793268940045614"><ele>672.0</ele><time>2026-05-03T11:32:04Z</time></trkpt><trkpt lat="42.261399707671686" lon="19.793451322344712"><ele>671.0</ele><time>2026-05-03T11:32:05Z</time></trkpt><trkpt lat="42.261394823888246" lon="19.793595539441284"><ele>668.8</ele><time>2026-05-03T11:32:06Z</time></trkpt><trkpt lat="42.261379522721604" lon="19.793692741035063"><ele>666.5999999999999</ele><time>2026-05-03T11:32:07Z</time></trkpt><trkpt lat="42.26128248937349" lon="19.79380886346183"><ele>664.4</ele><time>2026-05-03T11:32:09Z</time></trkpt><trkpt lat="42.2612191572592" lon="19.79385406067229"><ele>662.2</ele><time>2026-05-03T11:32:10Z</time></trkpt><trkpt lat="42.26119967544268" lon="19.79402086566431"><ele>660.0</ele><time>2026-05-03T11:32:12Z</time></trkpt><trkpt lat="42.261243476493476" lon="19.794171818576682"><ele>657.25</ele><time>2026-05-03T11:32:13Z</time></trkpt><trkpt lat="42.261291330863905" lon="19.794356945904227"><ele>654.5</ele><time>2026-05-03T11:32:14Z</time></trkpt><trkpt lat="42.26130867006836" lon="19.794553736291835"><ele>651.75</ele><time>2026-05-03T11:32:15Z</time></trkpt><trkpt lat="42.261300997603335" lon="19.794682176449992"><ele>649.0</ele><time>2026-05-03T11:32:16Z</time></trkpt><trkpt lat="42.2612310357219" lon="19.794786070979097"><ele>649.0</ele><time>2026-05-03T11:32:18Z</time></trkpt><trkpt lat="42.26123796069571" lon="19.794892309508164"><ele>649.0</ele><time>2026-05-03T11:32:21Z</time></trkpt><trkpt lat="42.261315936242454" lon="19.794888977049823"><ele>649.0</ele><time>2026-05-03T11:32:23Z</time></trkpt><trkpt lat="42.26139574343275" lon="19.79469504040804"><ele>649.0</ele><time>2026-05-03T11:32:25Z</time></trkpt><trkpt lat="42.26146307939115" lon="19.794533200184404"><ele>646.1666666666667</ele><time>2026-05-03T11:32:26Z</time></trkpt><trkpt lat="42.26150103289054" lon="19.79441645400175"><ele>643.3333333333334</ele><time>2026-05-03T11:32:27Z</time></trkpt><trkpt lat="42.261532657419146" lon="19.794319483662832"><ele>640.5</ele><time>2026-05-03T11:32:28Z</time></trkpt><trkpt lat="42.26158718343654" lon="19.794250253067272"><ele>637.6666666666666</ele><time>2026-05-03T11:32:30Z</time></trkpt><trkpt lat="42.26166170923055" lon="19.794293274169558"><ele>634.8333333333333</ele><time>2026-05-03T11:32:32Z</time></trkpt><trkpt lat="42.26169186505814" lon="19.794422805973703"><ele>632.0</ele><time>2026-05-03T11:32:34Z</time></trkpt><trkpt lat="42.261659720596995" lon="19.794525169985395"><ele>629.5</ele><time>2026-05-03T11:32:35Z</time></trkpt><trkpt lat="42.26160191099548" lon="19.794648143521258"><ele>627.0</ele><time>2026-05-03T11:32:36Z</time></trkpt><trkpt lat="42.26153056350022" lon="19.79478147338237"><ele>624.5</ele><time>2026-05-03T11:32:37Z</time></trkpt><trkpt lat="42.26148458650392" lon="19.79492888835572"><ele>622.0</ele><time>2026-05-03T11:32:38Z</time></trkpt><trkpt lat="42.261459729411364" lon="19.795072227084976"><ele>620.6666666666667</ele><time>2026-05-03T11:32:39Z</time></trkpt><trkpt lat="42.26145379085554" lon="19.795203770074007"><ele>619.3333333333334</ele><time>2026-05-03T11:32:40Z</time></trkpt><trkpt lat="42.26146002837384" lon="19.795316420922873"><ele>618.0</ele><time>2026-05-03T11:32:41Z</time></trkpt><trkpt lat="42.261504751920754" lon="19.795462062350992"><ele>616.6666666666666</ele><time>2026-05-03T11:32:43Z</time></trkpt><trkpt lat="42.26157284399923" lon="19.795503778239304"><ele>615.3333333333333</ele><time>2026-05-03T11:32:46Z</time></trkpt><trkpt lat="42.26163869196899" lon="19.795456043864885"><ele>614.0</ele><time>2026-05-03T11:32:48Z</time></trkpt><trkpt lat="42.26166211900033" lon="19.79536695469429"><ele>614.0</ele><time>2026-05-03T11:32:49Z</time></trkpt><trkpt lat="42.26168406946782" lon="19.795245783884777"><ele>614.0</ele><time>2026-05-03T11:32:50Z</time></trkpt><trkpt lat="42.2617298396751" lon="19.79511727481756"><ele>614.0</ele><time>2026-05-03T11:32:51Z</time></trkpt><trkpt lat="42.261815336184576" lon="19.79499429507696"><ele>614.0</ele><time>2026-05-03T11:32:52Z</time></trkpt><trkpt lat="42.26192320888356" lon="19.79488854178659"><ele>615.6</ele><time>2026-05-03T11:32:53Z</time></trkpt><trkpt lat="42.26202165221811" lon="19.79478718453314"><ele>617.2</ele><time>2026-05-03T11:32:54Z</time></trkpt><trkpt lat="42.26209052466216" lon="19.794692133212777"><ele>618.8000000000001</ele><time>2026-05-03T11:32:55Z</time></trkpt><trkpt lat="42.262136445883165" lon="19.794583183260727"><ele>620.4</ele><time>2026-05-03T11:32:56Z</time></trkpt><trkpt lat="42.262148794359256" lon="19.79446427256285"><ele>622.0</ele><time>2026-05-03T11:32:57Z</time></trkpt><trkpt lat="42.26212967412936" lon="19.794349340161027"><ele>624.0</ele><time>2026-05-03T11:32:58Z</time></trkpt><trkpt lat="42.262117853189594" lon="19.79425882302633"><ele>626.0</ele><time>2026-05-03T11:32:59Z</time></trkpt><trkpt lat="42.262206983226804" lon="19.79416075006588"><ele>628.0</ele><time>2026-05-03T11:33:01Z</time></trkpt><trkpt lat="42.262290875450226" lon="19.794082374149546"><ele>630.0</ele><time>2026-05-03T11:33:02Z</time></trkpt><trkpt lat="42.262353702830815" lon="19.79399114783109"><ele>632.0</ele><time>2026-05-03T11:33:03Z</time></trkpt><trkpt lat="42.26238533769602" lon="19.793879485120137"><ele>623.5</ele><time>2026-05-03T11:33:04Z</time></trkpt><trkpt lat="42.262388356067376" lon="19.79376252632421"><ele>615.0</ele><time>2026-05-03T11:33:05Z</time></trkpt><trkpt lat="42.262370734959646" lon="19.793606150359867"><ele>606.5</ele><time>2026-05-03T11:33:06Z</time></trkpt><trkpt lat="42.2623618352472" lon="19.793426609956157"><ele>598.0</ele><time>2026-05-03T11:33:07Z</time></trkpt><trkpt lat="42.262371304497634" lon="19.79323972325987"><ele>597.8</ele><time>2026-05-03T11:33:08Z</time></trkpt><trkpt lat="42.2623732156597" lon="19.793080685614665"><ele>597.5999999999999</ele><time>2026-05-03T11:33:09Z</time></trkpt><trkpt lat="42.26235883024401" lon="19.792932606141214"><ele>597.4000000000001</ele><time>2026-05-03T11:33:10Z</time></trkpt><trkpt lat="42.2623222479041" lon="19.792794136298202"><ele>597.2</ele><time>2026-05-03T11:33:11Z</time></trkpt><trkpt lat="42.26226644053993" lon="19.792667986830057"><ele>597.0</ele><time>2026-05-03T11:33:12Z</time></trkpt><trkpt lat="42.26221848752879" lon="19.792569869270757"><ele>595.0</ele><time>2026-05-03T11:33:13Z</time></trkpt><trkpt lat="42.262197453979915" lon="19.792486939540876"><ele>593.0</ele><time>2026-05-03T11:33:14Z</time></trkpt><trkpt lat="42.262251902367" lon="19.79226975000129"><ele>591.0</ele><time>2026-05-03T11:33:16Z</time></trkpt><trkpt lat="42.262302390129065" lon="19.79209696658102"><ele>589.0</ele><time>2026-05-03T11:33:17Z</time></trkpt><trkpt lat="42.26235044048179" lon="19.791924235417124"><ele>588.3333333333334</ele><time>2026-05-03T11:33:18Z</time></trkpt><trkpt lat="42.26239184121769" lon="19.79179658126146"><ele>587.6666666666667</ele><time>2026-05-03T11:33:19Z</time></trkpt><trkpt lat="42.26240235147908" lon="19.791683613739192"><ele>587.0</ele><time>2026-05-03T11:33:20Z</time></trkpt><trkpt lat="42.262386288426136" lon="19.79157932013211"><ele>586.3333333333334</ele><time>2026-05-03T11:33:21Z</time></trkpt><trkpt lat="42.26235721815419" lon="19.791460246976225"><ele>585.6666666666666</ele><time>2026-05-03T11:33:22Z</time></trkpt><trkpt lat="42.26234412911008" lon="19.791360875659976"><ele>585.0</ele><time>2026-05-03T11:33:23Z</time></trkpt><trkpt lat="42.26241851051023" lon="19.79121710029869"><ele>585.0</ele><time>2026-05-03T11:33:25Z</time></trkpt><trkpt lat="42.26251624940323" lon="19.79112892848815"><ele>585.0</ele><time>2026-05-03T11:33:26Z</time></trkpt><trkpt lat="42.26261494349453" lon="19.791033458295654"><ele>585.0</ele><time>2026-05-03T11:33:27Z</time></trkpt><trkpt lat="42.26272115553329" lon="19.790909368641397"><ele>585.0</ele><time>2026-05-03T11:33:28Z</time></trkpt><trkpt lat="42.26281745731203" lon="19.790793931636657"><ele>588.6</ele><time>2026-05-03T11:33:29Z</time></trkpt><trkpt lat="42.26290773403275" lon="19.79070434290338"><ele>592.2</ele><time>2026-05-03T11:33:30Z</time></trkpt><trkpt lat="42.26298038854452" lon="19.790642601060288"><ele>595.8</ele><time>2026-05-03T11:33:31Z</time></trkpt><trkpt lat="42.26303375593548" lon="19.790591756779364"><ele>599.4</ele><time>2026-05-03T11:33:32Z</time></trkpt><trkpt lat="42.2630715382424" lon="19.790420405785145"><ele>603.0</ele><time>2026-05-03T11:33:34Z</time></trkpt><trkpt lat="42.26308569859138" lon="19.79026146978087"><ele>605.0</ele><time>2026-05-03T11:33:35Z</time></trkpt><trkpt lat="42.26311194895161" lon="19.790064794267302"><ele>607.0</ele><time>2026-05-03T11:33:36Z</time></trkpt><trkpt lat="42.26317022867059" lon="19.78987777226743"><ele>609.0</ele><time>2026-05-03T11:33:37Z</time></trkpt><trkpt lat="42.263228509581175" lon="19.789718542538125"><ele>611.0</ele><time>2026-05-03T11:33:38Z</time></trkpt><trkpt lat="42.263260073031944" lon="19.789619204664184"><ele>607.0</ele><time>2026-05-03T11:33:39Z</time></trkpt><trkpt lat="42.26327543967158" lon="19.789523212710094"><ele>603.0</ele><time>2026-05-03T11:33:40Z</time></trkpt><trkpt lat="42.26326373195299" lon="19.789425282856946"><ele>599.0</ele><time>2026-05-03T11:33:41Z</time></trkpt><trkpt lat="42.263228811822884" lon="19.789332699779173"><ele>595.0</ele><time>2026-05-03T11:33:42Z</time></trkpt><trkpt lat="42.263181073075664" lon="19.78921779105159"><ele>591.0</ele><time>2026-05-03T11:33:43Z</time></trkpt><trkpt lat="42.26314463434027" lon="19.78914185304761"><ele>587.0</ele><time>2026-05-03T11:33:44.001Z</time></trkpt><trkpt lat="42.263191666604726" lon="19.789071207907792"><ele>587.0</ele><time>2026-05-03T11:33:46.001Z</time></trkpt><trkpt lat="42.263252852737175" lon="19.789032671644314"><ele>587.0</ele><time>2026-05-03T11:33:47.001Z</time></trkpt><trkpt lat="42.26332377030613" lon="19.789029200203405"><ele>587.0</ele><time>2026-05-03T11:33:48Z</time></trkpt><trkpt lat="42.26343064707586" lon="19.78912170759967"><ele>587.0</ele><time>2026-05-03T11:33:50Z</time></trkpt><trkpt lat="42.26351118659956" lon="19.789174768284585"><ele>587.0</ele><time>2026-05-03T11:33:51Z</time></trkpt><trkpt lat="42.263599121626775" lon="19.78920572701129"><ele>587.0</ele><time>2026-05-03T11:33:52Z</time></trkpt><trkpt lat="42.26367826423907" lon="19.789247655948564"><ele>587.0</ele><time>2026-05-03T11:33:53Z</time></trkpt><trkpt lat="42.26374912358249" lon="19.789311745045218"><ele>587.0</ele><time>2026-05-03T11:33:54Z</time></trkpt><trkpt lat="42.263816821829316" lon="19.789398269417187"><ele>587.0</ele><time>2026-05-03T11:33:55Z</time></trkpt><trkpt lat="42.26386345222626" lon="19.78951726979289"><ele>587.0</ele><time>2026-05-03T11:33:56Z</time></trkpt><trkpt lat="42.263916953884745" lon="19.789635347244843"><ele>587.0</ele><time>2026-05-03T11:33:57Z</time></trkpt><trkpt lat="42.26398131086388" lon="19.789722936785047"><ele>585.0</ele><time>2026-05-03T11:33:58Z</time></trkpt><trkpt lat="42.26405694096483" lon="19.78977476698689"><ele>583.0</ele><time>2026-05-03T11:33:59Z</time></trkpt><trkpt lat="42.26412657917974" lon="19.789881579738868"><ele>581.0</ele><time>2026-05-03T11:34:01Z</time></trkpt><trkpt lat="42.264114653216176" lon="19.7900895319199"><ele>579.0</ele><time>2026-05-03T11:34:03Z</time></trkpt><trkpt lat="42.26412043013154" lon="19.790234621316813"><ele>573.2</ele><time>2026-05-03T11:34:04Z</time></trkpt><trkpt lat="42.26415867349233" lon="19.790349761123228"><ele>567.4</ele><time>2026-05-03T11:34:05Z</time></trkpt><trkpt lat="42.26422009798842" lon="19.79043699067264"><ele>561.6</ele><time>2026-05-03T11:34:06Z</time></trkpt><trkpt lat="42.264306936397205" lon="19.790531003155614"><ele>555.8</ele><time>2026-05-03T11:34:07Z</time></trkpt><trkpt lat="42.26439468506918" lon="19.790626859545483"><ele>550.0</ele><time>2026-05-03T11:34:08Z</time></trkpt><trkpt lat="42.26445924448889" lon="19.790727018036996"><ele>550.0</ele><time>2026-05-03T11:34:08.999Z</time></trkpt><trkpt lat="42.26449002455484" lon="19.790832959749864"><ele>550.0</ele><time>2026-05-03T11:34:09.999Z</time></trkpt><trkpt lat="42.264507035690414" lon="19.790974632394978"><ele>550.0</ele><time>2026-05-03T11:34:10.999Z</time></trkpt><trkpt lat="42.26451763894322" lon="19.79114692365238"><ele>550.0</ele><time>2026-05-03T11:34:11.999Z</time></trkpt><trkpt lat="42.26453332047316" lon="19.791310480878153"><ele>550.0</ele><time>2026-05-03T11:34:12.999Z</time></trkpt><trkpt lat="42.26455821234601" lon="19.791411573676154"><ele>550.0</ele><time>2026-05-03T11:34:13.999Z</time></trkpt><trkpt lat="42.264605808853524" lon="19.791498987992476"><ele>550.0</ele><time>2026-05-03T11:34:14.999Z</time></trkpt><trkpt lat="42.26469516613932" lon="19.79159469716094"><ele>550.0</ele><time>2026-05-03T11:34:15.999Z</time></trkpt><trkpt lat="42.264792405494674" lon="19.791712841887442"><ele>550.0</ele><time>2026-05-03T11:34:16.999Z</time></trkpt><trkpt lat="42.26487142689299" lon="19.79182481409925"><ele>550.0</ele><time>2026-05-03T11:34:17.999Z</time></trkpt><trkpt lat="42.26492822726435" lon="19.791969404850704"><ele>550.0</ele><time>2026-05-03T11:34:19.999Z</time></trkpt><trkpt lat="42.26497634475691" lon="19.792078019347745"><ele>550.0</ele><time>2026-05-03T11:34:20.999Z</time></trkpt><trkpt lat="42.26505425377454" lon="19.792178882276755"><ele>550.0</ele><time>2026-05-03T11:34:21.999Z</time></trkpt><trkpt lat="42.26515609249227" lon="19.792268112307625"><ele>550.0</ele><time>2026-05-03T11:34:22.999Z</time></trkpt><trkpt lat="42.26528597913419" lon="19.79236161975569"><ele>550.0</ele><time>2026-05-03T11:34:23.999Z</time></trkpt><trkpt lat="42.265417859068165" lon="19.79247552952023"><ele>550.0</ele><time>2026-05-03T11:34:24.999Z</time></trkpt><trkpt lat="42.26555457424061" lon="19.792609268186855"><ele>550.0</ele><time>2026-05-03T11:34:25.999Z</time></trkpt><trkpt lat="42.26569411851978" lon="19.792755461891623"><ele>550.0</ele><time>2026-05-03T11:34:26.999Z</time></trkpt><trkpt lat="42.26583893549509" lon="19.792910904105078"><ele>550.0</ele><time>2026-05-03T11:34:27.999Z</time></trkpt><trkpt lat="42.265970474104165" lon="19.79305599466061"><ele>550.0</ele><time>2026-05-03T11:34:28.999Z</time></trkpt><trkpt lat="42.26608655751699" lon="19.79318984619611"><ele>550.0</ele><time>2026-05-03T11:34:29.999Z</time></trkpt><trkpt lat="42.26618323030283" lon="19.793304495935093"><ele>550.0</ele><time>2026-05-03T11:34:30.999Z</time></trkpt><trkpt lat="42.26627504418171" lon="19.79338951875677"><ele>550.0</ele><time>2026-05-03T11:34:31.999Z</time></trkpt><trkpt lat="42.266384533352706" lon="19.79344928771623"><ele>550.0</ele><time>2026-05-03T11:34:32.999Z</time></trkpt><trkpt lat="42.266522093458605" lon="19.793505786691775"><ele>548.75</ele><time>2026-05-03T11:34:33.999Z</time></trkpt><trkpt lat="42.26666844338493" lon="19.79355745768222"><ele>547.5</ele><time>2026-05-03T11:34:34.999Z</time></trkpt><trkpt lat="42.26680479692551" lon="19.793614504663797"><ele>546.25</ele><time>2026-05-03T11:34:35.999Z</time></trkpt><trkpt lat="42.26691850195025" lon="19.793702683613986"><ele>545.0</ele><time>2026-05-03T11:34:36.999Z</time></trkpt><trkpt lat="42.26701727718842" lon="19.793812170741848"><ele>545.0</ele><time>2026-05-03T11:34:37.999Z</time></trkpt><trkpt lat="42.267116827288156" lon="19.793935083011725"><ele>545.0</ele><time>2026-05-03T11:34:38.999Z</time></trkpt><trkpt lat="42.2672223647966" lon="19.794058592372142"><ele>545.0</ele><time>2026-05-03T11:34:39.999Z</time></trkpt><trkpt lat="42.26730634772456" lon="19.794190598801524"><ele>545.0</ele><time>2026-05-03T11:34:40.999Z</time></trkpt><trkpt lat="42.26737040465677" lon="19.794328531429052"><ele>545.8</ele><time>2026-05-03T11:34:41.999Z</time></trkpt><trkpt lat="42.26741912886928" lon="19.794469353245482"><ele>546.6</ele><time>2026-05-03T11:34:42.999Z</time></trkpt><trkpt lat="42.26746045770221" lon="19.79462160902082"><ele>547.4</ele><time>2026-05-03T11:34:43.999Z</time></trkpt><trkpt lat="42.26750204968227" lon="19.794751091714065"><ele>548.2</ele><time>2026-05-03T11:34:44.999Z</time></trkpt><trkpt lat="42.267548531086184" lon="19.794860333591892"><ele>549.0</ele><time>2026-05-03T11:34:45.999Z</time></trkpt><trkpt lat="42.267597105071445" lon="19.794952862511792"><ele>549.0</ele><time>2026-05-03T11:34:46.999Z</time></trkpt><trkpt lat="42.267675752158816" lon="19.795026780341175"><ele>549.0</ele><time>2026-05-03T11:34:47.999Z</time></trkpt><trkpt lat="42.267790497884086" lon="19.79512565878741"><ele>549.0</ele><time>2026-05-03T11:34:48.999Z</time></trkpt><trkpt lat="42.26791725482552" lon="19.79523293516509"><ele>549.0</ele><time>2026-05-03T11:34:49.999Z</time></trkpt><trkpt lat="42.2680545301629" lon="19.795354106160158"><ele>549.75</ele><time>2026-05-03T11:34:50.999Z</time></trkpt><trkpt lat="42.26819576285304" lon="19.795475294129243"><ele>550.5</ele><time>2026-05-03T11:34:51.999Z</time></trkpt><trkpt lat="42.268313900470645" lon="19.795575300579717"><ele>551.25</ele><time>2026-05-03T11:34:52.999Z</time></trkpt><trkpt lat="42.26839032486894" lon="19.79565707360629"><ele>552.0</ele><time>2026-05-03T11:34:53.999Z</time></trkpt><trkpt lat="42.26849481194738" lon="19.795759171636995"><ele>552.0</ele><time>2026-05-03T11:34:54.999Z</time></trkpt><trkpt lat="42.268629325138285" lon="19.795858265207006"><ele>552.0</ele><time>2026-05-03T11:34:55.999Z</time></trkpt><trkpt lat="42.268765415242974" lon="19.79594949657825"><ele>552.0</ele><time>2026-05-03T11:34:56.999Z</time></trkpt><trkpt lat="42.26888638079885" lon="19.796030045712765"><ele>552.0</ele><time>2026-05-03T11:34:57.999Z</time></trkpt><trkpt lat="42.26898975033389" lon="19.796086866347324"><ele>550.6</ele><time>2026-05-03T11:34:58.999Z</time></trkpt><trkpt lat="42.26909119012248" lon="19.796111418429334"><ele>549.2</ele><time>2026-05-03T11:34:59.999Z</time></trkpt><trkpt lat="42.2691894151785" lon="19.79611329605341"><ele>547.8</ele><time>2026-05-03T11:35:00.999Z</time></trkpt><trkpt lat="42.26928151832432" lon="19.796099262591383"><ele>546.4</ele><time>2026-05-03T11:35:01.999Z</time></trkpt><trkpt lat="42.26936474477208" lon="19.796085141926707"><ele>545.0</ele><time>2026-05-03T11:35:02.999Z</time></trkpt><trkpt lat="42.269460038201" lon="19.79610869221929"><ele>545.0</ele><time>2026-05-03T11:35:03.999Z</time></trkpt><trkpt lat="42.2695552204183" lon="19.796183121072797"><ele>545.0</ele><time>2026-05-03T11:35:04.999Z</time></trkpt><trkpt lat="42.269645858767355" lon="19.796285063363904"><ele>545.0</ele><time>2026-05-03T11:35:05.999Z</time></trkpt><trkpt lat="42.26971927651684" lon="19.796363506182743"><ele>545.0</ele><time>2026-05-03T11:35:06.999Z</time></trkpt><trkpt lat="42.269785419975285" lon="19.796404038277583"><ele>545.0</ele><time>2026-05-03T11:35:07.999Z</time></trkpt><trkpt lat="42.2698580970173" lon="19.796413655468807"><ele>546.1666666666666</ele><time>2026-05-03T11:35:08.999Z</time></trkpt><trkpt lat="42.269928732818656" lon="19.7963918301919"><ele>547.3333333333333</ele><time>2026-05-03T11:35:09.999Z</time></trkpt><trkpt lat="42.27000267031033" lon="19.796345749596636"><ele>548.5</ele><time>2026-05-03T11:35:10.999Z</time></trkpt><trkpt lat="42.270064576179145" lon="19.79628133352209"><ele>549.6666666666666</ele><time>2026-05-03T11:35:11.999Z</time></trkpt><trkpt lat="42.270117876861455" lon="19.796186565744932"><ele>550.8333333333334</ele><time>2026-05-03T11:35:12.999Z</time></trkpt><trkpt lat="42.270144968997144" lon="19.79608414378145"><ele>552.0</ele><time>2026-05-03T11:35:13.999Z</time></trkpt><trkpt lat="42.27013521304097" lon="19.795987382947562"><ele>555.6</ele><time>2026-05-03T11:35:14.999Z</time></trkpt><trkpt lat="42.27010910293881" lon="19.795861432343425"><ele>559.2</ele><time>2026-05-03T11:35:15.999Z</time></trkpt><trkpt lat="42.270097151456696" lon="19.795710472701586"><ele>562.8</ele><time>2026-05-03T11:35:16.999Z</time></trkpt><trkpt lat="42.27011895273265" lon="19.795570772342945"><ele>566.4</ele><time>2026-05-03T11:35:17.999Z</time></trkpt><trkpt lat="42.27017428275113" lon="19.79545554656698"><ele>570.0</ele><time>2026-05-03T11:35:18.999Z</time></trkpt><trkpt lat="42.270256424064485" lon="19.79534149521168"><ele>570.0</ele><time>2026-05-03T11:35:19.999Z</time></trkpt><trkpt lat="42.27034275799387" lon="19.795243166767087"><ele>570.0</ele><time>2026-05-03T11:35:20.999Z</time></trkpt><trkpt lat="42.27040776317503" lon="19.795188808972306"><ele>570.0</ele><time>2026-05-03T11:35:21.999Z</time></trkpt><trkpt lat="42.27050290855532" lon="19.79517883294914"><ele>570.0</ele><time>2026-05-03T11:35:23.999Z</time></trkpt><trkpt lat="42.270580363851096" lon="19.795323126189324"><ele>570.0</ele><time>2026-05-03T11:35:25.999Z</time></trkpt><trkpt lat="42.27061978674427" lon="19.795450707094513"><ele>563.75</ele><time>2026-05-03T11:35:26.999Z</time></trkpt><trkpt lat="42.27066009553456" lon="19.79554217702226"><ele>557.5</ele><time>2026-05-03T11:35:27.999Z</time></trkpt><trkpt lat="42.27074012637779" lon="19.795554661335014"><ele>551.25</ele><time>2026-05-03T11:35:29.999Z</time></trkpt><trkpt lat="42.27089095400047" lon="19.7954295277886"><ele>545.0</ele><time>2026-05-03T11:35:31.999Z</time></trkpt><trkpt lat="42.27100320626695" lon="19.795365124125475"><ele>545.0</ele><time>2026-05-03T11:35:32.999Z</time></trkpt><trkpt lat="42.27109490548683" lon="19.79531607992279"><ele>545.0</ele><time>2026-05-03T11:35:33.999Z</time></trkpt><trkpt lat="42.271167271763915" lon="19.795260067537143"><ele>545.0</ele><time>2026-05-03T11:35:34.999Z</time></trkpt><trkpt lat="42.27122484228101" lon="19.79520820643234"><ele>545.0</ele><time>2026-05-03T11:35:35.999Z</time></trkpt><trkpt lat="42.27133888285315" lon="19.795245282596564"><ele>545.0</ele><time>2026-05-03T11:35:37.999Z</time></trkpt><trkpt lat="42.27143044011102" lon="19.795315478755466"><ele>544.0</ele><time>2026-05-03T11:35:38.999Z</time></trkpt><trkpt lat="42.27155094539712" lon="19.79538514742786"><ele>543.0</ele><time>2026-05-03T11:35:39.999Z</time></trkpt><trkpt lat="42.27168816702542" lon="19.795441639202764"><ele>542.0</ele><time>2026-05-03T11:35:40.999Z</time></trkpt><trkpt lat="42.271842340760436" lon="19.795490079834707"><ele>541.0</ele><time>2026-05-03T11:35:41.999Z</time></trkpt><trkpt lat="42.27195837669339" lon="19.79551097204346"><ele>541.0</ele><time>2026-05-03T11:35:42.999Z</time></trkpt><trkpt lat="42.27204869889925" lon="19.79553165795194"><ele>541.0</ele><time>2026-05-03T11:35:43.999Z</time></trkpt><trkpt lat="42.27212378302464" lon="19.795543253697986"><ele>541.0</ele><time>2026-05-03T11:35:44.999Z</time></trkpt><trkpt lat="42.27218704637918" lon="19.79556130833251"><ele>541.0</ele><time>2026-05-03T11:35:45.999Z</time></trkpt><trkpt lat="42.27227473830768" lon="19.79565010716213"><ele>541.0</ele><time>2026-05-03T11:35:47.999Z</time></trkpt><trkpt lat="42.27227691928991" lon="19.795754073558854"><ele>541.0</ele><time>2026-05-03T11:35:50Z</time></trkpt><trkpt lat="42.27219423599825" lon="19.795846544141106"><ele>541.0</ele><time>2026-05-03T11:35:52Z</time></trkpt><trkpt lat="42.27212908693784" lon="19.795841340302758"><ele>541.0</ele><time>2026-05-03T11:35:53Z</time></trkpt><trkpt lat="42.272037493686454" lon="19.79580236732666"><ele>541.0</ele><time>2026-05-03T11:35:54Z</time></trkpt><trkpt lat="42.27192116240691" lon="19.795767995792463"><ele>541.0</ele><time>2026-05-03T11:35:55Z</time></trkpt><trkpt lat="42.27180217811228" lon="19.795757569908144"><ele>541.0</ele><time>2026-05-03T11:35:56Z</time></trkpt><trkpt lat="42.271688611511834" lon="19.795745084434788"><ele>541.0</ele><time>2026-05-03T11:35:57Z</time></trkpt><trkpt lat="42.27159241337306" lon="19.79573707683415"><ele>541.0</ele><time>2026-05-03T11:35:58Z</time></trkpt><trkpt lat="42.27150341310929" lon="19.795730268797474"><ele>541.0</ele><time>2026-05-03T11:35:59Z</time></trkpt><trkpt lat="42.27143182442443" lon="19.795752907309105"><ele>541.0</ele><time>2026-05-03T11:36:00Z</time></trkpt><trkpt lat="42.27136052180032" lon="19.795801575632147"><ele>541.0</ele><time>2026-05-03T11:36:01Z</time></trkpt><trkpt lat="42.271303624756676" lon="19.79588243588386"><ele>541.0</ele><time>2026-05-03T11:36:02Z</time></trkpt><trkpt lat="42.27125453352834" lon="19.795964895439738"><ele>541.0</ele><time>2026-05-03T11:36:03Z</time></trkpt><trkpt lat="42.271215500262024" lon="19.796089736603765"><ele>541.0</ele><time>2026-05-03T11:36:05Z</time></trkpt><trkpt lat="42.27127148954814" lon="19.796153217821953"><ele>541.0</ele><time>2026-05-03T11:36:07Z</time></trkpt><trkpt lat="42.27135865359704" lon="19.796083865940684"><ele>541.0</ele><time>2026-05-03T11:36:09Z</time></trkpt><trkpt lat="42.27141842039421" lon="19.795999260750463"><ele>541.0</ele><time>2026-05-03T11:36:10Z</time></trkpt><trkpt lat="42.271484816304884" lon="19.79594951224995"><ele>541.0</ele><time>2026-05-03T11:36:11Z</time></trkpt><trkpt lat="42.27154927776789" lon="19.79595015163444"><ele>541.0</ele><time>2026-05-03T11:36:12Z</time></trkpt><trkpt lat="42.27161738930978" lon="19.795993284496152"><ele>541.0</ele><time>2026-05-03T11:36:13Z</time></trkpt><trkpt lat="42.27168670157681" lon="19.79604798712777"><ele>541.0</ele><time>2026-05-03T11:36:14Z</time></trkpt><trkpt lat="42.27175487653889" lon="19.79609978316855"><ele>541.0</ele><time>2026-05-03T11:36:15Z</time></trkpt><trkpt lat="42.27182001289041" lon="19.796150222261346"><ele>541.0</ele><time>2026-05-03T11:36:16Z</time></trkpt><trkpt lat="42.27188327165832" lon="19.7961937897253"><ele>541.0</ele><time>2026-05-03T11:36:17Z</time></trkpt><trkpt lat="42.271952175674386" lon="19.79622800814343"><ele>538.1666666666667</ele><time>2026-05-03T11:36:18Z</time></trkpt><trkpt lat="42.27202506526344" lon="19.79625434494537"><ele>535.3333333333334</ele><time>2026-05-03T11:36:19Z</time></trkpt><trkpt lat="42.27209975973047" lon="19.796279379422824"><ele>532.5</ele><time>2026-05-03T11:36:20Z</time></trkpt><trkpt lat="42.2721754691194" lon="19.79631936441366"><ele>529.6666666666666</ele><time>2026-05-03T11:36:21Z</time></trkpt><trkpt lat="42.272248048972955" lon="19.796371032884558"><ele>526.8333333333333</ele><time>2026-05-03T11:36:22Z</time></trkpt><trkpt lat="42.272323922842396" lon="19.796435431058395"><ele>524.0</ele><time>2026-05-03T11:36:23Z</time></trkpt><trkpt lat="42.27239765034674" lon="19.796484821117343"><ele>523.0</ele><time>2026-05-03T11:36:24Z</time></trkpt><trkpt lat="42.272475756767285" lon="19.796492820170027"><ele>522.0</ele><time>2026-05-03T11:36:25Z</time></trkpt><trkpt lat="42.27255048834454" lon="19.79647743254954"><ele>521.0</ele><time>2026-05-03T11:36:26Z</time></trkpt><trkpt lat="42.27262991763147" lon="19.796408745430348"><ele>520.0</ele><time>2026-05-03T11:36:27Z</time></trkpt><trkpt lat="42.27271465791866" lon="19.79629591562651"><ele>519.0</ele><time>2026-05-03T11:36:28Z</time></trkpt><trkpt lat="42.27280135693246" lon="19.79617554598732"><ele>519.0</ele><time>2026-05-03T11:36:29Z</time></trkpt><trkpt lat="42.27288242212568" lon="19.796127451999087"><ele>519.0</ele><time>2026-05-03T11:36:30Z</time></trkpt><trkpt lat="42.27297782277103" lon="19.79612026006165"><ele>519.0</ele><time>2026-05-03T11:36:31Z</time></trkpt><trkpt lat="42.27308822802995" lon="19.79612848544574"><ele>519.0</ele><time>2026-05-03T11:36:32Z</time></trkpt><trkpt lat="42.27317618533226" lon="19.796117898756034"><ele>519.0</ele><time>2026-05-03T11:36:33Z</time></trkpt><trkpt lat="42.27323571302606" lon="19.796065989134686"><ele>520.2</ele><time>2026-05-03T11:36:34Z</time></trkpt><trkpt lat="42.2732855213542" lon="19.795966006523386"><ele>521.4</ele><time>2026-05-03T11:36:35Z</time></trkpt><trkpt lat="42.27333477647126" lon="19.79587013779757"><ele>522.6</ele><time>2026-05-03T11:36:36Z</time></trkpt><trkpt lat="42.273453166656324" lon="19.79586292810604"><ele>523.8</ele><time>2026-05-03T11:36:38Z</time></trkpt><trkpt lat="42.2735242156231" lon="19.79591760695374"><ele>525.0</ele><time>2026-05-03T11:36:39Z</time></trkpt><trkpt lat="42.27359965336621" lon="19.795996900290174"><ele>522.0</ele><time>2026-05-03T11:36:40Z</time></trkpt><trkpt lat="42.273688628034606" lon="19.796109794582815"><ele>519.0</ele><time>2026-05-03T11:36:41Z</time></trkpt><trkpt lat="42.27379059372237" lon="19.796254764471993"><ele>516.0</ele><time>2026-05-03T11:36:42Z</time></trkpt><trkpt lat="42.273890492257856" lon="19.796425951567375"><ele>513.0</ele><time>2026-05-03T11:36:43Z</time></trkpt><trkpt lat="42.27397488789528" lon="19.796602604104432"><ele>511.6666666666667</ele><time>2026-05-03T11:36:44Z</time></trkpt><trkpt lat="42.27402633049159" lon="19.796726575290844"><ele>510.33333333333337</ele><time>2026-05-03T11:36:45Z</time></trkpt><trkpt lat="42.27406659017774" lon="19.79681668591017"><ele>509.0</ele><time>2026-05-03T11:36:46Z</time></trkpt><trkpt lat="42.274105735014764" lon="19.796901291935615"><ele>507.6666666666667</ele><time>2026-05-03T11:36:47Z</time></trkpt><trkpt lat="42.274158858437595" lon="19.796965705211857"><ele>506.33333333333337</ele><time>2026-05-03T11:36:48Z</time></trkpt><trkpt lat="42.27424681457846" lon="19.797018016097535"><ele>505.0</ele><time>2026-05-03T11:36:49Z</time></trkpt><trkpt lat="42.27435733277923" lon="19.79703567944488"><ele>505.00000000000006</ele><time>2026-05-03T11:36:50Z</time></trkpt><trkpt lat="42.27444628302881" lon="19.797031854037993"><ele>505.0</ele><time>2026-05-03T11:36:51Z</time></trkpt><trkpt lat="42.274507266229776" lon="19.796995371905346"><ele>505.0</ele><time>2026-05-03T11:36:52Z</time></trkpt><trkpt lat="42.27455564137626" lon="19.796923000335347"><ele>505.0</ele><time>2026-05-03T11:36:53Z</time></trkpt><trkpt lat="42.27457004740532" lon="19.7968259284789"><ele>505.00000000000006</ele><time>2026-05-03T11:36:54Z</time></trkpt><trkpt lat="42.27456189601453" lon="19.79670399145768"><ele>505.0</ele><time>2026-05-03T11:36:54.999Z</time></trkpt><trkpt lat="42.274538002845546" lon="19.796529200456437"><ele>505.0</ele><time>2026-05-03T11:36:55.999Z</time></trkpt><trkpt lat="42.27453435104439" lon="19.796403591915038"><ele>505.0</ele><time>2026-05-03T11:36:56.999Z</time></trkpt><trkpt lat="42.27458051338669" lon="19.796261640677578"><ele>505.0</ele><time>2026-05-03T11:36:58.999Z</time></trkpt><trkpt lat="42.274729920290106" lon="19.796220591464895"><ele>505.0</ele><time>2026-05-03T11:37:00.999Z</time></trkpt><trkpt lat="42.27485077536296" lon="19.79620800081597"><ele>500.0</ele><time>2026-05-03T11:37:01.999Z</time></trkpt><trkpt lat="42.27497789255844" lon="19.79620297032228"><ele>495.0</ele><time>2026-05-03T11:37:02.999Z</time></trkpt><trkpt lat="42.27509772852708" lon="19.796201491496745"><ele>490.0</ele><time>2026-05-03T11:37:03.999Z</time></trkpt><trkpt lat="42.275227323800785" lon="19.79619261986866"><ele>485.0</ele><time>2026-05-03T11:37:04.999Z</time></trkpt><trkpt lat="42.27535817110409" lon="19.796149808257205"><ele>485.0</ele><time>2026-05-03T11:37:05.999Z</time></trkpt><trkpt lat="42.27549960774375" lon="19.796100577939626"><ele>485.0</ele><time>2026-05-03T11:37:06.999Z</time></trkpt><trkpt lat="42.275628924849876" lon="19.796055148730247"><ele>485.0</ele><time>2026-05-03T11:37:07.999Z</time></trkpt><trkpt lat="42.27572384695421" lon="19.796017185900812"><ele>485.0</ele><time>2026-05-03T11:37:08.999Z</time></trkpt><trkpt lat="42.275808050552236" lon="19.795969373676826"><ele>484.6</ele><time>2026-05-03T11:37:09.999Z</time></trkpt><trkpt lat="42.27588645545058" lon="19.795901342927888"><ele>484.2</ele><time>2026-05-03T11:37:10.999Z</time></trkpt><trkpt lat="42.275960040598456" lon="19.795816051491894"><ele>483.79999999999995</ele><time>2026-05-03T11:37:11.999Z</time></trkpt><trkpt lat="42.27603024551711" lon="19.79572303938483"><ele>483.4</ele><time>2026-05-03T11:37:12.999Z</time></trkpt><trkpt lat="42.27609388669309" lon="19.795612063213092"><ele>483.0</ele><time>2026-05-03T11:37:13.999Z</time></trkpt><trkpt lat="42.27614025120576" lon="19.79549630997059"><ele>483.0</ele><time>2026-05-03T11:37:14.999Z</time></trkpt><trkpt lat="42.276179697380975" lon="19.79539610254699"><ele>483.0</ele><time>2026-05-03T11:37:15.999Z</time></trkpt><trkpt lat="42.27621720943012" lon="19.7952739365992"><ele>483.0</ele><time>2026-05-03T11:37:16.999Z</time></trkpt><trkpt lat="42.27623132116273" lon="19.795150984189473"><ele>483.0</ele><time>2026-05-03T11:37:17.999Z</time></trkpt><trkpt lat="42.276229142250266" lon="19.79504046488608"><ele>483.0</ele><time>2026-05-03T11:37:18.999Z</time></trkpt><trkpt lat="42.27622217188164" lon="19.794922827760804"><ele>483.0</ele><time>2026-05-03T11:37:19.999Z</time></trkpt><trkpt lat="42.276208029777976" lon="19.794808248203758"><ele>484.1666666666667</ele><time>2026-05-03T11:37:20.999Z</time></trkpt><trkpt lat="42.276193564558206" lon="19.79472221746028"><ele>485.33333333333337</ele><time>2026-05-03T11:37:21.999Z</time></trkpt><trkpt lat="42.27618750311872" lon="19.79461083962942"><ele>486.5</ele><time>2026-05-03T11:37:23.999Z</time></trkpt><trkpt lat="42.2762715776866" lon="19.794525825193404"><ele>487.6666666666667</ele><time>2026-05-03T11:37:25.999Z</time></trkpt><trkpt lat="42.27633741910418" lon="19.794533556115535"><ele>488.83333333333337</ele><time>2026-05-03T11:37:26.999Z</time></trkpt><trkpt lat="42.27640872922923" lon="19.794585963206803"><ele>490.0</ele><time>2026-05-03T11:37:27.999Z</time></trkpt><trkpt lat="42.276486126848404" lon="19.79467173310988"><ele>483.0</ele><time>2026-05-03T11:37:28.999Z</time></trkpt><trkpt lat="42.276591130660066" lon="19.794759889919835"><ele>476.0</ele><time>2026-05-03T11:37:29.999Z</time></trkpt><trkpt lat="42.27672022699994" lon="19.794851353994993"><ele>469.0</ele><time>2026-05-03T11:37:30.999Z</time></trkpt><trkpt lat="42.27684294329815" lon="19.7949369292302"><ele>462.0</ele><time>2026-05-03T11:37:31.999Z</time></trkpt><trkpt lat="42.27695089803986" lon="19.795003869531012"><ele>462.0</ele><time>2026-05-03T11:37:32.999Z</time></trkpt><trkpt lat="42.27705514893548" lon="19.795051405261482"><ele>462.0</ele><time>2026-05-03T11:37:33.999Z</time></trkpt><trkpt lat="42.27712966194963" lon="19.795075338030625"><ele>462.0</ele><time>2026-05-03T11:37:34.999Z</time></trkpt><trkpt lat="42.27722018014445" lon="19.795084572664585"><ele>462.0</ele><time>2026-05-03T11:37:35.999Z</time></trkpt><trkpt lat="42.27730162872137" lon="19.79506715998254"><ele>462.0</ele><time>2026-05-03T11:37:36.999Z</time></trkpt><trkpt lat="42.277365622872885" lon="19.795023640064038"><ele>462.0</ele><time>2026-05-03T11:37:37.999Z</time></trkpt><trkpt lat="42.277422946249914" lon="19.794947858376815"><ele>458.20000000000005</ele><time>2026-05-03T11:37:38.999Z</time></trkpt><trkpt lat="42.277476697482406" lon="19.7948374652801"><ele>454.40000000000003</ele><time>2026-05-03T11:37:39.999Z</time></trkpt><trkpt lat="42.27752770358771" lon="19.794730461867463"><ele>450.59999999999997</ele><time>2026-05-03T11:37:40.999Z</time></trkpt><trkpt lat="42.27758817272286" lon="19.794641106179522"><ele>446.79999999999995</ele><time>2026-05-03T11:37:41.999Z</time></trkpt><trkpt lat="42.27766702979696" lon="19.794625779775757"><ele>443.0</ele><time>2026-05-03T11:37:43.999Z</time></trkpt><trkpt lat="42.27780048961101" lon="19.794712637130253"><ele>443.0</ele><time>2026-05-03T11:37:45.999Z</time></trkpt><trkpt lat="42.27787310085878" lon="19.79479234348035"><ele>442.99999999999994</ele><time>2026-05-03T11:37:46.999Z</time></trkpt><trkpt lat="42.277946994049174" lon="19.79487348747033"><ele>442.99999999999994</ele><time>2026-05-03T11:37:47.999Z</time></trkpt><trkpt lat="42.27803787747462" lon="19.79492771209823"><ele>443.0</ele><time>2026-05-03T11:37:48.999Z</time></trkpt><trkpt lat="42.2781291528142" lon="19.794951021860626"><ele>443.0</ele><time>2026-05-03T11:37:49.999Z</time></trkpt><trkpt lat="42.27822779988214" lon="19.794968429112522"><ele>442.0</ele><time>2026-05-03T11:37:50.999Z</time></trkpt><trkpt lat="42.27833290380721" lon="19.795013597170055"><ele>440.99999999999994</ele><time>2026-05-03T11:37:51.999Z</time></trkpt><trkpt lat="42.278432367569366" lon="19.79508519018229"><ele>439.99999999999994</ele><time>2026-05-03T11:37:52.999Z</time></trkpt><trkpt lat="42.27851518168187" lon="19.795177195517812"><ele>439.0</ele><time>2026-05-03T11:37:53.999Z</time></trkpt><trkpt lat="42.27858263344701" lon="19.79526374610322"><ele>438.0</ele><time>2026-05-03T11:37:54.999Z</time></trkpt><trkpt lat="42.27863985686798" lon="19.795332531559037"><ele>434.5</ele><time>2026-05-03T11:37:56Z</time></trkpt><trkpt lat="42.278684369164864" lon="19.79540752576943"><ele>431.0</ele><time>2026-05-03T11:37:57Z</time></trkpt><trkpt lat="42.27871055935768" lon="19.79550276682401"><ele>427.5</ele><time>2026-05-03T11:37:58Z</time></trkpt><trkpt lat="42.278723851392954" lon="19.795592406831013"><ele>424.0</ele><time>2026-05-03T11:37:59Z</time></trkpt><trkpt lat="42.27871790058624" lon="19.795681402706055"><ele>420.5</ele><time>2026-05-03T11:38:00Z</time></trkpt><trkpt lat="42.278699628091786" lon="19.795796437927134"><ele>417.0</ele><time>2026-05-03T11:38:01Z</time></trkpt><trkpt lat="42.27866509001324" lon="19.795924264620282"><ele>416.20000000000005</ele><time>2026-05-03T11:38:02Z</time></trkpt><trkpt lat="42.27863273775387" lon="19.796048772423795"><ele>415.4</ele><time>2026-05-03T11:38:03Z</time></trkpt><trkpt lat="42.27863182202045" lon="19.79618002954989"><ele>414.6</ele><time>2026-05-03T11:38:05Z</time></trkpt><trkpt lat="42.27870536740065" lon="19.79630624160653"><ele>413.79999999999995</ele><time>2026-05-03T11:38:07Z</time></trkpt><trkpt lat="42.27878881417094" lon="19.7963753962397"><ele>413.0</ele><time>2026-05-03T11:38:08Z</time></trkpt><trkpt lat="42.27888548718223" lon="19.796433996995955"><ele>412.59999999999997</ele><time>2026-05-03T11:38:09Z</time></trkpt><trkpt lat="42.278952545660765" lon="19.79646267911427"><ele>412.2</ele><time>2026-05-03T11:38:10Z</time></trkpt><trkpt lat="42.279035562809085" lon="19.79640315384492"><ele>411.8</ele><time>2026-05-03T11:38:12Z</time></trkpt><trkpt lat="42.27902760675881" lon="19.796242043088274"><ele>411.4</ele><time>2026-05-03T11:38:14Z</time></trkpt><trkpt lat="42.27898170441746" lon="19.79612912495769"><ele>411.0</ele><time>2026-05-03T11:38:15Z</time></trkpt><trkpt lat="42.278943911491986" lon="19.795972295273494"><ele>411.0</ele><time>2026-05-03T11:38:16Z</time></trkpt><trkpt lat="42.27895232825319" lon="19.795827057762292"><ele>411.0</ele><time>2026-05-03T11:38:17Z</time></trkpt><trkpt lat="42.27899260393483" lon="19.795709560021923"><ele>411.0</ele><time>2026-05-03T11:38:18Z</time></trkpt><trkpt lat="42.27906200635416" lon="19.7955765579574"><ele>411.0</ele><time>2026-05-03T11:38:19Z</time></trkpt><trkpt lat="42.279164131874786" lon="19.79547062403989"><ele>411.0</ele><time>2026-05-03T11:38:20Z</time></trkpt><trkpt lat="42.279277657448546" lon="19.79537861777931"><ele>411.0</ele><time>2026-05-03T11:38:21Z</time></trkpt><trkpt lat="42.27938966309822" lon="19.79529743051532"><ele>411.0</ele><time>2026-05-03T11:38:22Z</time></trkpt><trkpt lat="42.27945776322491" lon="19.79523154333678"><ele>411.0</ele><time>2026-05-03T11:38:23Z</time></trkpt><trkpt lat="42.27954955898955" lon="19.795182389135032"><ele>411.0</ele><time>2026-05-03T11:38:25Z</time></trkpt><trkpt lat="42.2796197425575" lon="19.79521093965698"><ele>411.0</ele><time>2026-05-03T11:38:26Z</time></trkpt><trkpt lat="42.27972319220116" lon="19.795259108087667"><ele>411.0</ele><time>2026-05-03T11:38:27Z</time></trkpt><trkpt lat="42.27982975910824" lon="19.79526533645615"><ele>411.0</ele><time>2026-05-03T11:38:28Z</time></trkpt><trkpt lat="42.27993951925624" lon="19.795218352601648"><ele>411.0</ele><time>2026-05-03T11:38:29Z</time></trkpt><trkpt lat="42.28005576034525" lon="19.795146614362526"><ele>411.0</ele><time>2026-05-03T11:38:30Z</time></trkpt><trkpt lat="42.280145169666525" lon="19.79508812826011"><ele>411.0</ele><time>2026-05-03T11:38:31Z</time></trkpt><trkpt lat="42.28019413618057" lon="19.795017155850015"><ele>411.0</ele><time>2026-05-03T11:38:32Z</time></trkpt><trkpt lat="42.280224821531704" lon="19.79491976569029"><ele>411.0</ele><time>2026-05-03T11:38:33Z</time></trkpt><trkpt lat="42.28026112578962" lon="19.794785073085862"><ele>411.0</ele><time>2026-05-03T11:38:34Z</time></trkpt><trkpt lat="42.280322562100245" lon="19.794677165652345"><ele>411.0</ele><time>2026-05-03T11:38:35Z</time></trkpt><trkpt lat="42.28040227972355" lon="19.794602247860073"><ele>411.0</ele><time>2026-05-03T11:38:36Z</time></trkpt><trkpt lat="42.28052506501519" lon="19.794530732078517"><ele>411.0</ele><time>2026-05-03T11:38:37Z</time></trkpt><trkpt lat="42.28063330602442" lon="19.79448833260836"><ele>411.0</ele><time>2026-05-03T11:38:38Z</time></trkpt><trkpt lat="42.28068841132333" lon="19.79442976611732"><ele>411.0</ele><time>2026-05-03T11:38:39Z</time></trkpt><trkpt lat="42.2807107178733" lon="19.794347476672776"><ele>410.4</ele><time>2026-05-03T11:38:40Z</time></trkpt><trkpt lat="42.28071449344605" lon="19.794223992737027"><ele>409.8</ele><time>2026-05-03T11:38:41Z</time></trkpt><trkpt lat="42.280680601891234" lon="19.7940640472269"><ele>409.2</ele><time>2026-05-03T11:38:42Z</time></trkpt><trkpt lat="42.280654656076834" lon="19.79393054374266"><ele>408.59999999999997</ele><time>2026-05-03T11:38:43Z</time></trkpt><trkpt lat="42.280703272861714" lon="19.79380003948188"><ele>408.0</ele><time>2026-05-03T11:38:45Z</time></trkpt><trkpt lat="42.28076793652617" lon="19.793765740514274"><ele>408.0</ele><time>2026-05-03T11:38:46Z</time></trkpt><trkpt lat="42.28086139383445" lon="19.793755783416618"><ele>408.0</ele><time>2026-05-03T11:38:47Z</time></trkpt><trkpt lat="42.28094925597458" lon="19.79379703709945"><ele>408.0</ele><time>2026-05-03T11:38:48Z</time></trkpt><trkpt lat="42.28104256248424" lon="19.793894773528155"><ele>408.0</ele><time>2026-05-03T11:38:49Z</time></trkpt><trkpt lat="42.28112611615122" lon="19.794036846331473"><ele>408.0</ele><time>2026-05-03T11:38:50Z</time></trkpt><trkpt lat="42.28120965385184" lon="19.794211841860065"><ele>402.66666666666663</ele><time>2026-05-03T11:38:51Z</time></trkpt><trkpt lat="42.281266866889844" lon="19.794400982703724"><ele>397.3333333333333</ele><time>2026-05-03T11:38:52Z</time></trkpt><trkpt lat="42.281322694830685" lon="19.794629051619935"><ele>392.0</ele><time>2026-05-03T11:38:53Z</time></trkpt><trkpt lat="42.281357420637235" lon="19.794837729809643"><ele>392.0</ele><time>2026-05-03T11:38:54Z</time></trkpt><trkpt lat="42.28137199826912" lon="19.794991999912195"><ele>392.0</ele><time>2026-05-03T11:38:55Z</time></trkpt><trkpt lat="42.2813523381844" lon="19.795115601321807"><ele>392.0</ele><time>2026-05-03T11:38:56Z</time></trkpt><trkpt lat="42.281305975895926" lon="19.795223356987727"><ele>392.0</ele><time>2026-05-03T11:38:57Z</time></trkpt><trkpt lat="42.28122160225763" lon="19.795317440289857"><ele>392.0</ele><time>2026-05-03T11:38:58Z</time></trkpt><trkpt lat="42.28113141295694" lon="19.795411588346116"><ele>390.8</ele><time>2026-05-03T11:38:59Z</time></trkpt><trkpt lat="42.28108850797434" lon="19.795496555236515"><ele>389.6</ele><time>2026-05-03T11:39:00Z</time></trkpt><trkpt lat="42.281071516641994" lon="19.795589827161464"><ele>388.40000000000003</ele><time>2026-05-03T11:39:01Z</time></trkpt><trkpt lat="42.28112571507866" lon="19.79568866691762"><ele>387.20000000000005</ele><time>2026-05-03T11:39:03Z</time></trkpt><trkpt lat="42.28120019845231" lon="19.795667387136653"><ele>386.0</ele><time>2026-05-03T11:39:04Z</time></trkpt><trkpt lat="42.2812937016164" lon="19.795494510556544"><ele>386.0</ele><time>2026-05-03T11:39:06Z</time></trkpt><trkpt lat="42.28135897836587" lon="19.795377436907128"><ele>386.0</ele><time>2026-05-03T11:39:07Z</time></trkpt><trkpt lat="42.281455283988436" lon="19.795310407573314"><ele>386.0</ele><time>2026-05-03T11:39:08Z</time></trkpt><trkpt lat="42.28157833445441" lon="19.795281130434226"><ele>386.0</ele><time>2026-05-03T11:39:09Z</time></trkpt><trkpt lat="42.28172154321765" lon="19.795272724626397"><ele>384.0</ele><time>2026-05-03T11:39:10Z</time></trkpt><trkpt lat="42.2818399657115" lon="19.795282992159798"><ele>382.0</ele><time>2026-05-03T11:39:11Z</time></trkpt><trkpt lat="42.281931243334185" lon="19.795326908854914"><ele>380.0</ele><time>2026-05-03T11:39:12Z</time></trkpt><trkpt lat="42.282031164125" lon="19.7953939183227"><ele>378.0</ele><time>2026-05-03T11:39:13Z</time></trkpt><trkpt lat="42.28212025787535" lon="19.795446909321864"><ele>376.0</ele><time>2026-05-03T11:39:14Z</time></trkpt><trkpt lat="42.28220963156153" lon="19.795450959511744"><ele>372.0</ele><time>2026-05-03T11:39:15Z</time></trkpt><trkpt lat="42.28228097963023" lon="19.795397818278747"><ele>368.0</ele><time>2026-05-03T11:39:16Z</time></trkpt><trkpt lat="42.28237634531349" lon="19.79530642643675"><ele>364.0</ele><time>2026-05-03T11:39:17Z</time></trkpt><trkpt lat="42.282504811582804" lon="19.795200917815045"><ele>360.0</ele><time>2026-05-03T11:39:18Z</time></trkpt><trkpt lat="42.2826431419474" lon="19.795128125299044"><ele>365.5</ele><time>2026-05-03T11:39:19Z</time></trkpt><trkpt lat="42.28279324562051" lon="19.795084051381526"><ele>371.0</ele><time>2026-05-03T11:39:20Z</time></trkpt><trkpt lat="42.28292140588476" lon="19.795054010052855"><ele>376.5</ele><time>2026-05-03T11:39:21Z</time></trkpt><trkpt lat="42.28304814641781" lon="19.795010550851387"><ele>382.0</ele><time>2026-05-03T11:39:22Z</time></trkpt><trkpt lat="42.28314318248774" lon="19.794982725445742"><ele>382.0</ele><time>2026-05-03T11:39:23Z</time></trkpt><trkpt lat="42.283241097250034" lon="19.794972708924394"><ele>382.0</ele><time>2026-05-03T11:39:24Z</time></trkpt><trkpt lat="42.28333372851147" lon="19.795011871712795"><ele>382.0</ele><time>2026-05-03T11:39:25Z</time></trkpt><trkpt lat="42.28341604963419" lon="19.79508439432359"><ele>382.0</ele><time>2026-05-03T11:39:26Z</time></trkpt><trkpt lat="42.28351020896604" lon="19.795182461971205"><ele>382.0</ele><time>2026-05-03T11:39:27Z</time></trkpt><trkpt lat="42.283626190542286" lon="19.795313364701286"><ele>375.5</ele><time>2026-05-03T11:39:28Z</time></trkpt><trkpt lat="42.28375778639406" lon="19.7954326370963"><ele>369.0</ele><time>2026-05-03T11:39:29Z</time></trkpt><trkpt lat="42.283864035307744" lon="19.795540358450378"><ele>362.5</ele><time>2026-05-03T11:39:30Z</time></trkpt><trkpt lat="42.283944816615524" lon="19.79566693405327"><ele>356.0</ele><time>2026-05-03T11:39:31Z</time></trkpt><trkpt lat="42.284003244557844" lon="19.795792304073068"><ele>356.0</ele><time>2026-05-03T11:39:32Z</time></trkpt><trkpt lat="42.28405009909611" lon="19.79588122277068"><ele>356.0</ele><time>2026-05-03T11:39:33Z</time></trkpt><trkpt lat="42.28411293543969" lon="19.795936643654844"><ele>356.0</ele><time>2026-05-03T11:39:34Z</time></trkpt><trkpt lat="42.2841908946492" lon="19.795933647731772"><ele>356.0</ele><time>2026-05-03T11:39:35Z</time></trkpt><trkpt lat="42.28427241942587" lon="19.79588057257557"><ele>356.0</ele><time>2026-05-03T11:39:36Z</time></trkpt><trkpt lat="42.284337552676426" lon="19.79579610304781"><ele>356.0</ele><time>2026-05-03T11:39:37Z</time></trkpt><trkpt lat="42.28437236959743" lon="19.79567364594615"><ele>356.0</ele><time>2026-05-03T11:39:38Z</time></trkpt><trkpt lat="42.28440030355774" lon="19.79550335162391"><ele>356.0</ele><time>2026-05-03T11:39:39Z</time></trkpt><trkpt lat="42.28442107084331" lon="19.795299856109402"><ele>356.0</ele><time>2026-05-03T11:39:40Z</time></trkpt><trkpt lat="42.28441892170137" lon="19.795152268438827"><ele>356.0</ele><time>2026-05-03T11:39:41Z</time></trkpt><trkpt lat="42.28441833744089" lon="19.795052064097515"><ele>356.0</ele><time>2026-05-03T11:39:42Z</time></trkpt><trkpt lat="42.284504020097145" lon="19.795019964274918"><ele>356.0</ele><time>2026-05-03T11:39:43.999Z</time></trkpt><trkpt lat="42.28462394544814" lon="19.79515176786161"><ele>356.0</ele><time>2026-05-03T11:39:45.999Z</time></trkpt><trkpt lat="42.28467724018148" lon="19.795280837197538"><ele>356.0</ele><time>2026-05-03T11:39:46.999Z</time></trkpt><trkpt lat="42.28471971368573" lon="19.79543718266603"><ele>356.0</ele><time>2026-05-03T11:39:47.999Z</time></trkpt><trkpt lat="42.284744374226825" lon="19.795567502065932"><ele>356.0</ele><time>2026-05-03T11:39:48.999Z</time></trkpt><trkpt lat="42.28484114852684" lon="19.795651562527098"><ele>356.0</ele><time>2026-05-03T11:39:50.999Z</time></trkpt><trkpt lat="42.284959373386336" lon="19.795679345563865"><ele>356.0</ele><time>2026-05-03T11:39:51.999Z</time></trkpt><trkpt lat="42.28510103476811" lon="19.795745758081644"><ele>353.6666666666667</ele><time>2026-05-03T11:39:52.999Z</time></trkpt><trkpt lat="42.28524643404774" lon="19.79583244376573"><ele>351.3333333333333</ele><time>2026-05-03T11:39:53.999Z</time></trkpt><trkpt lat="42.285414310859686" lon="19.795914982210302"><ele>349.0</ele><time>2026-05-03T11:39:54.999Z</time></trkpt><trkpt lat="42.285578089891416" lon="19.79596597769449"><ele>342.66666666666663</ele><time>2026-05-03T11:39:55.999Z</time></trkpt><trkpt lat="42.28574031142429" lon="19.796016459628454"><ele>336.3333333333333</ele><time>2026-05-03T11:39:56.999Z</time></trkpt><trkpt lat="42.28591926664237" lon="19.796062481945263"><ele>330.0</ele><time>2026-05-03T11:39:57.999Z</time></trkpt><trkpt lat="42.286088563263455" lon="19.796123262844148"><ele>330.0</ele><time>2026-05-03T11:39:58.999Z</time></trkpt><trkpt lat="42.28622089120119" lon="19.7961738585843"><ele>330.0</ele><time>2026-05-03T11:39:59.999Z</time></trkpt><trkpt lat="42.28631503501281" lon="19.796183514742705"><ele>330.0</ele><time>2026-05-03T11:40:00.999Z</time></trkpt><trkpt lat="42.28640438570533" lon="19.796170194962315"><ele>330.0</ele><time>2026-05-03T11:40:02Z</time></trkpt><trkpt lat="42.286483605837944" lon="19.79611461691588"><ele>330.0</ele><time>2026-05-03T11:40:03Z</time></trkpt><trkpt lat="42.28654182092486" lon="19.796059519767226"><ele>327.8</ele><time>2026-05-03T11:40:04Z</time></trkpt><trkpt lat="42.28659534546709" lon="19.796004696875777"><ele>325.6</ele><time>2026-05-03T11:40:05Z</time></trkpt><trkpt lat="42.28667081595486" lon="19.795950031192092"><ele>323.4</ele><time>2026-05-03T11:40:06Z</time></trkpt><trkpt lat="42.28673020278699" lon="19.795876770997495"><ele>321.2</ele><time>2026-05-03T11:40:07Z</time></trkpt><trkpt lat="42.286807609657494" lon="19.795751378273025"><ele>319.0</ele><time>2026-05-03T11:40:08Z</time></trkpt><trkpt lat="42.286900268036796" lon="19.795656440364596"><ele>325.4</ele><time>2026-05-03T11:40:09Z</time></trkpt><trkpt lat="42.2870048394467" lon="19.795612367256755"><ele>331.79999999999995</ele><time>2026-05-03T11:40:10Z</time></trkpt><trkpt lat="42.28710661552964" lon="19.795599660622003"><ele>338.20000000000005</ele><time>2026-05-03T11:40:11Z</time></trkpt><trkpt lat="42.2871876014932" lon="19.795525441170607"><ele>344.6</ele><time>2026-05-03T11:40:13Z</time></trkpt><trkpt lat="42.28720539486122" lon="19.79542734695836"><ele>351.0</ele><time>2026-05-03T11:40:14Z</time></trkpt><trkpt lat="42.287204999679474" lon="19.79530301281494"><ele>348.6</ele><time>2026-05-03T11:40:15Z</time></trkpt><trkpt lat="42.28720330851201" lon="19.795161422411923"><ele>346.20000000000005</ele><time>2026-05-03T11:40:16Z</time></trkpt><trkpt lat="42.287228232088005" lon="19.79500705066656"><ele>343.79999999999995</ele><time>2026-05-03T11:40:17Z</time></trkpt><trkpt lat="42.28727659350237" lon="19.79490991113968"><ele>341.4</ele><time>2026-05-03T11:40:18Z</time></trkpt><trkpt lat="42.28733623037864" lon="19.79484436132767"><ele>339.0</ele><time>2026-05-03T11:40:19Z</time></trkpt><trkpt lat="42.28746160092842" lon="19.79481429112555"><ele>339.0</ele><time>2026-05-03T11:40:21Z</time></trkpt><trkpt lat="42.287532603962795" lon="19.79485302538721"><ele>339.0</ele><time>2026-05-03T11:40:22Z</time></trkpt><trkpt lat="42.28761899210478" lon="19.79493210483537"><ele>339.0</ele><time>2026-05-03T11:40:23Z</time></trkpt><trkpt lat="42.28772748621722" lon="19.79505770459181"><ele>339.0</ele><time>2026-05-03T11:40:24Z</time></trkpt><trkpt lat="42.28782438541455" lon="19.795171209728036"><ele>337.5</ele><time>2026-05-03T11:40:25Z</time></trkpt><trkpt lat="42.28790129141633" lon="19.79522875220998"><ele>336.0</ele><time>2026-05-03T11:40:26Z</time></trkpt><trkpt lat="42.28803111345434" lon="19.79519729651322"><ele>334.5</ele><time>2026-05-03T11:40:28Z</time></trkpt><trkpt lat="42.28811913265364" lon="19.7951055891538"><ele>333.0</ele><time>2026-05-03T11:40:29Z</time></trkpt><trkpt lat="42.288223284279475" lon="19.794986865435657"><ele>333.0</ele><time>2026-05-03T11:40:30Z</time></trkpt><trkpt lat="42.2883312865852" lon="19.79486633232703"><ele>333.0</ele><time>2026-05-03T11:40:31Z</time></trkpt><trkpt lat="42.28842948976635" lon="19.794783293591305"><ele>333.0</ele><time>2026-05-03T11:40:32Z</time></trkpt><trkpt lat="42.288524076203025" lon="19.794731604447847"><ele>333.0</ele><time>2026-05-03T11:40:33Z</time></trkpt><trkpt lat="42.288619910477976" lon="19.794697892028687"><ele>333.0</ele><time>2026-05-03T11:40:34Z</time></trkpt><trkpt lat="42.28870009127003" lon="19.79466730398104"><ele>333.0</ele><time>2026-05-03T11:40:35Z</time></trkpt><trkpt lat="42.28876342753853" lon="19.794644856626128"><ele>333.0</ele><time>2026-05-03T11:40:36Z</time></trkpt><trkpt lat="42.28883472009504" lon="19.79470329019818"><ele>333.0</ele><time>2026-05-03T11:40:38Z</time></trkpt><trkpt lat="42.28882969606973" lon="19.794885984231215"><ele>333.0</ele><time>2026-05-03T11:40:40Z</time></trkpt><trkpt lat="42.288791740606285" lon="19.795031196637623"><ele>327.5</ele><time>2026-05-03T11:40:41Z</time></trkpt><trkpt lat="42.288761576722735" lon="19.795221018053944"><ele>322.0</ele><time>2026-05-03T11:40:42Z</time></trkpt><trkpt lat="42.28875322283891" lon="19.795405126746324"><ele>316.5</ele><time>2026-05-03T11:40:43Z</time></trkpt><trkpt lat="42.28874581108686" lon="19.795554180894708"><ele>311.0</ele><time>2026-05-03T11:40:44Z</time></trkpt><trkpt lat="42.28871130895163" lon="19.795697077803688"><ele>311.0</ele><time>2026-05-03T11:40:45Z</time></trkpt><trkpt lat="42.2886494248391" lon="19.795857360373848"><ele>311.0</ele><time>2026-05-03T11:40:46Z</time></trkpt><trkpt lat="42.28859100169959" lon="19.795969011738652"><ele>311.0</ele><time>2026-05-03T11:40:47Z</time></trkpt><trkpt lat="42.28852740694288" lon="19.79604541691333"><ele>311.0</ele><time>2026-05-03T11:40:48Z</time></trkpt><trkpt lat="42.28842628338318" lon="19.796083645845247"><ele>311.0</ele><time>2026-05-03T11:40:49Z</time></trkpt><trkpt lat="42.2883307683954" lon="19.79611986143973"><ele>310.40000000000003</ele><time>2026-05-03T11:40:50Z</time></trkpt><trkpt lat="42.28827675640977" lon="19.796257392328766"><ele>309.8</ele><time>2026-05-03T11:40:52Z</time></trkpt><trkpt lat="42.28826464336622" lon="19.796395123125368"><ele>309.20000000000005</ele><time>2026-05-03T11:40:53Z</time></trkpt><trkpt lat="42.28826957144275" lon="19.796538407984364"><ele>308.6</ele><time>2026-05-03T11:40:54Z</time></trkpt><trkpt lat="42.288279082807" lon="19.79663524004827"><ele>308.0</ele><time>2026-05-03T11:40:55Z</time></trkpt><trkpt lat="42.28828722094693" lon="19.796723905290797"><ele>310.2</ele><time>2026-05-03T11:40:57Z</time></trkpt><trkpt lat="42.28826150651388" lon="19.796855036028944"><ele>312.4</ele><time>2026-05-03T11:43:28.999Z</time></trkpt><trkpt lat="42.28818322946366" lon="19.796965545105376"><ele>314.59999999999997</ele><time>2026-05-03T11:43:30.999Z</time></trkpt><trkpt lat="42.2880496870776" lon="19.797030222960252"><ele>316.8</ele><time>2026-05-03T11:43:32.999Z</time></trkpt><trkpt lat="42.287960010043626" lon="19.79706170602755"><ele>319.0</ele><time>2026-05-03T11:43:33.999Z</time></trkpt><trkpt lat="42.287870206930556" lon="19.79710326145961"><ele>319.0</ele><time>2026-05-03T11:43:34.999Z</time></trkpt><trkpt lat="42.28777451391737" lon="19.797156555201905"><ele>319.0</ele><time>2026-05-03T11:43:35.999Z</time></trkpt><trkpt lat="42.28769132028969" lon="19.797207778207245"><ele>319.0</ele><time>2026-05-03T11:43:36.999Z</time></trkpt><trkpt lat="42.287615176282216" lon="19.797245718210338"><ele>319.0</ele><time>2026-05-03T11:43:37.999Z</time></trkpt><trkpt lat="42.287526398610225" lon="19.79729864396428"><ele>319.0</ele><time>2026-05-03T11:43:38.999Z</time></trkpt><trkpt lat="42.28746426789628" lon="19.79734522884942"><ele>319.0</ele><time>2026-05-03T11:43:39.999Z</time></trkpt><trkpt lat="42.287411831712454" lon="19.79743335375621"><ele>319.0</ele><time>2026-05-03T11:43:41.999Z</time></trkpt><trkpt lat="42.28746311586011" lon="19.797513260949653"><ele>319.0</ele><time>2026-05-03T11:43:43.999Z</time></trkpt><trkpt lat="42.28756571829374" lon="19.79749613553831"><ele>319.0</ele><time>2026-05-03T11:43:45.999Z</time></trkpt><trkpt lat="42.2876294991465" lon="19.797436905463037"><ele>319.0</ele><time>2026-05-03T11:43:46.999Z</time></trkpt><trkpt lat="42.28770905130388" lon="19.797357200448"><ele>319.0</ele><time>2026-05-03T11:43:47.999Z</time></trkpt><trkpt lat="42.28780984221374" lon="19.797263510249"><ele>319.0</ele><time>2026-05-03T11:43:48.999Z</time></trkpt><trkpt lat="42.287924742211075" lon="19.79719230102014"><ele>319.0</ele><time>2026-05-03T11:43:49.999Z</time></trkpt><trkpt lat="42.28805404338748" lon="19.79715265526079"><ele>319.0</ele><time>2026-05-03T11:43:50.999Z</time></trkpt><trkpt lat="42.28819452750904" lon="19.797126788520774"><ele>319.0</ele><time>2026-05-03T11:43:51.999Z</time></trkpt><trkpt lat="42.2883379214628" lon="19.797103665930717"><ele>323.25</ele><time>2026-05-03T11:43:52.999Z</time></trkpt><trkpt lat="42.28849047054595" lon="19.7970725873079"><ele>327.5</ele><time>2026-05-03T11:43:53.999Z</time></trkpt><trkpt lat="42.288613815863656" lon="19.79705655867954"><ele>331.75</ele><time>2026-05-03T11:43:54.999Z</time></trkpt><trkpt lat="42.28871134466121" lon="19.7970491708788"><ele>336.0</ele><time>2026-05-03T11:43:55.999Z</time></trkpt><trkpt lat="42.28882498744171" lon="19.797094369605347"><ele>336.0</ele><time>2026-05-03T11:43:57.999Z</time></trkpt><trkpt lat="42.288885009730336" lon="19.797139744529"><ele>336.0</ele><time>2026-05-03T11:43:58.999Z</time></trkpt><trkpt lat="42.28896107751055" lon="19.797158360830807"><ele>336.0</ele><time>2026-05-03T11:43:59.999Z</time></trkpt><trkpt lat="42.28904645708747" lon="19.797138959079213"><ele>336.0</ele><time>2026-05-03T11:44:00.999Z</time></trkpt><trkpt lat="42.28915885171829" lon="19.797105688619645"><ele>336.0</ele><time>2026-05-03T11:44:01.999Z</time></trkpt><trkpt lat="42.28927832827419" lon="19.797058974537716"><ele>332.5</ele><time>2026-05-03T11:44:02.999Z</time></trkpt><trkpt lat="42.2893946273413" lon="19.7969791568223"><ele>329.0</ele><time>2026-05-03T11:44:03.999Z</time></trkpt><trkpt lat="42.28950899112355" lon="19.796899285735392"><ele>325.5</ele><time>2026-05-03T11:44:04.999Z</time></trkpt><trkpt lat="42.28964538723896" lon="19.796780731042755"><ele>322.0</ele><time>2026-05-03T11:44:05.999Z</time></trkpt><trkpt lat="42.28977558016984" lon="19.796679382550263"><ele>322.0</ele><time>2026-05-03T11:44:06.999Z</time></trkpt><trkpt lat="42.289885174278496" lon="19.796608830738844"><ele>322.0</ele><time>2026-05-03T11:44:07.999Z</time></trkpt><trkpt lat="42.29002495119314" lon="19.796559564745813"><ele>322.0</ele><time>2026-05-03T11:44:08.999Z</time></trkpt><trkpt lat="42.29018610257272" lon="19.796519912761244"><ele>322.0</ele><time>2026-05-03T11:44:09.999Z</time></trkpt><trkpt lat="42.29033763004504" lon="19.796469747450665"><ele>322.0</ele><time>2026-05-03T11:44:10.999Z</time></trkpt><trkpt lat="42.29049861339333" lon="19.796421154520246"><ele>322.0</ele><time>2026-05-03T11:44:11.999Z</time></trkpt><trkpt lat="42.29061702544178" lon="19.796387563639303"><ele>322.0</ele><time>2026-05-03T11:44:13Z</time></trkpt><trkpt lat="42.290721697185184" lon="19.796364683511236"><ele>322.0</ele><time>2026-05-03T11:44:14Z</time></trkpt><trkpt lat="42.2908432524672" lon="19.796358837041886"><ele>325.0</ele><time>2026-05-03T11:44:15Z</time></trkpt><trkpt lat="42.290990983180286" lon="19.796381624576693"><ele>328.0</ele><time>2026-05-03T11:44:16Z</time></trkpt><trkpt lat="42.29115606881407" lon="19.796426047449696"><ele>331.0</ele><time>2026-05-03T11:44:17Z</time></trkpt><trkpt lat="42.29133414070629" lon="19.796472739305585"><ele>330.3333333333333</ele><time>2026-05-03T11:44:18Z</time></trkpt><trkpt lat="42.29151383845843" lon="19.796523724866038"><ele>329.6666666666667</ele><time>2026-05-03T11:44:19Z</time></trkpt><trkpt lat="42.29170028493247" lon="19.796557327330422"><ele>329.0</ele><time>2026-05-03T11:44:20Z</time></trkpt><trkpt lat="42.29188456257432" lon="19.79656623091001"><ele>329.0</ele><time>2026-05-03T11:44:21Z</time></trkpt><trkpt lat="42.292059857437145" lon="19.796561435433276"><ele>329.0</ele><time>2026-05-03T11:44:22Z</time></trkpt><trkpt lat="42.29220322183746" lon="19.796566794044914"><ele>329.0</ele><time>2026-05-03T11:44:23Z</time></trkpt><trkpt lat="42.292314774853935" lon="19.796584261072937"><ele>329.0</ele><time>2026-05-03T11:44:24Z</time></trkpt><trkpt lat="42.29241185346123" lon="19.796585360306615"><ele>333.79999999999995</ele><time>2026-05-03T11:44:25Z</time></trkpt><trkpt lat="42.29248830864865" lon="19.796548309305187"><ele>338.59999999999997</ele><time>2026-05-03T11:44:26Z</time></trkpt><trkpt lat="42.292550276724064" lon="19.796483790780282"><ele>343.4</ele><time>2026-05-03T11:44:27Z</time></trkpt><trkpt lat="42.29261876217972" lon="19.796362910525062"><ele>348.2</ele><time>2026-05-03T11:44:28Z</time></trkpt><trkpt lat="42.292697934169865" lon="19.796267832231635"><ele>353.0</ele><time>2026-05-03T11:44:29Z</time></trkpt><trkpt lat="42.292789192845866" lon="19.796221933827752"><ele>353.0</ele><time>2026-05-03T11:44:30Z</time></trkpt><trkpt lat="42.29288896102077" lon="19.796207450593343"><ele>353.0</ele><time>2026-05-03T11:44:31Z</time></trkpt><trkpt lat="42.29300664699431" lon="19.796218273608222"><ele>353.0</ele><time>2026-05-03T11:44:32Z</time></trkpt><trkpt lat="42.29314349319189" lon="19.796256782118114"><ele>353.0</ele><time>2026-05-03T11:44:33Z</time></trkpt><trkpt lat="42.29328278089216" lon="19.79629822156858"><ele>360.0</ele><time>2026-05-03T11:44:34Z</time></trkpt><trkpt lat="42.29341687957028" lon="19.796334590846044"><ele>367.0</ele><time>2026-05-03T11:44:35Z</time></trkpt><trkpt lat="42.293543455499055" lon="19.79635852551022"><ele>374.0</ele><time>2026-05-03T11:44:36Z</time></trkpt><trkpt lat="42.29364242013087" lon="19.796352660726374"><ele>381.0</ele><time>2026-05-03T11:44:37Z</time></trkpt><trkpt lat="42.293736452392196" lon="19.79631458230508"><ele>381.0</ele><time>2026-05-03T11:44:38Z</time></trkpt><trkpt lat="42.29383110777524" lon="19.796239047293998"><ele>381.0</ele><time>2026-05-03T11:44:39Z</time></trkpt><trkpt lat="42.2939287273151" lon="19.796163270833535"><ele>381.0</ele><time>2026-05-03T11:44:40Z</time></trkpt><trkpt lat="42.29404611828623" lon="19.796075252127306"><ele>381.0</ele><time>2026-05-03T11:44:41Z</time></trkpt><trkpt lat="42.2941375898088" lon="19.79601712169221"><ele>375.6</ele><time>2026-05-03T11:44:42Z</time></trkpt><trkpt lat="42.29421010096765" lon="19.795982813303997"><ele>370.20000000000005</ele><time>2026-05-03T11:44:43Z</time></trkpt><trkpt lat="42.294297079475136" lon="19.796011260072753"><ele>364.79999999999995</ele><time>2026-05-03T11:44:45Z</time></trkpt><trkpt lat="42.29434252215188" lon="19.79607503708133"><ele>359.4</ele><time>2026-05-03T11:44:46Z</time></trkpt><trkpt lat="42.29439733093977" lon="19.796189410756828"><ele>354.0</ele><time>2026-05-03T11:44:47Z</time></trkpt><trkpt lat="42.29445006077655" lon="19.79633206463066"><ele>354.0</ele><time>2026-05-03T11:44:48Z</time></trkpt><trkpt lat="42.294516689094614" lon="19.796479628862592"><ele>354.0</ele><time>2026-05-03T11:44:49Z</time></trkpt><trkpt lat="42.29459812882328" lon="19.796622137368825"><ele>354.0</ele><time>2026-05-03T11:44:50Z</time></trkpt><trkpt lat="42.29463963656172" lon="19.796760721576575"><ele>354.0</ele><time>2026-05-03T11:44:51Z</time></trkpt><trkpt lat="42.29465386164626" lon="19.796933149248872"><ele>355.2</ele><time>2026-05-03T11:44:52Z</time></trkpt><trkpt lat="42.294657799305725" lon="19.797074092646287"><ele>356.4</ele><time>2026-05-03T11:44:53Z</time></trkpt><trkpt lat="42.29467129575197" lon="19.797162932456203"><ele>357.6</ele><time>2026-05-03T11:44:54Z</time></trkpt><trkpt lat="42.29473934462162" lon="19.797226872186993"><ele>358.8</ele><time>2026-05-03T11:44:56Z</time></trkpt><trkpt lat="42.29485301952386" lon="19.797189725970533"><ele>360.0</ele><time>2026-05-03T11:44:58Z</time></trkpt><trkpt lat="42.29492643740932" lon="19.7971332088461"><ele>360.0</ele><time>2026-05-03T11:44:59Z</time></trkpt><trkpt lat="42.29499881518514" lon="19.797031490810408"><ele>360.0</ele><time>2026-05-03T11:45:00Z</time></trkpt><trkpt lat="42.2950789191421" lon="19.796894293221733"><ele>360.0</ele><time>2026-05-03T11:45:01Z</time></trkpt><trkpt lat="42.29515659960262" lon="19.796714904543812"><ele>360.0</ele><time>2026-05-03T11:45:02Z</time></trkpt><trkpt lat="42.29522652617305" lon="19.796517835408302"><ele>356.0</ele><time>2026-05-03T11:45:03Z</time></trkpt><trkpt lat="42.29529302372012" lon="19.796319933680724"><ele>352.0</ele><time>2026-05-03T11:45:03.999Z</time></trkpt><trkpt lat="42.295341040050765" lon="19.79619479438157"><ele>348.0</ele><time>2026-05-03T11:45:04.999Z</time></trkpt><trkpt lat="42.29541128410001" lon="19.79613533409231"><ele>344.0</ele><time>2026-05-03T11:45:06.999Z</time></trkpt><trkpt lat="42.29555814755321" lon="19.79619789244613"><ele>346.5</ele><time>2026-05-03T11:45:08.999Z</time></trkpt><trkpt lat="42.295664062876824" lon="19.796240401927847"><ele>349.0</ele><time>2026-05-03T11:45:09.999Z</time></trkpt><trkpt lat="42.295790770640146" lon="19.796236162310116"><ele>351.5</ele><time>2026-05-03T11:45:10.999Z</time></trkpt><trkpt lat="42.29592772874877" lon="19.79620971624993"><ele>354.0</ele><time>2026-05-03T11:45:11.999Z</time></trkpt><trkpt lat="42.296071078537054" lon="19.796195546763254"><ele>354.0</ele><time>2026-05-03T11:45:12.999Z</time></trkpt><trkpt lat="42.29623021273935" lon="19.796156316975125"><ele>354.0</ele><time>2026-05-03T11:45:13.999Z</time></trkpt><trkpt lat="42.29638230847143" lon="19.796082881275144"><ele>354.0</ele><time>2026-05-03T11:45:14.999Z</time></trkpt><trkpt lat="42.29649507893353" lon="19.796014027763928"><ele>354.0</ele><time>2026-05-03T11:45:15.999Z</time></trkpt><trkpt lat="42.296587522861884" lon="19.795974777161874"><ele>351.5</ele><time>2026-05-03T11:45:16.999Z</time></trkpt><trkpt lat="42.29669620445047" lon="19.795994048527863"><ele>349.0</ele><time>2026-05-03T11:45:17.999Z</time></trkpt><trkpt lat="42.29684110334498" lon="19.796046274087868"><ele>346.5</ele><time>2026-05-03T11:45:18.999Z</time></trkpt><trkpt lat="42.2970085614964" lon="19.796086226442046"><ele>344.0</ele><time>2026-05-03T11:45:19.999Z</time></trkpt><trkpt lat="42.297190766440195" lon="19.796114080705248"><ele>354.6666666666667</ele><time>2026-05-03T11:45:20.999Z</time></trkpt><trkpt lat="42.297378617846405" lon="19.796114444701207"><ele>365.3333333333333</ele><time>2026-05-03T11:45:21.999Z</time></trkpt><trkpt lat="42.297537343632584" lon="19.796123777648816"><ele>376.0</ele><time>2026-05-03T11:45:22.999Z</time></trkpt><trkpt lat="42.29768702869946" lon="19.79616307462827"><ele>376.0</ele><time>2026-05-03T11:45:23.999Z</time></trkpt><trkpt lat="42.29780829556725" lon="19.79622451733739"><ele>376.0</ele><time>2026-05-03T11:45:24.999Z</time></trkpt><trkpt lat="42.29793108137952" lon="19.79630114087313"><ele>376.0</ele><time>2026-05-03T11:45:25.999Z</time></trkpt><trkpt lat="42.298081341656896" lon="19.796351225566337"><ele>376.0</ele><time>2026-05-03T11:45:26.999Z</time></trkpt><trkpt lat="42.298234031850605" lon="19.796370378682987"><ele>374.25</ele><time>2026-05-03T11:45:27.999Z</time></trkpt><trkpt lat="42.29837589278494" lon="19.796396815795468"><ele>372.5</ele><time>2026-05-03T11:45:28.999Z</time></trkpt><trkpt lat="42.29851584537144" lon="19.79646159242317"><ele>370.75</ele><time>2026-05-03T11:45:29.999Z</time></trkpt><trkpt lat="42.2986378714445" lon="19.796539219630645"><ele>369.0</ele><time>2026-05-03T11:45:30.999Z</time></trkpt><trkpt lat="42.29877458273073" lon="19.79656954079521"><ele>367.75</ele><time>2026-05-03T11:45:31.999Z</time></trkpt><trkpt lat="42.29892854197594" lon="19.796581274097974"><ele>366.5</ele><time>2026-05-03T11:45:32.999Z</time></trkpt><trkpt lat="42.299080578677774" lon="19.796577850661063"><ele>365.25</ele><time>2026-05-03T11:45:33.999Z</time></trkpt><trkpt lat="42.299223236863845" lon="19.79656030714748"><ele>364.0</ele><time>2026-05-03T11:45:34.999Z</time></trkpt><trkpt lat="42.29932839480553" lon="19.79652570940525"><ele>364.0</ele><time>2026-05-03T11:45:35.999Z</time></trkpt><trkpt lat="42.299420252781054" lon="19.79646294245429"><ele>364.0</ele><time>2026-05-03T11:45:36.999Z</time></trkpt><trkpt lat="42.29950051573842" lon="19.796434109398852"><ele>364.0</ele><time>2026-05-03T11:45:37.999Z</time></trkpt><trkpt lat="42.29958308876185" lon="19.79645294016759"><ele>364.0</ele><time>2026-05-03T11:45:38.999Z</time></trkpt><trkpt lat="42.29968992183639" lon="19.79652238199013"><ele>364.0</ele><time>2026-05-03T11:45:39.999Z</time></trkpt><trkpt lat="42.29980275414129" lon="19.79662146833488"><ele>360.66666666666663</ele><time>2026-05-03T11:45:40.999Z</time></trkpt><trkpt lat="42.29991129512534" lon="19.79676883595014"><ele>357.3333333333333</ele><time>2026-05-03T11:45:41.999Z</time></trkpt><trkpt lat="42.300025885353904" lon="19.796921188415283"><ele>354.0</ele><time>2026-05-03T11:45:42.999Z</time></trkpt><trkpt lat="42.30014161706459" lon="19.797024608445316"><ele>361.3333333333333</ele><time>2026-05-03T11:45:43.999Z</time></trkpt><trkpt lat="42.300284338183054" lon="19.797087847583164"><ele>368.66666666666663</ele><time>2026-05-03T11:45:44.999Z</time></trkpt><trkpt lat="42.30044251061823" lon="19.797136004091172"><ele>376.0</ele><time>2026-05-03T11:45:45.999Z</time></trkpt><trkpt lat="42.30059571234932" lon="19.797200023668264"><ele>376.0</ele><time>2026-05-03T11:45:46.999Z</time></trkpt><trkpt lat="42.300751930216556" lon="19.79724909650481"><ele>376.0</ele><time>2026-05-03T11:45:47.999Z</time></trkpt><trkpt lat="42.300892527758734" lon="19.79728309663941"><ele>376.0</ele><time>2026-05-03T11:45:48.999Z</time></trkpt><trkpt lat="42.301021833861036" lon="19.797332501831274"><ele>376.0</ele><time>2026-05-03T11:45:49.999Z</time></trkpt><trkpt lat="42.30115400010305" lon="19.797373009691043"><ele>376.0</ele><time>2026-05-03T11:45:50.999Z</time></trkpt><trkpt lat="42.30123295656558" lon="19.79735892631414"><ele>376.0</ele><time>2026-05-03T11:45:51.999Z</time></trkpt><trkpt lat="42.3013116992664" lon="19.797314186032573"><ele>376.0</ele><time>2026-05-03T11:45:52.999Z</time></trkpt><trkpt lat="42.30140482584124" lon="19.797217577666245"><ele>376.0</ele><time>2026-05-03T11:45:53.999Z</time></trkpt><trkpt lat="42.3014990541727" lon="19.797098976153396"><ele>376.0</ele><time>2026-05-03T11:45:54.999Z</time></trkpt><trkpt lat="42.30161255174834" lon="19.79697734471475"><ele>375.6</ele><time>2026-05-03T11:45:55.999Z</time></trkpt><trkpt lat="42.30172751304809" lon="19.796925924204157"><ele>375.20000000000005</ele><time>2026-05-03T11:45:56.999Z</time></trkpt><trkpt lat="42.301822868050955" lon="19.79691983627261"><ele>374.79999999999995</ele><time>2026-05-03T11:45:57.999Z</time></trkpt><trkpt lat="42.30193948351991" lon="19.797005770597227"><ele>374.4</ele><time>2026-05-03T11:45:59.999Z</time></trkpt><trkpt lat="42.301995731569384" lon="19.79709422328542"><ele>374.0</ele><time>2026-05-03T11:46:00.999Z</time></trkpt><trkpt lat="42.30212906099115" lon="19.797096529994878"><ele>374.0</ele><time>2026-05-03T11:46:02.999Z</time></trkpt><trkpt lat="42.3022376937233" lon="19.79704314128007"><ele>374.0</ele><time>2026-05-03T11:46:03.999Z</time></trkpt><trkpt lat="42.3023269540868" lon="19.79701910182948"><ele>374.0</ele><time>2026-05-03T11:46:04.999Z</time></trkpt><trkpt lat="42.302409012279604" lon="19.797064798951755"><ele>374.0</ele><time>2026-05-03T11:46:05.999Z</time></trkpt><trkpt lat="42.3025035890285" lon="19.79716344329536"><ele>374.0</ele><time>2026-05-03T11:46:06.999Z</time></trkpt><trkpt lat="42.30261808708007" lon="19.79729185423345"><ele>372.79999999999995</ele><time>2026-05-03T11:46:07.999Z</time></trkpt><trkpt lat="42.30274674770445" lon="19.797389306006004"><ele>371.59999999999997</ele><time>2026-05-03T11:46:08.999Z</time></trkpt><trkpt lat="42.302823988495966" lon="19.797442515264184"><ele>370.4</ele><time>2026-05-03T11:46:09.999Z</time></trkpt><trkpt lat="42.302894147418506" lon="19.7974629695644"><ele>369.2</ele><time>2026-05-03T11:46:10.999Z</time></trkpt><trkpt lat="42.302972751156155" lon="19.797453676648882"><ele>368.0</ele><time>2026-05-03T11:46:11.999Z</time></trkpt><trkpt lat="42.303061605835914" lon="19.7973976176173"><ele>364.5</ele><time>2026-05-03T11:46:12.999Z</time></trkpt><trkpt lat="42.30316434251544" lon="19.797312763997375"><ele>361.0</ele><time>2026-05-03T11:46:13.999Z</time></trkpt><trkpt lat="42.30328115252324" lon="19.797230192956132"><ele>357.5</ele><time>2026-05-03T11:46:14.999Z</time></trkpt><trkpt lat="42.30341736183667" lon="19.797171725666846"><ele>354.0</ele><time>2026-05-03T11:46:15.999Z</time></trkpt><trkpt lat="42.30353212372018" lon="19.797119013201044"><ele>354.0</ele><time>2026-05-03T11:46:16.999Z</time></trkpt><trkpt lat="42.303623659314994" lon="19.797060687081547"><ele>354.0</ele><time>2026-05-03T11:46:17.999Z</time></trkpt><trkpt lat="42.30369436056161" lon="19.797005819261496"><ele>354.0</ele><time>2026-05-03T11:46:19Z</time></trkpt><trkpt lat="42.30374670421048" lon="19.796936898936213"><ele>354.0</ele><time>2026-05-03T11:46:20Z</time></trkpt><trkpt lat="42.30378909187516" lon="19.796855120111793"><ele>354.0</ele><time>2026-05-03T11:46:21Z</time></trkpt><trkpt lat="42.303864226047374" lon="19.796790900621513"><ele>354.0</ele><time>2026-05-03T11:46:23Z</time></trkpt><trkpt lat="42.30395751129988" lon="19.796834273951948"><ele>354.5</ele><time>2026-05-03T11:46:25Z</time></trkpt><trkpt lat="42.30404847613569" lon="19.796889223203163"><ele>355.0</ele><time>2026-05-03T11:46:27Z</time></trkpt><trkpt lat="42.30412717885535" lon="19.796903748074076"><ele>355.5</ele><time>2026-05-03T11:46:29Z</time></trkpt><trkpt lat="42.30422502718413" lon="19.79692012263257"><ele>356.0</ele><time>2026-05-03T11:46:31Z</time></trkpt><trkpt lat="42.30429618426838" lon="19.796929262543983"><ele>356.5</ele><time>2026-05-03T11:46:32Z</time></trkpt><trkpt lat="42.304371309996725" lon="19.796937620734035"><ele>357.0</ele><time>2026-05-03T11:46:33Z</time></trkpt><trkpt lat="42.30443853576906" lon="19.796942136531346"><ele>357.0</ele><time>2026-05-03T11:46:34Z</time></trkpt><trkpt lat="42.30451612026914" lon="19.796929723483462"><ele>357.0</ele><time>2026-05-03T11:46:35Z</time></trkpt><trkpt lat="42.30458669447142" lon="19.796908012059244"><ele>357.0</ele><time>2026-05-03T11:46:36Z</time></trkpt><trkpt lat="42.30466043785192" lon="19.796892178473378"><ele>357.0</ele><time>2026-05-03T11:46:37Z</time></trkpt><trkpt lat="42.30473525739668" lon="19.796871059330712"><ele>357.0</ele><time>2026-05-03T11:46:38Z</time></trkpt><trkpt lat="42.30480755028821" lon="19.796849218901126"><ele>357.0</ele><time>2026-05-03T11:46:39Z</time></trkpt><trkpt lat="42.30487824488539" lon="19.796829175235963"><ele>357.0</ele><time>2026-05-03T11:46:40Z</time></trkpt><trkpt lat="42.304947715741555" lon="19.796807784113895"><ele>355.3333333333333</ele><time>2026-05-03T11:46:41Z</time></trkpt><trkpt lat="42.30502020253117" lon="19.79678656579374"><ele>353.6666666666667</ele><time>2026-05-03T11:46:42Z</time></trkpt><trkpt lat="42.30509662737007" lon="19.796764994232888"><ele>352.0</ele><time>2026-05-03T11:46:43Z</time></trkpt><trkpt lat="42.305166872603586" lon="19.796745298383776"><ele>350.33333333333337</ele><time>2026-05-03T11:46:44Z</time></trkpt><trkpt lat="42.3052498016927" lon="19.796702989695277"><ele>348.6666666666667</ele><time>2026-05-03T11:46:45Z</time></trkpt><trkpt lat="42.305324817853126" lon="19.796659173578668"><ele>347.0</ele><time>2026-05-03T11:46:46Z</time></trkpt><trkpt lat="42.30539580139503" lon="19.7966224912025"><ele>347.0</ele><time>2026-05-03T11:46:47Z</time></trkpt><trkpt lat="42.30546953155499" lon="19.796590516064224"><ele>347.0</ele><time>2026-05-03T11:46:48Z</time></trkpt><trkpt lat="42.30554478200912" lon="19.796551845732253"><ele>347.0</ele><time>2026-05-03T11:46:49Z</time></trkpt><trkpt lat="42.30561645309462" lon="19.796503867368042"><ele>347.0</ele><time>2026-05-03T11:46:50Z</time></trkpt><trkpt lat="42.30570105552235" lon="19.796442139426055"><ele>347.0</ele><time>2026-05-03T11:46:51Z</time></trkpt><trkpt lat="42.30577834649574" lon="19.796389282322234"><ele>347.0</ele><time>2026-05-03T11:46:52Z</time></trkpt><trkpt lat="42.305847500362" lon="19.796340555360885"><ele>348.0</ele><time>2026-05-03T11:46:53Z</time></trkpt><trkpt lat="42.30591017753163" lon="19.79630008904108"><ele>349.0</ele><time>2026-05-03T11:46:54Z</time></trkpt><trkpt lat="42.305978809728316" lon="19.79624822313537"><ele>350.0</ele><time>2026-05-03T11:46:55Z</time></trkpt><trkpt lat="42.30606019413579" lon="19.796196179270854"><ele>351.0</ele><time>2026-05-03T11:46:56Z</time></trkpt><trkpt lat="42.30614835587991" lon="19.796145300677324"><ele>352.0</ele><time>2026-05-03T11:46:57Z</time></trkpt><trkpt lat="42.30622596551557" lon="19.79609989485171"><ele>353.0</ele><time>2026-05-03T11:46:58Z</time></trkpt><trkpt lat="42.30630043710596" lon="19.796037019016996"><ele>351.59999999999997</ele><time>2026-05-03T11:46:59Z</time></trkpt><trkpt lat="42.30637839489619" lon="19.795958303449325"><ele>350.2</ele><time>2026-05-03T11:47:00Z</time></trkpt><trkpt lat="42.30645204559245" lon="19.795869111785834"><ele>348.8</ele><time>2026-05-03T11:47:01Z</time></trkpt><trkpt lat="42.306536644824966" lon="19.79577075958464"><ele>347.4</ele><time>2026-05-03T11:47:02Z</time></trkpt><trkpt lat="42.30662945129552" lon="19.79567986203182"><ele>346.0</ele><time>2026-05-03T11:47:03Z</time></trkpt><trkpt lat="42.30673816509366" lon="19.79557686431378"><ele>346.0</ele><time>2026-05-03T11:47:04Z</time></trkpt><trkpt lat="42.30685250567961" lon="19.795473213741875"><ele>346.0</ele><time>2026-05-03T11:47:05Z</time></trkpt><trkpt lat="42.30697158932161" lon="19.795356470632207"><ele>346.0</ele><time>2026-05-03T11:47:06Z</time></trkpt><trkpt lat="42.30711584637104" lon="19.795236529566097"><ele>346.0</ele><time>2026-05-03T11:47:07Z</time></trkpt><trkpt lat="42.30727429826579" lon="19.795137805009237"><ele>346.0</ele><time>2026-05-03T11:47:08Z</time></trkpt><trkpt lat="42.307430880867884" lon="19.795059996133553"><ele>346.0</ele><time>2026-05-03T11:47:09Z</time></trkpt><trkpt lat="42.30759893747154" lon="19.79500105057255"><ele>346.0</ele><time>2026-05-03T11:47:10Z</time></trkpt><trkpt lat="42.30775374960619" lon="19.794970121866918"><ele>346.0</ele><time>2026-05-03T11:47:11Z</time></trkpt><trkpt lat="42.307899219879765" lon="19.794957798221905"><ele>346.0</ele><time>2026-05-03T11:47:12Z</time></trkpt><trkpt lat="42.30803447343593" lon="19.794914762040147"><ele>346.0</ele><time>2026-05-03T11:47:13Z</time></trkpt><trkpt lat="42.308175221792695" lon="19.7948328432017"><ele>349.3333333333333</ele><time>2026-05-03T11:47:14Z</time></trkpt><trkpt lat="42.30832642986071" lon="19.79472798224584"><ele>352.6666666666667</ele><time>2026-05-03T11:47:15Z</time></trkpt><trkpt lat="42.30847577443351" lon="19.794607113438047"><ele>356.0</ele><time>2026-05-03T11:47:16Z</time></trkpt><trkpt lat="42.30864386552666" lon="19.794463426151097"><ele>355.33333333333337</ele><time>2026-05-03T11:47:17Z</time></trkpt><trkpt lat="42.30881055697098" lon="19.79433123890561"><ele>354.6666666666667</ele><time>2026-05-03T11:47:18Z</time></trkpt><trkpt lat="42.30893380581288" lon="19.794224662334578"><ele>354.0</ele><time>2026-05-03T11:47:19Z</time></trkpt><trkpt lat="42.30904264875491" lon="19.794104026823323"><ele>354.0</ele><time>2026-05-03T11:47:20Z</time></trkpt><trkpt lat="42.30911735313048" lon="19.793987640399592"><ele>354.0</ele><time>2026-05-03T11:47:21Z</time></trkpt><trkpt lat="42.30919539111132" lon="19.793882379224147"><ele>354.0</ele><time>2026-05-03T11:47:22Z</time></trkpt><trkpt lat="42.309274636694" lon="19.793807475049896"><ele>354.0</ele><time>2026-05-03T11:47:23Z</time></trkpt><trkpt lat="42.30934893955428" lon="19.79377298609372"><ele>354.0</ele><time>2026-05-03T11:47:24Z</time></trkpt><trkpt lat="42.30944378294233" lon="19.793728444466606"><ele>354.0</ele><time>2026-05-03T11:47:26Z</time></trkpt><trkpt lat="42.30946615068894" lon="19.793620354472974"><ele>354.0</ele><time>2026-05-03T11:47:37Z</time></trkpt><trkpt lat="42.30946642492301" lon="19.79350647569024"><ele>354.0</ele><time>2026-05-03T11:47:40Z</time></trkpt><trkpt lat="42.30946377468529" lon="19.793411472994432"><ele>354.0</ele><time>2026-05-03T11:47:51Z</time></trkpt><trkpt lat="42.30946195491671" lon="19.79332461456683"><ele>354.0</ele><time>2026-05-03T11:47:53Z</time></trkpt><trkpt lat="42.30946133395952" lon="19.793218061449625"><ele>354.0</ele><time>2026-05-03T11:47:55Z</time></trkpt><trkpt lat="42.30945778679665" lon="19.793096965456662"><ele>353.6666666666667</ele><time>2026-05-03T11:47:56.999Z</time></trkpt><trkpt lat="42.30945372789902" lon="19.792962423136643"><ele>353.3333333333333</ele><time>2026-05-03T11:47:58.999Z</time></trkpt><trkpt lat="42.30937837051352" lon="19.79293449314983"><ele>353.0</ele><time>2026-05-03T11:48:04.999Z</time></trkpt><trkpt lat="42.309299174994926" lon="19.793013680508317"><ele>352.66666666666663</ele><time>2026-05-03T11:48:06.999Z</time></trkpt><trkpt lat="42.30923187772238" lon="19.793053496712822"><ele>352.3333333333333</ele><time>2026-05-03T11:48:08.999Z</time></trkpt><trkpt lat="42.30930629497759" lon="19.79299432670877"><ele>352.0</ele><time>2026-05-03T11:48:18.999Z</time></trkpt><trkpt lat="42.30937909987157" lon="19.79294893485772"><ele>352.0</ele><time>2026-05-03T11:48:20.999Z</time></trkpt><trkpt lat="42.309447404378744" lon="19.792912013079363"><ele>352.0</ele><time>2026-05-03T11:48:22.999Z</time></trkpt><trkpt lat="42.309464232817405" lon="19.79299881396367"><ele>352.0</ele><time>2026-05-03T11:48:47Z</time></trkpt><trkpt lat="42.3094703260266" lon="19.793087401831013"><ele>352.0</ele><time>2026-05-03T11:48:51Z</time></trkpt><trkpt lat="42.30947122281073" lon="19.793204771618598"><ele>352.0</ele><time>2026-05-03T11:48:54Z</time></trkpt><trkpt lat="42.309471732494146" lon="19.793336860293415"><ele>352.0</ele><time>2026-05-03T11:48:57Z</time></trkpt><trkpt lat="42.309473648939154" lon="19.79345048591761"><ele>352.3333333333333</ele><time>2026-05-03T11:48:59Z</time></trkpt><trkpt lat="42.30947912050617" lon="19.793575427253096"><ele>352.66666666666663</ele><time>2026-05-03T11:49:01Z</time></trkpt><trkpt lat="42.30946448028611" lon="19.793686655135673"><ele>353.0</ele><time>2026-05-03T11:49:03Z</time></trkpt><trkpt lat="42.309482083640034" lon="19.79379230559295"><ele>353.3333333333333</ele><time>2026-05-03T11:50:46Z</time></trkpt><trkpt lat="42.30957801130222" lon="19.793859474919454"><ele>353.6666666666667</ele><time>2026-05-03T11:50:48Z</time></trkpt><trkpt lat="42.309647530265806" lon="19.793890128920474"><ele>354.0</ele><time>2026-05-03T11:50:49Z</time></trkpt><trkpt lat="42.30971702152163" lon="19.79393303788509"><ele>354.3333333333333</ele><time>2026-05-03T11:50:50Z</time></trkpt><trkpt lat="42.309778307332124" lon="19.793995250643643"><ele>354.6666666666667</ele><time>2026-05-03T11:50:51Z</time></trkpt><trkpt lat="42.30983902529022" lon="19.794056627675246"><ele>355.0</ele><time>2026-05-03T11:50:52Z</time></trkpt><trkpt lat="42.309908403781485" lon="19.794125184013215"><ele>355.33333333333337</ele><time>2026-05-03T11:50:53Z</time></trkpt><trkpt lat="42.30997266224299" lon="19.794183118688856"><ele>355.6666666666667</ele><time>2026-05-03T11:50:54Z</time></trkpt><trkpt lat="42.310038025045365" lon="19.79425119432259"><ele>356.0</ele><time>2026-05-03T11:50:55Z</time></trkpt><trkpt lat="42.31009742201435" lon="19.79433537837887"><ele>358.0</ele><time>2026-05-03T11:50:56Z</time></trkpt><trkpt lat="42.31012895452831" lon="19.794430504371096"><ele>360.0</ele><time>2026-05-03T11:50:57Z</time></trkpt><trkpt lat="42.31014592849609" lon="19.79454817734602"><ele>362.0</ele><time>2026-05-03T11:50:58Z</time></trkpt><trkpt lat="42.31014178575546" lon="19.79468173763497"><ele>364.0</ele><time>2026-05-03T11:50:58.999Z</time></trkpt><trkpt lat="42.31012338710897" lon="19.79483264371677"><ele>366.0</ele><time>2026-05-03T11:50:59.999Z</time></trkpt><trkpt lat="42.31010927724588" lon="19.79498274628366"><ele>366.0</ele><time>2026-05-03T11:51:00.999Z</time></trkpt><trkpt lat="42.31009898209963" lon="19.795139073618397"><ele>366.0</ele><time>2026-05-03T11:51:01.999Z</time></trkpt><trkpt lat="42.310099453429174" lon="19.795261818169067"><ele>366.0</ele><time>2026-05-03T11:51:02.999Z</time></trkpt><trkpt lat="42.31010323092997" lon="19.79538966211669"><ele>366.0</ele><time>2026-05-03T11:51:03.999Z</time></trkpt><trkpt lat="42.31011015918087" lon="19.795492249323893"><ele>366.0</ele><time>2026-05-03T11:51:04.999Z</time></trkpt><trkpt lat="42.31012896556447" lon="19.795583323797768"><ele>366.0</ele><time>2026-05-03T11:51:05.999Z</time></trkpt><trkpt lat="42.31017457303186" lon="19.79566750972114"><ele>366.8</ele><time>2026-05-03T11:51:06.999Z</time></trkpt><trkpt lat="42.31023603497689" lon="19.795724147683195"><ele>367.6</ele><time>2026-05-03T11:51:07.999Z</time></trkpt><trkpt lat="42.31032014655542" lon="19.795747785072052"><ele>368.4</ele><time>2026-05-03T11:51:08.999Z</time></trkpt><trkpt lat="42.31041841728691" lon="19.79573203829036"><ele>369.2</ele><time>2026-05-03T11:51:09.999Z</time></trkpt><trkpt lat="42.31051748593528" lon="19.795697228730813"><ele>370.0</ele><time>2026-05-03T11:51:10.999Z</time></trkpt><trkpt lat="42.31061120946569" lon="19.795634422244216"><ele>372.6</ele><time>2026-05-03T11:51:11.999Z</time></trkpt><trkpt lat="42.310702916078405" lon="19.79554653038619"><ele>375.2</ele><time>2026-05-03T11:51:12.999Z</time></trkpt><trkpt lat="42.310784106867274" lon="19.795425784389266"><ele>377.79999999999995</ele><time>2026-05-03T11:51:13.999Z</time></trkpt><trkpt lat="42.31085283587318" lon="19.795305396868525"><ele>380.4</ele><time>2026-05-03T11:51:14.999Z</time></trkpt><trkpt lat="42.31089683136445" lon="19.79523532473455"><ele>383.0</ele><time>2026-05-03T11:51:15.999Z</time></trkpt><trkpt lat="42.31103459944989" lon="19.795220998992747"><ele>383.0</ele><time>2026-05-03T11:51:17.999Z</time></trkpt><trkpt lat="42.31113900943989" lon="19.795244417388705"><ele>383.0</ele><time>2026-05-03T11:51:18.999Z</time></trkpt><trkpt lat="42.31124708545976" lon="19.795296708977062"><ele>383.0</ele><time>2026-05-03T11:51:19.999Z</time></trkpt><trkpt lat="42.311357547449504" lon="19.795393045092723"><ele>383.0</ele><time>2026-05-03T11:51:20.999Z</time></trkpt><trkpt lat="42.311478417989555" lon="19.79549833905981"><ele>383.4</ele><time>2026-05-03T11:51:21.999Z</time></trkpt><trkpt lat="42.3115854058878" lon="19.79559658183802"><ele>383.79999999999995</ele><time>2026-05-03T11:51:22.999Z</time></trkpt><trkpt lat="42.31166411486822" lon="19.79566930902405"><ele>384.2</ele><time>2026-05-03T11:51:23.999Z</time></trkpt><trkpt lat="42.311734655705095" lon="19.795718033457785"><ele>384.6</ele><time>2026-05-03T11:51:24.999Z</time></trkpt><trkpt lat="42.311799017909166" lon="19.795704166598732"><ele>385.0</ele><time>2026-05-03T11:51:25.999Z</time></trkpt><trkpt lat="42.31188168159477" lon="19.795650293212447"><ele>385.0</ele><time>2026-05-03T11:51:26.999Z</time></trkpt><trkpt lat="42.31200038870686" lon="19.79558901905065"><ele>385.0</ele><time>2026-05-03T11:51:27.999Z</time></trkpt><trkpt lat="42.31212341069963" lon="19.795558275156974"><ele>385.0</ele><time>2026-05-03T11:51:28.999Z</time></trkpt><trkpt lat="42.312265365298884" lon="19.79554862953189"><ele>385.0</ele><time>2026-05-03T11:51:29.999Z</time></trkpt><trkpt lat="42.31242666340419" lon="19.7955340658956"><ele>388.33333333333337</ele><time>2026-05-03T11:51:30.999Z</time></trkpt><trkpt lat="42.312587918051314" lon="19.795495042707053"><ele>391.66666666666663</ele><time>2026-05-03T11:51:31.999Z</time></trkpt><trkpt lat="42.3127613034455" lon="19.795431193523058"><ele>395.0</ele><time>2026-05-03T11:51:32.999Z</time></trkpt><trkpt lat="42.31292539285088" lon="19.795356760045728"><ele>395.0</ele><time>2026-05-03T11:51:33.999Z</time></trkpt><trkpt lat="42.31306386587529" lon="19.795283823830502"><ele>395.0</ele><time>2026-05-03T11:51:34.999Z</time></trkpt><trkpt lat="42.31318993281304" lon="19.795186495021866"><ele>395.0</ele><time>2026-05-03T11:51:35.999Z</time></trkpt><trkpt lat="42.31332649475221" lon="19.79506345376724"><ele>393.0</ele><time>2026-05-03T11:51:36.999Z</time></trkpt><trkpt lat="42.31344431904006" lon="19.794954059099215"><ele>391.0</ele><time>2026-05-03T11:51:37.999Z</time></trkpt><trkpt lat="42.313536097288164" lon="19.79488399565668"><ele>389.0</ele><time>2026-05-03T11:51:38.999Z</time></trkpt><trkpt lat="42.31363316258443" lon="19.79486134643285"><ele>387.0</ele><time>2026-05-03T11:51:39.999Z</time></trkpt><trkpt lat="42.313748175726666" lon="19.794843641178538"><ele>387.0</ele><time>2026-05-03T11:51:40.999Z</time></trkpt><trkpt lat="42.31386564941255" lon="19.79478674295358"><ele>387.0</ele><time>2026-05-03T11:51:41.999Z</time></trkpt><trkpt lat="42.31400573865932" lon="19.794699984003973"><ele>387.0</ele><time>2026-05-03T11:51:42.999Z</time></trkpt><trkpt lat="42.314134702383626" lon="19.79460113208145"><ele>387.0</ele><time>2026-05-03T11:51:43.999Z</time></trkpt><trkpt lat="42.31425911474573" lon="19.794470636021213"><ele>385.0</ele><time>2026-05-03T11:51:44.999Z</time></trkpt><trkpt lat="42.31438158459589" lon="19.794329630644523"><ele>383.0</ele><time>2026-05-03T11:51:45.999Z</time></trkpt><trkpt lat="42.314499489519" lon="19.794188147114305"><ele>381.0</ele><time>2026-05-03T11:51:46.999Z</time></trkpt><trkpt lat="42.314623499867885" lon="19.794034626304"><ele>394.0</ele><time>2026-05-03T11:51:47.999Z</time></trkpt><trkpt lat="42.314750518419025" lon="19.793878462701166"><ele>407.0</ele><time>2026-05-03T11:51:48.999Z</time></trkpt><trkpt lat="42.31488313903509" lon="19.79371985114621"><ele>420.0</ele><time>2026-05-03T11:51:49.999Z</time></trkpt><trkpt lat="42.31501179574234" lon="19.793562949851797"><ele>412.33333333333337</ele><time>2026-05-03T11:51:50.999Z</time></trkpt><trkpt lat="42.31514082788122" lon="19.793403124006133"><ele>404.6666666666667</ele><time>2026-05-03T11:51:51.999Z</time></trkpt><trkpt lat="42.31525681618347" lon="19.793248576190418"><ele>397.0</ele><time>2026-05-03T11:51:52.999Z</time></trkpt><trkpt lat="42.315355755178885" lon="19.793100644635487"><ele>397.0</ele><time>2026-05-03T11:51:53.999Z</time></trkpt><trkpt lat="42.31546407418757" lon="19.79296930536488"><ele>397.0</ele><time>2026-05-03T11:51:54.999Z</time></trkpt><trkpt lat="42.31558928763694" lon="19.79284185903369"><ele>397.0</ele><time>2026-05-03T11:51:55.999Z</time></trkpt><trkpt lat="42.315727198509656" lon="19.792685380927573"><ele>397.75</ele><time>2026-05-03T11:51:56.999Z</time></trkpt><trkpt lat="42.315841208458714" lon="19.792558507360532"><ele>398.5</ele><time>2026-05-03T11:51:57.999Z</time></trkpt><trkpt lat="42.31594341216431" lon="19.792460637279166"><ele>399.25</ele><time>2026-05-03T11:51:58.999Z</time></trkpt><trkpt lat="42.31602748029031" lon="19.792400827501144"><ele>400.0</ele><time>2026-05-03T11:51:59.999Z</time></trkpt><trkpt lat="42.316129806557186" lon="19.792380331143953"><ele>400.0</ele><time>2026-05-03T11:52:00.999Z</time></trkpt><trkpt lat="42.31622438171351" lon="19.79238676755519"><ele>400.0</ele><time>2026-05-03T11:52:01.999Z</time></trkpt><trkpt lat="42.31631196053115" lon="19.792316010698844"><ele>400.0</ele><time>2026-05-03T11:52:03.999Z</time></trkpt><trkpt lat="42.316346199173076" lon="19.79211132195462"><ele>400.0</ele><time>2026-05-03T11:52:05.999Z</time></trkpt><trkpt lat="42.316372322844074" lon="19.791972692387766"><ele>404.0</ele><time>2026-05-03T11:52:06.999Z</time></trkpt><trkpt lat="42.31643221763663" lon="19.79181691524333"><ele>408.0</ele><time>2026-05-03T11:52:07.999Z</time></trkpt><trkpt lat="42.31651137785091" lon="19.791684170559947"><ele>412.0</ele><time>2026-05-03T11:52:08.999Z</time></trkpt><trkpt lat="42.316594213305876" lon="19.791575667484857"><ele>416.0</ele><time>2026-05-03T11:52:09.999Z</time></trkpt><trkpt lat="42.31664687283611" lon="19.791468081188615"><ele>416.0</ele><time>2026-05-03T11:52:10.999Z</time></trkpt><trkpt lat="42.31667738719895" lon="19.791336866466274"><ele>416.0</ele><time>2026-05-03T11:52:11.999Z</time></trkpt><trkpt lat="42.31668340649631" lon="19.791188609330298"><ele>416.0</ele><time>2026-05-03T11:52:12.999Z</time></trkpt><trkpt lat="42.31667121867562" lon="19.791031712802013"><ele>416.0</ele><time>2026-05-03T11:52:13.999Z</time></trkpt><trkpt lat="42.31665324144656" lon="19.790867466652653"><ele>414.66666666666663</ele><time>2026-05-03T11:52:14.999Z</time></trkpt><trkpt lat="42.31665873652137" lon="19.790667025599824"><ele>413.33333333333337</ele><time>2026-05-03T11:52:15.999Z</time></trkpt><trkpt lat="42.31667361529602" lon="19.79045073014191"><ele>412.0</ele><time>2026-05-03T11:52:16.999Z</time></trkpt><trkpt lat="42.31670513830235" lon="19.790250154497393"><ele>411.75</ele><time>2026-05-03T11:52:17.999Z</time></trkpt><trkpt lat="42.3167409334227" lon="19.790081115771457"><ele>411.5</ele><time>2026-05-03T11:52:18.999Z</time></trkpt><trkpt lat="42.31679058507122" lon="19.7899589346029"><ele>411.25</ele><time>2026-05-03T11:52:19.999Z</time></trkpt><trkpt lat="42.31686502338959" lon="19.789863900723137"><ele>411.0</ele><time>2026-05-03T11:52:20.999Z</time></trkpt><trkpt lat="42.31696994765752" lon="19.78976819021331"><ele>411.0</ele><time>2026-05-03T11:52:21.999Z</time></trkpt><trkpt lat="42.31708372712389" lon="19.78967241161052"><ele>411.0</ele><time>2026-05-03T11:52:22.999Z</time></trkpt><trkpt lat="42.31715635432553" lon="19.78957435469662"><ele>411.0</ele><time>2026-05-03T11:52:23.999Z</time></trkpt><trkpt lat="42.31718755239875" lon="19.789478147240583"><ele>411.0</ele><time>2026-05-03T11:52:24.999Z</time></trkpt><trkpt lat="42.31718753449843" lon="19.789377203251576"><ele>411.0</ele><time>2026-05-03T11:52:25.999Z</time></trkpt><trkpt lat="42.31715415054692" lon="19.789246432489552"><ele>409.5</ele><time>2026-05-03T11:52:26.999Z</time></trkpt><trkpt lat="42.3171407955106" lon="19.789108662856012"><ele>408.0</ele><time>2026-05-03T11:52:27.999Z</time></trkpt><trkpt lat="42.31717459146728" lon="19.788965091010652"><ele>406.5</ele><time>2026-05-03T11:52:28.999Z</time></trkpt><trkpt lat="42.31724638971669" lon="19.788838047983475"><ele>405.0</ele><time>2026-05-03T11:52:29.999Z</time></trkpt><trkpt lat="42.317340213132724" lon="19.788728778016612"><ele>411.25</ele><time>2026-05-03T11:52:30.999Z</time></trkpt><trkpt lat="42.317444875456175" lon="19.788615661215264"><ele>417.5</ele><time>2026-05-03T11:52:31.999Z</time></trkpt><trkpt lat="42.31754536011464" lon="19.78849375303884"><ele>423.75</ele><time>2026-05-03T11:52:32.999Z</time></trkpt><trkpt lat="42.31765760109444" lon="19.788374713576278"><ele>430.0</ele><time>2026-05-03T11:52:33.999Z</time></trkpt><trkpt lat="42.317766029730855" lon="19.788245441284033"><ele>430.0</ele><time>2026-05-03T11:52:34.999Z</time></trkpt><trkpt lat="42.31788615870966" lon="19.788099495536603"><ele>430.0</ele><time>2026-05-03T11:52:36Z</time></trkpt><trkpt lat="42.31801476649705" lon="19.78797695576525"><ele>430.0</ele><time>2026-05-03T11:52:37Z</time></trkpt><trkpt lat="42.318164379235654" lon="19.78787423403758"><ele>430.5</ele><time>2026-05-03T11:52:38Z</time></trkpt><trkpt lat="42.318311478368805" lon="19.787801387004162"><ele>431.0</ele><time>2026-05-03T11:52:39Z</time></trkpt><trkpt lat="42.31842268498484" lon="19.787721384675223"><ele>431.5</ele><time>2026-05-03T11:52:40Z</time></trkpt><trkpt lat="42.31851673522761" lon="19.78762864433018"><ele>432.0</ele><time>2026-05-03T11:52:41Z</time></trkpt><trkpt lat="42.31859783322424" lon="19.787501913200828"><ele>432.0</ele><time>2026-05-03T11:52:42Z</time></trkpt><trkpt lat="42.31866240588532" lon="19.787366334284567"><ele>432.0</ele><time>2026-05-03T11:52:43Z</time></trkpt><trkpt lat="42.31873796437919" lon="19.7872128090733"><ele>432.0</ele><time>2026-05-03T11:52:44Z</time></trkpt><trkpt lat="42.31881788807086" lon="19.787083405045134"><ele>432.0</ele><time>2026-05-03T11:52:45Z</time></trkpt><trkpt lat="42.318895228009644" lon="19.786934156250876"><ele>437.0</ele><time>2026-05-03T11:52:46Z</time></trkpt><trkpt lat="42.31896648391195" lon="19.7867674523337"><ele>442.0</ele><time>2026-05-03T11:52:47Z</time></trkpt><trkpt lat="42.31904650681864" lon="19.786598420546408"><ele>447.0</ele><time>2026-05-03T11:52:48Z</time></trkpt><trkpt lat="42.3191328415151" lon="19.7864230636762"><ele>452.0</ele><time>2026-05-03T11:52:49Z</time></trkpt><trkpt lat="42.31922343740878" lon="19.78622898843871"><ele>452.0</ele><time>2026-05-03T11:52:50Z</time></trkpt><trkpt lat="42.31930981386818" lon="19.786015948910297"><ele>452.0</ele><time>2026-05-03T11:52:51Z</time></trkpt><trkpt lat="42.31938435384773" lon="19.78579278662073"><ele>452.0</ele><time>2026-05-03T11:52:52Z</time></trkpt><trkpt lat="42.31946262613414" lon="19.785581657670257"><ele>450.75</ele><time>2026-05-03T11:52:53Z</time></trkpt><trkpt lat="42.31952165978258" lon="19.785411890378334"><ele>449.5</ele><time>2026-05-03T11:52:54Z</time></trkpt><trkpt lat="42.31959274861679" lon="19.785268433079196"><ele>448.25</ele><time>2026-05-03T11:52:55Z</time></trkpt><trkpt lat="42.319670350934224" lon="19.78515019951073"><ele>447.0</ele><time>2026-05-03T11:52:56Z</time></trkpt><trkpt lat="42.319759723834004" lon="19.785036190608047"><ele>449.5</ele><time>2026-05-03T11:52:57Z</time></trkpt><trkpt lat="42.31987121245374" lon="19.784941869441965"><ele>452.0</ele><time>2026-05-03T11:52:58Z</time></trkpt><trkpt lat="42.32001537334432" lon="19.784843102753413"><ele>454.5</ele><time>2026-05-03T11:52:59Z</time></trkpt><trkpt lat="42.320160729474765" lon="19.784767562875597"><ele>457.0</ele><time>2026-05-03T11:53:00Z</time></trkpt><trkpt lat="42.32031256129404" lon="19.784676117643087"><ele>457.0</ele><time>2026-05-03T11:53:01Z</time></trkpt><trkpt lat="42.32044733826675" lon="19.784571435135742"><ele>457.0</ele><time>2026-05-03T11:53:02Z</time></trkpt><trkpt lat="42.320585715773575" lon="19.78446924846344"><ele>457.0</ele><time>2026-05-03T11:53:03Z</time></trkpt><trkpt lat="42.3207293853142" lon="19.784378791061883"><ele>456.75</ele><time>2026-05-03T11:53:04Z</time></trkpt><trkpt lat="42.320859646388946" lon="19.78426428581018"><ele>456.5</ele><time>2026-05-03T11:53:05Z</time></trkpt><trkpt lat="42.320949684929595" lon="19.784170869776094"><ele>456.25</ele><time>2026-05-03T11:53:06Z</time></trkpt><trkpt lat="42.32102516819949" lon="19.784062167352147"><ele>456.0</ele><time>2026-05-03T11:53:07Z</time></trkpt><trkpt lat="42.32109214920237" lon="19.783943300577604"><ele>456.0</ele><time>2026-05-03T11:53:08Z</time></trkpt><trkpt lat="42.32117569751265" lon="19.783877805995274"><ele>456.0</ele><time>2026-05-03T11:53:09Z</time></trkpt><trkpt lat="42.32129035567135" lon="19.783819094541066"><ele>456.0</ele><time>2026-05-03T11:53:10Z</time></trkpt><trkpt lat="42.32140975702218" lon="19.783751664012936"><ele>456.0</ele><time>2026-05-03T11:53:11Z</time></trkpt><trkpt lat="42.32154602828052" lon="19.78367409435296"><ele>454.66666666666663</ele><time>2026-05-03T11:53:12Z</time></trkpt><trkpt lat="42.321688775918496" lon="19.783602920686903"><ele>453.3333333333333</ele><time>2026-05-03T11:53:13Z</time></trkpt><trkpt lat="42.32183402710828" lon="19.783513264945714"><ele>452.0</ele><time>2026-05-03T11:53:14Z</time></trkpt><trkpt lat="42.32198268889714" lon="19.783389766989025"><ele>452.0</ele><time>2026-05-03T11:53:15Z</time></trkpt><trkpt lat="42.322136915880854" lon="19.783260079399334"><ele>452.0</ele><time>2026-05-03T11:53:16Z</time></trkpt><trkpt lat="42.322298845267994" lon="19.783143595045477"><ele>452.0</ele><time>2026-05-03T11:53:17Z</time></trkpt><trkpt lat="42.32243383318632" lon="19.783061866526783"><ele>456.0</ele><time>2026-05-03T11:53:18Z</time></trkpt><trkpt lat="42.32254403012299" lon="19.78301876860416"><ele>460.00000000000006</ele><time>2026-05-03T11:53:19Z</time></trkpt><trkpt lat="42.32263367752305" lon="19.783007042014102"><ele>464.00000000000006</ele><time>2026-05-03T11:53:20Z</time></trkpt><trkpt lat="42.32274279452816" lon="19.783018629620067"><ele>468.0</ele><time>2026-05-03T11:53:21Z</time></trkpt><trkpt lat="42.32284263359154" lon="19.78305105737052"><ele>472.0</ele><time>2026-05-03T11:53:22Z</time></trkpt><trkpt lat="42.32293221712236" lon="19.783124696358108"><ele>472.00000000000006</ele><time>2026-05-03T11:53:23Z</time></trkpt><trkpt lat="42.32301710988922" lon="19.78320085699016"><ele>472.0</ele><time>2026-05-03T11:53:24Z</time></trkpt><trkpt lat="42.32308397308168" lon="19.783216534633684"><ele>472.0</ele><time>2026-05-03T11:53:25Z</time></trkpt><trkpt lat="42.32316475953175" lon="19.78320904197451"><ele>472.0</ele><time>2026-05-03T11:53:26Z</time></trkpt><trkpt lat="42.32323183577507" lon="19.783147983281882"><ele>472.00000000000006</ele><time>2026-05-03T11:53:27Z</time></trkpt><trkpt lat="42.32327005981384" lon="19.78306435962819"><ele>472.0</ele><time>2026-05-03T11:53:28Z</time></trkpt><trkpt lat="42.3232912034028" lon="19.782944390441532"><ele>470.75</ele><time>2026-05-03T11:53:29Z</time></trkpt><trkpt lat="42.32329410723998" lon="19.782790011242884"><ele>469.5</ele><time>2026-05-03T11:53:30Z</time></trkpt><trkpt lat="42.323316616850875" lon="19.782643992943594"><ele>468.25</ele><time>2026-05-03T11:53:31Z</time></trkpt><trkpt lat="42.32338910927465" lon="19.78251273035658"><ele>467.0</ele><time>2026-05-03T11:53:32Z</time></trkpt><trkpt lat="42.32348780036331" lon="19.782404524366612"><ele>467.0</ele><time>2026-05-03T11:53:33Z</time></trkpt><trkpt lat="42.32356735597564" lon="19.782349641755335"><ele>467.00000000000006</ele><time>2026-05-03T11:53:34Z</time></trkpt><trkpt lat="42.323641713117986" lon="19.78234897445787"><ele>467.00000000000006</ele><time>2026-05-03T11:53:35Z</time></trkpt><trkpt lat="42.323740278531524" lon="19.78237398332979"><ele>467.0</ele><time>2026-05-03T11:53:36Z</time></trkpt><trkpt lat="42.323852062926285" lon="19.782413615702286"><ele>467.0</ele><time>2026-05-03T11:53:37Z</time></trkpt><trkpt lat="42.32397813556054" lon="19.782451554302174"><ele>470.25</ele><time>2026-05-03T11:53:38Z</time></trkpt><trkpt lat="42.324113284976505" lon="19.782467786239987"><ele>473.5</ele><time>2026-05-03T11:53:38.999Z</time></trkpt><trkpt lat="42.32423016655179" lon="19.782451516558943"><ele>476.75</ele><time>2026-05-03T11:53:39.999Z</time></trkpt><trkpt lat="42.32432079745126" lon="19.782406319816626"><ele>480.0</ele><time>2026-05-03T11:53:40.999Z</time></trkpt><trkpt lat="42.324405991341195" lon="19.782324482952767"><ele>480.0</ele><time>2026-05-03T11:53:41.999Z</time></trkpt><trkpt lat="42.324484064280455" lon="19.782237257911977"><ele>480.0</ele><time>2026-05-03T11:53:42.999Z</time></trkpt><trkpt lat="42.324546584279865" lon="19.78218608925328"><ele>480.0</ele><time>2026-05-03T11:53:43.999Z</time></trkpt><trkpt lat="42.324619272407055" lon="19.782186142822788"><ele>480.0</ele><time>2026-05-03T11:53:44.999Z</time></trkpt><trkpt lat="42.324705136070506" lon="19.782224801230225"><ele>480.0</ele><time>2026-05-03T11:53:45.999Z</time></trkpt><trkpt lat="42.32482745454496" lon="19.78227600142529"><ele>481.25</ele><time>2026-05-03T11:53:46.999Z</time></trkpt><trkpt lat="42.324951758550405" lon="19.782282720995504"><ele>482.5</ele><time>2026-05-03T11:53:47.999Z</time></trkpt><trkpt lat="42.32505988379797" lon="19.782250486994045"><ele>483.75</ele><time>2026-05-03T11:53:48.999Z</time></trkpt><trkpt lat="42.32516795374654" lon="19.782187862891288"><ele>485.0</ele><time>2026-05-03T11:53:49.999Z</time></trkpt><trkpt lat="42.325281727136925" lon="19.782087985658467"><ele>485.0</ele><time>2026-05-03T11:53:50.999Z</time></trkpt><trkpt lat="42.32539880894999" lon="19.781972035614487"><ele>485.0</ele><time>2026-05-03T11:53:51.999Z</time></trkpt><trkpt lat="42.32551013693251" lon="19.781868305680533"><ele>485.0</ele><time>2026-05-03T11:53:52.999Z</time></trkpt><trkpt lat="42.32562864842306" lon="19.78178188638524"><ele>485.0</ele><time>2026-05-03T11:53:53.999Z</time></trkpt><trkpt lat="42.32573943681428" lon="19.781707510641226"><ele>484.0</ele><time>2026-05-03T11:53:54.999Z</time></trkpt><trkpt lat="42.3258627281123" lon="19.78163330584667"><ele>483.0</ele><time>2026-05-03T11:53:55.999Z</time></trkpt><trkpt lat="42.32596154168283" lon="19.781583413663444"><ele>482.0</ele><time>2026-05-03T11:53:56.999Z</time></trkpt><trkpt lat="42.32606067896434" lon="19.781546382745443"><ele>481.0</ele><time>2026-05-03T11:53:57.999Z</time></trkpt><trkpt lat="42.326128967330405" lon="19.781511088350133"><ele>480.0</ele><time>2026-05-03T11:53:58.999Z</time></trkpt><trkpt lat="42.32618230568013" lon="19.7814599463531"><ele>480.0</ele><time>2026-05-03T11:53:59.999Z</time></trkpt><trkpt lat="42.32620242695693" lon="19.78127340294296"><ele>480.0</ele><time>2026-05-03T11:54:01.999Z</time></trkpt><trkpt lat="42.32616872147724" lon="19.781125516916113"><ele>480.0</ele><time>2026-05-03T11:54:02.999Z</time></trkpt><trkpt lat="42.3261408949239" lon="19.78098136287517"><ele>480.0</ele><time>2026-05-03T11:54:03.999Z</time></trkpt><trkpt lat="42.326145798019446" lon="19.780881046497264"><ele>480.0</ele><time>2026-05-03T11:54:04.999Z</time></trkpt><trkpt lat="42.32618711147426" lon="19.78080671118438"><ele>482.25</ele><time>2026-05-03T11:54:05.999Z</time></trkpt><trkpt lat="42.326259558047035" lon="19.780742992393435"><ele>484.5</ele><time>2026-05-03T11:54:06.999Z</time></trkpt><trkpt lat="42.32636667270459" lon="19.780691438367242"><ele>486.75</ele><time>2026-05-03T11:54:07.999Z</time></trkpt><trkpt lat="42.326483867425786" lon="19.780641490384042"><ele>489.0</ele><time>2026-05-03T11:54:08.999Z</time></trkpt><trkpt lat="42.32661167692638" lon="19.780540081422465"><ele>489.0</ele><time>2026-05-03T11:54:09.999Z</time></trkpt><trkpt lat="42.32672777835294" lon="19.780419759773125"><ele>489.0</ele><time>2026-05-03T11:54:10.999Z</time></trkpt><trkpt lat="42.32683146892499" lon="19.78031147698667"><ele>489.0</ele><time>2026-05-03T11:54:11.999Z</time></trkpt><trkpt lat="42.326926490294106" lon="19.780192237625347"><ele>489.0</ele><time>2026-05-03T11:54:12.999Z</time></trkpt><trkpt lat="42.32701295400634" lon="19.780063771803825"><ele>490.25</ele><time>2026-05-03T11:54:13.999Z</time></trkpt><trkpt lat="42.32707098939249" lon="19.779917566993316"><ele>491.5</ele><time>2026-05-03T11:54:14.999Z</time></trkpt><trkpt lat="42.32711798872043" lon="19.779761619505894"><ele>492.75</ele><time>2026-05-03T11:54:15.999Z</time></trkpt><trkpt lat="42.32717378785867" lon="19.77961494705409"><ele>494.0</ele><time>2026-05-03T11:54:16.999Z</time></trkpt><trkpt lat="42.32723607950021" lon="19.779529444143506"><ele>494.0</ele><time>2026-05-03T11:54:17.999Z</time></trkpt><trkpt lat="42.327313602755844" lon="19.779484024915543"><ele>494.0</ele><time>2026-05-03T11:54:18.999Z</time></trkpt><trkpt lat="42.32742317425769" lon="19.77946734154082"><ele>494.0</ele><time>2026-05-03T11:54:19.999Z</time></trkpt><trkpt lat="42.327529033489725" lon="19.7793998853573"><ele>494.0</ele><time>2026-05-03T11:54:20.999Z</time></trkpt><trkpt lat="42.327625900619715" lon="19.77929371267754"><ele>494.0</ele><time>2026-05-03T11:54:21.999Z</time></trkpt><trkpt lat="42.32768810784607" lon="19.77920249340845"><ele>490.8333333333333</ele><time>2026-05-03T11:54:22.999Z</time></trkpt><trkpt lat="42.32774649402252" lon="19.77912879034487"><ele>487.66666666666663</ele><time>2026-05-03T11:54:23.999Z</time></trkpt><trkpt lat="42.32778646215636" lon="19.778970118199872"><ele>484.5</ele><time>2026-05-03T11:54:25.999Z</time></trkpt><trkpt lat="42.32777494188307" lon="19.778864031901062"><ele>481.33333333333337</ele><time>2026-05-03T11:54:26.999Z</time></trkpt><trkpt lat="42.327800635062665" lon="19.778775276691114"><ele>478.1666666666667</ele><time>2026-05-03T11:54:27.999Z</time></trkpt><trkpt lat="42.32785982386655" lon="19.778724180012308"><ele>475.0</ele><time>2026-05-03T11:54:28.999Z</time></trkpt><trkpt lat="42.32795955626424" lon="19.778658327369506"><ele>473.25</ele><time>2026-05-03T11:54:29.999Z</time></trkpt><trkpt lat="42.328068815859865" lon="19.77855415593666"><ele>471.5</ele><time>2026-05-03T11:54:30.999Z</time></trkpt><trkpt lat="42.32817293826459" lon="19.778423302963905"><ele>469.75</ele><time>2026-05-03T11:54:31.999Z</time></trkpt><trkpt lat="42.32827794199157" lon="19.77828492816795"><ele>468.0</ele><time>2026-05-03T11:54:32.999Z</time></trkpt><trkpt lat="42.328354991553006" lon="19.778167446094724"><ele>468.0</ele><time>2026-05-03T11:54:33.999Z</time></trkpt><trkpt lat="42.32843927457567" lon="19.778067560874756"><ele>467.99999999999994</ele><time>2026-05-03T11:54:34.999Z</time></trkpt><trkpt lat="42.32853541186296" lon="19.77797109991373"><ele>467.99999999999994</ele><time>2026-05-03T11:54:35.999Z</time></trkpt><trkpt lat="42.32862663935844" lon="19.77789900356397"><ele>468.0</ele><time>2026-05-03T11:54:36.999Z</time></trkpt><trkpt lat="42.32872176777712" lon="19.7778312768632"><ele>468.0</ele><time>2026-05-03T11:54:37.999Z</time></trkpt><trkpt lat="42.32882236329375" lon="19.777799265025838"><ele>466.0</ele><time>2026-05-03T11:54:38.999Z</time></trkpt><trkpt lat="42.32894241502557" lon="19.77775919172741"><ele>464.0</ele><time>2026-05-03T11:54:39.999Z</time></trkpt><trkpt lat="42.32905644975951" lon="19.777693337770696"><ele>462.0</ele><time>2026-05-03T11:54:40.999Z</time></trkpt><trkpt lat="42.329146901359074" lon="19.77760708393868"><ele>460.0</ele><time>2026-05-03T11:54:42Z</time></trkpt><trkpt lat="42.32925393007185" lon="19.77749211760425"><ele>460.0</ele><time>2026-05-03T11:54:43Z</time></trkpt><trkpt lat="42.3293586228657" lon="19.777380708655798"><ele>460.0</ele><time>2026-05-03T11:54:44Z</time></trkpt><trkpt lat="42.32948062791204" lon="19.777248039040224"><ele>460.0</ele><time>2026-05-03T11:54:45Z</time></trkpt><trkpt lat="42.32958224762203" lon="19.777104297573224"><ele>460.0</ele><time>2026-05-03T11:54:46Z</time></trkpt><trkpt lat="42.32966701959859" lon="19.776930875833948"><ele>460.25</ele><time>2026-05-03T11:54:47Z</time></trkpt><trkpt lat="42.329725261518625" lon="19.77675559236245"><ele>460.5</ele><time>2026-05-03T11:54:48Z</time></trkpt><trkpt lat="42.329787999161184" lon="19.776572253018116"><ele>460.75</ele><time>2026-05-03T11:54:49Z</time></trkpt><trkpt lat="42.32984812540951" lon="19.776413474369132"><ele>461.0</ele><time>2026-05-03T11:54:50Z</time></trkpt><trkpt lat="42.32990924283082" lon="19.77628856391145"><ele>461.0</ele><time>2026-05-03T11:54:51Z</time></trkpt><trkpt lat="42.32999220401296" lon="19.776135475620023"><ele>461.0</ele><time>2026-05-03T11:54:52Z</time></trkpt><trkpt lat="42.3300910915805" lon="19.77599656471546"><ele>461.0</ele><time>2026-05-03T11:54:53Z</time></trkpt><trkpt lat="42.330199154567275" lon="19.775843373572066"><ele>461.0</ele><time>2026-05-03T11:54:54Z</time></trkpt><trkpt lat="42.33029191019161" lon="19.775700271841156"><ele>461.8</ele><time>2026-05-03T11:54:55Z</time></trkpt><trkpt lat="42.33036775541762" lon="19.775597493889205"><ele>462.6</ele><time>2026-05-03T11:54:56Z</time></trkpt><trkpt lat="42.33045181631155" lon="19.775527560986063"><ele>463.4</ele><time>2026-05-03T11:54:57Z</time></trkpt><trkpt lat="42.33055193349328" lon="19.775481099090523"><ele>464.2</ele><time>2026-05-03T11:54:58Z</time></trkpt><trkpt lat="42.33067560703608" lon="19.775443012337472"><ele>465.0</ele><time>2026-05-03T11:54:59Z</time></trkpt><trkpt lat="42.33081286058845" lon="19.775402708822895"><ele>465.0</ele><time>2026-05-03T11:55:00Z</time></trkpt><trkpt lat="42.33093855193457" lon="19.775346468624974"><ele>465.0</ele><time>2026-05-03T11:55:01Z</time></trkpt><trkpt lat="42.33103318043874" lon="19.77527183865508"><ele>465.0</ele><time>2026-05-03T11:55:02Z</time></trkpt><trkpt lat="42.33112254700723" lon="19.775169523918475"><ele>465.0</ele><time>2026-05-03T11:55:03Z</time></trkpt><trkpt lat="42.331219273164535" lon="19.775078485476186"><ele>460.0</ele><time>2026-05-03T11:55:04Z</time></trkpt><trkpt lat="42.331325034837604" lon="19.774991307583324"><ele>455.0</ele><time>2026-05-03T11:55:05Z</time></trkpt><trkpt lat="42.33142598792497" lon="19.77490250095357"><ele>450.0</ele><time>2026-05-03T11:55:06Z</time></trkpt><trkpt lat="42.33152563337254" lon="19.77483916618356"><ele>445.0</ele><time>2026-05-03T11:55:07Z</time></trkpt><trkpt lat="42.331627864880325" lon="19.774812538771524"><ele>445.0</ele><time>2026-05-03T11:55:08Z</time></trkpt><trkpt lat="42.33174122953375" lon="19.77481460941477"><ele>445.0</ele><time>2026-05-03T11:55:09Z</time></trkpt><trkpt lat="42.33186664284382" lon="19.774851654725"><ele>445.0</ele><time>2026-05-03T11:55:10Z</time></trkpt><trkpt lat="42.331995808559036" lon="19.7749080733709"><ele>445.0</ele><time>2026-05-03T11:55:11Z</time></trkpt><trkpt lat="42.33210621074047" lon="19.774950269527523"><ele>445.0</ele><time>2026-05-03T11:55:12Z</time></trkpt><trkpt lat="42.3321917798458" lon="19.77496230819591"><ele>445.0</ele><time>2026-05-03T11:55:13Z</time></trkpt><trkpt lat="42.33228639255713" lon="19.77493109261375"><ele>445.0</ele><time>2026-05-03T11:55:15Z</time></trkpt><trkpt lat="42.33240272913875" lon="19.774913148694747"><ele>445.0</ele><time>2026-05-03T11:55:43Z</time></trkpt><trkpt lat="42.3324742731665" lon="19.774902655218114"><ele>445.0</ele><time>2026-05-03T11:55:44Z</time></trkpt><trkpt lat="42.33255217366453" lon="19.77489654160737"><ele>445.83333333333337</ele><time>2026-05-03T11:55:45Z</time></trkpt><trkpt lat="42.33262064323939" lon="19.774893576382993"><ele>446.6666666666667</ele><time>2026-05-03T11:55:46Z</time></trkpt><trkpt lat="42.332745736225526" lon="19.774873363582532"><ele>447.5</ele><time>2026-05-03T11:55:48Z</time></trkpt><trkpt lat="42.33281409214147" lon="19.774857111820506"><ele>448.33333333333337</ele><time>2026-05-03T11:55:49Z</time></trkpt><trkpt lat="42.33288971128" lon="19.774842351601972"><ele>449.1666666666667</ele><time>2026-05-03T11:55:50Z</time></trkpt><trkpt lat="42.33296038320325" lon="19.774828520896765"><ele>450.0</ele><time>2026-05-03T11:55:51Z</time></trkpt><trkpt lat="42.33304427405299" lon="19.77481576249711"><ele>452.6666666666667</ele><time>2026-05-03T11:55:52Z</time></trkpt><trkpt lat="42.33312530396196" lon="19.774811833388394"><ele>455.33333333333337</ele><time>2026-05-03T11:55:53Z</time></trkpt><trkpt lat="42.33319808190943" lon="19.77481776655795"><ele>458.0</ele><time>2026-05-03T11:55:54Z</time></trkpt><trkpt lat="42.333274158183805" lon="19.77483077052389"><ele>460.6666666666667</ele><time>2026-05-03T11:55:55Z</time></trkpt><trkpt lat="42.33335847683264" lon="19.774856949307715"><ele>463.33333333333337</ele><time>2026-05-03T11:55:56Z</time></trkpt><trkpt lat="42.33343739599251" lon="19.774881876926788"><ele>466.0</ele><time>2026-05-03T11:55:57Z</time></trkpt><trkpt lat="42.33351952310793" lon="19.774909889078835"><ele>466.0</ele><time>2026-05-03T11:55:58Z</time></trkpt><trkpt lat="42.33360579437464" lon="19.774947096237764"><ele>466.0</ele><time>2026-05-03T11:55:59Z</time></trkpt><trkpt lat="42.333692875894705" lon="19.77499603273298"><ele>466.0</ele><time>2026-05-03T11:56:00Z</time></trkpt><trkpt lat="42.3337816742334" lon="19.77504878414451"><ele>466.0</ele><time>2026-05-03T11:56:01Z</time></trkpt><trkpt lat="42.33387945589042" lon="19.775100464051235"><ele>466.0</ele><time>2026-05-03T11:56:02Z</time></trkpt><trkpt lat="42.3339754575692" lon="19.775138674556064"><ele>464.20000000000005</ele><time>2026-05-03T11:56:03Z</time></trkpt><trkpt lat="42.33407681257296" lon="19.775167032862345"><ele>462.40000000000003</ele><time>2026-05-03T11:56:04Z</time></trkpt><trkpt lat="42.33418716778564" lon="19.775192717488316"><ele>460.6</ele><time>2026-05-03T11:56:05Z</time></trkpt><trkpt lat="42.334295169291444" lon="19.77522584871799"><ele>458.8</ele><time>2026-05-03T11:56:06Z</time></trkpt><trkpt lat="42.33440044026634" lon="19.775263932103165"><ele>457.0</ele><time>2026-05-03T11:56:07Z</time></trkpt><trkpt lat="42.33451097079972" lon="19.775297691247147"><ele>462.20000000000005</ele><time>2026-05-03T11:56:08Z</time></trkpt><trkpt lat="42.33462080546251" lon="19.775321599997874"><ele>467.40000000000003</ele><time>2026-05-03T11:56:09Z</time></trkpt><trkpt lat="42.33472976688285" lon="19.775337585317402"><ele>472.59999999999997</ele><time>2026-05-03T11:56:10Z</time></trkpt><trkpt lat="42.334834982154064" lon="19.775326058951833"><ele>477.79999999999995</ele><time>2026-05-03T11:56:11Z</time></trkpt><trkpt lat="42.334934026978914" lon="19.77530592523337"><ele>483.0</ele><time>2026-05-03T11:56:12Z</time></trkpt><trkpt lat="42.33504314732492" lon="19.775284914292573"><ele>483.0</ele><time>2026-05-03T11:56:13Z</time></trkpt><trkpt lat="42.33514767693681" lon="19.775262981287085"><ele>482.99999999999994</ele><time>2026-05-03T11:56:14Z</time></trkpt><trkpt lat="42.33525294590815" lon="19.775235237666283"><ele>482.99999999999994</ele><time>2026-05-03T11:56:15Z</time></trkpt><trkpt lat="42.3353522193001" lon="19.775194921644946"><ele>483.0</ele><time>2026-05-03T11:56:16Z</time></trkpt><trkpt lat="42.33543488380849" lon="19.775149806203657"><ele>483.0</ele><time>2026-05-03T11:56:17Z</time></trkpt><trkpt lat="42.33553746527467" lon="19.775083099762142"><ele>478.25</ele><time>2026-05-03T11:56:18Z</time></trkpt><trkpt lat="42.335644183719054" lon="19.775008868373956"><ele>473.5</ele><time>2026-05-03T11:56:19Z</time></trkpt><trkpt lat="42.33574439732174" lon="19.774932195314644"><ele>468.75</ele><time>2026-05-03T11:56:20Z</time></trkpt><trkpt lat="42.33584842115356" lon="19.774849847145337"><ele>464.0</ele><time>2026-05-03T11:56:21Z</time></trkpt><trkpt lat="42.33594934251063" lon="19.774766887659997"><ele>464.0</ele><time>2026-05-03T11:56:22Z</time></trkpt><trkpt lat="42.336046248217585" lon="19.77467235044209"><ele>464.0</ele><time>2026-05-03T11:56:23Z</time></trkpt><trkpt lat="42.336137292761" lon="19.77458072880413"><ele>464.0</ele><time>2026-05-03T11:56:24Z</time></trkpt><trkpt lat="42.336235717873336" lon="19.774480441729708"><ele>464.0</ele><time>2026-05-03T11:56:25Z</time></trkpt><trkpt lat="42.336325431633256" lon="19.774383986786287"><ele>464.25</ele><time>2026-05-03T11:56:26Z</time></trkpt><trkpt lat="42.33641531724795" lon="19.774294091456635"><ele>464.5</ele><time>2026-05-03T11:56:27Z</time></trkpt><trkpt lat="42.3365221880715" lon="19.774208502854965"><ele>464.75</ele><time>2026-05-03T11:56:28Z</time></trkpt><trkpt lat="42.33662314721141" lon="19.77412319652351"><ele>465.0</ele><time>2026-05-03T11:56:29Z</time></trkpt><trkpt lat="42.33672383828897" lon="19.774033186197922"><ele>465.0</ele><time>2026-05-03T11:56:29.999Z</time></trkpt><trkpt lat="42.33682324490738" lon="19.77393288189063"><ele>465.0</ele><time>2026-05-03T11:56:30.999Z</time></trkpt><trkpt lat="42.33692283205853" lon="19.773831272830066"><ele>465.0</ele><time>2026-05-03T11:56:31.999Z</time></trkpt><trkpt lat="42.337022864471194" lon="19.773724829493943"><ele>465.0</ele><time>2026-05-03T11:56:32.999Z</time></trkpt><trkpt lat="42.33712310987366" lon="19.77364247491031"><ele>465.0</ele><time>2026-05-03T11:56:33.999Z</time></trkpt><trkpt lat="42.3372183004683" lon="19.7735530130812"><ele>465.0</ele><time>2026-05-03T11:56:34.999Z</time></trkpt><trkpt lat="42.33732126246127" lon="19.773445787831793"><ele>465.0</ele><time>2026-05-03T11:56:35.999Z</time></trkpt><trkpt lat="42.33741348868329" lon="19.77335382853223"><ele>465.0</ele><time>2026-05-03T11:56:36.999Z</time></trkpt><trkpt lat="42.33751096385861" lon="19.773252914207056"><ele>466.6</ele><time>2026-05-03T11:56:37.999Z</time></trkpt><trkpt lat="42.337592561459054" lon="19.773134048700115"><ele>468.2</ele><time>2026-05-03T11:56:38.999Z</time></trkpt><trkpt lat="42.33766144169086" lon="19.77302750178411"><ele>469.79999999999995</ele><time>2026-05-03T11:56:39.999Z</time></trkpt><trkpt lat="42.33773261634489" lon="19.772932509130033"><ele>471.4</ele><time>2026-05-03T11:56:40.999Z</time></trkpt><trkpt lat="42.337808830730474" lon="19.772870855876555"><ele>473.0</ele><time>2026-05-03T11:56:41.999Z</time></trkpt><trkpt lat="42.33790594064558" lon="19.77281558669864"><ele>473.0</ele><time>2026-05-03T11:56:42.999Z</time></trkpt><trkpt lat="42.33801234606051" lon="19.772782622151002"><ele>472.99999999999994</ele><time>2026-05-03T11:56:43.999Z</time></trkpt><trkpt lat="42.3381111149707" lon="19.772743067576855"><ele>472.99999999999994</ele><time>2026-05-03T11:56:44.999Z</time></trkpt><trkpt lat="42.33819383767697" lon="19.77269286803262"><ele>473.0</ele><time>2026-05-03T11:56:45.999Z</time></trkpt><trkpt lat="42.338273457573166" lon="19.772627862252797"><ele>473.0</ele><time>2026-05-03T11:56:46.999Z</time></trkpt><trkpt lat="42.33834947640974" lon="19.772568455743652"><ele>473.5</ele><time>2026-05-03T11:56:48Z</time></trkpt><trkpt lat="42.33845419494225" lon="19.772524088691224"><ele>474.0</ele><time>2026-05-03T11:56:49Z</time></trkpt><trkpt lat="42.338578029639415" lon="19.772492540893502"><ele>474.5</ele><time>2026-05-03T11:56:50Z</time></trkpt><trkpt lat="42.33871697418658" lon="19.772472357504427"><ele>475.0</ele><time>2026-05-03T11:56:51Z</time></trkpt><trkpt lat="42.33885918730787" lon="19.772441025066357"><ele>475.5</ele><time>2026-05-03T11:56:52Z</time></trkpt><trkpt lat="42.33899051569225" lon="19.77240063643192"><ele>476.0</ele><time>2026-05-03T11:56:53Z</time></trkpt><trkpt lat="42.339150115110336" lon="19.77234998122947"><ele>476.5</ele><time>2026-05-03T11:56:54Z</time></trkpt><trkpt lat="42.33928999230367" lon="19.772295133036472"><ele>477.0</ele><time>2026-05-03T11:56:55Z</time></trkpt><trkpt lat="42.33943251519407" lon="19.77223690513805"><ele>477.0</ele><time>2026-05-03T11:56:56Z</time></trkpt><trkpt lat="42.3395769092712" lon="19.77218686437051"><ele>477.0</ele><time>2026-05-03T11:56:57Z</time></trkpt><trkpt lat="42.33972354087203" lon="19.772125614704397"><ele>477.0</ele><time>2026-05-03T11:56:58Z</time></trkpt><trkpt lat="42.33987521040478" lon="19.77206329077149"><ele>479.33333333333337</ele><time>2026-05-03T11:56:59Z</time></trkpt><trkpt lat="42.3400240196549" lon="19.77200928945325"><ele>481.6666666666667</ele><time>2026-05-03T11:57:00Z</time></trkpt><trkpt lat="42.34017056150928" lon="19.771955007724447"><ele>484.0</ele><time>2026-05-03T11:57:01Z</time></trkpt><trkpt lat="42.3403152855791" lon="19.771892552960573"><ele>481.6666666666667</ele><time>2026-05-03T11:57:02Z</time></trkpt><trkpt lat="42.340462640149454" lon="19.771816729790917"><ele>479.33333333333337</ele><time>2026-05-03T11:57:03Z</time></trkpt><trkpt lat="42.34059981392812" lon="19.77172810706364"><ele>477.0</ele><time>2026-05-03T11:57:04Z</time></trkpt><trkpt lat="42.34073910198423" lon="19.771634815487225"><ele>477.0</ele><time>2026-05-03T11:57:05Z</time></trkpt><trkpt lat="42.34085863719507" lon="19.771554004974288"><ele>477.0</ele><time>2026-05-03T11:57:06Z</time></trkpt><trkpt lat="42.34096512075033" lon="19.771504180504266"><ele>477.0</ele><time>2026-05-03T11:57:07Z</time></trkpt><trkpt lat="42.34106649635812" lon="19.771496150603927"><ele>477.0</ele><time>2026-05-03T11:57:08Z</time></trkpt><trkpt lat="42.34117770392305" lon="19.771513960617803"><ele>477.0</ele><time>2026-05-03T11:57:09Z</time></trkpt><trkpt lat="42.34131090641537" lon="19.771566205184477"><ele>477.0</ele><time>2026-05-03T11:57:10Z</time></trkpt><trkpt lat="42.3414456462657" lon="19.771631829375643"><ele>477.0</ele><time>2026-05-03T11:57:11Z</time></trkpt><trkpt lat="42.34159579083288" lon="19.771684376004725"><ele>477.0</ele><time>2026-05-03T11:57:12Z</time></trkpt><trkpt lat="42.341755755765575" lon="19.771724145340162"><ele>477.0</ele><time>2026-05-03T11:57:13Z</time></trkpt><trkpt lat="42.34191225742901" lon="19.771771355067695"><ele>477.0</ele><time>2026-05-03T11:57:14Z</time></trkpt><trkpt lat="42.34206934982709" lon="19.771852500815182"><ele>477.0</ele><time>2026-05-03T11:57:15Z</time></trkpt><trkpt lat="42.34218560650244" lon="19.771920817082385"><ele>481.5</ele><time>2026-05-03T11:57:16Z</time></trkpt><trkpt lat="42.34229611064458" lon="19.771989089739623"><ele>486.0</ele><time>2026-05-03T11:57:17Z</time></trkpt><trkpt lat="42.342414209358" lon="19.77203766594873"><ele>490.5</ele><time>2026-05-03T11:57:18Z</time></trkpt><trkpt lat="42.34252657644947" lon="19.772056230801713"><ele>495.0</ele><time>2026-05-03T11:57:19Z</time></trkpt><trkpt lat="42.34264239731959" lon="19.77204640205668"><ele>495.0</ele><time>2026-05-03T11:57:20Z</time></trkpt><trkpt lat="42.34274078748506" lon="19.77200829820186"><ele>495.0</ele><time>2026-05-03T11:57:21Z</time></trkpt><trkpt lat="42.34284856045204" lon="19.771928921535256"><ele>495.0</ele><time>2026-05-03T11:57:22Z</time></trkpt><trkpt lat="42.34295731439676" lon="19.771850660563633"><ele>495.0</ele><time>2026-05-03T11:57:23Z</time></trkpt><trkpt lat="42.34306015780054" lon="19.771805038136794"><ele>496.0</ele><time>2026-05-03T11:57:24Z</time></trkpt><trkpt lat="42.34316586535258" lon="19.77179829194376"><ele>497.0</ele><time>2026-05-03T11:57:25Z</time></trkpt><trkpt lat="42.34329439812844" lon="19.77182430118311"><ele>498.0</ele><time>2026-05-03T11:57:26Z</time></trkpt><trkpt lat="42.343422368341294" lon="19.77187506008254"><ele>499.0</ele><time>2026-05-03T11:57:27Z</time></trkpt><trkpt lat="42.34356912693874" lon="19.77194519122379"><ele>499.0</ele><time>2026-05-03T11:57:28Z</time></trkpt><trkpt lat="42.34373691123471" lon="19.772005414624896"><ele>499.0</ele><time>2026-05-03T11:57:29Z</time></trkpt><trkpt lat="42.34388121696866" lon="19.772050559099082"><ele>499.0</ele><time>2026-05-03T11:57:30Z</time></trkpt><trkpt lat="42.34401551948705" lon="19.77207905619514"><ele>498.0</ele><time>2026-05-03T11:57:31Z</time></trkpt><trkpt lat="42.34413538627506" lon="19.77207472360392"><ele>497.0</ele><time>2026-05-03T11:57:32Z</time></trkpt><trkpt lat="42.3442631024441" lon="19.77207015502047"><ele>496.0</ele><time>2026-05-03T11:57:33Z</time></trkpt><trkpt lat="42.34436801203006" lon="19.772082878853485"><ele>495.0</ele><time>2026-05-03T11:57:34Z</time></trkpt><trkpt lat="42.34446645615417" lon="19.772112826745882"><ele>495.0</ele><time>2026-05-03T11:57:35Z</time></trkpt><trkpt lat="42.34457264151461" lon="19.77218366471344"><ele>495.0</ele><time>2026-05-03T11:57:36Z</time></trkpt><trkpt lat="42.34468164079227" lon="19.772265399992637"><ele>495.0</ele><time>2026-05-03T11:57:37Z</time></trkpt><trkpt lat="42.34480202524873" lon="19.772358952141197"><ele>495.0</ele><time>2026-05-03T11:57:38Z</time></trkpt><trkpt lat="42.34491943225608" lon="19.772459323810367"><ele>492.75</ele><time>2026-05-03T11:57:39Z</time></trkpt><trkpt lat="42.345042138551605" lon="19.77254722831106"><ele>490.5</ele><time>2026-05-03T11:57:40Z</time></trkpt><trkpt lat="42.34517433453349" lon="19.77261067100563"><ele>488.25</ele><time>2026-05-03T11:57:41Z</time></trkpt><trkpt lat="42.34531786953515" lon="19.772638919409264"><ele>486.0</ele><time>2026-05-03T11:57:42Z</time></trkpt><trkpt lat="42.345467429671224" lon="19.772656985283263"><ele>485.33333333333337</ele><time>2026-05-03T11:57:43Z</time></trkpt><trkpt lat="42.345622926646726" lon="19.772669425560807"><ele>484.6666666666667</ele><time>2026-05-03T11:57:44Z</time></trkpt><trkpt lat="42.34578078688896" lon="19.772677938260525"><ele>484.0</ele><time>2026-05-03T11:57:45Z</time></trkpt><trkpt lat="42.34594516876398" lon="19.772691661391107"><ele>491.33333333333337</ele><time>2026-05-03T11:57:46Z</time></trkpt><trkpt lat="42.34612429334789" lon="19.77270408303006"><ele>498.66666666666663</ele><time>2026-05-03T11:57:47Z</time></trkpt><trkpt lat="42.34628075142531" lon="19.772708051280414"><ele>506.0</ele><time>2026-05-03T11:57:48Z</time></trkpt><trkpt lat="42.34644864339638" lon="19.772689605088033"><ele>498.66666666666663</ele><time>2026-05-03T11:57:49Z</time></trkpt><trkpt lat="42.34661332097966" lon="19.77266907941203"><ele>491.33333333333337</ele><time>2026-05-03T11:57:50Z</time></trkpt><trkpt lat="42.34677675620366" lon="19.77264096132118"><ele>484.0</ele><time>2026-05-03T11:57:51Z</time></trkpt><trkpt lat="42.34692386262919" lon="19.77264125148878"><ele>484.0</ele><time>2026-05-03T11:57:52Z</time></trkpt><trkpt lat="42.347067642534356" lon="19.77265417173342"><ele>484.0</ele><time>2026-05-03T11:57:53Z</time></trkpt><trkpt lat="42.347204626642394" lon="19.772694874679736"><ele>484.0</ele><time>2026-05-03T11:57:54Z</time></trkpt><trkpt lat="42.34733590054738" lon="19.772760801216226"><ele>484.0</ele><time>2026-05-03T11:57:55Z</time></trkpt><trkpt lat="42.34743966568136" lon="19.77284651890964"><ele>488.75</ele><time>2026-05-03T11:57:56Z</time></trkpt><trkpt lat="42.34753455918136" lon="19.77293621762118"><ele>493.5</ele><time>2026-05-03T11:57:56.999Z</time></trkpt><trkpt lat="42.34762545571876" lon="19.773029108382886"><ele>498.25</ele><time>2026-05-03T11:57:57.999Z</time></trkpt><trkpt lat="42.34771761074534" lon="19.7731128291129"><ele>503.0</ele><time>2026-05-03T11:57:58.999Z</time></trkpt><trkpt lat="42.347826451855816" lon="19.773180514057216"><ele>503.0</ele><time>2026-05-03T11:57:59.999Z</time></trkpt><trkpt lat="42.347954306400766" lon="19.773250146124113"><ele>503.0</ele><time>2026-05-03T11:58:00.999Z</time></trkpt><trkpt lat="42.34809403347016" lon="19.773320724760957"><ele>503.0</ele><time>2026-05-03T11:58:01.999Z</time></trkpt><trkpt lat="42.348253344020506" lon="19.77338352426539"><ele>501.0</ele><time>2026-05-03T11:58:02.999Z</time></trkpt><trkpt lat="42.34840150248033" lon="19.77343358729616"><ele>499.0</ele><time>2026-05-03T11:58:03.999Z</time></trkpt><trkpt lat="42.34855410966841" lon="19.773458308685022"><ele>497.0</ele><time>2026-05-03T11:58:04.999Z</time></trkpt><trkpt lat="42.348702229372954" lon="19.773448369731586"><ele>497.0</ele><time>2026-05-03T11:58:05.999Z</time></trkpt><trkpt lat="42.34885492780008" lon="19.773447580133084"><ele>497.0</ele><time>2026-05-03T11:58:06.999Z</time></trkpt><trkpt lat="42.34901516180665" lon="19.77347074567982"><ele>497.0</ele><time>2026-05-03T11:58:07.999Z</time></trkpt><trkpt lat="42.3491835105904" lon="19.773513438722322"><ele>497.0</ele><time>2026-05-03T11:58:08.999Z</time></trkpt><trkpt lat="42.34932420956185" lon="19.77354215427439"><ele>497.0</ele><time>2026-05-03T11:58:09.999Z</time></trkpt><trkpt lat="42.34944396834968" lon="19.77354401373477"><ele>497.0</ele><time>2026-05-03T11:58:10.999Z</time></trkpt><trkpt lat="42.34954542514162" lon="19.773518088495344"><ele>497.0</ele><time>2026-05-03T11:58:11.999Z</time></trkpt><trkpt lat="42.349650492004805" lon="19.773504566234013"><ele>502.25</ele><time>2026-05-03T11:58:12.999Z</time></trkpt><trkpt lat="42.34976059861137" lon="19.773548085682837"><ele>507.5</ele><time>2026-05-03T11:58:13.999Z</time></trkpt><trkpt lat="42.34988041486014" lon="19.773631634541182"><ele>512.75</ele><time>2026-05-03T11:58:14.999Z</time></trkpt><trkpt lat="42.35001270995833" lon="19.77372936678919"><ele>518.0</ele><time>2026-05-03T11:58:15.999Z</time></trkpt><trkpt lat="42.350156396717" lon="19.773821506222724"><ele>518.0</ele><time>2026-05-03T11:58:16.999Z</time></trkpt><trkpt lat="42.35030715163026" lon="19.773924492907845"><ele>518.0</ele><time>2026-05-03T11:58:17.999Z</time></trkpt><trkpt lat="42.35045403399972" lon="19.77405517094217"><ele>518.0</ele><time>2026-05-03T11:58:18.999Z</time></trkpt><trkpt lat="42.35058747274888" lon="19.774169385287912"><ele>518.75</ele><time>2026-05-03T11:58:19.999Z</time></trkpt><trkpt lat="42.35071453119437" lon="19.774250968806413"><ele>519.5</ele><time>2026-05-03T11:58:20.999Z</time></trkpt><trkpt lat="42.35083279800453" lon="19.774324429759883"><ele>520.25</ele><time>2026-05-03T11:58:21.999Z</time></trkpt><trkpt lat="42.350931072761945" lon="19.77442041565036"><ele>521.0</ele><time>2026-05-03T11:58:22.999Z</time></trkpt><trkpt lat="42.351002092447246" lon="19.774539078871616"><ele>521.0</ele><time>2026-05-03T11:58:23.999Z</time></trkpt><trkpt lat="42.351076422408234" lon="19.774675369145303"><ele>521.0</ele><time>2026-05-03T11:58:24.999Z</time></trkpt><trkpt lat="42.35115458962988" lon="19.774825687706993"><ele>521.0</ele><time>2026-05-03T11:58:25.999Z</time></trkpt><trkpt lat="42.351236494876396" lon="19.77498317619173"><ele>521.0</ele><time>2026-05-03T11:58:26.999Z</time></trkpt><trkpt lat="42.35133356510554" lon="19.775153458148193"><ele>519.0</ele><time>2026-05-03T11:58:27.999Z</time></trkpt><trkpt lat="42.3514374012706" lon="19.77534091499241"><ele>517.0</ele><time>2026-05-03T11:58:28.999Z</time></trkpt><trkpt lat="42.35151279946591" lon="19.775499958775388"><ele>515.0</ele><time>2026-05-03T11:58:29.999Z</time></trkpt><trkpt lat="42.35158710974035" lon="19.775646537622865"><ele>513.0</ele><time>2026-05-03T11:58:30.999Z</time></trkpt><trkpt lat="42.35165915226725" lon="19.77576505391504"><ele>513.0</ele><time>2026-05-03T11:58:31.999Z</time></trkpt><trkpt lat="42.35174464870187" lon="19.77587320332922"><ele>513.0</ele><time>2026-05-03T11:58:32.999Z</time></trkpt><trkpt lat="42.35184882177954" lon="19.775977965404817"><ele>513.0</ele><time>2026-05-03T11:58:33.999Z</time></trkpt><trkpt lat="42.35197104596999" lon="19.77609449938533"><ele>513.0</ele><time>2026-05-03T11:58:34.999Z</time></trkpt><trkpt lat="42.352108785421" lon="19.77619699038239"><ele>510.33333333333337</ele><time>2026-05-03T11:58:35.999Z</time></trkpt><trkpt lat="42.352261700438994" lon="19.776306249025733"><ele>507.6666666666667</ele><time>2026-05-03T11:58:36.999Z</time></trkpt><trkpt lat="42.35241458989878" lon="19.77642433045026"><ele>505.0</ele><time>2026-05-03T11:58:37.999Z</time></trkpt><trkpt lat="42.35255900717138" lon="19.776521388374977"><ele>505.0</ele><time>2026-05-03T11:58:38.999Z</time></trkpt><trkpt lat="42.35268248514774" lon="19.77660876058815"><ele>505.0</ele><time>2026-05-03T11:58:39.999Z</time></trkpt><trkpt lat="42.35279188492014" lon="19.77670636586736"><ele>505.0</ele><time>2026-05-03T11:58:40.999Z</time></trkpt><trkpt lat="42.35291221332777" lon="19.776825376721977"><ele>505.0</ele><time>2026-05-03T11:58:41.999Z</time></trkpt><trkpt lat="42.35302452427116" lon="19.77697585916755"><ele>504.0</ele><time>2026-05-03T11:58:42.999Z</time></trkpt><trkpt lat="42.35311281604843" lon="19.777129853581638"><ele>503.0</ele><time>2026-05-03T11:58:43.999Z</time></trkpt><trkpt lat="42.35320481768146" lon="19.77731885758965"><ele>502.0</ele><time>2026-05-03T11:58:44.999Z</time></trkpt><trkpt lat="42.35328808156037" lon="19.777525773025214"><ele>506.0</ele><time>2026-05-03T11:58:45.999Z</time></trkpt><trkpt lat="42.3533911869397" lon="19.777767857495935"><ele>510.0</ele><time>2026-05-03T11:58:46.999Z</time></trkpt><trkpt lat="42.35347676164177" lon="19.777981030739458"><ele>514.0</ele><time>2026-05-03T11:58:47.999Z</time></trkpt><trkpt lat="42.35355475913681" lon="19.77814039587829"><ele>514.0</ele><time>2026-05-03T11:58:48.999Z</time></trkpt><trkpt lat="42.35364051383705" lon="19.778272359494057"><ele>514.0</ele><time>2026-05-03T11:58:49.999Z</time></trkpt><trkpt lat="42.353742336697465" lon="19.778373021867306"><ele>514.0</ele><time>2026-05-03T11:58:50.999Z</time></trkpt><trkpt lat="42.35385756815556" lon="19.77844815789792"><ele>514.0</ele><time>2026-05-03T11:58:51.999Z</time></trkpt><trkpt lat="42.35399394869588" lon="19.77853170233939"><ele>512.0</ele><time>2026-05-03T11:58:52.999Z</time></trkpt><trkpt lat="42.35414582989534" lon="19.77858563012772"><ele>510.0</ele><time>2026-05-03T11:58:54Z</time></trkpt><trkpt lat="42.35430001843308" lon="19.77862398077489"><ele>508.0</ele><time>2026-05-03T11:58:55Z</time></trkpt><trkpt lat="42.35444641963177" lon="19.77866621426364"><ele>508.0</ele><time>2026-05-03T11:58:56Z</time></trkpt><trkpt lat="42.35456780642756" lon="19.7787157689039"><ele>507.99999999999994</ele><time>2026-05-03T11:58:57Z</time></trkpt><trkpt lat="42.35466745444464" lon="19.778767869388364"><ele>507.99999999999994</ele><time>2026-05-03T11:58:58Z</time></trkpt><trkpt lat="42.354757806641324" lon="19.778838502537802"><ele>508.0</ele><time>2026-05-03T11:58:59Z</time></trkpt><trkpt lat="42.35483612240976" lon="19.778921585498548"><ele>508.0</ele><time>2026-05-03T11:59:00Z</time></trkpt><trkpt lat="42.35492195865031" lon="19.77901223646548"><ele>506.4</ele><time>2026-05-03T11:59:01Z</time></trkpt><trkpt lat="42.355006142428685" lon="19.77910663225755"><ele>504.79999999999995</ele><time>2026-05-03T11:59:02Z</time></trkpt><trkpt lat="42.355090043249824" lon="19.77919024310269"><ele>503.2</ele><time>2026-05-03T11:59:03Z</time></trkpt><trkpt lat="42.355184033267854" lon="19.779256759114393"><ele>501.6</ele><time>2026-05-03T11:59:04Z</time></trkpt><trkpt lat="42.35528041470694" lon="19.779304166968743"><ele>500.0</ele><time>2026-05-03T11:59:05Z</time></trkpt><trkpt lat="42.355365488166456" lon="19.77932863143579"><ele>499.99999999999994</ele><time>2026-05-03T11:59:06Z</time></trkpt><trkpt lat="42.35544876717122" lon="19.779320539453817"><ele>500.0</ele><time>2026-05-03T11:59:07Z</time></trkpt><trkpt lat="42.35552995925504" lon="19.77929447011328"><ele>500.0</ele><time>2026-05-03T11:59:08Z</time></trkpt><trkpt lat="42.35561051671099" lon="19.77926510437097"><ele>500.0</ele><time>2026-05-03T11:59:09Z</time></trkpt><trkpt lat="42.3556774661151" lon="19.77923451257516"><ele>499.99999999999994</ele><time>2026-05-03T11:59:10Z</time></trkpt><trkpt lat="42.355742347186855" lon="19.779206451644594"><ele>500.0</ele><time>2026-05-03T11:59:11Z</time></trkpt><trkpt lat="42.35581861616168" lon="19.7791742205576"><ele>499.6</ele><time>2026-05-03T11:59:12Z</time></trkpt><trkpt lat="42.355885687394256" lon="19.77913936041399"><ele>499.2</ele><time>2026-05-03T11:59:13Z</time></trkpt><trkpt lat="42.3559865701569" lon="19.779086607082252"><ele>498.79999999999995</ele><time>2026-05-03T11:59:14Z</time></trkpt><trkpt lat="42.35607968614379" lon="19.779045785795386"><ele>498.4</ele><time>2026-05-03T11:59:15Z</time></trkpt><trkpt lat="42.356181826986706" lon="19.77900013020454"><ele>498.0</ele><time>2026-05-03T11:59:16Z</time></trkpt><trkpt lat="42.35629065788498" lon="19.77894806111751"><ele>499.5</ele><time>2026-05-03T11:59:17Z</time></trkpt><trkpt lat="42.35640566954693" lon="19.77889670093318"><ele>501.0</ele><time>2026-05-03T11:59:18Z</time></trkpt><trkpt lat="42.356526101571674" lon="19.778845927592226"><ele>502.5</ele><time>2026-05-03T11:59:19Z</time></trkpt><trkpt lat="42.3566467099951" lon="19.778808786156233"><ele>504.0</ele><time>2026-05-03T11:59:20Z</time></trkpt><trkpt lat="42.35676188985705" lon="19.778768095891724"><ele>504.0</ele><time>2026-05-03T11:59:21Z</time></trkpt><trkpt lat="42.35687121142036" lon="19.778732869301813"><ele>504.0</ele><time>2026-05-03T11:59:22Z</time></trkpt><trkpt lat="42.35697015485266" lon="19.77870792933186"><ele>504.0</ele><time>2026-05-03T11:59:23Z</time></trkpt><trkpt lat="42.357033332102205" lon="19.778701106177216"><ele>504.0</ele><time>2026-05-03T11:59:24Z</time></trkpt><trkpt lat="42.3571185264756" lon="19.77872533320753"><ele>504.0</ele><time>2026-05-03T11:59:26Z</time></trkpt><trkpt lat="42.35722608575729" lon="19.778853255760332"><ele>505.0</ele><time>2026-05-03T11:59:28Z</time></trkpt><trkpt lat="42.35727425943781" lon="19.778956714671985"><ele>506.0</ele><time>2026-05-03T11:59:29Z</time></trkpt><trkpt lat="42.35729391044864" lon="19.779038410412568"><ele>507.0</ele><time>2026-05-03T11:59:38.999Z</time></trkpt><trkpt lat="42.35737390270978" lon="19.779192575690463"><ele>508.0</ele><time>2026-05-03T11:59:40.999Z</time></trkpt><trkpt lat="42.357442327121426" lon="19.779289170816693"><ele>509.0</ele><time>2026-05-03T11:59:41.999Z</time></trkpt><trkpt lat="42.357526633303" lon="19.77939485975473"><ele>509.0</ele><time>2026-05-03T11:59:42.999Z</time></trkpt><trkpt lat="42.35761876805106" lon="19.77951276916123"><ele>509.0</ele><time>2026-05-03T11:59:43.999Z</time></trkpt><trkpt lat="42.357703368330775" lon="19.77967730440246"><ele>509.0</ele><time>2026-05-03T11:59:44.999Z</time></trkpt><trkpt lat="42.35777504198351" lon="19.779872058232648"><ele>509.0</ele><time>2026-05-03T11:59:45.999Z</time></trkpt><trkpt lat="42.35785193957869" lon="19.7800706924328"><ele>508.66666666666663</ele><time>2026-05-03T11:59:46.999Z</time></trkpt><trkpt lat="42.35793240685095" lon="19.780274392200038"><ele>508.33333333333337</ele><time>2026-05-03T11:59:47.999Z</time></trkpt><trkpt lat="42.35800067968579" lon="19.78048583729673"><ele>508.0</ele><time>2026-05-03T11:59:48.999Z</time></trkpt><trkpt lat="42.35804941400155" lon="19.780694178223847"><ele>510.0</ele><time>2026-05-03T11:59:49.999Z</time></trkpt><trkpt lat="42.358076237087644" lon="19.780877115592062"><ele>511.99999999999994</ele><time>2026-05-03T11:59:50.999Z</time></trkpt><trkpt lat="42.35808893608519" lon="19.781030354811246"><ele>514.0</ele><time>2026-05-03T11:59:51.999Z</time></trkpt><trkpt lat="42.35810825509656" lon="19.781158042849114"><ele>516.0</ele><time>2026-05-03T11:59:52.999Z</time></trkpt><trkpt lat="42.358141797176685" lon="19.78127653658411"><ele>518.0</ele><time>2026-05-03T11:59:53.999Z</time></trkpt><trkpt lat="42.358196812304904" lon="19.781384565891532"><ele>518.0</ele><time>2026-05-03T11:59:54.999Z</time></trkpt><trkpt lat="42.358263083355745" lon="19.781489219510597"><ele>518.0</ele><time>2026-05-03T11:59:55.999Z</time></trkpt><trkpt lat="42.35833976818567" lon="19.78158409220612"><ele>518.0</ele><time>2026-05-03T11:59:56.999Z</time></trkpt><trkpt lat="42.35842981329679" lon="19.781667127293083"><ele>518.0</ele><time>2026-05-03T11:59:57.999Z</time></trkpt><trkpt lat="42.35853186171443" lon="19.781748384116185"><ele>518.0</ele><time>2026-05-03T11:59:58.999Z</time></trkpt><trkpt lat="42.358634818422495" lon="19.78186006802263"><ele>517.0</ele><time>2026-05-03T11:59:59.999Z</time></trkpt><trkpt lat="42.35873477423927" lon="19.782012521098977"><ele>516.0</ele><time>2026-05-03T12:00:00.999Z</time></trkpt><trkpt lat="42.35883275820092" lon="19.782191647636274"><ele>515.0</ele><time>2026-05-03T12:00:01.999Z</time></trkpt><trkpt lat="42.35893061353356" lon="19.782388740222377"><ele>516.25</ele><time>2026-05-03T12:00:02.999Z</time></trkpt><trkpt lat="42.359012903912976" lon="19.782565320473054"><ele>517.5</ele><time>2026-05-03T12:00:03.999Z</time></trkpt><trkpt lat="42.35909245738711" lon="19.782703367811006"><ele>518.75</ele><time>2026-05-03T12:00:04.999Z</time></trkpt><trkpt lat="42.35918436875997" lon="19.782812489074644"><ele>520.0</ele><time>2026-05-03T12:00:05.999Z</time></trkpt><trkpt lat="42.35930008184244" lon="19.782910642855743"><ele>520.0</ele><time>2026-05-03T12:00:06.999Z</time></trkpt><trkpt lat="42.359432790152965" lon="19.782998807274158"><ele>520.0</ele><time>2026-05-03T12:00:07.999Z</time></trkpt><trkpt lat="42.35957149090326" lon="19.783065276027823"><ele>520.0</ele><time>2026-05-03T12:00:08.999Z</time></trkpt><trkpt lat="42.35970625675151" lon="19.783132760684104"><ele>520.0</ele><time>2026-05-03T12:00:09.999Z</time></trkpt><trkpt lat="42.3598530092551" lon="19.783225989542483"><ele>523.6666666666667</ele><time>2026-05-03T12:00:10.999Z</time></trkpt><trkpt lat="42.36001699763198" lon="19.783330160543095"><ele>527.3333333333334</ele><time>2026-05-03T12:00:11.999Z</time></trkpt><trkpt lat="42.36016530245056" lon="19.78341445784931"><ele>531.0</ele><time>2026-05-03T12:00:12.999Z</time></trkpt><trkpt lat="42.360341272745956" lon="19.783505563141734"><ele>529.6666666666666</ele><time>2026-05-03T12:00:13.999Z</time></trkpt><trkpt lat="42.36052538604077" lon="19.78358251828815"><ele>528.3333333333333</ele><time>2026-05-03T12:00:14.999Z</time></trkpt><trkpt lat="42.36070198362511" lon="19.783658923358466"><ele>527.0</ele><time>2026-05-03T12:00:15.999Z</time></trkpt><trkpt lat="42.36084457716613" lon="19.783739358002606"><ele>530.6666666666666</ele><time>2026-05-03T12:00:16.999Z</time></trkpt><trkpt lat="42.36097065799424" lon="19.78382969162875"><ele>534.3333333333334</ele><time>2026-05-03T12:00:17.999Z</time></trkpt><trkpt lat="42.36109695904043" lon="19.78394005032016"><ele>538.0</ele><time>2026-05-03T12:00:18.999Z</time></trkpt><trkpt lat="42.361220229401425" lon="19.78410065565806"><ele>538.0</ele><time>2026-05-03T12:00:19.999Z</time></trkpt><trkpt lat="42.361331349232316" lon="19.784299845029402"><ele>538.0</ele><time>2026-05-03T12:00:20.999Z</time></trkpt><trkpt lat="42.36143797431017" lon="19.78453646189139"><ele>538.0</ele><time>2026-05-03T12:00:21.999Z</time></trkpt><trkpt lat="42.36155044614172" lon="19.784766429518566"><ele>540.0</ele><time>2026-05-03T12:00:22.999Z</time></trkpt><trkpt lat="42.361665664129404" lon="19.784995915627736"><ele>542.0</ele><time>2026-05-03T12:00:23.999Z</time></trkpt><trkpt lat="42.36176088749351" lon="19.785199577273286"><ele>544.0</ele><time>2026-05-03T12:00:24.999Z</time></trkpt><trkpt lat="42.36184337282981" lon="19.78537962326072"><ele>544.0</ele><time>2026-05-03T12:00:25.999Z</time></trkpt><trkpt lat="42.36190733100438" lon="19.785492126152217"><ele>544.0</ele><time>2026-05-03T12:00:26.999Z</time></trkpt><trkpt lat="42.361983728099595" lon="19.78557631166431"><ele>544.0</ele><time>2026-05-03T12:00:27.999Z</time></trkpt><trkpt lat="42.36208073276204" lon="19.785702366079214"><ele>544.0</ele><time>2026-05-03T12:00:28.999Z</time></trkpt><trkpt lat="42.3621741623959" lon="19.785859426496433"><ele>547.5</ele><time>2026-05-03T12:00:29.999Z</time></trkpt><trkpt lat="42.362269816514946" lon="19.78601864663595"><ele>551.0</ele><time>2026-05-03T12:00:30.999Z</time></trkpt><trkpt lat="42.36236755627097" lon="19.786169137708313"><ele>554.5</ele><time>2026-05-03T12:00:31.999Z</time></trkpt><trkpt lat="42.36245635776166" lon="19.78627794068706"><ele>558.0</ele><time>2026-05-03T12:00:32.999Z</time></trkpt><trkpt lat="42.36255861565237" lon="19.78635233202591"><ele>558.0</ele><time>2026-05-03T12:00:33.999Z</time></trkpt><trkpt lat="42.362646204574155" lon="19.786472306652943"><ele>558.0</ele><time>2026-05-03T12:00:34.999Z</time></trkpt><trkpt lat="42.36280783405345" lon="19.78649010340685"><ele>558.0</ele><time>2026-05-03T12:00:35.999Z</time></trkpt><trkpt lat="42.36300497005847" lon="19.78652151182564"><ele>560.5</ele><time>2026-05-03T12:00:36.999Z</time></trkpt><trkpt lat="42.36315386629353" lon="19.786561433641857"><ele>563.0</ele><time>2026-05-03T12:00:37.999Z</time></trkpt><trkpt lat="42.36326465927664" lon="19.786609008970153"><ele>565.5</ele><time>2026-05-03T12:00:38.999Z</time></trkpt><trkpt lat="42.363366413966936" lon="19.786679970288876"><ele>568.0</ele><time>2026-05-03T12:00:39.999Z</time></trkpt><trkpt lat="42.363457893799435" lon="19.78675370741353"><ele>568.0</ele><time>2026-05-03T12:00:40.999Z</time></trkpt><trkpt lat="42.36355035042648" lon="19.78676818665106"><ele>568.0</ele><time>2026-05-03T12:00:41.999Z</time></trkpt><trkpt lat="42.363689972051425" lon="19.786767614336952"><ele>568.0</ele><time>2026-05-03T12:00:42.999Z</time></trkpt><trkpt lat="42.36383106992586" lon="19.78677820207127"><ele>568.0</ele><time>2026-05-03T12:00:43.999Z</time></trkpt><trkpt lat="42.36398533981047" lon="19.786822846837474"><ele>569.0</ele><time>2026-05-03T12:00:44.999Z</time></trkpt><trkpt lat="42.36413762966126" lon="19.786906091012998"><ele>570.0</ele><time>2026-05-03T12:00:45.999Z</time></trkpt><trkpt lat="42.36430397673094" lon="19.787028169888487"><ele>571.0</ele><time>2026-05-03T12:00:46.999Z</time></trkpt><trkpt lat="42.364470751762504" lon="19.787159538562467"><ele>571.0</ele><time>2026-05-03T12:00:47.999Z</time></trkpt><trkpt lat="42.36463108973863" lon="19.78726575931494"><ele>571.0</ele><time>2026-05-03T12:00:48.999Z</time></trkpt><trkpt lat="42.36480080516429" lon="19.78736056551802"><ele>571.0</ele><time>2026-05-03T12:00:49.999Z</time></trkpt><trkpt lat="42.36498404773432" lon="19.78744833453028"><ele>572.5</ele><time>2026-05-03T12:00:50.999Z</time></trkpt><trkpt lat="42.36521805836197" lon="19.787535224037534"><ele>574.0</ele><time>2026-05-03T12:00:51.999Z</time></trkpt><trkpt lat="42.36545654624856" lon="19.787633774263643"><ele>574.6666666666667</ele><time>2026-05-03T12:00:52.999Z</time></trkpt><trkpt lat="42.36566300750271" lon="19.78772172058856"><ele>575.3333333333334</ele><time>2026-05-03T12:00:53.999Z</time></trkpt><trkpt lat="42.36585111283762" lon="19.787679109499507"><ele>576.0</ele><time>2026-05-03T12:00:54.999Z</time></trkpt><trkpt lat="42.36601672759842" lon="19.787745684610353"><ele>576.0</ele><time>2026-05-03T12:00:55.999Z</time></trkpt><trkpt lat="42.366204112095346" lon="19.7878046488411"><ele>576.0</ele><time>2026-05-03T12:00:56.999Z</time></trkpt><trkpt lat="42.36640764950103" lon="19.787840042708126"><ele>576.0</ele><time>2026-05-03T12:00:57.999Z</time></trkpt><trkpt lat="42.366588383322686" lon="19.787865645904258"><ele>575.75</ele><time>2026-05-03T12:00:58.999Z</time></trkpt><trkpt lat="42.366731867996776" lon="19.787906629119487"><ele>575.5</ele><time>2026-05-03T12:01:00Z</time></trkpt><trkpt lat="42.366850877710554" lon="19.787934979358198"><ele>575.25</ele><time>2026-05-03T12:01:01Z</time></trkpt><trkpt lat="42.366965518387104" lon="19.78791975370177"><ele>575.0</ele><time>2026-05-03T12:01:02Z</time></trkpt><trkpt lat="42.36704272781891" lon="19.787873595440733"><ele>575.0</ele><time>2026-05-03T12:01:03Z</time></trkpt><trkpt lat="42.36707562286621" lon="19.787745328195218"><ele>575.0</ele><time>2026-05-03T12:01:05Z</time></trkpt><trkpt lat="42.366975794359305" lon="19.787650064523945"><ele>575.0</ele><time>2026-05-03T12:01:07Z</time></trkpt><trkpt lat="42.366887686259716" lon="19.787648854271282"><ele>575.0</ele><time>2026-05-03T12:01:08Z</time></trkpt><trkpt lat="42.36677708797991" lon="19.78761892760795"><ele>575.0</ele><time>2026-05-03T12:01:09Z</time></trkpt><trkpt lat="42.366635280647955" lon="19.787566215380746"><ele>579.0</ele><time>2026-05-03T12:01:10Z</time></trkpt><trkpt lat="42.36648436232674" lon="19.78748291369422"><ele>583.0</ele><time>2026-05-03T12:01:11Z</time></trkpt><trkpt lat="42.36630643974072" lon="19.787372792277747"><ele>587.0</ele><time>2026-05-03T12:01:12Z</time></trkpt><trkpt lat="42.36612082639639" lon="19.78726774202333"><ele>587.0</ele><time>2026-05-03T12:01:13Z</time></trkpt><trkpt lat="42.365935108947504" lon="19.787156884095612"><ele>587.0</ele><time>2026-05-03T12:01:14Z</time></trkpt><trkpt lat="42.36576592506314" lon="19.78701611536735"><ele>587.0</ele><time>2026-05-03T12:01:15Z</time></trkpt><trkpt lat="42.36558997317438" lon="19.78685935481811"><ele>590.6666666666666</ele><time>2026-05-03T12:01:16Z</time></trkpt><trkpt lat="42.36539498543973" lon="19.786733679847604"><ele>594.3333333333334</ele><time>2026-05-03T12:01:17Z</time></trkpt><trkpt lat="42.36518186977234" lon="19.786631790465254"><ele>598.0</ele><time>2026-05-03T12:01:18Z</time></trkpt><trkpt lat="42.3649589285002" lon="19.78651295047643"><ele>598.0</ele><time>2026-05-03T12:01:19Z</time></trkpt><trkpt lat="42.36477535675185" lon="19.786399120947156"><ele>598.0</ele><time>2026-05-03T12:01:20Z</time></trkpt><trkpt lat="42.36460507689752" lon="19.786266998118986"><ele>598.0</ele><time>2026-05-03T12:01:21Z</time></trkpt><trkpt lat="42.364449572160105" lon="19.78612289738652"><ele>602.6666666666667</ele><time>2026-05-03T12:01:22Z</time></trkpt><trkpt lat="42.3643247375771" lon="19.785998075866118"><ele>607.3333333333334</ele><time>2026-05-03T12:01:23Z</time></trkpt><trkpt lat="42.36421259249438" lon="19.785850286785532"><ele>612.0</ele><time>2026-05-03T12:01:24Z</time></trkpt><trkpt lat="42.364133142886025" lon="19.78567426311466"><ele>612.0</ele><time>2026-05-03T12:01:25Z</time></trkpt><trkpt lat="42.36407247705667" lon="19.78552240894418"><ele>612.0</ele><time>2026-05-03T12:01:26Z</time></trkpt><trkpt lat="42.36404358867059" lon="19.78543221027906"><ele>612.0</ele><time>2026-05-03T12:01:27Z</time></trkpt><trkpt lat="42.36410107341211" lon="19.7853891569623"><ele>612.0</ele><time>2026-05-03T12:01:29Z</time></trkpt><trkpt lat="42.36417018755988" lon="19.785394434262063"><ele>612.0</ele><time>2026-05-03T12:01:30Z</time></trkpt><trkpt lat="42.364225821501506" lon="19.7854695145037"><ele>612.0</ele><time>2026-05-03T12:01:31Z</time></trkpt><trkpt lat="42.36428084707539" lon="19.785599068070713"><ele>612.0</ele><time>2026-05-03T12:01:32Z</time></trkpt><trkpt lat="42.364360953886354" lon="19.785698467107405"><ele>612.0</ele><time>2026-05-03T12:01:33Z</time></trkpt><trkpt lat="42.36447676584286" lon="19.785747996006254"><ele>612.0</ele><time>2026-05-03T12:01:34Z</time></trkpt><trkpt lat="42.364632368398574" lon="19.785765581975884"><ele>612.0</ele><time>2026-05-03T12:01:35Z</time></trkpt><trkpt lat="42.36479925634658" lon="19.78578096062502"><ele>619.0</ele><time>2026-05-03T12:01:36Z</time></trkpt><trkpt lat="42.364984403960186" lon="19.785794958132005"><ele>626.0</ele><time>2026-05-03T12:01:37Z</time></trkpt><trkpt lat="42.36518750481082" lon="19.785780748778624"><ele>633.0</ele><time>2026-05-03T12:01:38Z</time></trkpt><trkpt lat="42.365415916559435" lon="19.78574670145275"><ele>636.5</ele><time>2026-05-03T12:01:39Z</time></trkpt><trkpt lat="42.36564554778598" lon="19.785717510965476"><ele>640.0</ele><time>2026-05-03T12:01:40Z</time></trkpt><trkpt lat="42.36587487425801" lon="19.785730422567635"><ele>640.0</ele><time>2026-05-03T12:01:41Z</time></trkpt><trkpt lat="42.36610977391123" lon="19.785782356444443"><ele>640.0</ele><time>2026-05-03T12:01:42Z</time></trkpt><trkpt lat="42.36629387809515" lon="19.78583895919345"><ele>640.0</ele><time>2026-05-03T12:01:43Z</time></trkpt><trkpt lat="42.36642118834324" lon="19.785881342851095"><ele>643.0</ele><time>2026-05-03T12:01:44Z</time></trkpt><trkpt lat="42.36652824387371" lon="19.785899381454385"><ele>646.0</ele><time>2026-05-03T12:01:45Z</time></trkpt><trkpt lat="42.366652672143466" lon="19.78589396009456"><ele>649.0</ele><time>2026-05-03T12:01:46Z</time></trkpt><trkpt lat="42.366783682702895" lon="19.78586803368576"><ele>652.0</ele><time>2026-05-03T12:01:47Z</time></trkpt><trkpt lat="42.36691987045235" lon="19.785847712235803"><ele>652.0</ele><time>2026-05-03T12:01:48Z</time></trkpt><trkpt lat="42.367032376147684" lon="19.785825617324427"><ele>652.0</ele><time>2026-05-03T12:01:49Z</time></trkpt><trkpt lat="42.3671391227" lon="19.785804353960707"><ele>652.0</ele><time>2026-05-03T12:01:50Z</time></trkpt><trkpt lat="42.367227940791736" lon="19.785793744404845"><ele>652.0</ele><time>2026-05-03T12:01:51Z</time></trkpt><trkpt lat="42.367318836749924" lon="19.785782915668936"><ele>652.0</ele><time>2026-05-03T12:01:52Z</time></trkpt><trkpt lat="42.367428640658446" lon="19.78576698423905"><ele>653.0</ele><time>2026-05-03T12:01:53Z</time></trkpt><trkpt lat="42.36755850501078" lon="19.78577345836356"><ele>654.0</ele><time>2026-05-03T12:01:54Z</time></trkpt><trkpt lat="42.36769620641068" lon="19.785805804554823"><ele>655.0</ele><time>2026-05-03T12:01:55Z</time></trkpt><trkpt lat="42.367845918756295" lon="19.785856320237837"><ele>656.0</ele><time>2026-05-03T12:01:56Z</time></trkpt><trkpt lat="42.36800653279787" lon="19.785930286632404"><ele>654.75</ele><time>2026-05-03T12:01:57Z</time></trkpt><trkpt lat="42.36818235744221" lon="19.785975873829983"><ele>653.5</ele><time>2026-05-03T12:01:58Z</time></trkpt><trkpt lat="42.36834504967695" lon="19.786025479583827"><ele>652.25</ele><time>2026-05-03T12:01:59Z</time></trkpt><trkpt lat="42.368419000944996" lon="19.786108271191722"><ele>651.0</ele><time>2026-05-03T12:02:00Z</time></trkpt><trkpt lat="42.36851838994044" lon="19.786157275747847"><ele>650.0</ele><time>2026-05-03T12:02:01Z</time></trkpt><trkpt lat="42.36860201628319" lon="19.78621308308868"><ele>649.0</ele><time>2026-05-03T12:02:02Z</time></trkpt><trkpt lat="42.36867128769841" lon="19.78626853398272"><ele>648.0</ele><time>2026-05-03T12:02:03Z</time></trkpt><trkpt lat="42.36877460361217" lon="19.786285416561796"><ele>647.0</ele><time>2026-05-03T12:02:04Z</time></trkpt><trkpt lat="42.368873412747625" lon="19.786254657086594"><ele>646.0</ele><time>2026-05-03T12:02:05Z</time></trkpt><trkpt lat="42.36897815473536" lon="19.78619836220871"><ele>646.0</ele><time>2026-05-03T12:02:06Z</time></trkpt><trkpt lat="42.36908248834294" lon="19.78620530205553"><ele>646.0</ele><time>2026-05-03T12:02:07Z</time></trkpt><trkpt lat="42.36917792376893" lon="19.78629574628938"><ele>646.0</ele><time>2026-05-03T12:02:08Z</time></trkpt><trkpt lat="42.36928383170413" lon="19.786401216975037"><ele>646.0</ele><time>2026-05-03T12:02:09Z</time></trkpt><trkpt lat="42.36939266451695" lon="19.786507698118385"><ele>646.0</ele><time>2026-05-03T12:02:10Z</time></trkpt><trkpt lat="42.36952961945877" lon="19.78663419709317"><ele>646.0</ele><time>2026-05-03T12:02:11Z</time></trkpt><trkpt lat="42.369656449294034" lon="19.78674751205652"><ele>646.0</ele><time>2026-05-03T12:02:12Z</time></trkpt><trkpt lat="42.369769614083" lon="19.786839533610873"><ele>640.0</ele><time>2026-05-03T12:02:13Z</time></trkpt><trkpt lat="42.36989450730283" lon="19.786921127747867"><ele>634.0</ele><time>2026-05-03T12:02:14Z</time></trkpt><trkpt lat="42.37002986029657" lon="19.786966757045857"><ele>628.0</ele><time>2026-05-03T12:02:15Z</time></trkpt><trkpt lat="42.370172562741075" lon="19.78701721330434"><ele>622.0</ele><time>2026-05-03T12:02:15.999Z</time></trkpt><trkpt lat="42.370336505918594" lon="19.78707034849486"><ele>622.0</ele><time>2026-05-03T12:02:16.999Z</time></trkpt><trkpt lat="42.370514069913895" lon="19.78715577391694"><ele>622.0</ele><time>2026-05-03T12:02:17.999Z</time></trkpt><trkpt lat="42.37068783438051" lon="19.7872120303833"><ele>622.0</ele><time>2026-05-03T12:02:18.999Z</time></trkpt><trkpt lat="42.370826718742094" lon="19.787324941576742"><ele>618.0</ele><time>2026-05-03T12:02:19.999Z</time></trkpt><trkpt lat="42.370973558014235" lon="19.787459845659143"><ele>614.0</ele><time>2026-05-03T12:02:20.999Z</time></trkpt><trkpt lat="42.371106129787854" lon="19.787587124692145"><ele>610.0</ele><time>2026-05-03T12:02:21.999Z</time></trkpt><trkpt lat="42.3712005375956" lon="19.787688250259137"><ele>610.0</ele><time>2026-05-03T12:02:22.999Z</time></trkpt><trkpt lat="42.371269701635065" lon="19.78772946953033"><ele>610.0</ele><time>2026-05-03T12:02:23.999Z</time></trkpt><trkpt lat="42.37136476686556" lon="19.78773731335355"><ele>610.0</ele><time>2026-05-03T12:02:24.999Z</time></trkpt><trkpt lat="42.371473321771745" lon="19.787742810252038"><ele>610.0</ele><time>2026-05-03T12:02:25.999Z</time></trkpt><trkpt lat="42.3715694903434" lon="19.78776155858225"><ele>610.0</ele><time>2026-05-03T12:02:26.999Z</time></trkpt><trkpt lat="42.37166622914421" lon="19.78777165182847"><ele>624.0</ele><time>2026-05-03T12:02:27.999Z</time></trkpt><trkpt lat="42.371775228322534" lon="19.787761179514117"><ele>638.0</ele><time>2026-05-03T12:02:28.999Z</time></trkpt><trkpt lat="42.37189427436784" lon="19.787731991946185"><ele>652.0</ele><time>2026-05-03T12:02:29.999Z</time></trkpt><trkpt lat="42.37200074941762" lon="19.78771612166398"><ele>666.0</ele><time>2026-05-03T12:02:30.999Z</time></trkpt><trkpt lat="42.37208395514356" lon="19.787701996898065"><ele>680.0</ele><time>2026-05-03T12:02:31.999Z</time></trkpt><trkpt lat="42.3721469005286" lon="19.78770847501904"><ele>680.0</ele><time>2026-05-03T12:02:32.999Z</time></trkpt><trkpt lat="42.37225155164379" lon="19.78777491975536"><ele>680.0</ele><time>2026-05-03T12:02:34.999Z</time></trkpt><trkpt lat="42.372324122113" lon="19.787906886485352"><ele>680.0</ele><time>2026-05-03T12:02:36.999Z</time></trkpt><trkpt lat="42.372430560533275" lon="19.787964042788122"><ele>680.0</ele><time>2026-05-03T12:02:38.999Z</time></trkpt><trkpt lat="42.37250465631353" lon="19.787959845965805"><ele>680.0</ele><time>2026-05-03T12:02:39.999Z</time></trkpt><trkpt lat="42.37259256525677" lon="19.787979748404858"><ele>680.0</ele><time>2026-05-03T12:02:40.999Z</time></trkpt><trkpt lat="42.37267348998092" lon="19.78801299017662"><ele>680.0</ele><time>2026-05-03T12:02:41.999Z</time></trkpt><trkpt lat="42.37272514068827" lon="19.788105801191428"><ele>680.0</ele><time>2026-05-03T12:02:42.999Z</time></trkpt><trkpt lat="42.37279213722248" lon="19.78821225647026"><ele>680.0</ele><time>2026-05-03T12:02:43.999Z</time></trkpt><trkpt lat="42.37292083496892" lon="19.788300599611905"><ele>680.0</ele><time>2026-05-03T12:02:44.999Z</time></trkpt><trkpt lat="42.37308067024986" lon="19.788359318738294"><ele>674.75</ele><time>2026-05-03T12:02:45.999Z</time></trkpt><trkpt lat="42.37323622035794" lon="19.788401462398127"><ele>669.5</ele><time>2026-05-03T12:02:46.999Z</time></trkpt><trkpt lat="42.373365182535395" lon="19.78844333533653"><ele>664.25</ele><time>2026-05-03T12:02:47.999Z</time></trkpt><trkpt lat="42.373504611420024" lon="19.78848953089352"><ele>659.0</ele><time>2026-05-03T12:02:48.999Z</time></trkpt><trkpt lat="42.373677732050105" lon="19.78853926257493"><ele>660.6666666666666</ele><time>2026-05-03T12:02:49.999Z</time></trkpt><trkpt lat="42.37386810651373" lon="19.788581146505788"><ele>662.3333333333334</ele><time>2026-05-03T12:02:50.999Z</time></trkpt><trkpt lat="42.3740526143126" lon="19.78862690163563"><ele>664.0</ele><time>2026-05-03T12:02:51.999Z</time></trkpt><trkpt lat="42.37420068486301" lon="19.7886607270742"><ele>664.0</ele><time>2026-05-03T12:02:52.999Z</time></trkpt><trkpt lat="42.37430881949527" lon="19.788693461144828"><ele>664.0</ele><time>2026-05-03T12:02:53.999Z</time></trkpt><trkpt lat="42.37439486690698" lon="19.7887459916109"><ele>664.0</ele><time>2026-05-03T12:02:54.999Z</time></trkpt><trkpt lat="42.374475875127295" lon="19.78884137978265"><ele>664.0</ele><time>2026-05-03T12:02:55.999Z</time></trkpt><trkpt lat="42.37455025184326" lon="19.788932176823568"><ele>664.0</ele><time>2026-05-03T12:02:56.999Z</time></trkpt><trkpt lat="42.37466656665931" lon="19.78898301803877"><ele>663.8000000000001</ele><time>2026-05-03T12:02:57.999Z</time></trkpt><trkpt lat="42.37479952696741" lon="19.78899661821113"><ele>663.6</ele><time>2026-05-03T12:02:58.999Z</time></trkpt><trkpt lat="42.374910980624314" lon="19.78897580962683"><ele>663.4</ele><time>2026-05-03T12:02:59.999Z</time></trkpt><trkpt lat="42.37499670715867" lon="19.788926094549605"><ele>663.2</ele><time>2026-05-03T12:03:00.999Z</time></trkpt><trkpt lat="42.37505317153869" lon="19.788837953739083"><ele>663.0</ele><time>2026-05-03T12:03:01.999Z</time></trkpt><trkpt lat="42.37509901926948" lon="19.788709471889593"><ele>663.0</ele><time>2026-05-03T12:03:02.999Z</time></trkpt><trkpt lat="42.37514070269583" lon="19.78857383354163"><ele>663.0</ele><time>2026-05-03T12:03:03.999Z</time></trkpt><trkpt lat="42.37520294981205" lon="19.78847723595004"><ele>663.0</ele><time>2026-05-03T12:03:04.999Z</time></trkpt><trkpt lat="42.37530058635893" lon="19.78841980228001"><ele>663.0</ele><time>2026-05-03T12:03:06Z</time></trkpt><trkpt lat="42.37542731352612" lon="19.788384298993062"><ele>663.0</ele><time>2026-05-03T12:03:07Z</time></trkpt><trkpt lat="42.37554322555554" lon="19.788353401103166"><ele>662.25</ele><time>2026-05-03T12:03:08Z</time></trkpt><trkpt lat="42.3756661053568" lon="19.78831969605755"><ele>661.5</ele><time>2026-05-03T12:03:09Z</time></trkpt><trkpt lat="42.37580447403401" lon="19.788270371075715"><ele>660.75</ele><time>2026-05-03T12:03:10Z</time></trkpt><trkpt lat="42.3759616383109" lon="19.788200016039468"><ele>660.0</ele><time>2026-05-03T12:03:11Z</time></trkpt><trkpt lat="42.37612956091786" lon="19.788106669719276"><ele>660.0</ele><time>2026-05-03T12:03:12Z</time></trkpt><trkpt lat="42.376311722698624" lon="19.788002624094933"><ele>660.0</ele><time>2026-05-03T12:03:13Z</time></trkpt><trkpt lat="42.37649752271472" lon="19.787907890734196"><ele>660.0</ele><time>2026-05-03T12:03:14Z</time></trkpt><trkpt lat="42.376664126896294" lon="19.787819932465045"><ele>657.3333333333334</ele><time>2026-05-03T12:03:15Z</time></trkpt><trkpt lat="42.376795661284994" lon="19.787726207715462"><ele>654.6666666666667</ele><time>2026-05-03T12:03:16Z</time></trkpt><trkpt lat="42.376911253796415" lon="19.787584223715292"><ele>652.0</ele><time>2026-05-03T12:03:17Z</time></trkpt><trkpt lat="42.377013520497606" lon="19.787437978134076"><ele>655.0</ele><time>2026-05-03T12:03:18Z</time></trkpt><trkpt lat="42.377121576364324" lon="19.787345696913604"><ele>658.0</ele><time>2026-05-03T12:03:19Z</time></trkpt><trkpt lat="42.377250561285585" lon="19.78728765386896"><ele>661.0</ele><time>2026-05-03T12:03:20Z</time></trkpt><trkpt lat="42.37740368717913" lon="19.787262650188794"><ele>664.0</ele><time>2026-05-03T12:03:21Z</time></trkpt><trkpt lat="42.377560360137764" lon="19.787261147999022"><ele>664.0</ele><time>2026-05-03T12:03:22Z</time></trkpt><trkpt lat="42.37770106531635" lon="19.787272080214894"><ele>664.0</ele><time>2026-05-03T12:03:23Z</time></trkpt><trkpt lat="42.37780576015012" lon="19.787263667958705"><ele>664.0</ele><time>2026-05-03T12:03:24Z</time></trkpt><trkpt lat="42.37788805492954" lon="19.78723289769138"><ele>664.0</ele><time>2026-05-03T12:03:25Z</time></trkpt><trkpt lat="42.37793902571736" lon="19.787181708070595"><ele>664.0</ele><time>2026-05-03T12:03:26Z</time></trkpt><trkpt lat="42.377973463430074" lon="19.787101174949942"><ele>663.25</ele><time>2026-05-03T12:03:28Z</time></trkpt><trkpt lat="42.37808620581596" lon="19.786980219722672"><ele>662.5</ele><time>2026-05-03T12:03:30Z</time></trkpt><trkpt lat="42.37817127269418" lon="19.78688953377762"><ele>661.75</ele><time>2026-05-03T12:03:31Z</time></trkpt><trkpt lat="42.37826865035042" lon="19.786795084934525"><ele>661.0</ele><time>2026-05-03T12:03:32Z</time></trkpt><trkpt lat="42.37836632657898" lon="19.786710242344384"><ele>663.75</ele><time>2026-05-03T12:03:33Z</time></trkpt><trkpt lat="42.37847550471371" lon="19.78663714272985"><ele>666.5</ele><time>2026-05-03T12:03:34Z</time></trkpt><trkpt lat="42.37860005135417" lon="19.786581641687473"><ele>669.25</ele><time>2026-05-03T12:03:35Z</time></trkpt><trkpt lat="42.37873471209101" lon="19.786532589007997"><ele>672.0</ele><time>2026-05-03T12:03:36Z</time></trkpt><trkpt lat="42.3788673677878" lon="19.78647344000984"><ele>672.0</ele><time>2026-05-03T12:03:37Z</time></trkpt><trkpt lat="42.37899298235992" lon="19.78640370986698"><ele>672.0</ele><time>2026-05-03T12:03:38Z</time></trkpt><trkpt lat="42.3791137242001" lon="19.786317329664797"><ele>672.0</ele><time>2026-05-03T12:03:39Z</time></trkpt><trkpt lat="42.37922840068937" lon="19.786206519862798"><ele>672.0</ele><time>2026-05-03T12:03:40Z</time></trkpt><trkpt lat="42.37934501153853" lon="19.786060172611297"><ele>672.6666666666666</ele><time>2026-05-03T12:03:41Z</time></trkpt><trkpt lat="42.379466706699596" lon="19.78589131212262"><ele>673.3333333333333</ele><time>2026-05-03T12:03:42Z</time></trkpt><trkpt lat="42.379602208635866" lon="19.78572505037466"><ele>674.0</ele><time>2026-05-03T12:03:43Z</time></trkpt><trkpt lat="42.379734307828805" lon="19.785566065407895"><ele>674.0</ele><time>2026-05-03T12:03:44Z</time></trkpt><trkpt lat="42.379824550637174" lon="19.785443115641307"><ele>674.0</ele><time>2026-05-03T12:03:45Z</time></trkpt><trkpt lat="42.379925916596896" lon="19.785353362794023"><ele>674.0</ele><time>2026-05-03T12:03:46Z</time></trkpt><trkpt lat="42.380062922051835" lon="19.785287162241396"><ele>674.0</ele><time>2026-05-03T12:03:47Z</time></trkpt><trkpt lat="42.380231356938545" lon="19.785223215622832"><ele>677.6666666666666</ele><time>2026-05-03T12:03:48Z</time></trkpt><trkpt lat="42.38040677310292" lon="19.785146489030605"><ele>681.3333333333334</ele><time>2026-05-03T12:03:49Z</time></trkpt><trkpt lat="42.380592990442956" lon="19.785044996427228"><ele>685.0</ele><time>2026-05-03T12:03:50Z</time></trkpt><trkpt lat="42.38076135094821" lon="19.784945921657204"><ele>685.0</ele><time>2026-05-03T12:03:51Z</time></trkpt><trkpt lat="42.38089916365864" lon="19.784870092029948"><ele>685.0</ele><time>2026-05-03T12:03:52Z</time></trkpt><trkpt lat="42.38102051129348" lon="19.784814715649183"><ele>685.0</ele><time>2026-05-03T12:03:53Z</time></trkpt><trkpt lat="42.38114263264932" lon="19.78479011724193"><ele>685.0</ele><time>2026-05-03T12:03:54Z</time></trkpt><trkpt lat="42.381262260604906" lon="19.78480065920356"><ele>683.5</ele><time>2026-05-03T12:03:55Z</time></trkpt><trkpt lat="42.38137371015617" lon="19.78481728278492"><ele>682.0</ele><time>2026-05-03T12:03:56Z</time></trkpt><trkpt lat="42.38148442620912" lon="19.784800109581287"><ele>680.5</ele><time>2026-05-03T12:03:57Z</time></trkpt><trkpt lat="42.38161156777442" lon="19.784745267530056"><ele>679.0</ele><time>2026-05-03T12:03:58Z</time></trkpt><trkpt lat="42.38174461183764" lon="19.784674556625582"><ele>679.0</ele><time>2026-05-03T12:03:59Z</time></trkpt><trkpt lat="42.38188175134956" lon="19.784609033085363"><ele>679.0</ele><time>2026-05-03T12:04:00Z</time></trkpt><trkpt lat="42.38202765124199" lon="19.784570372165412"><ele>679.0</ele><time>2026-05-03T12:04:01Z</time></trkpt><trkpt lat="42.38218166259985" lon="19.78454374297935"><ele>679.0</ele><time>2026-05-03T12:04:02Z</time></trkpt><trkpt lat="42.3823372928044" lon="19.784502368500814"><ele>679.3333333333334</ele><time>2026-05-03T12:04:03Z</time></trkpt><trkpt lat="42.38248814658941" lon="19.784425642459016"><ele>679.6666666666666</ele><time>2026-05-03T12:04:04Z</time></trkpt><trkpt lat="42.38263646978396" lon="19.78433246944663"><ele>680.0</ele><time>2026-05-03T12:04:05Z</time></trkpt><trkpt lat="42.38278348298746" lon="19.7842414620104"><ele>685.3333333333333</ele><time>2026-05-03T12:04:06Z</time></trkpt><trkpt lat="42.38293693509787" lon="19.784148795749243"><ele>690.6666666666666</ele><time>2026-05-03T12:04:07Z</time></trkpt><trkpt lat="42.38308841778651" lon="19.784055447894147"><ele>696.0</ele><time>2026-05-03T12:04:08Z</time></trkpt><trkpt lat="42.383237090555234" lon="19.783956697361877"><ele>696.0</ele><time>2026-05-03T12:04:09Z</time></trkpt><trkpt lat="42.38338086157427" lon="19.783849177529593"><ele>696.0</ele><time>2026-05-03T12:04:10Z</time></trkpt><trkpt lat="42.383524850654304" lon="19.783739774093608"><ele>696.0</ele><time>2026-05-03T12:04:11Z</time></trkpt><trkpt lat="42.38366513289468" lon="19.783651970422753"><ele>696.0</ele><time>2026-05-03T12:04:12Z</time></trkpt><trkpt lat="42.38378119894196" lon="19.783593896932818"><ele>696.0</ele><time>2026-05-03T12:04:13Z</time></trkpt><trkpt lat="42.38388203277286" lon="19.783531184134866"><ele>696.0</ele><time>2026-05-03T12:04:14Z</time></trkpt><trkpt lat="42.38396397656728" lon="19.78346250556517"><ele>696.0</ele><time>2026-05-03T12:04:15Z</time></trkpt><trkpt lat="42.3840289409599" lon="19.783375449978177"><ele>696.0</ele><time>2026-05-03T12:04:16Z</time></trkpt><trkpt lat="42.38407881338906" lon="19.783243885835937"><ele>697.8</ele><time>2026-05-03T12:04:17Z</time></trkpt><trkpt lat="42.38412511278663" lon="19.783074924001372"><ele>699.5999999999999</ele><time>2026-05-03T12:04:18Z</time></trkpt><trkpt lat="42.38416849352107" lon="19.782931473176795"><ele>701.4</ele><time>2026-05-03T12:04:19Z</time></trkpt><trkpt lat="42.3842029794509" lon="19.782848411943597"><ele>703.2</ele><time>2026-05-03T12:04:20Z</time></trkpt><trkpt lat="42.38424886932962" lon="19.782753091526104"><ele>705.0</ele><time>2026-05-03T12:04:22Z</time></trkpt><trkpt lat="42.38428250594042" lon="19.782651813493374"><ele>709.3333333333334</ele><time>2026-05-03T12:05:01.999Z</time></trkpt><trkpt lat="42.38432006788875" lon="19.782577013669936"><ele>713.6666666666666</ele><time>2026-05-03T12:05:08.999Z</time></trkpt><trkpt lat="42.384368962775774" lon="19.78242920945061"><ele>718.0</ele><time>2026-05-03T12:05:10.999Z</time></trkpt><trkpt lat="42.3844089416947" lon="19.78233743210367"><ele>722.3333333333333</ele><time>2026-05-03T12:05:12Z</time></trkpt><trkpt lat="42.384462837055885" lon="19.782256785911294"><ele>726.6666666666666</ele><time>2026-05-03T12:05:13Z</time></trkpt><trkpt lat="42.38452070317695" lon="19.782194019307138"><ele>731.0</ele><time>2026-05-03T12:05:14Z</time></trkpt><trkpt lat="42.38458191030639" lon="19.782137392139663"><ele>731.0</ele><time>2026-05-03T12:05:15Z</time></trkpt><trkpt lat="42.384637704939585" lon="19.782088089075682"><ele>731.0</ele><time>2026-05-03T12:05:16Z</time></trkpt><trkpt lat="42.384744675928886" lon="19.782005732889473"><ele>731.0</ele><time>2026-05-03T12:05:18Z</time></trkpt><trkpt lat="42.38480427278996" lon="19.781937319873027"><ele>731.0</ele><time>2026-05-03T12:05:19Z</time></trkpt><trkpt lat="42.38487884102575" lon="19.78182309130827"><ele>731.0</ele><time>2026-05-03T12:05:20Z</time></trkpt><trkpt lat="42.38498377048384" lon="19.78168056758043"><ele>728.25</ele><time>2026-05-03T12:05:21Z</time></trkpt><trkpt lat="42.385082079001045" lon="19.781529739140723"><ele>725.5</ele><time>2026-05-03T12:05:22Z</time></trkpt><trkpt lat="42.385174859922294" lon="19.78137280311697"><ele>722.75</ele><time>2026-05-03T12:05:23Z</time></trkpt><trkpt lat="42.38525821650794" lon="19.78122431901374"><ele>720.0</ele><time>2026-05-03T12:05:24Z</time></trkpt><trkpt lat="42.38534086898438" lon="19.781081792251417"><ele>718.75</ele><time>2026-05-03T12:05:25Z</time></trkpt><trkpt lat="42.385423808479466" lon="19.780961440333627"><ele>717.5</ele><time>2026-05-03T12:05:26Z</time></trkpt><trkpt lat="42.38550289479378" lon="19.780858129099983"><ele>716.25</ele><time>2026-05-03T12:05:27Z</time></trkpt><trkpt lat="42.38557561877021" lon="19.780745836484336"><ele>715.0</ele><time>2026-05-03T12:05:28Z</time></trkpt><trkpt lat="42.38563528698896" lon="19.780602847141985"><ele>715.0</ele><time>2026-05-03T12:05:29Z</time></trkpt><trkpt lat="42.385680516872576" lon="19.780435062920073"><ele>715.0</ele><time>2026-05-03T12:05:30Z</time></trkpt><trkpt lat="42.385735261560356" lon="19.78026368328488"><ele>715.0</ele><time>2026-05-03T12:05:31Z</time></trkpt><trkpt lat="42.38580620558404" lon="19.780095291628918"><ele>715.0</ele><time>2026-05-03T12:05:32Z</time></trkpt><trkpt lat="42.38587096092926" lon="19.77992825539522"><ele>716.6</ele><time>2026-05-03T12:05:33Z</time></trkpt><trkpt lat="42.3859332782873" lon="19.779784365359063"><ele>718.2</ele><time>2026-05-03T12:05:34Z</time></trkpt><trkpt lat="42.38599175251359" lon="19.779661160232276"><ele>719.8</ele><time>2026-05-03T12:05:35Z</time></trkpt><trkpt lat="42.386052576310725" lon="19.779563816903835"><ele>721.4</ele><time>2026-05-03T12:05:36Z</time></trkpt><trkpt lat="42.386114234611476" lon="19.779512798799868"><ele>723.0</ele><time>2026-05-03T12:05:37Z</time></trkpt><trkpt lat="42.38617444300966" lon="19.779480489767312"><ele>723.0</ele><time>2026-05-03T12:05:38Z</time></trkpt><trkpt lat="42.38624318761725" lon="19.779444822699713"><ele>723.0</ele><time>2026-05-03T12:05:39Z</time></trkpt><trkpt lat="42.38632464166674" lon="19.779416766569643"><ele>723.0</ele><time>2026-05-03T12:05:40Z</time></trkpt><trkpt lat="42.386390648459624" lon="19.77940416683285"><ele>723.0</ele><time>2026-05-03T12:05:41Z</time></trkpt><trkpt lat="42.38644217935086" lon="19.7795000756601"><ele>723.0</ele><time>2026-05-03T12:05:44Z</time></trkpt><trkpt lat="42.3864489800382" lon="19.77959575849762"><ele>723.0</ele><time>2026-05-03T12:05:46Z</time></trkpt><trkpt lat="42.386463698826184" lon="19.779729761227035"><ele>722.5</ele><time>2026-05-03T12:05:48Z</time></trkpt><trkpt lat="42.38650081632648" lon="19.779834189995203"><ele>722.0</ele><time>2026-05-03T12:05:50Z</time></trkpt><trkpt lat="42.38657564780264" lon="19.779828680377314"><ele>721.5</ele><time>2026-05-03T12:05:52Z</time></trkpt><trkpt lat="42.38664571707168" lon="19.779820336401915"><ele>721.0</ele><time>2026-05-03T12:05:53Z</time></trkpt><trkpt lat="42.3867220489597" lon="19.779811310128277"><ele>720.5</ele><time>2026-05-03T12:05:53.999Z</time></trkpt><trkpt lat="42.38679824024069" lon="19.779809861541406"><ele>720.0</ele><time>2026-05-03T12:05:54.999Z</time></trkpt><trkpt lat="42.38688998901394" lon="19.779815903908737"><ele>720.0</ele><time>2026-05-03T12:05:55.999Z</time></trkpt><trkpt lat="42.38699462069334" lon="19.77982485201303"><ele>720.0</ele><time>2026-05-03T12:05:56.999Z</time></trkpt><trkpt lat="42.38710920641612" lon="19.779825755494887"><ele>720.0</ele><time>2026-05-03T12:05:57.999Z</time></trkpt><trkpt lat="42.38722428942505" lon="19.77982592792982"><ele>720.0</ele><time>2026-05-03T12:05:58.999Z</time></trkpt><trkpt lat="42.387342591043314" lon="19.77982129050255"><ele>720.5</ele><time>2026-05-03T12:05:59.999Z</time></trkpt><trkpt lat="42.387466482749794" lon="19.779819320050866"><ele>721.0</ele><time>2026-05-03T12:06:00.999Z</time></trkpt><trkpt lat="42.38759056518978" lon="19.77982776040314"><ele>721.5</ele><time>2026-05-03T12:06:01.999Z</time></trkpt><trkpt lat="42.38770966177757" lon="19.77982318836156"><ele>722.0</ele><time>2026-05-03T12:06:02.999Z</time></trkpt><trkpt lat="42.387833945784045" lon="19.77981788348857"><ele>722.0</ele><time>2026-05-03T12:06:03.999Z</time></trkpt><trkpt lat="42.38796125898233" lon="19.779817848585957"><ele>722.0</ele><time>2026-05-03T12:06:04.999Z</time></trkpt><trkpt lat="42.388077982269415" lon="19.779808640265063"><ele>722.0</ele><time>2026-05-03T12:06:05.999Z</time></trkpt><trkpt lat="42.38820254400573" lon="19.779784184092257"><ele>722.0</ele><time>2026-05-03T12:06:06.999Z</time></trkpt><trkpt lat="42.38832510951973" lon="19.77975285239041"><ele>722.5</ele><time>2026-05-03T12:06:07.999Z</time></trkpt><trkpt lat="42.38845027885068" lon="19.779736848840663"><ele>723.0</ele><time>2026-05-03T12:06:08.999Z</time></trkpt><trkpt lat="42.38857276071163" lon="19.77974234781104"><ele>723.5</ele><time>2026-05-03T12:06:09.999Z</time></trkpt><trkpt lat="42.38869596281257" lon="19.779764584562162"><ele>724.0</ele><time>2026-05-03T12:06:10.999Z</time></trkpt><trkpt lat="42.388818269366034" lon="19.779790474878908"><ele>725.25</ele><time>2026-05-03T12:06:11.999Z</time></trkpt><trkpt lat="42.38894437379028" lon="19.779808725836947"><ele>726.5</ele><time>2026-05-03T12:06:12.999Z</time></trkpt><trkpt lat="42.38906520996573" lon="19.779831657394688"><ele>727.75</ele><time>2026-05-03T12:06:13.999Z</time></trkpt><trkpt lat="42.38918832263101" lon="19.77984832745708"><ele>729.0</ele><time>2026-05-03T12:06:14.999Z</time></trkpt><trkpt lat="42.38930150053831" lon="19.779852209695886"><ele>729.0</ele><time>2026-05-03T12:06:15.999Z</time></trkpt><trkpt lat="42.38940189196718" lon="19.779841546981586"><ele>729.0</ele><time>2026-05-03T12:06:16.999Z</time></trkpt><trkpt lat="42.38948515974992" lon="19.779816104124624"><ele>729.0</ele><time>2026-05-03T12:06:17.999Z</time></trkpt><trkpt lat="42.38957200774706" lon="19.779774675095425"><ele>729.0</ele><time>2026-05-03T12:06:18.999Z</time></trkpt><trkpt lat="42.389651769713" lon="19.779720697926244"><ele>729.0</ele><time>2026-05-03T12:06:19.999Z</time></trkpt><trkpt lat="42.38972796119102" lon="19.779653885705066"><ele>729.4000000000001</ele><time>2026-05-03T12:06:20.999Z</time></trkpt><trkpt lat="42.38980227887479" lon="19.779585021285925"><ele>729.8</ele><time>2026-05-03T12:06:21.999Z</time></trkpt><trkpt lat="42.38988424434465" lon="19.779527324760096"><ele>730.2</ele><time>2026-05-03T12:06:22.999Z</time></trkpt><trkpt lat="42.3899903353981" lon="19.779463564633286"><ele>730.5999999999999</ele><time>2026-05-03T12:06:23.999Z</time></trkpt><trkpt lat="42.39010302972525" lon="19.77940107831512"><ele>731.0</ele><time>2026-05-03T12:06:24.999Z</time></trkpt><trkpt lat="42.390208737526144" lon="19.77934826996343"><ele>731.4</ele><time>2026-05-03T12:06:25.999Z</time></trkpt><trkpt lat="42.39031611515327" lon="19.779305850735923"><ele>731.8</ele><time>2026-05-03T12:06:26.999Z</time></trkpt><trkpt lat="42.390427247631905" lon="19.779272333439163"><ele>732.1999999999999</ele><time>2026-05-03T12:06:27.999Z</time></trkpt><trkpt lat="42.390527332498515" lon="19.779240622127833"><ele>732.5999999999999</ele><time>2026-05-03T12:06:28.999Z</time></trkpt><trkpt lat="42.390623650551795" lon="19.779219662406454"><ele>733.0</ele><time>2026-05-03T12:06:30.999Z</time></trkpt><trkpt lat="42.39068882497659" lon="19.779336147438435"><ele>733.2857142857142</ele><time>2026-05-03T12:06:33.999Z</time></trkpt><trkpt lat="42.3907207758974" lon="19.779411936492007"><ele>733.5714285714286</ele><time>2026-05-03T12:06:34.999Z</time></trkpt><trkpt lat="42.39075269282679" lon="19.7795058617211"><ele>733.8571428571429</ele><time>2026-05-03T12:06:35.999Z</time></trkpt><trkpt lat="42.39077562829273" lon="19.779608955473947"><ele>734.1428571428571</ele><time>2026-05-03T12:06:36.999Z</time></trkpt><trkpt lat="42.390781939987704" lon="19.779703116440672"><ele>734.4285714285714</ele><time>2026-05-03T12:06:37.999Z</time></trkpt><trkpt lat="42.39078025412354" lon="19.779796742707184"><ele>734.7142857142857</ele><time>2026-05-03T12:06:38.999Z</time></trkpt><trkpt lat="42.39078096660408" lon="19.77990745720715"><ele>735.0</ele><time>2026-05-03T12:06:39.999Z</time></trkpt><trkpt lat="42.3907888657227" lon="19.780013539752925"><ele>735.0</ele><time>2026-05-03T12:06:40.999Z</time></trkpt><trkpt lat="42.39080200555517" lon="19.78010563727686"><ele>735.0</ele><time>2026-05-03T12:06:41.999Z</time></trkpt><trkpt lat="42.390846620898635" lon="19.780269572901975"><ele>735.0</ele><time>2026-05-03T12:06:43.999Z</time></trkpt><trkpt lat="42.39086411248815" lon="19.78035675368041"><ele>735.0</ele><time>2026-05-03T12:06:44.999Z</time></trkpt><trkpt lat="42.39079752253821" lon="19.780464137408654"><ele>735.0</ele><time>2026-05-03T12:06:46.999Z</time></trkpt><trkpt lat="42.39072123523427" lon="19.780503848625795"><ele>735.0</ele><time>2026-05-03T12:06:47.999Z</time></trkpt><trkpt lat="42.39063601376538" lon="19.7805536218615"><ele>735.0</ele><time>2026-05-03T12:06:48.999Z</time></trkpt><trkpt lat="42.390550841553846" lon="19.78061095723762"><ele>735.0</ele><time>2026-05-03T12:06:49.999Z</time></trkpt><trkpt lat="42.3904907056553" lon="19.780654568612963"><ele>735.0</ele><time>2026-05-03T12:06:50.999Z</time></trkpt><trkpt lat="42.39040153800422" lon="19.780734921902162"><ele>735.0</ele><time>2026-05-03T12:06:52.999Z</time></trkpt><trkpt lat="42.39033319355098" lon="19.780787329021056"><ele>735.0</ele><time>2026-05-03T12:06:53.999Z</time></trkpt><trkpt lat="42.39024437663277" lon="19.78081820278851"><ele>735.0</ele><time>2026-05-03T12:06:54.999Z</time></trkpt><trkpt lat="42.39016296231681" lon="19.780835100821204"><ele>735.0</ele><time>2026-05-03T12:06:55.999Z</time></trkpt><trkpt lat="42.390088060875414" lon="19.78086244201736"><ele>735.0</ele><time>2026-05-03T12:06:56.999Z</time></trkpt><trkpt lat="42.39002920742036" lon="19.780922580985212"><ele>735.0</ele><time>2026-05-03T12:06:57.999Z</time></trkpt><trkpt lat="42.38997236294857" lon="19.781033032473072"><ele>735.0</ele><time>2026-05-03T12:06:58.999Z</time></trkpt><trkpt lat="42.38992447517745" lon="19.78114735200532"><ele>735.0</ele><time>2026-05-03T12:06:59.999Z</time></trkpt><trkpt lat="42.389861199347" lon="19.78123565051819"><ele>736.8</ele><time>2026-05-03T12:07:00.999Z</time></trkpt><trkpt lat="42.38978136601224" lon="19.7812848582005"><ele>738.6</ele><time>2026-05-03T12:07:01.999Z</time></trkpt><trkpt lat="42.3897093643173" lon="19.781279169460657"><ele>740.4000000000001</ele><time>2026-05-03T12:07:02.999Z</time></trkpt><trkpt lat="42.38962045168052" lon="19.781242766247303"><ele>742.2</ele><time>2026-05-03T12:07:03.999Z</time></trkpt><trkpt lat="42.3895104922483" lon="19.78120419719175"><ele>744.0</ele><time>2026-05-03T12:07:04.999Z</time></trkpt><trkpt lat="42.389386319139476" lon="19.781159907439392"><ele>744.2</ele><time>2026-05-03T12:07:05.999Z</time></trkpt><trkpt lat="42.389261481856046" lon="19.781123343293707"><ele>744.4000000000001</ele><time>2026-05-03T12:07:06.999Z</time></trkpt><trkpt lat="42.38917146739438" lon="19.78110436105083"><ele>744.6</ele><time>2026-05-03T12:07:07.999Z</time></trkpt><trkpt lat="42.38910425705028" lon="19.78110737788034"><ele>744.8</ele><time>2026-05-03T12:07:08.999Z</time></trkpt><trkpt lat="42.389050998111884" lon="19.781174046198085"><ele>745.0</ele><time>2026-05-03T12:07:10.999Z</time></trkpt><trkpt lat="42.38901498727362" lon="19.781325668814688"><ele>745.0</ele><time>2026-05-03T12:07:12.999Z</time></trkpt><trkpt lat="42.38904458306163" lon="19.78147995559187"><ele>745.0</ele><time>2026-05-03T12:07:14.999Z</time></trkpt><trkpt lat="42.38908440655647" lon="19.78154821390712"><ele>745.0</ele><time>2026-05-03T12:07:15.999Z</time></trkpt><trkpt lat="42.389139820890456" lon="19.781625193863007"><ele>745.0</ele><time>2026-05-03T12:07:16.999Z</time></trkpt><trkpt lat="42.389190355997634" lon="19.781698136275377"><ele>745.0</ele><time>2026-05-03T12:07:18Z</time></trkpt><trkpt lat="42.38923897012669" lon="19.781776471319567"><ele>745.0</ele><time>2026-05-03T12:07:19Z</time></trkpt><trkpt lat="42.389284581374596" lon="19.781847973894244"><ele>746.2</ele><time>2026-05-03T12:07:20Z</time></trkpt><trkpt lat="42.3893326657739" lon="19.78191786840355"><ele>747.4</ele><time>2026-05-03T12:07:21Z</time></trkpt><trkpt lat="42.3894087317163" lon="19.782022934645138"><ele>748.5999999999999</ele><time>2026-05-03T12:07:23Z</time></trkpt><trkpt lat="42.3894958401621" lon="19.782127807062757"><ele>749.8</ele><time>2026-05-03T12:07:25Z</time></trkpt><trkpt lat="42.389562725502856" lon="19.782190071659585"><ele>751.0</ele><time>2026-05-03T12:07:27Z</time></trkpt><trkpt lat="42.38968849282563" lon="19.782349913751176"><ele>751.5999999999999</ele><time>2026-05-03T12:09:10.999Z</time></trkpt><trkpt lat="42.38980354381115" lon="19.782335302449912"><ele>752.2</ele><time>2026-05-03T12:09:12.999Z</time></trkpt><trkpt lat="42.389881827873815" lon="19.78228810252161"><ele>752.8</ele><time>2026-05-03T12:09:13.999Z</time></trkpt><trkpt lat="42.389948014748654" lon="19.7822766542334"><ele>753.4000000000001</ele><time>2026-05-03T12:09:14.999Z</time></trkpt><trkpt lat="42.389972921471035" lon="19.782385749056427"><ele>754.0</ele><time>2026-05-03T12:09:16.999Z</time></trkpt><trkpt lat="42.38993126465503" lon="19.782560030650675"><ele>754.0</ele><time>2026-05-03T12:09:18.999Z</time></trkpt><trkpt lat="42.389886251248875" lon="19.782652638577385"><ele>754.0</ele><time>2026-05-03T12:09:19.999Z</time></trkpt><trkpt lat="42.389824088645554" lon="19.78277723780856"><ele>754.0</ele><time>2026-05-03T12:09:21.999Z</time></trkpt><trkpt lat="42.38978543659791" lon="19.782873130566657"><ele>754.0</ele><time>2026-05-03T12:09:22.999Z</time></trkpt><trkpt lat="42.38975651294779" lon="19.78297892618872"><ele>754.0</ele><time>2026-05-03T12:09:24Z</time></trkpt><trkpt lat="42.38973839893495" lon="19.78310181431393"><ele>754.0</ele><time>2026-05-03T12:09:25Z</time></trkpt><trkpt lat="42.389717551232245" lon="19.783218358922213"><ele>754.0</ele><time>2026-05-03T12:09:26Z</time></trkpt><trkpt lat="42.38967898151026" lon="19.78333159061031"><ele>754.0</ele><time>2026-05-03T12:09:27Z</time></trkpt><trkpt lat="42.389635964817685" lon="19.783432629629655"><ele>754.0</ele><time>2026-05-03T12:09:28Z</time></trkpt><trkpt lat="42.38957190919242" lon="19.78354339700935"><ele>754.0</ele><time>2026-05-03T12:09:29Z</time></trkpt><trkpt lat="42.38950422341668" lon="19.783639414935966"><ele>754.0</ele><time>2026-05-03T12:09:30Z</time></trkpt><trkpt lat="42.38944077117546" lon="19.783722279366927"><ele>754.0</ele><time>2026-05-03T12:09:31Z</time></trkpt><trkpt lat="42.38938060331745" lon="19.78378694711919"><ele>754.0</ele><time>2026-05-03T12:09:32Z</time></trkpt><trkpt lat="42.38928294096182" lon="19.78386159374232"><ele>754.0</ele><time>2026-05-03T12:09:34Z</time></trkpt><trkpt lat="42.38918473617011" lon="19.78390638049609"><ele>754.0</ele><time>2026-05-03T12:09:36Z</time></trkpt><trkpt lat="42.389094264507655" lon="19.783931530595705"><ele>754.0</ele><time>2026-05-03T12:09:38Z</time></trkpt><trkpt lat="42.38904181725334" lon="19.78398772127911"><ele>754.0</ele><time>2026-05-03T12:09:42Z</time></trkpt><trkpt lat="42.38898255416498" lon="19.784058109053035"><ele>754.0</ele><time>2026-05-03T12:09:44Z</time></trkpt><trkpt lat="42.388917597707945" lon="19.78418580497784"><ele>754.0</ele><time>2026-05-03T12:09:46Z</time></trkpt><trkpt lat="42.388872159336366" lon="19.78427891825494"><ele>754.0</ele><time>2026-05-03T12:09:48Z</time></trkpt><trkpt lat="42.3888236304349" lon="19.784349188078792"><ele>754.0</ele><time>2026-05-03T12:09:50Z</time></trkpt><trkpt lat="42.388753234484284" lon="19.784386764129877"><ele>754.0</ele><time>2026-05-03T12:10:57.999Z</time></trkpt><trkpt lat="42.388810427202394" lon="19.784424984823147"><ele>754.0</ele><time>2026-05-03T12:11:02.999Z</time></trkpt><trkpt lat="42.38885901974251" lon="19.78428946666756"><ele>754.0</ele><time>2026-05-03T12:11:04.999Z</time></trkpt><trkpt lat="42.38892992127721" lon="19.784172673768946"><ele>754.0</ele><time>2026-05-03T12:11:06.999Z</time></trkpt><trkpt lat="42.389003194384486" lon="19.78404909021722"><ele>754.0</ele><time>2026-05-03T12:11:08.999Z</time></trkpt><trkpt lat="42.389094583092565" lon="19.78394911239629"><ele>753.9999999999999</ele><time>2026-05-03T12:11:10.999Z</time></trkpt><trkpt lat="42.38915350273017" lon="19.78391459404333"><ele>754.0</ele><time>2026-05-03T12:11:11.999Z</time></trkpt><trkpt lat="42.389226830139876" lon="19.783892624447788"><ele>754.0</ele><time>2026-05-03T12:11:12.999Z</time></trkpt><trkpt lat="42.389288319423315" lon="19.783870788109592"><ele>754.0</ele><time>2026-05-03T12:11:13.999Z</time></trkpt><trkpt lat="42.38934998026346" lon="19.783832992503438"><ele>754.0</ele><time>2026-05-03T12:11:14.999Z</time></trkpt><trkpt lat="42.3894018760394" lon="19.78378327259775"><ele>753.9999999999999</ele><time>2026-05-03T12:11:15.999Z</time></trkpt><trkpt lat="42.38946228504749" lon="19.78371259104206"><ele>754.0</ele><time>2026-05-03T12:11:16.999Z</time></trkpt><trkpt lat="42.38951173080751" lon="19.783634982238482"><ele>754.0</ele><time>2026-05-03T12:11:17.999Z</time></trkpt><trkpt lat="42.3895619483106" lon="19.783558664323575"><ele>754.0</ele><time>2026-05-03T12:11:18.999Z</time></trkpt><trkpt lat="42.389613011006915" lon="19.78347696503182"><ele>754.0</ele><time>2026-05-03T12:11:19.999Z</time></trkpt><trkpt lat="42.38967053779011" lon="19.78336923063679"><ele>754.0</ele><time>2026-05-03T12:11:20.999Z</time></trkpt><trkpt lat="42.389720105622104" lon="19.783234315114978"><ele>754.0</ele><time>2026-05-03T12:11:21.999Z</time></trkpt><trkpt lat="42.38975335727635" lon="19.78311253641576"><ele>754.0</ele><time>2026-05-03T12:11:22.999Z</time></trkpt><trkpt lat="42.38976449031774" lon="19.782993084337523"><ele>754.0</ele><time>2026-05-03T12:11:23.999Z</time></trkpt><trkpt lat="42.38978691761827" lon="19.782874622457687"><ele>754.0</ele><time>2026-05-03T12:11:24.999Z</time></trkpt><trkpt lat="42.389809972414945" lon="19.78277894538473"><ele>754.0</ele><time>2026-05-03T12:11:25.999Z</time></trkpt><trkpt lat="42.389849915341436" lon="19.782698644172957"><ele>754.0</ele><time>2026-05-03T12:11:26.999Z</time></trkpt><trkpt lat="42.389894510514715" lon="19.782637760221576"><ele>754.0</ele><time>2026-05-03T12:11:27.999Z</time></trkpt><trkpt lat="42.38994020743597" lon="19.782526095649683"><ele>754.0</ele><time>2026-05-03T12:11:30Z</time></trkpt><trkpt lat="42.389976815403145" lon="19.782376015842107"><ele>754.0</ele><time>2026-05-03T12:11:32Z</time></trkpt><trkpt lat="42.38994898591962" lon="19.782277442481615"><ele>754.0</ele><time>2026-05-03T12:11:34Z</time></trkpt><trkpt lat="42.38985598993625" lon="19.782262554872197"><ele>754.0</ele><time>2026-05-03T12:11:36Z</time></trkpt><trkpt lat="42.38979404518987" lon="19.782341580328545"><ele>754.0</ele><time>2026-05-03T12:11:38Z</time></trkpt><trkpt lat="42.389717814738674" lon="19.782380806935333"><ele>753.5</ele><time>2026-05-03T12:11:40Z</time></trkpt><trkpt lat="42.389650858509384" lon="19.782327081850816"><ele>753.0</ele><time>2026-05-03T12:11:42Z</time></trkpt><trkpt lat="42.389612234434416" lon="19.78223237981837"><ele>752.5</ele><time>2026-05-03T12:11:44Z</time></trkpt><trkpt lat="42.3895441592195" lon="19.782185083697204"><ele>752.0</ele><time>2026-05-03T12:11:46Z</time></trkpt><trkpt lat="42.38948057116883" lon="19.782088870132295"><ele>751.5</ele><time>2026-05-03T12:11:48Z</time></trkpt><trkpt lat="42.389421740412" lon="19.782025494427515"><ele>751.0</ele><time>2026-05-03T12:11:50Z</time></trkpt><trkpt lat="42.38936185358578" lon="19.78195520802743"><ele>751.0</ele><time>2026-05-03T12:11:52Z</time></trkpt><trkpt lat="42.389303735307045" lon="19.781854136849937"><ele>751.0</ele><time>2026-05-03T12:11:54Z</time></trkpt><trkpt lat="42.38923249512353" lon="19.78176088031218"><ele>751.0</ele><time>2026-05-03T12:11:56Z</time></trkpt><trkpt lat="42.389163640181366" lon="19.781641382715186"><ele>751.0</ele><time>2026-05-03T12:11:58Z</time></trkpt><trkpt lat="42.38912522648854" lon="19.781572215624085"><ele>751.0</ele><time>2026-05-03T12:11:59Z</time></trkpt><trkpt lat="42.38905532528112" lon="19.78145664199769"><ele>749.8</ele><time>2026-05-03T12:12:01Z</time></trkpt><trkpt lat="42.389019057129815" lon="19.781336174944084"><ele>748.5999999999999</ele><time>2026-05-03T12:12:03Z</time></trkpt><trkpt lat="42.38905400274628" lon="19.781219360165434"><ele>747.4</ele><time>2026-05-03T12:12:05Z</time></trkpt><trkpt lat="42.389130485865614" lon="19.78113615215799"><ele>746.2</ele><time>2026-05-03T12:12:07Z</time></trkpt><trkpt lat="42.3892355399553" lon="19.781104695588105"><ele>745.0</ele><time>2026-05-03T12:12:09Z</time></trkpt><trkpt lat="42.389339146690205" lon="19.781138731506594"><ele>745.0</ele><time>2026-05-03T12:12:11Z</time></trkpt><trkpt lat="42.38943599493498" lon="19.781195826795095"><ele>745.0</ele><time>2026-05-03T12:12:13Z</time></trkpt><trkpt lat="42.389563650356095" lon="19.781227343117767"><ele>745.0</ele><time>2026-05-03T12:12:15Z</time></trkpt><trkpt lat="42.38967359948065" lon="19.781260228633553"><ele>745.0</ele><time>2026-05-03T12:12:17Z</time></trkpt><trkpt lat="42.389775174961706" lon="19.781285200044902"><ele>744.8333333333334</ele><time>2026-05-03T12:12:19Z</time></trkpt><trkpt lat="42.38988312571043" lon="19.78122246899427"><ele>744.6666666666667</ele><time>2026-05-03T12:12:21Z</time></trkpt><trkpt lat="42.38993941154604" lon="19.781157754843974"><ele>744.5</ele><time>2026-05-03T12:12:22Z</time></trkpt><trkpt lat="42.389974665532066" lon="19.781077960562026"><ele>744.3333333333334</ele><time>2026-05-03T12:12:23Z</time></trkpt><trkpt lat="42.389991778222345" lon="19.780994642353466"><ele>744.1666666666666</ele><time>2026-05-03T12:12:24Z</time></trkpt><trkpt lat="42.39002801289409" lon="19.780909790289826"><ele>744.0</ele><time>2026-05-03T12:12:25Z</time></trkpt><trkpt lat="42.39008796086964" lon="19.780854857110768"><ele>743.1666666666666</ele><time>2026-05-03T12:12:26Z</time></trkpt><trkpt lat="42.3901568274402" lon="19.7808269318639"><ele>742.3333333333334</ele><time>2026-05-03T12:12:27Z</time></trkpt><trkpt lat="42.39022073111284" lon="19.780821147521042"><ele>741.5</ele><time>2026-05-03T12:12:28Z</time></trkpt><trkpt lat="42.39030067539434" lon="19.780803781642348"><ele>740.6666666666667</ele><time>2026-05-03T12:12:29Z</time></trkpt><trkpt lat="42.39037388309443" lon="19.780782706441276"><ele>739.8333333333334</ele><time>2026-05-03T12:12:30Z</time></trkpt><trkpt lat="42.39045308437209" lon="19.780721450223076"><ele>739.0</ele><time>2026-05-03T12:12:31Z</time></trkpt><trkpt lat="42.3905148702012" lon="19.78066165686796"><ele>739.0</ele><time>2026-05-03T12:12:32Z</time></trkpt><trkpt lat="42.3906112433724" lon="19.780574377885017"><ele>739.0</ele><time>2026-05-03T12:12:34Z</time></trkpt><trkpt lat="42.39071626207366" lon="19.78049519201257"><ele>739.0</ele><time>2026-05-03T12:12:36Z</time></trkpt><trkpt lat="42.390800439688554" lon="19.780420371012458"><ele>739.0</ele><time>2026-05-03T12:12:38Z</time></trkpt><trkpt lat="42.39087261516784" lon="19.780344177723066"><ele>739.0</ele><time>2026-05-03T12:12:40Z</time></trkpt><trkpt lat="42.39086131252791" lon="19.780192742752654"><ele>738.2</ele><time>2026-05-03T12:12:42Z</time></trkpt><trkpt lat="42.39079805567444" lon="19.780060873917805"><ele>737.4000000000001</ele><time>2026-05-03T12:12:44Z</time></trkpt><trkpt lat="42.390772267160365" lon="19.77989044049718"><ele>736.6</ele><time>2026-05-03T12:12:46Z</time></trkpt><trkpt lat="42.390774046179786" lon="19.77979860095093"><ele>735.8</ele><time>2026-05-03T12:12:47Z</time></trkpt><trkpt lat="42.390780960595386" lon="19.779703494186123"><ele>735.0</ele><time>2026-05-03T12:12:48Z</time></trkpt><trkpt lat="42.390790173720326" lon="19.779554402951046"><ele>735.0</ele><time>2026-05-03T12:12:50Z</time></trkpt><trkpt lat="42.39075343414336" lon="19.7794330765637"><ele>735.0</ele><time>2026-05-03T12:12:52Z</time></trkpt><trkpt lat="42.390689190065515" lon="19.779328914052932"><ele>735.0</ele><time>2026-05-03T12:12:54Z</time></trkpt><trkpt lat="42.390667136544984" lon="19.77922424394757"><ele>735.0</ele><time>2026-05-03T12:12:56Z</time></trkpt><trkpt lat="42.39071933887394" lon="19.779163079373063"><ele>735.0</ele><time>2026-05-03T12:12:58Z</time></trkpt><trkpt lat="42.39081470115037" lon="19.779097019487388"><ele>734.6666666666666</ele><time>2026-05-03T12:13:00Z</time></trkpt><trkpt lat="42.39089723103841" lon="19.779056278566866"><ele>734.3333333333334</ele><time>2026-05-03T12:13:02Z</time></trkpt><trkpt lat="42.39099150711586" lon="19.77900872664607"><ele>734.0</ele><time>2026-05-03T12:13:04Z</time></trkpt><trkpt lat="42.39107297561921" lon="19.778945955230885"><ele>733.6666666666667</ele><time>2026-05-03T12:13:06Z</time></trkpt><trkpt lat="42.39112812547702" lon="19.778886380820975"><ele>733.3333333333334</ele><time>2026-05-03T12:13:09Z</time></trkpt><trkpt lat="42.39117933196977" lon="19.77880092528447"><ele>733.0</ele><time>2026-05-03T12:13:13Z</time></trkpt><trkpt lat="42.391242540704994" lon="19.77877849828519"><ele>733.0</ele><time>2026-05-03T12:13:16Z</time></trkpt><trkpt lat="42.391300661043125" lon="19.77872029693301"><ele>733.0</ele><time>2026-05-03T12:13:18Z</time></trkpt><trkpt lat="42.39137388579871" lon="19.77864535388244"><ele>733.0</ele><time>2026-05-03T12:13:20Z</time></trkpt><trkpt lat="42.391449492502545" lon="19.77858457659316"><ele>733.0</ele><time>2026-05-03T12:13:22Z</time></trkpt><trkpt lat="42.39155570211082" lon="19.77852300670849"><ele>733.0</ele><time>2026-05-03T12:13:24Z</time></trkpt><trkpt lat="42.39163312503768" lon="19.77848193193331"><ele>732.2</ele><time>2026-05-03T12:13:25Z</time></trkpt><trkpt lat="42.39173177308958" lon="19.77842561783386"><ele>731.4</ele><time>2026-05-03T12:13:25.999Z</time></trkpt><trkpt lat="42.391821017724226" lon="19.778369670612154"><ele>730.6</ele><time>2026-05-03T12:13:26.999Z</time></trkpt><trkpt lat="42.391894766939735" lon="19.778307851629812"><ele>729.8000000000001</ele><time>2026-05-03T12:13:27.999Z</time></trkpt><trkpt lat="42.39196683568338" lon="19.778224795592866"><ele>729.0</ele><time>2026-05-03T12:13:28.999Z</time></trkpt><trkpt lat="42.39203322515149" lon="19.778143069051065"><ele>729.0</ele><time>2026-05-03T12:13:29.999Z</time></trkpt><trkpt lat="42.39209947345263" lon="19.77806874605168"><ele>729.0</ele><time>2026-05-03T12:13:30.999Z</time></trkpt><trkpt lat="42.392160148784356" lon="19.778007555058448"><ele>729.0</ele><time>2026-05-03T12:13:31.999Z</time></trkpt><trkpt lat="42.392219369791455" lon="19.777971846708514"><ele>729.0</ele><time>2026-05-03T12:13:32.999Z</time></trkpt><trkpt lat="42.392289535523794" lon="19.77794831738548"><ele>729.0</ele><time>2026-05-03T12:13:33.999Z</time></trkpt><trkpt lat="42.39237017845897" lon="19.777908619103673"><ele>729.0</ele><time>2026-05-03T12:13:34.999Z</time></trkpt><trkpt lat="42.3924597285194" lon="19.77787098669842"><ele>730.5</ele><time>2026-05-03T12:13:36.001Z</time></trkpt><trkpt lat="42.39255030246014" lon="19.777833505493042"><ele>732.0</ele><time>2026-05-03T12:13:37.001Z</time></trkpt><trkpt lat="42.39263363619609" lon="19.777801155534437"><ele>733.5</ele><time>2026-05-03T12:13:38.001Z</time></trkpt><trkpt lat="42.39270011737288" lon="19.777777359657975"><ele>735.0</ele><time>2026-05-03T12:13:39.001Z</time></trkpt><trkpt lat="42.39276574085334" lon="19.77774695304195"><ele>736.5</ele><time>2026-05-03T12:13:40.001Z</time></trkpt><trkpt lat="42.39282746088785" lon="19.777719820671592"><ele>738.0</ele><time>2026-05-03T12:13:41.001Z</time></trkpt><trkpt lat="42.3928926696533" lon="19.777687290783767"><ele>737.8333333333334</ele><time>2026-05-03T12:13:42.001Z</time></trkpt><trkpt lat="42.39300123094376" lon="19.77763554917049"><ele>737.6666666666666</ele><time>2026-05-03T12:13:44Z</time></trkpt><trkpt lat="42.39306370265787" lon="19.77760349393921"><ele>737.5</ele><time>2026-05-03T12:13:45.001Z</time></trkpt><trkpt lat="42.39313187900906" lon="19.77756460221075"><ele>737.3333333333333</ele><time>2026-05-03T12:13:46.001Z</time></trkpt><trkpt lat="42.39318773605074" lon="19.777517320856223"><ele>737.1666666666666</ele><time>2026-05-03T12:13:47.001Z</time></trkpt><trkpt lat="42.39324220728341" lon="19.777385795801997"><ele>737.0</ele><time>2026-05-03T12:13:49.001Z</time></trkpt><trkpt lat="42.393248918132414" lon="19.77720659404799"><ele>736.8333333333333</ele><time>2026-05-03T12:13:51Z</time></trkpt><trkpt lat="42.39325852447645" lon="19.77709195355719"><ele>736.6666666666666</ele><time>2026-05-03T12:13:52Z</time></trkpt><trkpt lat="42.39327270638717" lon="19.777004755364626"><ele>736.5</ele><time>2026-05-03T12:13:53Z</time></trkpt><trkpt lat="42.39329394063877" lon="19.776910557596583"><ele>736.3333333333334</ele><time>2026-05-03T12:13:53.999Z</time></trkpt><trkpt lat="42.393327796066586" lon="19.776803136218952"><ele>736.1666666666667</ele><time>2026-05-03T12:13:54.999Z</time></trkpt><trkpt lat="42.39336897921818" lon="19.776698059090997"><ele>736.0</ele><time>2026-05-03T12:13:55.999Z</time></trkpt><trkpt lat="42.39341735957304" lon="19.77660629885667"><ele>736.0</ele><time>2026-05-03T12:13:56.999Z</time></trkpt><trkpt lat="42.393474629022805" lon="19.77651321634831"><ele>736.0</ele><time>2026-05-03T12:13:57.999Z</time></trkpt><trkpt lat="42.39354781323114" lon="19.776426280820957"><ele>736.0</ele><time>2026-05-03T12:13:58.999Z</time></trkpt><trkpt lat="42.393623136961565" lon="19.77635419391909"><ele>736.0</ele><time>2026-05-03T12:13:59.999Z</time></trkpt><trkpt lat="42.3937040933624" lon="19.776274775013356"><ele>736.0</ele><time>2026-05-03T12:14:00.999Z</time></trkpt><trkpt lat="42.39379342908576" lon="19.7762153731219"><ele>736.6666666666667</ele><time>2026-05-03T12:14:01.999Z</time></trkpt><trkpt lat="42.393889305985255" lon="19.776188099928543"><ele>737.3333333333334</ele><time>2026-05-03T12:14:02.999Z</time></trkpt><trkpt lat="42.3939691687342" lon="19.776159216115687"><ele>738.0</ele><time>2026-05-03T12:14:03.999Z</time></trkpt><trkpt lat="42.394033147684915" lon="19.776126545950437"><ele>738.6666666666666</ele><time>2026-05-03T12:14:04.999Z</time></trkpt><trkpt lat="42.39408261074895" lon="19.776073238603804"><ele>739.3333333333333</ele><time>2026-05-03T12:14:05.999Z</time></trkpt><trkpt lat="42.39414299849153" lon="19.77601156159321"><ele>740.0</ele><time>2026-05-03T12:14:06.999Z</time></trkpt><trkpt lat="42.39420052721979" lon="19.77596794270303"><ele>740.0</ele><time>2026-05-03T12:14:07.999Z</time></trkpt><trkpt lat="42.39426866654013" lon="19.775937359739878"><ele>740.0</ele><time>2026-05-03T12:14:08.999Z</time></trkpt><trkpt lat="42.39433645940736" lon="19.775886768145032"><ele>740.0</ele><time>2026-05-03T12:14:09.999Z</time></trkpt><trkpt lat="42.39440719288301" lon="19.775810433005596"><ele>740.0</ele><time>2026-05-03T12:14:10.999Z</time></trkpt><trkpt lat="42.39445943283736" lon="19.77572997120781"><ele>740.0</ele><time>2026-05-03T12:14:11.999Z</time></trkpt><trkpt lat="42.394506883290404" lon="19.77565830065444"><ele>740.0</ele><time>2026-05-03T12:14:12.999Z</time></trkpt><trkpt lat="42.394551914913556" lon="19.7755927722784"><ele>740.0</ele><time>2026-05-03T12:14:13.999Z</time></trkpt><trkpt lat="42.39460229613357" lon="19.775511563251825"><ele>740.0</ele><time>2026-05-03T12:14:14.999Z</time></trkpt><trkpt lat="42.394646001659986" lon="19.775443554164518"><ele>740.0</ele><time>2026-05-03T12:14:15.999Z</time></trkpt><trkpt lat="42.39471109443246" lon="19.77533911747485"><ele>740.0</ele><time>2026-05-03T12:14:17.999Z</time></trkpt><trkpt lat="42.39478634948393" lon="19.775244581550876"><ele>740.0</ele><time>2026-05-03T12:14:42.999Z</time></trkpt><trkpt lat="42.3948264208568" lon="19.77517444797272"><ele>740.0</ele><time>2026-05-03T12:14:43.999Z</time></trkpt><trkpt lat="42.394858451407295" lon="19.775097650238582"><ele>741.0</ele><time>2026-05-03T12:14:44.999Z</time></trkpt><trkpt lat="42.39490533585314" lon="19.775024071081752"><ele>742.0</ele><time>2026-05-03T12:14:45.999Z</time></trkpt><trkpt lat="42.39495715553265" lon="19.774948134215506"><ele>743.0</ele><time>2026-05-03T12:14:46.999Z</time></trkpt><trkpt lat="42.39501115805622" lon="19.774863480157926"><ele>744.0</ele><time>2026-05-03T12:14:47.999Z</time></trkpt><trkpt lat="42.39506570709546" lon="19.774780582733644"><ele>745.0</ele><time>2026-05-03T12:14:48.999Z</time></trkpt><trkpt lat="42.395117950538875" lon="19.774711485352633"><ele>746.0</ele><time>2026-05-03T12:14:49.999Z</time></trkpt><trkpt lat="42.39517161302666" lon="19.774629144742764"><ele>746.0</ele><time>2026-05-03T12:14:50.999Z</time></trkpt><trkpt lat="42.39521184564578" lon="19.774551739739145"><ele>746.0</ele><time>2026-05-03T12:14:51.999Z</time></trkpt><trkpt lat="42.39526468723712" lon="19.774467832287936"><ele>746.0</ele><time>2026-05-03T12:14:52.999Z</time></trkpt><trkpt lat="42.395319048771746" lon="19.77439870391983"><ele>746.0</ele><time>2026-05-03T12:14:53.999Z</time></trkpt><trkpt lat="42.39537373954242" lon="19.774322947426914"><ele>746.0</ele><time>2026-05-03T12:14:54.999Z</time></trkpt><trkpt lat="42.39543221928299" lon="19.77422834122393"><ele>746.0</ele><time>2026-05-03T12:14:55.999Z</time></trkpt><trkpt lat="42.3954829744961" lon="19.77414848533545"><ele>746.5</ele><time>2026-05-03T12:14:56.999Z</time></trkpt><trkpt lat="42.3955278924239" lon="19.77406588744812"><ele>747.0</ele><time>2026-05-03T12:14:57.999Z</time></trkpt><trkpt lat="42.395562477313995" lon="19.773991023492314"><ele>747.5</ele><time>2026-05-03T12:14:58.999Z</time></trkpt><trkpt lat="42.395603449366995" lon="19.773877143138172"><ele>748.0</ele><time>2026-05-03T12:15:00.999Z</time></trkpt><trkpt lat="42.39562065515919" lon="19.77379099114508"><ele>748.5</ele><time>2026-05-03T12:15:02.999Z</time></trkpt><trkpt lat="42.39565511964282" lon="19.773704698809315"><ele>749.0</ele><time>2026-05-03T12:15:04.999Z</time></trkpt><trkpt lat="42.39570726484768" lon="19.773570096992387"><ele>748.2</ele><time>2026-05-03T12:15:06.999Z</time></trkpt><trkpt lat="42.395765981330186" lon="19.773438323933306"><ele>747.4000000000001</ele><time>2026-05-03T12:15:08.999Z</time></trkpt><trkpt lat="42.395839817189" lon="19.773357929445794"><ele>746.6</ele><time>2026-05-03T12:15:10.999Z</time></trkpt><trkpt lat="42.395924603836285" lon="19.77327429906721"><ele>745.8</ele><time>2026-05-03T12:15:12.999Z</time></trkpt><trkpt lat="42.39598005173817" lon="19.77322063684702"><ele>745.0</ele><time>2026-05-03T12:15:13.999Z</time></trkpt><trkpt lat="42.39607186327581" lon="19.773108222256603"><ele>745.0</ele><time>2026-05-03T12:15:15.999Z</time></trkpt><trkpt lat="42.39615588113109" lon="19.772995753022073"><ele>745.0</ele><time>2026-05-03T12:15:17.999Z</time></trkpt><trkpt lat="42.396206620372375" lon="19.772940846040473"><ele>745.0</ele><time>2026-05-03T12:15:18.999Z</time></trkpt><trkpt lat="42.3963041610794" lon="19.77284078702579"><ele>745.0</ele><time>2026-05-03T12:15:20.999Z</time></trkpt><trkpt lat="42.39637841427907" lon="19.77274446605687"><ele>745.0</ele><time>2026-05-03T12:15:22.999Z</time></trkpt><trkpt lat="42.39645721191877" lon="19.772624522897576"><ele>746.5</ele><time>2026-05-03T12:15:24.999Z</time></trkpt><trkpt lat="42.39654599131707" lon="19.772521387130357"><ele>748.0</ele><time>2026-05-03T12:15:26.999Z</time></trkpt><trkpt lat="42.396599209362755" lon="19.77246856460511"><ele>749.5</ele><time>2026-05-03T12:15:27.999Z</time></trkpt><trkpt lat="42.39665361987476" lon="19.772416391097764"><ele>751.0</ele><time>2026-05-03T12:15:28.999Z</time></trkpt><trkpt lat="42.396742818655575" lon="19.772330039303764"><ele>752.5</ele><time>2026-05-03T12:15:30.999Z</time></trkpt><trkpt lat="42.396787619236605" lon="19.772257716387664"><ele>754.0</ele><time>2026-05-03T12:16:01Z</time></trkpt><trkpt lat="42.39684563411011" lon="19.772186966277648"><ele>754.0</ele><time>2026-05-03T12:16:03Z</time></trkpt><trkpt lat="42.39695709293102" lon="19.772162291967657"><ele>754.0</ele><time>2026-05-03T12:16:05Z</time></trkpt><trkpt lat="42.39704595673588" lon="19.77214673021321"><ele>754.0</ele><time>2026-05-03T12:16:07Z</time></trkpt><trkpt lat="42.397146104714814" lon="19.772132577726396"><ele>754.0</ele><time>2026-05-03T12:16:09Z</time></trkpt><trkpt lat="42.39724785567146" lon="19.772155013019034"><ele>754.0</ele><time>2026-05-03T12:16:11Z</time></trkpt><trkpt lat="42.397310909540764" lon="19.772156773971822"><ele>756.6</ele><time>2026-05-03T12:16:12Z</time></trkpt><trkpt lat="42.39742747734747" lon="19.772147685746873"><ele>759.2</ele><time>2026-05-03T12:16:14Z</time></trkpt><trkpt lat="42.39753347038799" lon="19.772095472542468"><ele>761.8000000000001</ele><time>2026-05-03T12:16:16Z</time></trkpt><trkpt lat="42.39763122703096" lon="19.772052000816867"><ele>764.4000000000001</ele><time>2026-05-03T12:16:18Z</time></trkpt><trkpt lat="42.397609162698174" lon="19.77196056538875"><ele>767.0</ele><time>2026-05-03T12:16:21Z</time></trkpt><trkpt lat="42.397544944250654" lon="19.7720188074875"><ele>767.0</ele><time>2026-05-03T12:16:23Z</time></trkpt><trkpt lat="42.397461376157906" lon="19.77210701890927"><ele>767.0</ele><time>2026-05-03T12:16:25Z</time></trkpt><trkpt lat="42.39737138829767" lon="19.772127266196865"><ele>767.0</ele><time>2026-05-03T12:16:27Z</time></trkpt><trkpt lat="42.397269132076225" lon="19.77213931192179"><ele>767.0</ele><time>2026-05-03T12:16:29Z</time></trkpt><trkpt lat="42.39719597400901" lon="19.77215343387336"><ele>767.0</ele><time>2026-05-03T12:16:30Z</time></trkpt><trkpt lat="42.39712986941289" lon="19.77215330531682"><ele>767.0</ele><time>2026-05-03T12:16:31Z</time></trkpt><trkpt lat="42.39706622417569" lon="19.77214789887795"><ele>765.1428571428571</ele><time>2026-05-03T12:16:32Z</time></trkpt><trkpt lat="42.3969910147785" lon="19.77215676249894"><ele>763.2857142857143</ele><time>2026-05-03T12:16:32.999Z</time></trkpt><trkpt lat="42.39691980154616" lon="19.772181768324376"><ele>761.4285714285713</ele><time>2026-05-03T12:16:33.999Z</time></trkpt><trkpt lat="42.396857410174945" lon="19.772212873968897"><ele>759.5714285714286</ele><time>2026-05-03T12:16:34.999Z</time></trkpt><trkpt lat="42.39679546281563" lon="19.772255332396988"><ele>757.7142857142857</ele><time>2026-05-03T12:16:35.999Z</time></trkpt><trkpt lat="42.39673993609578" lon="19.772300768852137"><ele>755.8571428571428</ele><time>2026-05-03T12:16:36.999Z</time></trkpt><trkpt lat="42.39666453586604" lon="19.77238415238433"><ele>754.0</ele><time>2026-05-03T12:16:38.999Z</time></trkpt><trkpt lat="42.396635721844206" lon="19.77247482786363"><ele>754.0</ele><time>2026-05-03T12:16:41.999Z</time></trkpt><trkpt lat="42.39668893254623" lon="19.77253005908139"><ele>754.0</ele><time>2026-05-03T12:16:44.999Z</time></trkpt><trkpt lat="42.39667016007285" lon="19.772616728069945"><ele>754.0</ele><time>2026-05-03T12:16:59.999Z</time></trkpt><trkpt lat="42.396602134099325" lon="19.77271031917597"><ele>754.0</ele><time>2026-05-03T12:17:01.999Z</time></trkpt><trkpt lat="42.39655563728204" lon="19.77277289464078"><ele>754.0</ele><time>2026-05-03T12:17:02.999Z</time></trkpt><trkpt lat="42.3964670393546" lon="19.772849661422185"><ele>754.0</ele><time>2026-05-03T12:17:04.999Z</time></trkpt><trkpt lat="42.396356164206225" lon="19.772839682763337"><ele>752.5</ele><time>2026-05-03T12:17:06.999Z</time></trkpt><trkpt lat="42.39626926344241" lon="19.772867598338077"><ele>751.0</ele><time>2026-05-03T12:17:08.999Z</time></trkpt><trkpt lat="42.39622040189254" lon="19.77293714541894"><ele>749.5</ele><time>2026-05-03T12:17:09.999Z</time></trkpt><trkpt lat="42.3961691530688" lon="19.77300892085871"><ele>748.0</ele><time>2026-05-03T12:17:10.999Z</time></trkpt><trkpt lat="42.396106739162185" lon="19.773078146170583"><ele>746.5</ele><time>2026-05-03T12:17:11.999Z</time></trkpt><trkpt lat="42.39604852251518" lon="19.773141846885725"><ele>745.0</ele><time>2026-05-03T12:17:12.999Z</time></trkpt><trkpt lat="42.395991619975106" lon="19.773197253702534"><ele>745.0</ele><time>2026-05-03T12:17:13.999Z</time></trkpt><trkpt lat="42.39594065339246" lon="19.773256607606413"><ele>745.0</ele><time>2026-05-03T12:17:14.999Z</time></trkpt><trkpt lat="42.39588800040356" lon="19.773311850871135"><ele>745.0</ele><time>2026-05-03T12:17:15.999Z</time></trkpt><trkpt lat="42.395793094450845" lon="19.77340199498731"><ele>745.0</ele><time>2026-05-03T12:17:17.999Z</time></trkpt><trkpt lat="42.395697519773314" lon="19.773498357556086"><ele>745.0</ele><time>2026-05-03T12:17:19.999Z</time></trkpt><trkpt lat="42.39564019339938" lon="19.773603335216677"><ele>745.25</ele><time>2026-05-03T12:17:21.999Z</time></trkpt><trkpt lat="42.39562684488546" lon="19.77374976584192"><ele>745.5</ele><time>2026-05-03T12:17:23.999Z</time></trkpt><trkpt lat="42.39558873523294" lon="19.77390439162731"><ele>745.75</ele><time>2026-05-03T12:17:25.999Z</time></trkpt><trkpt lat="42.39555264067074" lon="19.774086755947707"><ele>746.0</ele><time>2026-05-03T12:17:27.999Z</time></trkpt><trkpt lat="42.39550009253265" lon="19.774210556545317"><ele>746.0</ele><time>2026-05-03T12:17:28.999Z</time></trkpt><trkpt lat="42.39543053945524" lon="19.774328715656257"><ele>746.0</ele><time>2026-05-03T12:17:29.999Z</time></trkpt><trkpt lat="42.395354521220426" lon="19.774435412198425"><ele>746.0</ele><time>2026-05-03T12:17:30.999Z</time></trkpt><trkpt lat="42.395277625493556" lon="19.77454391166029"><ele>746.0</ele><time>2026-05-03T12:17:31.999Z</time></trkpt><trkpt lat="42.39520758547993" lon="19.7746461155797"><ele>746.0</ele><time>2026-05-03T12:17:32.999Z</time></trkpt><trkpt lat="42.395147418397215" lon="19.774732130982173"><ele>746.0</ele><time>2026-05-03T12:17:33.999Z</time></trkpt><trkpt lat="42.395097279836584" lon="19.77480459271572"><ele>746.0</ele><time>2026-05-03T12:17:34.999Z</time></trkpt><trkpt lat="42.395049901939636" lon="19.77487458926936"><ele>746.0</ele><time>2026-05-03T12:17:35.999Z</time></trkpt><trkpt lat="42.39500847281748" lon="19.774939153206372"><ele>746.0</ele><time>2026-05-03T12:17:36.999Z</time></trkpt><trkpt lat="42.39493042022358" lon="19.77505588409684"><ele>746.0</ele><time>2026-05-03T12:17:38.999Z</time></trkpt><trkpt lat="42.3948571260684" lon="19.775167941625956"><ele>746.0</ele><time>2026-05-03T12:17:40.999Z</time></trkpt><trkpt lat="42.39479191020734" lon="19.77527698937239"><ele>745.4285714285714</ele><time>2026-05-03T12:17:42.999Z</time></trkpt><trkpt lat="42.39473900112509" lon="19.7753624081455"><ele>744.8571428571429</ele><time>2026-05-03T12:17:44.999Z</time></trkpt><trkpt lat="42.39474148935834" lon="19.7754691645311"><ele>744.2857142857142</ele><time>2026-05-03T12:17:48Z</time></trkpt><trkpt lat="42.39477980389906" lon="19.775552367535443"><ele>743.7142857142858</ele><time>2026-05-03T12:17:51Z</time></trkpt><trkpt lat="42.39478255141826" lon="19.775640454168645"><ele>743.1428571428571</ele><time>2026-05-03T12:17:54Z</time></trkpt><trkpt lat="42.394737657878004" lon="19.775704847913016"><ele>742.5714285714286</ele><time>2026-05-03T12:18:03Z</time></trkpt><trkpt lat="42.394789570235915" lon="19.77564500423836"><ele>742.0</ele><time>2026-05-03T12:19:10Z</time></trkpt><trkpt lat="42.394852859349406" lon="19.775611586165738"><ele>742.0</ele><time>2026-05-03T12:19:18.999Z</time></trkpt><trkpt lat="42.39491277991718" lon="19.77564613484218"><ele>742.0</ele><time>2026-05-03T12:19:24.999Z</time></trkpt><trkpt lat="42.39493723460821" lon="19.77572765649148"><ele>742.0</ele><time>2026-05-03T13:13:28.999Z</time></trkpt><trkpt lat="42.394912064878426" lon="19.775813182777966"><ele>742.0</ele><time>2026-05-03T13:13:33.999Z</time></trkpt><trkpt lat="42.39488094788185" lon="19.77588879004447"><ele>742.0</ele><time>2026-05-03T13:13:42.999Z</time></trkpt><trkpt lat="42.39483638332789" lon="19.775977883410498"><ele>742.0</ele><time>2026-05-03T13:13:50.999Z</time></trkpt><trkpt lat="42.39491056135509" lon="19.775943650281036"><ele>742.0</ele><time>2026-05-03T13:13:54.999Z</time></trkpt><trkpt lat="42.39504172022959" lon="19.775962079516663"><ele>742.0</ele><time>2026-05-03T13:14:23.999Z</time></trkpt><trkpt lat="42.39510124186174" lon="19.776015756417404"><ele>742.0</ele><time>2026-05-03T13:14:28Z</time></trkpt><trkpt lat="42.39510212058106" lon="19.775825647903474"><ele>742.0</ele><time>2026-05-03T13:14:33Z</time></trkpt><trkpt lat="42.395027276710756" lon="19.775808382930208"><ele>742.0</ele><time>2026-05-03T13:14:36Z</time></trkpt><trkpt lat="42.39495498909099" lon="19.775882321390316"><ele>742.0</ele><time>2026-05-03T13:14:44Z</time></trkpt><trkpt lat="42.394884296419086" lon="19.775889990525055"><ele>742.0</ele><time>2026-05-03T13:15:06Z</time></trkpt><trkpt lat="42.394912689043224" lon="19.775804348885984"><ele>742.0</ele><time>2026-05-03T13:15:13Z</time></trkpt><trkpt lat="42.394948617852975" lon="19.775725832474322"><ele>742.0</ele><time>2026-05-03T13:15:20Z</time></trkpt><trkpt lat="42.394917392666606" lon="19.77564430942517"><ele>742.0</ele><time>2026-05-03T13:15:28Z</time></trkpt><trkpt lat="42.3949464216755" lon="19.775762753437085"><ele>742.0</ele><time>2026-05-03T13:19:28Z</time></trkpt><trkpt lat="42.39499683792009" lon="19.775849842060307"><ele>742.0</ele><time>2026-05-03T13:19:35Z</time></trkpt><trkpt lat="42.39493536366097" lon="19.775885308002803"><ele>742.0</ele><time>2026-05-03T13:19:46Z</time></trkpt><trkpt lat="42.39499913605966" lon="19.77594366533246"><ele>742.0</ele><time>2026-05-03T13:19:54Z</time></trkpt><trkpt lat="42.39509380306728" lon="19.775959692310202"><ele>742.0</ele><time>2026-05-03T13:19:55Z</time></trkpt><trkpt lat="42.395209291612886" lon="19.776016911244835"><ele>742.0</ele><time>2026-05-03T13:19:56Z</time></trkpt><trkpt lat="42.39527160612001" lon="19.7760662489509"><ele>742.0</ele><time>2026-05-03T13:19:57Z</time></trkpt><trkpt lat="42.3954159725329" lon="19.776071844616705"><ele>742.0</ele><time>2026-05-03T13:19:58Z</time></trkpt><trkpt lat="42.39552259828892" lon="19.77612629974363"><ele>742.0</ele><time>2026-05-03T13:19:59Z</time></trkpt><trkpt lat="42.395436631658505" lon="19.776095181787802"><ele>742.0</ele><time>2026-05-03T13:20:02Z</time></trkpt><trkpt lat="42.3952232717205" lon="19.7759520092319"><ele>742.0</ele><time>2026-05-03T13:20:03.999Z</time></trkpt><trkpt lat="42.39514525090395" lon="19.775891620593473"><ele>742.0</ele><time>2026-05-03T13:20:04.999Z</time></trkpt><trkpt lat="42.39504561460388" lon="19.77580020973612"><ele>742.0</ele><time>2026-05-03T13:20:05.999Z</time></trkpt><trkpt lat="42.394988975728495" lon="19.775747226017124"><ele>742.0</ele><time>2026-05-03T13:20:08.999Z</time></trkpt><trkpt lat="42.39490329067841" lon="19.775714899775917"><ele>742.0</ele><time>2026-05-03T13:20:10.999Z</time></trkpt><trkpt lat="42.394916341182075" lon="19.775625158113545"><ele>742.0</ele><time>2026-05-03T13:20:22.999Z</time></trkpt><trkpt lat="42.39483955623595" lon="19.775615695082376"><ele>742.0</ele><time>2026-05-03T13:25:56Z</time></trkpt><trkpt lat="42.394796451243025" lon="19.775691080557856"><ele>742.0</ele><time>2026-05-03T13:26:07Z</time></trkpt></trkseg></trk></gpx>